<?xml version="1.0" encoding="UTF-8" standalone="no" ?>
<gpx xmlns="http://www.topografix.com/GPX/1/1" xmlns:xsi="http://www.w3.org/2001/XMLSchema-instance" xsi:schemaLocation="http://www.topografix.com/GPX/1/1 http://www.topografix.com/GPX/1/1/gpx.xsd" version="1.1" creator="VisuGPX - https://www.visugpx.com">
  <metadata>
    <name>Redon_Chateaulin</name>
    <desc><![CDATA[Randonnée cyclotouriste de Redon à Châteaulin par le chemin de halage du canal de Nantes à Brest avec quelques échappées vers Rostrenen, Carhaix et Pleyben.]]></desc>
  </metadata>
  <trk>
    <name><![CDATA[ACTIVE LOG 002]]></name>
    <trkseg>
      <trkpt lat="47.64528" lon="-2.08988">
        <ele>-7.072509765625</ele>
        <time>2012-04-15T06:48:35Z</time>
      </trkpt>
      <trkpt lat="47.64522" lon="-2.08992">
        <ele>-0.3433837890625</ele>
        <time>2012-04-15T06:49:20Z</time>
      </trkpt>
      <trkpt lat="47.64517" lon="-2.08992">
        <ele>0.137451171875</ele>
        <time>2012-04-15T06:52:03Z</time>
      </trkpt>
      <trkpt lat="47.64517" lon="-2.08995">
        <ele>0.6180419921875</ele>
        <time>2012-04-15T06:54:41Z</time>
      </trkpt>
      <trkpt lat="47.64517" lon="-2.08994">
        <ele>0.137451171875</ele>
        <time>2012-04-15T06:55:20Z</time>
      </trkpt>
      <trkpt lat="47.64517" lon="-2.08995">
        <ele>0.137451171875</ele>
        <time>2012-04-15T06:55:51Z</time>
      </trkpt>
      <trkpt lat="47.64525" lon="-2.0899">
        <ele>0.6180419921875</ele>
        <time>2012-04-15T06:56:07Z</time>
      </trkpt>
      <trkpt lat="47.6456" lon="-2.08968">
        <ele>-0.8240966796875</ele>
        <time>2012-04-15T06:56:20Z</time>
      </trkpt>
      <trkpt lat="47.64579" lon="-2.08953">
        <ele>-1.7852783203125</ele>
        <time>2012-04-15T06:56:31Z</time>
      </trkpt>
      <trkpt lat="47.64601" lon="-2.08942">
        <ele>-2.2659912109375</ele>
        <time>2012-04-15T06:57:17Z</time>
      </trkpt>
      <trkpt lat="47.64664" lon="-2.089">
        <ele>-2.2659912109375</ele>
        <time>2012-04-15T06:57:36Z</time>
      </trkpt>
      <trkpt lat="47.64756" lon="-2.08837">
        <ele>-2.7467041015625</ele>
        <time>2012-04-15T06:58:01Z</time>
      </trkpt>
      <trkpt lat="47.64847" lon="-2.0877">
        <ele>-3.227294921875</ele>
        <time>2012-04-15T06:58:26Z</time>
      </trkpt>
      <trkpt lat="47.64893" lon="-2.08721">
        <ele>0.137451171875</ele>
        <time>2012-04-15T06:58:45Z</time>
      </trkpt>
      <trkpt lat="47.64893" lon="-2.08721">
        <ele>-0.3433837890625</ele>
        <time>2012-04-15T06:59:00Z</time>
      </trkpt>
      <trkpt lat="47.64897" lon="-2.08712">
        <ele>0.137451171875</ele>
        <time>2012-04-15T06:59:13Z</time>
      </trkpt>
      <trkpt lat="47.64916" lon="-2.08731">
        <ele>-0.3433837890625</ele>
        <time>2012-04-15T06:59:19Z</time>
      </trkpt>
      <trkpt lat="47.64935" lon="-2.08777">
        <ele>0.137451171875</ele>
        <time>2012-04-15T06:59:32Z</time>
      </trkpt>
      <trkpt lat="47.64961" lon="-2.08859">
        <ele>1.0986328125</ele>
        <time>2012-04-15T06:59:48Z</time>
      </trkpt>
      <trkpt lat="47.65007" lon="-2.0901">
        <ele>2.06005859375</ele>
        <time>2012-04-15T07:00:16Z</time>
      </trkpt>
      <trkpt lat="47.65045" lon="-2.09135">
        <ele>2.06005859375</ele>
        <time>2012-04-15T07:00:42Z</time>
      </trkpt>
      <trkpt lat="47.65101" lon="-2.0931">
        <ele>4.94384765625</ele>
        <time>2012-04-15T07:01:09Z</time>
      </trkpt>
      <trkpt lat="47.6511" lon="-2.09337">
        <ele>5.9052734375</ele>
        <time>2012-04-15T07:01:15Z</time>
      </trkpt>
      <trkpt lat="47.65144" lon="-2.09435">
        <ele>7.827880859375</ele>
        <time>2012-04-15T07:01:36Z</time>
      </trkpt>
      <trkpt lat="47.65195" lon="-2.09591">
        <ele>10.231201171875</ele>
        <time>2012-04-15T07:01:59Z</time>
      </trkpt>
      <trkpt lat="47.65234" lon="-2.0971">
        <ele>9.7506103515625</ele>
        <time>2012-04-15T07:02:24Z</time>
      </trkpt>
      <trkpt lat="47.65247" lon="-2.09757">
        <ele>8.30859375</ele>
        <time>2012-04-15T07:02:37Z</time>
      </trkpt>
      <trkpt lat="47.65268" lon="-2.09817">
        <ele>7.34716796875</ele>
        <time>2012-04-15T07:02:41Z</time>
      </trkpt>
      <trkpt lat="47.65294" lon="-2.0992">
        <ele>7.34716796875</ele>
        <time>2012-04-15T07:03:04Z</time>
      </trkpt>
      <trkpt lat="47.65369" lon="-2.10058">
        <ele>4.94384765625</ele>
        <time>2012-04-15T07:03:24Z</time>
      </trkpt>
      <trkpt lat="47.65417" lon="-2.10096">
        <ele>5.424560546875</ele>
        <time>2012-04-15T07:03:39Z</time>
      </trkpt>
      <trkpt lat="47.65475" lon="-2.10185">
        <ele>3.501953125</ele>
        <time>2012-04-15T07:03:57Z</time>
      </trkpt>
      <trkpt lat="47.65515" lon="-2.10194">
        <ele>3.982666015625</ele>
        <time>2012-04-15T07:04:08Z</time>
      </trkpt>
      <trkpt lat="47.65528" lon="-2.10198">
        <ele>6.3858642578125</ele>
        <time>2012-04-15T07:04:17Z</time>
      </trkpt>
      <trkpt lat="47.65542" lon="-2.10134">
        <ele>6.866455078125</ele>
        <time>2012-04-15T07:04:21Z</time>
      </trkpt>
      <trkpt lat="47.65547" lon="-2.10128">
        <ele>5.424560546875</ele>
        <time>2012-04-15T07:04:37Z</time>
      </trkpt>
      <trkpt lat="47.65547" lon="-2.10128">
        <ele>5.424560546875</ele>
        <time>2012-04-15T07:04:41Z</time>
      </trkpt>
      <trkpt lat="47.65554" lon="-2.10128">
        <ele>6.3858642578125</ele>
        <time>2012-04-15T07:04:45Z</time>
      </trkpt>
      <trkpt lat="47.65596" lon="-2.1012">
        <ele>8.7891845703125</ele>
        <time>2012-04-15T07:04:58Z</time>
      </trkpt>
      <trkpt lat="47.65683" lon="-2.1009">
        <ele>6.866455078125</ele>
        <time>2012-04-15T07:05:19Z</time>
      </trkpt>
      <trkpt lat="47.65773" lon="-2.10061">
        <ele>5.424560546875</ele>
        <time>2012-04-15T07:05:43Z</time>
      </trkpt>
      <trkpt lat="47.65854" lon="-2.10039">
        <ele>2.5406494140625</ele>
        <time>2012-04-15T07:06:06Z</time>
      </trkpt>
      <trkpt lat="47.65937" lon="-2.10014">
        <ele>-0.3433837890625</ele>
        <time>2012-04-15T07:06:27Z</time>
      </trkpt>
      <trkpt lat="47.66021" lon="-2.09988">
        <ele>1.0986328125</ele>
        <time>2012-04-15T07:06:48Z</time>
      </trkpt>
      <trkpt lat="47.66119" lon="-2.09942">
        <ele>1.579345703125</ele>
        <time>2012-04-15T07:07:13Z</time>
      </trkpt>
      <trkpt lat="47.66198" lon="-2.09875">
        <ele>2.5406494140625</ele>
        <time>2012-04-15T07:07:38Z</time>
      </trkpt>
      <trkpt lat="47.66206" lon="-2.09868">
        <ele>3.021240234375</ele>
        <time>2012-04-15T07:07:42Z</time>
      </trkpt>
      <trkpt lat="47.66208" lon="-2.09867">
        <ele>2.5406494140625</ele>
        <time>2012-04-15T07:07:59Z</time>
      </trkpt>
      <trkpt lat="47.66225" lon="-2.09852">
        <ele>3.501953125</ele>
        <time>2012-04-15T07:08:14Z</time>
      </trkpt>
      <trkpt lat="47.66225" lon="-2.09852">
        <ele>3.021240234375</ele>
        <time>2012-04-15T07:08:15Z</time>
      </trkpt>
      <trkpt lat="47.66287" lon="-2.09838">
        <ele>3.021240234375</ele>
        <time>2012-04-15T07:08:26Z</time>
      </trkpt>
      <trkpt lat="47.66321" lon="-2.09827">
        <ele>3.982666015625</ele>
        <time>2012-04-15T07:08:40Z</time>
      </trkpt>
      <trkpt lat="47.66405" lon="-2.09778">
        <ele>6.866455078125</ele>
        <time>2012-04-15T07:09:05Z</time>
      </trkpt>
      <trkpt lat="47.66476" lon="-2.09705">
        <ele>7.34716796875</ele>
        <time>2012-04-15T07:09:29Z</time>
      </trkpt>
      <trkpt lat="47.66504" lon="-2.0965">
        <ele>8.7891845703125</ele>
        <time>2012-04-15T07:09:47Z</time>
      </trkpt>
      <trkpt lat="47.66528" lon="-2.09604">
        <ele>8.30859375</ele>
        <time>2012-04-15T07:09:59Z</time>
      </trkpt>
      <trkpt lat="47.66586" lon="-2.0949">
        <ele>7.34716796875</ele>
        <time>2012-04-15T07:10:21Z</time>
      </trkpt>
      <trkpt lat="47.66621" lon="-2.09421">
        <ele>7.34716796875</ele>
        <time>2012-04-15T07:10:34Z</time>
      </trkpt>
      <trkpt lat="47.66651" lon="-2.09335">
        <ele>4.4632568359375</ele>
        <time>2012-04-15T07:10:51Z</time>
      </trkpt>
      <trkpt lat="47.66716" lon="-2.092">
        <ele>4.94384765625</ele>
        <time>2012-04-15T07:11:16Z</time>
      </trkpt>
      <trkpt lat="47.66792" lon="-2.09041">
        <ele>4.4632568359375</ele>
        <time>2012-04-15T07:11:47Z</time>
      </trkpt>
      <trkpt lat="47.6688" lon="-2.08885">
        <ele>6.866455078125</ele>
        <time>2012-04-15T07:12:20Z</time>
      </trkpt>
      <trkpt lat="47.66897" lon="-2.08869">
        <ele>9.2698974609375</ele>
        <time>2012-04-15T07:12:31Z</time>
      </trkpt>
      <trkpt lat="47.66953" lon="-2.0883">
        <ele>9.7506103515625</ele>
        <time>2012-04-15T07:12:46Z</time>
      </trkpt>
      <trkpt lat="47.6702" lon="-2.0879">
        <ele>7.827880859375</ele>
        <time>2012-04-15T07:13:04Z</time>
      </trkpt>
      <trkpt lat="47.67111" lon="-2.08768">
        <ele>6.866455078125</ele>
        <time>2012-04-15T07:13:27Z</time>
      </trkpt>
      <trkpt lat="47.67191" lon="-2.08796">
        <ele>8.7891845703125</ele>
        <time>2012-04-15T07:13:45Z</time>
      </trkpt>
      <trkpt lat="47.67279" lon="-2.08864">
        <ele>10.711791992188</ele>
        <time>2012-04-15T07:14:09Z</time>
      </trkpt>
      <trkpt lat="47.67357" lon="-2.08954">
        <ele>10.711791992188</ele>
        <time>2012-04-15T07:14:32Z</time>
      </trkpt>
      <trkpt lat="47.6741" lon="-2.09018">
        <ele>10.711791992188</ele>
        <time>2012-04-15T07:14:49Z</time>
      </trkpt>
      <trkpt lat="47.67449" lon="-2.09064">
        <ele>9.7506103515625</ele>
        <time>2012-04-15T07:15:01Z</time>
      </trkpt>
      <trkpt lat="47.6749" lon="-2.09113">
        <ele>10.231201171875</ele>
        <time>2012-04-15T07:15:14Z</time>
      </trkpt>
      <trkpt lat="47.67524" lon="-2.09153">
        <ele>8.7891845703125</ele>
        <time>2012-04-15T07:15:26Z</time>
      </trkpt>
      <trkpt lat="47.67569" lon="-2.09191">
        <ele>9.7506103515625</ele>
        <time>2012-04-15T07:15:44Z</time>
      </trkpt>
      <trkpt lat="47.67569" lon="-2.09191">
        <ele>9.7506103515625</ele>
        <time>2012-04-15T07:15:46Z</time>
      </trkpt>
      <trkpt lat="47.67569" lon="-2.09191">
        <ele>9.2698974609375</ele>
        <time>2012-04-15T07:15:49Z</time>
      </trkpt>
      <trkpt lat="47.67612" lon="-2.09255">
        <ele>11.673217773438</ele>
        <time>2012-04-15T07:16:04Z</time>
      </trkpt>
      <trkpt lat="47.67612" lon="-2.09255">
        <ele>12.15380859375</ele>
        <time>2012-04-15T07:16:09Z</time>
      </trkpt>
      <trkpt lat="47.6762" lon="-2.09268">
        <ele>12.634399414062</ele>
        <time>2012-04-15T07:16:12Z</time>
      </trkpt>
      <trkpt lat="47.67624" lon="-2.09274">
        <ele>12.634399414062</ele>
        <time>2012-04-15T07:16:27Z</time>
      </trkpt>
      <trkpt lat="47.67624" lon="-2.09274">
        <ele>13.115112304688</ele>
        <time>2012-04-15T07:16:51Z</time>
      </trkpt>
      <trkpt lat="47.67615" lon="-2.09296">
        <ele>12.634399414062</ele>
        <time>2012-04-15T07:17:09Z</time>
      </trkpt>
      <trkpt lat="47.67618" lon="-2.09335">
        <ele>14.076416015625</ele>
        <time>2012-04-15T07:17:23Z</time>
      </trkpt>
      <trkpt lat="47.67618" lon="-2.09335">
        <ele>13.115112304688</ele>
        <time>2012-04-15T07:17:34Z</time>
      </trkpt>
      <trkpt lat="47.67619" lon="-2.0934">
        <ele>12.15380859375</ele>
        <time>2012-04-15T07:17:48Z</time>
      </trkpt>
      <trkpt lat="47.67619" lon="-2.0934">
        <ele>10.231201171875</ele>
        <time>2012-04-15T07:18:06Z</time>
      </trkpt>
      <trkpt lat="47.67619" lon="-2.0934">
        <ele>9.7506103515625</ele>
        <time>2012-04-15T07:18:38Z</time>
      </trkpt>
      <trkpt lat="47.67619" lon="-2.0934">
        <ele>10.711791992188</ele>
        <time>2012-04-15T07:23:24Z</time>
      </trkpt>
      <trkpt lat="47.67619" lon="-2.0934">
        <ele>9.2698974609375</ele>
        <time>2012-04-15T07:27:53Z</time>
      </trkpt>
      <trkpt lat="47.67615" lon="-2.09292">
        <ele>8.30859375</ele>
        <time>2012-04-15T07:28:08Z</time>
      </trkpt>
      <trkpt lat="47.67613" lon="-2.09271">
        <ele>8.7891845703125</ele>
        <time>2012-04-15T07:28:15Z</time>
      </trkpt>
      <trkpt lat="47.67622" lon="-2.09271">
        <ele>8.30859375</ele>
        <time>2012-04-15T07:28:19Z</time>
      </trkpt>
      <trkpt lat="47.67641" lon="-2.09296">
        <ele>6.3858642578125</ele>
        <time>2012-04-15T07:28:30Z</time>
      </trkpt>
      <trkpt lat="47.67642" lon="-2.09298">
        <ele>6.3858642578125</ele>
        <time>2012-04-15T07:28:31Z</time>
      </trkpt>
      <trkpt lat="47.67676" lon="-2.09346">
        <ele>6.3858642578125</ele>
        <time>2012-04-15T07:28:46Z</time>
      </trkpt>
      <trkpt lat="47.67714" lon="-2.09445">
        <ele>7.34716796875</ele>
        <time>2012-04-15T07:29:06Z</time>
      </trkpt>
      <trkpt lat="47.67746" lon="-2.09557">
        <ele>7.827880859375</ele>
        <time>2012-04-15T07:29:27Z</time>
      </trkpt>
      <trkpt lat="47.67788" lon="-2.09709">
        <ele>8.30859375</ele>
        <time>2012-04-15T07:29:54Z</time>
      </trkpt>
      <trkpt lat="47.67797" lon="-2.09741">
        <ele>8.30859375</ele>
        <time>2012-04-15T07:30:05Z</time>
      </trkpt>
      <trkpt lat="47.67797" lon="-2.09741">
        <ele>8.30859375</ele>
        <time>2012-04-15T07:30:35Z</time>
      </trkpt>
      <trkpt lat="47.67794" lon="-2.09732">
        <ele>8.30859375</ele>
        <time>2012-04-15T07:30:39Z</time>
      </trkpt>
      <trkpt lat="47.67774" lon="-2.0966">
        <ele>8.30859375</ele>
        <time>2012-04-15T07:30:56Z</time>
      </trkpt>
      <trkpt lat="47.67751" lon="-2.09575">
        <ele>7.827880859375</ele>
        <time>2012-04-15T07:31:13Z</time>
      </trkpt>
      <trkpt lat="47.67713" lon="-2.09438">
        <ele>6.866455078125</ele>
        <time>2012-04-15T07:31:39Z</time>
      </trkpt>
      <trkpt lat="47.67665" lon="-2.09325">
        <ele>8.7891845703125</ele>
        <time>2012-04-15T07:32:02Z</time>
      </trkpt>
      <trkpt lat="47.67636" lon="-2.0929">
        <ele>10.231201171875</ele>
        <time>2012-04-15T07:32:14Z</time>
      </trkpt>
      <trkpt lat="47.67625" lon="-2.09276">
        <ele>10.711791992188</ele>
        <time>2012-04-15T07:32:19Z</time>
      </trkpt>
      <trkpt lat="47.67624" lon="-2.09274">
        <ele>11.673217773438</ele>
        <time>2012-04-15T07:32:25Z</time>
      </trkpt>
      <trkpt lat="47.67622" lon="-2.0927">
        <ele>12.15380859375</ele>
        <time>2012-04-15T07:32:28Z</time>
      </trkpt>
      <trkpt lat="47.6762" lon="-2.09362">
        <ele>12.15380859375</ele>
        <time>2012-04-15T07:32:47Z</time>
      </trkpt>
      <trkpt lat="47.67648" lon="-2.09473">
        <ele>10.711791992188</ele>
        <time>2012-04-15T07:33:04Z</time>
      </trkpt>
      <trkpt lat="47.67698" lon="-2.09587">
        <ele>8.30859375</ele>
        <time>2012-04-15T07:33:22Z</time>
      </trkpt>
      <trkpt lat="47.6773" lon="-2.0967">
        <ele>8.7891845703125</ele>
        <time>2012-04-15T07:33:36Z</time>
      </trkpt>
      <trkpt lat="47.67736" lon="-2.09703">
        <ele>8.30859375</ele>
        <time>2012-04-15T07:33:44Z</time>
      </trkpt>
      <trkpt lat="47.67754" lon="-2.09698">
        <ele>8.30859375</ele>
        <time>2012-04-15T07:33:47Z</time>
      </trkpt>
      <trkpt lat="47.67777" lon="-2.09753">
        <ele>6.866455078125</ele>
        <time>2012-04-15T07:34:01Z</time>
      </trkpt>
      <trkpt lat="47.67792" lon="-2.09812">
        <ele>6.3858642578125</ele>
        <time>2012-04-15T07:34:13Z</time>
      </trkpt>
      <trkpt lat="47.67806" lon="-2.09865">
        <ele>6.3858642578125</ele>
        <time>2012-04-15T07:34:24Z</time>
      </trkpt>
      <trkpt lat="47.67829" lon="-2.09954">
        <ele>4.94384765625</ele>
        <time>2012-04-15T07:34:41Z</time>
      </trkpt>
      <trkpt lat="47.6783" lon="-2.09959">
        <ele>5.424560546875</ele>
        <time>2012-04-15T07:34:50Z</time>
      </trkpt>
      <trkpt lat="47.67849" lon="-2.1004">
        <ele>6.866455078125</ele>
        <time>2012-04-15T07:35:02Z</time>
      </trkpt>
      <trkpt lat="47.67862" lon="-2.10092">
        <ele>6.3858642578125</ele>
        <time>2012-04-15T07:35:14Z</time>
      </trkpt>
      <trkpt lat="47.67885" lon="-2.10171">
        <ele>5.9052734375</ele>
        <time>2012-04-15T07:35:29Z</time>
      </trkpt>
      <trkpt lat="47.6791" lon="-2.10259">
        <ele>3.021240234375</ele>
        <time>2012-04-15T07:35:45Z</time>
      </trkpt>
      <trkpt lat="47.67925" lon="-2.10314">
        <ele>3.982666015625</ele>
        <time>2012-04-15T07:35:56Z</time>
      </trkpt>
      <trkpt lat="47.67945" lon="-2.1039">
        <ele>4.94384765625</ele>
        <time>2012-04-15T07:36:09Z</time>
      </trkpt>
      <trkpt lat="47.67961" lon="-2.10447">
        <ele>5.9052734375</ele>
        <time>2012-04-15T07:36:19Z</time>
      </trkpt>
      <trkpt lat="47.67984" lon="-2.10528">
        <ele>6.3858642578125</ele>
        <time>2012-04-15T07:36:34Z</time>
      </trkpt>
      <trkpt lat="47.68005" lon="-2.106">
        <ele>5.9052734375</ele>
        <time>2012-04-15T07:36:47Z</time>
      </trkpt>
      <trkpt lat="47.68032" lon="-2.10697">
        <ele>6.866455078125</ele>
        <time>2012-04-15T07:37:05Z</time>
      </trkpt>
      <trkpt lat="47.6807" lon="-2.10829">
        <ele>6.3858642578125</ele>
        <time>2012-04-15T07:37:32Z</time>
      </trkpt>
      <trkpt lat="47.68109" lon="-2.10968">
        <ele>5.424560546875</ele>
        <time>2012-04-15T07:37:59Z</time>
      </trkpt>
      <trkpt lat="47.68149" lon="-2.11111">
        <ele>6.3858642578125</ele>
        <time>2012-04-15T07:38:28Z</time>
      </trkpt>
      <trkpt lat="47.68185" lon="-2.11239">
        <ele>6.866455078125</ele>
        <time>2012-04-15T07:38:53Z</time>
      </trkpt>
      <trkpt lat="47.68224" lon="-2.11382">
        <ele>7.34716796875</ele>
        <time>2012-04-15T07:39:20Z</time>
      </trkpt>
      <trkpt lat="47.68269" lon="-2.11538">
        <ele>7.827880859375</ele>
        <time>2012-04-15T07:39:50Z</time>
      </trkpt>
      <trkpt lat="47.68318" lon="-2.11709">
        <ele>8.7891845703125</ele>
        <time>2012-04-15T07:40:23Z</time>
      </trkpt>
      <trkpt lat="47.68346" lon="-2.11814">
        <ele>7.827880859375</ele>
        <time>2012-04-15T07:40:47Z</time>
      </trkpt>
      <trkpt lat="47.68349" lon="-2.11847">
        <ele>7.34716796875</ele>
        <time>2012-04-15T07:41:01Z</time>
      </trkpt>
      <trkpt lat="47.68351" lon="-2.11859">
        <ele>7.34716796875</ele>
        <time>2012-04-15T07:41:11Z</time>
      </trkpt>
      <trkpt lat="47.68351" lon="-2.1186">
        <ele>7.34716796875</ele>
        <time>2012-04-15T07:42:21Z</time>
      </trkpt>
      <trkpt lat="47.68366" lon="-2.11889">
        <ele>3.021240234375</ele>
        <time>2012-04-15T07:42:31Z</time>
      </trkpt>
      <trkpt lat="47.68395" lon="-2.12001">
        <ele>4.4632568359375</ele>
        <time>2012-04-15T07:42:51Z</time>
      </trkpt>
      <trkpt lat="47.68426" lon="-2.12113">
        <ele>4.4632568359375</ele>
        <time>2012-04-15T07:43:12Z</time>
      </trkpt>
      <trkpt lat="47.6844" lon="-2.12163">
        <ele>3.982666015625</ele>
        <time>2012-04-15T07:43:21Z</time>
      </trkpt>
      <trkpt lat="47.68457" lon="-2.1225">
        <ele>5.9052734375</ele>
        <time>2012-04-15T07:43:39Z</time>
      </trkpt>
      <trkpt lat="47.6846" lon="-2.12269">
        <ele>6.866455078125</ele>
        <time>2012-04-15T07:43:51Z</time>
      </trkpt>
      <trkpt lat="47.6846" lon="-2.12269">
        <ele>6.866455078125</ele>
        <time>2012-04-15T07:44:22Z</time>
      </trkpt>
      <trkpt lat="47.68459" lon="-2.12262">
        <ele>7.827880859375</ele>
        <time>2012-04-15T07:44:43Z</time>
      </trkpt>
      <trkpt lat="47.68459" lon="-2.12262">
        <ele>7.827880859375</ele>
        <time>2012-04-15T07:44:49Z</time>
      </trkpt>
      <trkpt lat="47.68459" lon="-2.12262">
        <ele>8.30859375</ele>
        <time>2012-04-15T07:45:03Z</time>
      </trkpt>
      <trkpt lat="47.68459" lon="-2.12262">
        <ele>8.7891845703125</ele>
        <time>2012-04-15T07:49:46Z</time>
      </trkpt>
      <trkpt lat="47.68474" lon="-2.12292">
        <ele>8.7891845703125</ele>
        <time>2012-04-15T07:50:00Z</time>
      </trkpt>
      <trkpt lat="47.68482" lon="-2.12302">
        <ele>8.30859375</ele>
        <time>2012-04-15T07:50:05Z</time>
      </trkpt>
      <trkpt lat="47.68493" lon="-2.12315">
        <ele>6.866455078125</ele>
        <time>2012-04-15T07:50:10Z</time>
      </trkpt>
      <trkpt lat="47.68517" lon="-2.1232">
        <ele>6.866455078125</ele>
        <time>2012-04-15T07:50:17Z</time>
      </trkpt>
      <trkpt lat="47.68594" lon="-2.12275">
        <ele>6.866455078125</ele>
        <time>2012-04-15T07:50:40Z</time>
      </trkpt>
      <trkpt lat="47.68689" lon="-2.12207">
        <ele>7.34716796875</ele>
        <time>2012-04-15T07:51:08Z</time>
      </trkpt>
      <trkpt lat="47.68773" lon="-2.12184">
        <ele>6.866455078125</ele>
        <time>2012-04-15T07:51:30Z</time>
      </trkpt>
      <trkpt lat="47.68848" lon="-2.12219">
        <ele>6.866455078125</ele>
        <time>2012-04-15T07:51:52Z</time>
      </trkpt>
      <trkpt lat="47.68895" lon="-2.12296">
        <ele>7.34716796875</ele>
        <time>2012-04-15T07:52:10Z</time>
      </trkpt>
      <trkpt lat="47.68975" lon="-2.12449">
        <ele>7.34716796875</ele>
        <time>2012-04-15T07:52:42Z</time>
      </trkpt>
      <trkpt lat="47.69044" lon="-2.12505">
        <ele>6.866455078125</ele>
        <time>2012-04-15T07:53:02Z</time>
      </trkpt>
      <trkpt lat="47.69121" lon="-2.1254">
        <ele>5.424560546875</ele>
        <time>2012-04-15T07:53:23Z</time>
      </trkpt>
      <trkpt lat="47.69181" lon="-2.12521">
        <ele>4.94384765625</ele>
        <time>2012-04-15T07:53:38Z</time>
      </trkpt>
      <trkpt lat="47.69288" lon="-2.12441">
        <ele>4.94384765625</ele>
        <time>2012-04-15T07:54:08Z</time>
      </trkpt>
      <trkpt lat="47.69345" lon="-2.12414">
        <ele>5.9052734375</ele>
        <time>2012-04-15T07:54:35Z</time>
      </trkpt>
      <trkpt lat="47.69473" lon="-2.12354">
        <ele>5.9052734375</ele>
        <time>2012-04-15T07:54:58Z</time>
      </trkpt>
      <trkpt lat="47.69557" lon="-2.12332">
        <ele>5.9052734375</ele>
        <time>2012-04-15T07:55:21Z</time>
      </trkpt>
      <trkpt lat="47.69645" lon="-2.12329">
        <ele>5.9052734375</ele>
        <time>2012-04-15T07:55:45Z</time>
      </trkpt>
      <trkpt lat="47.69765" lon="-2.12324">
        <ele>6.3858642578125</ele>
        <time>2012-04-15T07:56:18Z</time>
      </trkpt>
      <trkpt lat="47.69828" lon="-2.12309">
        <ele>6.3858642578125</ele>
        <time>2012-04-15T07:56:37Z</time>
      </trkpt>
      <trkpt lat="47.69892" lon="-2.12293">
        <ele>8.30859375</ele>
        <time>2012-04-15T07:56:57Z</time>
      </trkpt>
      <trkpt lat="47.6994" lon="-2.12277">
        <ele>7.827880859375</ele>
        <time>2012-04-15T07:57:12Z</time>
      </trkpt>
      <trkpt lat="47.69994" lon="-2.12256">
        <ele>8.7891845703125</ele>
        <time>2012-04-15T07:57:29Z</time>
      </trkpt>
      <trkpt lat="47.70098" lon="-2.12258">
        <ele>6.866455078125</ele>
        <time>2012-04-15T07:58:00Z</time>
      </trkpt>
      <trkpt lat="47.7016" lon="-2.12259">
        <ele>5.424560546875</ele>
        <time>2012-04-15T07:58:20Z</time>
      </trkpt>
      <trkpt lat="47.702" lon="-2.12249">
        <ele>6.866455078125</ele>
        <time>2012-04-15T07:58:36Z</time>
      </trkpt>
      <trkpt lat="47.70256" lon="-2.12219">
        <ele>7.827880859375</ele>
        <time>2012-04-15T07:58:54Z</time>
      </trkpt>
      <trkpt lat="47.70328" lon="-2.1216">
        <ele>10.231201171875</ele>
        <time>2012-04-15T07:59:18Z</time>
      </trkpt>
      <trkpt lat="47.70399" lon="-2.1211">
        <ele>11.673217773438</ele>
        <time>2012-04-15T07:59:40Z</time>
      </trkpt>
      <trkpt lat="47.70467" lon="-2.12079">
        <ele>11.673217773438</ele>
        <time>2012-04-15T08:00:01Z</time>
      </trkpt>
      <trkpt lat="47.70537" lon="-2.12045">
        <ele>10.711791992188</ele>
        <time>2012-04-15T08:00:20Z</time>
      </trkpt>
      <trkpt lat="47.70603" lon="-2.12013">
        <ele>10.231201171875</ele>
        <time>2012-04-15T08:00:40Z</time>
      </trkpt>
      <trkpt lat="47.70648" lon="-2.11991">
        <ele>11.192504882812</ele>
        <time>2012-04-15T08:00:55Z</time>
      </trkpt>
      <trkpt lat="47.70712" lon="-2.11966">
        <ele>9.2698974609375</ele>
        <time>2012-04-15T08:01:15Z</time>
      </trkpt>
      <trkpt lat="47.70793" lon="-2.11939">
        <ele>8.7891845703125</ele>
        <time>2012-04-15T08:01:40Z</time>
      </trkpt>
      <trkpt lat="47.70869" lon="-2.1193">
        <ele>6.3858642578125</ele>
        <time>2012-04-15T08:02:02Z</time>
      </trkpt>
      <trkpt lat="47.70936" lon="-2.11944">
        <ele>6.866455078125</ele>
        <time>2012-04-15T08:02:21Z</time>
      </trkpt>
      <trkpt lat="47.7098" lon="-2.11959">
        <ele>10.231201171875</ele>
        <time>2012-04-15T08:02:34Z</time>
      </trkpt>
      <trkpt lat="47.71034" lon="-2.12005">
        <ele>9.2698974609375</ele>
        <time>2012-04-15T08:02:52Z</time>
      </trkpt>
      <trkpt lat="47.71055" lon="-2.12051">
        <ele>10.711791992188</ele>
        <time>2012-04-15T08:03:03Z</time>
      </trkpt>
      <trkpt lat="47.71085" lon="-2.12094">
        <ele>11.673217773438</ele>
        <time>2012-04-15T08:03:15Z</time>
      </trkpt>
      <trkpt lat="47.7111" lon="-2.1213">
        <ele>12.15380859375</ele>
        <time>2012-04-15T08:03:25Z</time>
      </trkpt>
      <trkpt lat="47.71159" lon="-2.12204">
        <ele>11.673217773438</ele>
        <time>2012-04-15T08:03:45Z</time>
      </trkpt>
      <trkpt lat="47.7121" lon="-2.12282">
        <ele>13.115112304688</ele>
        <time>2012-04-15T08:04:07Z</time>
      </trkpt>
      <trkpt lat="47.71256" lon="-2.12354">
        <ele>10.711791992188</ele>
        <time>2012-04-15T08:04:27Z</time>
      </trkpt>
      <trkpt lat="47.71295" lon="-2.12398">
        <ele>8.30859375</ele>
        <time>2012-04-15T08:04:42Z</time>
      </trkpt>
      <trkpt lat="47.71298" lon="-2.12401">
        <ele>6.866455078125</ele>
        <time>2012-04-15T08:04:46Z</time>
      </trkpt>
      <trkpt lat="47.71332" lon="-2.12469">
        <ele>6.3858642578125</ele>
        <time>2012-04-15T08:05:06Z</time>
      </trkpt>
      <trkpt lat="47.71356" lon="-2.12533">
        <ele>6.866455078125</ele>
        <time>2012-04-15T08:05:23Z</time>
      </trkpt>
      <trkpt lat="47.7137" lon="-2.12621">
        <ele>7.827880859375</ele>
        <time>2012-04-15T08:05:43Z</time>
      </trkpt>
      <trkpt lat="47.71386" lon="-2.12729">
        <ele>7.34716796875</ele>
        <time>2012-04-15T08:06:04Z</time>
      </trkpt>
      <trkpt lat="47.71398" lon="-2.12811">
        <ele>6.866455078125</ele>
        <time>2012-04-15T08:06:20Z</time>
      </trkpt>
      <trkpt lat="47.71412" lon="-2.12906">
        <ele>9.2698974609375</ele>
        <time>2012-04-15T08:06:38Z</time>
      </trkpt>
      <trkpt lat="47.71425" lon="-2.12992">
        <ele>10.711791992188</ele>
        <time>2012-04-15T08:06:55Z</time>
      </trkpt>
      <trkpt lat="47.7144" lon="-2.13093">
        <ele>11.192504882812</ele>
        <time>2012-04-15T08:07:14Z</time>
      </trkpt>
      <trkpt lat="47.71456" lon="-2.13204">
        <ele>10.231201171875</ele>
        <time>2012-04-15T08:07:34Z</time>
      </trkpt>
      <trkpt lat="47.71473" lon="-2.13321">
        <ele>10.231201171875</ele>
        <time>2012-04-15T08:07:55Z</time>
      </trkpt>
      <trkpt lat="47.71485" lon="-2.13398">
        <ele>9.7506103515625</ele>
        <time>2012-04-15T08:08:12Z</time>
      </trkpt>
      <trkpt lat="47.71503" lon="-2.13522">
        <ele>8.7891845703125</ele>
        <time>2012-04-15T08:08:37Z</time>
      </trkpt>
      <trkpt lat="47.71513" lon="-2.13591">
        <ele>8.30859375</ele>
        <time>2012-04-15T08:08:52Z</time>
      </trkpt>
      <trkpt lat="47.7153" lon="-2.13708">
        <ele>6.3858642578125</ele>
        <time>2012-04-15T08:09:15Z</time>
      </trkpt>
      <trkpt lat="47.7155" lon="-2.1384">
        <ele>7.34716796875</ele>
        <time>2012-04-15T08:09:40Z</time>
      </trkpt>
      <trkpt lat="47.7157" lon="-2.13977">
        <ele>6.3858642578125</ele>
        <time>2012-04-15T08:10:05Z</time>
      </trkpt>
      <trkpt lat="47.71589" lon="-2.14108">
        <ele>8.30859375</ele>
        <time>2012-04-15T08:10:29Z</time>
      </trkpt>
      <trkpt lat="47.71606" lon="-2.14223">
        <ele>8.30859375</ele>
        <time>2012-04-15T08:10:51Z</time>
      </trkpt>
      <trkpt lat="47.71625" lon="-2.14352">
        <ele>11.192504882812</ele>
        <time>2012-04-15T08:11:15Z</time>
      </trkpt>
      <trkpt lat="47.71644" lon="-2.14476">
        <ele>12.634399414062</ele>
        <time>2012-04-15T08:11:37Z</time>
      </trkpt>
      <trkpt lat="47.71662" lon="-2.14597">
        <ele>11.192504882812</ele>
        <time>2012-04-15T08:11:58Z</time>
      </trkpt>
      <trkpt lat="47.71679" lon="-2.14713">
        <ele>11.192504882812</ele>
        <time>2012-04-15T08:12:19Z</time>
      </trkpt>
      <trkpt lat="47.7169" lon="-2.14793">
        <ele>12.15380859375</ele>
        <time>2012-04-15T08:12:35Z</time>
      </trkpt>
      <trkpt lat="47.71693" lon="-2.14807">
        <ele>12.634399414062</ele>
        <time>2012-04-15T08:12:41Z</time>
      </trkpt>
      <trkpt lat="47.71693" lon="-2.14811">
        <ele>12.15380859375</ele>
        <time>2012-04-15T08:12:43Z</time>
      </trkpt>
      <trkpt lat="47.71695" lon="-2.14825">
        <ele>12.634399414062</ele>
        <time>2012-04-15T08:12:49Z</time>
      </trkpt>
      <trkpt lat="47.71705" lon="-2.14886">
        <ele>10.711791992188</ele>
        <time>2012-04-15T08:13:02Z</time>
      </trkpt>
      <trkpt lat="47.71719" lon="-2.14977">
        <ele>7.827880859375</ele>
        <time>2012-04-15T08:13:21Z</time>
      </trkpt>
      <trkpt lat="47.71735" lon="-2.15077">
        <ele>9.7506103515625</ele>
        <time>2012-04-15T08:13:42Z</time>
      </trkpt>
      <trkpt lat="47.71743" lon="-2.15131">
        <ele>10.711791992188</ele>
        <time>2012-04-15T08:13:53Z</time>
      </trkpt>
      <trkpt lat="47.71756" lon="-2.15217">
        <ele>11.673217773438</ele>
        <time>2012-04-15T08:14:11Z</time>
      </trkpt>
      <trkpt lat="47.71768" lon="-2.15293">
        <ele>10.711791992188</ele>
        <time>2012-04-15T08:14:26Z</time>
      </trkpt>
      <trkpt lat="47.71781" lon="-2.15374">
        <ele>8.7891845703125</ele>
        <time>2012-04-15T08:14:43Z</time>
      </trkpt>
      <trkpt lat="47.71786" lon="-2.15409">
        <ele>4.4632568359375</ele>
        <time>2012-04-15T08:14:50Z</time>
      </trkpt>
      <trkpt lat="47.71799" lon="-2.15492">
        <ele>7.34716796875</ele>
        <time>2012-04-15T08:15:05Z</time>
      </trkpt>
      <trkpt lat="47.71812" lon="-2.15574">
        <ele>8.30859375</ele>
        <time>2012-04-15T08:15:20Z</time>
      </trkpt>
      <trkpt lat="47.7182" lon="-2.15621">
        <ele>7.827880859375</ele>
        <time>2012-04-15T08:15:28Z</time>
      </trkpt>
      <trkpt lat="47.7183" lon="-2.15691">
        <ele>13.115112304688</ele>
        <time>2012-04-15T08:15:39Z</time>
      </trkpt>
      <trkpt lat="47.71838" lon="-2.15741">
        <ele>15.9990234375</ele>
        <time>2012-04-15T08:15:47Z</time>
      </trkpt>
      <trkpt lat="47.71848" lon="-2.15806">
        <ele>14.557006835938</ele>
        <time>2012-04-15T08:15:58Z</time>
      </trkpt>
      <trkpt lat="47.71859" lon="-2.15876">
        <ele>16.479736328125</ele>
        <time>2012-04-15T08:16:10Z</time>
      </trkpt>
      <trkpt lat="47.71872" lon="-2.1596">
        <ele>22.24755859375</ele>
        <time>2012-04-15T08:16:25Z</time>
      </trkpt>
      <trkpt lat="47.71885" lon="-2.16043">
        <ele>18.40234375</ele>
        <time>2012-04-15T08:16:40Z</time>
      </trkpt>
      <trkpt lat="47.71892" lon="-2.16085">
        <ele>18.40234375</ele>
        <time>2012-04-15T08:16:48Z</time>
      </trkpt>
      <trkpt lat="47.71899" lon="-2.16133">
        <ele>13.595825195312</ele>
        <time>2012-04-15T08:16:56Z</time>
      </trkpt>
      <trkpt lat="47.71914" lon="-2.16226">
        <ele>11.673217773438</ele>
        <time>2012-04-15T08:17:13Z</time>
      </trkpt>
      <trkpt lat="47.71924" lon="-2.16292">
        <ele>10.231201171875</ele>
        <time>2012-04-15T08:17:24Z</time>
      </trkpt>
      <trkpt lat="47.71928" lon="-2.16317">
        <ele>9.7506103515625</ele>
        <time>2012-04-15T08:17:28Z</time>
      </trkpt>
      <trkpt lat="47.71937" lon="-2.16376">
        <ele>9.2698974609375</ele>
        <time>2012-04-15T08:17:38Z</time>
      </trkpt>
      <trkpt lat="47.71952" lon="-2.16473">
        <ele>6.866455078125</ele>
        <time>2012-04-15T08:17:56Z</time>
      </trkpt>
      <trkpt lat="47.71963" lon="-2.16539">
        <ele>9.2698974609375</ele>
        <time>2012-04-15T08:18:08Z</time>
      </trkpt>
      <trkpt lat="47.71972" lon="-2.166">
        <ele>11.192504882812</ele>
        <time>2012-04-15T08:18:19Z</time>
      </trkpt>
      <trkpt lat="47.71982" lon="-2.16663">
        <ele>11.673217773438</ele>
        <time>2012-04-15T08:18:31Z</time>
      </trkpt>
      <trkpt lat="47.71997" lon="-2.16759">
        <ele>9.7506103515625</ele>
        <time>2012-04-15T08:18:49Z</time>
      </trkpt>
      <trkpt lat="47.72009" lon="-2.16833">
        <ele>9.7506103515625</ele>
        <time>2012-04-15T08:19:03Z</time>
      </trkpt>
      <trkpt lat="47.72021" lon="-2.16916">
        <ele>10.711791992188</ele>
        <time>2012-04-15T08:19:18Z</time>
      </trkpt>
      <trkpt lat="47.72025" lon="-2.16939">
        <ele>11.192504882812</ele>
        <time>2012-04-15T08:19:24Z</time>
      </trkpt>
      <trkpt lat="47.72029" lon="-2.16965">
        <ele>11.192504882812</ele>
        <time>2012-04-15T08:19:33Z</time>
      </trkpt>
      <trkpt lat="47.72031" lon="-2.16978">
        <ele>12.15380859375</ele>
        <time>2012-04-15T08:19:37Z</time>
      </trkpt>
      <trkpt lat="47.72037" lon="-2.17025">
        <ele>9.7506103515625</ele>
        <time>2012-04-15T08:19:46Z</time>
      </trkpt>
      <trkpt lat="47.72042" lon="-2.17059">
        <ele>10.231201171875</ele>
        <time>2012-04-15T08:19:52Z</time>
      </trkpt>
      <trkpt lat="47.72047" lon="-2.17102">
        <ele>10.711791992188</ele>
        <time>2012-04-15T08:20:00Z</time>
      </trkpt>
      <trkpt lat="47.72056" lon="-2.17165">
        <ele>9.7506103515625</ele>
        <time>2012-04-15T08:20:12Z</time>
      </trkpt>
      <trkpt lat="47.72066" lon="-2.17239">
        <ele>8.7891845703125</ele>
        <time>2012-04-15T08:20:26Z</time>
      </trkpt>
      <trkpt lat="47.72076" lon="-2.17314">
        <ele>9.7506103515625</ele>
        <time>2012-04-15T08:20:40Z</time>
      </trkpt>
      <trkpt lat="47.72077" lon="-2.17325">
        <ele>10.231201171875</ele>
        <time>2012-04-15T08:20:42Z</time>
      </trkpt>
      <trkpt lat="47.7208" lon="-2.17342">
        <ele>10.711791992188</ele>
        <time>2012-04-15T08:20:45Z</time>
      </trkpt>
      <trkpt lat="47.72085" lon="-2.17382">
        <ele>11.192504882812</ele>
        <time>2012-04-15T08:20:52Z</time>
      </trkpt>
      <trkpt lat="47.72097" lon="-2.17462">
        <ele>11.192504882812</ele>
        <time>2012-04-15T08:21:06Z</time>
      </trkpt>
      <trkpt lat="47.72105" lon="-2.17516">
        <ele>10.231201171875</ele>
        <time>2012-04-15T08:21:16Z</time>
      </trkpt>
      <trkpt lat="47.72118" lon="-2.17599">
        <ele>11.673217773438</ele>
        <time>2012-04-15T08:21:31Z</time>
      </trkpt>
      <trkpt lat="47.72123" lon="-2.17629">
        <ele>10.711791992188</ele>
        <time>2012-04-15T08:21:37Z</time>
      </trkpt>
      <trkpt lat="47.72139" lon="-2.17735">
        <ele>15.518432617188</ele>
        <time>2012-04-15T08:21:55Z</time>
      </trkpt>
      <trkpt lat="47.72153" lon="-2.17828">
        <ele>13.115112304688</ele>
        <time>2012-04-15T08:22:11Z</time>
      </trkpt>
      <trkpt lat="47.72171" lon="-2.17945">
        <ele>11.673217773438</ele>
        <time>2012-04-15T08:22:32Z</time>
      </trkpt>
      <trkpt lat="47.72186" lon="-2.18041">
        <ele>11.673217773438</ele>
        <time>2012-04-15T08:22:50Z</time>
      </trkpt>
      <trkpt lat="47.722" lon="-2.18131">
        <ele>10.711791992188</ele>
        <time>2012-04-15T08:23:06Z</time>
      </trkpt>
      <trkpt lat="47.72209" lon="-2.18193">
        <ele>10.711791992188</ele>
        <time>2012-04-15T08:23:18Z</time>
      </trkpt>
      <trkpt lat="47.72225" lon="-2.18299">
        <ele>10.231201171875</ele>
        <time>2012-04-15T08:23:36Z</time>
      </trkpt>
      <trkpt lat="47.72238" lon="-2.18384">
        <ele>11.192504882812</ele>
        <time>2012-04-15T08:23:52Z</time>
      </trkpt>
      <trkpt lat="47.72246" lon="-2.18433">
        <ele>8.7891845703125</ele>
        <time>2012-04-15T08:24:04Z</time>
      </trkpt>
      <trkpt lat="47.72255" lon="-2.18494">
        <ele>5.9052734375</ele>
        <time>2012-04-15T08:24:16Z</time>
      </trkpt>
      <trkpt lat="47.72272" lon="-2.18602">
        <ele>6.3858642578125</ele>
        <time>2012-04-15T08:24:36Z</time>
      </trkpt>
      <trkpt lat="47.72291" lon="-2.18739">
        <ele>6.866455078125</ele>
        <time>2012-04-15T08:25:01Z</time>
      </trkpt>
      <trkpt lat="47.72306" lon="-2.18865">
        <ele>4.94384765625</ele>
        <time>2012-04-15T08:25:25Z</time>
      </trkpt>
      <trkpt lat="47.72306" lon="-2.19026">
        <ele>4.94384765625</ele>
        <time>2012-04-15T08:25:54Z</time>
      </trkpt>
      <trkpt lat="47.72312" lon="-2.19184">
        <ele>3.982666015625</ele>
        <time>2012-04-15T08:26:20Z</time>
      </trkpt>
      <trkpt lat="47.72312" lon="-2.19191">
        <ele>4.4632568359375</ele>
        <time>2012-04-15T08:26:21Z</time>
      </trkpt>
      <trkpt lat="47.72317" lon="-2.19328">
        <ele>5.9052734375</ele>
        <time>2012-04-15T08:26:43Z</time>
      </trkpt>
      <trkpt lat="47.72314" lon="-2.19449">
        <ele>5.9052734375</ele>
        <time>2012-04-15T08:27:05Z</time>
      </trkpt>
      <trkpt lat="47.72311" lon="-2.19546">
        <ele>5.424560546875</ele>
        <time>2012-04-15T08:27:23Z</time>
      </trkpt>
      <trkpt lat="47.72318" lon="-2.19599">
        <ele>4.94384765625</ele>
        <time>2012-04-15T08:27:33Z</time>
      </trkpt>
      <trkpt lat="47.72342" lon="-2.19715">
        <ele>5.9052734375</ele>
        <time>2012-04-15T08:27:53Z</time>
      </trkpt>
      <trkpt lat="47.72364" lon="-2.19857">
        <ele>5.424560546875</ele>
        <time>2012-04-15T08:28:18Z</time>
      </trkpt>
      <trkpt lat="47.72377" lon="-2.20004">
        <ele>6.3858642578125</ele>
        <time>2012-04-15T08:28:43Z</time>
      </trkpt>
      <trkpt lat="47.72406" lon="-2.20129">
        <ele>5.424560546875</ele>
        <time>2012-04-15T08:29:03Z</time>
      </trkpt>
      <trkpt lat="47.72414" lon="-2.20221">
        <ele>3.501953125</ele>
        <time>2012-04-15T08:29:20Z</time>
      </trkpt>
      <trkpt lat="47.72412" lon="-2.20325">
        <ele>3.021240234375</ele>
        <time>2012-04-15T08:29:40Z</time>
      </trkpt>
      <trkpt lat="47.72399" lon="-2.2044">
        <ele>4.4632568359375</ele>
        <time>2012-04-15T08:30:03Z</time>
      </trkpt>
      <trkpt lat="47.72398" lon="-2.20564">
        <ele>7.34716796875</ele>
        <time>2012-04-15T08:30:24Z</time>
      </trkpt>
      <trkpt lat="47.7241" lon="-2.2068">
        <ele>9.2698974609375</ele>
        <time>2012-04-15T08:30:43Z</time>
      </trkpt>
      <trkpt lat="47.72435" lon="-2.2079">
        <ele>6.866455078125</ele>
        <time>2012-04-15T08:31:02Z</time>
      </trkpt>
      <trkpt lat="47.72435" lon="-2.20879">
        <ele>7.827880859375</ele>
        <time>2012-04-15T08:31:21Z</time>
      </trkpt>
      <trkpt lat="47.7242" lon="-2.20959">
        <ele>6.866455078125</ele>
        <time>2012-04-15T08:31:38Z</time>
      </trkpt>
      <trkpt lat="47.7243" lon="-2.2107">
        <ele>9.2698974609375</ele>
        <time>2012-04-15T08:31:56Z</time>
      </trkpt>
      <trkpt lat="47.72437" lon="-2.21124">
        <ele>9.7506103515625</ele>
        <time>2012-04-15T08:32:09Z</time>
      </trkpt>
      <trkpt lat="47.72439" lon="-2.21144">
        <ele>9.7506103515625</ele>
        <time>2012-04-15T08:32:14Z</time>
      </trkpt>
      <trkpt lat="47.72452" lon="-2.21227">
        <ele>10.711791992188</ele>
        <time>2012-04-15T08:32:31Z</time>
      </trkpt>
      <trkpt lat="47.72488" lon="-2.21279">
        <ele>12.15380859375</ele>
        <time>2012-04-15T08:32:45Z</time>
      </trkpt>
      <trkpt lat="47.72525" lon="-2.21311">
        <ele>9.2698974609375</ele>
        <time>2012-04-15T08:32:58Z</time>
      </trkpt>
      <trkpt lat="47.7256" lon="-2.21298">
        <ele>7.827880859375</ele>
        <time>2012-04-15T08:33:11Z</time>
      </trkpt>
      <trkpt lat="47.72597" lon="-2.2129">
        <ele>6.866455078125</ele>
        <time>2012-04-15T08:33:24Z</time>
      </trkpt>
      <trkpt lat="47.72643" lon="-2.21288">
        <ele>6.3858642578125</ele>
        <time>2012-04-15T08:33:39Z</time>
      </trkpt>
      <trkpt lat="47.727" lon="-2.21313">
        <ele>6.3858642578125</ele>
        <time>2012-04-15T08:33:56Z</time>
      </trkpt>
      <trkpt lat="47.72771" lon="-2.21361">
        <ele>6.3858642578125</ele>
        <time>2012-04-15T08:34:18Z</time>
      </trkpt>
      <trkpt lat="47.72812" lon="-2.21396">
        <ele>8.30859375</ele>
        <time>2012-04-15T08:34:31Z</time>
      </trkpt>
      <trkpt lat="47.72863" lon="-2.21439">
        <ele>8.30859375</ele>
        <time>2012-04-15T08:34:47Z</time>
      </trkpt>
      <trkpt lat="47.72897" lon="-2.21472">
        <ele>7.827880859375</ele>
        <time>2012-04-15T08:35:00Z</time>
      </trkpt>
      <trkpt lat="47.72932" lon="-2.21537">
        <ele>7.827880859375</ele>
        <time>2012-04-15T08:35:17Z</time>
      </trkpt>
      <trkpt lat="47.72967" lon="-2.21637">
        <ele>4.4632568359375</ele>
        <time>2012-04-15T08:35:38Z</time>
      </trkpt>
      <trkpt lat="47.72992" lon="-2.21741">
        <ele>3.021240234375</ele>
        <time>2012-04-15T08:35:58Z</time>
      </trkpt>
      <trkpt lat="47.7302" lon="-2.21881">
        <ele>3.501953125</ele>
        <time>2012-04-15T08:36:24Z</time>
      </trkpt>
      <trkpt lat="47.73043" lon="-2.2201">
        <ele>3.982666015625</ele>
        <time>2012-04-15T08:36:48Z</time>
      </trkpt>
      <trkpt lat="47.73082" lon="-2.22104">
        <ele>5.424560546875</ele>
        <time>2012-04-15T08:37:07Z</time>
      </trkpt>
      <trkpt lat="47.73157" lon="-2.22217">
        <ele>5.9052734375</ele>
        <time>2012-04-15T08:37:35Z</time>
      </trkpt>
      <trkpt lat="47.7323" lon="-2.22268">
        <ele>7.34716796875</ele>
        <time>2012-04-15T08:37:57Z</time>
      </trkpt>
      <trkpt lat="47.73285" lon="-2.22306">
        <ele>8.30859375</ele>
        <time>2012-04-15T08:38:15Z</time>
      </trkpt>
      <trkpt lat="47.73321" lon="-2.2236">
        <ele>9.2698974609375</ele>
        <time>2012-04-15T08:38:30Z</time>
      </trkpt>
      <trkpt lat="47.7337" lon="-2.22419">
        <ele>9.7506103515625</ele>
        <time>2012-04-15T08:38:48Z</time>
      </trkpt>
      <trkpt lat="47.73425" lon="-2.22477">
        <ele>8.7891845703125</ele>
        <time>2012-04-15T08:39:07Z</time>
      </trkpt>
      <trkpt lat="47.73511" lon="-2.22559">
        <ele>8.7891845703125</ele>
        <time>2012-04-15T08:39:35Z</time>
      </trkpt>
      <trkpt lat="47.73602" lon="-2.22636">
        <ele>8.7891845703125</ele>
        <time>2012-04-15T08:40:02Z</time>
      </trkpt>
      <trkpt lat="47.73643" lon="-2.22699">
        <ele>9.7506103515625</ele>
        <time>2012-04-15T08:40:18Z</time>
      </trkpt>
      <trkpt lat="47.73694" lon="-2.22758">
        <ele>10.231201171875</ele>
        <time>2012-04-15T08:40:36Z</time>
      </trkpt>
      <trkpt lat="47.73732" lon="-2.22826">
        <ele>10.711791992188</ele>
        <time>2012-04-15T08:40:52Z</time>
      </trkpt>
      <trkpt lat="47.7376" lon="-2.22895">
        <ele>8.7891845703125</ele>
        <time>2012-04-15T08:41:06Z</time>
      </trkpt>
      <trkpt lat="47.73801" lon="-2.22932">
        <ele>9.7506103515625</ele>
        <time>2012-04-15T08:41:18Z</time>
      </trkpt>
      <trkpt lat="47.73856" lon="-2.23002">
        <ele>12.634399414062</ele>
        <time>2012-04-15T08:41:37Z</time>
      </trkpt>
      <trkpt lat="47.73913" lon="-2.23065">
        <ele>13.595825195312</ele>
        <time>2012-04-15T08:41:55Z</time>
      </trkpt>
      <trkpt lat="47.73963" lon="-2.23132">
        <ele>15.037719726562</ele>
        <time>2012-04-15T08:42:12Z</time>
      </trkpt>
      <trkpt lat="47.73982" lon="-2.23162">
        <ele>13.595825195312</ele>
        <time>2012-04-15T08:42:19Z</time>
      </trkpt>
      <trkpt lat="47.74003" lon="-2.23215">
        <ele>10.231201171875</ele>
        <time>2012-04-15T08:42:29Z</time>
      </trkpt>
      <trkpt lat="47.74035" lon="-2.23334">
        <ele>8.7891845703125</ele>
        <time>2012-04-15T08:42:51Z</time>
      </trkpt>
      <trkpt lat="47.74077" lon="-2.2342">
        <ele>10.231201171875</ele>
        <time>2012-04-15T08:43:09Z</time>
      </trkpt>
      <trkpt lat="47.7411" lon="-2.23533">
        <ele>8.30859375</ele>
        <time>2012-04-15T08:43:31Z</time>
      </trkpt>
      <trkpt lat="47.74123" lon="-2.23661">
        <ele>5.9052734375</ele>
        <time>2012-04-15T08:43:53Z</time>
      </trkpt>
      <trkpt lat="47.74123" lon="-2.23862">
        <ele>4.94384765625</ele>
        <time>2012-04-15T08:44:26Z</time>
      </trkpt>
      <trkpt lat="47.74093" lon="-2.23976">
        <ele>2.5406494140625</ele>
        <time>2012-04-15T08:44:47Z</time>
      </trkpt>
      <trkpt lat="47.74038" lon="-2.2407">
        <ele>2.5406494140625</ele>
        <time>2012-04-15T08:45:07Z</time>
      </trkpt>
      <trkpt lat="47.73953" lon="-2.24174">
        <ele>4.4632568359375</ele>
        <time>2012-04-15T08:45:33Z</time>
      </trkpt>
      <trkpt lat="47.73889" lon="-2.24258">
        <ele>5.424560546875</ele>
        <time>2012-04-15T08:45:54Z</time>
      </trkpt>
      <trkpt lat="47.73849" lon="-2.2436">
        <ele>5.424560546875</ele>
        <time>2012-04-15T08:46:13Z</time>
      </trkpt>
      <trkpt lat="47.73787" lon="-2.24462">
        <ele>5.424560546875</ele>
        <time>2012-04-15T08:46:36Z</time>
      </trkpt>
      <trkpt lat="47.73737" lon="-2.24569">
        <ele>5.424560546875</ele>
        <time>2012-04-15T08:46:59Z</time>
      </trkpt>
      <trkpt lat="47.7372" lon="-2.24616">
        <ele>3.982666015625</ele>
        <time>2012-04-15T08:47:15Z</time>
      </trkpt>
      <trkpt lat="47.7372" lon="-2.24619">
        <ele>3.982666015625</ele>
        <time>2012-04-15T08:47:34Z</time>
      </trkpt>
      <trkpt lat="47.73712" lon="-2.24644">
        <ele>3.021240234375</ele>
        <time>2012-04-15T08:47:52Z</time>
      </trkpt>
      <trkpt lat="47.73711" lon="-2.24647">
        <ele>2.5406494140625</ele>
        <time>2012-04-15T08:48:06Z</time>
      </trkpt>
      <trkpt lat="47.73706" lon="-2.2466">
        <ele>2.5406494140625</ele>
        <time>2012-04-15T09:04:21Z</time>
      </trkpt>
      <trkpt lat="47.73686" lon="-2.24733">
        <ele>3.021240234375</ele>
        <time>2012-04-15T09:04:39Z</time>
      </trkpt>
      <trkpt lat="47.73657" lon="-2.24862">
        <ele>2.06005859375</ele>
        <time>2012-04-15T09:05:06Z</time>
      </trkpt>
      <trkpt lat="47.73645" lon="-2.24936">
        <ele>0.137451171875</ele>
        <time>2012-04-15T09:05:22Z</time>
      </trkpt>
      <trkpt lat="47.73639" lon="-2.2502">
        <ele>2.06005859375</ele>
        <time>2012-04-15T09:05:37Z</time>
      </trkpt>
      <trkpt lat="47.7365" lon="-2.25121">
        <ele>1.579345703125</ele>
        <time>2012-04-15T09:05:55Z</time>
      </trkpt>
      <trkpt lat="47.73685" lon="-2.25217">
        <ele>7.827880859375</ele>
        <time>2012-04-15T09:06:14Z</time>
      </trkpt>
      <trkpt lat="47.7371" lon="-2.25278">
        <ele>9.2698974609375</ele>
        <time>2012-04-15T09:06:26Z</time>
      </trkpt>
      <trkpt lat="47.73727" lon="-2.25328">
        <ele>8.7891845703125</ele>
        <time>2012-04-15T09:06:36Z</time>
      </trkpt>
      <trkpt lat="47.73763" lon="-2.25435">
        <ele>8.7891845703125</ele>
        <time>2012-04-15T09:06:58Z</time>
      </trkpt>
      <trkpt lat="47.73793" lon="-2.25529">
        <ele>6.866455078125</ele>
        <time>2012-04-15T09:07:18Z</time>
      </trkpt>
      <trkpt lat="47.73825" lon="-2.25614">
        <ele>8.30859375</ele>
        <time>2012-04-15T09:07:35Z</time>
      </trkpt>
      <trkpt lat="47.73828" lon="-2.25619">
        <ele>8.30859375</ele>
        <time>2012-04-15T09:07:36Z</time>
      </trkpt>
      <trkpt lat="47.73878" lon="-2.25675">
        <ele>7.827880859375</ele>
        <time>2012-04-15T09:07:51Z</time>
      </trkpt>
      <trkpt lat="47.73918" lon="-2.25712">
        <ele>8.30859375</ele>
        <time>2012-04-15T09:08:07Z</time>
      </trkpt>
      <trkpt lat="47.73953" lon="-2.25743">
        <ele>7.34716796875</ele>
        <time>2012-04-15T09:08:25Z</time>
      </trkpt>
      <trkpt lat="47.74015" lon="-2.25802">
        <ele>7.34716796875</ele>
        <time>2012-04-15T09:08:46Z</time>
      </trkpt>
      <trkpt lat="47.74076" lon="-2.25874">
        <ele>9.2698974609375</ele>
        <time>2012-04-15T09:09:07Z</time>
      </trkpt>
      <trkpt lat="47.74167" lon="-2.2595">
        <ele>6.866455078125</ele>
        <time>2012-04-15T09:09:34Z</time>
      </trkpt>
      <trkpt lat="47.74255" lon="-2.25979">
        <ele>5.424560546875</ele>
        <time>2012-04-15T09:09:58Z</time>
      </trkpt>
      <trkpt lat="47.74329" lon="-2.26">
        <ele>5.9052734375</ele>
        <time>2012-04-15T09:10:17Z</time>
      </trkpt>
      <trkpt lat="47.7439" lon="-2.26056">
        <ele>7.34716796875</ele>
        <time>2012-04-15T09:10:36Z</time>
      </trkpt>
      <trkpt lat="47.74436" lon="-2.26125">
        <ele>6.3858642578125</ele>
        <time>2012-04-15T09:10:55Z</time>
      </trkpt>
      <trkpt lat="47.74485" lon="-2.26194">
        <ele>5.9052734375</ele>
        <time>2012-04-15T09:11:14Z</time>
      </trkpt>
      <trkpt lat="47.74506" lon="-2.2624">
        <ele>5.424560546875</ele>
        <time>2012-04-15T09:11:24Z</time>
      </trkpt>
      <trkpt lat="47.74526" lon="-2.26353">
        <ele>6.866455078125</ele>
        <time>2012-04-15T09:11:45Z</time>
      </trkpt>
      <trkpt lat="47.7453" lon="-2.26397">
        <ele>8.30859375</ele>
        <time>2012-04-15T09:11:55Z</time>
      </trkpt>
      <trkpt lat="47.7453" lon="-2.26417">
        <ele>7.34716796875</ele>
        <time>2012-04-15T09:12:04Z</time>
      </trkpt>
      <trkpt lat="47.74533" lon="-2.26482">
        <ele>3.982666015625</ele>
        <time>2012-04-15T09:12:16Z</time>
      </trkpt>
      <trkpt lat="47.74547" lon="-2.266">
        <ele>3.501953125</ele>
        <time>2012-04-15T09:12:34Z</time>
      </trkpt>
      <trkpt lat="47.74574" lon="-2.26685">
        <ele>3.982666015625</ele>
        <time>2012-04-15T09:12:52Z</time>
      </trkpt>
      <trkpt lat="47.7458" lon="-2.26699">
        <ele>3.982666015625</ele>
        <time>2012-04-15T09:12:55Z</time>
      </trkpt>
      <trkpt lat="47.74617" lon="-2.26754">
        <ele>3.982666015625</ele>
        <time>2012-04-15T09:13:09Z</time>
      </trkpt>
      <trkpt lat="47.74641" lon="-2.26814">
        <ele>4.4632568359375</ele>
        <time>2012-04-15T09:13:22Z</time>
      </trkpt>
      <trkpt lat="47.7463" lon="-2.26911">
        <ele>7.34716796875</ele>
        <time>2012-04-15T09:13:40Z</time>
      </trkpt>
      <trkpt lat="47.74616" lon="-2.2694">
        <ele>6.3858642578125</ele>
        <time>2012-04-15T09:13:46Z</time>
      </trkpt>
      <trkpt lat="47.74598" lon="-2.26956">
        <ele>4.4632568359375</ele>
        <time>2012-04-15T09:13:51Z</time>
      </trkpt>
      <trkpt lat="47.74534" lon="-2.26981">
        <ele>3.021240234375</ele>
        <time>2012-04-15T09:14:08Z</time>
      </trkpt>
      <trkpt lat="47.74527" lon="-2.26985">
        <ele>3.021240234375</ele>
        <time>2012-04-15T09:14:10Z</time>
      </trkpt>
      <trkpt lat="47.74477" lon="-2.27034">
        <ele>5.9052734375</ele>
        <time>2012-04-15T09:14:26Z</time>
      </trkpt>
      <trkpt lat="47.74415" lon="-2.27144">
        <ele>3.021240234375</ele>
        <time>2012-04-15T09:14:49Z</time>
      </trkpt>
      <trkpt lat="47.744" lon="-2.27254">
        <ele>3.021240234375</ele>
        <time>2012-04-15T09:15:07Z</time>
      </trkpt>
      <trkpt lat="47.7438" lon="-2.27392">
        <ele>3.982666015625</ele>
        <time>2012-04-15T09:15:31Z</time>
      </trkpt>
      <trkpt lat="47.74329" lon="-2.27479">
        <ele>3.501953125</ele>
        <time>2012-04-15T09:15:51Z</time>
      </trkpt>
      <trkpt lat="47.74289" lon="-2.2759">
        <ele>4.4632568359375</ele>
        <time>2012-04-15T09:16:13Z</time>
      </trkpt>
      <trkpt lat="47.74277" lon="-2.27686">
        <ele>3.982666015625</ele>
        <time>2012-04-15T09:16:30Z</time>
      </trkpt>
      <trkpt lat="47.74278" lon="-2.27809">
        <ele>3.021240234375</ele>
        <time>2012-04-15T09:16:52Z</time>
      </trkpt>
      <trkpt lat="47.74295" lon="-2.27952">
        <ele>1.579345703125</ele>
        <time>2012-04-15T09:17:17Z</time>
      </trkpt>
      <trkpt lat="47.74311" lon="-2.2804">
        <ele>2.5406494140625</ele>
        <time>2012-04-15T09:17:33Z</time>
      </trkpt>
      <trkpt lat="47.74347" lon="-2.28124">
        <ele>1.579345703125</ele>
        <time>2012-04-15T09:17:50Z</time>
      </trkpt>
      <trkpt lat="47.7438" lon="-2.28222">
        <ele>2.5406494140625</ele>
        <time>2012-04-15T09:18:09Z</time>
      </trkpt>
      <trkpt lat="47.74386" lon="-2.2825">
        <ele>1.579345703125</ele>
        <time>2012-04-15T09:18:14Z</time>
      </trkpt>
      <trkpt lat="47.74388" lon="-2.28286">
        <ele>2.5406494140625</ele>
        <time>2012-04-15T09:18:20Z</time>
      </trkpt>
      <trkpt lat="47.7439" lon="-2.28356">
        <ele>1.0986328125</ele>
        <time>2012-04-15T09:18:32Z</time>
      </trkpt>
      <trkpt lat="47.74409" lon="-2.28445">
        <ele>1.579345703125</ele>
        <time>2012-04-15T09:18:49Z</time>
      </trkpt>
      <trkpt lat="47.74424" lon="-2.28527">
        <ele>3.021240234375</ele>
        <time>2012-04-15T09:19:06Z</time>
      </trkpt>
      <trkpt lat="47.74441" lon="-2.28636">
        <ele>4.94384765625</ele>
        <time>2012-04-15T09:19:26Z</time>
      </trkpt>
      <trkpt lat="47.74453" lon="-2.28695">
        <ele>7.827880859375</ele>
        <time>2012-04-15T09:19:37Z</time>
      </trkpt>
      <trkpt lat="47.74468" lon="-2.28782">
        <ele>6.866455078125</ele>
        <time>2012-04-15T09:19:53Z</time>
      </trkpt>
      <trkpt lat="47.74478" lon="-2.28817">
        <ele>6.3858642578125</ele>
        <time>2012-04-15T09:19:59Z</time>
      </trkpt>
      <trkpt lat="47.74487" lon="-2.28839">
        <ele>5.9052734375</ele>
        <time>2012-04-15T09:20:03Z</time>
      </trkpt>
      <trkpt lat="47.74528" lon="-2.28898">
        <ele>4.94384765625</ele>
        <time>2012-04-15T09:20:18Z</time>
      </trkpt>
      <trkpt lat="47.74541" lon="-2.28914">
        <ele>5.9052734375</ele>
        <time>2012-04-15T09:20:22Z</time>
      </trkpt>
      <trkpt lat="47.74569" lon="-2.28931">
        <ele>6.3858642578125</ele>
        <time>2012-04-15T09:20:29Z</time>
      </trkpt>
      <trkpt lat="47.74647" lon="-2.28984">
        <ele>7.827880859375</ele>
        <time>2012-04-15T09:20:50Z</time>
      </trkpt>
      <trkpt lat="47.74733" lon="-2.29054">
        <ele>7.34716796875</ele>
        <time>2012-04-15T09:21:15Z</time>
      </trkpt>
      <trkpt lat="47.74803" lon="-2.29114">
        <ele>7.827880859375</ele>
        <time>2012-04-15T09:21:36Z</time>
      </trkpt>
      <trkpt lat="47.74869" lon="-2.29192">
        <ele>6.3858642578125</ele>
        <time>2012-04-15T09:21:58Z</time>
      </trkpt>
      <trkpt lat="47.74925" lon="-2.29274">
        <ele>6.866455078125</ele>
        <time>2012-04-15T09:22:18Z</time>
      </trkpt>
      <trkpt lat="47.74965" lon="-2.29339">
        <ele>7.827880859375</ele>
        <time>2012-04-15T09:22:33Z</time>
      </trkpt>
      <trkpt lat="47.74993" lon="-2.29396">
        <ele>6.866455078125</ele>
        <time>2012-04-15T09:22:46Z</time>
      </trkpt>
      <trkpt lat="47.75024" lon="-2.29472">
        <ele>5.9052734375</ele>
        <time>2012-04-15T09:23:02Z</time>
      </trkpt>
      <trkpt lat="47.75063" lon="-2.29592">
        <ele>5.9052734375</ele>
        <time>2012-04-15T09:23:27Z</time>
      </trkpt>
      <trkpt lat="47.75083" lon="-2.29657">
        <ele>3.982666015625</ele>
        <time>2012-04-15T09:23:42Z</time>
      </trkpt>
      <trkpt lat="47.75112" lon="-2.29766">
        <ele>3.982666015625</ele>
        <time>2012-04-15T09:24:03Z</time>
      </trkpt>
      <trkpt lat="47.75129" lon="-2.29901">
        <ele>5.424560546875</ele>
        <time>2012-04-15T09:24:27Z</time>
      </trkpt>
      <trkpt lat="47.75166" lon="-2.30043">
        <ele>5.9052734375</ele>
        <time>2012-04-15T09:24:53Z</time>
      </trkpt>
      <trkpt lat="47.75238" lon="-2.30198">
        <ele>5.424560546875</ele>
        <time>2012-04-15T09:25:20Z</time>
      </trkpt>
      <trkpt lat="47.75245" lon="-2.3025">
        <ele>5.9052734375</ele>
        <time>2012-04-15T09:25:39Z</time>
      </trkpt>
      <trkpt lat="47.7537" lon="-2.30321">
        <ele>5.9052734375</ele>
        <time>2012-04-15T09:26:04Z</time>
      </trkpt>
      <trkpt lat="47.75407" lon="-2.30407">
        <ele>6.3858642578125</ele>
        <time>2012-04-15T09:26:23Z</time>
      </trkpt>
      <trkpt lat="47.75437" lon="-2.30502">
        <ele>6.3858642578125</ele>
        <time>2012-04-15T09:26:44Z</time>
      </trkpt>
      <trkpt lat="47.75471" lon="-2.3064">
        <ele>6.3858642578125</ele>
        <time>2012-04-15T09:27:10Z</time>
      </trkpt>
      <trkpt lat="47.75506" lon="-2.30793">
        <ele>7.34716796875</ele>
        <time>2012-04-15T09:27:38Z</time>
      </trkpt>
      <trkpt lat="47.75547" lon="-2.309">
        <ele>7.827880859375</ele>
        <time>2012-04-15T09:27:59Z</time>
      </trkpt>
      <trkpt lat="47.75606" lon="-2.30974">
        <ele>6.3858642578125</ele>
        <time>2012-04-15T09:28:19Z</time>
      </trkpt>
      <trkpt lat="47.75677" lon="-2.31063">
        <ele>7.34716796875</ele>
        <time>2012-04-15T09:28:44Z</time>
      </trkpt>
      <trkpt lat="47.75711" lon="-2.31164">
        <ele>5.424560546875</ele>
        <time>2012-04-15T09:29:04Z</time>
      </trkpt>
      <trkpt lat="47.7572" lon="-2.31288">
        <ele>6.866455078125</ele>
        <time>2012-04-15T09:29:25Z</time>
      </trkpt>
      <trkpt lat="47.75705" lon="-2.31387">
        <ele>6.866455078125</ele>
        <time>2012-04-15T09:29:42Z</time>
      </trkpt>
      <trkpt lat="47.75696" lon="-2.31423">
        <ele>7.827880859375</ele>
        <time>2012-04-15T09:29:48Z</time>
      </trkpt>
      <trkpt lat="47.75694" lon="-2.31453">
        <ele>6.866455078125</ele>
        <time>2012-04-15T09:29:53Z</time>
      </trkpt>
      <trkpt lat="47.75718" lon="-2.31531">
        <ele>7.827880859375</ele>
        <time>2012-04-15T09:30:10Z</time>
      </trkpt>
      <trkpt lat="47.75729" lon="-2.3155">
        <ele>8.30859375</ele>
        <time>2012-04-15T09:30:18Z</time>
      </trkpt>
      <trkpt lat="47.75765" lon="-2.31584">
        <ele>7.827880859375</ele>
        <time>2012-04-15T09:30:31Z</time>
      </trkpt>
      <trkpt lat="47.75853" lon="-2.3165">
        <ele>8.30859375</ele>
        <time>2012-04-15T09:30:59Z</time>
      </trkpt>
      <trkpt lat="47.75935" lon="-2.3166">
        <ele>7.827880859375</ele>
        <time>2012-04-15T09:31:21Z</time>
      </trkpt>
      <trkpt lat="47.76015" lon="-2.31651">
        <ele>7.827880859375</ele>
        <time>2012-04-15T09:31:44Z</time>
      </trkpt>
      <trkpt lat="47.76067" lon="-2.31669">
        <ele>6.3858642578125</ele>
        <time>2012-04-15T09:32:00Z</time>
      </trkpt>
      <trkpt lat="47.76136" lon="-2.31705">
        <ele>8.7891845703125</ele>
        <time>2012-04-15T09:32:22Z</time>
      </trkpt>
      <trkpt lat="47.76206" lon="-2.31732">
        <ele>8.7891845703125</ele>
        <time>2012-04-15T09:32:43Z</time>
      </trkpt>
      <trkpt lat="47.76318" lon="-2.31761">
        <ele>7.827880859375</ele>
        <time>2012-04-15T09:33:14Z</time>
      </trkpt>
      <trkpt lat="47.76396" lon="-2.31774">
        <ele>7.827880859375</ele>
        <time>2012-04-15T09:33:36Z</time>
      </trkpt>
      <trkpt lat="47.76491" lon="-2.31778">
        <ele>7.34716796875</ele>
        <time>2012-04-15T09:34:02Z</time>
      </trkpt>
      <trkpt lat="47.76571" lon="-2.3175">
        <ele>7.34716796875</ele>
        <time>2012-04-15T09:34:26Z</time>
      </trkpt>
      <trkpt lat="47.76629" lon="-2.31675">
        <ele>6.866455078125</ele>
        <time>2012-04-15T09:34:47Z</time>
      </trkpt>
      <trkpt lat="47.76693" lon="-2.31618">
        <ele>6.3858642578125</ele>
        <time>2012-04-15T09:35:08Z</time>
      </trkpt>
      <trkpt lat="47.76726" lon="-2.31605">
        <ele>8.30859375</ele>
        <time>2012-04-15T09:35:18Z</time>
      </trkpt>
      <trkpt lat="47.76755" lon="-2.31594">
        <ele>8.7891845703125</ele>
        <time>2012-04-15T09:35:27Z</time>
      </trkpt>
      <trkpt lat="47.76794" lon="-2.31588">
        <ele>8.30859375</ele>
        <time>2012-04-15T09:35:40Z</time>
      </trkpt>
      <trkpt lat="47.76836" lon="-2.31584">
        <ele>10.231201171875</ele>
        <time>2012-04-15T09:35:53Z</time>
      </trkpt>
      <trkpt lat="47.76894" lon="-2.31579">
        <ele>10.711791992188</ele>
        <time>2012-04-15T09:36:11Z</time>
      </trkpt>
      <trkpt lat="47.76945" lon="-2.31575">
        <ele>10.231201171875</ele>
        <time>2012-04-15T09:36:26Z</time>
      </trkpt>
      <trkpt lat="47.76999" lon="-2.31568">
        <ele>9.7506103515625</ele>
        <time>2012-04-15T09:36:44Z</time>
      </trkpt>
      <trkpt lat="47.77002" lon="-2.31567">
        <ele>9.2698974609375</ele>
        <time>2012-04-15T09:36:45Z</time>
      </trkpt>
      <trkpt lat="47.77033" lon="-2.31581">
        <ele>10.231201171875</ele>
        <time>2012-04-15T09:36:56Z</time>
      </trkpt>
      <trkpt lat="47.77036" lon="-2.3158">
        <ele>9.7506103515625</ele>
        <time>2012-04-15T09:37:00Z</time>
      </trkpt>
      <trkpt lat="47.77068" lon="-2.31572">
        <ele>10.231201171875</ele>
        <time>2012-04-15T09:37:08Z</time>
      </trkpt>
      <trkpt lat="47.7712" lon="-2.31559">
        <ele>11.192504882812</ele>
        <time>2012-04-15T09:37:26Z</time>
      </trkpt>
      <trkpt lat="47.77181" lon="-2.31545">
        <ele>10.711791992188</ele>
        <time>2012-04-15T09:37:44Z</time>
      </trkpt>
      <trkpt lat="47.77261" lon="-2.31525">
        <ele>11.192504882812</ele>
        <time>2012-04-15T09:38:06Z</time>
      </trkpt>
      <trkpt lat="47.77328" lon="-2.3152">
        <ele>10.231201171875</ele>
        <time>2012-04-15T09:38:25Z</time>
      </trkpt>
      <trkpt lat="47.77357" lon="-2.31516">
        <ele>10.711791992188</ele>
        <time>2012-04-15T09:38:35Z</time>
      </trkpt>
      <trkpt lat="47.7736" lon="-2.31515">
        <ele>10.711791992188</ele>
        <time>2012-04-15T09:38:37Z</time>
      </trkpt>
      <trkpt lat="47.77402" lon="-2.31508">
        <ele>11.673217773438</ele>
        <time>2012-04-15T09:38:52Z</time>
      </trkpt>
      <trkpt lat="47.77465" lon="-2.31497">
        <ele>10.711791992188</ele>
        <time>2012-04-15T09:39:09Z</time>
      </trkpt>
      <trkpt lat="47.77558" lon="-2.31482">
        <ele>10.711791992188</ele>
        <time>2012-04-15T09:39:31Z</time>
      </trkpt>
      <trkpt lat="47.77633" lon="-2.31454">
        <ele>8.7891845703125</ele>
        <time>2012-04-15T09:39:50Z</time>
      </trkpt>
      <trkpt lat="47.77682" lon="-2.31437">
        <ele>8.30859375</ele>
        <time>2012-04-15T09:40:03Z</time>
      </trkpt>
      <trkpt lat="47.77762" lon="-2.31417">
        <ele>7.827880859375</ele>
        <time>2012-04-15T09:40:22Z</time>
      </trkpt>
      <trkpt lat="47.77831" lon="-2.31404">
        <ele>8.30859375</ele>
        <time>2012-04-15T09:40:38Z</time>
      </trkpt>
      <trkpt lat="47.77845" lon="-2.31409">
        <ele>8.30859375</ele>
        <time>2012-04-15T09:40:42Z</time>
      </trkpt>
      <trkpt lat="47.77908" lon="-2.3146">
        <ele>9.7506103515625</ele>
        <time>2012-04-15T09:40:59Z</time>
      </trkpt>
      <trkpt lat="47.78015" lon="-2.31551">
        <ele>8.30859375</ele>
        <time>2012-04-15T09:41:29Z</time>
      </trkpt>
      <trkpt lat="47.78089" lon="-2.31601">
        <ele>9.2698974609375</ele>
        <time>2012-04-15T09:41:51Z</time>
      </trkpt>
      <trkpt lat="47.78179" lon="-2.31648">
        <ele>9.2698974609375</ele>
        <time>2012-04-15T09:42:17Z</time>
      </trkpt>
      <trkpt lat="47.78272" lon="-2.31681">
        <ele>9.7506103515625</ele>
        <time>2012-04-15T09:42:42Z</time>
      </trkpt>
      <trkpt lat="47.78387" lon="-2.31742">
        <ele>9.2698974609375</ele>
        <time>2012-04-15T09:43:14Z</time>
      </trkpt>
      <trkpt lat="47.7847" lon="-2.31791">
        <ele>9.7506103515625</ele>
        <time>2012-04-15T09:43:38Z</time>
      </trkpt>
      <trkpt lat="47.78569" lon="-2.31854">
        <ele>11.192504882812</ele>
        <time>2012-04-15T09:44:09Z</time>
      </trkpt>
      <trkpt lat="47.78589" lon="-2.31863">
        <ele>12.15380859375</ele>
        <time>2012-04-15T09:44:25Z</time>
      </trkpt>
      <trkpt lat="47.78694" lon="-2.31911">
        <ele>13.115112304688</ele>
        <time>2012-04-15T09:44:49Z</time>
      </trkpt>
      <trkpt lat="47.78765" lon="-2.31954">
        <ele>13.115112304688</ele>
        <time>2012-04-15T09:45:11Z</time>
      </trkpt>
      <trkpt lat="47.78807" lon="-2.31979">
        <ele>13.595825195312</ele>
        <time>2012-04-15T09:45:24Z</time>
      </trkpt>
      <trkpt lat="47.78842" lon="-2.31999">
        <ele>15.037719726562</ele>
        <time>2012-04-15T09:45:34Z</time>
      </trkpt>
      <trkpt lat="47.78905" lon="-2.32037">
        <ele>13.115112304688</ele>
        <time>2012-04-15T09:45:53Z</time>
      </trkpt>
      <trkpt lat="47.78963" lon="-2.32081">
        <ele>12.15380859375</ele>
        <time>2012-04-15T09:46:12Z</time>
      </trkpt>
      <trkpt lat="47.78993" lon="-2.32138">
        <ele>11.673217773438</ele>
        <time>2012-04-15T09:46:25Z</time>
      </trkpt>
      <trkpt lat="47.79021" lon="-2.32213">
        <ele>13.115112304688</ele>
        <time>2012-04-15T09:46:41Z</time>
      </trkpt>
      <trkpt lat="47.79046" lon="-2.32301">
        <ele>11.192504882812</ele>
        <time>2012-04-15T09:46:59Z</time>
      </trkpt>
      <trkpt lat="47.79064" lon="-2.3239">
        <ele>10.711791992188</ele>
        <time>2012-04-15T09:47:18Z</time>
      </trkpt>
      <trkpt lat="47.79074" lon="-2.32463">
        <ele>7.827880859375</ele>
        <time>2012-04-15T09:47:32Z</time>
      </trkpt>
      <trkpt lat="47.79101" lon="-2.32534">
        <ele>7.827880859375</ele>
        <time>2012-04-15T09:47:46Z</time>
      </trkpt>
      <trkpt lat="47.79122" lon="-2.32574">
        <ele>8.7891845703125</ele>
        <time>2012-04-15T09:47:55Z</time>
      </trkpt>
      <trkpt lat="47.79132" lon="-2.32624">
        <ele>11.673217773438</ele>
        <time>2012-04-15T09:48:04Z</time>
      </trkpt>
      <trkpt lat="47.79165" lon="-2.32666">
        <ele>15.9990234375</ele>
        <time>2012-04-15T09:48:16Z</time>
      </trkpt>
      <trkpt lat="47.79193" lon="-2.32701">
        <ele>18.883056640625</ele>
        <time>2012-04-15T09:48:27Z</time>
      </trkpt>
      <trkpt lat="47.79243" lon="-2.32736">
        <ele>21.766967773438</ele>
        <time>2012-04-15T09:48:39Z</time>
      </trkpt>
      <trkpt lat="47.79295" lon="-2.32769">
        <ele>19.36376953125</ele>
        <time>2012-04-15T09:48:52Z</time>
      </trkpt>
      <trkpt lat="47.79339" lon="-2.32795">
        <ele>15.037719726562</ele>
        <time>2012-04-15T09:49:08Z</time>
      </trkpt>
      <trkpt lat="47.79404" lon="-2.32714">
        <ele>14.557006835938</ele>
        <time>2012-04-15T09:49:27Z</time>
      </trkpt>
      <trkpt lat="47.79453" lon="-2.32677">
        <ele>12.634399414062</ele>
        <time>2012-04-15T09:49:45Z</time>
      </trkpt>
      <trkpt lat="47.79523" lon="-2.32614">
        <ele>10.711791992188</ele>
        <time>2012-04-15T09:50:07Z</time>
      </trkpt>
      <trkpt lat="47.79588" lon="-2.32591">
        <ele>10.231201171875</ele>
        <time>2012-04-15T09:50:25Z</time>
      </trkpt>
      <trkpt lat="47.79647" lon="-2.32602">
        <ele>9.2698974609375</ele>
        <time>2012-04-15T09:50:41Z</time>
      </trkpt>
      <trkpt lat="47.79664" lon="-2.32607">
        <ele>8.30859375</ele>
        <time>2012-04-15T09:50:46Z</time>
      </trkpt>
      <trkpt lat="47.79706" lon="-2.32636">
        <ele>9.2698974609375</ele>
        <time>2012-04-15T09:50:58Z</time>
      </trkpt>
      <trkpt lat="47.79765" lon="-2.32723">
        <ele>10.231201171875</ele>
        <time>2012-04-15T09:51:20Z</time>
      </trkpt>
      <trkpt lat="47.7983" lon="-2.32765">
        <ele>10.231201171875</ele>
        <time>2012-04-15T09:51:39Z</time>
      </trkpt>
      <trkpt lat="47.79926" lon="-2.32778">
        <ele>10.231201171875</ele>
        <time>2012-04-15T09:52:04Z</time>
      </trkpt>
      <trkpt lat="47.79993" lon="-2.32825">
        <ele>10.711791992188</ele>
        <time>2012-04-15T09:52:26Z</time>
      </trkpt>
      <trkpt lat="47.80066" lon="-2.32876">
        <ele>10.711791992188</ele>
        <time>2012-04-15T09:52:49Z</time>
      </trkpt>
      <trkpt lat="47.80141" lon="-2.32929">
        <ele>10.231201171875</ele>
        <time>2012-04-15T09:53:12Z</time>
      </trkpt>
      <trkpt lat="47.80174" lon="-2.32987">
        <ele>10.711791992188</ele>
        <time>2012-04-15T09:53:27Z</time>
      </trkpt>
      <trkpt lat="47.80181" lon="-2.32998">
        <ele>11.192504882812</ele>
        <time>2012-04-15T09:53:30Z</time>
      </trkpt>
      <trkpt lat="47.80206" lon="-2.3304">
        <ele>10.711791992188</ele>
        <time>2012-04-15T09:53:41Z</time>
      </trkpt>
      <trkpt lat="47.80258" lon="-2.33092">
        <ele>11.192504882812</ele>
        <time>2012-04-15T09:53:58Z</time>
      </trkpt>
      <trkpt lat="47.8028" lon="-2.33122">
        <ele>13.595825195312</ele>
        <time>2012-04-15T09:54:08Z</time>
      </trkpt>
      <trkpt lat="47.80309" lon="-2.33191">
        <ele>11.673217773438</ele>
        <time>2012-04-15T09:54:20Z</time>
      </trkpt>
      <trkpt lat="47.8032" lon="-2.33319">
        <ele>10.711791992188</ele>
        <time>2012-04-15T09:54:40Z</time>
      </trkpt>
      <trkpt lat="47.80296" lon="-2.33418">
        <ele>7.827880859375</ele>
        <time>2012-04-15T09:54:57Z</time>
      </trkpt>
      <trkpt lat="47.80295" lon="-2.33551">
        <ele>7.34716796875</ele>
        <time>2012-04-15T09:55:19Z</time>
      </trkpt>
      <trkpt lat="47.80333" lon="-2.33723">
        <ele>8.30859375</ele>
        <time>2012-04-15T09:55:48Z</time>
      </trkpt>
      <trkpt lat="47.80392" lon="-2.33882">
        <ele>8.30859375</ele>
        <time>2012-04-15T09:56:16Z</time>
      </trkpt>
      <trkpt lat="47.80435" lon="-2.33972">
        <ele>9.7506103515625</ele>
        <time>2012-04-15T09:56:34Z</time>
      </trkpt>
      <trkpt lat="47.80473" lon="-2.34049">
        <ele>10.711791992188</ele>
        <time>2012-04-15T09:56:50Z</time>
      </trkpt>
      <trkpt lat="47.80509" lon="-2.3414">
        <ele>11.192504882812</ele>
        <time>2012-04-15T09:57:08Z</time>
      </trkpt>
      <trkpt lat="47.80536" lon="-2.34227">
        <ele>11.673217773438</ele>
        <time>2012-04-15T09:57:24Z</time>
      </trkpt>
      <trkpt lat="47.8056" lon="-2.343">
        <ele>13.115112304688</ele>
        <time>2012-04-15T09:57:37Z</time>
      </trkpt>
      <trkpt lat="47.80597" lon="-2.34391">
        <ele>13.115112304688</ele>
        <time>2012-04-15T09:57:53Z</time>
      </trkpt>
      <trkpt lat="47.80618" lon="-2.34494">
        <ele>12.634399414062</ele>
        <time>2012-04-15T09:58:10Z</time>
      </trkpt>
      <trkpt lat="47.80638" lon="-2.34586">
        <ele>13.115112304688</ele>
        <time>2012-04-15T09:58:26Z</time>
      </trkpt>
      <trkpt lat="47.80658" lon="-2.347">
        <ele>11.192504882812</ele>
        <time>2012-04-15T09:58:46Z</time>
      </trkpt>
      <trkpt lat="47.80678" lon="-2.34831">
        <ele>11.192504882812</ele>
        <time>2012-04-15T09:59:09Z</time>
      </trkpt>
      <trkpt lat="47.80714" lon="-2.3498">
        <ele>11.192504882812</ele>
        <time>2012-04-15T09:59:34Z</time>
      </trkpt>
      <trkpt lat="47.8075" lon="-2.35149">
        <ele>9.7506103515625</ele>
        <time>2012-04-15T10:00:01Z</time>
      </trkpt>
      <trkpt lat="47.80773" lon="-2.3526">
        <ele>8.7891845703125</ele>
        <time>2012-04-15T10:00:21Z</time>
      </trkpt>
      <trkpt lat="47.80803" lon="-2.35406">
        <ele>9.2698974609375</ele>
        <time>2012-04-15T10:00:47Z</time>
      </trkpt>
      <trkpt lat="47.80823" lon="-2.35517">
        <ele>8.7891845703125</ele>
        <time>2012-04-15T10:01:06Z</time>
      </trkpt>
      <trkpt lat="47.80818" lon="-2.35583">
        <ele>9.2698974609375</ele>
        <time>2012-04-15T10:01:18Z</time>
      </trkpt>
      <trkpt lat="47.80805" lon="-2.35706">
        <ele>7.827880859375</ele>
        <time>2012-04-15T10:01:40Z</time>
      </trkpt>
      <trkpt lat="47.80794" lon="-2.35806">
        <ele>7.827880859375</ele>
        <time>2012-04-15T10:01:57Z</time>
      </trkpt>
      <trkpt lat="47.80781" lon="-2.35934">
        <ele>7.34716796875</ele>
        <time>2012-04-15T10:02:20Z</time>
      </trkpt>
      <trkpt lat="47.80779" lon="-2.35963">
        <ele>6.866455078125</ele>
        <time>2012-04-15T10:02:34Z</time>
      </trkpt>
      <trkpt lat="47.80777" lon="-2.35985">
        <ele>6.866455078125</ele>
        <time>2012-04-15T10:04:50Z</time>
      </trkpt>
      <trkpt lat="47.8077" lon="-2.36064">
        <ele>6.866455078125</ele>
        <time>2012-04-15T10:05:06Z</time>
      </trkpt>
      <trkpt lat="47.80765" lon="-2.36214">
        <ele>7.34716796875</ele>
        <time>2012-04-15T10:05:33Z</time>
      </trkpt>
      <trkpt lat="47.80764" lon="-2.36299">
        <ele>6.866455078125</ele>
        <time>2012-04-15T10:05:48Z</time>
      </trkpt>
      <trkpt lat="47.80763" lon="-2.36422">
        <ele>7.34716796875</ele>
        <time>2012-04-15T10:06:10Z</time>
      </trkpt>
      <trkpt lat="47.80762" lon="-2.36514">
        <ele>7.34716796875</ele>
        <time>2012-04-15T10:06:26Z</time>
      </trkpt>
      <trkpt lat="47.8076" lon="-2.36594">
        <ele>9.2698974609375</ele>
        <time>2012-04-15T10:06:40Z</time>
      </trkpt>
      <trkpt lat="47.80756" lon="-2.36686">
        <ele>7.34716796875</ele>
        <time>2012-04-15T10:06:56Z</time>
      </trkpt>
      <trkpt lat="47.80749" lon="-2.36784">
        <ele>7.827880859375</ele>
        <time>2012-04-15T10:07:13Z</time>
      </trkpt>
      <trkpt lat="47.80747" lon="-2.36808">
        <ele>6.866455078125</ele>
        <time>2012-04-15T10:07:17Z</time>
      </trkpt>
      <trkpt lat="47.80727" lon="-2.36911">
        <ele>6.866455078125</ele>
        <time>2012-04-15T10:07:35Z</time>
      </trkpt>
      <trkpt lat="47.80679" lon="-2.36977">
        <ele>7.34716796875</ele>
        <time>2012-04-15T10:07:50Z</time>
      </trkpt>
      <trkpt lat="47.80583" lon="-2.37011">
        <ele>9.2698974609375</ele>
        <time>2012-04-15T10:08:12Z</time>
      </trkpt>
      <trkpt lat="47.80494" lon="-2.37058">
        <ele>8.7891845703125</ele>
        <time>2012-04-15T10:08:36Z</time>
      </trkpt>
      <trkpt lat="47.80446" lon="-2.37139">
        <ele>7.827880859375</ele>
        <time>2012-04-15T10:08:53Z</time>
      </trkpt>
      <trkpt lat="47.80414" lon="-2.37247">
        <ele>6.866455078125</ele>
        <time>2012-04-15T10:09:13Z</time>
      </trkpt>
      <trkpt lat="47.80405" lon="-2.37279">
        <ele>7.34716796875</ele>
        <time>2012-04-15T10:09:19Z</time>
      </trkpt>
      <trkpt lat="47.80409" lon="-2.37399">
        <ele>6.3858642578125</ele>
        <time>2012-04-15T10:09:38Z</time>
      </trkpt>
      <trkpt lat="47.80441" lon="-2.37572">
        <ele>7.34716796875</ele>
        <time>2012-04-15T10:10:01Z</time>
      </trkpt>
      <trkpt lat="47.80496" lon="-2.37737">
        <ele>8.30859375</ele>
        <time>2012-04-15T10:10:32Z</time>
      </trkpt>
      <trkpt lat="47.80534" lon="-2.37839">
        <ele>7.827880859375</ele>
        <time>2012-04-15T10:10:51Z</time>
      </trkpt>
      <trkpt lat="47.80574" lon="-2.37944">
        <ele>9.2698974609375</ele>
        <time>2012-04-15T10:11:13Z</time>
      </trkpt>
      <trkpt lat="47.80617" lon="-2.38024">
        <ele>8.30859375</ele>
        <time>2012-04-15T10:11:31Z</time>
      </trkpt>
      <trkpt lat="47.80675" lon="-2.38063">
        <ele>7.827880859375</ele>
        <time>2012-04-15T10:11:48Z</time>
      </trkpt>
      <trkpt lat="47.807" lon="-2.38073">
        <ele>7.34716796875</ele>
        <time>2012-04-15T10:11:56Z</time>
      </trkpt>
      <trkpt lat="47.80704" lon="-2.38074">
        <ele>7.34716796875</ele>
        <time>2012-04-15T10:11:58Z</time>
      </trkpt>
      <trkpt lat="47.80753" lon="-2.3809">
        <ele>5.9052734375</ele>
        <time>2012-04-15T10:12:14Z</time>
      </trkpt>
      <trkpt lat="47.80812" lon="-2.38109">
        <ele>6.3858642578125</ele>
        <time>2012-04-15T10:12:33Z</time>
      </trkpt>
      <trkpt lat="47.8083" lon="-2.38115">
        <ele>6.3858642578125</ele>
        <time>2012-04-15T10:12:39Z</time>
      </trkpt>
      <trkpt lat="47.80833" lon="-2.38116">
        <ele>6.866455078125</ele>
        <time>2012-04-15T10:12:52Z</time>
      </trkpt>
      <trkpt lat="47.80833" lon="-2.38116">
        <ele>7.34716796875</ele>
        <time>2012-04-15T10:12:58Z</time>
      </trkpt>
      <trkpt lat="47.80833" lon="-2.38116">
        <ele>7.34716796875</ele>
        <time>2012-04-15T10:13:03Z</time>
      </trkpt>
      <trkpt lat="47.80833" lon="-2.38116">
        <ele>7.34716796875</ele>
        <time>2012-04-15T10:13:16Z</time>
      </trkpt>
      <trkpt lat="47.80833" lon="-2.38116">
        <ele>6.866455078125</ele>
        <time>2012-04-15T10:22:33Z</time>
      </trkpt>
      <trkpt lat="47.80833" lon="-2.38116">
        <ele>6.3858642578125</ele>
        <time>2012-04-15T10:22:45Z</time>
      </trkpt>
      <trkpt lat="47.80833" lon="-2.38116">
        <ele>6.866455078125</ele>
        <time>2012-04-15T10:23:02Z</time>
      </trkpt>
      <trkpt lat="47.80833" lon="-2.38116">
        <ele>6.3858642578125</ele>
        <time>2012-04-15T10:23:28Z</time>
      </trkpt>
      <trkpt lat="47.80833" lon="-2.38116">
        <ele>6.3858642578125</ele>
        <time>2012-04-15T10:27:00Z</time>
      </trkpt>
    </trkseg>
  </trk>
  <trk>
    <name><![CDATA[ACTIVE LOG 003]]></name>
    <trkseg>
      <trkpt lat="47.80829" lon="-2.38097">
        <ele>10.711791992188</ele>
        <time>2012-04-15T12:39:02Z</time>
      </trkpt>
      <trkpt lat="47.80836" lon="-2.38101">
        <ele>9.7506103515625</ele>
        <time>2012-04-15T12:39:53Z</time>
      </trkpt>
      <trkpt lat="47.8084" lon="-2.38095">
        <ele>12.634399414062</ele>
        <time>2012-04-15T12:46:09Z</time>
      </trkpt>
      <trkpt lat="47.8084" lon="-2.38091">
        <ele>12.15380859375</ele>
        <time>2012-04-15T12:46:25Z</time>
      </trkpt>
      <trkpt lat="47.80847" lon="-2.38046">
        <ele>10.711791992188</ele>
        <time>2012-04-15T12:46:40Z</time>
      </trkpt>
      <trkpt lat="47.80854" lon="-2.38044">
        <ele>10.231201171875</ele>
        <time>2012-04-15T12:46:44Z</time>
      </trkpt>
      <trkpt lat="47.80882" lon="-2.3803">
        <ele>6.866455078125</ele>
        <time>2012-04-15T12:46:58Z</time>
      </trkpt>
      <trkpt lat="47.80912" lon="-2.3806">
        <ele>9.7506103515625</ele>
        <time>2012-04-15T12:47:12Z</time>
      </trkpt>
      <trkpt lat="47.80964" lon="-2.38094">
        <ele>10.231201171875</ele>
        <time>2012-04-15T12:47:33Z</time>
      </trkpt>
      <trkpt lat="47.80994" lon="-2.38111">
        <ele>10.231201171875</ele>
        <time>2012-04-15T12:47:47Z</time>
      </trkpt>
      <trkpt lat="47.81035" lon="-2.38142">
        <ele>11.192504882812</ele>
        <time>2012-04-15T12:48:01Z</time>
      </trkpt>
      <trkpt lat="47.81038" lon="-2.38144">
        <ele>11.192504882812</ele>
        <time>2012-04-15T12:48:06Z</time>
      </trkpt>
      <trkpt lat="47.81045" lon="-2.3815">
        <ele>10.231201171875</ele>
        <time>2012-04-15T12:48:12Z</time>
      </trkpt>
      <trkpt lat="47.81063" lon="-2.38166">
        <ele>11.192504882812</ele>
        <time>2012-04-15T12:48:21Z</time>
      </trkpt>
      <trkpt lat="47.81085" lon="-2.38185">
        <ele>8.7891845703125</ele>
        <time>2012-04-15T12:48:30Z</time>
      </trkpt>
      <trkpt lat="47.8111" lon="-2.38207">
        <ele>6.866455078125</ele>
        <time>2012-04-15T12:48:39Z</time>
      </trkpt>
      <trkpt lat="47.81143" lon="-2.38241">
        <ele>6.3858642578125</ele>
        <time>2012-04-15T12:48:50Z</time>
      </trkpt>
      <trkpt lat="47.81168" lon="-2.38266">
        <ele>3.982666015625</ele>
        <time>2012-04-15T12:49:00Z</time>
      </trkpt>
      <trkpt lat="47.81168" lon="-2.38266">
        <ele>5.9052734375</ele>
        <time>2012-04-15T12:49:04Z</time>
      </trkpt>
      <trkpt lat="47.81194" lon="-2.38296">
        <ele>9.2698974609375</ele>
        <time>2012-04-15T12:49:16Z</time>
      </trkpt>
      <trkpt lat="47.81223" lon="-2.38328">
        <ele>9.7506103515625</ele>
        <time>2012-04-15T12:49:33Z</time>
      </trkpt>
      <trkpt lat="47.81229" lon="-2.38335">
        <ele>10.231201171875</ele>
        <time>2012-04-15T12:49:38Z</time>
      </trkpt>
      <trkpt lat="47.81229" lon="-2.38335">
        <ele>9.7506103515625</ele>
        <time>2012-04-15T12:49:44Z</time>
      </trkpt>
      <trkpt lat="47.81229" lon="-2.38335">
        <ele>9.2698974609375</ele>
        <time>2012-04-15T12:49:56Z</time>
      </trkpt>
      <trkpt lat="47.81316" lon="-2.38443">
        <ele>8.30859375</ele>
        <time>2012-04-15T12:50:15Z</time>
      </trkpt>
      <trkpt lat="47.81342" lon="-2.38475">
        <ele>8.30859375</ele>
        <time>2012-04-15T12:50:25Z</time>
      </trkpt>
      <trkpt lat="47.81372" lon="-2.38513">
        <ele>8.7891845703125</ele>
        <time>2012-04-15T12:50:37Z</time>
      </trkpt>
      <trkpt lat="47.81394" lon="-2.38541">
        <ele>8.30859375</ele>
        <time>2012-04-15T12:50:45Z</time>
      </trkpt>
      <trkpt lat="47.81427" lon="-2.38586">
        <ele>6.866455078125</ele>
        <time>2012-04-15T12:50:55Z</time>
      </trkpt>
      <trkpt lat="47.81461" lon="-2.38632">
        <ele>7.34716796875</ele>
        <time>2012-04-15T12:51:07Z</time>
      </trkpt>
      <trkpt lat="47.81496" lon="-2.38675">
        <ele>8.30859375</ele>
        <time>2012-04-15T12:51:19Z</time>
      </trkpt>
      <trkpt lat="47.81549" lon="-2.38744">
        <ele>8.30859375</ele>
        <time>2012-04-15T12:51:37Z</time>
      </trkpt>
      <trkpt lat="47.81583" lon="-2.38788">
        <ele>7.34716796875</ele>
        <time>2012-04-15T12:51:49Z</time>
      </trkpt>
      <trkpt lat="47.81628" lon="-2.38847">
        <ele>8.30859375</ele>
        <time>2012-04-15T12:52:05Z</time>
      </trkpt>
      <trkpt lat="47.81666" lon="-2.38898">
        <ele>9.2698974609375</ele>
        <time>2012-04-15T12:52:19Z</time>
      </trkpt>
      <trkpt lat="47.81704" lon="-2.38948">
        <ele>11.192504882812</ele>
        <time>2012-04-15T12:52:34Z</time>
      </trkpt>
      <trkpt lat="47.81736" lon="-2.38987">
        <ele>10.231201171875</ele>
        <time>2012-04-15T12:52:46Z</time>
      </trkpt>
      <trkpt lat="47.81786" lon="-2.3905">
        <ele>10.231201171875</ele>
        <time>2012-04-15T12:53:03Z</time>
      </trkpt>
      <trkpt lat="47.81819" lon="-2.39095">
        <ele>9.2698974609375</ele>
        <time>2012-04-15T12:53:16Z</time>
      </trkpt>
      <trkpt lat="47.81848" lon="-2.39132">
        <ele>10.711791992188</ele>
        <time>2012-04-15T12:53:29Z</time>
      </trkpt>
      <trkpt lat="47.8188" lon="-2.39173">
        <ele>10.711791992188</ele>
        <time>2012-04-15T12:53:41Z</time>
      </trkpt>
      <trkpt lat="47.81908" lon="-2.39211">
        <ele>9.7506103515625</ele>
        <time>2012-04-15T12:53:51Z</time>
      </trkpt>
      <trkpt lat="47.81946" lon="-2.39256">
        <ele>10.231201171875</ele>
        <time>2012-04-15T12:54:05Z</time>
      </trkpt>
      <trkpt lat="47.81965" lon="-2.39282">
        <ele>10.231201171875</ele>
        <time>2012-04-15T12:54:16Z</time>
      </trkpt>
      <trkpt lat="47.82028" lon="-2.39367">
        <ele>11.673217773438</ele>
        <time>2012-04-15T12:54:40Z</time>
      </trkpt>
      <trkpt lat="47.82099" lon="-2.39459">
        <ele>12.634399414062</ele>
        <time>2012-04-15T12:55:06Z</time>
      </trkpt>
      <trkpt lat="47.82193" lon="-2.39579">
        <ele>11.673217773438</ele>
        <time>2012-04-15T12:55:38Z</time>
      </trkpt>
      <trkpt lat="47.82281" lon="-2.39693">
        <ele>12.15380859375</ele>
        <time>2012-04-15T12:56:09Z</time>
      </trkpt>
      <trkpt lat="47.82357" lon="-2.39791">
        <ele>11.673217773438</ele>
        <time>2012-04-15T12:56:36Z</time>
      </trkpt>
      <trkpt lat="47.82386" lon="-2.39829">
        <ele>11.192504882812</ele>
        <time>2012-04-15T12:56:48Z</time>
      </trkpt>
      <trkpt lat="47.82387" lon="-2.39835">
        <ele>10.711791992188</ele>
        <time>2012-04-15T12:56:50Z</time>
      </trkpt>
      <trkpt lat="47.82427" lon="-2.39887">
        <ele>13.115112304688</ele>
        <time>2012-04-15T12:57:09Z</time>
      </trkpt>
      <trkpt lat="47.82464" lon="-2.39932">
        <ele>12.634399414062</ele>
        <time>2012-04-15T12:57:24Z</time>
      </trkpt>
      <trkpt lat="47.82474" lon="-2.39945">
        <ele>12.15380859375</ele>
        <time>2012-04-15T12:57:29Z</time>
      </trkpt>
      <trkpt lat="47.82475" lon="-2.3995">
        <ele>12.15380859375</ele>
        <time>2012-04-15T12:57:31Z</time>
      </trkpt>
      <trkpt lat="47.82497" lon="-2.39989">
        <ele>11.673217773438</ele>
        <time>2012-04-15T12:57:43Z</time>
      </trkpt>
      <trkpt lat="47.82507" lon="-2.40056">
        <ele>11.192504882812</ele>
        <time>2012-04-15T12:57:55Z</time>
      </trkpt>
      <trkpt lat="47.8257" lon="-2.40183">
        <ele>10.711791992188</ele>
        <time>2012-04-15T12:58:25Z</time>
      </trkpt>
      <trkpt lat="47.8255" lon="-2.40366">
        <ele>11.192504882812</ele>
        <time>2012-04-15T12:58:48Z</time>
      </trkpt>
      <trkpt lat="47.82591" lon="-2.40441">
        <ele>11.673217773438</ele>
        <time>2012-04-15T12:59:05Z</time>
      </trkpt>
      <trkpt lat="47.82626" lon="-2.40499">
        <ele>10.231201171875</ele>
        <time>2012-04-15T12:59:19Z</time>
      </trkpt>
      <trkpt lat="47.82658" lon="-2.40549">
        <ele>11.192504882812</ele>
        <time>2012-04-15T12:59:32Z</time>
      </trkpt>
      <trkpt lat="47.82701" lon="-2.40617">
        <ele>11.673217773438</ele>
        <time>2012-04-15T12:59:49Z</time>
      </trkpt>
      <trkpt lat="47.82727" lon="-2.40662">
        <ele>10.711791992188</ele>
        <time>2012-04-15T13:00:00Z</time>
      </trkpt>
      <trkpt lat="47.82781" lon="-2.40694">
        <ele>11.192504882812</ele>
        <time>2012-04-15T13:00:14Z</time>
      </trkpt>
      <trkpt lat="47.82791" lon="-2.40708">
        <ele>12.15380859375</ele>
        <time>2012-04-15T13:00:23Z</time>
      </trkpt>
      <trkpt lat="47.82825" lon="-2.40756">
        <ele>11.192504882812</ele>
        <time>2012-04-15T13:00:31Z</time>
      </trkpt>
      <trkpt lat="47.82848" lon="-2.40789">
        <ele>11.192504882812</ele>
        <time>2012-04-15T13:00:39Z</time>
      </trkpt>
      <trkpt lat="47.82873" lon="-2.40825">
        <ele>11.192504882812</ele>
        <time>2012-04-15T13:00:49Z</time>
      </trkpt>
      <trkpt lat="47.82901" lon="-2.40856">
        <ele>12.634399414062</ele>
        <time>2012-04-15T13:01:00Z</time>
      </trkpt>
      <trkpt lat="47.82928" lon="-2.40887">
        <ele>14.557006835938</ele>
        <time>2012-04-15T13:01:11Z</time>
      </trkpt>
      <trkpt lat="47.82938" lon="-2.40898">
        <ele>14.076416015625</ele>
        <time>2012-04-15T13:01:16Z</time>
      </trkpt>
      <trkpt lat="47.82941" lon="-2.40901">
        <ele>14.076416015625</ele>
        <time>2012-04-15T13:01:28Z</time>
      </trkpt>
      <trkpt lat="47.82983" lon="-2.40974">
        <ele>10.711791992188</ele>
        <time>2012-04-15T13:01:42Z</time>
      </trkpt>
      <trkpt lat="47.82991" lon="-2.4098">
        <ele>9.7506103515625</ele>
        <time>2012-04-15T13:01:46Z</time>
      </trkpt>
      <trkpt lat="47.83024" lon="-2.4101">
        <ele>9.7506103515625</ele>
        <time>2012-04-15T13:01:59Z</time>
      </trkpt>
      <trkpt lat="47.83088" lon="-2.41075">
        <ele>11.673217773438</ele>
        <time>2012-04-15T13:02:23Z</time>
      </trkpt>
      <trkpt lat="47.83115" lon="-2.41117">
        <ele>11.673217773438</ele>
        <time>2012-04-15T13:02:37Z</time>
      </trkpt>
      <trkpt lat="47.83158" lon="-2.41168">
        <ele>10.711791992188</ele>
        <time>2012-04-15T13:02:52Z</time>
      </trkpt>
      <trkpt lat="47.8324" lon="-2.41234">
        <ele>11.192504882812</ele>
        <time>2012-04-15T13:03:18Z</time>
      </trkpt>
      <trkpt lat="47.83303" lon="-2.41303">
        <ele>10.231201171875</ele>
        <time>2012-04-15T13:03:38Z</time>
      </trkpt>
      <trkpt lat="47.83364" lon="-2.41407">
        <ele>11.192504882812</ele>
        <time>2012-04-15T13:04:01Z</time>
      </trkpt>
      <trkpt lat="47.83433" lon="-2.41505">
        <ele>10.711791992188</ele>
        <time>2012-04-15T13:04:25Z</time>
      </trkpt>
      <trkpt lat="47.83497" lon="-2.41611">
        <ele>11.673217773438</ele>
        <time>2012-04-15T13:04:48Z</time>
      </trkpt>
      <trkpt lat="47.83544" lon="-2.4165">
        <ele>10.711791992188</ele>
        <time>2012-04-15T13:05:03Z</time>
      </trkpt>
      <trkpt lat="47.83586" lon="-2.41665">
        <ele>10.711791992188</ele>
        <time>2012-04-15T13:05:15Z</time>
      </trkpt>
      <trkpt lat="47.83618" lon="-2.41699">
        <ele>7.827880859375</ele>
        <time>2012-04-15T13:05:26Z</time>
      </trkpt>
      <trkpt lat="47.83666" lon="-2.41765">
        <ele>9.7506103515625</ele>
        <time>2012-04-15T13:05:43Z</time>
      </trkpt>
      <trkpt lat="47.83706" lon="-2.41872">
        <ele>11.192504882812</ele>
        <time>2012-04-15T13:06:04Z</time>
      </trkpt>
      <trkpt lat="47.83694" lon="-2.41978">
        <ele>11.673217773438</ele>
        <time>2012-04-15T13:06:21Z</time>
      </trkpt>
      <trkpt lat="47.83694" lon="-2.42116">
        <ele>11.673217773438</ele>
        <time>2012-04-15T13:06:43Z</time>
      </trkpt>
      <trkpt lat="47.83707" lon="-2.42262">
        <ele>11.673217773438</ele>
        <time>2012-04-15T13:07:06Z</time>
      </trkpt>
      <trkpt lat="47.83745" lon="-2.42425">
        <ele>11.673217773438</ele>
        <time>2012-04-15T13:07:34Z</time>
      </trkpt>
      <trkpt lat="47.83781" lon="-2.42569">
        <ele>12.15380859375</ele>
        <time>2012-04-15T13:08:01Z</time>
      </trkpt>
      <trkpt lat="47.83826" lon="-2.42687">
        <ele>12.634399414062</ele>
        <time>2012-04-15T13:08:25Z</time>
      </trkpt>
      <trkpt lat="47.83838" lon="-2.42706">
        <ele>12.634399414062</ele>
        <time>2012-04-15T13:08:30Z</time>
      </trkpt>
      <trkpt lat="47.83867" lon="-2.42757">
        <ele>12.15380859375</ele>
        <time>2012-04-15T13:08:42Z</time>
      </trkpt>
      <trkpt lat="47.83926" lon="-2.42884">
        <ele>11.673217773438</ele>
        <time>2012-04-15T13:09:08Z</time>
      </trkpt>
      <trkpt lat="47.83967" lon="-2.43">
        <ele>11.673217773438</ele>
        <time>2012-04-15T13:09:31Z</time>
      </trkpt>
      <trkpt lat="47.83998" lon="-2.43072">
        <ele>12.15380859375</ele>
        <time>2012-04-15T13:09:46Z</time>
      </trkpt>
      <trkpt lat="47.84001" lon="-2.43118">
        <ele>12.15380859375</ele>
        <time>2012-04-15T13:09:54Z</time>
      </trkpt>
      <trkpt lat="47.83966" lon="-2.43189">
        <ele>12.15380859375</ele>
        <time>2012-04-15T13:10:10Z</time>
      </trkpt>
      <trkpt lat="47.83941" lon="-2.43279">
        <ele>11.673217773438</ele>
        <time>2012-04-15T13:10:26Z</time>
      </trkpt>
      <trkpt lat="47.83956" lon="-2.43413">
        <ele>11.192504882812</ele>
        <time>2012-04-15T13:10:48Z</time>
      </trkpt>
      <trkpt lat="47.83992" lon="-2.43511">
        <ele>11.673217773438</ele>
        <time>2012-04-15T13:11:07Z</time>
      </trkpt>
      <trkpt lat="47.84041" lon="-2.43615">
        <ele>12.634399414062</ele>
        <time>2012-04-15T13:11:29Z</time>
      </trkpt>
      <trkpt lat="47.84096" lon="-2.43679">
        <ele>12.634399414062</ele>
        <time>2012-04-15T13:11:48Z</time>
      </trkpt>
      <trkpt lat="47.84173" lon="-2.43775">
        <ele>11.673217773438</ele>
        <time>2012-04-15T13:12:15Z</time>
      </trkpt>
      <trkpt lat="47.84254" lon="-2.43884">
        <ele>12.15380859375</ele>
        <time>2012-04-15T13:12:45Z</time>
      </trkpt>
      <trkpt lat="47.84328" lon="-2.43996">
        <ele>11.673217773438</ele>
        <time>2012-04-15T13:13:13Z</time>
      </trkpt>
      <trkpt lat="47.84382" lon="-2.44112">
        <ele>12.15380859375</ele>
        <time>2012-04-15T13:13:39Z</time>
      </trkpt>
      <trkpt lat="47.84425" lon="-2.44185">
        <ele>11.673217773438</ele>
        <time>2012-04-15T13:13:57Z</time>
      </trkpt>
      <trkpt lat="47.84496" lon="-2.44214">
        <ele>11.673217773438</ele>
        <time>2012-04-15T13:14:14Z</time>
      </trkpt>
      <trkpt lat="47.84601" lon="-2.44247">
        <ele>10.711791992188</ele>
        <time>2012-04-15T13:14:43Z</time>
      </trkpt>
      <trkpt lat="47.84697" lon="-2.44283">
        <ele>10.711791992188</ele>
        <time>2012-04-15T13:15:10Z</time>
      </trkpt>
      <trkpt lat="47.84747" lon="-2.44337">
        <ele>10.711791992188</ele>
        <time>2012-04-15T13:15:28Z</time>
      </trkpt>
      <trkpt lat="47.84803" lon="-2.44413">
        <ele>10.711791992188</ele>
        <time>2012-04-15T13:15:49Z</time>
      </trkpt>
      <trkpt lat="47.84872" lon="-2.44491">
        <ele>10.231201171875</ele>
        <time>2012-04-15T13:16:14Z</time>
      </trkpt>
      <trkpt lat="47.84964" lon="-2.44554">
        <ele>10.711791992188</ele>
        <time>2012-04-15T13:16:43Z</time>
      </trkpt>
      <trkpt lat="47.8504" lon="-2.44584">
        <ele>11.192504882812</ele>
        <time>2012-04-15T13:17:05Z</time>
      </trkpt>
      <trkpt lat="47.85107" lon="-2.44602">
        <ele>10.711791992188</ele>
        <time>2012-04-15T13:17:25Z</time>
      </trkpt>
      <trkpt lat="47.85119" lon="-2.44605">
        <ele>10.711791992188</ele>
        <time>2012-04-15T13:17:30Z</time>
      </trkpt>
      <trkpt lat="47.85166" lon="-2.44597">
        <ele>10.231201171875</ele>
        <time>2012-04-15T13:17:46Z</time>
      </trkpt>
      <trkpt lat="47.8521" lon="-2.44613">
        <ele>9.2698974609375</ele>
        <time>2012-04-15T13:18:00Z</time>
      </trkpt>
      <trkpt lat="47.85255" lon="-2.4463">
        <ele>7.827880859375</ele>
        <time>2012-04-15T13:18:13Z</time>
      </trkpt>
      <trkpt lat="47.85292" lon="-2.44636">
        <ele>9.7506103515625</ele>
        <time>2012-04-15T13:18:24Z</time>
      </trkpt>
      <trkpt lat="47.8535" lon="-2.44645">
        <ele>10.231201171875</ele>
        <time>2012-04-15T13:18:41Z</time>
      </trkpt>
      <trkpt lat="47.85397" lon="-2.44647">
        <ele>13.115112304688</ele>
        <time>2012-04-15T13:18:57Z</time>
      </trkpt>
      <trkpt lat="47.85408" lon="-2.44646">
        <ele>12.634399414062</ele>
        <time>2012-04-15T13:19:02Z</time>
      </trkpt>
      <trkpt lat="47.8548" lon="-2.44634">
        <ele>13.115112304688</ele>
        <time>2012-04-15T13:19:22Z</time>
      </trkpt>
      <trkpt lat="47.85577" lon="-2.44622">
        <ele>16.479736328125</ele>
        <time>2012-04-15T13:19:48Z</time>
      </trkpt>
      <trkpt lat="47.85662" lon="-2.44634">
        <ele>17.921752929688</ele>
        <time>2012-04-15T13:20:12Z</time>
      </trkpt>
      <trkpt lat="47.85708" lon="-2.44652">
        <ele>18.883056640625</ele>
        <time>2012-04-15T13:20:25Z</time>
      </trkpt>
      <trkpt lat="47.85754" lon="-2.44679">
        <ele>17.921752929688</ele>
        <time>2012-04-15T13:20:39Z</time>
      </trkpt>
      <trkpt lat="47.85815" lon="-2.44695">
        <ele>15.518432617188</ele>
        <time>2012-04-15T13:20:55Z</time>
      </trkpt>
      <trkpt lat="47.85893" lon="-2.44688">
        <ele>15.9990234375</ele>
        <time>2012-04-15T13:21:17Z</time>
      </trkpt>
      <trkpt lat="47.85963" lon="-2.44662">
        <ele>15.9990234375</ele>
        <time>2012-04-15T13:21:37Z</time>
      </trkpt>
      <trkpt lat="47.86036" lon="-2.446">
        <ele>17.441162109375</ele>
        <time>2012-04-15T13:21:58Z</time>
      </trkpt>
      <trkpt lat="47.86112" lon="-2.44565">
        <ele>16.479736328125</ele>
        <time>2012-04-15T13:22:18Z</time>
      </trkpt>
      <trkpt lat="47.86188" lon="-2.44558">
        <ele>15.518432617188</ele>
        <time>2012-04-15T13:22:41Z</time>
      </trkpt>
      <trkpt lat="47.86259" lon="-2.44564">
        <ele>15.037719726562</ele>
        <time>2012-04-15T13:23:05Z</time>
      </trkpt>
      <trkpt lat="47.86332" lon="-2.44575">
        <ele>15.037719726562</ele>
        <time>2012-04-15T13:23:29Z</time>
      </trkpt>
      <trkpt lat="47.86354" lon="-2.4458">
        <ele>15.037719726562</ele>
        <time>2012-04-15T13:23:38Z</time>
      </trkpt>
      <trkpt lat="47.86358" lon="-2.44584">
        <ele>15.037719726562</ele>
        <time>2012-04-15T13:23:40Z</time>
      </trkpt>
      <trkpt lat="47.86368" lon="-2.44588">
        <ele>15.037719726562</ele>
        <time>2012-04-15T13:23:46Z</time>
      </trkpt>
      <trkpt lat="47.864" lon="-2.44592">
        <ele>15.9990234375</ele>
        <time>2012-04-15T13:24:04Z</time>
      </trkpt>
      <trkpt lat="47.86426" lon="-2.44601">
        <ele>17.441162109375</ele>
        <time>2012-04-15T13:24:18Z</time>
      </trkpt>
      <trkpt lat="47.86458" lon="-2.4461">
        <ele>19.36376953125</ele>
        <time>2012-04-15T13:24:34Z</time>
      </trkpt>
      <trkpt lat="47.86492" lon="-2.44621">
        <ele>21.766967773438</ele>
        <time>2012-04-15T13:24:53Z</time>
      </trkpt>
      <trkpt lat="47.865" lon="-2.44624">
        <ele>21.766967773438</ele>
        <time>2012-04-15T13:25:06Z</time>
      </trkpt>
      <trkpt lat="47.86501" lon="-2.44624">
        <ele>21.766967773438</ele>
        <time>2012-04-15T13:25:21Z</time>
      </trkpt>
      <trkpt lat="47.86504" lon="-2.44616">
        <ele>21.766967773438</ele>
        <time>2012-04-15T13:25:25Z</time>
      </trkpt>
      <trkpt lat="47.86508" lon="-2.44518">
        <ele>18.883056640625</ele>
        <time>2012-04-15T13:25:41Z</time>
      </trkpt>
      <trkpt lat="47.86514" lon="-2.4444">
        <ele>16.96044921875</ele>
        <time>2012-04-15T13:25:55Z</time>
      </trkpt>
      <trkpt lat="47.86536" lon="-2.44437">
        <ele>15.9990234375</ele>
        <time>2012-04-15T13:26:03Z</time>
      </trkpt>
      <trkpt lat="47.86539" lon="-2.44441">
        <ele>15.518432617188</ele>
        <time>2012-04-15T13:26:05Z</time>
      </trkpt>
      <trkpt lat="47.86587" lon="-2.44452">
        <ele>14.557006835938</ele>
        <time>2012-04-15T13:26:18Z</time>
      </trkpt>
      <trkpt lat="47.86612" lon="-2.44455">
        <ele>14.557006835938</ele>
        <time>2012-04-15T13:26:24Z</time>
      </trkpt>
      <trkpt lat="47.86637" lon="-2.44427">
        <ele>14.076416015625</ele>
        <time>2012-04-15T13:26:34Z</time>
      </trkpt>
      <trkpt lat="47.86644" lon="-2.44293">
        <ele>14.076416015625</ele>
        <time>2012-04-15T13:26:58Z</time>
      </trkpt>
      <trkpt lat="47.86655" lon="-2.44091">
        <ele>13.595825195312</ele>
        <time>2012-04-15T13:27:32Z</time>
      </trkpt>
      <trkpt lat="47.86669" lon="-2.43974">
        <ele>13.115112304688</ele>
        <time>2012-04-15T13:27:54Z</time>
      </trkpt>
      <trkpt lat="47.86688" lon="-2.43851">
        <ele>12.634399414062</ele>
        <time>2012-04-15T13:28:21Z</time>
      </trkpt>
      <trkpt lat="47.86701" lon="-2.43809">
        <ele>11.192504882812</ele>
        <time>2012-04-15T13:28:32Z</time>
      </trkpt>
      <trkpt lat="47.86723" lon="-2.43726">
        <ele>12.634399414062</ele>
        <time>2012-04-15T13:28:51Z</time>
      </trkpt>
      <trkpt lat="47.8675" lon="-2.43646">
        <ele>15.037719726562</ele>
        <time>2012-04-15T13:29:08Z</time>
      </trkpt>
      <trkpt lat="47.86779" lon="-2.43575">
        <ele>15.518432617188</ele>
        <time>2012-04-15T13:29:23Z</time>
      </trkpt>
      <trkpt lat="47.86807" lon="-2.4351">
        <ele>16.479736328125</ele>
        <time>2012-04-15T13:29:38Z</time>
      </trkpt>
      <trkpt lat="47.86822" lon="-2.43489">
        <ele>15.518432617188</ele>
        <time>2012-04-15T13:29:44Z</time>
      </trkpt>
      <trkpt lat="47.86851" lon="-2.43458">
        <ele>13.115112304688</ele>
        <time>2012-04-15T13:29:53Z</time>
      </trkpt>
      <trkpt lat="47.86915" lon="-2.43395">
        <ele>15.037719726562</ele>
        <time>2012-04-15T13:30:13Z</time>
      </trkpt>
      <trkpt lat="47.86949" lon="-2.43348">
        <ele>16.479736328125</ele>
        <time>2012-04-15T13:30:28Z</time>
      </trkpt>
      <trkpt lat="47.8698" lon="-2.43265">
        <ele>15.9990234375</ele>
        <time>2012-04-15T13:30:45Z</time>
      </trkpt>
      <trkpt lat="47.87009" lon="-2.43143">
        <ele>12.634399414062</ele>
        <time>2012-04-15T13:31:10Z</time>
      </trkpt>
      <trkpt lat="47.87035" lon="-2.43085">
        <ele>12.15380859375</ele>
        <time>2012-04-15T13:31:24Z</time>
      </trkpt>
      <trkpt lat="47.87079" lon="-2.42987">
        <ele>11.673217773438</ele>
        <time>2012-04-15T13:31:45Z</time>
      </trkpt>
      <trkpt lat="47.87117" lon="-2.42846">
        <ele>12.15380859375</ele>
        <time>2012-04-15T13:32:10Z</time>
      </trkpt>
      <trkpt lat="47.87164" lon="-2.42752">
        <ele>10.711791992188</ele>
        <time>2012-04-15T13:32:31Z</time>
      </trkpt>
      <trkpt lat="47.8721" lon="-2.42715">
        <ele>13.595825195312</ele>
        <time>2012-04-15T13:32:45Z</time>
      </trkpt>
      <trkpt lat="47.87251" lon="-2.4273">
        <ele>12.634399414062</ele>
        <time>2012-04-15T13:32:58Z</time>
      </trkpt>
      <trkpt lat="47.87332" lon="-2.42777">
        <ele>12.634399414062</ele>
        <time>2012-04-15T13:33:22Z</time>
      </trkpt>
      <trkpt lat="47.87422" lon="-2.42801">
        <ele>12.15380859375</ele>
        <time>2012-04-15T13:33:47Z</time>
      </trkpt>
      <trkpt lat="47.87507" lon="-2.42802">
        <ele>13.115112304688</ele>
        <time>2012-04-15T13:34:09Z</time>
      </trkpt>
      <trkpt lat="47.87578" lon="-2.42765">
        <ele>12.634399414062</ele>
        <time>2012-04-15T13:34:28Z</time>
      </trkpt>
      <trkpt lat="47.87624" lon="-2.42702">
        <ele>13.595825195312</ele>
        <time>2012-04-15T13:34:45Z</time>
      </trkpt>
      <trkpt lat="47.87662" lon="-2.42621">
        <ele>16.479736328125</ele>
        <time>2012-04-15T13:35:03Z</time>
      </trkpt>
      <trkpt lat="47.87702" lon="-2.42555">
        <ele>17.441162109375</ele>
        <time>2012-04-15T13:35:18Z</time>
      </trkpt>
      <trkpt lat="47.8775" lon="-2.4249">
        <ele>17.921752929688</ele>
        <time>2012-04-15T13:35:35Z</time>
      </trkpt>
      <trkpt lat="47.87785" lon="-2.4245">
        <ele>18.40234375</ele>
        <time>2012-04-15T13:35:47Z</time>
      </trkpt>
      <trkpt lat="47.87821" lon="-2.42411">
        <ele>21.286376953125</ele>
        <time>2012-04-15T13:36:00Z</time>
      </trkpt>
      <trkpt lat="47.87864" lon="-2.42383">
        <ele>19.844360351562</ele>
        <time>2012-04-15T13:36:12Z</time>
      </trkpt>
      <trkpt lat="47.87911" lon="-2.42358">
        <ele>17.921752929688</ele>
        <time>2012-04-15T13:36:25Z</time>
      </trkpt>
      <trkpt lat="47.87982" lon="-2.42343">
        <ele>16.96044921875</ele>
        <time>2012-04-15T13:36:46Z</time>
      </trkpt>
      <trkpt lat="47.8803" lon="-2.42337">
        <ele>16.479736328125</ele>
        <time>2012-04-15T13:37:04Z</time>
      </trkpt>
      <trkpt lat="47.88094" lon="-2.4234">
        <ele>15.9990234375</ele>
        <time>2012-04-15T13:37:26Z</time>
      </trkpt>
      <trkpt lat="47.8813" lon="-2.42376">
        <ele>15.518432617188</ele>
        <time>2012-04-15T13:37:43Z</time>
      </trkpt>
      <trkpt lat="47.88133" lon="-2.42379">
        <ele>15.037719726562</ele>
        <time>2012-04-15T13:37:58Z</time>
      </trkpt>
      <trkpt lat="47.88135" lon="-2.42378">
        <ele>15.518432617188</ele>
        <time>2012-04-15T13:38:10Z</time>
      </trkpt>
      <trkpt lat="47.88132" lon="-2.42378">
        <ele>14.557006835938</ele>
        <time>2012-04-15T13:52:26Z</time>
      </trkpt>
      <trkpt lat="47.88134" lon="-2.42377">
        <ele>13.595825195312</ele>
        <time>2012-04-15T13:52:53Z</time>
      </trkpt>
      <trkpt lat="47.8816" lon="-2.42416">
        <ele>14.557006835938</ele>
        <time>2012-04-15T13:53:08Z</time>
      </trkpt>
      <trkpt lat="47.88213" lon="-2.42478">
        <ele>15.037719726562</ele>
        <time>2012-04-15T13:53:28Z</time>
      </trkpt>
      <trkpt lat="47.88295" lon="-2.42539">
        <ele>15.9990234375</ele>
        <time>2012-04-15T13:53:53Z</time>
      </trkpt>
      <trkpt lat="47.88377" lon="-2.4261">
        <ele>15.9990234375</ele>
        <time>2012-04-15T13:54:18Z</time>
      </trkpt>
      <trkpt lat="47.88431" lon="-2.42707">
        <ele>15.9990234375</ele>
        <time>2012-04-15T13:54:41Z</time>
      </trkpt>
      <trkpt lat="47.88508" lon="-2.42843">
        <ele>15.9990234375</ele>
        <time>2012-04-15T13:55:12Z</time>
      </trkpt>
      <trkpt lat="47.8858" lon="-2.42965">
        <ele>16.96044921875</ele>
        <time>2012-04-15T13:55:40Z</time>
      </trkpt>
      <trkpt lat="47.88592" lon="-2.42996">
        <ele>16.96044921875</ele>
        <time>2012-04-15T13:55:51Z</time>
      </trkpt>
      <trkpt lat="47.88602" lon="-2.43025">
        <ele>17.441162109375</ele>
        <time>2012-04-15T13:56:59Z</time>
      </trkpt>
      <trkpt lat="47.88657" lon="-2.43145">
        <ele>17.921752929688</ele>
        <time>2012-04-15T13:57:24Z</time>
      </trkpt>
      <trkpt lat="47.88717" lon="-2.43273">
        <ele>19.36376953125</ele>
        <time>2012-04-15T13:57:50Z</time>
      </trkpt>
      <trkpt lat="47.88746" lon="-2.43412">
        <ele>19.36376953125</ele>
        <time>2012-04-15T13:58:13Z</time>
      </trkpt>
      <trkpt lat="47.8878" lon="-2.43576">
        <ele>19.36376953125</ele>
        <time>2012-04-15T13:58:40Z</time>
      </trkpt>
      <trkpt lat="47.88804" lon="-2.43635">
        <ele>20.8056640625</ele>
        <time>2012-04-15T13:58:53Z</time>
      </trkpt>
      <trkpt lat="47.88796" lon="-2.43722">
        <ele>20.324951171875</ele>
        <time>2012-04-15T13:59:10Z</time>
      </trkpt>
      <trkpt lat="47.88773" lon="-2.4384">
        <ele>19.36376953125</ele>
        <time>2012-04-15T13:59:28Z</time>
      </trkpt>
      <trkpt lat="47.88734" lon="-2.43971">
        <ele>18.40234375</ele>
        <time>2012-04-15T13:59:51Z</time>
      </trkpt>
      <trkpt lat="47.88734" lon="-2.44108">
        <ele>17.441162109375</ele>
        <time>2012-04-15T14:00:14Z</time>
      </trkpt>
      <trkpt lat="47.88722" lon="-2.44253">
        <ele>17.441162109375</ele>
        <time>2012-04-15T14:00:37Z</time>
      </trkpt>
      <trkpt lat="47.88709" lon="-2.44409">
        <ele>17.921752929688</ele>
        <time>2012-04-15T14:01:02Z</time>
      </trkpt>
      <trkpt lat="47.88684" lon="-2.44586">
        <ele>18.40234375</ele>
        <time>2012-04-15T14:01:31Z</time>
      </trkpt>
      <trkpt lat="47.88655" lon="-2.44734">
        <ele>16.96044921875</ele>
        <time>2012-04-15T14:01:56Z</time>
      </trkpt>
      <trkpt lat="47.8865" lon="-2.44855">
        <ele>15.9990234375</ele>
        <time>2012-04-15T14:02:15Z</time>
      </trkpt>
      <trkpt lat="47.88671" lon="-2.44988">
        <ele>15.9990234375</ele>
        <time>2012-04-15T14:02:36Z</time>
      </trkpt>
      <trkpt lat="47.88717" lon="-2.45077">
        <ele>16.479736328125</ele>
        <time>2012-04-15T14:02:56Z</time>
      </trkpt>
      <trkpt lat="47.8875" lon="-2.45126">
        <ele>18.40234375</ele>
        <time>2012-04-15T14:03:12Z</time>
      </trkpt>
      <trkpt lat="47.88803" lon="-2.45211">
        <ele>19.36376953125</ele>
        <time>2012-04-15T14:03:34Z</time>
      </trkpt>
      <trkpt lat="47.88844" lon="-2.45275">
        <ele>19.36376953125</ele>
        <time>2012-04-15T14:03:49Z</time>
      </trkpt>
      <trkpt lat="47.88891" lon="-2.45287">
        <ele>19.36376953125</ele>
        <time>2012-04-15T14:04:01Z</time>
      </trkpt>
      <trkpt lat="47.88954" lon="-2.45247">
        <ele>19.36376953125</ele>
        <time>2012-04-15T14:04:21Z</time>
      </trkpt>
      <trkpt lat="47.89022" lon="-2.45237">
        <ele>20.324951171875</ele>
        <time>2012-04-15T14:04:41Z</time>
      </trkpt>
      <trkpt lat="47.89105" lon="-2.45263">
        <ele>20.8056640625</ele>
        <time>2012-04-15T14:05:02Z</time>
      </trkpt>
      <trkpt lat="47.89215" lon="-2.45302">
        <ele>19.844360351562</ele>
        <time>2012-04-15T14:05:32Z</time>
      </trkpt>
      <trkpt lat="47.89332" lon="-2.45344">
        <ele>19.844360351562</ele>
        <time>2012-04-15T14:06:03Z</time>
      </trkpt>
      <trkpt lat="47.89416" lon="-2.45369">
        <ele>19.844360351562</ele>
        <time>2012-04-15T14:06:26Z</time>
      </trkpt>
      <trkpt lat="47.89473" lon="-2.4541">
        <ele>19.36376953125</ele>
        <time>2012-04-15T14:06:41Z</time>
      </trkpt>
      <trkpt lat="47.89508" lon="-2.45455">
        <ele>19.36376953125</ele>
        <time>2012-04-15T14:06:52Z</time>
      </trkpt>
      <trkpt lat="47.89595" lon="-2.45489">
        <ele>18.40234375</ele>
        <time>2012-04-15T14:07:13Z</time>
      </trkpt>
      <trkpt lat="47.89663" lon="-2.45547">
        <ele>17.441162109375</ele>
        <time>2012-04-15T14:07:32Z</time>
      </trkpt>
      <trkpt lat="47.89758" lon="-2.4564">
        <ele>16.96044921875</ele>
        <time>2012-04-15T14:07:59Z</time>
      </trkpt>
      <trkpt lat="47.89847" lon="-2.45695">
        <ele>17.441162109375</ele>
        <time>2012-04-15T14:08:22Z</time>
      </trkpt>
      <trkpt lat="47.89918" lon="-2.45749">
        <ele>17.441162109375</ele>
        <time>2012-04-15T14:08:42Z</time>
      </trkpt>
      <trkpt lat="47.90029" lon="-2.4578">
        <ele>16.96044921875</ele>
        <time>2012-04-15T14:09:06Z</time>
      </trkpt>
      <trkpt lat="47.9004" lon="-2.45796">
        <ele>17.441162109375</ele>
        <time>2012-04-15T14:09:10Z</time>
      </trkpt>
      <trkpt lat="47.90049" lon="-2.45808">
        <ele>16.96044921875</ele>
        <time>2012-04-15T14:09:13Z</time>
      </trkpt>
      <trkpt lat="47.90034" lon="-2.45925">
        <ele>17.441162109375</ele>
        <time>2012-04-15T14:09:24Z</time>
      </trkpt>
      <trkpt lat="47.90028" lon="-2.46069">
        <ele>17.441162109375</ele>
        <time>2012-04-15T14:09:47Z</time>
      </trkpt>
      <trkpt lat="47.90027" lon="-2.46094">
        <ele>16.479736328125</ele>
        <time>2012-04-15T14:09:51Z</time>
      </trkpt>
      <trkpt lat="47.89998" lon="-2.46188">
        <ele>16.96044921875</ele>
        <time>2012-04-15T14:10:09Z</time>
      </trkpt>
      <trkpt lat="47.89989" lon="-2.46234">
        <ele>15.518432617188</ele>
        <time>2012-04-15T14:10:20Z</time>
      </trkpt>
      <trkpt lat="47.89982" lon="-2.46283">
        <ele>15.9990234375</ele>
        <time>2012-04-15T14:10:29Z</time>
      </trkpt>
      <trkpt lat="47.89976" lon="-2.46362">
        <ele>15.518432617188</ele>
        <time>2012-04-15T14:10:42Z</time>
      </trkpt>
      <trkpt lat="47.89993" lon="-2.46486">
        <ele>16.96044921875</ele>
        <time>2012-04-15T14:11:03Z</time>
      </trkpt>
      <trkpt lat="47.90022" lon="-2.46556">
        <ele>17.921752929688</ele>
        <time>2012-04-15T14:11:17Z</time>
      </trkpt>
      <trkpt lat="47.90074" lon="-2.46619">
        <ele>17.441162109375</ele>
        <time>2012-04-15T14:11:34Z</time>
      </trkpt>
      <trkpt lat="47.9014" lon="-2.46684">
        <ele>17.921752929688</ele>
        <time>2012-04-15T14:11:54Z</time>
      </trkpt>
      <trkpt lat="47.90161" lon="-2.46712">
        <ele>17.921752929688</ele>
        <time>2012-04-15T14:12:01Z</time>
      </trkpt>
      <trkpt lat="47.90197" lon="-2.46819">
        <ele>18.40234375</ele>
        <time>2012-04-15T14:12:20Z</time>
      </trkpt>
      <trkpt lat="47.90209" lon="-2.46873">
        <ele>20.324951171875</ele>
        <time>2012-04-15T14:12:32Z</time>
      </trkpt>
      <trkpt lat="47.90237" lon="-2.4696">
        <ele>21.766967773438</ele>
        <time>2012-04-15T14:12:49Z</time>
      </trkpt>
      <trkpt lat="47.90283" lon="-2.46987">
        <ele>22.728271484375</ele>
        <time>2012-04-15T14:13:02Z</time>
      </trkpt>
      <trkpt lat="47.90343" lon="-2.47006">
        <ele>22.728271484375</ele>
        <time>2012-04-15T14:13:18Z</time>
      </trkpt>
      <trkpt lat="47.90403" lon="-2.47057">
        <ele>23.208984375</ele>
        <time>2012-04-15T14:13:37Z</time>
      </trkpt>
      <trkpt lat="47.90447" lon="-2.47099">
        <ele>22.728271484375</ele>
        <time>2012-04-15T14:13:56Z</time>
      </trkpt>
      <trkpt lat="47.90447" lon="-2.47099">
        <ele>23.208984375</ele>
        <time>2012-04-15T14:19:34Z</time>
      </trkpt>
      <trkpt lat="47.90449" lon="-2.47104">
        <ele>23.208984375</ele>
        <time>2012-04-15T14:19:37Z</time>
      </trkpt>
      <trkpt lat="47.90475" lon="-2.47127">
        <ele>23.208984375</ele>
        <time>2012-04-15T14:19:53Z</time>
      </trkpt>
      <trkpt lat="47.90508" lon="-2.47172">
        <ele>22.728271484375</ele>
        <time>2012-04-15T14:20:10Z</time>
      </trkpt>
      <trkpt lat="47.90523" lon="-2.47224">
        <ele>21.766967773438</ele>
        <time>2012-04-15T14:20:25Z</time>
      </trkpt>
      <trkpt lat="47.90553" lon="-2.47318">
        <ele>20.8056640625</ele>
        <time>2012-04-15T14:20:45Z</time>
      </trkpt>
      <trkpt lat="47.90615" lon="-2.47386">
        <ele>20.324951171875</ele>
        <time>2012-04-15T14:21:05Z</time>
      </trkpt>
      <trkpt lat="47.90698" lon="-2.47472">
        <ele>21.766967773438</ele>
        <time>2012-04-15T14:21:33Z</time>
      </trkpt>
      <trkpt lat="47.90773" lon="-2.47552">
        <ele>21.766967773438</ele>
        <time>2012-04-15T14:21:57Z</time>
      </trkpt>
      <trkpt lat="47.90782" lon="-2.47615">
        <ele>20.324951171875</ele>
        <time>2012-04-15T14:22:07Z</time>
      </trkpt>
      <trkpt lat="47.90771" lon="-2.47706">
        <ele>19.36376953125</ele>
        <time>2012-04-15T14:22:22Z</time>
      </trkpt>
      <trkpt lat="47.90783" lon="-2.4776">
        <ele>19.36376953125</ele>
        <time>2012-04-15T14:22:31Z</time>
      </trkpt>
      <trkpt lat="47.90794" lon="-2.47778">
        <ele>19.36376953125</ele>
        <time>2012-04-15T14:22:35Z</time>
      </trkpt>
      <trkpt lat="47.90867" lon="-2.47892">
        <ele>19.844360351562</ele>
        <time>2012-04-15T14:23:01Z</time>
      </trkpt>
      <trkpt lat="47.90897" lon="-2.47939">
        <ele>20.324951171875</ele>
        <time>2012-04-15T14:23:12Z</time>
      </trkpt>
      <trkpt lat="47.90948" lon="-2.48075">
        <ele>18.883056640625</ele>
        <time>2012-04-15T14:23:37Z</time>
      </trkpt>
      <trkpt lat="47.90992" lon="-2.48144">
        <ele>18.883056640625</ele>
        <time>2012-04-15T14:23:55Z</time>
      </trkpt>
      <trkpt lat="47.91066" lon="-2.48149">
        <ele>19.844360351562</ele>
        <time>2012-04-15T14:24:15Z</time>
      </trkpt>
      <trkpt lat="47.91159" lon="-2.48147">
        <ele>22.24755859375</ele>
        <time>2012-04-15T14:24:41Z</time>
      </trkpt>
      <trkpt lat="47.91216" lon="-2.48146">
        <ele>22.24755859375</ele>
        <time>2012-04-15T14:24:56Z</time>
      </trkpt>
      <trkpt lat="47.91263" lon="-2.48149">
        <ele>20.8056640625</ele>
        <time>2012-04-15T14:25:08Z</time>
      </trkpt>
      <trkpt lat="47.91332" lon="-2.48179">
        <ele>22.24755859375</ele>
        <time>2012-04-15T14:25:28Z</time>
      </trkpt>
      <trkpt lat="47.91402" lon="-2.48207">
        <ele>22.728271484375</ele>
        <time>2012-04-15T14:25:48Z</time>
      </trkpt>
      <trkpt lat="47.91493" lon="-2.48253">
        <ele>23.208984375</ele>
        <time>2012-04-15T14:26:14Z</time>
      </trkpt>
      <trkpt lat="47.91561" lon="-2.48217">
        <ele>23.689575195312</ele>
        <time>2012-04-15T14:26:29Z</time>
      </trkpt>
      <trkpt lat="47.91662" lon="-2.4829">
        <ele>22.24755859375</ele>
        <time>2012-04-15T14:26:55Z</time>
      </trkpt>
      <trkpt lat="47.91749" lon="-2.48362">
        <ele>21.766967773438</ele>
        <time>2012-04-15T14:27:20Z</time>
      </trkpt>
      <trkpt lat="47.91788" lon="-2.4855">
        <ele>22.24755859375</ele>
        <time>2012-04-15T14:27:45Z</time>
      </trkpt>
      <trkpt lat="47.9186" lon="-2.48634">
        <ele>22.24755859375</ele>
        <time>2012-04-15T14:28:08Z</time>
      </trkpt>
      <trkpt lat="47.91945" lon="-2.48731">
        <ele>23.689575195312</ele>
        <time>2012-04-15T14:28:37Z</time>
      </trkpt>
      <trkpt lat="47.9201" lon="-2.48815">
        <ele>23.208984375</ele>
        <time>2012-04-15T14:29:01Z</time>
      </trkpt>
      <trkpt lat="47.92046" lon="-2.48908">
        <ele>23.208984375</ele>
        <time>2012-04-15T14:29:21Z</time>
      </trkpt>
      <trkpt lat="47.92088" lon="-2.4903">
        <ele>22.728271484375</ele>
        <time>2012-04-15T14:29:47Z</time>
      </trkpt>
      <trkpt lat="47.92133" lon="-2.49097">
        <ele>22.728271484375</ele>
        <time>2012-04-15T14:30:04Z</time>
      </trkpt>
      <trkpt lat="47.92217" lon="-2.49179">
        <ele>22.728271484375</ele>
        <time>2012-04-15T14:30:32Z</time>
      </trkpt>
      <trkpt lat="47.92277" lon="-2.49266">
        <ele>21.286376953125</ele>
        <time>2012-04-15T14:30:54Z</time>
      </trkpt>
      <trkpt lat="47.92361" lon="-2.49357">
        <ele>22.24755859375</ele>
        <time>2012-04-15T14:31:18Z</time>
      </trkpt>
      <trkpt lat="47.92392" lon="-2.49473">
        <ele>21.766967773438</ele>
        <time>2012-04-15T14:31:40Z</time>
      </trkpt>
      <trkpt lat="47.924" lon="-2.49516">
        <ele>22.24755859375</ele>
        <time>2012-04-15T14:31:55Z</time>
      </trkpt>
      <trkpt lat="47.924" lon="-2.49516">
        <ele>23.208984375</ele>
        <time>2012-04-15T14:33:40Z</time>
      </trkpt>
      <trkpt lat="47.92405" lon="-2.49539">
        <ele>23.689575195312</ele>
        <time>2012-04-15T14:34:41Z</time>
      </trkpt>
      <trkpt lat="47.92412" lon="-2.49628">
        <ele>22.728271484375</ele>
        <time>2012-04-15T14:35:00Z</time>
      </trkpt>
      <trkpt lat="47.92412" lon="-2.49721">
        <ele>21.766967773438</ele>
        <time>2012-04-15T14:35:21Z</time>
      </trkpt>
      <trkpt lat="47.92412" lon="-2.49727">
        <ele>21.766967773438</ele>
        <time>2012-04-15T14:35:35Z</time>
      </trkpt>
      <trkpt lat="47.92412" lon="-2.49727">
        <ele>22.24755859375</ele>
        <time>2012-04-15T14:44:37Z</time>
      </trkpt>
      <trkpt lat="47.92414" lon="-2.49768">
        <ele>22.24755859375</ele>
        <time>2012-04-15T14:44:49Z</time>
      </trkpt>
      <trkpt lat="47.9232" lon="-2.4983">
        <ele>21.286376953125</ele>
        <time>2012-04-15T14:45:03Z</time>
      </trkpt>
      <trkpt lat="47.92317" lon="-2.49833">
        <ele>21.286376953125</ele>
        <time>2012-04-15T14:45:04Z</time>
      </trkpt>
      <trkpt lat="47.92274" lon="-2.49934">
        <ele>20.8056640625</ele>
        <time>2012-04-15T14:45:22Z</time>
      </trkpt>
      <trkpt lat="47.92264" lon="-2.50006">
        <ele>20.8056640625</ele>
        <time>2012-04-15T14:45:33Z</time>
      </trkpt>
      <trkpt lat="47.92281" lon="-2.50079">
        <ele>20.8056640625</ele>
        <time>2012-04-15T14:45:45Z</time>
      </trkpt>
      <trkpt lat="47.92341" lon="-2.50133">
        <ele>20.8056640625</ele>
        <time>2012-04-15T14:46:01Z</time>
      </trkpt>
      <trkpt lat="47.92419" lon="-2.50192">
        <ele>20.8056640625</ele>
        <time>2012-04-15T14:46:23Z</time>
      </trkpt>
      <trkpt lat="47.92507" lon="-2.50289">
        <ele>21.286376953125</ele>
        <time>2012-04-15T14:46:49Z</time>
      </trkpt>
      <trkpt lat="47.92588" lon="-2.50306">
        <ele>20.324951171875</ele>
        <time>2012-04-15T14:47:03Z</time>
      </trkpt>
      <trkpt lat="47.92658" lon="-2.5042">
        <ele>19.36376953125</ele>
        <time>2012-04-15T14:47:25Z</time>
      </trkpt>
      <trkpt lat="47.92723" lon="-2.50564">
        <ele>18.40234375</ele>
        <time>2012-04-15T14:47:51Z</time>
      </trkpt>
      <trkpt lat="47.92765" lon="-2.50704">
        <ele>17.921752929688</ele>
        <time>2012-04-15T14:48:14Z</time>
      </trkpt>
      <trkpt lat="47.92756" lon="-2.50852">
        <ele>17.921752929688</ele>
        <time>2012-04-15T14:48:34Z</time>
      </trkpt>
      <trkpt lat="47.92783" lon="-2.50965">
        <ele>17.441162109375</ele>
        <time>2012-04-15T14:48:52Z</time>
      </trkpt>
      <trkpt lat="47.92794" lon="-2.51012">
        <ele>15.518432617188</ele>
        <time>2012-04-15T14:49:00Z</time>
      </trkpt>
      <trkpt lat="47.92802" lon="-2.51036">
        <ele>15.518432617188</ele>
        <time>2012-04-15T14:49:04Z</time>
      </trkpt>
      <trkpt lat="47.92859" lon="-2.51185">
        <ele>18.40234375</ele>
        <time>2012-04-15T14:49:31Z</time>
      </trkpt>
      <trkpt lat="47.92877" lon="-2.51221">
        <ele>18.40234375</ele>
        <time>2012-04-15T14:49:40Z</time>
      </trkpt>
      <trkpt lat="47.92892" lon="-2.51223">
        <ele>19.844360351562</ele>
        <time>2012-04-15T14:49:48Z</time>
      </trkpt>
      <trkpt lat="47.92899" lon="-2.51257">
        <ele>22.24755859375</ele>
        <time>2012-04-15T14:50:04Z</time>
      </trkpt>
      <trkpt lat="47.92899" lon="-2.51257">
        <ele>22.24755859375</ele>
        <time>2012-04-15T14:50:07Z</time>
      </trkpt>
      <trkpt lat="47.9291" lon="-2.51278">
        <ele>20.8056640625</ele>
        <time>2012-04-15T14:50:24Z</time>
      </trkpt>
      <trkpt lat="47.92911" lon="-2.51284">
        <ele>20.324951171875</ele>
        <time>2012-04-15T14:50:39Z</time>
      </trkpt>
      <trkpt lat="47.92911" lon="-2.51284">
        <ele>19.844360351562</ele>
        <time>2012-04-15T14:50:46Z</time>
      </trkpt>
      <trkpt lat="47.92915" lon="-2.51293">
        <ele>20.324951171875</ele>
        <time>2012-04-15T14:50:51Z</time>
      </trkpt>
      <trkpt lat="47.92955" lon="-2.51363">
        <ele>19.36376953125</ele>
        <time>2012-04-15T14:51:13Z</time>
      </trkpt>
      <trkpt lat="47.92975" lon="-2.51405">
        <ele>18.40234375</ele>
        <time>2012-04-15T14:51:23Z</time>
      </trkpt>
      <trkpt lat="47.93011" lon="-2.51471">
        <ele>18.883056640625</ele>
        <time>2012-04-15T14:51:41Z</time>
      </trkpt>
      <trkpt lat="47.93032" lon="-2.51506">
        <ele>14.557006835938</ele>
        <time>2012-04-15T14:51:50Z</time>
      </trkpt>
      <trkpt lat="47.93048" lon="-2.51542">
        <ele>13.595825195312</ele>
        <time>2012-04-15T14:51:58Z</time>
      </trkpt>
      <trkpt lat="47.93078" lon="-2.51616">
        <ele>18.883056640625</ele>
        <time>2012-04-15T14:52:11Z</time>
      </trkpt>
      <trkpt lat="47.93099" lon="-2.5173">
        <ele>20.8056640625</ele>
        <time>2012-04-15T14:52:30Z</time>
      </trkpt>
      <trkpt lat="47.9311" lon="-2.51797">
        <ele>21.286376953125</ele>
        <time>2012-04-15T14:52:44Z</time>
      </trkpt>
      <trkpt lat="47.93123" lon="-2.51857">
        <ele>20.8056640625</ele>
        <time>2012-04-15T14:52:56Z</time>
      </trkpt>
      <trkpt lat="47.93123" lon="-2.5198">
        <ele>21.286376953125</ele>
        <time>2012-04-15T14:53:16Z</time>
      </trkpt>
      <trkpt lat="47.93106" lon="-2.52133">
        <ele>22.728271484375</ele>
        <time>2012-04-15T14:53:41Z</time>
      </trkpt>
      <trkpt lat="47.93101" lon="-2.52176">
        <ele>22.728271484375</ele>
        <time>2012-04-15T14:53:48Z</time>
      </trkpt>
      <trkpt lat="47.93108" lon="-2.52318">
        <ele>23.208984375</ele>
        <time>2012-04-15T14:54:11Z</time>
      </trkpt>
      <trkpt lat="47.93116" lon="-2.52474">
        <ele>24.170288085938</ele>
        <time>2012-04-15T14:54:36Z</time>
      </trkpt>
      <trkpt lat="47.93106" lon="-2.52568">
        <ele>24.651000976562</ele>
        <time>2012-04-15T14:54:51Z</time>
      </trkpt>
      <trkpt lat="47.93101" lon="-2.52617">
        <ele>24.651000976562</ele>
        <time>2012-04-15T14:54:58Z</time>
      </trkpt>
      <trkpt lat="47.93102" lon="-2.52715">
        <ele>25.131713867188</ele>
        <time>2012-04-15T14:55:12Z</time>
      </trkpt>
      <trkpt lat="47.93112" lon="-2.52768">
        <ele>24.651000976562</ele>
        <time>2012-04-15T14:55:24Z</time>
      </trkpt>
      <trkpt lat="47.93143" lon="-2.52818">
        <ele>24.651000976562</ele>
        <time>2012-04-15T14:55:37Z</time>
      </trkpt>
      <trkpt lat="47.93188" lon="-2.52849">
        <ele>24.651000976562</ele>
        <time>2012-04-15T14:55:51Z</time>
      </trkpt>
      <trkpt lat="47.93259" lon="-2.52931">
        <ele>25.131713867188</ele>
        <time>2012-04-15T14:56:13Z</time>
      </trkpt>
      <trkpt lat="47.93307" lon="-2.53039">
        <ele>25.131713867188</ele>
        <time>2012-04-15T14:56:34Z</time>
      </trkpt>
      <trkpt lat="47.93359" lon="-2.5316">
        <ele>24.651000976562</ele>
        <time>2012-04-15T14:56:58Z</time>
      </trkpt>
      <trkpt lat="47.9342" lon="-2.53224">
        <ele>23.689575195312</ele>
        <time>2012-04-15T14:57:15Z</time>
      </trkpt>
      <trkpt lat="47.93463" lon="-2.53268">
        <ele>23.689575195312</ele>
        <time>2012-04-15T14:57:27Z</time>
      </trkpt>
      <trkpt lat="47.93501" lon="-2.53366">
        <ele>25.6123046875</ele>
        <time>2012-04-15T14:57:45Z</time>
      </trkpt>
      <trkpt lat="47.93525" lon="-2.53482">
        <ele>28.015502929688</ele>
        <time>2012-04-15T14:58:04Z</time>
      </trkpt>
      <trkpt lat="47.93538" lon="-2.53506">
        <ele>27.534912109375</ele>
        <time>2012-04-15T14:58:09Z</time>
      </trkpt>
      <trkpt lat="47.93563" lon="-2.53528">
        <ele>28.015502929688</ele>
        <time>2012-04-15T14:58:20Z</time>
      </trkpt>
      <trkpt lat="47.93567" lon="-2.53536">
        <ele>28.015502929688</ele>
        <time>2012-04-15T14:58:25Z</time>
      </trkpt>
      <trkpt lat="47.93592" lon="-2.53563">
        <ele>27.054321289062</ele>
        <time>2012-04-15T14:58:37Z</time>
      </trkpt>
      <trkpt lat="47.93615" lon="-2.53582">
        <ele>27.054321289062</ele>
        <time>2012-04-15T14:58:51Z</time>
      </trkpt>
      <trkpt lat="47.93621" lon="-2.53588">
        <ele>26.573608398438</ele>
        <time>2012-04-15T14:58:57Z</time>
      </trkpt>
      <trkpt lat="47.93624" lon="-2.53596">
        <ele>26.573608398438</ele>
        <time>2012-04-15T14:59:00Z</time>
      </trkpt>
      <trkpt lat="47.93676" lon="-2.5365">
        <ele>27.054321289062</ele>
        <time>2012-04-15T14:59:19Z</time>
      </trkpt>
      <trkpt lat="47.93715" lon="-2.53688">
        <ele>27.534912109375</ele>
        <time>2012-04-15T14:59:33Z</time>
      </trkpt>
      <trkpt lat="47.93802" lon="-2.53778">
        <ele>28.015502929688</ele>
        <time>2012-04-15T14:59:59Z</time>
      </trkpt>
      <trkpt lat="47.9388" lon="-2.53831">
        <ele>28.496215820312</ele>
        <time>2012-04-15T15:00:20Z</time>
      </trkpt>
      <trkpt lat="47.93973" lon="-2.5384">
        <ele>27.534912109375</ele>
        <time>2012-04-15T15:00:42Z</time>
      </trkpt>
      <trkpt lat="47.94068" lon="-2.5388">
        <ele>27.534912109375</ele>
        <time>2012-04-15T15:01:06Z</time>
      </trkpt>
      <trkpt lat="47.9416" lon="-2.53928">
        <ele>27.054321289062</ele>
        <time>2012-04-15T15:01:30Z</time>
      </trkpt>
      <trkpt lat="47.94265" lon="-2.53971">
        <ele>26.092895507812</ele>
        <time>2012-04-15T15:01:56Z</time>
      </trkpt>
      <trkpt lat="47.94369" lon="-2.54001">
        <ele>26.092895507812</ele>
        <time>2012-04-15T15:02:22Z</time>
      </trkpt>
      <trkpt lat="47.94444" lon="-2.54036">
        <ele>26.573608398438</ele>
        <time>2012-04-15T15:02:42Z</time>
      </trkpt>
      <trkpt lat="47.94553" lon="-2.54113">
        <ele>26.573608398438</ele>
        <time>2012-04-15T15:03:12Z</time>
      </trkpt>
      <trkpt lat="47.94634" lon="-2.54178">
        <ele>26.092895507812</ele>
        <time>2012-04-15T15:03:38Z</time>
      </trkpt>
      <trkpt lat="47.94719" lon="-2.54245">
        <ele>26.092895507812</ele>
        <time>2012-04-15T15:04:04Z</time>
      </trkpt>
      <trkpt lat="47.94813" lon="-2.54308">
        <ele>26.092895507812</ele>
        <time>2012-04-15T15:04:32Z</time>
      </trkpt>
      <trkpt lat="47.94831" lon="-2.5432">
        <ele>27.054321289062</ele>
        <time>2012-04-15T15:04:45Z</time>
      </trkpt>
      <trkpt lat="47.94845" lon="-2.5433">
        <ele>26.092895507812</ele>
        <time>2012-04-15T15:06:06Z</time>
      </trkpt>
      <trkpt lat="47.94857" lon="-2.54338">
        <ele>26.092895507812</ele>
        <time>2012-04-15T15:06:19Z</time>
      </trkpt>
      <trkpt lat="47.94901" lon="-2.54366">
        <ele>26.092895507812</ele>
        <time>2012-04-15T15:06:37Z</time>
      </trkpt>
      <trkpt lat="47.9492" lon="-2.54384">
        <ele>26.573608398438</ele>
        <time>2012-04-15T15:08:18Z</time>
      </trkpt>
      <trkpt lat="47.94975" lon="-2.54441">
        <ele>27.534912109375</ele>
        <time>2012-04-15T15:08:40Z</time>
      </trkpt>
      <trkpt lat="47.95028" lon="-2.54501">
        <ele>28.496215820312</ele>
        <time>2012-04-15T15:09:01Z</time>
      </trkpt>
      <trkpt lat="47.95084" lon="-2.54565">
        <ele>28.496215820312</ele>
        <time>2012-04-15T15:09:20Z</time>
      </trkpt>
      <trkpt lat="47.95121" lon="-2.54616">
        <ele>29.45751953125</ele>
        <time>2012-04-15T15:09:37Z</time>
      </trkpt>
      <trkpt lat="47.95164" lon="-2.54685">
        <ele>29.938110351562</ele>
        <time>2012-04-15T15:09:54Z</time>
      </trkpt>
      <trkpt lat="47.95188" lon="-2.5472">
        <ele>30.418823242188</ele>
        <time>2012-04-15T15:10:07Z</time>
      </trkpt>
      <trkpt lat="47.95222" lon="-2.54773">
        <ele>31.380126953125</ele>
        <time>2012-04-15T15:10:23Z</time>
      </trkpt>
      <trkpt lat="47.95256" lon="-2.54841">
        <ele>31.380126953125</ele>
        <time>2012-04-15T15:10:43Z</time>
      </trkpt>
      <trkpt lat="47.95263" lon="-2.5486">
        <ele>32.822265625</ele>
        <time>2012-04-15T15:10:56Z</time>
      </trkpt>
      <trkpt lat="47.95266" lon="-2.54868">
        <ele>33.302856445312</ele>
        <time>2012-04-15T15:11:14Z</time>
      </trkpt>
      <trkpt lat="47.95262" lon="-2.5487">
        <ele>33.302856445312</ele>
        <time>2012-04-15T15:11:28Z</time>
      </trkpt>
      <trkpt lat="47.95266" lon="-2.5487">
        <ele>33.783447265625</ele>
        <time>2012-04-15T15:12:23Z</time>
      </trkpt>
      <trkpt lat="47.95264" lon="-2.5487">
        <ele>33.783447265625</ele>
        <time>2012-04-15T15:14:25Z</time>
      </trkpt>
      <trkpt lat="47.95264" lon="-2.54868">
        <ele>33.783447265625</ele>
        <time>2012-04-15T15:14:27Z</time>
      </trkpt>
      <trkpt lat="47.95268" lon="-2.54875">
        <ele>33.783447265625</ele>
        <time>2012-04-15T15:14:33Z</time>
      </trkpt>
      <trkpt lat="47.9524" lon="-2.5496">
        <ele>31.380126953125</ele>
        <time>2012-04-15T15:14:50Z</time>
      </trkpt>
      <trkpt lat="47.9532" lon="-2.55155">
        <ele>30.418823242188</ele>
        <time>2012-04-15T15:15:23Z</time>
      </trkpt>
      <trkpt lat="47.9528" lon="-2.55245">
        <ele>30.418823242188</ele>
        <time>2012-04-15T15:15:42Z</time>
      </trkpt>
      <trkpt lat="47.95264" lon="-2.5531">
        <ele>29.45751953125</ele>
        <time>2012-04-15T15:16:00Z</time>
      </trkpt>
      <trkpt lat="47.95251" lon="-2.55383">
        <ele>30.418823242188</ele>
        <time>2012-04-15T15:16:15Z</time>
      </trkpt>
      <trkpt lat="47.95239" lon="-2.55458">
        <ele>30.899536132812</ele>
        <time>2012-04-15T15:16:29Z</time>
      </trkpt>
      <trkpt lat="47.95236" lon="-2.55469">
        <ele>30.899536132812</ele>
        <time>2012-04-15T15:16:31Z</time>
      </trkpt>
      <trkpt lat="47.95226" lon="-2.55506">
        <ele>31.860717773438</ele>
        <time>2012-04-15T15:16:38Z</time>
      </trkpt>
      <trkpt lat="47.95216" lon="-2.55545">
        <ele>30.899536132812</ele>
        <time>2012-04-15T15:16:44Z</time>
      </trkpt>
      <trkpt lat="47.95215" lon="-2.55548">
        <ele>31.860717773438</ele>
        <time>2012-04-15T15:16:55Z</time>
      </trkpt>
      <trkpt lat="47.95177" lon="-2.55661">
        <ele>31.860717773438</ele>
        <time>2012-04-15T15:17:06Z</time>
      </trkpt>
      <trkpt lat="47.95176" lon="-2.55679">
        <ele>32.341552734375</ele>
        <time>2012-04-15T15:17:09Z</time>
      </trkpt>
      <trkpt lat="47.95191" lon="-2.55799">
        <ele>31.380126953125</ele>
        <time>2012-04-15T15:17:31Z</time>
      </trkpt>
      <trkpt lat="47.95203" lon="-2.55879">
        <ele>30.899536132812</ele>
        <time>2012-04-15T15:17:45Z</time>
      </trkpt>
      <trkpt lat="47.95214" lon="-2.55955">
        <ele>29.938110351562</ele>
        <time>2012-04-15T15:17:58Z</time>
      </trkpt>
      <trkpt lat="47.95245" lon="-2.56018">
        <ele>30.418823242188</ele>
        <time>2012-04-15T15:18:12Z</time>
      </trkpt>
      <trkpt lat="47.9531" lon="-2.56094">
        <ele>31.380126953125</ele>
        <time>2012-04-15T15:18:35Z</time>
      </trkpt>
      <trkpt lat="47.95326" lon="-2.56125">
        <ele>31.380126953125</ele>
        <time>2012-04-15T15:18:48Z</time>
      </trkpt>
      <trkpt lat="47.95331" lon="-2.56139">
        <ele>31.380126953125</ele>
        <time>2012-04-15T15:19:43Z</time>
      </trkpt>
      <trkpt lat="47.95358" lon="-2.56196">
        <ele>31.380126953125</ele>
        <time>2012-04-15T15:19:58Z</time>
      </trkpt>
      <trkpt lat="47.95364" lon="-2.5621">
        <ele>31.380126953125</ele>
        <time>2012-04-15T15:20:03Z</time>
      </trkpt>
      <trkpt lat="47.95382" lon="-2.56273">
        <ele>31.860717773438</ele>
        <time>2012-04-15T15:20:18Z</time>
      </trkpt>
      <trkpt lat="47.95402" lon="-2.56393">
        <ele>33.302856445312</ele>
        <time>2012-04-15T15:20:41Z</time>
      </trkpt>
      <trkpt lat="47.95421" lon="-2.56488">
        <ele>32.341552734375</ele>
        <time>2012-04-15T15:21:00Z</time>
      </trkpt>
      <trkpt lat="47.95444" lon="-2.56537">
        <ele>32.341552734375</ele>
        <time>2012-04-15T15:21:11Z</time>
      </trkpt>
      <trkpt lat="47.95435" lon="-2.56563">
        <ele>32.341552734375</ele>
        <time>2012-04-15T15:21:19Z</time>
      </trkpt>
      <trkpt lat="47.95397" lon="-2.56555">
        <ele>32.822265625</ele>
        <time>2012-04-15T15:21:30Z</time>
      </trkpt>
      <trkpt lat="47.95296" lon="-2.56588">
        <ele>32.822265625</ele>
        <time>2012-04-15T15:21:55Z</time>
      </trkpt>
      <trkpt lat="47.95233" lon="-2.56624">
        <ele>31.380126953125</ele>
        <time>2012-04-15T15:22:08Z</time>
      </trkpt>
      <trkpt lat="47.9522" lon="-2.56659">
        <ele>30.899536132812</ele>
        <time>2012-04-15T15:22:15Z</time>
      </trkpt>
      <trkpt lat="47.95259" lon="-2.56817">
        <ele>30.418823242188</ele>
        <time>2012-04-15T15:22:39Z</time>
      </trkpt>
      <trkpt lat="47.95286" lon="-2.57016">
        <ele>29.938110351562</ele>
        <time>2012-04-15T15:23:08Z</time>
      </trkpt>
      <trkpt lat="47.95272" lon="-2.57176">
        <ele>30.899536132812</ele>
        <time>2012-04-15T15:23:32Z</time>
      </trkpt>
      <trkpt lat="47.95247" lon="-2.57324">
        <ele>29.45751953125</ele>
        <time>2012-04-15T15:23:55Z</time>
      </trkpt>
      <trkpt lat="47.95246" lon="-2.57328">
        <ele>29.45751953125</ele>
        <time>2012-04-15T15:23:56Z</time>
      </trkpt>
      <trkpt lat="47.95239" lon="-2.57329">
        <ele>29.45751953125</ele>
        <time>2012-04-15T15:24:00Z</time>
      </trkpt>
      <trkpt lat="47.95235" lon="-2.57326">
        <ele>29.938110351562</ele>
        <time>2012-04-15T15:24:16Z</time>
      </trkpt>
      <trkpt lat="47.95234" lon="-2.57326">
        <ele>29.938110351562</ele>
        <time>2012-04-15T15:24:20Z</time>
      </trkpt>
      <trkpt lat="47.95224" lon="-2.57329">
        <ele>29.938110351562</ele>
        <time>2012-04-15T15:24:39Z</time>
      </trkpt>
      <trkpt lat="47.95223" lon="-2.57326">
        <ele>29.938110351562</ele>
        <time>2012-04-15T15:24:43Z</time>
      </trkpt>
      <trkpt lat="47.95214" lon="-2.57329">
        <ele>29.938110351562</ele>
        <time>2012-04-15T15:24:58Z</time>
      </trkpt>
      <trkpt lat="47.95213" lon="-2.57327">
        <ele>31.380126953125</ele>
        <time>2012-04-15T15:25:19Z</time>
      </trkpt>
      <trkpt lat="47.95213" lon="-2.57327">
        <ele>31.380126953125</ele>
        <time>2012-04-15T15:25:51Z</time>
      </trkpt>
    </trkseg>
  </trk>
  <trk>
    <name><![CDATA[ACTIVE LOG 004]]></name>
    <trkseg>
      <trkpt lat="47.95214" lon="-2.57303">
        <ele>24.170288085938</ele>
        <time>2012-04-16T08:19:35Z</time>
      </trkpt>
      <trkpt lat="47.95215" lon="-2.57309">
        <ele>34.744873046875</ele>
        <time>2012-04-16T08:22:09Z</time>
      </trkpt>
      <trkpt lat="47.95217" lon="-2.57316">
        <ele>35.225463867188</ele>
        <time>2012-04-16T08:22:14Z</time>
      </trkpt>
      <trkpt lat="47.95224" lon="-2.57328">
        <ele>36.186767578125</ele>
        <time>2012-04-16T08:22:31Z</time>
      </trkpt>
      <trkpt lat="47.95227" lon="-2.57328">
        <ele>36.66748046875</ele>
        <time>2012-04-16T08:23:45Z</time>
      </trkpt>
      <trkpt lat="47.95236" lon="-2.57331">
        <ele>37.628662109375</ele>
        <time>2012-04-16T08:24:03Z</time>
      </trkpt>
      <trkpt lat="47.95247" lon="-2.5732">
        <ele>38.109375</ele>
        <time>2012-04-16T08:24:15Z</time>
      </trkpt>
      <trkpt lat="47.95266" lon="-2.57235">
        <ele>38.590087890625</ele>
        <time>2012-04-16T08:24:32Z</time>
      </trkpt>
      <trkpt lat="47.95283" lon="-2.57048">
        <ele>37.148071289062</ele>
        <time>2012-04-16T08:25:00Z</time>
      </trkpt>
      <trkpt lat="47.95277" lon="-2.56908">
        <ele>37.148071289062</ele>
        <time>2012-04-16T08:25:20Z</time>
      </trkpt>
      <trkpt lat="47.95246" lon="-2.56764">
        <ele>37.628662109375</ele>
        <time>2012-04-16T08:25:43Z</time>
      </trkpt>
      <trkpt lat="47.95226" lon="-2.56682">
        <ele>37.628662109375</ele>
        <time>2012-04-16T08:25:57Z</time>
      </trkpt>
      <trkpt lat="47.95215" lon="-2.56638">
        <ele>37.148071289062</ele>
        <time>2012-04-16T08:26:09Z</time>
      </trkpt>
      <trkpt lat="47.95289" lon="-2.56591">
        <ele>37.628662109375</ele>
        <time>2012-04-16T08:26:24Z</time>
      </trkpt>
      <trkpt lat="47.95406" lon="-2.56552">
        <ele>37.628662109375</ele>
        <time>2012-04-16T08:26:52Z</time>
      </trkpt>
      <trkpt lat="47.95415" lon="-2.56549">
        <ele>37.148071289062</ele>
        <time>2012-04-16T08:26:54Z</time>
      </trkpt>
      <trkpt lat="47.95416" lon="-2.56548">
        <ele>37.148071289062</ele>
        <time>2012-04-16T08:26:59Z</time>
      </trkpt>
      <trkpt lat="47.95444" lon="-2.56553">
        <ele>36.66748046875</ele>
        <time>2012-04-16T08:27:06Z</time>
      </trkpt>
      <trkpt lat="47.95442" lon="-2.56561">
        <ele>37.148071289062</ele>
        <time>2012-04-16T08:27:09Z</time>
      </trkpt>
      <trkpt lat="47.95436" lon="-2.56562">
        <ele>37.148071289062</ele>
        <time>2012-04-16T08:27:11Z</time>
      </trkpt>
      <trkpt lat="47.95426" lon="-2.56584">
        <ele>36.66748046875</ele>
        <time>2012-04-16T08:27:20Z</time>
      </trkpt>
      <trkpt lat="47.95398" lon="-2.56555">
        <ele>34.744873046875</ele>
        <time>2012-04-16T08:27:29Z</time>
      </trkpt>
      <trkpt lat="47.95382" lon="-2.56592">
        <ele>34.26416015625</ele>
        <time>2012-04-16T08:27:32Z</time>
      </trkpt>
      <trkpt lat="47.95382" lon="-2.56678">
        <ele>34.744873046875</ele>
        <time>2012-04-16T08:27:48Z</time>
      </trkpt>
      <trkpt lat="47.95382" lon="-2.56734">
        <ele>35.7060546875</ele>
        <time>2012-04-16T08:27:57Z</time>
      </trkpt>
      <trkpt lat="47.95382" lon="-2.5691">
        <ele>35.225463867188</ele>
        <time>2012-04-16T08:28:23Z</time>
      </trkpt>
      <trkpt lat="47.9537" lon="-2.57017">
        <ele>37.148071289062</ele>
        <time>2012-04-16T08:28:39Z</time>
      </trkpt>
      <trkpt lat="47.95356" lon="-2.5709">
        <ele>36.66748046875</ele>
        <time>2012-04-16T08:28:50Z</time>
      </trkpt>
      <trkpt lat="47.95352" lon="-2.57109">
        <ele>36.186767578125</ele>
        <time>2012-04-16T08:28:53Z</time>
      </trkpt>
      <trkpt lat="47.95348" lon="-2.57129">
        <ele>36.186767578125</ele>
        <time>2012-04-16T08:28:56Z</time>
      </trkpt>
      <trkpt lat="47.95339" lon="-2.57223">
        <ele>34.744873046875</ele>
        <time>2012-04-16T08:29:10Z</time>
      </trkpt>
      <trkpt lat="47.95339" lon="-2.57251">
        <ele>33.783447265625</ele>
        <time>2012-04-16T08:29:15Z</time>
      </trkpt>
      <trkpt lat="47.95313" lon="-2.57398">
        <ele>34.744873046875</ele>
        <time>2012-04-16T08:29:37Z</time>
      </trkpt>
      <trkpt lat="47.95311" lon="-2.57404">
        <ele>34.744873046875</ele>
        <time>2012-04-16T08:29:38Z</time>
      </trkpt>
      <trkpt lat="47.95306" lon="-2.57432">
        <ele>34.744873046875</ele>
        <time>2012-04-16T08:29:43Z</time>
      </trkpt>
      <trkpt lat="47.95309" lon="-2.57492">
        <ele>35.225463867188</ele>
        <time>2012-04-16T08:29:54Z</time>
      </trkpt>
      <trkpt lat="47.95328" lon="-2.57496">
        <ele>34.26416015625</ele>
        <time>2012-04-16T08:29:58Z</time>
      </trkpt>
      <trkpt lat="47.95335" lon="-2.57492">
        <ele>32.822265625</ele>
        <time>2012-04-16T08:30:04Z</time>
      </trkpt>
      <trkpt lat="47.9533" lon="-2.57509">
        <ele>34.744873046875</ele>
        <time>2012-04-16T08:30:13Z</time>
      </trkpt>
      <trkpt lat="47.95326" lon="-2.57511">
        <ele>37.148071289062</ele>
        <time>2012-04-16T08:30:20Z</time>
      </trkpt>
      <trkpt lat="47.95325" lon="-2.57511">
        <ele>36.66748046875</ele>
        <time>2012-04-16T08:30:25Z</time>
      </trkpt>
      <trkpt lat="47.95322" lon="-2.57513">
        <ele>37.628662109375</ele>
        <time>2012-04-16T08:30:30Z</time>
      </trkpt>
      <trkpt lat="47.95318" lon="-2.57515">
        <ele>38.590087890625</ele>
        <time>2012-04-16T08:30:33Z</time>
      </trkpt>
      <trkpt lat="47.95323" lon="-2.5755">
        <ele>38.590087890625</ele>
        <time>2012-04-16T08:30:39Z</time>
      </trkpt>
      <trkpt lat="47.95343" lon="-2.57629">
        <ele>39.070678710938</ele>
        <time>2012-04-16T08:30:59Z</time>
      </trkpt>
      <trkpt lat="47.95359" lon="-2.57706">
        <ele>40.032104492188</ele>
        <time>2012-04-16T08:31:16Z</time>
      </trkpt>
      <trkpt lat="47.95401" lon="-2.57861">
        <ele>39.070678710938</ele>
        <time>2012-04-16T08:31:44Z</time>
      </trkpt>
      <trkpt lat="47.95445" lon="-2.57941">
        <ele>38.590087890625</ele>
        <time>2012-04-16T08:32:01Z</time>
      </trkpt>
      <trkpt lat="47.95458" lon="-2.57964">
        <ele>38.109375</ele>
        <time>2012-04-16T08:32:06Z</time>
      </trkpt>
      <trkpt lat="47.95504" lon="-2.58043">
        <ele>36.66748046875</ele>
        <time>2012-04-16T08:32:22Z</time>
      </trkpt>
      <trkpt lat="47.95555" lon="-2.5813">
        <ele>35.7060546875</ele>
        <time>2012-04-16T08:32:40Z</time>
      </trkpt>
      <trkpt lat="47.95605" lon="-2.58215">
        <ele>34.26416015625</ele>
        <time>2012-04-16T08:32:58Z</time>
      </trkpt>
      <trkpt lat="47.95649" lon="-2.58292">
        <ele>32.822265625</ele>
        <time>2012-04-16T08:33:14Z</time>
      </trkpt>
      <trkpt lat="47.95687" lon="-2.58357">
        <ele>33.302856445312</ele>
        <time>2012-04-16T08:33:28Z</time>
      </trkpt>
      <trkpt lat="47.95724" lon="-2.58421">
        <ele>36.186767578125</ele>
        <time>2012-04-16T08:33:41Z</time>
      </trkpt>
      <trkpt lat="47.95751" lon="-2.58471">
        <ele>38.590087890625</ele>
        <time>2012-04-16T08:33:51Z</time>
      </trkpt>
      <trkpt lat="47.95778" lon="-2.58527">
        <ele>39.070678710938</ele>
        <time>2012-04-16T08:34:02Z</time>
      </trkpt>
      <trkpt lat="47.95807" lon="-2.58588">
        <ele>42.916015625</ele>
        <time>2012-04-16T08:34:13Z</time>
      </trkpt>
      <trkpt lat="47.95827" lon="-2.58641">
        <ele>43.877319335938</ele>
        <time>2012-04-16T08:34:23Z</time>
      </trkpt>
      <trkpt lat="47.95854" lon="-2.58718">
        <ele>41.954711914062</ele>
        <time>2012-04-16T08:34:36Z</time>
      </trkpt>
      <trkpt lat="47.95865" lon="-2.58747">
        <ele>40.993408203125</ele>
        <time>2012-04-16T08:34:41Z</time>
      </trkpt>
      <trkpt lat="47.95885" lon="-2.58807">
        <ele>40.512817382812</ele>
        <time>2012-04-16T08:34:51Z</time>
      </trkpt>
      <trkpt lat="47.95899" lon="-2.58879">
        <ele>39.55126953125</ele>
        <time>2012-04-16T08:35:03Z</time>
      </trkpt>
      <trkpt lat="47.95918" lon="-2.58927">
        <ele>39.070678710938</ele>
        <time>2012-04-16T08:35:11Z</time>
      </trkpt>
      <trkpt lat="47.95925" lon="-2.58943">
        <ele>37.148071289062</ele>
        <time>2012-04-16T08:35:14Z</time>
      </trkpt>
      <trkpt lat="47.95992" lon="-2.59056">
        <ele>40.512817382812</ele>
        <time>2012-04-16T08:35:39Z</time>
      </trkpt>
      <trkpt lat="47.95998" lon="-2.59066">
        <ele>40.512817382812</ele>
        <time>2012-04-16T08:35:41Z</time>
      </trkpt>
      <trkpt lat="47.96006" lon="-2.59095">
        <ele>40.512817382812</ele>
        <time>2012-04-16T08:35:46Z</time>
      </trkpt>
      <trkpt lat="47.96009" lon="-2.59123">
        <ele>40.512817382812</ele>
        <time>2012-04-16T08:35:50Z</time>
      </trkpt>
      <trkpt lat="47.96013" lon="-2.59166">
        <ele>41.954711914062</ele>
        <time>2012-04-16T08:35:56Z</time>
      </trkpt>
      <trkpt lat="47.96016" lon="-2.5925">
        <ele>39.55126953125</ele>
        <time>2012-04-16T08:36:08Z</time>
      </trkpt>
      <trkpt lat="47.96004" lon="-2.59374">
        <ele>38.109375</ele>
        <time>2012-04-16T08:36:30Z</time>
      </trkpt>
      <trkpt lat="47.96004" lon="-2.59454">
        <ele>38.590087890625</ele>
        <time>2012-04-16T08:36:42Z</time>
      </trkpt>
      <trkpt lat="47.96022" lon="-2.59533">
        <ele>38.590087890625</ele>
        <time>2012-04-16T08:36:55Z</time>
      </trkpt>
      <trkpt lat="47.96044" lon="-2.59654">
        <ele>38.109375</ele>
        <time>2012-04-16T08:37:15Z</time>
      </trkpt>
      <trkpt lat="47.96049" lon="-2.59768">
        <ele>38.109375</ele>
        <time>2012-04-16T08:37:32Z</time>
      </trkpt>
      <trkpt lat="47.96051" lon="-2.5983">
        <ele>37.628662109375</ele>
        <time>2012-04-16T08:37:41Z</time>
      </trkpt>
      <trkpt lat="47.96055" lon="-2.59931">
        <ele>37.148071289062</ele>
        <time>2012-04-16T08:37:57Z</time>
      </trkpt>
      <trkpt lat="47.96056" lon="-2.59949">
        <ele>38.109375</ele>
        <time>2012-04-16T08:38:00Z</time>
      </trkpt>
      <trkpt lat="47.96062" lon="-2.59977">
        <ele>37.628662109375</ele>
        <time>2012-04-16T08:38:05Z</time>
      </trkpt>
      <trkpt lat="47.96068" lon="-2.60004">
        <ele>38.109375</ele>
        <time>2012-04-16T08:38:09Z</time>
      </trkpt>
      <trkpt lat="47.96079" lon="-2.60055">
        <ele>39.070678710938</ele>
        <time>2012-04-16T08:38:17Z</time>
      </trkpt>
      <trkpt lat="47.96116" lon="-2.60222">
        <ele>40.032104492188</ele>
        <time>2012-04-16T08:38:44Z</time>
      </trkpt>
      <trkpt lat="47.96146" lon="-2.60378">
        <ele>39.55126953125</ele>
        <time>2012-04-16T08:39:08Z</time>
      </trkpt>
      <trkpt lat="47.96157" lon="-2.60507">
        <ele>40.512817382812</ele>
        <time>2012-04-16T08:39:28Z</time>
      </trkpt>
      <trkpt lat="47.96151" lon="-2.60531">
        <ele>40.032104492188</ele>
        <time>2012-04-16T08:39:32Z</time>
      </trkpt>
      <trkpt lat="47.9614" lon="-2.60561">
        <ele>40.032104492188</ele>
        <time>2012-04-16T08:39:37Z</time>
      </trkpt>
      <trkpt lat="47.96081" lon="-2.60652">
        <ele>39.55126953125</ele>
        <time>2012-04-16T08:39:55Z</time>
      </trkpt>
      <trkpt lat="47.95998" lon="-2.6072">
        <ele>38.590087890625</ele>
        <time>2012-04-16T08:40:16Z</time>
      </trkpt>
      <trkpt lat="47.95889" lon="-2.60786">
        <ele>38.109375</ele>
        <time>2012-04-16T08:40:42Z</time>
      </trkpt>
      <trkpt lat="47.95844" lon="-2.60874">
        <ele>38.109375</ele>
        <time>2012-04-16T08:41:01Z</time>
      </trkpt>
      <trkpt lat="47.9582" lon="-2.61014">
        <ele>38.109375</ele>
        <time>2012-04-16T08:41:24Z</time>
      </trkpt>
      <trkpt lat="47.95802" lon="-2.61195">
        <ele>38.109375</ele>
        <time>2012-04-16T08:41:52Z</time>
      </trkpt>
      <trkpt lat="47.958" lon="-2.61321">
        <ele>38.109375</ele>
        <time>2012-04-16T08:42:14Z</time>
      </trkpt>
      <trkpt lat="47.95796" lon="-2.61481">
        <ele>37.148071289062</ele>
        <time>2012-04-16T08:42:39Z</time>
      </trkpt>
      <trkpt lat="47.95793" lon="-2.6153">
        <ele>37.148071289062</ele>
        <time>2012-04-16T08:42:46Z</time>
      </trkpt>
      <trkpt lat="47.95787" lon="-2.61677">
        <ele>36.186767578125</ele>
        <time>2012-04-16T08:43:08Z</time>
      </trkpt>
      <trkpt lat="47.95796" lon="-2.61809">
        <ele>36.66748046875</ele>
        <time>2012-04-16T08:43:28Z</time>
      </trkpt>
      <trkpt lat="47.95849" lon="-2.61986">
        <ele>38.109375</ele>
        <time>2012-04-16T08:43:56Z</time>
      </trkpt>
      <trkpt lat="47.95891" lon="-2.62153">
        <ele>38.590087890625</ele>
        <time>2012-04-16T08:44:23Z</time>
      </trkpt>
      <trkpt lat="47.95895" lon="-2.62165">
        <ele>39.070678710938</ele>
        <time>2012-04-16T08:44:25Z</time>
      </trkpt>
      <trkpt lat="47.95973" lon="-2.62255">
        <ele>40.032104492188</ele>
        <time>2012-04-16T08:44:48Z</time>
      </trkpt>
      <trkpt lat="47.95991" lon="-2.62263">
        <ele>40.032104492188</ele>
        <time>2012-04-16T08:44:52Z</time>
      </trkpt>
      <trkpt lat="47.96028" lon="-2.62275">
        <ele>41.473999023438</ele>
        <time>2012-04-16T08:45:01Z</time>
      </trkpt>
      <trkpt lat="47.96111" lon="-2.62257">
        <ele>40.032104492188</ele>
        <time>2012-04-16T08:45:21Z</time>
      </trkpt>
      <trkpt lat="47.96186" lon="-2.62186">
        <ele>38.590087890625</ele>
        <time>2012-04-16T08:45:42Z</time>
      </trkpt>
      <trkpt lat="47.96283" lon="-2.62081">
        <ele>38.109375</ele>
        <time>2012-04-16T08:46:10Z</time>
      </trkpt>
      <trkpt lat="47.96379" lon="-2.62019">
        <ele>39.55126953125</ele>
        <time>2012-04-16T08:46:36Z</time>
      </trkpt>
      <trkpt lat="47.96499" lon="-2.61956">
        <ele>38.590087890625</ele>
        <time>2012-04-16T08:47:06Z</time>
      </trkpt>
      <trkpt lat="47.96533" lon="-2.61945">
        <ele>38.109375</ele>
        <time>2012-04-16T08:47:14Z</time>
      </trkpt>
      <trkpt lat="47.9655" lon="-2.61939">
        <ele>36.66748046875</ele>
        <time>2012-04-16T08:47:18Z</time>
      </trkpt>
      <trkpt lat="47.96554" lon="-2.61938">
        <ele>35.7060546875</ele>
        <time>2012-04-16T08:47:20Z</time>
      </trkpt>
      <trkpt lat="47.96554" lon="-2.61938">
        <ele>37.148071289062</ele>
        <time>2012-04-16T08:47:30Z</time>
      </trkpt>
      <trkpt lat="47.96561" lon="-2.61961">
        <ele>38.590087890625</ele>
        <time>2012-04-16T08:47:36Z</time>
      </trkpt>
      <trkpt lat="47.96571" lon="-2.61994">
        <ele>39.070678710938</ele>
        <time>2012-04-16T08:47:51Z</time>
      </trkpt>
      <trkpt lat="47.96618" lon="-2.6207">
        <ele>37.628662109375</ele>
        <time>2012-04-16T08:47:57Z</time>
      </trkpt>
      <trkpt lat="47.96628" lon="-2.62073">
        <ele>37.628662109375</ele>
        <time>2012-04-16T08:47:59Z</time>
      </trkpt>
      <trkpt lat="47.96678" lon="-2.62088">
        <ele>37.628662109375</ele>
        <time>2012-04-16T08:48:10Z</time>
      </trkpt>
      <trkpt lat="47.96769" lon="-2.6212">
        <ele>38.590087890625</ele>
        <time>2012-04-16T08:48:33Z</time>
      </trkpt>
      <trkpt lat="47.96797" lon="-2.62136">
        <ele>39.070678710938</ele>
        <time>2012-04-16T08:48:40Z</time>
      </trkpt>
      <trkpt lat="47.96818" lon="-2.62158">
        <ele>39.070678710938</ele>
        <time>2012-04-16T08:48:47Z</time>
      </trkpt>
      <trkpt lat="47.96898" lon="-2.62244">
        <ele>40.512817382812</ele>
        <time>2012-04-16T08:49:11Z</time>
      </trkpt>
      <trkpt lat="47.9696" lon="-2.62284">
        <ele>41.473999023438</ele>
        <time>2012-04-16T08:49:27Z</time>
      </trkpt>
      <trkpt lat="47.97005" lon="-2.62305">
        <ele>42.916015625</ele>
        <time>2012-04-16T08:49:39Z</time>
      </trkpt>
      <trkpt lat="47.9707" lon="-2.62334">
        <ele>41.954711914062</ele>
        <time>2012-04-16T08:49:55Z</time>
      </trkpt>
      <trkpt lat="47.97171" lon="-2.62384">
        <ele>43.396606445312</ele>
        <time>2012-04-16T08:50:20Z</time>
      </trkpt>
      <trkpt lat="47.97236" lon="-2.62399">
        <ele>43.396606445312</ele>
        <time>2012-04-16T08:50:35Z</time>
      </trkpt>
      <trkpt lat="47.97311" lon="-2.62415">
        <ele>42.916015625</ele>
        <time>2012-04-16T08:50:52Z</time>
      </trkpt>
      <trkpt lat="47.97401" lon="-2.62444">
        <ele>42.435424804688</ele>
        <time>2012-04-16T08:51:16Z</time>
      </trkpt>
      <trkpt lat="47.97463" lon="-2.62484">
        <ele>40.512817382812</ele>
        <time>2012-04-16T08:51:33Z</time>
      </trkpt>
      <trkpt lat="47.97507" lon="-2.62563">
        <ele>40.993408203125</ele>
        <time>2012-04-16T08:51:52Z</time>
      </trkpt>
      <trkpt lat="47.97579" lon="-2.62702">
        <ele>43.396606445312</ele>
        <time>2012-04-16T08:52:22Z</time>
      </trkpt>
      <trkpt lat="47.97596" lon="-2.62734">
        <ele>43.877319335938</ele>
        <time>2012-04-16T08:52:34Z</time>
      </trkpt>
      <trkpt lat="47.97629" lon="-2.62795">
        <ele>43.877319335938</ele>
        <time>2012-04-16T08:52:49Z</time>
      </trkpt>
      <trkpt lat="47.97665" lon="-2.62859">
        <ele>43.396606445312</ele>
        <time>2012-04-16T08:53:04Z</time>
      </trkpt>
      <trkpt lat="47.97699" lon="-2.62922">
        <ele>42.916015625</ele>
        <time>2012-04-16T08:53:17Z</time>
      </trkpt>
      <trkpt lat="47.97772" lon="-2.63055">
        <ele>44.838623046875</ele>
        <time>2012-04-16T08:53:43Z</time>
      </trkpt>
      <trkpt lat="47.97844" lon="-2.63187">
        <ele>46.76123046875</ele>
        <time>2012-04-16T08:54:09Z</time>
      </trkpt>
      <trkpt lat="47.97932" lon="-2.63346">
        <ele>48.203369140625</ele>
        <time>2012-04-16T08:54:39Z</time>
      </trkpt>
      <trkpt lat="47.98009" lon="-2.63489">
        <ele>47.722534179688</ele>
        <time>2012-04-16T08:55:08Z</time>
      </trkpt>
      <trkpt lat="47.98014" lon="-2.63498">
        <ele>48.203369140625</ele>
        <time>2012-04-16T08:55:10Z</time>
      </trkpt>
      <trkpt lat="47.98101" lon="-2.6366">
        <ele>46.76123046875</ele>
        <time>2012-04-16T08:55:41Z</time>
      </trkpt>
      <trkpt lat="47.98146" lon="-2.63743">
        <ele>48.203369140625</ele>
        <time>2012-04-16T08:55:57Z</time>
      </trkpt>
      <trkpt lat="47.98214" lon="-2.63868">
        <ele>48.683959960938</ele>
        <time>2012-04-16T08:56:22Z</time>
      </trkpt>
      <trkpt lat="47.98247" lon="-2.63929">
        <ele>48.203369140625</ele>
        <time>2012-04-16T08:56:34Z</time>
      </trkpt>
      <trkpt lat="47.98321" lon="-2.64066">
        <ele>45.799926757812</ele>
        <time>2012-04-16T08:57:03Z</time>
      </trkpt>
      <trkpt lat="47.98345" lon="-2.64114">
        <ele>43.877319335938</ele>
        <time>2012-04-16T08:57:16Z</time>
      </trkpt>
      <trkpt lat="47.98373" lon="-2.64185">
        <ele>41.954711914062</ele>
        <time>2012-04-16T08:57:28Z</time>
      </trkpt>
      <trkpt lat="47.98373" lon="-2.64212">
        <ele>41.473999023438</ele>
        <time>2012-04-16T08:57:33Z</time>
      </trkpt>
      <trkpt lat="47.98373" lon="-2.64239">
        <ele>41.954711914062</ele>
        <time>2012-04-16T08:57:38Z</time>
      </trkpt>
      <trkpt lat="47.98353" lon="-2.6437">
        <ele>40.993408203125</ele>
        <time>2012-04-16T08:58:03Z</time>
      </trkpt>
      <trkpt lat="47.98339" lon="-2.64522">
        <ele>40.032104492188</ele>
        <time>2012-04-16T08:58:27Z</time>
      </trkpt>
      <trkpt lat="47.98339" lon="-2.64561">
        <ele>40.512817382812</ele>
        <time>2012-04-16T08:58:33Z</time>
      </trkpt>
      <trkpt lat="47.98339" lon="-2.64587">
        <ele>39.070678710938</ele>
        <time>2012-04-16T08:58:37Z</time>
      </trkpt>
      <trkpt lat="47.98367" lon="-2.64718">
        <ele>44.358032226562</ele>
        <time>2012-04-16T08:58:55Z</time>
      </trkpt>
      <trkpt lat="47.98414" lon="-2.64847">
        <ele>42.916015625</ele>
        <time>2012-04-16T08:59:15Z</time>
      </trkpt>
      <trkpt lat="47.9846" lon="-2.64936">
        <ele>42.916015625</ele>
        <time>2012-04-16T08:59:32Z</time>
      </trkpt>
      <trkpt lat="47.98524" lon="-2.65024">
        <ele>43.877319335938</ele>
        <time>2012-04-16T08:59:50Z</time>
      </trkpt>
      <trkpt lat="47.98596" lon="-2.6509">
        <ele>44.358032226562</ele>
        <time>2012-04-16T09:00:07Z</time>
      </trkpt>
      <trkpt lat="47.98653" lon="-2.65127">
        <ele>45.799926757812</ele>
        <time>2012-04-16T09:00:19Z</time>
      </trkpt>
      <trkpt lat="47.9869" lon="-2.6513">
        <ele>46.280639648438</ele>
        <time>2012-04-16T09:00:27Z</time>
      </trkpt>
      <trkpt lat="47.98759" lon="-2.65117">
        <ele>45.799926757812</ele>
        <time>2012-04-16T09:00:42Z</time>
      </trkpt>
      <trkpt lat="47.98845" lon="-2.65094">
        <ele>44.358032226562</ele>
        <time>2012-04-16T09:01:01Z</time>
      </trkpt>
      <trkpt lat="47.9886" lon="-2.65099">
        <ele>44.358032226562</ele>
        <time>2012-04-16T09:01:05Z</time>
      </trkpt>
      <trkpt lat="47.98893" lon="-2.65147">
        <ele>42.916015625</ele>
        <time>2012-04-16T09:01:19Z</time>
      </trkpt>
      <trkpt lat="47.98912" lon="-2.65205">
        <ele>42.435424804688</ele>
        <time>2012-04-16T09:01:31Z</time>
      </trkpt>
      <trkpt lat="47.9895" lon="-2.65317">
        <ele>42.435424804688</ele>
        <time>2012-04-16T09:01:52Z</time>
      </trkpt>
      <trkpt lat="47.98979" lon="-2.65363">
        <ele>42.916015625</ele>
        <time>2012-04-16T09:02:02Z</time>
      </trkpt>
      <trkpt lat="47.99009" lon="-2.65406">
        <ele>45.799926757812</ele>
        <time>2012-04-16T09:02:12Z</time>
      </trkpt>
      <trkpt lat="47.99026" lon="-2.65423">
        <ele>47.241821289062</ele>
        <time>2012-04-16T09:02:16Z</time>
      </trkpt>
      <trkpt lat="47.99103" lon="-2.655">
        <ele>46.76123046875</ele>
        <time>2012-04-16T09:02:35Z</time>
      </trkpt>
      <trkpt lat="47.99202" lon="-2.65558">
        <ele>46.280639648438</ele>
        <time>2012-04-16T09:02:57Z</time>
      </trkpt>
      <trkpt lat="47.99283" lon="-2.6559">
        <ele>48.203369140625</ele>
        <time>2012-04-16T09:03:18Z</time>
      </trkpt>
      <trkpt lat="47.99343" lon="-2.65616">
        <ele>46.280639648438</ele>
        <time>2012-04-16T09:03:31Z</time>
      </trkpt>
      <trkpt lat="47.99386" lon="-2.65614">
        <ele>45.799926757812</ele>
        <time>2012-04-16T09:03:41Z</time>
      </trkpt>
      <trkpt lat="47.99448" lon="-2.65604">
        <ele>44.838623046875</ele>
        <time>2012-04-16T09:03:54Z</time>
      </trkpt>
      <trkpt lat="47.99526" lon="-2.65527">
        <ele>44.358032226562</ele>
        <time>2012-04-16T09:04:13Z</time>
      </trkpt>
      <trkpt lat="47.99529" lon="-2.65523">
        <ele>44.838623046875</ele>
        <time>2012-04-16T09:04:14Z</time>
      </trkpt>
      <trkpt lat="47.99582" lon="-2.6548">
        <ele>44.358032226562</ele>
        <time>2012-04-16T09:04:29Z</time>
      </trkpt>
      <trkpt lat="47.9959" lon="-2.65479">
        <ele>44.358032226562</ele>
        <time>2012-04-16T09:04:31Z</time>
      </trkpt>
      <trkpt lat="47.99664" lon="-2.6544">
        <ele>42.435424804688</ele>
        <time>2012-04-16T09:04:49Z</time>
      </trkpt>
      <trkpt lat="47.99715" lon="-2.65413">
        <ele>37.148071289062</ele>
        <time>2012-04-16T09:05:02Z</time>
      </trkpt>
      <trkpt lat="47.99735" lon="-2.65402">
        <ele>36.66748046875</ele>
        <time>2012-04-16T09:05:13Z</time>
      </trkpt>
      <trkpt lat="47.99759" lon="-2.65389">
        <ele>37.148071289062</ele>
        <time>2012-04-16T09:07:59Z</time>
      </trkpt>
      <trkpt lat="47.99804" lon="-2.65374">
        <ele>38.590087890625</ele>
        <time>2012-04-16T09:08:14Z</time>
      </trkpt>
      <trkpt lat="47.99842" lon="-2.65356">
        <ele>40.512817382812</ele>
        <time>2012-04-16T09:08:25Z</time>
      </trkpt>
      <trkpt lat="47.99881" lon="-2.65332">
        <ele>42.916015625</ele>
        <time>2012-04-16T09:08:36Z</time>
      </trkpt>
      <trkpt lat="47.99901" lon="-2.6532">
        <ele>45.319213867188</ele>
        <time>2012-04-16T09:08:44Z</time>
      </trkpt>
      <trkpt lat="47.99912" lon="-2.65315">
        <ele>44.838623046875</ele>
        <time>2012-04-16T09:08:49Z</time>
      </trkpt>
      <trkpt lat="47.99958" lon="-2.65295">
        <ele>43.396606445312</ele>
        <time>2012-04-16T09:09:03Z</time>
      </trkpt>
      <trkpt lat="48.00026" lon="-2.65271">
        <ele>43.396606445312</ele>
        <time>2012-04-16T09:09:21Z</time>
      </trkpt>
      <trkpt lat="48.00126" lon="-2.6523">
        <ele>43.396606445312</ele>
        <time>2012-04-16T09:09:45Z</time>
      </trkpt>
      <trkpt lat="48.00226" lon="-2.65197">
        <ele>41.954711914062</ele>
        <time>2012-04-16T09:10:07Z</time>
      </trkpt>
      <trkpt lat="48.0028" lon="-2.65244">
        <ele>41.954711914062</ele>
        <time>2012-04-16T09:10:24Z</time>
      </trkpt>
      <trkpt lat="48.00295" lon="-2.65278">
        <ele>42.435424804688</ele>
        <time>2012-04-16T09:10:31Z</time>
      </trkpt>
      <trkpt lat="48.00341" lon="-2.65379">
        <ele>42.916015625</ele>
        <time>2012-04-16T09:10:49Z</time>
      </trkpt>
      <trkpt lat="48.0039" lon="-2.65534">
        <ele>41.473999023438</ele>
        <time>2012-04-16T09:11:15Z</time>
      </trkpt>
      <trkpt lat="48.00435" lon="-2.65705">
        <ele>43.877319335938</ele>
        <time>2012-04-16T09:11:43Z</time>
      </trkpt>
      <trkpt lat="48.00482" lon="-2.65868">
        <ele>43.877319335938</ele>
        <time>2012-04-16T09:12:09Z</time>
      </trkpt>
      <trkpt lat="48.00556" lon="-2.65939">
        <ele>44.358032226562</ele>
        <time>2012-04-16T09:12:25Z</time>
      </trkpt>
      <trkpt lat="48.00652" lon="-2.6596">
        <ele>44.838623046875</ele>
        <time>2012-04-16T09:12:43Z</time>
      </trkpt>
      <trkpt lat="48.0072" lon="-2.65967">
        <ele>44.358032226562</ele>
        <time>2012-04-16T09:13:00Z</time>
      </trkpt>
      <trkpt lat="48.00759" lon="-2.65971">
        <ele>42.435424804688</ele>
        <time>2012-04-16T09:13:09Z</time>
      </trkpt>
      <trkpt lat="48.00791" lon="-2.65979">
        <ele>41.473999023438</ele>
        <time>2012-04-16T09:13:17Z</time>
      </trkpt>
      <trkpt lat="48.00871" lon="-2.66011">
        <ele>41.954711914062</ele>
        <time>2012-04-16T09:13:36Z</time>
      </trkpt>
      <trkpt lat="48.00871" lon="-2.66011">
        <ele>41.954711914062</ele>
        <time>2012-04-16T09:13:37Z</time>
      </trkpt>
      <trkpt lat="48.00889" lon="-2.66037">
        <ele>40.993408203125</ele>
        <time>2012-04-16T09:13:44Z</time>
      </trkpt>
      <trkpt lat="48.00911" lon="-2.66093">
        <ele>41.473999023438</ele>
        <time>2012-04-16T09:13:57Z</time>
      </trkpt>
      <trkpt lat="48.00943" lon="-2.66186">
        <ele>41.473999023438</ele>
        <time>2012-04-16T09:14:13Z</time>
      </trkpt>
      <trkpt lat="48.01023" lon="-2.66285">
        <ele>39.55126953125</ele>
        <time>2012-04-16T09:14:34Z</time>
      </trkpt>
      <trkpt lat="48.01038" lon="-2.66365">
        <ele>39.55126953125</ele>
        <time>2012-04-16T09:14:51Z</time>
      </trkpt>
      <trkpt lat="48.01035" lon="-2.66375">
        <ele>39.55126953125</ele>
        <time>2012-04-16T09:14:53Z</time>
      </trkpt>
      <trkpt lat="48.01008" lon="-2.66476">
        <ele>40.512817382812</ele>
        <time>2012-04-16T09:15:12Z</time>
      </trkpt>
      <trkpt lat="48.00964" lon="-2.66616">
        <ele>41.473999023438</ele>
        <time>2012-04-16T09:15:36Z</time>
      </trkpt>
      <trkpt lat="48.00939" lon="-2.66758">
        <ele>40.993408203125</ele>
        <time>2012-04-16T09:15:56Z</time>
      </trkpt>
      <trkpt lat="48.00922" lon="-2.66895">
        <ele>40.032104492188</ele>
        <time>2012-04-16T09:16:16Z</time>
      </trkpt>
      <trkpt lat="48.00916" lon="-2.66948">
        <ele>40.512817382812</ele>
        <time>2012-04-16T09:16:26Z</time>
      </trkpt>
      <trkpt lat="48.00915" lon="-2.66952">
        <ele>40.512817382812</ele>
        <time>2012-04-16T09:16:28Z</time>
      </trkpt>
      <trkpt lat="48.00915" lon="-2.67009">
        <ele>41.473999023438</ele>
        <time>2012-04-16T09:16:41Z</time>
      </trkpt>
      <trkpt lat="48.00916" lon="-2.67083">
        <ele>41.473999023438</ele>
        <time>2012-04-16T09:16:54Z</time>
      </trkpt>
      <trkpt lat="48.00918" lon="-2.67161">
        <ele>41.954711914062</ele>
        <time>2012-04-16T09:16:58Z</time>
      </trkpt>
      <trkpt lat="48.00942" lon="-2.67094">
        <ele>41.473999023438</ele>
        <time>2012-04-16T09:17:01Z</time>
      </trkpt>
      <trkpt lat="48.00917" lon="-2.67114">
        <ele>40.032104492188</ele>
        <time>2012-04-16T09:17:05Z</time>
      </trkpt>
      <trkpt lat="48.0099" lon="-2.67178">
        <ele>40.512817382812</ele>
        <time>2012-04-16T09:17:17Z</time>
      </trkpt>
      <trkpt lat="48.01001" lon="-2.67197">
        <ele>40.993408203125</ele>
        <time>2012-04-16T09:17:21Z</time>
      </trkpt>
      <trkpt lat="48.0106" lon="-2.67265">
        <ele>42.916015625</ele>
        <time>2012-04-16T09:17:40Z</time>
      </trkpt>
      <trkpt lat="48.01062" lon="-2.67267">
        <ele>43.396606445312</ele>
        <time>2012-04-16T09:17:41Z</time>
      </trkpt>
      <trkpt lat="48.01071" lon="-2.67262">
        <ele>43.877319335938</ele>
        <time>2012-04-16T09:17:45Z</time>
      </trkpt>
      <trkpt lat="48.01079" lon="-2.67244">
        <ele>43.396606445312</ele>
        <time>2012-04-16T09:17:52Z</time>
      </trkpt>
      <trkpt lat="48.01092" lon="-2.67256">
        <ele>43.396606445312</ele>
        <time>2012-04-16T09:18:00Z</time>
      </trkpt>
      <trkpt lat="48.01133" lon="-2.67295">
        <ele>43.396606445312</ele>
        <time>2012-04-16T09:18:17Z</time>
      </trkpt>
      <trkpt lat="48.01171" lon="-2.67335">
        <ele>44.358032226562</ele>
        <time>2012-04-16T09:18:33Z</time>
      </trkpt>
      <trkpt lat="48.01269" lon="-2.6743">
        <ele>45.799926757812</ele>
        <time>2012-04-16T09:19:02Z</time>
      </trkpt>
      <trkpt lat="48.01357" lon="-2.67468">
        <ele>46.76123046875</ele>
        <time>2012-04-16T09:19:25Z</time>
      </trkpt>
      <trkpt lat="48.01444" lon="-2.67536">
        <ele>46.280639648438</ele>
        <time>2012-04-16T09:19:48Z</time>
      </trkpt>
      <trkpt lat="48.01534" lon="-2.6758">
        <ele>47.241821289062</ele>
        <time>2012-04-16T09:20:11Z</time>
      </trkpt>
      <trkpt lat="48.01643" lon="-2.67642">
        <ele>46.76123046875</ele>
        <time>2012-04-16T09:20:38Z</time>
      </trkpt>
      <trkpt lat="48.01754" lon="-2.67739">
        <ele>47.241821289062</ele>
        <time>2012-04-16T09:21:07Z</time>
      </trkpt>
      <trkpt lat="48.01844" lon="-2.67832">
        <ele>49.16455078125</ele>
        <time>2012-04-16T09:21:34Z</time>
      </trkpt>
      <trkpt lat="48.01898" lon="-2.67889">
        <ele>50.1259765625</ele>
        <time>2012-04-16T09:21:52Z</time>
      </trkpt>
      <trkpt lat="48.01973" lon="-2.67969">
        <ele>47.241821289062</ele>
        <time>2012-04-16T09:22:14Z</time>
      </trkpt>
      <trkpt lat="48.02033" lon="-2.68041">
        <ele>47.722534179688</ele>
        <time>2012-04-16T09:22:33Z</time>
      </trkpt>
      <trkpt lat="48.02043" lon="-2.68061">
        <ele>47.722534179688</ele>
        <time>2012-04-16T09:22:37Z</time>
      </trkpt>
      <trkpt lat="48.02097" lon="-2.68213">
        <ele>46.76123046875</ele>
        <time>2012-04-16T09:23:03Z</time>
      </trkpt>
      <trkpt lat="48.02099" lon="-2.68219">
        <ele>47.241821289062</ele>
        <time>2012-04-16T09:23:04Z</time>
      </trkpt>
      <trkpt lat="48.02182" lon="-2.68349">
        <ele>48.683959960938</ele>
        <time>2012-04-16T09:23:31Z</time>
      </trkpt>
      <trkpt lat="48.02214" lon="-2.68445">
        <ele>49.645263671875</ele>
        <time>2012-04-16T09:23:48Z</time>
      </trkpt>
      <trkpt lat="48.02229" lon="-2.68561">
        <ele>49.645263671875</ele>
        <time>2012-04-16T09:24:06Z</time>
      </trkpt>
      <trkpt lat="48.02211" lon="-2.68714">
        <ele>49.645263671875</ele>
        <time>2012-04-16T09:24:29Z</time>
      </trkpt>
      <trkpt lat="48.02212" lon="-2.68785">
        <ele>52.048583984375</ele>
        <time>2012-04-16T09:24:45Z</time>
      </trkpt>
      <trkpt lat="48.02216" lon="-2.68791">
        <ele>52.529174804688</ele>
        <time>2012-04-16T09:24:48Z</time>
      </trkpt>
      <trkpt lat="48.0222" lon="-2.68843">
        <ele>51.087158203125</ele>
        <time>2012-04-16T09:25:01Z</time>
      </trkpt>
      <trkpt lat="48.02199" lon="-2.68998">
        <ele>49.645263671875</ele>
        <time>2012-04-16T09:25:26Z</time>
      </trkpt>
      <trkpt lat="48.02224" lon="-2.69145">
        <ele>49.16455078125</ele>
        <time>2012-04-16T09:25:51Z</time>
      </trkpt>
      <trkpt lat="48.02256" lon="-2.69336">
        <ele>49.645263671875</ele>
        <time>2012-04-16T09:26:22Z</time>
      </trkpt>
      <trkpt lat="48.02299" lon="-2.69587">
        <ele>48.683959960938</ele>
        <time>2012-04-16T09:27:01Z</time>
      </trkpt>
      <trkpt lat="48.02347" lon="-2.69789">
        <ele>48.203369140625</ele>
        <time>2012-04-16T09:27:30Z</time>
      </trkpt>
      <trkpt lat="48.02435" lon="-2.6989">
        <ele>48.203369140625</ele>
        <time>2012-04-16T09:27:51Z</time>
      </trkpt>
      <trkpt lat="48.02537" lon="-2.69986">
        <ele>48.683959960938</ele>
        <time>2012-04-16T09:28:17Z</time>
      </trkpt>
      <trkpt lat="48.0266" lon="-2.70102">
        <ele>49.645263671875</ele>
        <time>2012-04-16T09:28:50Z</time>
      </trkpt>
      <trkpt lat="48.02739" lon="-2.70175">
        <ele>52.048583984375</ele>
        <time>2012-04-16T09:29:14Z</time>
      </trkpt>
      <trkpt lat="48.02745" lon="-2.70181">
        <ele>52.048583984375</ele>
        <time>2012-04-16T09:29:17Z</time>
      </trkpt>
      <trkpt lat="48.0275" lon="-2.70186">
        <ele>53.009765625</ele>
        <time>2012-04-16T09:29:21Z</time>
      </trkpt>
      <trkpt lat="48.02755" lon="-2.7019">
        <ele>53.490478515625</ele>
        <time>2012-04-16T09:29:25Z</time>
      </trkpt>
      <trkpt lat="48.02765" lon="-2.702">
        <ele>53.009765625</ele>
        <time>2012-04-16T09:29:32Z</time>
      </trkpt>
      <trkpt lat="48.0282" lon="-2.70253">
        <ele>53.009765625</ele>
        <time>2012-04-16T09:29:52Z</time>
      </trkpt>
      <trkpt lat="48.02916" lon="-2.70345">
        <ele>51.56787109375</ele>
        <time>2012-04-16T09:30:21Z</time>
      </trkpt>
      <trkpt lat="48.03012" lon="-2.70437">
        <ele>51.087158203125</ele>
        <time>2012-04-16T09:30:49Z</time>
      </trkpt>
      <trkpt lat="48.03129" lon="-2.70549">
        <ele>50.1259765625</ele>
        <time>2012-04-16T09:31:22Z</time>
      </trkpt>
      <trkpt lat="48.03232" lon="-2.70649">
        <ele>50.1259765625</ele>
        <time>2012-04-16T09:31:51Z</time>
      </trkpt>
      <trkpt lat="48.03337" lon="-2.7075">
        <ele>50.606567382812</ele>
        <time>2012-04-16T09:32:20Z</time>
      </trkpt>
      <trkpt lat="48.03434" lon="-2.70844">
        <ele>52.048583984375</ele>
        <time>2012-04-16T09:32:47Z</time>
      </trkpt>
      <trkpt lat="48.03511" lon="-2.70918">
        <ele>53.97119140625</ele>
        <time>2012-04-16T09:33:12Z</time>
      </trkpt>
      <trkpt lat="48.03513" lon="-2.70919">
        <ele>53.97119140625</ele>
        <time>2012-04-16T09:33:13Z</time>
      </trkpt>
      <trkpt lat="48.03519" lon="-2.70925">
        <ele>54.932373046875</ele>
        <time>2012-04-16T09:33:18Z</time>
      </trkpt>
      <trkpt lat="48.03525" lon="-2.70931">
        <ele>54.932373046875</ele>
        <time>2012-04-16T09:33:21Z</time>
      </trkpt>
      <trkpt lat="48.03565" lon="-2.70969">
        <ele>53.009765625</ele>
        <time>2012-04-16T09:33:36Z</time>
      </trkpt>
      <trkpt lat="48.03605" lon="-2.71008">
        <ele>54.932373046875</ele>
        <time>2012-04-16T09:33:52Z</time>
      </trkpt>
      <trkpt lat="48.03693" lon="-2.71093">
        <ele>54.451782226562</ele>
        <time>2012-04-16T09:34:18Z</time>
      </trkpt>
      <trkpt lat="48.03776" lon="-2.71173">
        <ele>54.451782226562</ele>
        <time>2012-04-16T09:34:47Z</time>
      </trkpt>
      <trkpt lat="48.03897" lon="-2.71288">
        <ele>53.490478515625</ele>
        <time>2012-04-16T09:35:13Z</time>
      </trkpt>
      <trkpt lat="48.04026" lon="-2.7141">
        <ele>53.490478515625</ele>
        <time>2012-04-16T09:35:47Z</time>
      </trkpt>
      <trkpt lat="48.0411" lon="-2.71491">
        <ele>54.932373046875</ele>
        <time>2012-04-16T09:36:09Z</time>
      </trkpt>
      <trkpt lat="48.04175" lon="-2.71585">
        <ele>54.932373046875</ele>
        <time>2012-04-16T09:36:30Z</time>
      </trkpt>
      <trkpt lat="48.04278" lon="-2.71763">
        <ele>54.932373046875</ele>
        <time>2012-04-16T09:37:05Z</time>
      </trkpt>
      <trkpt lat="48.0434" lon="-2.71882">
        <ele>54.451782226562</ele>
        <time>2012-04-16T09:37:28Z</time>
      </trkpt>
      <trkpt lat="48.04358" lon="-2.71916">
        <ele>54.932373046875</ele>
        <time>2012-04-16T09:37:43Z</time>
      </trkpt>
      <trkpt lat="48.04358" lon="-2.71916">
        <ele>55.893798828125</ele>
        <time>2012-04-16T09:39:14Z</time>
      </trkpt>
      <trkpt lat="48.04372" lon="-2.71944">
        <ele>55.893798828125</ele>
        <time>2012-04-16T09:41:50Z</time>
      </trkpt>
      <trkpt lat="48.04377" lon="-2.71953">
        <ele>54.932373046875</ele>
        <time>2012-04-16T09:42:04Z</time>
      </trkpt>
      <trkpt lat="48.04377" lon="-2.71953">
        <ele>54.932373046875</ele>
        <time>2012-04-16T09:44:49Z</time>
      </trkpt>
      <trkpt lat="48.04389" lon="-2.71976">
        <ele>54.451782226562</ele>
        <time>2012-04-16T09:46:54Z</time>
      </trkpt>
      <trkpt lat="48.04433" lon="-2.7206">
        <ele>53.97119140625</ele>
        <time>2012-04-16T09:47:13Z</time>
      </trkpt>
      <trkpt lat="48.04521" lon="-2.72229">
        <ele>53.97119140625</ele>
        <time>2012-04-16T09:47:46Z</time>
      </trkpt>
      <trkpt lat="48.04587" lon="-2.72354">
        <ele>53.97119140625</ele>
        <time>2012-04-16T09:48:10Z</time>
      </trkpt>
      <trkpt lat="48.04676" lon="-2.72524">
        <ele>54.451782226562</ele>
        <time>2012-04-16T09:48:42Z</time>
      </trkpt>
      <trkpt lat="48.04764" lon="-2.72692">
        <ele>53.97119140625</ele>
        <time>2012-04-16T09:49:14Z</time>
      </trkpt>
      <trkpt lat="48.04831" lon="-2.72734">
        <ele>56.37451171875</ele>
        <time>2012-04-16T09:49:34Z</time>
      </trkpt>
      <trkpt lat="48.04833" lon="-2.72732">
        <ele>57.335815429688</ele>
        <time>2012-04-16T09:49:40Z</time>
      </trkpt>
      <trkpt lat="48.0483" lon="-2.72815">
        <ele>56.855102539062</ele>
        <time>2012-04-16T09:49:53Z</time>
      </trkpt>
      <trkpt lat="48.04873" lon="-2.72893">
        <ele>56.855102539062</ele>
        <time>2012-04-16T09:50:10Z</time>
      </trkpt>
      <trkpt lat="48.04966" lon="-2.73058">
        <ele>56.855102539062</ele>
        <time>2012-04-16T09:50:44Z</time>
      </trkpt>
      <trkpt lat="48.05062" lon="-2.73241">
        <ele>57.335815429688</ele>
        <time>2012-04-16T09:51:20Z</time>
      </trkpt>
      <trkpt lat="48.05206" lon="-2.73388">
        <ele>57.335815429688</ele>
        <time>2012-04-16T09:51:55Z</time>
      </trkpt>
      <trkpt lat="48.05257" lon="-2.73461">
        <ele>58.297119140625</ele>
        <time>2012-04-16T09:52:12Z</time>
      </trkpt>
      <trkpt lat="48.05288" lon="-2.73484">
        <ele>60.700317382812</ele>
        <time>2012-04-16T09:52:21Z</time>
      </trkpt>
      <trkpt lat="48.05296" lon="-2.73487">
        <ele>60.700317382812</ele>
        <time>2012-04-16T09:52:23Z</time>
      </trkpt>
      <trkpt lat="48.05328" lon="-2.73491">
        <ele>61.181030273438</ele>
        <time>2012-04-16T09:52:31Z</time>
      </trkpt>
      <trkpt lat="48.05376" lon="-2.7348">
        <ele>61.661743164062</ele>
        <time>2012-04-16T09:52:42Z</time>
      </trkpt>
      <trkpt lat="48.05381" lon="-2.73478">
        <ele>61.661743164062</ele>
        <time>2012-04-16T09:52:43Z</time>
      </trkpt>
      <trkpt lat="48.05442" lon="-2.73452">
        <ele>62.142333984375</ele>
        <time>2012-04-16T09:52:57Z</time>
      </trkpt>
      <trkpt lat="48.05541" lon="-2.73408">
        <ele>60.700317382812</ele>
        <time>2012-04-16T09:53:20Z</time>
      </trkpt>
      <trkpt lat="48.056" lon="-2.73402">
        <ele>58.297119140625</ele>
        <time>2012-04-16T09:53:33Z</time>
      </trkpt>
      <trkpt lat="48.05657" lon="-2.73385">
        <ele>60.2197265625</ele>
        <time>2012-04-16T09:53:46Z</time>
      </trkpt>
      <trkpt lat="48.05717" lon="-2.73348">
        <ele>60.2197265625</ele>
        <time>2012-04-16T09:54:01Z</time>
      </trkpt>
      <trkpt lat="48.05785" lon="-2.73311">
        <ele>58.297119140625</ele>
        <time>2012-04-16T09:54:18Z</time>
      </trkpt>
      <trkpt lat="48.05799" lon="-2.73313">
        <ele>59.258422851562</ele>
        <time>2012-04-16T09:54:21Z</time>
      </trkpt>
      <trkpt lat="48.05815" lon="-2.73319">
        <ele>58.297119140625</ele>
        <time>2012-04-16T09:54:25Z</time>
      </trkpt>
      <trkpt lat="48.05881" lon="-2.73377">
        <ele>57.335815429688</ele>
        <time>2012-04-16T09:54:47Z</time>
      </trkpt>
      <trkpt lat="48.05919" lon="-2.7341">
        <ele>57.816528320312</ele>
        <time>2012-04-16T09:55:02Z</time>
      </trkpt>
      <trkpt lat="48.05973" lon="-2.73457">
        <ele>57.335815429688</ele>
        <time>2012-04-16T09:55:24Z</time>
      </trkpt>
      <trkpt lat="48.06016" lon="-2.73496">
        <ele>57.335815429688</ele>
        <time>2012-04-16T09:55:42Z</time>
      </trkpt>
      <trkpt lat="48.06063" lon="-2.73551">
        <ele>56.37451171875</ele>
        <time>2012-04-16T09:56:01Z</time>
      </trkpt>
      <trkpt lat="48.06085" lon="-2.73577">
        <ele>56.855102539062</ele>
        <time>2012-04-16T09:56:16Z</time>
      </trkpt>
      <trkpt lat="48.06084" lon="-2.73578">
        <ele>56.855102539062</ele>
        <time>2012-04-16T09:58:48Z</time>
      </trkpt>
      <trkpt lat="48.06093" lon="-2.73587">
        <ele>56.37451171875</ele>
        <time>2012-04-16T09:59:50Z</time>
      </trkpt>
      <trkpt lat="48.06161" lon="-2.73667">
        <ele>55.893798828125</ele>
        <time>2012-04-16T10:00:13Z</time>
      </trkpt>
      <trkpt lat="48.06193" lon="-2.73707">
        <ele>56.855102539062</ele>
        <time>2012-04-16T10:00:23Z</time>
      </trkpt>
      <trkpt lat="48.0624" lon="-2.73793">
        <ele>59.258422851562</ele>
        <time>2012-04-16T10:00:42Z</time>
      </trkpt>
      <trkpt lat="48.06263" lon="-2.73907">
        <ele>58.297119140625</ele>
        <time>2012-04-16T10:01:02Z</time>
      </trkpt>
      <trkpt lat="48.06291" lon="-2.74045">
        <ele>58.297119140625</ele>
        <time>2012-04-16T10:01:25Z</time>
      </trkpt>
      <trkpt lat="48.06319" lon="-2.74187">
        <ele>57.816528320312</ele>
        <time>2012-04-16T10:01:48Z</time>
      </trkpt>
      <trkpt lat="48.06322" lon="-2.74193">
        <ele>58.297119140625</ele>
        <time>2012-04-16T10:01:49Z</time>
      </trkpt>
      <trkpt lat="48.06388" lon="-2.74299">
        <ele>58.297119140625</ele>
        <time>2012-04-16T10:02:11Z</time>
      </trkpt>
      <trkpt lat="48.06427" lon="-2.74477">
        <ele>57.816528320312</ele>
        <time>2012-04-16T10:02:36Z</time>
      </trkpt>
      <trkpt lat="48.06504" lon="-2.74619">
        <ele>58.777709960938</ele>
        <time>2012-04-16T10:03:03Z</time>
      </trkpt>
      <trkpt lat="48.06513" lon="-2.74635">
        <ele>58.777709960938</ele>
        <time>2012-04-16T10:03:06Z</time>
      </trkpt>
      <trkpt lat="48.06639" lon="-2.74684">
        <ele>57.816528320312</ele>
        <time>2012-04-16T10:03:29Z</time>
      </trkpt>
      <trkpt lat="48.06669" lon="-2.74783">
        <ele>57.335815429688</ele>
        <time>2012-04-16T10:03:47Z</time>
      </trkpt>
      <trkpt lat="48.06669" lon="-2.74873">
        <ele>56.855102539062</ele>
        <time>2012-04-16T10:04:02Z</time>
      </trkpt>
      <trkpt lat="48.06693" lon="-2.74899">
        <ele>57.816528320312</ele>
        <time>2012-04-16T10:04:17Z</time>
      </trkpt>
      <trkpt lat="48.06716" lon="-2.74922">
        <ele>58.297119140625</ele>
        <time>2012-04-16T10:04:32Z</time>
      </trkpt>
      <trkpt lat="48.06736" lon="-2.7493">
        <ele>58.297119140625</ele>
        <time>2012-04-16T10:04:42Z</time>
      </trkpt>
      <trkpt lat="48.06745" lon="-2.74934">
        <ele>58.297119140625</ele>
        <time>2012-04-16T10:04:47Z</time>
      </trkpt>
      <trkpt lat="48.06758" lon="-2.74956">
        <ele>58.777709960938</ele>
        <time>2012-04-16T10:05:01Z</time>
      </trkpt>
      <trkpt lat="48.06776" lon="-2.7495">
        <ele>59.739135742188</ele>
        <time>2012-04-16T10:05:18Z</time>
      </trkpt>
      <trkpt lat="48.06806" lon="-2.74941">
        <ele>59.739135742188</ele>
        <time>2012-04-16T10:05:27Z</time>
      </trkpt>
      <trkpt lat="48.06806" lon="-2.74941">
        <ele>59.739135742188</ele>
        <time>2012-04-16T10:05:35Z</time>
      </trkpt>
      <trkpt lat="48.0681" lon="-2.74957">
        <ele>59.739135742188</ele>
        <time>2012-04-16T10:05:38Z</time>
      </trkpt>
      <trkpt lat="48.0681" lon="-2.74959">
        <ele>59.258422851562</ele>
        <time>2012-04-16T10:05:42Z</time>
      </trkpt>
      <trkpt lat="48.06814" lon="-2.74996">
        <ele>58.297119140625</ele>
        <time>2012-04-16T10:05:49Z</time>
      </trkpt>
      <trkpt lat="48.06832" lon="-2.74987">
        <ele>56.855102539062</ele>
        <time>2012-04-16T10:05:59Z</time>
      </trkpt>
      <trkpt lat="48.06833" lon="-2.74986">
        <ele>56.855102539062</ele>
        <time>2012-04-16T10:06:00Z</time>
      </trkpt>
      <trkpt lat="48.06836" lon="-2.74984">
        <ele>56.855102539062</ele>
        <time>2012-04-16T10:06:02Z</time>
      </trkpt>
      <trkpt lat="48.06844" lon="-2.74979">
        <ele>56.37451171875</ele>
        <time>2012-04-16T10:06:06Z</time>
      </trkpt>
      <trkpt lat="48.06853" lon="-2.74973">
        <ele>55.893798828125</ele>
        <time>2012-04-16T10:06:18Z</time>
      </trkpt>
      <trkpt lat="48.06853" lon="-2.74973">
        <ele>55.893798828125</ele>
        <time>2012-04-16T10:13:47Z</time>
      </trkpt>
      <trkpt lat="48.06853" lon="-2.74973">
        <ele>55.893798828125</ele>
        <time>2012-04-16T10:14:00Z</time>
      </trkpt>
      <trkpt lat="48.0689" lon="-2.74954">
        <ele>54.932373046875</ele>
        <time>2012-04-16T10:14:17Z</time>
      </trkpt>
      <trkpt lat="48.06926" lon="-2.74958">
        <ele>54.932373046875</ele>
        <time>2012-04-16T10:14:34Z</time>
      </trkpt>
      <trkpt lat="48.0695" lon="-2.74986">
        <ele>53.97119140625</ele>
        <time>2012-04-16T10:14:43Z</time>
      </trkpt>
      <trkpt lat="48.06986" lon="-2.75086">
        <ele>55.4130859375</ele>
        <time>2012-04-16T10:15:08Z</time>
      </trkpt>
      <trkpt lat="48.06986" lon="-2.75087">
        <ele>55.893798828125</ele>
        <time>2012-04-16T10:15:10Z</time>
      </trkpt>
      <trkpt lat="48.06992" lon="-2.75139">
        <ele>56.37451171875</ele>
        <time>2012-04-16T10:15:25Z</time>
      </trkpt>
      <trkpt lat="48.07019" lon="-2.75268">
        <ele>54.932373046875</ele>
        <time>2012-04-16T10:15:47Z</time>
      </trkpt>
      <trkpt lat="48.07041" lon="-2.75338">
        <ele>55.893798828125</ele>
        <time>2012-04-16T10:16:02Z</time>
      </trkpt>
      <trkpt lat="48.07094" lon="-2.75437">
        <ele>59.258422851562</ele>
        <time>2012-04-16T10:16:24Z</time>
      </trkpt>
      <trkpt lat="48.07131" lon="-2.75493">
        <ele>58.777709960938</ele>
        <time>2012-04-16T10:16:41Z</time>
      </trkpt>
      <trkpt lat="48.07176" lon="-2.75545">
        <ele>58.297119140625</ele>
        <time>2012-04-16T10:16:58Z</time>
      </trkpt>
      <trkpt lat="48.07237" lon="-2.75596">
        <ele>57.335815429688</ele>
        <time>2012-04-16T10:17:17Z</time>
      </trkpt>
      <trkpt lat="48.07329" lon="-2.75653">
        <ele>57.335815429688</ele>
        <time>2012-04-16T10:17:43Z</time>
      </trkpt>
      <trkpt lat="48.07365" lon="-2.7564">
        <ele>57.335815429688</ele>
        <time>2012-04-16T10:17:54Z</time>
      </trkpt>
      <trkpt lat="48.07383" lon="-2.75625">
        <ele>56.855102539062</ele>
        <time>2012-04-16T10:18:06Z</time>
      </trkpt>
      <trkpt lat="48.07417" lon="-2.75663">
        <ele>57.816528320312</ele>
        <time>2012-04-16T10:18:20Z</time>
      </trkpt>
      <trkpt lat="48.07476" lon="-2.75676">
        <ele>55.893798828125</ele>
        <time>2012-04-16T10:18:36Z</time>
      </trkpt>
      <trkpt lat="48.07524" lon="-2.7575">
        <ele>56.37451171875</ele>
        <time>2012-04-16T10:18:52Z</time>
      </trkpt>
      <trkpt lat="48.07572" lon="-2.7581">
        <ele>57.335815429688</ele>
        <time>2012-04-16T10:19:11Z</time>
      </trkpt>
      <trkpt lat="48.07618" lon="-2.75874">
        <ele>59.739135742188</ele>
        <time>2012-04-16T10:19:27Z</time>
      </trkpt>
      <trkpt lat="48.07713" lon="-2.75868">
        <ele>60.2197265625</ele>
        <time>2012-04-16T10:19:44Z</time>
      </trkpt>
      <trkpt lat="48.07745" lon="-2.75897">
        <ele>61.661743164062</ele>
        <time>2012-04-16T10:19:53Z</time>
      </trkpt>
      <trkpt lat="48.07838" lon="-2.7591">
        <ele>61.661743164062</ele>
        <time>2012-04-16T10:20:12Z</time>
      </trkpt>
      <trkpt lat="48.07926" lon="-2.75997">
        <ele>59.739135742188</ele>
        <time>2012-04-16T10:20:38Z</time>
      </trkpt>
      <trkpt lat="48.07929" lon="-2.76161">
        <ele>60.700317382812</ele>
        <time>2012-04-16T10:20:55Z</time>
      </trkpt>
      <trkpt lat="48.08005" lon="-2.76274">
        <ele>58.777709960938</ele>
        <time>2012-04-16T10:21:22Z</time>
      </trkpt>
      <trkpt lat="48.08057" lon="-2.7634">
        <ele>58.297119140625</ele>
        <time>2012-04-16T10:21:40Z</time>
      </trkpt>
      <trkpt lat="48.08098" lon="-2.76387">
        <ele>59.258422851562</ele>
        <time>2012-04-16T10:21:54Z</time>
      </trkpt>
      <trkpt lat="48.08168" lon="-2.76426">
        <ele>58.297119140625</ele>
        <time>2012-04-16T10:22:11Z</time>
      </trkpt>
      <trkpt lat="48.08177" lon="-2.76434">
        <ele>58.777709960938</ele>
        <time>2012-04-16T10:22:14Z</time>
      </trkpt>
      <trkpt lat="48.08192" lon="-2.76448">
        <ele>59.739135742188</ele>
        <time>2012-04-16T10:22:27Z</time>
      </trkpt>
      <trkpt lat="48.08192" lon="-2.76448">
        <ele>60.2197265625</ele>
        <time>2012-04-16T10:22:34Z</time>
      </trkpt>
      <trkpt lat="48.08192" lon="-2.76448">
        <ele>60.700317382812</ele>
        <time>2012-04-16T10:22:38Z</time>
      </trkpt>
      <trkpt lat="48.08244" lon="-2.76556">
        <ele>60.2197265625</ele>
        <time>2012-04-16T10:22:54Z</time>
      </trkpt>
      <trkpt lat="48.0835" lon="-2.76546">
        <ele>60.700317382812</ele>
        <time>2012-04-16T10:23:15Z</time>
      </trkpt>
      <trkpt lat="48.08421" lon="-2.76602">
        <ele>61.181030273438</ele>
        <time>2012-04-16T10:23:35Z</time>
      </trkpt>
      <trkpt lat="48.08491" lon="-2.76653">
        <ele>60.700317382812</ele>
        <time>2012-04-16T10:23:55Z</time>
      </trkpt>
      <trkpt lat="48.08593" lon="-2.76732">
        <ele>60.700317382812</ele>
        <time>2012-04-16T10:24:23Z</time>
      </trkpt>
      <trkpt lat="48.08725" lon="-2.76794">
        <ele>58.777709960938</ele>
        <time>2012-04-16T10:24:53Z</time>
      </trkpt>
      <trkpt lat="48.08759" lon="-2.7686">
        <ele>59.258422851562</ele>
        <time>2012-04-16T10:25:07Z</time>
      </trkpt>
      <trkpt lat="48.08778" lon="-2.76944">
        <ele>59.258422851562</ele>
        <time>2012-04-16T10:25:15Z</time>
      </trkpt>
      <trkpt lat="48.0868" lon="-2.77094">
        <ele>60.2197265625</ele>
        <time>2012-04-16T10:25:42Z</time>
      </trkpt>
      <trkpt lat="48.08675" lon="-2.77112">
        <ele>60.700317382812</ele>
        <time>2012-04-16T10:25:45Z</time>
      </trkpt>
      <trkpt lat="48.08656" lon="-2.77215">
        <ele>61.661743164062</ele>
        <time>2012-04-16T10:26:02Z</time>
      </trkpt>
      <trkpt lat="48.08654" lon="-2.77221">
        <ele>61.661743164062</ele>
        <time>2012-04-16T10:26:03Z</time>
      </trkpt>
      <trkpt lat="48.08648" lon="-2.77261">
        <ele>62.142333984375</ele>
        <time>2012-04-16T10:26:09Z</time>
      </trkpt>
      <trkpt lat="48.08649" lon="-2.77305">
        <ele>62.622924804688</ele>
        <time>2012-04-16T10:26:16Z</time>
      </trkpt>
      <trkpt lat="48.08676" lon="-2.77404">
        <ele>63.103637695312</ele>
        <time>2012-04-16T10:26:34Z</time>
      </trkpt>
      <trkpt lat="48.08692" lon="-2.77457">
        <ele>63.584350585938</ele>
        <time>2012-04-16T10:26:49Z</time>
      </trkpt>
      <trkpt lat="48.08702" lon="-2.77497">
        <ele>63.103637695312</ele>
        <time>2012-04-16T10:26:58Z</time>
      </trkpt>
      <trkpt lat="48.08705" lon="-2.775">
        <ele>63.103637695312</ele>
        <time>2012-04-16T10:27:00Z</time>
      </trkpt>
      <trkpt lat="48.08721" lon="-2.77547">
        <ele>62.622924804688</ele>
        <time>2012-04-16T10:27:12Z</time>
      </trkpt>
      <trkpt lat="48.08757" lon="-2.77584">
        <ele>63.103637695312</ele>
        <time>2012-04-16T10:27:24Z</time>
      </trkpt>
      <trkpt lat="48.08842" lon="-2.77646">
        <ele>63.103637695312</ele>
        <time>2012-04-16T10:27:48Z</time>
      </trkpt>
      <trkpt lat="48.08909" lon="-2.77695">
        <ele>64.065063476562</ele>
        <time>2012-04-16T10:28:06Z</time>
      </trkpt>
      <trkpt lat="48.09006" lon="-2.77751">
        <ele>63.103637695312</ele>
        <time>2012-04-16T10:28:30Z</time>
      </trkpt>
      <trkpt lat="48.09088" lon="-2.7777">
        <ele>62.622924804688</ele>
        <time>2012-04-16T10:28:50Z</time>
      </trkpt>
      <trkpt lat="48.09197" lon="-2.77757">
        <ele>62.622924804688</ele>
        <time>2012-04-16T10:29:16Z</time>
      </trkpt>
      <trkpt lat="48.09275" lon="-2.77752">
        <ele>62.622924804688</ele>
        <time>2012-04-16T10:29:35Z</time>
      </trkpt>
      <trkpt lat="48.09357" lon="-2.77747">
        <ele>62.622924804688</ele>
        <time>2012-04-16T10:29:55Z</time>
      </trkpt>
      <trkpt lat="48.09425" lon="-2.7772">
        <ele>61.661743164062</ele>
        <time>2012-04-16T10:30:13Z</time>
      </trkpt>
      <trkpt lat="48.09464" lon="-2.77704">
        <ele>62.622924804688</ele>
        <time>2012-04-16T10:30:26Z</time>
      </trkpt>
      <trkpt lat="48.09466" lon="-2.77707">
        <ele>62.622924804688</ele>
        <time>2012-04-16T10:30:28Z</time>
      </trkpt>
      <trkpt lat="48.09477" lon="-2.77704">
        <ele>63.584350585938</ele>
        <time>2012-04-16T10:30:34Z</time>
      </trkpt>
      <trkpt lat="48.09482" lon="-2.77688">
        <ele>64.065063476562</ele>
        <time>2012-04-16T10:30:40Z</time>
      </trkpt>
      <trkpt lat="48.09482" lon="-2.77682">
        <ele>64.545654296875</ele>
        <time>2012-04-16T10:30:42Z</time>
      </trkpt>
      <trkpt lat="48.09503" lon="-2.7767">
        <ele>64.065063476562</ele>
        <time>2012-04-16T10:30:49Z</time>
      </trkpt>
      <trkpt lat="48.0957" lon="-2.77669">
        <ele>62.142333984375</ele>
        <time>2012-04-16T10:31:08Z</time>
      </trkpt>
      <trkpt lat="48.09592" lon="-2.77672">
        <ele>61.661743164062</ele>
        <time>2012-04-16T10:31:15Z</time>
      </trkpt>
      <trkpt lat="48.09667" lon="-2.77713">
        <ele>63.584350585938</ele>
        <time>2012-04-16T10:31:35Z</time>
      </trkpt>
      <trkpt lat="48.09741" lon="-2.7779">
        <ele>63.584350585938</ele>
        <time>2012-04-16T10:31:57Z</time>
      </trkpt>
      <trkpt lat="48.09807" lon="-2.77859">
        <ele>63.103637695312</ele>
        <time>2012-04-16T10:32:17Z</time>
      </trkpt>
      <trkpt lat="48.0986" lon="-2.77913">
        <ele>64.065063476562</ele>
        <time>2012-04-16T10:32:33Z</time>
      </trkpt>
      <trkpt lat="48.09933" lon="-2.77943">
        <ele>64.065063476562</ele>
        <time>2012-04-16T10:32:51Z</time>
      </trkpt>
      <trkpt lat="48.09991" lon="-2.77953">
        <ele>62.142333984375</ele>
        <time>2012-04-16T10:33:05Z</time>
      </trkpt>
      <trkpt lat="48.10091" lon="-2.77976">
        <ele>62.622924804688</ele>
        <time>2012-04-16T10:33:29Z</time>
      </trkpt>
      <trkpt lat="48.10198" lon="-2.77993">
        <ele>65.0263671875</ele>
        <time>2012-04-16T10:33:54Z</time>
      </trkpt>
      <trkpt lat="48.10263" lon="-2.78006">
        <ele>65.0263671875</ele>
        <time>2012-04-16T10:34:09Z</time>
      </trkpt>
      <trkpt lat="48.10344" lon="-2.78021">
        <ele>65.987670898438</ele>
        <time>2012-04-16T10:34:30Z</time>
      </trkpt>
      <trkpt lat="48.10389" lon="-2.78032">
        <ele>68.390869140625</ele>
        <time>2012-04-16T10:34:46Z</time>
      </trkpt>
      <trkpt lat="48.10452" lon="-2.7805">
        <ele>68.87158203125</ele>
        <time>2012-04-16T10:35:03Z</time>
      </trkpt>
      <trkpt lat="48.10514" lon="-2.7807">
        <ele>68.390869140625</ele>
        <time>2012-04-16T10:35:20Z</time>
      </trkpt>
      <trkpt lat="48.10564" lon="-2.78136">
        <ele>68.87158203125</ele>
        <time>2012-04-16T10:35:37Z</time>
      </trkpt>
      <trkpt lat="48.10566" lon="-2.78141">
        <ele>68.390869140625</ele>
        <time>2012-04-16T10:35:38Z</time>
      </trkpt>
      <trkpt lat="48.10578" lon="-2.78231">
        <ele>67.4296875</ele>
        <time>2012-04-16T10:35:53Z</time>
      </trkpt>
      <trkpt lat="48.10556" lon="-2.78309">
        <ele>66.948974609375</ele>
        <time>2012-04-16T10:36:09Z</time>
      </trkpt>
      <trkpt lat="48.10529" lon="-2.78387">
        <ele>69.352294921875</ele>
        <time>2012-04-16T10:36:26Z</time>
      </trkpt>
      <trkpt lat="48.10495" lon="-2.78489">
        <ele>69.352294921875</ele>
        <time>2012-04-16T10:36:45Z</time>
      </trkpt>
      <trkpt lat="48.10464" lon="-2.78624">
        <ele>71.755493164062</ele>
        <time>2012-04-16T10:37:09Z</time>
      </trkpt>
      <trkpt lat="48.10458" lon="-2.78721">
        <ele>72.716918945312</ele>
        <time>2012-04-16T10:37:28Z</time>
      </trkpt>
      <trkpt lat="48.10449" lon="-2.78851">
        <ele>73.67822265625</ele>
        <time>2012-04-16T10:37:50Z</time>
      </trkpt>
      <trkpt lat="48.10447" lon="-2.78976">
        <ele>74.158813476562</ele>
        <time>2012-04-16T10:38:12Z</time>
      </trkpt>
      <trkpt lat="48.1045" lon="-2.79036">
        <ele>77.042846679688</ele>
        <time>2012-04-16T10:38:27Z</time>
      </trkpt>
      <trkpt lat="48.10453" lon="-2.79046">
        <ele>78.004028320312</ele>
        <time>2012-04-16T10:38:32Z</time>
      </trkpt>
      <trkpt lat="48.10457" lon="-2.79089">
        <ele>77.042846679688</ele>
        <time>2012-04-16T10:38:46Z</time>
      </trkpt>
      <trkpt lat="48.10456" lon="-2.79099">
        <ele>77.5234375</ele>
        <time>2012-04-16T10:38:50Z</time>
      </trkpt>
      <trkpt lat="48.10466" lon="-2.79203">
        <ele>77.042846679688</ele>
        <time>2012-04-16T10:39:13Z</time>
      </trkpt>
      <trkpt lat="48.10474" lon="-2.79282">
        <ele>78.004028320312</ele>
        <time>2012-04-16T10:39:28Z</time>
      </trkpt>
      <trkpt lat="48.10483" lon="-2.79391">
        <ele>80.88818359375</ele>
        <time>2012-04-16T10:39:52Z</time>
      </trkpt>
      <trkpt lat="48.10487" lon="-2.79438">
        <ele>80.88818359375</ele>
        <time>2012-04-16T10:40:04Z</time>
      </trkpt>
      <trkpt lat="48.10488" lon="-2.7944">
        <ele>79.446044921875</ele>
        <time>2012-04-16T10:40:26Z</time>
      </trkpt>
      <trkpt lat="48.10488" lon="-2.79442">
        <ele>79.926635742188</ele>
        <time>2012-04-16T10:41:15Z</time>
      </trkpt>
      <trkpt lat="48.10486" lon="-2.79449">
        <ele>81.368774414062</ele>
        <time>2012-04-16T10:41:32Z</time>
      </trkpt>
      <trkpt lat="48.10495" lon="-2.79482">
        <ele>82.330078125</ele>
        <time>2012-04-16T10:41:47Z</time>
      </trkpt>
      <trkpt lat="48.10515" lon="-2.79579">
        <ele>81.849365234375</ele>
        <time>2012-04-16T10:42:09Z</time>
      </trkpt>
      <trkpt lat="48.1053" lon="-2.7966">
        <ele>83.291381835938</ele>
        <time>2012-04-16T10:42:26Z</time>
      </trkpt>
      <trkpt lat="48.10533" lon="-2.79805">
        <ele>83.77197265625</ele>
        <time>2012-04-16T10:42:50Z</time>
      </trkpt>
      <trkpt lat="48.10547" lon="-2.79918">
        <ele>83.77197265625</ele>
        <time>2012-04-16T10:43:10Z</time>
      </trkpt>
      <trkpt lat="48.10557" lon="-2.80002">
        <ele>86.17529296875</ele>
        <time>2012-04-16T10:43:26Z</time>
      </trkpt>
      <trkpt lat="48.10567" lon="-2.80083">
        <ele>87.136596679688</ele>
        <time>2012-04-16T10:43:42Z</time>
      </trkpt>
      <trkpt lat="48.10582" lon="-2.80205">
        <ele>86.656005859375</ele>
        <time>2012-04-16T10:44:04Z</time>
      </trkpt>
      <trkpt lat="48.10591" lon="-2.80315">
        <ele>85.694580078125</ele>
        <time>2012-04-16T10:44:23Z</time>
      </trkpt>
      <trkpt lat="48.10591" lon="-2.80404">
        <ele>86.656005859375</ele>
        <time>2012-04-16T10:44:41Z</time>
      </trkpt>
      <trkpt lat="48.1059" lon="-2.80518">
        <ele>87.6171875</ele>
        <time>2012-04-16T10:45:02Z</time>
      </trkpt>
      <trkpt lat="48.10583" lon="-2.80693">
        <ele>90.98193359375</ele>
        <time>2012-04-16T10:45:31Z</time>
      </trkpt>
      <trkpt lat="48.1058" lon="-2.8079">
        <ele>92.423950195312</ele>
        <time>2012-04-16T10:45:51Z</time>
      </trkpt>
      <trkpt lat="48.10589" lon="-2.80917">
        <ele>91.943237304688</ele>
        <time>2012-04-16T10:46:11Z</time>
      </trkpt>
      <trkpt lat="48.10613" lon="-2.81005">
        <ele>93.865844726562</ele>
        <time>2012-04-16T10:46:31Z</time>
      </trkpt>
      <trkpt lat="48.10648" lon="-2.81095">
        <ele>94.8271484375</ele>
        <time>2012-04-16T10:46:50Z</time>
      </trkpt>
      <trkpt lat="48.10672" lon="-2.81149">
        <ele>98.19189453125</ele>
        <time>2012-04-16T10:47:05Z</time>
      </trkpt>
      <trkpt lat="48.10716" lon="-2.81247">
        <ele>100.11450195312</ele>
        <time>2012-04-16T10:47:28Z</time>
      </trkpt>
      <trkpt lat="48.10748" lon="-2.81318">
        <ele>102.037109375</ele>
        <time>2012-04-16T10:47:46Z</time>
      </trkpt>
      <trkpt lat="48.10756" lon="-2.81336">
        <ele>102.037109375</ele>
        <time>2012-04-16T10:48:00Z</time>
      </trkpt>
      <trkpt lat="48.10756" lon="-2.81336">
        <ele>101.07568359375</ele>
        <time>2012-04-16T10:48:38Z</time>
      </trkpt>
      <trkpt lat="48.10756" lon="-2.81336">
        <ele>101.55639648438</ele>
        <time>2012-04-16T10:48:42Z</time>
      </trkpt>
      <trkpt lat="48.10756" lon="-2.81336">
        <ele>103.95971679688</ele>
        <time>2012-04-16T10:48:55Z</time>
      </trkpt>
      <trkpt lat="48.10756" lon="-2.81336">
        <ele>103.47900390625</ele>
        <time>2012-04-16T10:49:12Z</time>
      </trkpt>
      <trkpt lat="48.10756" lon="-2.81336">
        <ele>102.51770019531</ele>
        <time>2012-04-16T10:49:17Z</time>
      </trkpt>
      <trkpt lat="48.10759" lon="-2.81343">
        <ele>100.59509277344</ele>
        <time>2012-04-16T10:49:26Z</time>
      </trkpt>
      <trkpt lat="48.10759" lon="-2.81343">
        <ele>100.11450195312</ele>
        <time>2012-04-16T10:49:42Z</time>
      </trkpt>
      <trkpt lat="48.10759" lon="-2.81343">
        <ele>100.11450195312</ele>
        <time>2012-04-16T10:51:23Z</time>
      </trkpt>
      <trkpt lat="48.10759" lon="-2.81343">
        <ele>99.6337890625</ele>
        <time>2012-04-16T10:57:07Z</time>
      </trkpt>
    </trkseg>
  </trk>
  <trk>
    <name><![CDATA[ACTIVE LOG 005]]></name>
    <trkseg>
      <trkpt lat="48.10762" lon="-2.81408">
        <ele>120.30212402344</ele>
        <time>2012-04-16T11:54:03Z</time>
      </trkpt>
      <trkpt lat="48.10753" lon="-2.8135">
        <ele>93.385131835938</ele>
        <time>2012-04-16T11:54:55Z</time>
      </trkpt>
      <trkpt lat="48.10753" lon="-2.81349">
        <ele>93.385131835938</ele>
        <time>2012-04-16T11:59:09Z</time>
      </trkpt>
      <trkpt lat="48.10748" lon="-2.81347">
        <ele>94.8271484375</ele>
        <time>2012-04-16T11:59:15Z</time>
      </trkpt>
      <trkpt lat="48.10749" lon="-2.81343">
        <ele>95.307739257812</ele>
        <time>2012-04-16T11:59:17Z</time>
      </trkpt>
      <trkpt lat="48.10753" lon="-2.81338">
        <ele>95.788452148438</ele>
        <time>2012-04-16T11:59:22Z</time>
      </trkpt>
      <trkpt lat="48.10759" lon="-2.81335">
        <ele>95.788452148438</ele>
        <time>2012-04-16T11:59:46Z</time>
      </trkpt>
      <trkpt lat="48.1076" lon="-2.81335">
        <ele>95.788452148438</ele>
        <time>2012-04-16T12:00:09Z</time>
      </trkpt>
      <trkpt lat="48.10761" lon="-2.81332">
        <ele>95.307739257812</ele>
        <time>2012-04-16T12:06:55Z</time>
      </trkpt>
      <trkpt lat="48.10766" lon="-2.81328">
        <ele>94.8271484375</ele>
        <time>2012-04-16T12:07:04Z</time>
      </trkpt>
      <trkpt lat="48.10778" lon="-2.81343">
        <ele>94.346557617188</ele>
        <time>2012-04-16T12:07:10Z</time>
      </trkpt>
      <trkpt lat="48.10806" lon="-2.81407">
        <ele>93.865844726562</ele>
        <time>2012-04-16T12:07:24Z</time>
      </trkpt>
      <trkpt lat="48.10857" lon="-2.81522">
        <ele>91.462524414062</ele>
        <time>2012-04-16T12:07:50Z</time>
      </trkpt>
      <trkpt lat="48.109" lon="-2.81623">
        <ele>93.385131835938</ele>
        <time>2012-04-16T12:08:16Z</time>
      </trkpt>
      <trkpt lat="48.10958" lon="-2.81754">
        <ele>92.904541015625</ele>
        <time>2012-04-16T12:08:45Z</time>
      </trkpt>
      <trkpt lat="48.10982" lon="-2.81808">
        <ele>92.904541015625</ele>
        <time>2012-04-16T12:09:00Z</time>
      </trkpt>
      <trkpt lat="48.1102" lon="-2.81889">
        <ele>91.943237304688</ele>
        <time>2012-04-16T12:09:18Z</time>
      </trkpt>
      <trkpt lat="48.11049" lon="-2.81962">
        <ele>93.385131835938</ele>
        <time>2012-04-16T12:09:35Z</time>
      </trkpt>
      <trkpt lat="48.11087" lon="-2.82049">
        <ele>95.307739257812</ele>
        <time>2012-04-16T12:09:55Z</time>
      </trkpt>
      <trkpt lat="48.11125" lon="-2.82141">
        <ele>96.749877929688</ele>
        <time>2012-04-16T12:10:18Z</time>
      </trkpt>
      <trkpt lat="48.11135" lon="-2.8216">
        <ele>96.749877929688</ele>
        <time>2012-04-16T12:10:34Z</time>
      </trkpt>
      <trkpt lat="48.11135" lon="-2.82166">
        <ele>97.711181640625</ele>
        <time>2012-04-16T12:10:50Z</time>
      </trkpt>
      <trkpt lat="48.11145" lon="-2.82187">
        <ele>99.153076171875</ele>
        <time>2012-04-16T12:13:51Z</time>
      </trkpt>
      <trkpt lat="48.11167" lon="-2.82251">
        <ele>99.6337890625</ele>
        <time>2012-04-16T12:14:04Z</time>
      </trkpt>
      <trkpt lat="48.11177" lon="-2.82305">
        <ele>103.95971679688</ele>
        <time>2012-04-16T12:14:17Z</time>
      </trkpt>
      <trkpt lat="48.11177" lon="-2.82329">
        <ele>104.92102050781</ele>
        <time>2012-04-16T12:14:27Z</time>
      </trkpt>
      <trkpt lat="48.1118" lon="-2.82334">
        <ele>104.92102050781</ele>
        <time>2012-04-16T12:14:30Z</time>
      </trkpt>
      <trkpt lat="48.1118" lon="-2.82345">
        <ele>105.40173339844</ele>
        <time>2012-04-16T12:14:34Z</time>
      </trkpt>
      <trkpt lat="48.11187" lon="-2.82458">
        <ele>105.88244628906</ele>
        <time>2012-04-16T12:14:54Z</time>
      </trkpt>
      <trkpt lat="48.11195" lon="-2.82527">
        <ele>107.80505371094</ele>
        <time>2012-04-16T12:15:08Z</time>
      </trkpt>
      <trkpt lat="48.11208" lon="-2.8264">
        <ele>109.24694824219</ele>
        <time>2012-04-16T12:15:32Z</time>
      </trkpt>
      <trkpt lat="48.11218" lon="-2.82723">
        <ele>107.32434082031</ele>
        <time>2012-04-16T12:15:48Z</time>
      </trkpt>
      <trkpt lat="48.11241" lon="-2.82825">
        <ele>111.16955566406</ele>
        <time>2012-04-16T12:16:09Z</time>
      </trkpt>
      <trkpt lat="48.11278" lon="-2.82897">
        <ele>112.13098144531</ele>
        <time>2012-04-16T12:16:27Z</time>
      </trkpt>
      <trkpt lat="48.11305" lon="-2.8295">
        <ele>112.61157226562</ele>
        <time>2012-04-16T12:16:39Z</time>
      </trkpt>
      <trkpt lat="48.11344" lon="-2.83024">
        <ele>116.45678710938</ele>
        <time>2012-04-16T12:16:58Z</time>
      </trkpt>
      <trkpt lat="48.11399" lon="-2.83101">
        <ele>115.97619628906</ele>
        <time>2012-04-16T12:17:19Z</time>
      </trkpt>
      <trkpt lat="48.11424" lon="-2.83133">
        <ele>118.86010742188</ele>
        <time>2012-04-16T12:17:33Z</time>
      </trkpt>
      <trkpt lat="48.11439" lon="-2.83151">
        <ele>118.86010742188</ele>
        <time>2012-04-16T12:17:45Z</time>
      </trkpt>
      <trkpt lat="48.11452" lon="-2.83167">
        <ele>120.30212402344</ele>
        <time>2012-04-16T12:17:54Z</time>
      </trkpt>
      <trkpt lat="48.11458" lon="-2.83174">
        <ele>120.30212402344</ele>
        <time>2012-04-16T12:17:58Z</time>
      </trkpt>
      <trkpt lat="48.11509" lon="-2.83233">
        <ele>120.30212402344</ele>
        <time>2012-04-16T12:18:18Z</time>
      </trkpt>
      <trkpt lat="48.11555" lon="-2.83295">
        <ele>118.86010742188</ele>
        <time>2012-04-16T12:18:38Z</time>
      </trkpt>
      <trkpt lat="48.1159" lon="-2.83349">
        <ele>120.78283691406</ele>
        <time>2012-04-16T12:18:53Z</time>
      </trkpt>
      <trkpt lat="48.11615" lon="-2.83398">
        <ele>125.58935546875</ele>
        <time>2012-04-16T12:19:07Z</time>
      </trkpt>
      <trkpt lat="48.11639" lon="-2.83463">
        <ele>126.55065917969</ele>
        <time>2012-04-16T12:19:23Z</time>
      </trkpt>
      <trkpt lat="48.11654" lon="-2.83521">
        <ele>127.51196289062</ele>
        <time>2012-04-16T12:19:36Z</time>
      </trkpt>
      <trkpt lat="48.11658" lon="-2.8356">
        <ele>127.51196289062</ele>
        <time>2012-04-16T12:19:46Z</time>
      </trkpt>
      <trkpt lat="48.11656" lon="-2.8358">
        <ele>128.47338867188</ele>
        <time>2012-04-16T12:19:52Z</time>
      </trkpt>
      <trkpt lat="48.11656" lon="-2.83632">
        <ele>129.43469238281</ele>
        <time>2012-04-16T12:19:58Z</time>
      </trkpt>
      <trkpt lat="48.11646" lon="-2.83664">
        <ele>129.43469238281</ele>
        <time>2012-04-16T12:20:04Z</time>
      </trkpt>
      <trkpt lat="48.11622" lon="-2.83735">
        <ele>129.91528320312</ele>
        <time>2012-04-16T12:20:18Z</time>
      </trkpt>
      <trkpt lat="48.11599" lon="-2.83793">
        <ele>126.55065917969</ele>
        <time>2012-04-16T12:20:29Z</time>
      </trkpt>
      <trkpt lat="48.11568" lon="-2.83872">
        <ele>128.9541015625</ele>
        <time>2012-04-16T12:20:45Z</time>
      </trkpt>
      <trkpt lat="48.11535" lon="-2.83954">
        <ele>130.39599609375</ele>
        <time>2012-04-16T12:21:02Z</time>
      </trkpt>
      <trkpt lat="48.11516" lon="-2.84">
        <ele>135.68310546875</ele>
        <time>2012-04-16T12:21:14Z</time>
      </trkpt>
      <trkpt lat="48.11499" lon="-2.84045">
        <ele>142.41247558594</ele>
        <time>2012-04-16T12:21:25Z</time>
      </trkpt>
      <trkpt lat="48.1146" lon="-2.84142">
        <ele>148.66101074219</ele>
        <time>2012-04-16T12:21:44Z</time>
      </trkpt>
      <trkpt lat="48.11446" lon="-2.84176">
        <ele>145.77709960938</ele>
        <time>2012-04-16T12:21:49Z</time>
      </trkpt>
      <trkpt lat="48.11441" lon="-2.84188">
        <ele>145.29638671875</ele>
        <time>2012-04-16T12:21:51Z</time>
      </trkpt>
      <trkpt lat="48.11434" lon="-2.84208">
        <ele>146.73840332031</ele>
        <time>2012-04-16T12:21:55Z</time>
      </trkpt>
      <trkpt lat="48.11417" lon="-2.84249">
        <ele>150.58361816406</ele>
        <time>2012-04-16T12:22:03Z</time>
      </trkpt>
      <trkpt lat="48.11409" lon="-2.8427">
        <ele>151.544921875</ele>
        <time>2012-04-16T12:22:08Z</time>
      </trkpt>
      <trkpt lat="48.11399" lon="-2.84296">
        <ele>152.50634765625</ele>
        <time>2012-04-16T12:22:12Z</time>
      </trkpt>
      <trkpt lat="48.11388" lon="-2.84321">
        <ele>148.18041992188</ele>
        <time>2012-04-16T12:22:16Z</time>
      </trkpt>
      <trkpt lat="48.11372" lon="-2.84361">
        <ele>148.66101074219</ele>
        <time>2012-04-16T12:22:24Z</time>
      </trkpt>
      <trkpt lat="48.11357" lon="-2.84399">
        <ele>154.42895507812</ele>
        <time>2012-04-16T12:22:31Z</time>
      </trkpt>
      <trkpt lat="48.11349" lon="-2.8443">
        <ele>160.19689941406</ele>
        <time>2012-04-16T12:22:36Z</time>
      </trkpt>
      <trkpt lat="48.11345" lon="-2.84475">
        <ele>155.39025878906</ele>
        <time>2012-04-16T12:22:43Z</time>
      </trkpt>
      <trkpt lat="48.11343" lon="-2.84493">
        <ele>152.02575683594</ele>
        <time>2012-04-16T12:22:46Z</time>
      </trkpt>
      <trkpt lat="48.11351" lon="-2.84582">
        <ele>144.33520507812</ele>
        <time>2012-04-16T12:23:00Z</time>
      </trkpt>
      <trkpt lat="48.11357" lon="-2.84644">
        <ele>149.1416015625</ele>
        <time>2012-04-16T12:23:11Z</time>
      </trkpt>
      <trkpt lat="48.11363" lon="-2.84708">
        <ele>152.02575683594</ele>
        <time>2012-04-16T12:23:22Z</time>
      </trkpt>
      <trkpt lat="48.11381" lon="-2.84798">
        <ele>135.20251464844</ele>
        <time>2012-04-16T12:23:37Z</time>
      </trkpt>
      <trkpt lat="48.11406" lon="-2.84855">
        <ele>128.9541015625</ele>
        <time>2012-04-16T12:23:49Z</time>
      </trkpt>
      <trkpt lat="48.11427" lon="-2.84888">
        <ele>126.55065917969</ele>
        <time>2012-04-16T12:23:57Z</time>
      </trkpt>
      <trkpt lat="48.11491" lon="-2.84931">
        <ele>127.99255371094</ele>
        <time>2012-04-16T12:24:15Z</time>
      </trkpt>
      <trkpt lat="48.11548" lon="-2.84946">
        <ele>127.51196289062</ele>
        <time>2012-04-16T12:24:30Z</time>
      </trkpt>
      <trkpt lat="48.11558" lon="-2.84948">
        <ele>127.03137207031</ele>
        <time>2012-04-16T12:24:33Z</time>
      </trkpt>
      <trkpt lat="48.11632" lon="-2.84963">
        <ele>126.55065917969</ele>
        <time>2012-04-16T12:24:51Z</time>
      </trkpt>
      <trkpt lat="48.11671" lon="-2.84969">
        <ele>126.55065917969</ele>
        <time>2012-04-16T12:25:01Z</time>
      </trkpt>
      <trkpt lat="48.11731" lon="-2.84975">
        <ele>126.06994628906</ele>
        <time>2012-04-16T12:25:16Z</time>
      </trkpt>
      <trkpt lat="48.11782" lon="-2.84983">
        <ele>127.99255371094</ele>
        <time>2012-04-16T12:25:29Z</time>
      </trkpt>
      <trkpt lat="48.11817" lon="-2.85004">
        <ele>130.87670898438</ele>
        <time>2012-04-16T12:25:38Z</time>
      </trkpt>
      <trkpt lat="48.11847" lon="-2.85034">
        <ele>130.87670898438</ele>
        <time>2012-04-16T12:25:47Z</time>
      </trkpt>
      <trkpt lat="48.11869" lon="-2.85093">
        <ele>128.9541015625</ele>
        <time>2012-04-16T12:25:57Z</time>
      </trkpt>
      <trkpt lat="48.11886" lon="-2.85217">
        <ele>129.91528320312</ele>
        <time>2012-04-16T12:26:16Z</time>
      </trkpt>
      <trkpt lat="48.11895" lon="-2.85316">
        <ele>129.91528320312</ele>
        <time>2012-04-16T12:26:32Z</time>
      </trkpt>
      <trkpt lat="48.11913" lon="-2.85464">
        <ele>127.03137207031</ele>
        <time>2012-04-16T12:26:55Z</time>
      </trkpt>
      <trkpt lat="48.11925" lon="-2.85522">
        <ele>127.03137207031</ele>
        <time>2012-04-16T12:27:04Z</time>
      </trkpt>
      <trkpt lat="48.11932" lon="-2.85546">
        <ele>125.58935546875</ele>
        <time>2012-04-16T12:27:08Z</time>
      </trkpt>
      <trkpt lat="48.11978" lon="-2.857">
        <ele>126.06994628906</ele>
        <time>2012-04-16T12:27:33Z</time>
      </trkpt>
      <trkpt lat="48.11985" lon="-2.85776">
        <ele>126.55065917969</ele>
        <time>2012-04-16T12:27:44Z</time>
      </trkpt>
      <trkpt lat="48.11985" lon="-2.85809">
        <ele>128.47338867188</ele>
        <time>2012-04-16T12:27:49Z</time>
      </trkpt>
      <trkpt lat="48.11978" lon="-2.85912">
        <ele>128.47338867188</ele>
        <time>2012-04-16T12:28:06Z</time>
      </trkpt>
      <trkpt lat="48.11951" lon="-2.86031">
        <ele>127.51196289062</ele>
        <time>2012-04-16T12:28:25Z</time>
      </trkpt>
      <trkpt lat="48.11926" lon="-2.86135">
        <ele>128.9541015625</ele>
        <time>2012-04-16T12:28:42Z</time>
      </trkpt>
      <trkpt lat="48.11926" lon="-2.86149">
        <ele>127.99255371094</ele>
        <time>2012-04-16T12:28:44Z</time>
      </trkpt>
      <trkpt lat="48.11938" lon="-2.86204">
        <ele>128.9541015625</ele>
        <time>2012-04-16T12:28:53Z</time>
      </trkpt>
      <trkpt lat="48.11945" lon="-2.86232">
        <ele>128.9541015625</ele>
        <time>2012-04-16T12:28:58Z</time>
      </trkpt>
      <trkpt lat="48.11954" lon="-2.86266">
        <ele>127.03137207031</ele>
        <time>2012-04-16T12:29:04Z</time>
      </trkpt>
      <trkpt lat="48.11958" lon="-2.86284">
        <ele>126.55065917969</ele>
        <time>2012-04-16T12:29:07Z</time>
      </trkpt>
      <trkpt lat="48.11964" lon="-2.86307">
        <ele>127.03137207031</ele>
        <time>2012-04-16T12:29:11Z</time>
      </trkpt>
      <trkpt lat="48.11974" lon="-2.86384">
        <ele>127.51196289062</ele>
        <time>2012-04-16T12:29:23Z</time>
      </trkpt>
      <trkpt lat="48.11961" lon="-2.86502">
        <ele>128.47338867188</ele>
        <time>2012-04-16T12:29:41Z</time>
      </trkpt>
      <trkpt lat="48.11933" lon="-2.86569">
        <ele>125.10876464844</ele>
        <time>2012-04-16T12:29:53Z</time>
      </trkpt>
      <trkpt lat="48.1187" lon="-2.86672">
        <ele>124.62805175781</ele>
        <time>2012-04-16T12:30:14Z</time>
      </trkpt>
      <trkpt lat="48.11838" lon="-2.86723">
        <ele>127.03137207031</ele>
        <time>2012-04-16T12:30:26Z</time>
      </trkpt>
      <trkpt lat="48.11819" lon="-2.86786">
        <ele>127.51196289062</ele>
        <time>2012-04-16T12:30:36Z</time>
      </trkpt>
      <trkpt lat="48.11799" lon="-2.86858">
        <ele>126.55065917969</ele>
        <time>2012-04-16T12:30:48Z</time>
      </trkpt>
      <trkpt lat="48.11791" lon="-2.86913">
        <ele>128.47338867188</ele>
        <time>2012-04-16T12:30:57Z</time>
      </trkpt>
      <trkpt lat="48.11785" lon="-2.86955">
        <ele>128.47338867188</ele>
        <time>2012-04-16T12:31:04Z</time>
      </trkpt>
      <trkpt lat="48.11774" lon="-2.87044">
        <ele>130.87670898438</ele>
        <time>2012-04-16T12:31:18Z</time>
      </trkpt>
      <trkpt lat="48.11769" lon="-2.87104">
        <ele>133.27990722656</ele>
        <time>2012-04-16T12:31:28Z</time>
      </trkpt>
      <trkpt lat="48.11766" lon="-2.87134">
        <ele>132.31860351562</ele>
        <time>2012-04-16T12:31:33Z</time>
      </trkpt>
      <trkpt lat="48.11768" lon="-2.87221">
        <ele>128.9541015625</ele>
        <time>2012-04-16T12:31:50Z</time>
      </trkpt>
      <trkpt lat="48.1177" lon="-2.87241">
        <ele>128.9541015625</ele>
        <time>2012-04-16T12:31:57Z</time>
      </trkpt>
      <trkpt lat="48.11771" lon="-2.87245">
        <ele>128.47338867188</ele>
        <time>2012-04-16T12:31:59Z</time>
      </trkpt>
      <trkpt lat="48.11785" lon="-2.87318">
        <ele>126.06994628906</ele>
        <time>2012-04-16T12:32:12Z</time>
      </trkpt>
      <trkpt lat="48.11791" lon="-2.87346">
        <ele>126.06994628906</ele>
        <time>2012-04-16T12:32:16Z</time>
      </trkpt>
      <trkpt lat="48.11806" lon="-2.87417">
        <ele>125.58935546875</ele>
        <time>2012-04-16T12:32:28Z</time>
      </trkpt>
      <trkpt lat="48.11794" lon="-2.87484">
        <ele>125.58935546875</ele>
        <time>2012-04-16T12:32:38Z</time>
      </trkpt>
      <trkpt lat="48.1178" lon="-2.87564">
        <ele>129.91528320312</ele>
        <time>2012-04-16T12:32:51Z</time>
      </trkpt>
      <trkpt lat="48.11772" lon="-2.87609">
        <ele>131.35729980469</ele>
        <time>2012-04-16T12:32:58Z</time>
      </trkpt>
      <trkpt lat="48.11765" lon="-2.87651">
        <ele>131.837890625</ele>
        <time>2012-04-16T12:33:05Z</time>
      </trkpt>
      <trkpt lat="48.11748" lon="-2.87748">
        <ele>134.72192382812</ele>
        <time>2012-04-16T12:33:20Z</time>
      </trkpt>
      <trkpt lat="48.11716" lon="-2.87897">
        <ele>129.43469238281</ele>
        <time>2012-04-16T12:33:42Z</time>
      </trkpt>
      <trkpt lat="48.11678" lon="-2.88008">
        <ele>129.91528320312</ele>
        <time>2012-04-16T12:34:00Z</time>
      </trkpt>
      <trkpt lat="48.11633" lon="-2.88076">
        <ele>127.51196289062</ele>
        <time>2012-04-16T12:34:16Z</time>
      </trkpt>
      <trkpt lat="48.11576" lon="-2.88125">
        <ele>127.51196289062</ele>
        <time>2012-04-16T12:34:31Z</time>
      </trkpt>
      <trkpt lat="48.11529" lon="-2.88206">
        <ele>126.55065917969</ele>
        <time>2012-04-16T12:34:49Z</time>
      </trkpt>
      <trkpt lat="48.11498" lon="-2.88322">
        <ele>126.06994628906</ele>
        <time>2012-04-16T12:35:08Z</time>
      </trkpt>
      <trkpt lat="48.1147" lon="-2.88448">
        <ele>125.58935546875</ele>
        <time>2012-04-16T12:35:29Z</time>
      </trkpt>
      <trkpt lat="48.11446" lon="-2.88556">
        <ele>127.03137207031</ele>
        <time>2012-04-16T12:35:48Z</time>
      </trkpt>
      <trkpt lat="48.1144" lon="-2.88634">
        <ele>130.39599609375</ele>
        <time>2012-04-16T12:36:04Z</time>
      </trkpt>
      <trkpt lat="48.11439" lon="-2.88653">
        <ele>130.39599609375</ele>
        <time>2012-04-16T12:36:07Z</time>
      </trkpt>
      <trkpt lat="48.11432" lon="-2.88759">
        <ele>129.91528320312</ele>
        <time>2012-04-16T12:36:24Z</time>
      </trkpt>
      <trkpt lat="48.11428" lon="-2.88823">
        <ele>129.91528320312</ele>
        <time>2012-04-16T12:36:35Z</time>
      </trkpt>
      <trkpt lat="48.1143" lon="-2.88904">
        <ele>129.91528320312</ele>
        <time>2012-04-16T12:36:49Z</time>
      </trkpt>
      <trkpt lat="48.11432" lon="-2.88977">
        <ele>129.43469238281</ele>
        <time>2012-04-16T12:37:06Z</time>
      </trkpt>
      <trkpt lat="48.11432" lon="-2.88977">
        <ele>129.43469238281</ele>
        <time>2012-04-16T12:37:09Z</time>
      </trkpt>
      <trkpt lat="48.11449" lon="-2.88972">
        <ele>128.9541015625</ele>
        <time>2012-04-16T12:37:17Z</time>
      </trkpt>
      <trkpt lat="48.11437" lon="-2.89008">
        <ele>127.51196289062</ele>
        <time>2012-04-16T12:37:21Z</time>
      </trkpt>
      <trkpt lat="48.11439" lon="-2.89019">
        <ele>127.03137207031</ele>
        <time>2012-04-16T12:37:24Z</time>
      </trkpt>
      <trkpt lat="48.11439" lon="-2.88976">
        <ele>127.03137207031</ele>
        <time>2012-04-16T12:37:26Z</time>
      </trkpt>
      <trkpt lat="48.11444" lon="-2.89068">
        <ele>125.10876464844</ele>
        <time>2012-04-16T12:37:36Z</time>
      </trkpt>
      <trkpt lat="48.11425" lon="-2.89208">
        <ele>121.744140625</ele>
        <time>2012-04-16T12:37:52Z</time>
      </trkpt>
      <trkpt lat="48.11404" lon="-2.89315">
        <ele>119.82141113281</ele>
        <time>2012-04-16T12:38:05Z</time>
      </trkpt>
      <trkpt lat="48.11401" lon="-2.89331">
        <ele>119.82141113281</ele>
        <time>2012-04-16T12:38:07Z</time>
      </trkpt>
      <trkpt lat="48.11395" lon="-2.8936">
        <ele>119.3408203125</ele>
        <time>2012-04-16T12:38:11Z</time>
      </trkpt>
      <trkpt lat="48.11385" lon="-2.89477">
        <ele>114.5341796875</ele>
        <time>2012-04-16T12:38:27Z</time>
      </trkpt>
      <trkpt lat="48.11407" lon="-2.89619">
        <ele>113.57299804688</ele>
        <time>2012-04-16T12:38:44Z</time>
      </trkpt>
      <trkpt lat="48.11434" lon="-2.8976">
        <ele>112.13098144531</ele>
        <time>2012-04-16T12:39:04Z</time>
      </trkpt>
      <trkpt lat="48.11459" lon="-2.89894">
        <ele>111.16955566406</ele>
        <time>2012-04-16T12:39:23Z</time>
      </trkpt>
      <trkpt lat="48.1149" lon="-2.90054">
        <ele>107.80505371094</ele>
        <time>2012-04-16T12:39:45Z</time>
      </trkpt>
      <trkpt lat="48.11508" lon="-2.90147">
        <ele>107.80505371094</ele>
        <time>2012-04-16T12:40:01Z</time>
      </trkpt>
      <trkpt lat="48.11514" lon="-2.90244">
        <ele>106.84362792969</ele>
        <time>2012-04-16T12:40:18Z</time>
      </trkpt>
      <trkpt lat="48.11502" lon="-2.90245">
        <ele>106.36303710938</ele>
        <time>2012-04-16T12:40:22Z</time>
      </trkpt>
      <trkpt lat="48.11491" lon="-2.90245">
        <ele>105.88244628906</ele>
        <time>2012-04-16T12:40:26Z</time>
      </trkpt>
      <trkpt lat="48.11477" lon="-2.90262">
        <ele>104.92102050781</ele>
        <time>2012-04-16T12:40:31Z</time>
      </trkpt>
      <trkpt lat="48.11521" lon="-2.90321">
        <ele>102.99829101562</ele>
        <time>2012-04-16T12:40:38Z</time>
      </trkpt>
      <trkpt lat="48.11511" lon="-2.90387">
        <ele>102.51770019531</ele>
        <time>2012-04-16T12:40:46Z</time>
      </trkpt>
      <trkpt lat="48.11462" lon="-2.90477">
        <ele>103.47900390625</ele>
        <time>2012-04-16T12:41:03Z</time>
      </trkpt>
      <trkpt lat="48.11462" lon="-2.90477">
        <ele>102.99829101562</ele>
        <time>2012-04-16T12:41:09Z</time>
      </trkpt>
      <trkpt lat="48.11344" lon="-2.90587">
        <ele>103.47900390625</ele>
        <time>2012-04-16T12:41:29Z</time>
      </trkpt>
      <trkpt lat="48.1129" lon="-2.90739">
        <ele>104.4404296875</ele>
        <time>2012-04-16T12:41:53Z</time>
      </trkpt>
      <trkpt lat="48.11226" lon="-2.90921">
        <ele>104.92102050781</ele>
        <time>2012-04-16T12:42:21Z</time>
      </trkpt>
      <trkpt lat="48.11199" lon="-2.91045">
        <ele>103.47900390625</ele>
        <time>2012-04-16T12:42:39Z</time>
      </trkpt>
      <trkpt lat="48.11191" lon="-2.91079">
        <ele>103.47900390625</ele>
        <time>2012-04-16T12:42:44Z</time>
      </trkpt>
      <trkpt lat="48.11217" lon="-2.912">
        <ele>102.51770019531</ele>
        <time>2012-04-16T12:42:57Z</time>
      </trkpt>
      <trkpt lat="48.11161" lon="-2.91178">
        <ele>101.55639648438</ele>
        <time>2012-04-16T12:43:03Z</time>
      </trkpt>
      <trkpt lat="48.11121" lon="-2.91197">
        <ele>102.99829101562</ele>
        <time>2012-04-16T12:43:16Z</time>
      </trkpt>
      <trkpt lat="48.1108" lon="-2.91189">
        <ele>105.40173339844</ele>
        <time>2012-04-16T12:43:30Z</time>
      </trkpt>
      <trkpt lat="48.11041" lon="-2.91174">
        <ele>103.95971679688</ele>
        <time>2012-04-16T12:43:42Z</time>
      </trkpt>
      <trkpt lat="48.11034" lon="-2.9117">
        <ele>102.99829101562</ele>
        <time>2012-04-16T12:43:44Z</time>
      </trkpt>
      <trkpt lat="48.10937" lon="-2.91147">
        <ele>104.4404296875</ele>
        <time>2012-04-16T12:44:05Z</time>
      </trkpt>
      <trkpt lat="48.10803" lon="-2.91161">
        <ele>103.47900390625</ele>
        <time>2012-04-16T12:44:35Z</time>
      </trkpt>
      <trkpt lat="48.10672" lon="-2.91187">
        <ele>103.47900390625</ele>
        <time>2012-04-16T12:45:05Z</time>
      </trkpt>
      <trkpt lat="48.10592" lon="-2.91236">
        <ele>103.95971679688</ele>
        <time>2012-04-16T12:45:24Z</time>
      </trkpt>
      <trkpt lat="48.10556" lon="-2.91355">
        <ele>102.99829101562</ele>
        <time>2012-04-16T12:45:41Z</time>
      </trkpt>
      <trkpt lat="48.10575" lon="-2.91497">
        <ele>102.99829101562</ele>
        <time>2012-04-16T12:45:59Z</time>
      </trkpt>
      <trkpt lat="48.10595" lon="-2.91598">
        <ele>102.99829101562</ele>
        <time>2012-04-16T12:46:14Z</time>
      </trkpt>
      <trkpt lat="48.10604" lon="-2.91642">
        <ele>102.51770019531</ele>
        <time>2012-04-16T12:46:21Z</time>
      </trkpt>
      <trkpt lat="48.10608" lon="-2.91707">
        <ele>99.6337890625</ele>
        <time>2012-04-16T12:46:33Z</time>
      </trkpt>
      <trkpt lat="48.10608" lon="-2.91708">
        <ele>101.07568359375</ele>
        <time>2012-04-16T12:46:35Z</time>
      </trkpt>
      <trkpt lat="48.10608" lon="-2.91708">
        <ele>101.55639648438</ele>
        <time>2012-04-16T12:46:39Z</time>
      </trkpt>
      <trkpt lat="48.10608" lon="-2.91773">
        <ele>102.037109375</ele>
        <time>2012-04-16T12:46:44Z</time>
      </trkpt>
      <trkpt lat="48.10607" lon="-2.91792">
        <ele>101.07568359375</ele>
        <time>2012-04-16T12:46:47Z</time>
      </trkpt>
      <trkpt lat="48.10607" lon="-2.91856">
        <ele>101.07568359375</ele>
        <time>2012-04-16T12:46:57Z</time>
      </trkpt>
      <trkpt lat="48.10606" lon="-2.91974">
        <ele>101.07568359375</ele>
        <time>2012-04-16T12:47:15Z</time>
      </trkpt>
      <trkpt lat="48.10604" lon="-2.92075">
        <ele>102.037109375</ele>
        <time>2012-04-16T12:47:31Z</time>
      </trkpt>
      <trkpt lat="48.10604" lon="-2.92108">
        <ele>102.99829101562</ele>
        <time>2012-04-16T12:47:37Z</time>
      </trkpt>
      <trkpt lat="48.10604" lon="-2.92131">
        <ele>102.99829101562</ele>
        <time>2012-04-16T12:47:41Z</time>
      </trkpt>
      <trkpt lat="48.10603" lon="-2.92149">
        <ele>102.037109375</ele>
        <time>2012-04-16T12:47:44Z</time>
      </trkpt>
      <trkpt lat="48.10601" lon="-2.92234">
        <ele>104.4404296875</ele>
        <time>2012-04-16T12:47:57Z</time>
      </trkpt>
      <trkpt lat="48.10597" lon="-2.92281">
        <ele>105.88244628906</ele>
        <time>2012-04-16T12:48:04Z</time>
      </trkpt>
      <trkpt lat="48.10589" lon="-2.9232">
        <ele>108.28564453125</ele>
        <time>2012-04-16T12:48:11Z</time>
      </trkpt>
      <trkpt lat="48.10587" lon="-2.92337">
        <ele>109.24694824219</ele>
        <time>2012-04-16T12:48:14Z</time>
      </trkpt>
      <trkpt lat="48.10583" lon="-2.92363">
        <ele>106.36303710938</ele>
        <time>2012-04-16T12:48:18Z</time>
      </trkpt>
      <trkpt lat="48.1058" lon="-2.92381">
        <ele>106.36303710938</ele>
        <time>2012-04-16T12:48:21Z</time>
      </trkpt>
      <trkpt lat="48.1056" lon="-2.92532">
        <ele>102.037109375</ele>
        <time>2012-04-16T12:48:40Z</time>
      </trkpt>
      <trkpt lat="48.10556" lon="-2.92583">
        <ele>100.11450195312</ele>
        <time>2012-04-16T12:48:46Z</time>
      </trkpt>
      <trkpt lat="48.10555" lon="-2.92601">
        <ele>99.6337890625</ele>
        <time>2012-04-16T12:48:48Z</time>
      </trkpt>
      <trkpt lat="48.10568" lon="-2.92738">
        <ele>96.749877929688</ele>
        <time>2012-04-16T12:49:05Z</time>
      </trkpt>
      <trkpt lat="48.10593" lon="-2.92833">
        <ele>94.8271484375</ele>
        <time>2012-04-16T12:49:19Z</time>
      </trkpt>
      <trkpt lat="48.10611" lon="-2.92905">
        <ele>93.385131835938</ele>
        <time>2012-04-16T12:49:33Z</time>
      </trkpt>
      <trkpt lat="48.10628" lon="-2.93025">
        <ele>91.943237304688</ele>
        <time>2012-04-16T12:49:50Z</time>
      </trkpt>
      <trkpt lat="48.10643" lon="-2.93171">
        <ele>88.578735351562</ele>
        <time>2012-04-16T12:50:09Z</time>
      </trkpt>
      <trkpt lat="48.10654" lon="-2.93323">
        <ele>86.17529296875</ele>
        <time>2012-04-16T12:50:28Z</time>
      </trkpt>
      <trkpt lat="48.10656" lon="-2.93459">
        <ele>84.252685546875</ele>
        <time>2012-04-16T12:50:46Z</time>
      </trkpt>
      <trkpt lat="48.10652" lon="-2.93514">
        <ele>82.810791015625</ele>
        <time>2012-04-16T12:50:52Z</time>
      </trkpt>
      <trkpt lat="48.10643" lon="-2.93621">
        <ele>81.368774414062</ele>
        <time>2012-04-16T12:51:06Z</time>
      </trkpt>
      <trkpt lat="48.10641" lon="-2.93646">
        <ele>81.849365234375</ele>
        <time>2012-04-16T12:51:10Z</time>
      </trkpt>
      <trkpt lat="48.10635" lon="-2.93727">
        <ele>80.88818359375</ele>
        <time>2012-04-16T12:51:23Z</time>
      </trkpt>
      <trkpt lat="48.1064" lon="-2.9379">
        <ele>80.407470703125</ele>
        <time>2012-04-16T12:51:33Z</time>
      </trkpt>
      <trkpt lat="48.10647" lon="-2.93851">
        <ele>79.446044921875</ele>
        <time>2012-04-16T12:51:45Z</time>
      </trkpt>
      <trkpt lat="48.10649" lon="-2.93867">
        <ele>78.484741210938</ele>
        <time>2012-04-16T12:51:47Z</time>
      </trkpt>
      <trkpt lat="48.10663" lon="-2.93989">
        <ele>74.158813476562</ele>
        <time>2012-04-16T12:52:00Z</time>
      </trkpt>
      <trkpt lat="48.10658" lon="-2.94027">
        <ele>74.158813476562</ele>
        <time>2012-04-16T12:52:04Z</time>
      </trkpt>
      <trkpt lat="48.10653" lon="-2.94057">
        <ele>75.120239257812</ele>
        <time>2012-04-16T12:52:08Z</time>
      </trkpt>
      <trkpt lat="48.10615" lon="-2.94112">
        <ele>74.639526367188</ele>
        <time>2012-04-16T12:52:19Z</time>
      </trkpt>
      <trkpt lat="48.10557" lon="-2.94106">
        <ele>77.042846679688</ele>
        <time>2012-04-16T12:52:32Z</time>
      </trkpt>
      <trkpt lat="48.10468" lon="-2.94072">
        <ele>77.5234375</ele>
        <time>2012-04-16T12:52:51Z</time>
      </trkpt>
      <trkpt lat="48.10351" lon="-2.94037">
        <ele>78.484741210938</ele>
        <time>2012-04-16T12:53:14Z</time>
      </trkpt>
      <trkpt lat="48.10334" lon="-2.94032">
        <ele>78.484741210938</ele>
        <time>2012-04-16T12:53:21Z</time>
      </trkpt>
      <trkpt lat="48.10332" lon="-2.94031">
        <ele>78.004028320312</ele>
        <time>2012-04-16T12:53:23Z</time>
      </trkpt>
      <trkpt lat="48.1029" lon="-2.94015">
        <ele>75.600830078125</ele>
        <time>2012-04-16T12:53:34Z</time>
      </trkpt>
      <trkpt lat="48.1022" lon="-2.93988">
        <ele>74.639526367188</ele>
        <time>2012-04-16T12:53:49Z</time>
      </trkpt>
      <trkpt lat="48.10176" lon="-2.93971">
        <ele>74.639526367188</ele>
        <time>2012-04-16T12:53:58Z</time>
      </trkpt>
      <trkpt lat="48.10097" lon="-2.9393">
        <ele>76.081420898438</ele>
        <time>2012-04-16T12:54:15Z</time>
      </trkpt>
      <trkpt lat="48.10022" lon="-2.93888">
        <ele>75.600830078125</ele>
        <time>2012-04-16T12:54:31Z</time>
      </trkpt>
      <trkpt lat="48.09993" lon="-2.93873">
        <ele>76.562133789062</ele>
        <time>2012-04-16T12:54:37Z</time>
      </trkpt>
      <trkpt lat="48.09915" lon="-2.93831">
        <ele>71.755493164062</ele>
        <time>2012-04-16T12:54:54Z</time>
      </trkpt>
      <trkpt lat="48.09875" lon="-2.93809">
        <ele>71.27490234375</ele>
        <time>2012-04-16T12:55:03Z</time>
      </trkpt>
      <trkpt lat="48.09839" lon="-2.9379">
        <ele>71.27490234375</ele>
        <time>2012-04-16T12:55:11Z</time>
      </trkpt>
      <trkpt lat="48.09822" lon="-2.93781">
        <ele>71.27490234375</ele>
        <time>2012-04-16T12:55:15Z</time>
      </trkpt>
      <trkpt lat="48.09771" lon="-2.93753">
        <ele>71.755493164062</ele>
        <time>2012-04-16T12:55:27Z</time>
      </trkpt>
      <trkpt lat="48.09698" lon="-2.93706">
        <ele>70.3134765625</ele>
        <time>2012-04-16T12:55:42Z</time>
      </trkpt>
      <trkpt lat="48.09621" lon="-2.93672">
        <ele>72.716918945312</ele>
        <time>2012-04-16T12:55:57Z</time>
      </trkpt>
      <trkpt lat="48.09558" lon="-2.93666">
        <ele>73.67822265625</ele>
        <time>2012-04-16T12:56:11Z</time>
      </trkpt>
      <trkpt lat="48.09478" lon="-2.93669">
        <ele>74.158813476562</ele>
        <time>2012-04-16T12:56:29Z</time>
      </trkpt>
      <trkpt lat="48.09439" lon="-2.93667">
        <ele>73.197631835938</ele>
        <time>2012-04-16T12:56:43Z</time>
      </trkpt>
      <trkpt lat="48.09439" lon="-2.93667">
        <ele>72.716918945312</ele>
        <time>2012-04-16T12:56:58Z</time>
      </trkpt>
      <trkpt lat="48.09421" lon="-2.93666">
        <ele>71.27490234375</ele>
        <time>2012-04-16T13:00:59Z</time>
      </trkpt>
      <trkpt lat="48.0939" lon="-2.93665">
        <ele>68.87158203125</ele>
        <time>2012-04-16T13:01:13Z</time>
      </trkpt>
      <trkpt lat="48.0939" lon="-2.93665">
        <ele>69.832885742188</ele>
        <time>2012-04-16T13:03:02Z</time>
      </trkpt>
      <trkpt lat="48.0939" lon="-2.93665">
        <ele>71.755493164062</ele>
        <time>2012-04-16T13:07:41Z</time>
      </trkpt>
      <trkpt lat="48.0939" lon="-2.93665">
        <ele>72.716918945312</ele>
        <time>2012-04-16T13:12:58Z</time>
      </trkpt>
      <trkpt lat="48.09366" lon="-2.93663">
        <ele>73.197631835938</ele>
        <time>2012-04-16T13:14:30Z</time>
      </trkpt>
      <trkpt lat="48.09306" lon="-2.93664">
        <ele>71.755493164062</ele>
        <time>2012-04-16T13:14:45Z</time>
      </trkpt>
      <trkpt lat="48.09247" lon="-2.93676">
        <ele>70.3134765625</ele>
        <time>2012-04-16T13:14:58Z</time>
      </trkpt>
      <trkpt lat="48.09233" lon="-2.93679">
        <ele>69.352294921875</ele>
        <time>2012-04-16T13:15:01Z</time>
      </trkpt>
      <trkpt lat="48.09213" lon="-2.93683">
        <ele>69.352294921875</ele>
        <time>2012-04-16T13:15:05Z</time>
      </trkpt>
      <trkpt lat="48.0919" lon="-2.93688">
        <ele>68.87158203125</ele>
        <time>2012-04-16T13:15:10Z</time>
      </trkpt>
      <trkpt lat="48.0909" lon="-2.93708">
        <ele>65.507080078125</ele>
        <time>2012-04-16T13:15:31Z</time>
      </trkpt>
      <trkpt lat="48.09033" lon="-2.9372">
        <ele>66.46826171875</ele>
        <time>2012-04-16T13:15:43Z</time>
      </trkpt>
      <trkpt lat="48.09029" lon="-2.93721">
        <ele>66.46826171875</ele>
        <time>2012-04-16T13:15:44Z</time>
      </trkpt>
      <trkpt lat="48.09017" lon="-2.93723">
        <ele>65.987670898438</ele>
        <time>2012-04-16T13:15:47Z</time>
      </trkpt>
      <trkpt lat="48.08968" lon="-2.93733">
        <ele>68.87158203125</ele>
        <time>2012-04-16T13:15:57Z</time>
      </trkpt>
      <trkpt lat="48.08925" lon="-2.93747">
        <ele>66.948974609375</ele>
        <time>2012-04-16T13:16:04Z</time>
      </trkpt>
      <trkpt lat="48.08848" lon="-2.93812">
        <ele>65.987670898438</ele>
        <time>2012-04-16T13:16:19Z</time>
      </trkpt>
      <trkpt lat="48.08845" lon="-2.93819">
        <ele>65.987670898438</ele>
        <time>2012-04-16T13:16:20Z</time>
      </trkpt>
      <trkpt lat="48.08794" lon="-2.93909">
        <ele>66.948974609375</ele>
        <time>2012-04-16T13:16:35Z</time>
      </trkpt>
      <trkpt lat="48.08761" lon="-2.93968">
        <ele>66.46826171875</ele>
        <time>2012-04-16T13:16:45Z</time>
      </trkpt>
      <trkpt lat="48.08721" lon="-2.94039">
        <ele>65.507080078125</ele>
        <time>2012-04-16T13:16:58Z</time>
      </trkpt>
      <trkpt lat="48.08666" lon="-2.94137">
        <ele>66.948974609375</ele>
        <time>2012-04-16T13:17:16Z</time>
      </trkpt>
      <trkpt lat="48.08626" lon="-2.94208">
        <ele>65.987670898438</ele>
        <time>2012-04-16T13:17:29Z</time>
      </trkpt>
      <trkpt lat="48.0857" lon="-2.94308">
        <ele>65.507080078125</ele>
        <time>2012-04-16T13:17:48Z</time>
      </trkpt>
      <trkpt lat="48.08561" lon="-2.94323">
        <ele>64.545654296875</ele>
        <time>2012-04-16T13:17:53Z</time>
      </trkpt>
      <trkpt lat="48.08557" lon="-2.94347">
        <ele>64.065063476562</ele>
        <time>2012-04-16T13:17:55Z</time>
      </trkpt>
      <trkpt lat="48.08557" lon="-2.94399">
        <ele>65.0263671875</ele>
        <time>2012-04-16T13:18:10Z</time>
      </trkpt>
      <trkpt lat="48.08557" lon="-2.94399">
        <ele>64.545654296875</ele>
        <time>2012-04-16T13:18:20Z</time>
      </trkpt>
      <trkpt lat="48.08541" lon="-2.94558">
        <ele>61.661743164062</ele>
        <time>2012-04-16T13:18:32Z</time>
      </trkpt>
      <trkpt lat="48.08521" lon="-2.94697">
        <ele>61.661743164062</ele>
        <time>2012-04-16T13:18:50Z</time>
      </trkpt>
      <trkpt lat="48.08475" lon="-2.94796">
        <ele>61.661743164062</ele>
        <time>2012-04-16T13:19:08Z</time>
      </trkpt>
      <trkpt lat="48.0839" lon="-2.94924">
        <ele>61.181030273438</ele>
        <time>2012-04-16T13:19:33Z</time>
      </trkpt>
      <trkpt lat="48.08331" lon="-2.95015">
        <ele>60.2197265625</ele>
        <time>2012-04-16T13:19:49Z</time>
      </trkpt>
      <trkpt lat="48.08292" lon="-2.95073">
        <ele>60.700317382812</ele>
        <time>2012-04-16T13:20:00Z</time>
      </trkpt>
      <trkpt lat="48.08269" lon="-2.95108">
        <ele>61.181030273438</ele>
        <time>2012-04-16T13:20:07Z</time>
      </trkpt>
      <trkpt lat="48.08193" lon="-2.95201">
        <ele>60.2197265625</ele>
        <time>2012-04-16T13:20:27Z</time>
      </trkpt>
      <trkpt lat="48.08105" lon="-2.953">
        <ele>59.258422851562</ele>
        <time>2012-04-16T13:20:50Z</time>
      </trkpt>
      <trkpt lat="48.08039" lon="-2.95371">
        <ele>58.297119140625</ele>
        <time>2012-04-16T13:21:08Z</time>
      </trkpt>
      <trkpt lat="48.07958" lon="-2.95445">
        <ele>58.297119140625</ele>
        <time>2012-04-16T13:21:27Z</time>
      </trkpt>
      <trkpt lat="48.07898" lon="-2.955">
        <ele>56.855102539062</ele>
        <time>2012-04-16T13:21:42Z</time>
      </trkpt>
      <trkpt lat="48.07834" lon="-2.9556">
        <ele>57.335815429688</ele>
        <time>2012-04-16T13:21:58Z</time>
      </trkpt>
      <trkpt lat="48.07763" lon="-2.95627">
        <ele>56.37451171875</ele>
        <time>2012-04-16T13:22:16Z</time>
      </trkpt>
      <trkpt lat="48.07672" lon="-2.95715">
        <ele>57.335815429688</ele>
        <time>2012-04-16T13:22:40Z</time>
      </trkpt>
      <trkpt lat="48.07591" lon="-2.95795">
        <ele>55.4130859375</ele>
        <time>2012-04-16T13:22:58Z</time>
      </trkpt>
      <trkpt lat="48.07512" lon="-2.95889">
        <ele>54.451782226562</ele>
        <time>2012-04-16T13:23:16Z</time>
      </trkpt>
      <trkpt lat="48.07466" lon="-2.96079">
        <ele>53.97119140625</ele>
        <time>2012-04-16T13:23:43Z</time>
      </trkpt>
      <trkpt lat="48.07445" lon="-2.96165">
        <ele>53.009765625</ele>
        <time>2012-04-16T13:23:57Z</time>
      </trkpt>
      <trkpt lat="48.07432" lon="-2.96218">
        <ele>53.97119140625</ele>
        <time>2012-04-16T13:24:10Z</time>
      </trkpt>
      <trkpt lat="48.07432" lon="-2.96218">
        <ele>53.97119140625</ele>
        <time>2012-04-16T13:24:24Z</time>
      </trkpt>
      <trkpt lat="48.07428" lon="-2.96232">
        <ele>53.97119140625</ele>
        <time>2012-04-16T13:24:35Z</time>
      </trkpt>
      <trkpt lat="48.07411" lon="-2.96285">
        <ele>53.009765625</ele>
        <time>2012-04-16T13:24:42Z</time>
      </trkpt>
      <trkpt lat="48.0736" lon="-2.96364">
        <ele>51.087158203125</ele>
        <time>2012-04-16T13:24:59Z</time>
      </trkpt>
      <trkpt lat="48.07289" lon="-2.96414">
        <ele>51.087158203125</ele>
        <time>2012-04-16T13:25:14Z</time>
      </trkpt>
      <trkpt lat="48.07251" lon="-2.96441">
        <ele>50.606567382812</ele>
        <time>2012-04-16T13:25:24Z</time>
      </trkpt>
      <trkpt lat="48.07141" lon="-2.96519">
        <ele>50.606567382812</ele>
        <time>2012-04-16T13:25:52Z</time>
      </trkpt>
      <trkpt lat="48.07138" lon="-2.96522">
        <ele>50.606567382812</ele>
        <time>2012-04-16T13:26:02Z</time>
      </trkpt>
      <trkpt lat="48.07127" lon="-2.9653">
        <ele>51.087158203125</ele>
        <time>2012-04-16T13:26:09Z</time>
      </trkpt>
      <trkpt lat="48.07127" lon="-2.96504">
        <ele>51.087158203125</ele>
        <time>2012-04-16T13:26:14Z</time>
      </trkpt>
      <trkpt lat="48.07077" lon="-2.96445">
        <ele>51.087158203125</ele>
        <time>2012-04-16T13:26:34Z</time>
      </trkpt>
      <trkpt lat="48.07074" lon="-2.96441">
        <ele>50.606567382812</ele>
        <time>2012-04-16T13:26:36Z</time>
      </trkpt>
      <trkpt lat="48.07036" lon="-2.96437">
        <ele>51.087158203125</ele>
        <time>2012-04-16T13:26:50Z</time>
      </trkpt>
      <trkpt lat="48.06966" lon="-2.96446">
        <ele>49.645263671875</ele>
        <time>2012-04-16T13:27:11Z</time>
      </trkpt>
      <trkpt lat="48.06919" lon="-2.96467">
        <ele>53.009765625</ele>
        <time>2012-04-16T13:27:29Z</time>
      </trkpt>
      <trkpt lat="48.06906" lon="-2.96439">
        <ele>53.009765625</ele>
        <time>2012-04-16T13:27:33Z</time>
      </trkpt>
      <trkpt lat="48.06926" lon="-2.96396">
        <ele>51.087158203125</ele>
        <time>2012-04-16T13:27:45Z</time>
      </trkpt>
      <trkpt lat="48.0693" lon="-2.96388">
        <ele>51.56787109375</ele>
        <time>2012-04-16T13:27:48Z</time>
      </trkpt>
      <trkpt lat="48.06948" lon="-2.96386">
        <ele>53.009765625</ele>
        <time>2012-04-16T13:27:53Z</time>
      </trkpt>
      <trkpt lat="48.06961" lon="-2.96386">
        <ele>56.37451171875</ele>
        <time>2012-04-16T13:28:11Z</time>
      </trkpt>
      <trkpt lat="48.07003" lon="-2.9639">
        <ele>59.739135742188</ele>
        <time>2012-04-16T13:28:29Z</time>
      </trkpt>
      <trkpt lat="48.07003" lon="-2.9639">
        <ele>59.739135742188</ele>
        <time>2012-04-16T13:28:54Z</time>
      </trkpt>
      <trkpt lat="48.07003" lon="-2.9639">
        <ele>59.258422851562</ele>
        <time>2012-04-16T13:29:01Z</time>
      </trkpt>
      <trkpt lat="48.0701" lon="-2.9639">
        <ele>59.258422851562</ele>
        <time>2012-04-16T13:29:03Z</time>
      </trkpt>
      <trkpt lat="48.07012" lon="-2.96391">
        <ele>60.2197265625</ele>
        <time>2012-04-16T13:29:13Z</time>
      </trkpt>
      <trkpt lat="48.07012" lon="-2.96391">
        <ele>61.661743164062</ele>
        <time>2012-04-16T13:43:16Z</time>
      </trkpt>
      <trkpt lat="48.07012" lon="-2.96391">
        <ele>60.700317382812</ele>
        <time>2012-04-16T13:43:20Z</time>
      </trkpt>
      <trkpt lat="48.07" lon="-2.9639">
        <ele>60.2197265625</ele>
        <time>2012-04-16T13:43:43Z</time>
      </trkpt>
      <trkpt lat="48.06961" lon="-2.96386">
        <ele>58.777709960938</ele>
        <time>2012-04-16T13:44:09Z</time>
      </trkpt>
      <trkpt lat="48.06961" lon="-2.96386">
        <ele>58.297119140625</ele>
        <time>2012-04-16T13:44:17Z</time>
      </trkpt>
      <trkpt lat="48.06961" lon="-2.96386">
        <ele>60.2197265625</ele>
        <time>2012-04-16T13:44:20Z</time>
      </trkpt>
      <trkpt lat="48.06939" lon="-2.96386">
        <ele>60.2197265625</ele>
        <time>2012-04-16T13:44:33Z</time>
      </trkpt>
      <trkpt lat="48.06925" lon="-2.96386">
        <ele>61.661743164062</ele>
        <time>2012-04-16T13:44:40Z</time>
      </trkpt>
      <trkpt lat="48.06871" lon="-2.96386">
        <ele>61.181030273438</ele>
        <time>2012-04-16T13:44:58Z</time>
      </trkpt>
      <trkpt lat="48.06819" lon="-2.96382">
        <ele>66.948974609375</ele>
        <time>2012-04-16T13:45:15Z</time>
      </trkpt>
      <trkpt lat="48.0679" lon="-2.96379">
        <ele>68.390869140625</ele>
        <time>2012-04-16T13:45:25Z</time>
      </trkpt>
      <trkpt lat="48.06795" lon="-2.96408">
        <ele>66.948974609375</ele>
        <time>2012-04-16T13:45:30Z</time>
      </trkpt>
      <trkpt lat="48.06799" lon="-2.96461">
        <ele>67.4296875</ele>
        <time>2012-04-16T13:45:42Z</time>
      </trkpt>
      <trkpt lat="48.06801" lon="-2.96496">
        <ele>64.065063476562</ele>
        <time>2012-04-16T13:45:54Z</time>
      </trkpt>
      <trkpt lat="48.06801" lon="-2.96499">
        <ele>64.065063476562</ele>
        <time>2012-04-16T13:46:06Z</time>
      </trkpt>
      <trkpt lat="48.06801" lon="-2.96499">
        <ele>64.065063476562</ele>
        <time>2012-04-16T13:46:15Z</time>
      </trkpt>
      <trkpt lat="48.06802" lon="-2.96511">
        <ele>63.103637695312</ele>
        <time>2012-04-16T13:46:21Z</time>
      </trkpt>
      <trkpt lat="48.0675" lon="-2.96529">
        <ele>63.584350585938</ele>
        <time>2012-04-16T13:46:38Z</time>
      </trkpt>
      <trkpt lat="48.06724" lon="-2.96538">
        <ele>68.390869140625</ele>
        <time>2012-04-16T13:46:49Z</time>
      </trkpt>
      <trkpt lat="48.06716" lon="-2.96541">
        <ele>70.3134765625</ele>
        <time>2012-04-16T13:47:02Z</time>
      </trkpt>
      <trkpt lat="48.06684" lon="-2.96554">
        <ele>67.910278320312</ele>
        <time>2012-04-16T13:47:17Z</time>
      </trkpt>
      <trkpt lat="48.06655" lon="-2.96564">
        <ele>63.584350585938</ele>
        <time>2012-04-16T13:47:31Z</time>
      </trkpt>
      <trkpt lat="48.06655" lon="-2.96564">
        <ele>62.142333984375</ele>
        <time>2012-04-16T13:47:52Z</time>
      </trkpt>
      <trkpt lat="48.06655" lon="-2.96564">
        <ele>62.142333984375</ele>
        <time>2012-04-16T13:48:00Z</time>
      </trkpt>
      <trkpt lat="48.06655" lon="-2.96564">
        <ele>63.103637695312</ele>
        <time>2012-04-16T13:48:15Z</time>
      </trkpt>
      <trkpt lat="48.06655" lon="-2.96564">
        <ele>64.065063476562</ele>
        <time>2012-04-16T13:48:33Z</time>
      </trkpt>
    </trkseg>
  </trk>
  <trk>
    <name><![CDATA[ACTIVE LOG 006]]></name>
    <trkseg>
      <trkpt lat="48.06666" lon="-2.96565">
        <ele>48.683959960938</ele>
        <time>2012-04-16T14:10:05Z</time>
      </trkpt>
      <trkpt lat="48.06669" lon="-2.96559">
        <ele>62.142333984375</ele>
        <time>2012-04-16T14:10:41Z</time>
      </trkpt>
      <trkpt lat="48.06675" lon="-2.96564">
        <ele>63.584350585938</ele>
        <time>2012-04-16T14:10:59Z</time>
      </trkpt>
      <trkpt lat="48.06676" lon="-2.96565">
        <ele>64.065063476562</ele>
        <time>2012-04-16T14:11:12Z</time>
      </trkpt>
      <trkpt lat="48.06678" lon="-2.96566">
        <ele>64.065063476562</ele>
        <time>2012-04-16T14:11:14Z</time>
      </trkpt>
      <trkpt lat="48.06681" lon="-2.96588">
        <ele>63.584350585938</ele>
        <time>2012-04-16T14:11:20Z</time>
      </trkpt>
      <trkpt lat="48.06693" lon="-2.9666">
        <ele>58.297119140625</ele>
        <time>2012-04-16T14:11:36Z</time>
      </trkpt>
      <trkpt lat="48.06703" lon="-2.96708">
        <ele>54.932373046875</ele>
        <time>2012-04-16T14:11:50Z</time>
      </trkpt>
      <trkpt lat="48.06703" lon="-2.96708">
        <ele>54.451782226562</ele>
        <time>2012-04-16T14:11:55Z</time>
      </trkpt>
      <trkpt lat="48.06704" lon="-2.96766">
        <ele>52.529174804688</ele>
        <time>2012-04-16T14:12:08Z</time>
      </trkpt>
      <trkpt lat="48.06715" lon="-2.96817">
        <ele>50.606567382812</ele>
        <time>2012-04-16T14:12:21Z</time>
      </trkpt>
      <trkpt lat="48.06716" lon="-2.96824">
        <ele>50.1259765625</ele>
        <time>2012-04-16T14:12:25Z</time>
      </trkpt>
      <trkpt lat="48.06708" lon="-2.96833">
        <ele>48.683959960938</ele>
        <time>2012-04-16T14:12:31Z</time>
      </trkpt>
      <trkpt lat="48.0664" lon="-2.96829">
        <ele>48.203369140625</ele>
        <time>2012-04-16T14:12:51Z</time>
      </trkpt>
      <trkpt lat="48.06569" lon="-2.96851">
        <ele>50.1259765625</ele>
        <time>2012-04-16T14:13:13Z</time>
      </trkpt>
      <trkpt lat="48.06567" lon="-2.96852">
        <ele>49.645263671875</ele>
        <time>2012-04-16T14:13:24Z</time>
      </trkpt>
      <trkpt lat="48.06567" lon="-2.96852">
        <ele>49.645263671875</ele>
        <time>2012-04-16T14:16:01Z</time>
      </trkpt>
      <trkpt lat="48.06561" lon="-2.96854">
        <ele>49.645263671875</ele>
        <time>2012-04-16T14:16:08Z</time>
      </trkpt>
      <trkpt lat="48.06549" lon="-2.96845">
        <ele>49.16455078125</ele>
        <time>2012-04-16T14:16:14Z</time>
      </trkpt>
      <trkpt lat="48.06634" lon="-2.96828">
        <ele>47.722534179688</ele>
        <time>2012-04-16T14:16:33Z</time>
      </trkpt>
      <trkpt lat="48.06696" lon="-2.96836">
        <ele>47.722534179688</ele>
        <time>2012-04-16T14:16:46Z</time>
      </trkpt>
      <trkpt lat="48.06712" lon="-2.96833">
        <ele>48.203369140625</ele>
        <time>2012-04-16T14:16:51Z</time>
      </trkpt>
      <trkpt lat="48.06712" lon="-2.96833">
        <ele>48.683959960938</ele>
        <time>2012-04-16T14:16:55Z</time>
      </trkpt>
      <trkpt lat="48.06731" lon="-2.96846">
        <ele>48.203369140625</ele>
        <time>2012-04-16T14:16:57Z</time>
      </trkpt>
      <trkpt lat="48.06754" lon="-2.96848">
        <ele>48.203369140625</ele>
        <time>2012-04-16T14:17:02Z</time>
      </trkpt>
      <trkpt lat="48.06777" lon="-2.96842">
        <ele>48.683959960938</ele>
        <time>2012-04-16T14:17:08Z</time>
      </trkpt>
      <trkpt lat="48.06849" lon="-2.96805">
        <ele>47.722534179688</ele>
        <time>2012-04-16T14:17:28Z</time>
      </trkpt>
      <trkpt lat="48.06858" lon="-2.9679">
        <ele>46.76123046875</ele>
        <time>2012-04-16T14:17:41Z</time>
      </trkpt>
      <trkpt lat="48.06896" lon="-2.96729">
        <ele>47.241821289062</ele>
        <time>2012-04-16T14:18:00Z</time>
      </trkpt>
      <trkpt lat="48.06919" lon="-2.9669">
        <ele>46.280639648438</ele>
        <time>2012-04-16T14:18:08Z</time>
      </trkpt>
      <trkpt lat="48.06929" lon="-2.96676">
        <ele>45.799926757812</ele>
        <time>2012-04-16T14:18:11Z</time>
      </trkpt>
      <trkpt lat="48.06999" lon="-2.96626">
        <ele>46.76123046875</ele>
        <time>2012-04-16T14:18:32Z</time>
      </trkpt>
      <trkpt lat="48.07016" lon="-2.96614">
        <ele>47.241821289062</ele>
        <time>2012-04-16T14:18:40Z</time>
      </trkpt>
      <trkpt lat="48.0702" lon="-2.96629">
        <ele>48.203369140625</ele>
        <time>2012-04-16T14:18:45Z</time>
      </trkpt>
      <trkpt lat="48.0703" lon="-2.9665">
        <ele>48.683959960938</ele>
        <time>2012-04-16T14:18:51Z</time>
      </trkpt>
      <trkpt lat="48.0703" lon="-2.9665">
        <ele>48.203369140625</ele>
        <time>2012-04-16T14:19:06Z</time>
      </trkpt>
      <trkpt lat="48.0703" lon="-2.9665">
        <ele>48.203369140625</ele>
        <time>2012-04-16T14:19:19Z</time>
      </trkpt>
      <trkpt lat="48.0703" lon="-2.9665">
        <ele>48.683959960938</ele>
        <time>2012-04-16T14:19:41Z</time>
      </trkpt>
      <trkpt lat="48.07047" lon="-2.96655">
        <ele>48.203369140625</ele>
        <time>2012-04-16T14:19:47Z</time>
      </trkpt>
      <trkpt lat="48.07051" lon="-2.96657">
        <ele>48.683959960938</ele>
        <time>2012-04-16T14:19:51Z</time>
      </trkpt>
      <trkpt lat="48.0707" lon="-2.96573">
        <ele>47.722534179688</ele>
        <time>2012-04-16T14:20:03Z</time>
      </trkpt>
      <trkpt lat="48.0712" lon="-2.96535">
        <ele>46.280639648438</ele>
        <time>2012-04-16T14:20:19Z</time>
      </trkpt>
      <trkpt lat="48.0718" lon="-2.96609">
        <ele>45.799926757812</ele>
        <time>2012-04-16T14:20:32Z</time>
      </trkpt>
      <trkpt lat="48.07212" lon="-2.96662">
        <ele>50.1259765625</ele>
        <time>2012-04-16T14:20:45Z</time>
      </trkpt>
      <trkpt lat="48.0722" lon="-2.96682">
        <ele>52.529174804688</ele>
        <time>2012-04-16T14:20:50Z</time>
      </trkpt>
      <trkpt lat="48.0723" lon="-2.96683">
        <ele>53.009765625</ele>
        <time>2012-04-16T14:20:55Z</time>
      </trkpt>
      <trkpt lat="48.0724" lon="-2.96679">
        <ele>51.56787109375</ele>
        <time>2012-04-16T14:21:01Z</time>
      </trkpt>
      <trkpt lat="48.07256" lon="-2.96713">
        <ele>48.683959960938</ele>
        <time>2012-04-16T14:21:20Z</time>
      </trkpt>
      <trkpt lat="48.07264" lon="-2.96773">
        <ele>47.722534179688</ele>
        <time>2012-04-16T14:21:30Z</time>
      </trkpt>
      <trkpt lat="48.07316" lon="-2.96818">
        <ele>47.722534179688</ele>
        <time>2012-04-16T14:21:42Z</time>
      </trkpt>
      <trkpt lat="48.07404" lon="-2.9688">
        <ele>47.722534179688</ele>
        <time>2012-04-16T14:22:04Z</time>
      </trkpt>
      <trkpt lat="48.07466" lon="-2.96925">
        <ele>47.241821289062</ele>
        <time>2012-04-16T14:22:22Z</time>
      </trkpt>
      <trkpt lat="48.07521" lon="-2.96977">
        <ele>48.683959960938</ele>
        <time>2012-04-16T14:22:38Z</time>
      </trkpt>
      <trkpt lat="48.07537" lon="-2.97008">
        <ele>48.203369140625</ele>
        <time>2012-04-16T14:22:45Z</time>
      </trkpt>
      <trkpt lat="48.07544" lon="-2.97026">
        <ele>49.16455078125</ele>
        <time>2012-04-16T14:22:49Z</time>
      </trkpt>
      <trkpt lat="48.07577" lon="-2.9711">
        <ele>48.683959960938</ele>
        <time>2012-04-16T14:23:06Z</time>
      </trkpt>
      <trkpt lat="48.07606" lon="-2.97185">
        <ele>47.722534179688</ele>
        <time>2012-04-16T14:23:20Z</time>
      </trkpt>
      <trkpt lat="48.07637" lon="-2.97309">
        <ele>44.838623046875</ele>
        <time>2012-04-16T14:23:40Z</time>
      </trkpt>
      <trkpt lat="48.07639" lon="-2.97426">
        <ele>44.838623046875</ele>
        <time>2012-04-16T14:23:59Z</time>
      </trkpt>
      <trkpt lat="48.07633" lon="-2.9748">
        <ele>43.877319335938</ele>
        <time>2012-04-16T14:24:08Z</time>
      </trkpt>
      <trkpt lat="48.07631" lon="-2.97499">
        <ele>44.838623046875</ele>
        <time>2012-04-16T14:24:11Z</time>
      </trkpt>
      <trkpt lat="48.07628" lon="-2.97523">
        <ele>47.241821289062</ele>
        <time>2012-04-16T14:24:15Z</time>
      </trkpt>
      <trkpt lat="48.07573" lon="-2.97635">
        <ele>46.76123046875</ele>
        <time>2012-04-16T14:24:36Z</time>
      </trkpt>
      <trkpt lat="48.07561" lon="-2.97728">
        <ele>48.203369140625</ele>
        <time>2012-04-16T14:24:51Z</time>
      </trkpt>
      <trkpt lat="48.07553" lon="-2.97801">
        <ele>46.76123046875</ele>
        <time>2012-04-16T14:25:04Z</time>
      </trkpt>
      <trkpt lat="48.07545" lon="-2.97881">
        <ele>45.799926757812</ele>
        <time>2012-04-16T14:25:18Z</time>
      </trkpt>
      <trkpt lat="48.07535" lon="-2.97984">
        <ele>47.241821289062</ele>
        <time>2012-04-16T14:25:35Z</time>
      </trkpt>
      <trkpt lat="48.07524" lon="-2.98086">
        <ele>47.722534179688</ele>
        <time>2012-04-16T14:25:52Z</time>
      </trkpt>
      <trkpt lat="48.07526" lon="-2.9818">
        <ele>44.358032226562</ele>
        <time>2012-04-16T14:26:07Z</time>
      </trkpt>
      <trkpt lat="48.07533" lon="-2.98211">
        <ele>45.319213867188</ele>
        <time>2012-04-16T14:26:12Z</time>
      </trkpt>
      <trkpt lat="48.07548" lon="-2.98281">
        <ele>47.722534179688</ele>
        <time>2012-04-16T14:26:23Z</time>
      </trkpt>
      <trkpt lat="48.0756" lon="-2.98326">
        <ele>48.683959960938</ele>
        <time>2012-04-16T14:26:30Z</time>
      </trkpt>
      <trkpt lat="48.07582" lon="-2.98362">
        <ele>48.683959960938</ele>
        <time>2012-04-16T14:26:38Z</time>
      </trkpt>
      <trkpt lat="48.07642" lon="-2.98458">
        <ele>50.1259765625</ele>
        <time>2012-04-16T14:26:57Z</time>
      </trkpt>
      <trkpt lat="48.07664" lon="-2.98477">
        <ele>50.1259765625</ele>
        <time>2012-04-16T14:27:04Z</time>
      </trkpt>
      <trkpt lat="48.07729" lon="-2.98515">
        <ele>49.16455078125</ele>
        <time>2012-04-16T14:27:21Z</time>
      </trkpt>
      <trkpt lat="48.07775" lon="-2.98506">
        <ele>47.722534179688</ele>
        <time>2012-04-16T14:27:32Z</time>
      </trkpt>
      <trkpt lat="48.07865" lon="-2.98454">
        <ele>48.683959960938</ele>
        <time>2012-04-16T14:27:56Z</time>
      </trkpt>
      <trkpt lat="48.07932" lon="-2.98428">
        <ele>50.1259765625</ele>
        <time>2012-04-16T14:28:13Z</time>
      </trkpt>
      <trkpt lat="48.08033" lon="-2.98392">
        <ele>52.529174804688</ele>
        <time>2012-04-16T14:28:38Z</time>
      </trkpt>
      <trkpt lat="48.08103" lon="-2.98369">
        <ele>52.529174804688</ele>
        <time>2012-04-16T14:28:55Z</time>
      </trkpt>
      <trkpt lat="48.08193" lon="-2.98362">
        <ele>51.087158203125</ele>
        <time>2012-04-16T14:29:17Z</time>
      </trkpt>
      <trkpt lat="48.08289" lon="-2.98363">
        <ele>52.048583984375</ele>
        <time>2012-04-16T14:29:41Z</time>
      </trkpt>
      <trkpt lat="48.08373" lon="-2.98366">
        <ele>52.048583984375</ele>
        <time>2012-04-16T14:30:01Z</time>
      </trkpt>
      <trkpt lat="48.0843" lon="-2.98369">
        <ele>51.56787109375</ele>
        <time>2012-04-16T14:30:15Z</time>
      </trkpt>
      <trkpt lat="48.08496" lon="-2.98407">
        <ele>52.529174804688</ele>
        <time>2012-04-16T14:30:31Z</time>
      </trkpt>
      <trkpt lat="48.08609" lon="-2.98493">
        <ele>52.529174804688</ele>
        <time>2012-04-16T14:31:00Z</time>
      </trkpt>
      <trkpt lat="48.08718" lon="-2.98576">
        <ele>53.009765625</ele>
        <time>2012-04-16T14:31:28Z</time>
      </trkpt>
      <trkpt lat="48.08802" lon="-2.98613">
        <ele>52.529174804688</ele>
        <time>2012-04-16T14:31:48Z</time>
      </trkpt>
      <trkpt lat="48.08886" lon="-2.98686">
        <ele>52.529174804688</ele>
        <time>2012-04-16T14:32:11Z</time>
      </trkpt>
      <trkpt lat="48.08982" lon="-2.98772">
        <ele>52.529174804688</ele>
        <time>2012-04-16T14:32:37Z</time>
      </trkpt>
      <trkpt lat="48.0907" lon="-2.98867">
        <ele>53.009765625</ele>
        <time>2012-04-16T14:33:02Z</time>
      </trkpt>
      <trkpt lat="48.09143" lon="-2.98955">
        <ele>53.97119140625</ele>
        <time>2012-04-16T14:33:26Z</time>
      </trkpt>
      <trkpt lat="48.09214" lon="-2.99005">
        <ele>53.97119140625</ele>
        <time>2012-04-16T14:33:48Z</time>
      </trkpt>
      <trkpt lat="48.09261" lon="-2.9901">
        <ele>54.451782226562</ele>
        <time>2012-04-16T14:33:59Z</time>
      </trkpt>
      <trkpt lat="48.09369" lon="-2.99007">
        <ele>53.009765625</ele>
        <time>2012-04-16T14:34:25Z</time>
      </trkpt>
      <trkpt lat="48.09458" lon="-2.99026">
        <ele>52.529174804688</ele>
        <time>2012-04-16T14:34:46Z</time>
      </trkpt>
      <trkpt lat="48.09557" lon="-2.99064">
        <ele>52.529174804688</ele>
        <time>2012-04-16T14:35:10Z</time>
      </trkpt>
      <trkpt lat="48.09654" lon="-2.99135">
        <ele>53.009765625</ele>
        <time>2012-04-16T14:35:36Z</time>
      </trkpt>
      <trkpt lat="48.09727" lon="-2.99223">
        <ele>53.490478515625</ele>
        <time>2012-04-16T14:35:58Z</time>
      </trkpt>
      <trkpt lat="48.09821" lon="-2.9936">
        <ele>53.490478515625</ele>
        <time>2012-04-16T14:36:29Z</time>
      </trkpt>
      <trkpt lat="48.0991" lon="-2.99493">
        <ele>51.56787109375</ele>
        <time>2012-04-16T14:36:59Z</time>
      </trkpt>
      <trkpt lat="48.09965" lon="-2.99531">
        <ele>51.56787109375</ele>
        <time>2012-04-16T14:37:13Z</time>
      </trkpt>
      <trkpt lat="48.1007" lon="-2.99601">
        <ele>52.048583984375</ele>
        <time>2012-04-16T14:37:40Z</time>
      </trkpt>
      <trkpt lat="48.10184" lon="-2.99699">
        <ele>52.048583984375</ele>
        <time>2012-04-16T14:38:10Z</time>
      </trkpt>
      <trkpt lat="48.1029" lon="-2.9979">
        <ele>52.048583984375</ele>
        <time>2012-04-16T14:38:37Z</time>
      </trkpt>
      <trkpt lat="48.10383" lon="-2.99883">
        <ele>53.009765625</ele>
        <time>2012-04-16T14:39:02Z</time>
      </trkpt>
      <trkpt lat="48.10448" lon="-2.99968">
        <ele>54.451782226562</ele>
        <time>2012-04-16T14:39:21Z</time>
      </trkpt>
      <trkpt lat="48.1049" lon="-3.00026">
        <ele>55.4130859375</ele>
        <time>2012-04-16T14:39:34Z</time>
      </trkpt>
      <trkpt lat="48.10496" lon="-3.00034">
        <ele>55.893798828125</ele>
        <time>2012-04-16T14:39:36Z</time>
      </trkpt>
      <trkpt lat="48.10572" lon="-3.00106">
        <ele>54.451782226562</ele>
        <time>2012-04-16T14:39:55Z</time>
      </trkpt>
      <trkpt lat="48.10643" lon="-3.00202">
        <ele>53.490478515625</ele>
        <time>2012-04-16T14:40:17Z</time>
      </trkpt>
      <trkpt lat="48.10698" lon="-3.00275">
        <ele>53.009765625</ele>
        <time>2012-04-16T14:40:35Z</time>
      </trkpt>
      <trkpt lat="48.10775" lon="-3.00352">
        <ele>55.4130859375</ele>
        <time>2012-04-16T14:40:57Z</time>
      </trkpt>
      <trkpt lat="48.10852" lon="-3.00399">
        <ele>53.97119140625</ele>
        <time>2012-04-16T14:41:16Z</time>
      </trkpt>
      <trkpt lat="48.10886" lon="-3.00417">
        <ele>54.451782226562</ele>
        <time>2012-04-16T14:41:24Z</time>
      </trkpt>
      <trkpt lat="48.10967" lon="-3.00422">
        <ele>53.009765625</ele>
        <time>2012-04-16T14:41:42Z</time>
      </trkpt>
      <trkpt lat="48.10976" lon="-3.00419">
        <ele>52.529174804688</ele>
        <time>2012-04-16T14:41:44Z</time>
      </trkpt>
      <trkpt lat="48.11029" lon="-3.00402">
        <ele>50.1259765625</ele>
        <time>2012-04-16T14:41:57Z</time>
      </trkpt>
      <trkpt lat="48.11067" lon="-3.00388">
        <ele>48.203369140625</ele>
        <time>2012-04-16T14:42:06Z</time>
      </trkpt>
      <trkpt lat="48.11111" lon="-3.0036">
        <ele>46.280639648438</ele>
        <time>2012-04-16T14:42:17Z</time>
      </trkpt>
      <trkpt lat="48.11172" lon="-3.0031">
        <ele>47.241821289062</ele>
        <time>2012-04-16T14:42:34Z</time>
      </trkpt>
      <trkpt lat="48.11247" lon="-3.00235">
        <ele>47.722534179688</ele>
        <time>2012-04-16T14:42:56Z</time>
      </trkpt>
      <trkpt lat="48.11286" lon="-3.00169">
        <ele>49.645263671875</ele>
        <time>2012-04-16T14:43:10Z</time>
      </trkpt>
      <trkpt lat="48.11295" lon="-3.00112">
        <ele>52.529174804688</ele>
        <time>2012-04-16T14:43:23Z</time>
      </trkpt>
      <trkpt lat="48.11311" lon="-3.00009">
        <ele>53.490478515625</ele>
        <time>2012-04-16T14:43:43Z</time>
      </trkpt>
      <trkpt lat="48.11327" lon="-2.99826">
        <ele>53.97119140625</ele>
        <time>2012-04-16T14:44:14Z</time>
      </trkpt>
      <trkpt lat="48.11344" lon="-2.99684">
        <ele>53.97119140625</ele>
        <time>2012-04-16T14:44:36Z</time>
      </trkpt>
      <trkpt lat="48.11356" lon="-2.99615">
        <ele>53.490478515625</ele>
        <time>2012-04-16T14:44:47Z</time>
      </trkpt>
      <trkpt lat="48.11389" lon="-2.99554">
        <ele>54.451782226562</ele>
        <time>2012-04-16T14:45:03Z</time>
      </trkpt>
      <trkpt lat="48.11389" lon="-2.99553">
        <ele>53.97119140625</ele>
        <time>2012-04-16T14:45:18Z</time>
      </trkpt>
      <trkpt lat="48.11515" lon="-2.99441">
        <ele>53.97119140625</ele>
        <time>2012-04-16T14:45:42Z</time>
      </trkpt>
      <trkpt lat="48.11535" lon="-2.99422">
        <ele>53.490478515625</ele>
        <time>2012-04-16T14:45:48Z</time>
      </trkpt>
      <trkpt lat="48.11608" lon="-2.99351">
        <ele>53.490478515625</ele>
        <time>2012-04-16T14:46:09Z</time>
      </trkpt>
      <trkpt lat="48.11622" lon="-2.99339">
        <ele>53.97119140625</ele>
        <time>2012-04-16T14:46:18Z</time>
      </trkpt>
      <trkpt lat="48.11622" lon="-2.99339">
        <ele>54.451782226562</ele>
        <time>2012-04-16T14:47:40Z</time>
      </trkpt>
      <trkpt lat="48.1164" lon="-2.9933">
        <ele>57.335815429688</ele>
        <time>2012-04-16T14:49:42Z</time>
      </trkpt>
      <trkpt lat="48.11697" lon="-2.99289">
        <ele>59.258422851562</ele>
        <time>2012-04-16T14:49:58Z</time>
      </trkpt>
      <trkpt lat="48.11766" lon="-2.99296">
        <ele>58.297119140625</ele>
        <time>2012-04-16T14:50:14Z</time>
      </trkpt>
      <trkpt lat="48.11835" lon="-2.99308">
        <ele>55.893798828125</ele>
        <time>2012-04-16T14:50:31Z</time>
      </trkpt>
      <trkpt lat="48.11885" lon="-2.99325">
        <ele>55.4130859375</ele>
        <time>2012-04-16T14:50:43Z</time>
      </trkpt>
      <trkpt lat="48.11939" lon="-2.99359">
        <ele>56.37451171875</ele>
        <time>2012-04-16T14:50:57Z</time>
      </trkpt>
      <trkpt lat="48.11974" lon="-2.99384">
        <ele>55.893798828125</ele>
        <time>2012-04-16T14:51:06Z</time>
      </trkpt>
      <trkpt lat="48.12027" lon="-2.99433">
        <ele>55.893798828125</ele>
        <time>2012-04-16T14:51:20Z</time>
      </trkpt>
      <trkpt lat="48.12101" lon="-2.99462">
        <ele>56.37451171875</ele>
        <time>2012-04-16T14:51:38Z</time>
      </trkpt>
      <trkpt lat="48.12184" lon="-2.99476">
        <ele>56.855102539062</ele>
        <time>2012-04-16T14:52:01Z</time>
      </trkpt>
      <trkpt lat="48.12216" lon="-2.99484">
        <ele>56.855102539062</ele>
        <time>2012-04-16T14:52:13Z</time>
      </trkpt>
      <trkpt lat="48.1222" lon="-2.99484">
        <ele>56.855102539062</ele>
        <time>2012-04-16T14:52:15Z</time>
      </trkpt>
      <trkpt lat="48.12239" lon="-2.99473">
        <ele>56.37451171875</ele>
        <time>2012-04-16T14:52:23Z</time>
      </trkpt>
      <trkpt lat="48.12285" lon="-2.99543">
        <ele>55.893798828125</ele>
        <time>2012-04-16T14:52:35Z</time>
      </trkpt>
      <trkpt lat="48.12343" lon="-2.99618">
        <ele>56.37451171875</ele>
        <time>2012-04-16T14:52:52Z</time>
      </trkpt>
      <trkpt lat="48.12367" lon="-2.99751">
        <ele>55.4130859375</ele>
        <time>2012-04-16T14:53:11Z</time>
      </trkpt>
      <trkpt lat="48.12374" lon="-2.99899">
        <ele>54.932373046875</ele>
        <time>2012-04-16T14:53:32Z</time>
      </trkpt>
      <trkpt lat="48.1237" lon="-2.99923">
        <ele>55.4130859375</ele>
        <time>2012-04-16T14:53:36Z</time>
      </trkpt>
      <trkpt lat="48.12367" lon="-2.9994">
        <ele>55.4130859375</ele>
        <time>2012-04-16T14:53:39Z</time>
      </trkpt>
      <trkpt lat="48.1235" lon="-3.00014">
        <ele>53.97119140625</ele>
        <time>2012-04-16T14:53:51Z</time>
      </trkpt>
      <trkpt lat="48.12336" lon="-3.00047">
        <ele>53.97119140625</ele>
        <time>2012-04-16T14:53:57Z</time>
      </trkpt>
      <trkpt lat="48.12321" lon="-3.00087">
        <ele>54.451782226562</ele>
        <time>2012-04-16T14:54:04Z</time>
      </trkpt>
      <trkpt lat="48.12302" lon="-3.00131">
        <ele>57.335815429688</ele>
        <time>2012-04-16T14:54:12Z</time>
      </trkpt>
      <trkpt lat="48.12264" lon="-3.00201">
        <ele>58.777709960938</ele>
        <time>2012-04-16T14:54:25Z</time>
      </trkpt>
      <trkpt lat="48.12258" lon="-3.00212">
        <ele>60.2197265625</ele>
        <time>2012-04-16T14:54:27Z</time>
      </trkpt>
      <trkpt lat="48.12209" lon="-3.00291">
        <ele>62.622924804688</ele>
        <time>2012-04-16T14:54:43Z</time>
      </trkpt>
      <trkpt lat="48.12176" lon="-3.00346">
        <ele>63.103637695312</ele>
        <time>2012-04-16T14:54:54Z</time>
      </trkpt>
      <trkpt lat="48.12127" lon="-3.00427">
        <ele>62.142333984375</ele>
        <time>2012-04-16T14:55:12Z</time>
      </trkpt>
      <trkpt lat="48.12121" lon="-3.00565">
        <ele>58.777709960938</ele>
        <time>2012-04-16T14:55:31Z</time>
      </trkpt>
      <trkpt lat="48.12123" lon="-3.00579">
        <ele>58.777709960938</ele>
        <time>2012-04-16T14:55:33Z</time>
      </trkpt>
      <trkpt lat="48.12127" lon="-3.00619">
        <ele>58.297119140625</ele>
        <time>2012-04-16T14:55:39Z</time>
      </trkpt>
      <trkpt lat="48.12142" lon="-3.00704">
        <ele>56.855102539062</ele>
        <time>2012-04-16T14:55:52Z</time>
      </trkpt>
      <trkpt lat="48.12149" lon="-3.00743">
        <ele>54.932373046875</ele>
        <time>2012-04-16T14:55:58Z</time>
      </trkpt>
      <trkpt lat="48.12161" lon="-3.00804">
        <ele>58.297119140625</ele>
        <time>2012-04-16T14:56:07Z</time>
      </trkpt>
      <trkpt lat="48.12162" lon="-3.0084">
        <ele>57.335815429688</ele>
        <time>2012-04-16T14:56:13Z</time>
      </trkpt>
      <trkpt lat="48.12162" lon="-3.00868">
        <ele>56.855102539062</ele>
        <time>2012-04-16T14:56:17Z</time>
      </trkpt>
      <trkpt lat="48.1216" lon="-3.00916">
        <ele>58.297119140625</ele>
        <time>2012-04-16T14:56:24Z</time>
      </trkpt>
      <trkpt lat="48.12157" lon="-3.00953">
        <ele>56.855102539062</ele>
        <time>2012-04-16T14:56:30Z</time>
      </trkpt>
      <trkpt lat="48.12153" lon="-3.01001">
        <ele>57.335815429688</ele>
        <time>2012-04-16T14:56:39Z</time>
      </trkpt>
      <trkpt lat="48.12153" lon="-3.01004">
        <ele>56.855102539062</ele>
        <time>2012-04-16T14:56:51Z</time>
      </trkpt>
      <trkpt lat="48.12153" lon="-3.01004">
        <ele>56.855102539062</ele>
        <time>2012-04-16T14:58:09Z</time>
      </trkpt>
      <trkpt lat="48.12153" lon="-3.01004">
        <ele>56.855102539062</ele>
        <time>2012-04-16T14:59:10Z</time>
      </trkpt>
      <trkpt lat="48.12153" lon="-3.01004">
        <ele>57.816528320312</ele>
        <time>2012-04-16T15:14:29Z</time>
      </trkpt>
      <trkpt lat="48.12148" lon="-3.0106">
        <ele>59.739135742188</ele>
        <time>2012-04-16T15:14:44Z</time>
      </trkpt>
      <trkpt lat="48.12146" lon="-3.01114">
        <ele>60.700317382812</ele>
        <time>2012-04-16T15:14:56Z</time>
      </trkpt>
      <trkpt lat="48.12159" lon="-3.012">
        <ele>59.258422851562</ele>
        <time>2012-04-16T15:15:12Z</time>
      </trkpt>
      <trkpt lat="48.12196" lon="-3.01294">
        <ele>59.258422851562</ele>
        <time>2012-04-16T15:15:31Z</time>
      </trkpt>
      <trkpt lat="48.12237" lon="-3.01349">
        <ele>58.297119140625</ele>
        <time>2012-04-16T15:15:46Z</time>
      </trkpt>
      <trkpt lat="48.12283" lon="-3.01401">
        <ele>57.335815429688</ele>
        <time>2012-04-16T15:16:02Z</time>
      </trkpt>
      <trkpt lat="48.1232" lon="-3.01436">
        <ele>57.335815429688</ele>
        <time>2012-04-16T15:16:15Z</time>
      </trkpt>
      <trkpt lat="48.1235" lon="-3.01461">
        <ele>55.4130859375</ele>
        <time>2012-04-16T15:16:25Z</time>
      </trkpt>
      <trkpt lat="48.12385" lon="-3.01488">
        <ele>54.451782226562</ele>
        <time>2012-04-16T15:16:37Z</time>
      </trkpt>
      <trkpt lat="48.12426" lon="-3.01516">
        <ele>55.893798828125</ele>
        <time>2012-04-16T15:16:52Z</time>
      </trkpt>
      <trkpt lat="48.12458" lon="-3.01526">
        <ele>53.97119140625</ele>
        <time>2012-04-16T15:17:04Z</time>
      </trkpt>
      <trkpt lat="48.1247" lon="-3.01528">
        <ele>53.97119140625</ele>
        <time>2012-04-16T15:17:11Z</time>
      </trkpt>
      <trkpt lat="48.12472" lon="-3.01528">
        <ele>53.97119140625</ele>
        <time>2012-04-16T15:17:12Z</time>
      </trkpt>
      <trkpt lat="48.12484" lon="-3.01529">
        <ele>54.932373046875</ele>
        <time>2012-04-16T15:17:16Z</time>
      </trkpt>
      <trkpt lat="48.12525" lon="-3.01535">
        <ele>56.37451171875</ele>
        <time>2012-04-16T15:17:27Z</time>
      </trkpt>
      <trkpt lat="48.12571" lon="-3.01527">
        <ele>57.335815429688</ele>
        <time>2012-04-16T15:17:39Z</time>
      </trkpt>
      <trkpt lat="48.12642" lon="-3.01509">
        <ele>58.297119140625</ele>
        <time>2012-04-16T15:17:59Z</time>
      </trkpt>
      <trkpt lat="48.12707" lon="-3.01484">
        <ele>57.816528320312</ele>
        <time>2012-04-16T15:18:18Z</time>
      </trkpt>
      <trkpt lat="48.12756" lon="-3.01455">
        <ele>58.777709960938</ele>
        <time>2012-04-16T15:18:33Z</time>
      </trkpt>
      <trkpt lat="48.12815" lon="-3.01397">
        <ele>59.258422851562</ele>
        <time>2012-04-16T15:18:53Z</time>
      </trkpt>
      <trkpt lat="48.12832" lon="-3.01359">
        <ele>60.2197265625</ele>
        <time>2012-04-16T15:19:04Z</time>
      </trkpt>
      <trkpt lat="48.12845" lon="-3.01298">
        <ele>60.700317382812</ele>
        <time>2012-04-16T15:19:18Z</time>
      </trkpt>
      <trkpt lat="48.12874" lon="-3.01229">
        <ele>62.142333984375</ele>
        <time>2012-04-16T15:19:33Z</time>
      </trkpt>
      <trkpt lat="48.12902" lon="-3.01186">
        <ele>60.2197265625</ele>
        <time>2012-04-16T15:19:44Z</time>
      </trkpt>
      <trkpt lat="48.12921" lon="-3.0116">
        <ele>58.297119140625</ele>
        <time>2012-04-16T15:19:52Z</time>
      </trkpt>
      <trkpt lat="48.12953" lon="-3.01112">
        <ele>58.777709960938</ele>
        <time>2012-04-16T15:20:03Z</time>
      </trkpt>
      <trkpt lat="48.12964" lon="-3.01087">
        <ele>56.855102539062</ele>
        <time>2012-04-16T15:20:09Z</time>
      </trkpt>
      <trkpt lat="48.12985" lon="-3.01041">
        <ele>56.855102539062</ele>
        <time>2012-04-16T15:20:21Z</time>
      </trkpt>
      <trkpt lat="48.13012" lon="-3.0097">
        <ele>57.335815429688</ele>
        <time>2012-04-16T15:20:36Z</time>
      </trkpt>
      <trkpt lat="48.13016" lon="-3.00907">
        <ele>59.258422851562</ele>
        <time>2012-04-16T15:20:49Z</time>
      </trkpt>
      <trkpt lat="48.13017" lon="-3.00891">
        <ele>58.297119140625</ele>
        <time>2012-04-16T15:20:52Z</time>
      </trkpt>
      <trkpt lat="48.1302" lon="-3.00849">
        <ele>57.335815429688</ele>
        <time>2012-04-16T15:21:01Z</time>
      </trkpt>
      <trkpt lat="48.13023" lon="-3.00805">
        <ele>57.335815429688</ele>
        <time>2012-04-16T15:21:09Z</time>
      </trkpt>
      <trkpt lat="48.13027" lon="-3.00743">
        <ele>55.893798828125</ele>
        <time>2012-04-16T15:21:21Z</time>
      </trkpt>
      <trkpt lat="48.13028" lon="-3.00723">
        <ele>54.932373046875</ele>
        <time>2012-04-16T15:21:25Z</time>
      </trkpt>
      <trkpt lat="48.13038" lon="-3.00658">
        <ele>55.893798828125</ele>
        <time>2012-04-16T15:21:37Z</time>
      </trkpt>
      <trkpt lat="48.13046" lon="-3.00605">
        <ele>54.932373046875</ele>
        <time>2012-04-16T15:21:50Z</time>
      </trkpt>
      <trkpt lat="48.1306" lon="-3.0052">
        <ele>54.932373046875</ele>
        <time>2012-04-16T15:22:03Z</time>
      </trkpt>
      <trkpt lat="48.13097" lon="-3.00419">
        <ele>58.777709960938</ele>
        <time>2012-04-16T15:22:23Z</time>
      </trkpt>
      <trkpt lat="48.13105" lon="-3.00409">
        <ele>59.258422851562</ele>
        <time>2012-04-16T15:22:32Z</time>
      </trkpt>
      <trkpt lat="48.13123" lon="-3.00382">
        <ele>60.2197265625</ele>
        <time>2012-04-16T15:22:46Z</time>
      </trkpt>
      <trkpt lat="48.13144" lon="-3.00352">
        <ele>62.622924804688</ele>
        <time>2012-04-16T15:22:56Z</time>
      </trkpt>
      <trkpt lat="48.1318" lon="-3.00301">
        <ele>65.0263671875</ele>
        <time>2012-04-16T15:23:10Z</time>
      </trkpt>
      <trkpt lat="48.13205" lon="-3.00275">
        <ele>65.507080078125</ele>
        <time>2012-04-16T15:23:17Z</time>
      </trkpt>
      <trkpt lat="48.1326" lon="-3.00244">
        <ele>65.987670898438</ele>
        <time>2012-04-16T15:23:31Z</time>
      </trkpt>
      <trkpt lat="48.13324" lon="-3.00222">
        <ele>65.507080078125</ele>
        <time>2012-04-16T15:23:46Z</time>
      </trkpt>
      <trkpt lat="48.13383" lon="-3.00218">
        <ele>63.584350585938</ele>
        <time>2012-04-16T15:24:01Z</time>
      </trkpt>
      <trkpt lat="48.13399" lon="-3.00228">
        <ele>61.181030273438</ele>
        <time>2012-04-16T15:24:05Z</time>
      </trkpt>
      <trkpt lat="48.13444" lon="-3.00259">
        <ele>58.297119140625</ele>
        <time>2012-04-16T15:24:17Z</time>
      </trkpt>
      <trkpt lat="48.13477" lon="-3.00297">
        <ele>57.816528320312</ele>
        <time>2012-04-16T15:24:27Z</time>
      </trkpt>
      <trkpt lat="48.13509" lon="-3.00341">
        <ele>57.816528320312</ele>
        <time>2012-04-16T15:24:37Z</time>
      </trkpt>
      <trkpt lat="48.13518" lon="-3.00354">
        <ele>57.816528320312</ele>
        <time>2012-04-16T15:24:40Z</time>
      </trkpt>
      <trkpt lat="48.13586" lon="-3.00443">
        <ele>60.2197265625</ele>
        <time>2012-04-16T15:25:01Z</time>
      </trkpt>
      <trkpt lat="48.13621" lon="-3.00517">
        <ele>61.661743164062</ele>
        <time>2012-04-16T15:25:16Z</time>
      </trkpt>
      <trkpt lat="48.13636" lon="-3.00604">
        <ele>60.2197265625</ele>
        <time>2012-04-16T15:25:31Z</time>
      </trkpt>
      <trkpt lat="48.13647" lon="-3.00687">
        <ele>56.855102539062</ele>
        <time>2012-04-16T15:25:45Z</time>
      </trkpt>
      <trkpt lat="48.13641" lon="-3.00785">
        <ele>55.893798828125</ele>
        <time>2012-04-16T15:26:01Z</time>
      </trkpt>
      <trkpt lat="48.13637" lon="-3.00854">
        <ele>54.932373046875</ele>
        <time>2012-04-16T15:26:12Z</time>
      </trkpt>
      <trkpt lat="48.13635" lon="-3.00878">
        <ele>54.932373046875</ele>
        <time>2012-04-16T15:26:16Z</time>
      </trkpt>
      <trkpt lat="48.13639" lon="-3.0093">
        <ele>55.893798828125</ele>
        <time>2012-04-16T15:26:24Z</time>
      </trkpt>
      <trkpt lat="48.13644" lon="-3.00957">
        <ele>56.855102539062</ele>
        <time>2012-04-16T15:26:28Z</time>
      </trkpt>
      <trkpt lat="48.13687" lon="-3.01025">
        <ele>55.4130859375</ele>
        <time>2012-04-16T15:26:42Z</time>
      </trkpt>
      <trkpt lat="48.13701" lon="-3.0104">
        <ele>54.451782226562</ele>
        <time>2012-04-16T15:26:46Z</time>
      </trkpt>
      <trkpt lat="48.13733" lon="-3.01069">
        <ele>55.893798828125</ele>
        <time>2012-04-16T15:26:54Z</time>
      </trkpt>
      <trkpt lat="48.13786" lon="-3.01103">
        <ele>56.37451171875</ele>
        <time>2012-04-16T15:27:06Z</time>
      </trkpt>
      <trkpt lat="48.13842" lon="-3.01094">
        <ele>57.816528320312</ele>
        <time>2012-04-16T15:27:20Z</time>
      </trkpt>
      <trkpt lat="48.13858" lon="-3.01081">
        <ele>57.816528320312</ele>
        <time>2012-04-16T15:27:24Z</time>
      </trkpt>
      <trkpt lat="48.1391" lon="-3.01037">
        <ele>58.297119140625</ele>
        <time>2012-04-16T15:27:39Z</time>
      </trkpt>
      <trkpt lat="48.13969" lon="-3.0098">
        <ele>59.258422851562</ele>
        <time>2012-04-16T15:27:56Z</time>
      </trkpt>
      <trkpt lat="48.14026" lon="-3.00925">
        <ele>60.700317382812</ele>
        <time>2012-04-16T15:28:12Z</time>
      </trkpt>
      <trkpt lat="48.14063" lon="-3.00878">
        <ele>61.661743164062</ele>
        <time>2012-04-16T15:28:24Z</time>
      </trkpt>
      <trkpt lat="48.14073" lon="-3.00865">
        <ele>61.661743164062</ele>
        <time>2012-04-16T15:28:27Z</time>
      </trkpt>
      <trkpt lat="48.14116" lon="-3.00808">
        <ele>63.584350585938</ele>
        <time>2012-04-16T15:28:41Z</time>
      </trkpt>
      <trkpt lat="48.14122" lon="-3.00799">
        <ele>63.103637695312</ele>
        <time>2012-04-16T15:28:43Z</time>
      </trkpt>
      <trkpt lat="48.14135" lon="-3.00782">
        <ele>62.622924804688</ele>
        <time>2012-04-16T15:28:47Z</time>
      </trkpt>
      <trkpt lat="48.14182" lon="-3.00742">
        <ele>61.181030273438</ele>
        <time>2012-04-16T15:29:02Z</time>
      </trkpt>
      <trkpt lat="48.142" lon="-3.00721">
        <ele>62.622924804688</ele>
        <time>2012-04-16T15:32:08Z</time>
      </trkpt>
      <trkpt lat="48.14213" lon="-3.0069">
        <ele>62.622924804688</ele>
        <time>2012-04-16T15:32:15Z</time>
      </trkpt>
      <trkpt lat="48.14232" lon="-3.00648">
        <ele>60.700317382812</ele>
        <time>2012-04-16T15:32:24Z</time>
      </trkpt>
      <trkpt lat="48.14264" lon="-3.00571">
        <ele>63.103637695312</ele>
        <time>2012-04-16T15:32:40Z</time>
      </trkpt>
      <trkpt lat="48.14274" lon="-3.00547">
        <ele>62.622924804688</ele>
        <time>2012-04-16T15:32:48Z</time>
      </trkpt>
      <trkpt lat="48.14286" lon="-3.00519">
        <ele>63.103637695312</ele>
        <time>2012-04-16T15:33:00Z</time>
      </trkpt>
      <trkpt lat="48.14304" lon="-3.00485">
        <ele>62.142333984375</ele>
        <time>2012-04-16T15:33:12Z</time>
      </trkpt>
      <trkpt lat="48.14319" lon="-3.00455">
        <ele>61.661743164062</ele>
        <time>2012-04-16T15:33:22Z</time>
      </trkpt>
      <trkpt lat="48.14368" lon="-3.00362">
        <ele>59.258422851562</ele>
        <time>2012-04-16T15:33:42Z</time>
      </trkpt>
      <trkpt lat="48.14411" lon="-3.00278">
        <ele>60.700317382812</ele>
        <time>2012-04-16T15:33:59Z</time>
      </trkpt>
      <trkpt lat="48.14445" lon="-3.00251">
        <ele>60.2197265625</ele>
        <time>2012-04-16T15:34:08Z</time>
      </trkpt>
      <trkpt lat="48.14474" lon="-3.00252">
        <ele>59.739135742188</ele>
        <time>2012-04-16T15:34:15Z</time>
      </trkpt>
      <trkpt lat="48.14484" lon="-3.00255">
        <ele>60.2197265625</ele>
        <time>2012-04-16T15:34:17Z</time>
      </trkpt>
      <trkpt lat="48.14595" lon="-3.00305">
        <ele>60.2197265625</ele>
        <time>2012-04-16T15:34:42Z</time>
      </trkpt>
      <trkpt lat="48.14625" lon="-3.00321">
        <ele>59.739135742188</ele>
        <time>2012-04-16T15:34:49Z</time>
      </trkpt>
      <trkpt lat="48.14744" lon="-3.00368">
        <ele>59.258422851562</ele>
        <time>2012-04-16T15:35:16Z</time>
      </trkpt>
      <trkpt lat="48.14815" lon="-3.0041">
        <ele>57.335815429688</ele>
        <time>2012-04-16T15:35:33Z</time>
      </trkpt>
      <trkpt lat="48.14838" lon="-3.00444">
        <ele>57.335815429688</ele>
        <time>2012-04-16T15:35:40Z</time>
      </trkpt>
      <trkpt lat="48.14878" lon="-3.00516">
        <ele>59.258422851562</ele>
        <time>2012-04-16T15:35:54Z</time>
      </trkpt>
      <trkpt lat="48.14887" lon="-3.00531">
        <ele>59.739135742188</ele>
        <time>2012-04-16T15:35:57Z</time>
      </trkpt>
      <trkpt lat="48.14952" lon="-3.00649">
        <ele>60.700317382812</ele>
        <time>2012-04-16T15:36:19Z</time>
      </trkpt>
      <trkpt lat="48.14999" lon="-3.00734">
        <ele>61.181030273438</ele>
        <time>2012-04-16T15:36:35Z</time>
      </trkpt>
      <trkpt lat="48.15055" lon="-3.00851">
        <ele>62.142333984375</ele>
        <time>2012-04-16T15:36:56Z</time>
      </trkpt>
      <trkpt lat="48.15083" lon="-3.0094">
        <ele>64.065063476562</ele>
        <time>2012-04-16T15:37:12Z</time>
      </trkpt>
      <trkpt lat="48.1509" lon="-3.0096">
        <ele>64.545654296875</ele>
        <time>2012-04-16T15:37:15Z</time>
      </trkpt>
      <trkpt lat="48.15115" lon="-3.0104">
        <ele>68.87158203125</ele>
        <time>2012-04-16T15:37:27Z</time>
      </trkpt>
      <trkpt lat="48.15149" lon="-3.01085">
        <ele>68.390869140625</ele>
        <time>2012-04-16T15:37:36Z</time>
      </trkpt>
      <trkpt lat="48.1522" lon="-3.01138">
        <ele>65.507080078125</ele>
        <time>2012-04-16T15:37:53Z</time>
      </trkpt>
      <trkpt lat="48.15274" lon="-3.01169">
        <ele>63.584350585938</ele>
        <time>2012-04-16T15:38:06Z</time>
      </trkpt>
      <trkpt lat="48.1529" lon="-3.01175">
        <ele>63.584350585938</ele>
        <time>2012-04-16T15:38:10Z</time>
      </trkpt>
      <trkpt lat="48.15351" lon="-3.01188">
        <ele>63.103637695312</ele>
        <time>2012-04-16T15:38:25Z</time>
      </trkpt>
      <trkpt lat="48.1536" lon="-3.01188">
        <ele>63.103637695312</ele>
        <time>2012-04-16T15:38:27Z</time>
      </trkpt>
      <trkpt lat="48.15396" lon="-3.0116">
        <ele>63.103637695312</ele>
        <time>2012-04-16T15:38:37Z</time>
      </trkpt>
      <trkpt lat="48.15426" lon="-3.01138">
        <ele>63.584350585938</ele>
        <time>2012-04-16T15:38:46Z</time>
      </trkpt>
      <trkpt lat="48.15485" lon="-3.01107">
        <ele>64.065063476562</ele>
        <time>2012-04-16T15:39:01Z</time>
      </trkpt>
      <trkpt lat="48.15541" lon="-3.01103">
        <ele>65.0263671875</ele>
        <time>2012-04-16T15:39:17Z</time>
      </trkpt>
      <trkpt lat="48.15618" lon="-3.01103">
        <ele>61.661743164062</ele>
        <time>2012-04-16T15:39:35Z</time>
      </trkpt>
      <trkpt lat="48.15694" lon="-3.01103">
        <ele>61.181030273438</ele>
        <time>2012-04-16T15:39:52Z</time>
      </trkpt>
      <trkpt lat="48.15773" lon="-3.01102">
        <ele>61.181030273438</ele>
        <time>2012-04-16T15:40:09Z</time>
      </trkpt>
      <trkpt lat="48.15843" lon="-3.01077">
        <ele>60.700317382812</ele>
        <time>2012-04-16T15:40:25Z</time>
      </trkpt>
      <trkpt lat="48.15894" lon="-3.01017">
        <ele>61.661743164062</ele>
        <time>2012-04-16T15:40:41Z</time>
      </trkpt>
      <trkpt lat="48.15898" lon="-3.01012">
        <ele>61.661743164062</ele>
        <time>2012-04-16T15:40:42Z</time>
      </trkpt>
      <trkpt lat="48.15901" lon="-3.00987">
        <ele>61.661743164062</ele>
        <time>2012-04-16T15:40:48Z</time>
      </trkpt>
      <trkpt lat="48.15907" lon="-3.00854">
        <ele>60.2197265625</ele>
        <time>2012-04-16T15:41:09Z</time>
      </trkpt>
      <trkpt lat="48.15892" lon="-3.00696">
        <ele>59.258422851562</ele>
        <time>2012-04-16T15:41:35Z</time>
      </trkpt>
      <trkpt lat="48.15887" lon="-3.00653">
        <ele>60.700317382812</ele>
        <time>2012-04-16T15:41:42Z</time>
      </trkpt>
      <trkpt lat="48.15858" lon="-3.00542">
        <ele>61.181030273438</ele>
        <time>2012-04-16T15:42:02Z</time>
      </trkpt>
      <trkpt lat="48.15818" lon="-3.0039">
        <ele>62.622924804688</ele>
        <time>2012-04-16T15:42:29Z</time>
      </trkpt>
      <trkpt lat="48.15816" lon="-3.00379">
        <ele>63.103637695312</ele>
        <time>2012-04-16T15:42:31Z</time>
      </trkpt>
      <trkpt lat="48.15794" lon="-3.00234">
        <ele>63.103637695312</ele>
        <time>2012-04-16T15:42:52Z</time>
      </trkpt>
      <trkpt lat="48.15825" lon="-3.00097">
        <ele>64.545654296875</ele>
        <time>2012-04-16T15:43:11Z</time>
      </trkpt>
      <trkpt lat="48.15883" lon="-3.00025">
        <ele>67.4296875</ele>
        <time>2012-04-16T15:43:26Z</time>
      </trkpt>
      <trkpt lat="48.1591" lon="-3.00005">
        <ele>66.948974609375</ele>
        <time>2012-04-16T15:43:32Z</time>
      </trkpt>
      <trkpt lat="48.15977" lon="-2.99973">
        <ele>67.4296875</ele>
        <time>2012-04-16T15:43:46Z</time>
      </trkpt>
      <trkpt lat="48.16035" lon="-2.99955">
        <ele>67.910278320312</ele>
        <time>2012-04-16T15:44:00Z</time>
      </trkpt>
      <trkpt lat="48.16101" lon="-2.99919">
        <ele>67.4296875</ele>
        <time>2012-04-16T15:44:16Z</time>
      </trkpt>
      <trkpt lat="48.16154" lon="-2.99886">
        <ele>66.948974609375</ele>
        <time>2012-04-16T15:44:30Z</time>
      </trkpt>
      <trkpt lat="48.16181" lon="-2.99869">
        <ele>67.4296875</ele>
        <time>2012-04-16T15:44:37Z</time>
      </trkpt>
      <trkpt lat="48.16245" lon="-2.99828">
        <ele>68.87158203125</ele>
        <time>2012-04-16T15:44:55Z</time>
      </trkpt>
      <trkpt lat="48.16328" lon="-2.99775">
        <ele>68.87158203125</ele>
        <time>2012-04-16T15:45:16Z</time>
      </trkpt>
      <trkpt lat="48.16378" lon="-2.99742">
        <ele>68.390869140625</ele>
        <time>2012-04-16T15:45:29Z</time>
      </trkpt>
      <trkpt lat="48.16445" lon="-2.997">
        <ele>68.390869140625</ele>
        <time>2012-04-16T15:45:46Z</time>
      </trkpt>
      <trkpt lat="48.16492" lon="-2.99669">
        <ele>70.3134765625</ele>
        <time>2012-04-16T15:46:01Z</time>
      </trkpt>
      <trkpt lat="48.16492" lon="-2.99669">
        <ele>70.3134765625</ele>
        <time>2012-04-16T15:46:03Z</time>
      </trkpt>
      <trkpt lat="48.16492" lon="-2.99669">
        <ele>69.832885742188</ele>
        <time>2012-04-16T15:46:14Z</time>
      </trkpt>
      <trkpt lat="48.16492" lon="-2.99669">
        <ele>69.832885742188</ele>
        <time>2012-04-16T15:46:19Z</time>
      </trkpt>
      <trkpt lat="48.16574" lon="-2.99586">
        <ele>69.352294921875</ele>
        <time>2012-04-16T15:46:36Z</time>
      </trkpt>
      <trkpt lat="48.16634" lon="-2.99555">
        <ele>69.352294921875</ele>
        <time>2012-04-16T15:46:53Z</time>
      </trkpt>
      <trkpt lat="48.16689" lon="-2.99525">
        <ele>68.87158203125</ele>
        <time>2012-04-16T15:47:08Z</time>
      </trkpt>
      <trkpt lat="48.16755" lon="-2.99489">
        <ele>69.832885742188</ele>
        <time>2012-04-16T15:47:25Z</time>
      </trkpt>
      <trkpt lat="48.1681" lon="-2.99459">
        <ele>70.794189453125</ele>
        <time>2012-04-16T15:47:40Z</time>
      </trkpt>
      <trkpt lat="48.16856" lon="-2.99433">
        <ele>68.390869140625</ele>
        <time>2012-04-16T15:47:53Z</time>
      </trkpt>
      <trkpt lat="48.16934" lon="-2.9939">
        <ele>68.87158203125</ele>
        <time>2012-04-16T15:48:15Z</time>
      </trkpt>
      <trkpt lat="48.17027" lon="-2.99447">
        <ele>67.4296875</ele>
        <time>2012-04-16T15:48:32Z</time>
      </trkpt>
      <trkpt lat="48.17083" lon="-2.99456">
        <ele>67.4296875</ele>
        <time>2012-04-16T15:48:46Z</time>
      </trkpt>
      <trkpt lat="48.17143" lon="-2.99516">
        <ele>66.948974609375</ele>
        <time>2012-04-16T15:49:04Z</time>
      </trkpt>
      <trkpt lat="48.17153" lon="-2.99537">
        <ele>67.4296875</ele>
        <time>2012-04-16T15:49:08Z</time>
      </trkpt>
      <trkpt lat="48.17169" lon="-2.99618">
        <ele>66.46826171875</ele>
        <time>2012-04-16T15:49:22Z</time>
      </trkpt>
      <trkpt lat="48.17176" lon="-2.9966">
        <ele>67.910278320312</ele>
        <time>2012-04-16T15:49:29Z</time>
      </trkpt>
      <trkpt lat="48.17195" lon="-2.99758">
        <ele>66.46826171875</ele>
        <time>2012-04-16T15:49:45Z</time>
      </trkpt>
      <trkpt lat="48.17211" lon="-2.99853">
        <ele>67.4296875</ele>
        <time>2012-04-16T15:50:00Z</time>
      </trkpt>
      <trkpt lat="48.17224" lon="-2.99922">
        <ele>67.4296875</ele>
        <time>2012-04-16T15:50:11Z</time>
      </trkpt>
      <trkpt lat="48.17239" lon="-2.99999">
        <ele>65.507080078125</ele>
        <time>2012-04-16T15:50:24Z</time>
      </trkpt>
      <trkpt lat="48.17256" lon="-3.00097">
        <ele>66.46826171875</ele>
        <time>2012-04-16T15:50:40Z</time>
      </trkpt>
      <trkpt lat="48.17266" lon="-3.00156">
        <ele>67.4296875</ele>
        <time>2012-04-16T15:50:49Z</time>
      </trkpt>
      <trkpt lat="48.17285" lon="-3.00258">
        <ele>66.46826171875</ele>
        <time>2012-04-16T15:51:05Z</time>
      </trkpt>
      <trkpt lat="48.17304" lon="-3.00362">
        <ele>64.545654296875</ele>
        <time>2012-04-16T15:51:22Z</time>
      </trkpt>
      <trkpt lat="48.17325" lon="-3.00478">
        <ele>65.507080078125</ele>
        <time>2012-04-16T15:51:41Z</time>
      </trkpt>
      <trkpt lat="48.17332" lon="-3.00516">
        <ele>68.390869140625</ele>
        <time>2012-04-16T15:51:53Z</time>
      </trkpt>
      <trkpt lat="48.17341" lon="-3.00563">
        <ele>69.352294921875</ele>
        <time>2012-04-16T15:52:06Z</time>
      </trkpt>
      <trkpt lat="48.17351" lon="-3.0062">
        <ele>66.948974609375</ele>
        <time>2012-04-16T15:52:17Z</time>
      </trkpt>
      <trkpt lat="48.17361" lon="-3.00662">
        <ele>66.46826171875</ele>
        <time>2012-04-16T15:52:26Z</time>
      </trkpt>
      <trkpt lat="48.17395" lon="-3.00716">
        <ele>67.4296875</ele>
        <time>2012-04-16T15:52:39Z</time>
      </trkpt>
      <trkpt lat="48.17446" lon="-3.00761">
        <ele>66.46826171875</ele>
        <time>2012-04-16T15:52:54Z</time>
      </trkpt>
      <trkpt lat="48.17504" lon="-3.00811">
        <ele>67.4296875</ele>
        <time>2012-04-16T15:53:12Z</time>
      </trkpt>
      <trkpt lat="48.17543" lon="-3.00844">
        <ele>71.27490234375</ele>
        <time>2012-04-16T15:53:25Z</time>
      </trkpt>
      <trkpt lat="48.17549" lon="-3.0085">
        <ele>72.236206054688</ele>
        <time>2012-04-16T15:53:28Z</time>
      </trkpt>
      <trkpt lat="48.17556" lon="-3.00852">
        <ele>73.197631835938</ele>
        <time>2012-04-16T15:53:32Z</time>
      </trkpt>
      <trkpt lat="48.17558" lon="-3.00855">
        <ele>73.67822265625</ele>
        <time>2012-04-16T15:53:34Z</time>
      </trkpt>
      <trkpt lat="48.17581" lon="-3.00874">
        <ele>73.67822265625</ele>
        <time>2012-04-16T15:53:48Z</time>
      </trkpt>
      <trkpt lat="48.17593" lon="-3.00885">
        <ele>73.197631835938</ele>
        <time>2012-04-16T15:54:00Z</time>
      </trkpt>
      <trkpt lat="48.17593" lon="-3.00886">
        <ele>73.197631835938</ele>
        <time>2012-04-16T15:55:55Z</time>
      </trkpt>
      <trkpt lat="48.176" lon="-3.00891">
        <ele>74.158813476562</ele>
        <time>2012-04-16T15:56:10Z</time>
      </trkpt>
      <trkpt lat="48.17599" lon="-3.00892">
        <ele>74.639526367188</ele>
        <time>2012-04-16T15:56:42Z</time>
      </trkpt>
      <trkpt lat="48.17602" lon="-3.00893">
        <ele>75.120239257812</ele>
        <time>2012-04-16T15:58:51Z</time>
      </trkpt>
      <trkpt lat="48.17638" lon="-3.00924">
        <ele>75.120239257812</ele>
        <time>2012-04-16T15:59:06Z</time>
      </trkpt>
      <trkpt lat="48.17702" lon="-3.00961">
        <ele>75.120239257812</ele>
        <time>2012-04-16T15:59:24Z</time>
      </trkpt>
      <trkpt lat="48.17772" lon="-3.00976">
        <ele>74.158813476562</ele>
        <time>2012-04-16T15:59:42Z</time>
      </trkpt>
      <trkpt lat="48.17871" lon="-3.00987">
        <ele>71.755493164062</ele>
        <time>2012-04-16T16:00:09Z</time>
      </trkpt>
      <trkpt lat="48.17984" lon="-3.01018">
        <ele>71.755493164062</ele>
        <time>2012-04-16T16:00:36Z</time>
      </trkpt>
      <trkpt lat="48.18058" lon="-3.01021">
        <ele>72.236206054688</ele>
        <time>2012-04-16T16:00:53Z</time>
      </trkpt>
      <trkpt lat="48.18155" lon="-3.0105">
        <ele>72.236206054688</ele>
        <time>2012-04-16T16:01:15Z</time>
      </trkpt>
      <trkpt lat="48.18259" lon="-3.01054">
        <ele>72.716918945312</ele>
        <time>2012-04-16T16:01:38Z</time>
      </trkpt>
      <trkpt lat="48.18356" lon="-3.01059">
        <ele>72.716918945312</ele>
        <time>2012-04-16T16:01:59Z</time>
      </trkpt>
      <trkpt lat="48.18405" lon="-3.01086">
        <ele>74.639526367188</ele>
        <time>2012-04-16T16:02:12Z</time>
      </trkpt>
      <trkpt lat="48.18495" lon="-3.01144">
        <ele>72.716918945312</ele>
        <time>2012-04-16T16:02:33Z</time>
      </trkpt>
      <trkpt lat="48.18522" lon="-3.01163">
        <ele>74.639526367188</ele>
        <time>2012-04-16T16:02:40Z</time>
      </trkpt>
      <trkpt lat="48.18613" lon="-3.01214">
        <ele>74.158813476562</ele>
        <time>2012-04-16T16:03:03Z</time>
      </trkpt>
      <trkpt lat="48.1869" lon="-3.01261">
        <ele>74.158813476562</ele>
        <time>2012-04-16T16:03:23Z</time>
      </trkpt>
      <trkpt lat="48.18769" lon="-3.01351">
        <ele>77.042846679688</ele>
        <time>2012-04-16T16:03:46Z</time>
      </trkpt>
      <trkpt lat="48.18898" lon="-3.01452">
        <ele>78.484741210938</ele>
        <time>2012-04-16T16:04:15Z</time>
      </trkpt>
      <trkpt lat="48.18956" lon="-3.01602">
        <ele>78.004028320312</ele>
        <time>2012-04-16T16:04:42Z</time>
      </trkpt>
      <trkpt lat="48.18959" lon="-3.0161">
        <ele>78.004028320312</ele>
        <time>2012-04-16T16:04:44Z</time>
      </trkpt>
      <trkpt lat="48.18993" lon="-3.01706">
        <ele>78.965454101562</ele>
        <time>2012-04-16T16:05:05Z</time>
      </trkpt>
      <trkpt lat="48.18996" lon="-3.01714">
        <ele>79.446044921875</ele>
        <time>2012-04-16T16:05:08Z</time>
      </trkpt>
      <trkpt lat="48.18998" lon="-3.01721">
        <ele>79.446044921875</ele>
        <time>2012-04-16T16:05:17Z</time>
      </trkpt>
      <trkpt lat="48.18998" lon="-3.01721">
        <ele>79.446044921875</ele>
        <time>2012-04-16T16:05:31Z</time>
      </trkpt>
      <trkpt lat="48.18975" lon="-3.01657">
        <ele>78.484741210938</ele>
        <time>2012-04-16T16:05:48Z</time>
      </trkpt>
      <trkpt lat="48.18953" lon="-3.01594">
        <ele>78.484741210938</ele>
        <time>2012-04-16T16:06:05Z</time>
      </trkpt>
      <trkpt lat="48.18928" lon="-3.01525">
        <ele>80.88818359375</ele>
        <time>2012-04-16T16:06:21Z</time>
      </trkpt>
      <trkpt lat="48.18897" lon="-3.0145">
        <ele>82.330078125</ele>
        <time>2012-04-16T16:06:41Z</time>
      </trkpt>
      <trkpt lat="48.18881" lon="-3.01418">
        <ele>83.77197265625</ele>
        <time>2012-04-16T16:06:52Z</time>
      </trkpt>
      <trkpt lat="48.18879" lon="-3.01413">
        <ele>87.6171875</ele>
        <time>2012-04-16T16:06:55Z</time>
      </trkpt>
      <trkpt lat="48.18873" lon="-3.01407">
        <ele>89.059326171875</ele>
        <time>2012-04-16T16:06:58Z</time>
      </trkpt>
      <trkpt lat="48.18868" lon="-3.01403">
        <ele>91.462524414062</ele>
        <time>2012-04-16T16:07:03Z</time>
      </trkpt>
      <trkpt lat="48.18853" lon="-3.01391">
        <ele>97.711181640625</ele>
        <time>2012-04-16T16:07:17Z</time>
      </trkpt>
      <trkpt lat="48.18849" lon="-3.01385">
        <ele>99.153076171875</ele>
        <time>2012-04-16T16:07:21Z</time>
      </trkpt>
      <trkpt lat="48.18843" lon="-3.01377">
        <ele>101.07568359375</ele>
        <time>2012-04-16T16:07:26Z</time>
      </trkpt>
      <trkpt lat="48.18831" lon="-3.01357">
        <ele>102.99829101562</ele>
        <time>2012-04-16T16:07:35Z</time>
      </trkpt>
      <trkpt lat="48.18833" lon="-3.01338">
        <ele>102.037109375</ele>
        <time>2012-04-16T16:07:40Z</time>
      </trkpt>
      <trkpt lat="48.1884" lon="-3.01317">
        <ele>102.99829101562</ele>
        <time>2012-04-16T16:07:48Z</time>
      </trkpt>
      <trkpt lat="48.18852" lon="-3.01305">
        <ele>102.99829101562</ele>
        <time>2012-04-16T16:07:56Z</time>
      </trkpt>
      <trkpt lat="48.18862" lon="-3.01295">
        <ele>102.99829101562</ele>
        <time>2012-04-16T16:08:04Z</time>
      </trkpt>
      <trkpt lat="48.1887" lon="-3.01287">
        <ele>104.92102050781</ele>
        <time>2012-04-16T16:08:10Z</time>
      </trkpt>
      <trkpt lat="48.18881" lon="-3.01276">
        <ele>106.36303710938</ele>
        <time>2012-04-16T16:08:23Z</time>
      </trkpt>
      <trkpt lat="48.18881" lon="-3.01276">
        <ele>107.80505371094</ele>
        <time>2012-04-16T16:08:42Z</time>
      </trkpt>
      <trkpt lat="48.18881" lon="-3.01276">
        <ele>110.68884277344</ele>
        <time>2012-04-16T16:09:14Z</time>
      </trkpt>
      <trkpt lat="48.18881" lon="-3.01276">
        <ele>113.57299804688</ele>
        <time>2012-04-16T16:09:43Z</time>
      </trkpt>
      <trkpt lat="48.18955" lon="-3.01196">
        <ele>116.45678710938</ele>
        <time>2012-04-16T16:10:13Z</time>
      </trkpt>
      <trkpt lat="48.18955" lon="-3.01196">
        <ele>120.78283691406</ele>
        <time>2012-04-16T16:10:50Z</time>
      </trkpt>
      <trkpt lat="48.19015" lon="-3.01082">
        <ele>123.18615722656</ele>
        <time>2012-04-16T16:11:21Z</time>
      </trkpt>
      <trkpt lat="48.19015" lon="-3.01082">
        <ele>123.18615722656</ele>
        <time>2012-04-16T16:11:39Z</time>
      </trkpt>
      <trkpt lat="48.19015" lon="-3.01082">
        <ele>124.14733886719</ele>
        <time>2012-04-16T16:15:26Z</time>
      </trkpt>
      <trkpt lat="48.19037" lon="-3.01034">
        <ele>126.06994628906</ele>
        <time>2012-04-16T16:15:39Z</time>
      </trkpt>
      <trkpt lat="48.19076" lon="-3.00978">
        <ele>129.43469238281</ele>
        <time>2012-04-16T16:16:00Z</time>
      </trkpt>
      <trkpt lat="48.19113" lon="-3.00973">
        <ele>131.35729980469</ele>
        <time>2012-04-16T16:16:17Z</time>
      </trkpt>
      <trkpt lat="48.19154" lon="-3.00956">
        <ele>135.20251464844</ele>
        <time>2012-04-16T16:16:37Z</time>
      </trkpt>
      <trkpt lat="48.19205" lon="-3.00935">
        <ele>139.52844238281</ele>
        <time>2012-04-16T16:17:02Z</time>
      </trkpt>
      <trkpt lat="48.19249" lon="-3.0092">
        <ele>143.37365722656</ele>
        <time>2012-04-16T16:17:23Z</time>
      </trkpt>
      <trkpt lat="48.1929" lon="-3.00911">
        <ele>145.29638671875</ele>
        <time>2012-04-16T16:17:41Z</time>
      </trkpt>
      <trkpt lat="48.19344" lon="-3.00914">
        <ele>146.73840332031</ele>
        <time>2012-04-16T16:18:05Z</time>
      </trkpt>
      <trkpt lat="48.19389" lon="-3.00916">
        <ele>148.66101074219</ele>
        <time>2012-04-16T16:18:25Z</time>
      </trkpt>
      <trkpt lat="48.19455" lon="-3.00904">
        <ele>150.58361816406</ele>
        <time>2012-04-16T16:18:51Z</time>
      </trkpt>
      <trkpt lat="48.19495" lon="-3.00897">
        <ele>153.46765136719</ele>
        <time>2012-04-16T16:19:10Z</time>
      </trkpt>
      <trkpt lat="48.19547" lon="-3.00889">
        <ele>155.39025878906</ele>
        <time>2012-04-16T16:19:32Z</time>
      </trkpt>
      <trkpt lat="48.19552" lon="-3.00888">
        <ele>154.90954589844</ele>
        <time>2012-04-16T16:19:47Z</time>
      </trkpt>
      <trkpt lat="48.19552" lon="-3.00888">
        <ele>155.39025878906</ele>
        <time>2012-04-16T16:20:19Z</time>
      </trkpt>
      <trkpt lat="48.19565" lon="-3.00857">
        <ele>154.90954589844</ele>
        <time>2012-04-16T16:20:25Z</time>
      </trkpt>
      <trkpt lat="48.19568" lon="-3.0085">
        <ele>154.90954589844</ele>
        <time>2012-04-16T16:20:27Z</time>
      </trkpt>
      <trkpt lat="48.19603" lon="-3.00768">
        <ele>152.98693847656</ele>
        <time>2012-04-16T16:20:43Z</time>
      </trkpt>
      <trkpt lat="48.19603" lon="-3.00768">
        <ele>152.50634765625</ele>
        <time>2012-04-16T16:20:45Z</time>
      </trkpt>
      <trkpt lat="48.19626" lon="-3.00728">
        <ele>151.06420898438</ele>
        <time>2012-04-16T16:20:49Z</time>
      </trkpt>
      <trkpt lat="48.197" lon="-3.00675">
        <ele>144.81579589844</ele>
        <time>2012-04-16T16:21:05Z</time>
      </trkpt>
      <trkpt lat="48.19702" lon="-3.00673">
        <ele>144.33520507812</ele>
        <time>2012-04-16T16:21:15Z</time>
      </trkpt>
      <trkpt lat="48.19702" lon="-3.00673">
        <ele>144.33520507812</ele>
        <time>2012-04-16T16:21:33Z</time>
      </trkpt>
      <trkpt lat="48.19702" lon="-3.00642">
        <ele>144.33520507812</ele>
        <time>2012-04-16T16:21:40Z</time>
      </trkpt>
      <trkpt lat="48.19702" lon="-3.00684">
        <ele>142.89306640625</ele>
        <time>2012-04-16T16:21:53Z</time>
      </trkpt>
      <trkpt lat="48.197" lon="-3.00734">
        <ele>141.93176269531</ele>
        <time>2012-04-16T16:22:01Z</time>
      </trkpt>
      <trkpt lat="48.19716" lon="-3.00852">
        <ele>138.08654785156</ele>
        <time>2012-04-16T16:22:16Z</time>
      </trkpt>
      <trkpt lat="48.19755" lon="-3.0097">
        <ele>134.72192382812</ele>
        <time>2012-04-16T16:22:32Z</time>
      </trkpt>
      <trkpt lat="48.19764" lon="-3.01008">
        <ele>134.72192382812</ele>
        <time>2012-04-16T16:22:39Z</time>
      </trkpt>
      <trkpt lat="48.19804" lon="-3.01179">
        <ele>133.76049804688</ele>
        <time>2012-04-16T16:23:04Z</time>
      </trkpt>
      <trkpt lat="48.19808" lon="-3.01222">
        <ele>133.76049804688</ele>
        <time>2012-04-16T16:23:10Z</time>
      </trkpt>
      <trkpt lat="48.1981" lon="-3.01247">
        <ele>134.72192382812</ele>
        <time>2012-04-16T16:23:14Z</time>
      </trkpt>
      <trkpt lat="48.19814" lon="-3.01286">
        <ele>135.20251464844</ele>
        <time>2012-04-16T16:23:22Z</time>
      </trkpt>
      <trkpt lat="48.19869" lon="-3.01284">
        <ele>136.16394042969</ele>
        <time>2012-04-16T16:23:27Z</time>
      </trkpt>
      <trkpt lat="48.1988" lon="-3.01284">
        <ele>137.12524414062</ele>
        <time>2012-04-16T16:23:33Z</time>
      </trkpt>
      <trkpt lat="48.19887" lon="-3.0129">
        <ele>137.60583496094</ele>
        <time>2012-04-16T16:23:48Z</time>
      </trkpt>
      <trkpt lat="48.19885" lon="-3.0129">
        <ele>137.60583496094</ele>
        <time>2012-04-16T16:24:26Z</time>
      </trkpt>
      <trkpt lat="48.19885" lon="-3.01285">
        <ele>140.48986816406</ele>
        <time>2012-04-16T16:25:22Z</time>
      </trkpt>
      <trkpt lat="48.19889" lon="-3.01277">
        <ele>140.00915527344</ele>
        <time>2012-04-16T16:25:27Z</time>
      </trkpt>
      <trkpt lat="48.19894" lon="-3.01277">
        <ele>139.52844238281</ele>
        <time>2012-04-16T16:25:30Z</time>
      </trkpt>
      <trkpt lat="48.1991" lon="-3.01293">
        <ele>139.0478515625</ele>
        <time>2012-04-16T16:25:47Z</time>
      </trkpt>
      <trkpt lat="48.19909" lon="-3.01294">
        <ele>139.52844238281</ele>
        <time>2012-04-16T16:26:02Z</time>
      </trkpt>
      <trkpt lat="48.19919" lon="-3.01305">
        <ele>140.97045898438</ele>
        <time>2012-04-16T16:35:20Z</time>
      </trkpt>
      <trkpt lat="48.19934" lon="-3.01321">
        <ele>140.48986816406</ele>
        <time>2012-04-16T16:35:44Z</time>
      </trkpt>
      <trkpt lat="48.19934" lon="-3.0132">
        <ele>140.97045898438</ele>
        <time>2012-04-16T16:36:13Z</time>
      </trkpt>
      <trkpt lat="48.19932" lon="-3.01319">
        <ele>142.41247558594</ele>
        <time>2012-04-16T16:58:03Z</time>
      </trkpt>
    </trkseg>
  </trk>
  <trk>
    <name><![CDATA[ACTIVE LOG 007]]></name>
    <trkseg>
      <trkpt lat="48.19909" lon="-3.01323">
        <ele>147.21899414062</ele>
        <time>2012-04-17T09:21:53Z</time>
      </trkpt>
      <trkpt lat="48.19913" lon="-3.01317">
        <ele>147.69970703125</ele>
        <time>2012-04-17T09:23:32Z</time>
      </trkpt>
      <trkpt lat="48.19886" lon="-3.01283">
        <ele>144.33520507812</ele>
        <time>2012-04-17T09:23:59Z</time>
      </trkpt>
      <trkpt lat="48.19866" lon="-3.0129">
        <ele>140.00915527344</ele>
        <time>2012-04-17T09:24:16Z</time>
      </trkpt>
      <trkpt lat="48.19867" lon="-3.01294">
        <ele>139.52844238281</ele>
        <time>2012-04-17T09:24:28Z</time>
      </trkpt>
      <trkpt lat="48.19864" lon="-3.01288">
        <ele>139.52844238281</ele>
        <time>2012-04-17T09:24:33Z</time>
      </trkpt>
      <trkpt lat="48.19867" lon="-3.01277">
        <ele>139.52844238281</ele>
        <time>2012-04-17T09:24:38Z</time>
      </trkpt>
      <trkpt lat="48.1987" lon="-3.01277">
        <ele>140.00915527344</ele>
        <time>2012-04-17T09:24:59Z</time>
      </trkpt>
      <trkpt lat="48.19867" lon="-3.0128">
        <ele>140.48986816406</ele>
        <time>2012-04-17T09:26:15Z</time>
      </trkpt>
      <trkpt lat="48.19866" lon="-3.01282">
        <ele>140.97045898438</ele>
        <time>2012-04-17T09:26:28Z</time>
      </trkpt>
      <trkpt lat="48.1986" lon="-3.01285">
        <ele>140.48986816406</ele>
        <time>2012-04-17T09:26:44Z</time>
      </trkpt>
      <trkpt lat="48.19857" lon="-3.01286">
        <ele>140.48986816406</ele>
        <time>2012-04-17T09:26:46Z</time>
      </trkpt>
      <trkpt lat="48.1984" lon="-3.01267">
        <ele>139.0478515625</ele>
        <time>2012-04-17T09:26:53Z</time>
      </trkpt>
      <trkpt lat="48.19799" lon="-3.01156">
        <ele>137.60583496094</ele>
        <time>2012-04-17T09:27:10Z</time>
      </trkpt>
      <trkpt lat="48.1977" lon="-3.0103">
        <ele>140.48986816406</ele>
        <time>2012-04-17T09:27:31Z</time>
      </trkpt>
      <trkpt lat="48.19738" lon="-3.00912">
        <ele>142.89306640625</ele>
        <time>2012-04-17T09:27:51Z</time>
      </trkpt>
      <trkpt lat="48.19704" lon="-3.0081">
        <ele>147.21899414062</ele>
        <time>2012-04-17T09:28:13Z</time>
      </trkpt>
      <trkpt lat="48.19701" lon="-3.0071">
        <ele>149.62231445312</ele>
        <time>2012-04-17T09:28:32Z</time>
      </trkpt>
      <trkpt lat="48.19702" lon="-3.0059">
        <ele>148.66101074219</ele>
        <time>2012-04-17T09:28:52Z</time>
      </trkpt>
      <trkpt lat="48.1971" lon="-3.00451">
        <ele>150.58361816406</ele>
        <time>2012-04-17T09:29:15Z</time>
      </trkpt>
      <trkpt lat="48.19725" lon="-3.00395">
        <ele>151.544921875</ele>
        <time>2012-04-17T09:29:30Z</time>
      </trkpt>
      <trkpt lat="48.1976" lon="-3.00333">
        <ele>153.46765136719</ele>
        <time>2012-04-17T09:29:52Z</time>
      </trkpt>
      <trkpt lat="48.19801" lon="-3.00269">
        <ele>158.27416992188</ele>
        <time>2012-04-17T09:30:15Z</time>
      </trkpt>
      <trkpt lat="48.19868" lon="-3.00195">
        <ele>164.04211425781</ele>
        <time>2012-04-17T09:30:48Z</time>
      </trkpt>
      <trkpt lat="48.19924" lon="-3.00133">
        <ele>162.60009765625</ele>
        <time>2012-04-17T09:31:08Z</time>
      </trkpt>
      <trkpt lat="48.19995" lon="-3.00048">
        <ele>160.67749023438</ele>
        <time>2012-04-17T09:31:28Z</time>
      </trkpt>
      <trkpt lat="48.20013" lon="-3.00023">
        <ele>161.158203125</ele>
        <time>2012-04-17T09:31:40Z</time>
      </trkpt>
      <trkpt lat="48.20015" lon="-3.00019">
        <ele>161.158203125</ele>
        <time>2012-04-17T09:31:49Z</time>
      </trkpt>
      <trkpt lat="48.20031" lon="-3.00034">
        <ele>161.158203125</ele>
        <time>2012-04-17T09:32:00Z</time>
      </trkpt>
      <trkpt lat="48.20045" lon="-3.00042">
        <ele>160.67749023438</ele>
        <time>2012-04-17T09:32:03Z</time>
      </trkpt>
      <trkpt lat="48.20064" lon="-3.00046">
        <ele>160.67749023438</ele>
        <time>2012-04-17T09:32:07Z</time>
      </trkpt>
      <trkpt lat="48.20143" lon="-3.00033">
        <ele>161.63891601562</ele>
        <time>2012-04-17T09:32:27Z</time>
      </trkpt>
      <trkpt lat="48.20242" lon="-3.00036">
        <ele>161.158203125</ele>
        <time>2012-04-17T09:32:50Z</time>
      </trkpt>
      <trkpt lat="48.20334" lon="-3.00062">
        <ele>159.23547363281</ele>
        <time>2012-04-17T09:33:10Z</time>
      </trkpt>
      <trkpt lat="48.20355" lon="-3.00068">
        <ele>158.75476074219</ele>
        <time>2012-04-17T09:33:14Z</time>
      </trkpt>
      <trkpt lat="48.20405" lon="-3.00069">
        <ele>157.31286621094</ele>
        <time>2012-04-17T09:33:25Z</time>
      </trkpt>
      <trkpt lat="48.20406" lon="-3.00068">
        <ele>156.3515625</ele>
        <time>2012-04-17T09:33:33Z</time>
      </trkpt>
      <trkpt lat="48.20529" lon="-3.00075">
        <ele>153.94836425781</ele>
        <time>2012-04-17T09:33:56Z</time>
      </trkpt>
      <trkpt lat="48.20631" lon="-3.00077">
        <ele>153.94836425781</ele>
        <time>2012-04-17T09:34:18Z</time>
      </trkpt>
      <trkpt lat="48.20698" lon="-3.00099">
        <ele>157.79357910156</ele>
        <time>2012-04-17T09:34:35Z</time>
      </trkpt>
      <trkpt lat="48.20757" lon="-3.00142">
        <ele>153.94836425781</ele>
        <time>2012-04-17T09:34:50Z</time>
      </trkpt>
      <trkpt lat="48.20834" lon="-3.0023">
        <ele>150.10302734375</ele>
        <time>2012-04-17T09:35:10Z</time>
      </trkpt>
      <trkpt lat="48.20905" lon="-3.0031">
        <ele>149.62231445312</ele>
        <time>2012-04-17T09:35:29Z</time>
      </trkpt>
      <trkpt lat="48.20965" lon="-3.00378">
        <ele>150.58361816406</ele>
        <time>2012-04-17T09:35:47Z</time>
      </trkpt>
      <trkpt lat="48.21024" lon="-3.00448">
        <ele>152.02575683594</ele>
        <time>2012-04-17T09:36:07Z</time>
      </trkpt>
      <trkpt lat="48.21071" lon="-3.00504">
        <ele>152.98693847656</ele>
        <time>2012-04-17T09:36:22Z</time>
      </trkpt>
      <trkpt lat="48.21158" lon="-3.00605">
        <ele>152.50634765625</ele>
        <time>2012-04-17T09:36:49Z</time>
      </trkpt>
      <trkpt lat="48.21225" lon="-3.00614">
        <ele>152.02575683594</ele>
        <time>2012-04-17T09:37:07Z</time>
      </trkpt>
      <trkpt lat="48.2123" lon="-3.00691">
        <ele>148.66101074219</ele>
        <time>2012-04-17T09:37:24Z</time>
      </trkpt>
      <trkpt lat="48.21335" lon="-3.00813">
        <ele>146.2578125</ele>
        <time>2012-04-17T09:37:52Z</time>
      </trkpt>
      <trkpt lat="48.21416" lon="-3.00904">
        <ele>145.77709960938</ele>
        <time>2012-04-17T09:38:15Z</time>
      </trkpt>
      <trkpt lat="48.21458" lon="-3.00952">
        <ele>146.2578125</ele>
        <time>2012-04-17T09:38:28Z</time>
      </trkpt>
      <trkpt lat="48.21489" lon="-3.00999">
        <ele>145.29638671875</ele>
        <time>2012-04-17T09:38:39Z</time>
      </trkpt>
      <trkpt lat="48.21522" lon="-3.01071">
        <ele>145.29638671875</ele>
        <time>2012-04-17T09:38:54Z</time>
      </trkpt>
      <trkpt lat="48.21539" lon="-3.01124">
        <ele>144.33520507812</ele>
        <time>2012-04-17T09:39:04Z</time>
      </trkpt>
      <trkpt lat="48.21554" lon="-3.01191">
        <ele>145.29638671875</ele>
        <time>2012-04-17T09:39:16Z</time>
      </trkpt>
      <trkpt lat="48.21555" lon="-3.01208">
        <ele>142.89306640625</ele>
        <time>2012-04-17T09:39:19Z</time>
      </trkpt>
      <trkpt lat="48.21556" lon="-3.01299">
        <ele>142.89306640625</ele>
        <time>2012-04-17T09:39:35Z</time>
      </trkpt>
      <trkpt lat="48.21538" lon="-3.01363">
        <ele>144.81579589844</ele>
        <time>2012-04-17T09:39:49Z</time>
      </trkpt>
      <trkpt lat="48.21525" lon="-3.01398">
        <ele>145.29638671875</ele>
        <time>2012-04-17T09:39:57Z</time>
      </trkpt>
      <trkpt lat="48.21509" lon="-3.01447">
        <ele>145.77709960938</ele>
        <time>2012-04-17T09:40:08Z</time>
      </trkpt>
      <trkpt lat="48.21485" lon="-3.01515">
        <ele>144.81579589844</ele>
        <time>2012-04-17T09:40:23Z</time>
      </trkpt>
      <trkpt lat="48.21478" lon="-3.01535">
        <ele>145.29638671875</ele>
        <time>2012-04-17T09:40:30Z</time>
      </trkpt>
      <trkpt lat="48.21464" lon="-3.01576">
        <ele>145.29638671875</ele>
        <time>2012-04-17T09:40:41Z</time>
      </trkpt>
      <trkpt lat="48.21484" lon="-3.01696">
        <ele>146.73840332031</ele>
        <time>2012-04-17T09:41:03Z</time>
      </trkpt>
      <trkpt lat="48.21498" lon="-3.01799">
        <ele>147.21899414062</ele>
        <time>2012-04-17T09:41:26Z</time>
      </trkpt>
      <trkpt lat="48.21517" lon="-3.01924">
        <ele>149.62231445312</ele>
        <time>2012-04-17T09:41:53Z</time>
      </trkpt>
      <trkpt lat="48.21532" lon="-3.02027">
        <ele>151.06420898438</ele>
        <time>2012-04-17T09:42:16Z</time>
      </trkpt>
      <trkpt lat="48.21553" lon="-3.02116">
        <ele>151.544921875</ele>
        <time>2012-04-17T09:42:38Z</time>
      </trkpt>
      <trkpt lat="48.21585" lon="-3.02186">
        <ele>153.46765136719</ele>
        <time>2012-04-17T09:42:57Z</time>
      </trkpt>
      <trkpt lat="48.21623" lon="-3.02251">
        <ele>153.46765136719</ele>
        <time>2012-04-17T09:43:16Z</time>
      </trkpt>
      <trkpt lat="48.21661" lon="-3.02308">
        <ele>155.39025878906</ele>
        <time>2012-04-17T09:43:35Z</time>
      </trkpt>
      <trkpt lat="48.21697" lon="-3.0236">
        <ele>154.90954589844</ele>
        <time>2012-04-17T09:43:51Z</time>
      </trkpt>
      <trkpt lat="48.21724" lon="-3.02426">
        <ele>154.42895507812</ele>
        <time>2012-04-17T09:44:08Z</time>
      </trkpt>
      <trkpt lat="48.21737" lon="-3.02525">
        <ele>159.23547363281</ele>
        <time>2012-04-17T09:44:29Z</time>
      </trkpt>
      <trkpt lat="48.21734" lon="-3.02589">
        <ele>160.67749023438</ele>
        <time>2012-04-17T09:44:44Z</time>
      </trkpt>
      <trkpt lat="48.21717" lon="-3.02662">
        <ele>161.63891601562</ele>
        <time>2012-04-17T09:45:01Z</time>
      </trkpt>
      <trkpt lat="48.21694" lon="-3.02724">
        <ele>164.04211425781</ele>
        <time>2012-04-17T09:45:17Z</time>
      </trkpt>
      <trkpt lat="48.21678" lon="-3.02776">
        <ele>164.04211425781</ele>
        <time>2012-04-17T09:45:31Z</time>
      </trkpt>
      <trkpt lat="48.21657" lon="-3.02829">
        <ele>163.08081054688</ele>
        <time>2012-04-17T09:45:45Z</time>
      </trkpt>
      <trkpt lat="48.21625" lon="-3.02906">
        <ele>165.00341796875</ele>
        <time>2012-04-17T09:46:04Z</time>
      </trkpt>
      <trkpt lat="48.21602" lon="-3.02974">
        <ele>164.52270507812</ele>
        <time>2012-04-17T09:46:21Z</time>
      </trkpt>
      <trkpt lat="48.21578" lon="-3.03037">
        <ele>165.48413085938</ele>
        <time>2012-04-17T09:46:36Z</time>
      </trkpt>
      <trkpt lat="48.21556" lon="-3.03092">
        <ele>167.40673828125</ele>
        <time>2012-04-17T09:46:50Z</time>
      </trkpt>
      <trkpt lat="48.21537" lon="-3.03151">
        <ele>167.40673828125</ele>
        <time>2012-04-17T09:47:05Z</time>
      </trkpt>
      <trkpt lat="48.21516" lon="-3.0323">
        <ele>167.40673828125</ele>
        <time>2012-04-17T09:47:24Z</time>
      </trkpt>
      <trkpt lat="48.21513" lon="-3.03248">
        <ele>167.88732910156</ele>
        <time>2012-04-17T09:47:36Z</time>
      </trkpt>
      <trkpt lat="48.21508" lon="-3.03275">
        <ele>167.88732910156</ele>
        <time>2012-04-17T09:50:40Z</time>
      </trkpt>
      <trkpt lat="48.21497" lon="-3.03355">
        <ele>168.36804199219</ele>
        <time>2012-04-17T09:50:59Z</time>
      </trkpt>
      <trkpt lat="48.21492" lon="-3.03451">
        <ele>167.40673828125</ele>
        <time>2012-04-17T09:51:20Z</time>
      </trkpt>
      <trkpt lat="48.2149" lon="-3.03603">
        <ele>169.32946777344</ele>
        <time>2012-04-17T09:51:49Z</time>
      </trkpt>
      <trkpt lat="48.21481" lon="-3.03625">
        <ele>169.32946777344</ele>
        <time>2012-04-17T09:51:53Z</time>
      </trkpt>
      <trkpt lat="48.21478" lon="-3.03649">
        <ele>168.36804199219</ele>
        <time>2012-04-17T09:51:57Z</time>
      </trkpt>
      <trkpt lat="48.21506" lon="-3.03776">
        <ele>169.32946777344</ele>
        <time>2012-04-17T09:52:23Z</time>
      </trkpt>
      <trkpt lat="48.21525" lon="-3.03836">
        <ele>167.88732910156</ele>
        <time>2012-04-17T09:52:35Z</time>
      </trkpt>
      <trkpt lat="48.21558" lon="-3.03963">
        <ele>166.92602539062</ele>
        <time>2012-04-17T09:52:54Z</time>
      </trkpt>
      <trkpt lat="48.21556" lon="-3.03965">
        <ele>168.36804199219</ele>
        <time>2012-04-17T09:53:00Z</time>
      </trkpt>
      <trkpt lat="48.21564" lon="-3.04011">
        <ele>168.36804199219</ele>
        <time>2012-04-17T09:53:13Z</time>
      </trkpt>
      <trkpt lat="48.21555" lon="-3.04119">
        <ele>170.29064941406</ele>
        <time>2012-04-17T09:53:34Z</time>
      </trkpt>
      <trkpt lat="48.21523" lon="-3.04236">
        <ele>171.73266601562</ele>
        <time>2012-04-17T09:53:57Z</time>
      </trkpt>
      <trkpt lat="48.21484" lon="-3.04371">
        <ele>172.21325683594</ele>
        <time>2012-04-17T09:54:24Z</time>
      </trkpt>
      <trkpt lat="48.21476" lon="-3.04468">
        <ele>172.21325683594</ele>
        <time>2012-04-17T09:54:42Z</time>
      </trkpt>
      <trkpt lat="48.21485" lon="-3.0455">
        <ele>174.61657714844</ele>
        <time>2012-04-17T09:55:00Z</time>
      </trkpt>
      <trkpt lat="48.21506" lon="-3.04618">
        <ele>176.05859375</ele>
        <time>2012-04-17T09:55:17Z</time>
      </trkpt>
      <trkpt lat="48.21529" lon="-3.04692">
        <ele>178.4619140625</ele>
        <time>2012-04-17T09:55:35Z</time>
      </trkpt>
      <trkpt lat="48.21553" lon="-3.04771">
        <ele>177.98120117188</ele>
        <time>2012-04-17T09:55:54Z</time>
      </trkpt>
      <trkpt lat="48.21582" lon="-3.04871">
        <ele>178.4619140625</ele>
        <time>2012-04-17T09:56:18Z</time>
      </trkpt>
      <trkpt lat="48.21606" lon="-3.04948">
        <ele>179.42321777344</ele>
        <time>2012-04-17T09:56:37Z</time>
      </trkpt>
      <trkpt lat="48.21626" lon="-3.0501">
        <ele>180.865234375</ele>
        <time>2012-04-17T09:56:54Z</time>
      </trkpt>
      <trkpt lat="48.21648" lon="-3.05075">
        <ele>183.26843261719</ele>
        <time>2012-04-17T09:57:10Z</time>
      </trkpt>
      <trkpt lat="48.21671" lon="-3.05147">
        <ele>184.71057128906</ele>
        <time>2012-04-17T09:57:27Z</time>
      </trkpt>
      <trkpt lat="48.21693" lon="-3.0522">
        <ele>184.71057128906</ele>
        <time>2012-04-17T09:57:44Z</time>
      </trkpt>
      <trkpt lat="48.21707" lon="-3.05271">
        <ele>182.30712890625</ele>
        <time>2012-04-17T09:57:56Z</time>
      </trkpt>
      <trkpt lat="48.21732" lon="-3.05377">
        <ele>186.63317871094</ele>
        <time>2012-04-17T09:58:19Z</time>
      </trkpt>
      <trkpt lat="48.21731" lon="-3.0546">
        <ele>187.11376953125</ele>
        <time>2012-04-17T09:58:35Z</time>
      </trkpt>
      <trkpt lat="48.21725" lon="-3.05521">
        <ele>185.67175292969</ele>
        <time>2012-04-17T09:58:47Z</time>
      </trkpt>
      <trkpt lat="48.21717" lon="-3.05588">
        <ele>188.07507324219</ele>
        <time>2012-04-17T09:59:01Z</time>
      </trkpt>
      <trkpt lat="48.21708" lon="-3.05655">
        <ele>190.958984375</ele>
        <time>2012-04-17T09:59:16Z</time>
      </trkpt>
      <trkpt lat="48.21696" lon="-3.05749">
        <ele>189.03637695312</ele>
        <time>2012-04-17T09:59:38Z</time>
      </trkpt>
      <trkpt lat="48.21677" lon="-3.05819">
        <ele>189.03637695312</ele>
        <time>2012-04-17T09:59:55Z</time>
      </trkpt>
      <trkpt lat="48.2165" lon="-3.05892">
        <ele>189.99768066406</ele>
        <time>2012-04-17T10:00:14Z</time>
      </trkpt>
      <trkpt lat="48.216" lon="-3.0599">
        <ele>193.84301757812</ele>
        <time>2012-04-17T10:00:42Z</time>
      </trkpt>
      <trkpt lat="48.21563" lon="-3.06063">
        <ele>196.72692871094</ele>
        <time>2012-04-17T10:01:03Z</time>
      </trkpt>
      <trkpt lat="48.21541" lon="-3.06121">
        <ele>198.64953613281</ele>
        <time>2012-04-17T10:01:19Z</time>
      </trkpt>
      <trkpt lat="48.21536" lon="-3.06141">
        <ele>197.68823242188</ele>
        <time>2012-04-17T10:01:24Z</time>
      </trkpt>
      <trkpt lat="48.21523" lon="-3.06206">
        <ele>197.68823242188</ele>
        <time>2012-04-17T10:01:40Z</time>
      </trkpt>
      <trkpt lat="48.21517" lon="-3.06259">
        <ele>195.765625</ele>
        <time>2012-04-17T10:01:53Z</time>
      </trkpt>
      <trkpt lat="48.21513" lon="-3.06316">
        <ele>195.28491210938</ele>
        <time>2012-04-17T10:02:06Z</time>
      </trkpt>
      <trkpt lat="48.21517" lon="-3.0638">
        <ele>197.68823242188</ele>
        <time>2012-04-17T10:02:19Z</time>
      </trkpt>
      <trkpt lat="48.21537" lon="-3.06477">
        <ele>197.68823242188</ele>
        <time>2012-04-17T10:02:39Z</time>
      </trkpt>
      <trkpt lat="48.2157" lon="-3.06549">
        <ele>196.72692871094</ele>
        <time>2012-04-17T10:02:56Z</time>
      </trkpt>
      <trkpt lat="48.21601" lon="-3.06598">
        <ele>194.80432128906</ele>
        <time>2012-04-17T10:03:09Z</time>
      </trkpt>
      <trkpt lat="48.21651" lon="-3.06667">
        <ele>196.72692871094</ele>
        <time>2012-04-17T10:03:28Z</time>
      </trkpt>
      <trkpt lat="48.21686" lon="-3.06715">
        <ele>195.765625</ele>
        <time>2012-04-17T10:03:41Z</time>
      </trkpt>
      <trkpt lat="48.21763" lon="-3.06819">
        <ele>196.24633789062</ele>
        <time>2012-04-17T10:04:09Z</time>
      </trkpt>
      <trkpt lat="48.21809" lon="-3.06913">
        <ele>196.24633789062</ele>
        <time>2012-04-17T10:04:30Z</time>
      </trkpt>
      <trkpt lat="48.21845" lon="-3.0704">
        <ele>193.84301757812</ele>
        <time>2012-04-17T10:04:53Z</time>
      </trkpt>
      <trkpt lat="48.21859" lon="-3.07169">
        <ele>195.28491210938</ele>
        <time>2012-04-17T10:05:14Z</time>
      </trkpt>
      <trkpt lat="48.21859" lon="-3.072">
        <ele>195.28491210938</ele>
        <time>2012-04-17T10:05:19Z</time>
      </trkpt>
      <trkpt lat="48.2185" lon="-3.07358">
        <ele>195.28491210938</ele>
        <time>2012-04-17T10:05:45Z</time>
      </trkpt>
      <trkpt lat="48.21844" lon="-3.07488">
        <ele>194.80432128906</ele>
        <time>2012-04-17T10:06:08Z</time>
      </trkpt>
      <trkpt lat="48.21851" lon="-3.07625">
        <ele>196.72692871094</ele>
        <time>2012-04-17T10:06:33Z</time>
      </trkpt>
      <trkpt lat="48.2187" lon="-3.07738">
        <ele>196.72692871094</ele>
        <time>2012-04-17T10:06:54Z</time>
      </trkpt>
      <trkpt lat="48.2187" lon="-3.07741">
        <ele>195.765625</ele>
        <time>2012-04-17T10:07:07Z</time>
      </trkpt>
      <trkpt lat="48.21871" lon="-3.07746">
        <ele>196.24633789062</ele>
        <time>2012-04-17T10:07:10Z</time>
      </trkpt>
      <trkpt lat="48.21885" lon="-3.07817">
        <ele>194.32373046875</ele>
        <time>2012-04-17T10:07:26Z</time>
      </trkpt>
      <trkpt lat="48.21912" lon="-3.07965">
        <ele>193.84301757812</ele>
        <time>2012-04-17T10:07:52Z</time>
      </trkpt>
      <trkpt lat="48.21917" lon="-3.08094">
        <ele>191.92028808594</ele>
        <time>2012-04-17T10:08:12Z</time>
      </trkpt>
      <trkpt lat="48.2191" lon="-3.0819">
        <ele>191.92028808594</ele>
        <time>2012-04-17T10:08:26Z</time>
      </trkpt>
      <trkpt lat="48.21905" lon="-3.08233">
        <ele>191.43957519531</ele>
        <time>2012-04-17T10:08:32Z</time>
      </trkpt>
      <trkpt lat="48.21888" lon="-3.08306">
        <ele>191.43957519531</ele>
        <time>2012-04-17T10:08:46Z</time>
      </trkpt>
      <trkpt lat="48.21855" lon="-3.08416">
        <ele>189.51696777344</ele>
        <time>2012-04-17T10:09:04Z</time>
      </trkpt>
      <trkpt lat="48.21796" lon="-3.08527">
        <ele>189.51696777344</ele>
        <time>2012-04-17T10:09:25Z</time>
      </trkpt>
      <trkpt lat="48.21788" lon="-3.08632">
        <ele>189.51696777344</ele>
        <time>2012-04-17T10:09:45Z</time>
      </trkpt>
      <trkpt lat="48.21746" lon="-3.08787">
        <ele>188.55578613281</ele>
        <time>2012-04-17T10:10:09Z</time>
      </trkpt>
      <trkpt lat="48.21744" lon="-3.08955">
        <ele>188.55578613281</ele>
        <time>2012-04-17T10:10:34Z</time>
      </trkpt>
      <trkpt lat="48.2175" lon="-3.09007">
        <ele>188.55578613281</ele>
        <time>2012-04-17T10:10:42Z</time>
      </trkpt>
      <trkpt lat="48.21755" lon="-3.09034">
        <ele>187.11376953125</ele>
        <time>2012-04-17T10:10:46Z</time>
      </trkpt>
      <trkpt lat="48.21777" lon="-3.09157">
        <ele>187.11376953125</ele>
        <time>2012-04-17T10:11:06Z</time>
      </trkpt>
      <trkpt lat="48.21782" lon="-3.09184">
        <ele>187.11376953125</ele>
        <time>2012-04-17T10:11:11Z</time>
      </trkpt>
      <trkpt lat="48.21802" lon="-3.09319">
        <ele>185.19116210938</ele>
        <time>2012-04-17T10:11:31Z</time>
      </trkpt>
      <trkpt lat="48.21805" lon="-3.09484">
        <ele>181.82641601562</ele>
        <time>2012-04-17T10:11:53Z</time>
      </trkpt>
      <trkpt lat="48.21788" lon="-3.09612">
        <ele>180.865234375</ele>
        <time>2012-04-17T10:12:10Z</time>
      </trkpt>
      <trkpt lat="48.21759" lon="-3.09717">
        <ele>178.94262695312</ele>
        <time>2012-04-17T10:12:25Z</time>
      </trkpt>
      <trkpt lat="48.2171" lon="-3.09865">
        <ele>176.53930664062</ele>
        <time>2012-04-17T10:12:48Z</time>
      </trkpt>
      <trkpt lat="48.21652" lon="-3.10048">
        <ele>175.09729003906</ele>
        <time>2012-04-17T10:13:16Z</time>
      </trkpt>
      <trkpt lat="48.21622" lon="-3.10266">
        <ele>173.17468261719</ele>
        <time>2012-04-17T10:13:44Z</time>
      </trkpt>
      <trkpt lat="48.21571" lon="-3.10373">
        <ele>173.6552734375</ele>
        <time>2012-04-17T10:14:04Z</time>
      </trkpt>
      <trkpt lat="48.21512" lon="-3.10495">
        <ele>170.29064941406</ele>
        <time>2012-04-17T10:14:26Z</time>
      </trkpt>
      <trkpt lat="48.2145" lon="-3.10623">
        <ele>165.96472167969</ele>
        <time>2012-04-17T10:14:47Z</time>
      </trkpt>
      <trkpt lat="48.21428" lon="-3.10682">
        <ele>168.84875488281</ele>
        <time>2012-04-17T10:15:01Z</time>
      </trkpt>
      <trkpt lat="48.21403" lon="-3.1075">
        <ele>168.36804199219</ele>
        <time>2012-04-17T10:15:17Z</time>
      </trkpt>
      <trkpt lat="48.21381" lon="-3.10814">
        <ele>166.92602539062</ele>
        <time>2012-04-17T10:15:29Z</time>
      </trkpt>
      <trkpt lat="48.21331" lon="-3.10893">
        <ele>165.48413085938</ele>
        <time>2012-04-17T10:15:45Z</time>
      </trkpt>
      <trkpt lat="48.21347" lon="-3.10943">
        <ele>163.5615234375</ele>
        <time>2012-04-17T10:15:57Z</time>
      </trkpt>
      <trkpt lat="48.21372" lon="-3.10988">
        <ele>165.00341796875</ele>
        <time>2012-04-17T10:16:09Z</time>
      </trkpt>
      <trkpt lat="48.21402" lon="-3.11089">
        <ele>163.08081054688</ele>
        <time>2012-04-17T10:16:26Z</time>
      </trkpt>
      <trkpt lat="48.21497" lon="-3.11206">
        <ele>161.63891601562</ele>
        <time>2012-04-17T10:16:47Z</time>
      </trkpt>
      <trkpt lat="48.21513" lon="-3.1137">
        <ele>158.27416992188</ele>
        <time>2012-04-17T10:17:08Z</time>
      </trkpt>
      <trkpt lat="48.21475" lon="-3.11479">
        <ele>156.3515625</ele>
        <time>2012-04-17T10:17:20Z</time>
      </trkpt>
      <trkpt lat="48.21485" lon="-3.11545">
        <ele>155.39025878906</ele>
        <time>2012-04-17T10:17:29Z</time>
      </trkpt>
      <trkpt lat="48.21529" lon="-3.11699">
        <ele>152.02575683594</ele>
        <time>2012-04-17T10:17:49Z</time>
      </trkpt>
      <trkpt lat="48.21587" lon="-3.11849">
        <ele>150.10302734375</ele>
        <time>2012-04-17T10:18:10Z</time>
      </trkpt>
      <trkpt lat="48.21647" lon="-3.11945">
        <ele>152.02575683594</ele>
        <time>2012-04-17T10:18:26Z</time>
      </trkpt>
      <trkpt lat="48.2174" lon="-3.12083">
        <ele>147.69970703125</ele>
        <time>2012-04-17T10:18:49Z</time>
      </trkpt>
      <trkpt lat="48.21795" lon="-3.12166">
        <ele>144.81579589844</ele>
        <time>2012-04-17T10:19:03Z</time>
      </trkpt>
      <trkpt lat="48.21841" lon="-3.12268">
        <ele>141.45104980469</ele>
        <time>2012-04-17T10:19:19Z</time>
      </trkpt>
      <trkpt lat="48.21844" lon="-3.12322">
        <ele>141.45104980469</ele>
        <time>2012-04-17T10:19:32Z</time>
      </trkpt>
      <trkpt lat="48.21844" lon="-3.12322">
        <ele>141.45104980469</ele>
        <time>2012-04-17T10:20:00Z</time>
      </trkpt>
      <trkpt lat="48.21844" lon="-3.12322">
        <ele>140.97045898438</ele>
        <time>2012-04-17T10:20:06Z</time>
      </trkpt>
      <trkpt lat="48.21844" lon="-3.12346">
        <ele>140.97045898438</ele>
        <time>2012-04-17T10:20:12Z</time>
      </trkpt>
      <trkpt lat="48.21844" lon="-3.12368">
        <ele>141.93176269531</ele>
        <time>2012-04-17T10:20:25Z</time>
      </trkpt>
      <trkpt lat="48.21844" lon="-3.12368">
        <ele>143.37365722656</ele>
        <time>2012-04-17T10:28:52Z</time>
      </trkpt>
      <trkpt lat="48.21817" lon="-3.12373">
        <ele>143.37365722656</ele>
        <time>2012-04-17T10:29:04Z</time>
      </trkpt>
      <trkpt lat="48.21812" lon="-3.12472">
        <ele>142.89306640625</ele>
        <time>2012-04-17T10:29:09Z</time>
      </trkpt>
      <trkpt lat="48.21788" lon="-3.12518">
        <ele>143.37365722656</ele>
        <time>2012-04-17T10:29:18Z</time>
      </trkpt>
      <trkpt lat="48.21772" lon="-3.1255">
        <ele>144.33520507812</ele>
        <time>2012-04-17T10:29:24Z</time>
      </trkpt>
      <trkpt lat="48.21753" lon="-3.12589">
        <ele>144.81579589844</ele>
        <time>2012-04-17T10:29:31Z</time>
      </trkpt>
      <trkpt lat="48.2171" lon="-3.12675">
        <ele>140.00915527344</ele>
        <time>2012-04-17T10:29:45Z</time>
      </trkpt>
      <trkpt lat="48.21671" lon="-3.12782">
        <ele>139.52844238281</ele>
        <time>2012-04-17T10:30:02Z</time>
      </trkpt>
      <trkpt lat="48.21669" lon="-3.12788">
        <ele>140.00915527344</ele>
        <time>2012-04-17T10:30:03Z</time>
      </trkpt>
      <trkpt lat="48.21583" lon="-3.12878">
        <ele>137.12524414062</ele>
        <time>2012-04-17T10:30:20Z</time>
      </trkpt>
      <trkpt lat="48.21607" lon="-3.12882">
        <ele>135.68310546875</ele>
        <time>2012-04-17T10:30:24Z</time>
      </trkpt>
      <trkpt lat="48.21582" lon="-3.12864">
        <ele>133.27990722656</ele>
        <time>2012-04-17T10:30:29Z</time>
      </trkpt>
      <trkpt lat="48.21582" lon="-3.1285">
        <ele>131.837890625</ele>
        <time>2012-04-17T10:30:31Z</time>
      </trkpt>
      <trkpt lat="48.21566" lon="-3.12828">
        <ele>127.03137207031</ele>
        <time>2012-04-17T10:30:40Z</time>
      </trkpt>
      <trkpt lat="48.21556" lon="-3.12824">
        <ele>126.06994628906</ele>
        <time>2012-04-17T10:30:42Z</time>
      </trkpt>
      <trkpt lat="48.215" lon="-3.12797">
        <ele>122.70544433594</ele>
        <time>2012-04-17T10:30:56Z</time>
      </trkpt>
      <trkpt lat="48.21491" lon="-3.12785">
        <ele>122.70544433594</ele>
        <time>2012-04-17T10:31:05Z</time>
      </trkpt>
      <trkpt lat="48.21484" lon="-3.12714">
        <ele>122.22473144531</ele>
        <time>2012-04-17T10:31:20Z</time>
      </trkpt>
      <trkpt lat="48.21462" lon="-3.12666">
        <ele>121.744140625</ele>
        <time>2012-04-17T10:31:23Z</time>
      </trkpt>
      <trkpt lat="48.21422" lon="-3.12702">
        <ele>120.30212402344</ele>
        <time>2012-04-17T10:31:34Z</time>
      </trkpt>
      <trkpt lat="48.21372" lon="-3.12759">
        <ele>119.3408203125</ele>
        <time>2012-04-17T10:31:51Z</time>
      </trkpt>
      <trkpt lat="48.21328" lon="-3.1281">
        <ele>119.82141113281</ele>
        <time>2012-04-17T10:32:06Z</time>
      </trkpt>
      <trkpt lat="48.21299" lon="-3.12844">
        <ele>118.86010742188</ele>
        <time>2012-04-17T10:32:20Z</time>
      </trkpt>
      <trkpt lat="48.21299" lon="-3.12844">
        <ele>120.30212402344</ele>
        <time>2012-04-17T10:32:28Z</time>
      </trkpt>
      <trkpt lat="48.21292" lon="-3.12854">
        <ele>120.30212402344</ele>
        <time>2012-04-17T10:32:32Z</time>
      </trkpt>
      <trkpt lat="48.21313" lon="-3.12831">
        <ele>120.78283691406</ele>
        <time>2012-04-17T10:32:43Z</time>
      </trkpt>
      <trkpt lat="48.21314" lon="-3.12823">
        <ele>120.78283691406</ele>
        <time>2012-04-17T10:32:45Z</time>
      </trkpt>
      <trkpt lat="48.21308" lon="-3.12817">
        <ele>122.22473144531</ele>
        <time>2012-04-17T10:32:49Z</time>
      </trkpt>
      <trkpt lat="48.21283" lon="-3.128">
        <ele>123.66674804688</ele>
        <time>2012-04-17T10:33:01Z</time>
      </trkpt>
      <trkpt lat="48.21264" lon="-3.12785">
        <ele>123.66674804688</ele>
        <time>2012-04-17T10:33:10Z</time>
      </trkpt>
      <trkpt lat="48.21232" lon="-3.12766">
        <ele>124.14733886719</ele>
        <time>2012-04-17T10:33:24Z</time>
      </trkpt>
      <trkpt lat="48.21213" lon="-3.12749">
        <ele>124.14733886719</ele>
        <time>2012-04-17T10:33:36Z</time>
      </trkpt>
      <trkpt lat="48.2121" lon="-3.12742">
        <ele>125.10876464844</ele>
        <time>2012-04-17T10:33:48Z</time>
      </trkpt>
      <trkpt lat="48.21208" lon="-3.12747">
        <ele>126.55065917969</ele>
        <time>2012-04-17T10:33:53Z</time>
      </trkpt>
      <trkpt lat="48.21203" lon="-3.1275">
        <ele>127.03137207031</ele>
        <time>2012-04-17T10:33:55Z</time>
      </trkpt>
      <trkpt lat="48.21204" lon="-3.12753">
        <ele>129.43469238281</ele>
        <time>2012-04-17T10:34:01Z</time>
      </trkpt>
      <trkpt lat="48.21209" lon="-3.12732">
        <ele>134.2412109375</ele>
        <time>2012-04-17T10:34:19Z</time>
      </trkpt>
      <trkpt lat="48.21208" lon="-3.12726">
        <ele>134.72192382812</ele>
        <time>2012-04-17T10:34:22Z</time>
      </trkpt>
      <trkpt lat="48.21208" lon="-3.12715">
        <ele>136.64465332031</ele>
        <time>2012-04-17T10:34:43Z</time>
      </trkpt>
      <trkpt lat="48.21208" lon="-3.12718">
        <ele>137.60583496094</ele>
        <time>2012-04-17T10:35:00Z</time>
      </trkpt>
      <trkpt lat="48.21206" lon="-3.12726">
        <ele>142.89306640625</ele>
        <time>2012-04-17T10:35:20Z</time>
      </trkpt>
      <trkpt lat="48.21212" lon="-3.12728">
        <ele>143.85437011719</ele>
        <time>2012-04-17T10:35:37Z</time>
      </trkpt>
      <trkpt lat="48.21211" lon="-3.12714">
        <ele>145.29638671875</ele>
        <time>2012-04-17T10:35:56Z</time>
      </trkpt>
      <trkpt lat="48.21211" lon="-3.12708">
        <ele>149.1416015625</ele>
        <time>2012-04-17T10:36:22Z</time>
      </trkpt>
      <trkpt lat="48.21207" lon="-3.12694">
        <ele>153.46765136719</ele>
        <time>2012-04-17T10:36:43Z</time>
      </trkpt>
      <trkpt lat="48.21206" lon="-3.12704">
        <ele>158.75476074219</ele>
        <time>2012-04-17T10:36:55Z</time>
      </trkpt>
      <trkpt lat="48.21203" lon="-3.12704">
        <ele>160.67749023438</ele>
        <time>2012-04-17T10:37:18Z</time>
      </trkpt>
      <trkpt lat="48.21214" lon="-3.12718">
        <ele>165.00341796875</ele>
        <time>2012-04-17T10:37:44Z</time>
      </trkpt>
      <trkpt lat="48.21214" lon="-3.12735">
        <ele>163.5615234375</ele>
        <time>2012-04-17T10:38:24Z</time>
      </trkpt>
      <trkpt lat="48.21222" lon="-3.12738">
        <ele>155.87097167969</ele>
        <time>2012-04-17T10:38:53Z</time>
      </trkpt>
      <trkpt lat="48.21218" lon="-3.12733">
        <ele>150.58361816406</ele>
        <time>2012-04-17T10:39:33Z</time>
      </trkpt>
      <trkpt lat="48.21215" lon="-3.12734">
        <ele>151.06420898438</ele>
        <time>2012-04-17T10:40:11Z</time>
      </trkpt>
      <trkpt lat="48.21216" lon="-3.12736">
        <ele>146.2578125</ele>
        <time>2012-04-17T10:40:45Z</time>
      </trkpt>
      <trkpt lat="48.21206" lon="-3.12736">
        <ele>127.03137207031</ele>
        <time>2012-04-17T10:44:30Z</time>
      </trkpt>
      <trkpt lat="48.21214" lon="-3.12733">
        <ele>134.72192382812</ele>
        <time>2012-04-17T10:47:57Z</time>
      </trkpt>
      <trkpt lat="48.21215" lon="-3.12737">
        <ele>140.00915527344</ele>
        <time>2012-04-17T10:49:26Z</time>
      </trkpt>
      <trkpt lat="48.2121" lon="-3.12738">
        <ele>130.87670898438</ele>
        <time>2012-04-17T10:50:35Z</time>
      </trkpt>
      <trkpt lat="48.21215" lon="-3.12723">
        <ele>143.37365722656</ele>
        <time>2012-04-17T10:53:02Z</time>
      </trkpt>
      <trkpt lat="48.21219" lon="-3.12746">
        <ele>142.89306640625</ele>
        <time>2012-04-17T10:53:46Z</time>
      </trkpt>
      <trkpt lat="48.21217" lon="-3.1274">
        <ele>141.93176269531</ele>
        <time>2012-04-17T10:54:21Z</time>
      </trkpt>
      <trkpt lat="48.21209" lon="-3.12731">
        <ele>135.68310546875</ele>
        <time>2012-04-17T10:54:57Z</time>
      </trkpt>
      <trkpt lat="48.21205" lon="-3.12733">
        <ele>127.99255371094</ele>
        <time>2012-04-17T10:55:40Z</time>
      </trkpt>
      <trkpt lat="48.21205" lon="-3.12744">
        <ele>119.3408203125</ele>
        <time>2012-04-17T10:56:12Z</time>
      </trkpt>
      <trkpt lat="48.21201" lon="-3.12723">
        <ele>129.43469238281</ele>
        <time>2012-04-17T10:57:54Z</time>
      </trkpt>
      <trkpt lat="48.2121" lon="-3.12729">
        <ele>148.18041992188</ele>
        <time>2012-04-17T10:58:58Z</time>
      </trkpt>
      <trkpt lat="48.21213" lon="-3.1274">
        <ele>154.90954589844</ele>
        <time>2012-04-17T10:59:43Z</time>
      </trkpt>
      <trkpt lat="48.21208" lon="-3.12738">
        <ele>152.02575683594</ele>
        <time>2012-04-17T11:00:24Z</time>
      </trkpt>
      <trkpt lat="48.21203" lon="-3.12747">
        <ele>121.744140625</ele>
        <time>2012-04-17T11:02:41Z</time>
      </trkpt>
      <trkpt lat="48.21203" lon="-3.12737">
        <ele>122.22473144531</ele>
        <time>2012-04-17T11:03:11Z</time>
      </trkpt>
      <trkpt lat="48.21206" lon="-3.12741">
        <ele>122.70544433594</ele>
        <time>2012-04-17T11:03:55Z</time>
      </trkpt>
      <trkpt lat="48.21217" lon="-3.12749">
        <ele>137.60583496094</ele>
        <time>2012-04-17T11:05:13Z</time>
      </trkpt>
      <trkpt lat="48.21209" lon="-3.12739">
        <ele>127.99255371094</ele>
        <time>2012-04-17T11:07:09Z</time>
      </trkpt>
      <trkpt lat="48.21207" lon="-3.12741">
        <ele>122.22473144531</ele>
        <time>2012-04-17T11:08:01Z</time>
      </trkpt>
      <trkpt lat="48.21213" lon="-3.12743">
        <ele>129.91528320312</ele>
        <time>2012-04-17T11:14:34Z</time>
      </trkpt>
      <trkpt lat="48.21219" lon="-3.12733">
        <ele>146.2578125</ele>
        <time>2012-04-17T11:15:37Z</time>
      </trkpt>
      <trkpt lat="48.21228" lon="-3.12732">
        <ele>158.27416992188</ele>
        <time>2012-04-17T11:16:07Z</time>
      </trkpt>
      <trkpt lat="48.21218" lon="-3.12743">
        <ele>167.88732910156</ele>
        <time>2012-04-17T11:17:53Z</time>
      </trkpt>
      <trkpt lat="48.21205" lon="-3.12729">
        <ele>115.49560546875</ele>
        <time>2012-04-17T11:21:17Z</time>
      </trkpt>
      <trkpt lat="48.21219" lon="-3.12751">
        <ele>126.06994628906</ele>
        <time>2012-04-17T11:22:13Z</time>
      </trkpt>
      <trkpt lat="48.21214" lon="-3.12753">
        <ele>128.47338867188</ele>
        <time>2012-04-17T11:22:53Z</time>
      </trkpt>
      <trkpt lat="48.21212" lon="-3.12722">
        <ele>131.35729980469</ele>
        <time>2012-04-17T11:26:30Z</time>
      </trkpt>
      <trkpt lat="48.21205" lon="-3.12726">
        <ele>139.52844238281</ele>
        <time>2012-04-17T11:27:01Z</time>
      </trkpt>
      <trkpt lat="48.2121" lon="-3.12732">
        <ele>138.08654785156</ele>
        <time>2012-04-17T11:27:38Z</time>
      </trkpt>
      <trkpt lat="48.21199" lon="-3.12724">
        <ele>134.2412109375</ele>
        <time>2012-04-17T11:28:17Z</time>
      </trkpt>
      <trkpt lat="48.2121" lon="-3.12743">
        <ele>123.66674804688</ele>
        <time>2012-04-17T11:28:54Z</time>
      </trkpt>
      <trkpt lat="48.21204" lon="-3.12746">
        <ele>125.58935546875</ele>
        <time>2012-04-17T11:30:19Z</time>
      </trkpt>
      <trkpt lat="48.21213" lon="-3.12747">
        <ele>127.03137207031</ele>
        <time>2012-04-17T11:30:53Z</time>
      </trkpt>
      <trkpt lat="48.2122" lon="-3.12756">
        <ele>130.87670898438</ele>
        <time>2012-04-17T11:31:26Z</time>
      </trkpt>
      <trkpt lat="48.21206" lon="-3.12749">
        <ele>126.55065917969</ele>
        <time>2012-04-17T11:31:57Z</time>
      </trkpt>
      <trkpt lat="48.21216" lon="-3.12759">
        <ele>121.26354980469</ele>
        <time>2012-04-17T11:32:39Z</time>
      </trkpt>
      <trkpt lat="48.21213" lon="-3.12744">
        <ele>121.744140625</ele>
        <time>2012-04-17T11:33:36Z</time>
      </trkpt>
      <trkpt lat="48.21235" lon="-3.12741">
        <ele>142.41247558594</ele>
        <time>2012-04-17T11:34:44Z</time>
      </trkpt>
      <trkpt lat="48.21233" lon="-3.12728">
        <ele>152.50634765625</ele>
        <time>2012-04-17T11:35:19Z</time>
      </trkpt>
      <trkpt lat="48.21215" lon="-3.12732">
        <ele>152.50634765625</ele>
        <time>2012-04-17T11:35:50Z</time>
      </trkpt>
      <trkpt lat="48.21205" lon="-3.12737">
        <ele>157.31286621094</ele>
        <time>2012-04-17T11:36:25Z</time>
      </trkpt>
      <trkpt lat="48.21219" lon="-3.12739">
        <ele>164.04211425781</ele>
        <time>2012-04-17T11:37:12Z</time>
      </trkpt>
      <trkpt lat="48.21216" lon="-3.12733">
        <ele>165.00341796875</ele>
        <time>2012-04-17T11:38:26Z</time>
      </trkpt>
      <trkpt lat="48.21223" lon="-3.1275">
        <ele>161.63891601562</ele>
        <time>2012-04-17T11:39:10Z</time>
      </trkpt>
      <trkpt lat="48.21223" lon="-3.12751">
        <ele>161.158203125</ele>
        <time>2012-04-17T11:39:14Z</time>
      </trkpt>
    </trkseg>
  </trk>
  <trk>
    <name><![CDATA[ACTIVE LOG 008]]></name>
    <trkseg>
      <trkpt lat="48.2123" lon="-3.12756">
        <ele>146.2578125</ele>
        <time>2012-04-17T11:57:02Z</time>
      </trkpt>
      <trkpt lat="48.21213" lon="-3.12745">
        <ele>124.14733886719</ele>
        <time>2012-04-17T11:57:57Z</time>
      </trkpt>
      <trkpt lat="48.21244" lon="-3.12771">
        <ele>121.744140625</ele>
        <time>2012-04-17T11:58:12Z</time>
      </trkpt>
      <trkpt lat="48.21274" lon="-3.12794">
        <ele>118.86010742188</ele>
        <time>2012-04-17T11:58:26Z</time>
      </trkpt>
      <trkpt lat="48.21299" lon="-3.12811">
        <ele>116.45678710938</ele>
        <time>2012-04-17T11:58:39Z</time>
      </trkpt>
      <trkpt lat="48.21317" lon="-3.12828">
        <ele>117.89880371094</ele>
        <time>2012-04-17T11:58:49Z</time>
      </trkpt>
      <trkpt lat="48.21309" lon="-3.12849">
        <ele>115.01489257812</ele>
        <time>2012-04-17T11:58:56Z</time>
      </trkpt>
      <trkpt lat="48.2126" lon="-3.12922">
        <ele>115.97619628906</ele>
        <time>2012-04-17T11:59:16Z</time>
      </trkpt>
      <trkpt lat="48.21225" lon="-3.12982">
        <ele>116.9375</ele>
        <time>2012-04-17T11:59:35Z</time>
      </trkpt>
      <trkpt lat="48.21211" lon="-3.13009">
        <ele>115.97619628906</ele>
        <time>2012-04-17T11:59:52Z</time>
      </trkpt>
      <trkpt lat="48.21211" lon="-3.13009">
        <ele>115.97619628906</ele>
        <time>2012-04-17T12:00:01Z</time>
      </trkpt>
      <trkpt lat="48.21175" lon="-3.13016">
        <ele>115.97619628906</ele>
        <time>2012-04-17T12:00:15Z</time>
      </trkpt>
      <trkpt lat="48.21128" lon="-3.1298">
        <ele>115.97619628906</ele>
        <time>2012-04-17T12:00:32Z</time>
      </trkpt>
      <trkpt lat="48.21116" lon="-3.12973">
        <ele>117.41821289062</ele>
        <time>2012-04-17T12:00:44Z</time>
      </trkpt>
      <trkpt lat="48.21115" lon="-3.12972">
        <ele>115.97619628906</ele>
        <time>2012-04-17T12:01:09Z</time>
      </trkpt>
      <trkpt lat="48.21116" lon="-3.12971">
        <ele>115.97619628906</ele>
        <time>2012-04-17T12:04:21Z</time>
      </trkpt>
      <trkpt lat="48.21119" lon="-3.12965">
        <ele>115.97619628906</ele>
        <time>2012-04-17T12:04:26Z</time>
      </trkpt>
      <trkpt lat="48.21134" lon="-3.12969">
        <ele>117.41821289062</ele>
        <time>2012-04-17T12:04:44Z</time>
      </trkpt>
      <trkpt lat="48.21135" lon="-3.12973">
        <ele>116.9375</ele>
        <time>2012-04-17T12:09:57Z</time>
      </trkpt>
      <trkpt lat="48.21153" lon="-3.1299">
        <ele>117.41821289062</ele>
        <time>2012-04-17T12:10:11Z</time>
      </trkpt>
      <trkpt lat="48.21203" lon="-3.13005">
        <ele>118.37939453125</ele>
        <time>2012-04-17T12:10:31Z</time>
      </trkpt>
      <trkpt lat="48.21229" lon="-3.13027">
        <ele>117.89880371094</ele>
        <time>2012-04-17T12:10:42Z</time>
      </trkpt>
      <trkpt lat="48.21274" lon="-3.13087">
        <ele>119.3408203125</ele>
        <time>2012-04-17T12:11:00Z</time>
      </trkpt>
      <trkpt lat="48.21301" lon="-3.13111">
        <ele>116.9375</ele>
        <time>2012-04-17T12:11:10Z</time>
      </trkpt>
      <trkpt lat="48.2133" lon="-3.13193">
        <ele>115.01489257812</ele>
        <time>2012-04-17T12:11:25Z</time>
      </trkpt>
      <trkpt lat="48.21341" lon="-3.13226">
        <ele>115.01489257812</ele>
        <time>2012-04-17T12:11:34Z</time>
      </trkpt>
      <trkpt lat="48.21351" lon="-3.1327">
        <ele>116.9375</ele>
        <time>2012-04-17T12:11:43Z</time>
      </trkpt>
      <trkpt lat="48.21353" lon="-3.13334">
        <ele>119.3408203125</ele>
        <time>2012-04-17T12:11:58Z</time>
      </trkpt>
      <trkpt lat="48.21356" lon="-3.13408">
        <ele>120.78283691406</ele>
        <time>2012-04-17T12:12:14Z</time>
      </trkpt>
      <trkpt lat="48.21358" lon="-3.13471">
        <ele>120.30212402344</ele>
        <time>2012-04-17T12:12:27Z</time>
      </trkpt>
      <trkpt lat="48.21365" lon="-3.13547">
        <ele>118.86010742188</ele>
        <time>2012-04-17T12:12:41Z</time>
      </trkpt>
      <trkpt lat="48.21372" lon="-3.13627">
        <ele>118.37939453125</ele>
        <time>2012-04-17T12:12:57Z</time>
      </trkpt>
      <trkpt lat="48.21383" lon="-3.13706">
        <ele>116.9375</ele>
        <time>2012-04-17T12:13:11Z</time>
      </trkpt>
      <trkpt lat="48.214" lon="-3.13775">
        <ele>115.97619628906</ele>
        <time>2012-04-17T12:13:23Z</time>
      </trkpt>
      <trkpt lat="48.2141" lon="-3.13877">
        <ele>117.89880371094</ele>
        <time>2012-04-17T12:13:42Z</time>
      </trkpt>
      <trkpt lat="48.21415" lon="-3.13981">
        <ele>119.3408203125</ele>
        <time>2012-04-17T12:14:01Z</time>
      </trkpt>
      <trkpt lat="48.2142" lon="-3.14079">
        <ele>119.3408203125</ele>
        <time>2012-04-17T12:14:19Z</time>
      </trkpt>
      <trkpt lat="48.21421" lon="-3.14106">
        <ele>120.78283691406</ele>
        <time>2012-04-17T12:14:24Z</time>
      </trkpt>
      <trkpt lat="48.21422" lon="-3.14128">
        <ele>121.744140625</ele>
        <time>2012-04-17T12:14:28Z</time>
      </trkpt>
      <trkpt lat="48.21419" lon="-3.14206">
        <ele>125.10876464844</ele>
        <time>2012-04-17T12:14:43Z</time>
      </trkpt>
      <trkpt lat="48.21414" lon="-3.14279">
        <ele>118.37939453125</ele>
        <time>2012-04-17T12:14:57Z</time>
      </trkpt>
      <trkpt lat="48.21408" lon="-3.14362">
        <ele>119.3408203125</ele>
        <time>2012-04-17T12:15:12Z</time>
      </trkpt>
      <trkpt lat="48.21404" lon="-3.14405">
        <ele>121.744140625</ele>
        <time>2012-04-17T12:15:20Z</time>
      </trkpt>
      <trkpt lat="48.214" lon="-3.14456">
        <ele>122.70544433594</ele>
        <time>2012-04-17T12:15:29Z</time>
      </trkpt>
      <trkpt lat="48.21387" lon="-3.14551">
        <ele>122.70544433594</ele>
        <time>2012-04-17T12:15:45Z</time>
      </trkpt>
      <trkpt lat="48.2136" lon="-3.14664">
        <ele>120.78283691406</ele>
        <time>2012-04-17T12:16:07Z</time>
      </trkpt>
      <trkpt lat="48.2133" lon="-3.14785">
        <ele>121.744140625</ele>
        <time>2012-04-17T12:16:30Z</time>
      </trkpt>
      <trkpt lat="48.21307" lon="-3.14912">
        <ele>124.14733886719</ele>
        <time>2012-04-17T12:16:53Z</time>
      </trkpt>
      <trkpt lat="48.21293" lon="-3.15016">
        <ele>122.22473144531</ele>
        <time>2012-04-17T12:17:11Z</time>
      </trkpt>
      <trkpt lat="48.21272" lon="-3.15105">
        <ele>122.70544433594</ele>
        <time>2012-04-17T12:17:30Z</time>
      </trkpt>
      <trkpt lat="48.21239" lon="-3.15179">
        <ele>122.22473144531</ele>
        <time>2012-04-17T12:17:49Z</time>
      </trkpt>
      <trkpt lat="48.21215" lon="-3.1523">
        <ele>122.70544433594</ele>
        <time>2012-04-17T12:18:05Z</time>
      </trkpt>
      <trkpt lat="48.21181" lon="-3.1533">
        <ele>123.18615722656</ele>
        <time>2012-04-17T12:18:25Z</time>
      </trkpt>
      <trkpt lat="48.21173" lon="-3.15391">
        <ele>123.18615722656</ele>
        <time>2012-04-17T12:18:35Z</time>
      </trkpt>
      <trkpt lat="48.21171" lon="-3.1546">
        <ele>125.58935546875</ele>
        <time>2012-04-17T12:18:46Z</time>
      </trkpt>
      <trkpt lat="48.21195" lon="-3.15483">
        <ele>127.51196289062</ele>
        <time>2012-04-17T12:18:51Z</time>
      </trkpt>
      <trkpt lat="48.21199" lon="-3.15495">
        <ele>129.91528320312</ele>
        <time>2012-04-17T12:18:54Z</time>
      </trkpt>
      <trkpt lat="48.21201" lon="-3.15516">
        <ele>132.79931640625</ele>
        <time>2012-04-17T12:18:59Z</time>
      </trkpt>
      <trkpt lat="48.21207" lon="-3.15578">
        <ele>140.00915527344</ele>
        <time>2012-04-17T12:19:12Z</time>
      </trkpt>
      <trkpt lat="48.21214" lon="-3.15638">
        <ele>138.08654785156</ele>
        <time>2012-04-17T12:19:23Z</time>
      </trkpt>
      <trkpt lat="48.21222" lon="-3.15698">
        <ele>137.12524414062</ele>
        <time>2012-04-17T12:19:34Z</time>
      </trkpt>
      <trkpt lat="48.21228" lon="-3.1572">
        <ele>135.20251464844</ele>
        <time>2012-04-17T12:19:38Z</time>
      </trkpt>
      <trkpt lat="48.21219" lon="-3.1576">
        <ele>133.27990722656</ele>
        <time>2012-04-17T12:19:43Z</time>
      </trkpt>
      <trkpt lat="48.21247" lon="-3.15838">
        <ele>128.47338867188</ele>
        <time>2012-04-17T12:19:56Z</time>
      </trkpt>
      <trkpt lat="48.21325" lon="-3.15893">
        <ele>127.99255371094</ele>
        <time>2012-04-17T12:20:14Z</time>
      </trkpt>
      <trkpt lat="48.21371" lon="-3.15929">
        <ele>127.99255371094</ele>
        <time>2012-04-17T12:20:28Z</time>
      </trkpt>
      <trkpt lat="48.21405" lon="-3.1598">
        <ele>126.55065917969</ele>
        <time>2012-04-17T12:20:42Z</time>
      </trkpt>
      <trkpt lat="48.2144" lon="-3.16022">
        <ele>126.55065917969</ele>
        <time>2012-04-17T12:20:54Z</time>
      </trkpt>
      <trkpt lat="48.21479" lon="-3.16059">
        <ele>124.62805175781</ele>
        <time>2012-04-17T12:21:05Z</time>
      </trkpt>
      <trkpt lat="48.21533" lon="-3.16104">
        <ele>124.14733886719</ele>
        <time>2012-04-17T12:21:20Z</time>
      </trkpt>
      <trkpt lat="48.21575" lon="-3.16132">
        <ele>123.18615722656</ele>
        <time>2012-04-17T12:21:32Z</time>
      </trkpt>
      <trkpt lat="48.21641" lon="-3.16127">
        <ele>123.18615722656</ele>
        <time>2012-04-17T12:21:48Z</time>
      </trkpt>
      <trkpt lat="48.21725" lon="-3.16096">
        <ele>122.70544433594</ele>
        <time>2012-04-17T12:22:10Z</time>
      </trkpt>
      <trkpt lat="48.21802" lon="-3.16068">
        <ele>125.10876464844</ele>
        <time>2012-04-17T12:22:33Z</time>
      </trkpt>
      <trkpt lat="48.21864" lon="-3.16066">
        <ele>124.14733886719</ele>
        <time>2012-04-17T12:22:54Z</time>
      </trkpt>
      <trkpt lat="48.21908" lon="-3.16093">
        <ele>121.26354980469</ele>
        <time>2012-04-17T12:23:09Z</time>
      </trkpt>
      <trkpt lat="48.21929" lon="-3.16119">
        <ele>120.30212402344</ele>
        <time>2012-04-17T12:23:20Z</time>
      </trkpt>
      <trkpt lat="48.21942" lon="-3.16146">
        <ele>118.37939453125</ele>
        <time>2012-04-17T12:23:30Z</time>
      </trkpt>
      <trkpt lat="48.21955" lon="-3.16175">
        <ele>120.30212402344</ele>
        <time>2012-04-17T12:23:39Z</time>
      </trkpt>
      <trkpt lat="48.21955" lon="-3.16226">
        <ele>124.62805175781</ele>
        <time>2012-04-17T12:23:49Z</time>
      </trkpt>
      <trkpt lat="48.21953" lon="-3.16286">
        <ele>121.744140625</ele>
        <time>2012-04-17T12:24:03Z</time>
      </trkpt>
      <trkpt lat="48.21947" lon="-3.16359">
        <ele>123.18615722656</ele>
        <time>2012-04-17T12:24:19Z</time>
      </trkpt>
      <trkpt lat="48.21936" lon="-3.16414">
        <ele>122.70544433594</ele>
        <time>2012-04-17T12:24:31Z</time>
      </trkpt>
      <trkpt lat="48.21924" lon="-3.16478">
        <ele>124.14733886719</ele>
        <time>2012-04-17T12:24:45Z</time>
      </trkpt>
      <trkpt lat="48.21908" lon="-3.16523">
        <ele>127.03137207031</ele>
        <time>2012-04-17T12:24:55Z</time>
      </trkpt>
      <trkpt lat="48.21893" lon="-3.1658">
        <ele>120.78283691406</ele>
        <time>2012-04-17T12:25:07Z</time>
      </trkpt>
      <trkpt lat="48.21889" lon="-3.16624">
        <ele>121.26354980469</ele>
        <time>2012-04-17T12:25:14Z</time>
      </trkpt>
      <trkpt lat="48.21886" lon="-3.16663">
        <ele>122.70544433594</ele>
        <time>2012-04-17T12:25:20Z</time>
      </trkpt>
      <trkpt lat="48.21875" lon="-3.1671">
        <ele>119.82141113281</ele>
        <time>2012-04-17T12:25:29Z</time>
      </trkpt>
      <trkpt lat="48.21865" lon="-3.16789">
        <ele>122.22473144531</ele>
        <time>2012-04-17T12:25:43Z</time>
      </trkpt>
      <trkpt lat="48.21865" lon="-3.16855">
        <ele>124.62805175781</ele>
        <time>2012-04-17T12:25:54Z</time>
      </trkpt>
      <trkpt lat="48.21874" lon="-3.16908">
        <ele>127.99255371094</ele>
        <time>2012-04-17T12:26:04Z</time>
      </trkpt>
      <trkpt lat="48.21893" lon="-3.16992">
        <ele>129.91528320312</ele>
        <time>2012-04-17T12:26:18Z</time>
      </trkpt>
      <trkpt lat="48.21917" lon="-3.17041">
        <ele>124.62805175781</ele>
        <time>2012-04-17T12:26:32Z</time>
      </trkpt>
      <trkpt lat="48.2194" lon="-3.17063">
        <ele>124.14733886719</ele>
        <time>2012-04-17T12:26:41Z</time>
      </trkpt>
      <trkpt lat="48.21964" lon="-3.17086">
        <ele>122.22473144531</ele>
        <time>2012-04-17T12:26:51Z</time>
      </trkpt>
      <trkpt lat="48.21986" lon="-3.17107">
        <ele>122.70544433594</ele>
        <time>2012-04-17T12:26:58Z</time>
      </trkpt>
      <trkpt lat="48.22009" lon="-3.17134">
        <ele>127.51196289062</ele>
        <time>2012-04-17T12:27:07Z</time>
      </trkpt>
      <trkpt lat="48.22038" lon="-3.17162">
        <ele>129.91528320312</ele>
        <time>2012-04-17T12:27:16Z</time>
      </trkpt>
      <trkpt lat="48.22065" lon="-3.17174">
        <ele>135.20251464844</ele>
        <time>2012-04-17T12:27:25Z</time>
      </trkpt>
      <trkpt lat="48.22072" lon="-3.17177">
        <ele>136.16394042969</ele>
        <time>2012-04-17T12:27:28Z</time>
      </trkpt>
      <trkpt lat="48.22115" lon="-3.17182">
        <ele>138.56726074219</ele>
        <time>2012-04-17T12:27:39Z</time>
      </trkpt>
      <trkpt lat="48.22177" lon="-3.17187">
        <ele>133.76049804688</ele>
        <time>2012-04-17T12:27:56Z</time>
      </trkpt>
      <trkpt lat="48.22242" lon="-3.17193">
        <ele>132.79931640625</ele>
        <time>2012-04-17T12:28:15Z</time>
      </trkpt>
      <trkpt lat="48.22266" lon="-3.17195">
        <ele>131.837890625</ele>
        <time>2012-04-17T12:28:22Z</time>
      </trkpt>
      <trkpt lat="48.22293" lon="-3.17208">
        <ele>131.35729980469</ele>
        <time>2012-04-17T12:28:31Z</time>
      </trkpt>
      <trkpt lat="48.22319" lon="-3.17227">
        <ele>131.35729980469</ele>
        <time>2012-04-17T12:28:41Z</time>
      </trkpt>
      <trkpt lat="48.22382" lon="-3.17273">
        <ele>133.27990722656</ele>
        <time>2012-04-17T12:29:00Z</time>
      </trkpt>
      <trkpt lat="48.22434" lon="-3.1731">
        <ele>131.35729980469</ele>
        <time>2012-04-17T12:29:16Z</time>
      </trkpt>
      <trkpt lat="48.22436" lon="-3.17312">
        <ele>129.91528320312</ele>
        <time>2012-04-17T12:29:27Z</time>
      </trkpt>
      <trkpt lat="48.22531" lon="-3.17324">
        <ele>126.06994628906</ele>
        <time>2012-04-17T12:29:39Z</time>
      </trkpt>
      <trkpt lat="48.22483" lon="-3.17452">
        <ele>125.58935546875</ele>
        <time>2012-04-17T12:29:57Z</time>
      </trkpt>
      <trkpt lat="48.22477" lon="-3.17529">
        <ele>126.06994628906</ele>
        <time>2012-04-17T12:30:13Z</time>
      </trkpt>
      <trkpt lat="48.22472" lon="-3.17607">
        <ele>126.55065917969</ele>
        <time>2012-04-17T12:30:29Z</time>
      </trkpt>
      <trkpt lat="48.2245" lon="-3.17708">
        <ele>127.99255371094</ele>
        <time>2012-04-17T12:30:50Z</time>
      </trkpt>
      <trkpt lat="48.22444" lon="-3.17801">
        <ele>129.43469238281</ele>
        <time>2012-04-17T12:31:10Z</time>
      </trkpt>
      <trkpt lat="48.22442" lon="-3.17821">
        <ele>130.39599609375</ele>
        <time>2012-04-17T12:31:22Z</time>
      </trkpt>
      <trkpt lat="48.2244" lon="-3.17846">
        <ele>130.39599609375</ele>
        <time>2012-04-17T12:32:28Z</time>
      </trkpt>
      <trkpt lat="48.2244" lon="-3.17913">
        <ele>129.43469238281</ele>
        <time>2012-04-17T12:32:43Z</time>
      </trkpt>
      <trkpt lat="48.22449" lon="-3.18008">
        <ele>128.47338867188</ele>
        <time>2012-04-17T12:33:03Z</time>
      </trkpt>
      <trkpt lat="48.22475" lon="-3.18125">
        <ele>127.99255371094</ele>
        <time>2012-04-17T12:33:25Z</time>
      </trkpt>
      <trkpt lat="48.22504" lon="-3.18235">
        <ele>128.9541015625</ele>
        <time>2012-04-17T12:33:46Z</time>
      </trkpt>
      <trkpt lat="48.22537" lon="-3.18366">
        <ele>128.47338867188</ele>
        <time>2012-04-17T12:34:12Z</time>
      </trkpt>
      <trkpt lat="48.22573" lon="-3.18488">
        <ele>128.47338867188</ele>
        <time>2012-04-17T12:34:35Z</time>
      </trkpt>
      <trkpt lat="48.22599" lon="-3.18595">
        <ele>126.55065917969</ele>
        <time>2012-04-17T12:34:55Z</time>
      </trkpt>
      <trkpt lat="48.22629" lon="-3.18706">
        <ele>126.55065917969</ele>
        <time>2012-04-17T12:35:15Z</time>
      </trkpt>
      <trkpt lat="48.22628" lon="-3.18784">
        <ele>126.55065917969</ele>
        <time>2012-04-17T12:35:30Z</time>
      </trkpt>
      <trkpt lat="48.22607" lon="-3.18834">
        <ele>127.51196289062</ele>
        <time>2012-04-17T12:35:44Z</time>
      </trkpt>
      <trkpt lat="48.22553" lon="-3.18909">
        <ele>129.91528320312</ele>
        <time>2012-04-17T12:36:05Z</time>
      </trkpt>
      <trkpt lat="48.22531" lon="-3.18945">
        <ele>130.87670898438</ele>
        <time>2012-04-17T12:36:16Z</time>
      </trkpt>
      <trkpt lat="48.22514" lon="-3.18995">
        <ele>128.47338867188</ele>
        <time>2012-04-17T12:36:26Z</time>
      </trkpt>
      <trkpt lat="48.22499" lon="-3.19087">
        <ele>128.9541015625</ele>
        <time>2012-04-17T12:36:42Z</time>
      </trkpt>
      <trkpt lat="48.22474" lon="-3.19148">
        <ele>128.9541015625</ele>
        <time>2012-04-17T12:36:57Z</time>
      </trkpt>
      <trkpt lat="48.22444" lon="-3.19212">
        <ele>128.9541015625</ele>
        <time>2012-04-17T12:37:13Z</time>
      </trkpt>
      <trkpt lat="48.22387" lon="-3.19293">
        <ele>127.99255371094</ele>
        <time>2012-04-17T12:37:36Z</time>
      </trkpt>
      <trkpt lat="48.22335" lon="-3.19368">
        <ele>127.03137207031</ele>
        <time>2012-04-17T12:37:57Z</time>
      </trkpt>
      <trkpt lat="48.22292" lon="-3.19443">
        <ele>126.55065917969</ele>
        <time>2012-04-17T12:38:16Z</time>
      </trkpt>
      <trkpt lat="48.22268" lon="-3.19529">
        <ele>124.62805175781</ele>
        <time>2012-04-17T12:38:33Z</time>
      </trkpt>
      <trkpt lat="48.22245" lon="-3.19583">
        <ele>122.22473144531</ele>
        <time>2012-04-17T12:38:47Z</time>
      </trkpt>
      <trkpt lat="48.22226" lon="-3.19623">
        <ele>123.18615722656</ele>
        <time>2012-04-17T12:39:02Z</time>
      </trkpt>
      <trkpt lat="48.2222" lon="-3.19651">
        <ele>123.18615722656</ele>
        <time>2012-04-17T12:39:18Z</time>
      </trkpt>
      <trkpt lat="48.22195" lon="-3.19711">
        <ele>124.14733886719</ele>
        <time>2012-04-17T12:39:32Z</time>
      </trkpt>
      <trkpt lat="48.22158" lon="-3.19757">
        <ele>123.66674804688</ele>
        <time>2012-04-17T12:39:46Z</time>
      </trkpt>
      <trkpt lat="48.22118" lon="-3.19809">
        <ele>125.10876464844</ele>
        <time>2012-04-17T12:40:01Z</time>
      </trkpt>
      <trkpt lat="48.22092" lon="-3.19839">
        <ele>124.14733886719</ele>
        <time>2012-04-17T12:40:11Z</time>
      </trkpt>
      <trkpt lat="48.22056" lon="-3.1989">
        <ele>125.10876464844</ele>
        <time>2012-04-17T12:40:24Z</time>
      </trkpt>
      <trkpt lat="48.2202" lon="-3.19966">
        <ele>129.43469238281</ele>
        <time>2012-04-17T12:40:41Z</time>
      </trkpt>
      <trkpt lat="48.21956" lon="-3.20103">
        <ele>130.87670898438</ele>
        <time>2012-04-17T12:41:12Z</time>
      </trkpt>
      <trkpt lat="48.21901" lon="-3.20221">
        <ele>131.837890625</ele>
        <time>2012-04-17T12:41:39Z</time>
      </trkpt>
      <trkpt lat="48.21858" lon="-3.20315">
        <ele>130.87670898438</ele>
        <time>2012-04-17T12:42:01Z</time>
      </trkpt>
      <trkpt lat="48.21818" lon="-3.20407">
        <ele>131.837890625</ele>
        <time>2012-04-17T12:42:24Z</time>
      </trkpt>
      <trkpt lat="48.21795" lon="-3.20469">
        <ele>132.79931640625</ele>
        <time>2012-04-17T12:42:45Z</time>
      </trkpt>
      <trkpt lat="48.21783" lon="-3.20505">
        <ele>133.27990722656</ele>
        <time>2012-04-17T12:43:00Z</time>
      </trkpt>
      <trkpt lat="48.21783" lon="-3.20507">
        <ele>132.31860351562</ele>
        <time>2012-04-17T12:43:45Z</time>
      </trkpt>
      <trkpt lat="48.21776" lon="-3.20537">
        <ele>130.87670898438</ele>
        <time>2012-04-17T13:01:59Z</time>
      </trkpt>
      <trkpt lat="48.21729" lon="-3.20585">
        <ele>129.43469238281</ele>
        <time>2012-04-17T13:02:13Z</time>
      </trkpt>
      <trkpt lat="48.21701" lon="-3.20638">
        <ele>128.9541015625</ele>
        <time>2012-04-17T13:02:26Z</time>
      </trkpt>
      <trkpt lat="48.21675" lon="-3.20684">
        <ele>128.9541015625</ele>
        <time>2012-04-17T13:02:37Z</time>
      </trkpt>
      <trkpt lat="48.21653" lon="-3.20724">
        <ele>129.91528320312</ele>
        <time>2012-04-17T13:02:47Z</time>
      </trkpt>
      <trkpt lat="48.21629" lon="-3.20766">
        <ele>131.837890625</ele>
        <time>2012-04-17T13:02:57Z</time>
      </trkpt>
      <trkpt lat="48.21594" lon="-3.20828">
        <ele>132.31860351562</ele>
        <time>2012-04-17T13:03:10Z</time>
      </trkpt>
      <trkpt lat="48.21553" lon="-3.20893">
        <ele>131.35729980469</ele>
        <time>2012-04-17T13:03:26Z</time>
      </trkpt>
      <trkpt lat="48.21506" lon="-3.2095">
        <ele>130.39599609375</ele>
        <time>2012-04-17T13:03:42Z</time>
      </trkpt>
      <trkpt lat="48.21445" lon="-3.21017">
        <ele>132.79931640625</ele>
        <time>2012-04-17T13:04:01Z</time>
      </trkpt>
      <trkpt lat="48.21402" lon="-3.2106">
        <ele>132.31860351562</ele>
        <time>2012-04-17T13:04:15Z</time>
      </trkpt>
      <trkpt lat="48.21332" lon="-3.21114">
        <ele>131.837890625</ele>
        <time>2012-04-17T13:04:34Z</time>
      </trkpt>
      <trkpt lat="48.21265" lon="-3.21167">
        <ele>130.87670898438</ele>
        <time>2012-04-17T13:04:53Z</time>
      </trkpt>
      <trkpt lat="48.21177" lon="-3.21236">
        <ele>130.87670898438</ele>
        <time>2012-04-17T13:05:17Z</time>
      </trkpt>
      <trkpt lat="48.21106" lon="-3.21292">
        <ele>131.35729980469</ele>
        <time>2012-04-17T13:05:37Z</time>
      </trkpt>
      <trkpt lat="48.21075" lon="-3.21316">
        <ele>131.837890625</ele>
        <time>2012-04-17T13:05:46Z</time>
      </trkpt>
      <trkpt lat="48.21018" lon="-3.21348">
        <ele>134.2412109375</ele>
        <time>2012-04-17T13:06:07Z</time>
      </trkpt>
      <trkpt lat="48.21001" lon="-3.2135">
        <ele>135.68310546875</ele>
        <time>2012-04-17T13:06:19Z</time>
      </trkpt>
      <trkpt lat="48.20994" lon="-3.21414">
        <ele>136.16394042969</ele>
        <time>2012-04-17T13:06:24Z</time>
      </trkpt>
      <trkpt lat="48.20998" lon="-3.21423">
        <ele>136.16394042969</ele>
        <time>2012-04-17T13:06:26Z</time>
      </trkpt>
      <trkpt lat="48.2102" lon="-3.21479">
        <ele>136.16394042969</ele>
        <time>2012-04-17T13:06:31Z</time>
      </trkpt>
      <trkpt lat="48.20998" lon="-3.21503">
        <ele>136.16394042969</ele>
        <time>2012-04-17T13:06:42Z</time>
      </trkpt>
      <trkpt lat="48.20988" lon="-3.21513">
        <ele>136.16394042969</ele>
        <time>2012-04-17T13:06:46Z</time>
      </trkpt>
      <trkpt lat="48.20935" lon="-3.2157">
        <ele>134.72192382812</ele>
        <time>2012-04-17T13:07:07Z</time>
      </trkpt>
      <trkpt lat="48.20863" lon="-3.21649">
        <ele>135.20251464844</ele>
        <time>2012-04-17T13:07:30Z</time>
      </trkpt>
      <trkpt lat="48.20792" lon="-3.21725">
        <ele>135.68310546875</ele>
        <time>2012-04-17T13:07:53Z</time>
      </trkpt>
      <trkpt lat="48.20739" lon="-3.21783">
        <ele>136.16394042969</ele>
        <time>2012-04-17T13:08:11Z</time>
      </trkpt>
      <trkpt lat="48.20675" lon="-3.21852">
        <ele>134.2412109375</ele>
        <time>2012-04-17T13:08:32Z</time>
      </trkpt>
      <trkpt lat="48.20639" lon="-3.21938">
        <ele>134.72192382812</ele>
        <time>2012-04-17T13:08:53Z</time>
      </trkpt>
      <trkpt lat="48.20614" lon="-3.2204">
        <ele>135.20251464844</ele>
        <time>2012-04-17T13:09:14Z</time>
      </trkpt>
      <trkpt lat="48.20583" lon="-3.22177">
        <ele>135.20251464844</ele>
        <time>2012-04-17T13:09:40Z</time>
      </trkpt>
      <trkpt lat="48.20574" lon="-3.22245">
        <ele>134.72192382812</ele>
        <time>2012-04-17T13:09:55Z</time>
      </trkpt>
      <trkpt lat="48.20588" lon="-3.22294">
        <ele>136.64465332031</ele>
        <time>2012-04-17T13:10:05Z</time>
      </trkpt>
      <trkpt lat="48.20606" lon="-3.22347">
        <ele>137.12524414062</ele>
        <time>2012-04-17T13:10:17Z</time>
      </trkpt>
      <trkpt lat="48.20643" lon="-3.22457">
        <ele>137.60583496094</ele>
        <time>2012-04-17T13:10:40Z</time>
      </trkpt>
      <trkpt lat="48.20677" lon="-3.22559">
        <ele>137.12524414062</ele>
        <time>2012-04-17T13:11:01Z</time>
      </trkpt>
      <trkpt lat="48.20718" lon="-3.22695">
        <ele>135.20251464844</ele>
        <time>2012-04-17T13:11:27Z</time>
      </trkpt>
      <trkpt lat="48.20741" lon="-3.22804">
        <ele>133.27990722656</ele>
        <time>2012-04-17T13:11:47Z</time>
      </trkpt>
      <trkpt lat="48.20759" lon="-3.22895">
        <ele>132.31860351562</ele>
        <time>2012-04-17T13:12:04Z</time>
      </trkpt>
      <trkpt lat="48.20773" lon="-3.22968">
        <ele>133.76049804688</ele>
        <time>2012-04-17T13:12:19Z</time>
      </trkpt>
      <trkpt lat="48.20782" lon="-3.23015">
        <ele>132.79931640625</ele>
        <time>2012-04-17T13:12:28Z</time>
      </trkpt>
      <trkpt lat="48.20788" lon="-3.23106">
        <ele>132.79931640625</ele>
        <time>2012-04-17T13:12:43Z</time>
      </trkpt>
      <trkpt lat="48.20793" lon="-3.23201">
        <ele>136.16394042969</ele>
        <time>2012-04-17T13:12:59Z</time>
      </trkpt>
      <trkpt lat="48.20797" lon="-3.23267">
        <ele>138.08654785156</ele>
        <time>2012-04-17T13:13:10Z</time>
      </trkpt>
      <trkpt lat="48.20801" lon="-3.23342">
        <ele>137.60583496094</ele>
        <time>2012-04-17T13:13:23Z</time>
      </trkpt>
      <trkpt lat="48.20796" lon="-3.23408">
        <ele>136.64465332031</ele>
        <time>2012-04-17T13:13:34Z</time>
      </trkpt>
      <trkpt lat="48.20795" lon="-3.23427">
        <ele>136.16394042969</ele>
        <time>2012-04-17T13:13:37Z</time>
      </trkpt>
      <trkpt lat="48.20785" lon="-3.23495">
        <ele>134.72192382812</ele>
        <time>2012-04-17T13:13:49Z</time>
      </trkpt>
      <trkpt lat="48.20748" lon="-3.23546">
        <ele>136.16394042969</ele>
        <time>2012-04-17T13:14:02Z</time>
      </trkpt>
      <trkpt lat="48.20708" lon="-3.23597">
        <ele>138.08654785156</ele>
        <time>2012-04-17T13:14:17Z</time>
      </trkpt>
      <trkpt lat="48.20668" lon="-3.23649">
        <ele>141.45104980469</ele>
        <time>2012-04-17T13:14:33Z</time>
      </trkpt>
      <trkpt lat="48.20619" lon="-3.23695">
        <ele>139.0478515625</ele>
        <time>2012-04-17T13:14:48Z</time>
      </trkpt>
      <trkpt lat="48.20571" lon="-3.23738">
        <ele>141.93176269531</ele>
        <time>2012-04-17T13:15:03Z</time>
      </trkpt>
      <trkpt lat="48.20501" lon="-3.23766">
        <ele>140.97045898438</ele>
        <time>2012-04-17T13:15:20Z</time>
      </trkpt>
      <trkpt lat="48.20405" lon="-3.23738">
        <ele>140.00915527344</ele>
        <time>2012-04-17T13:15:43Z</time>
      </trkpt>
      <trkpt lat="48.20315" lon="-3.2372">
        <ele>139.52844238281</ele>
        <time>2012-04-17T13:16:07Z</time>
      </trkpt>
      <trkpt lat="48.20266" lon="-3.23732">
        <ele>137.60583496094</ele>
        <time>2012-04-17T13:16:23Z</time>
      </trkpt>
      <trkpt lat="48.20217" lon="-3.23759">
        <ele>140.00915527344</ele>
        <time>2012-04-17T13:16:42Z</time>
      </trkpt>
      <trkpt lat="48.20158" lon="-3.23819">
        <ele>140.48986816406</ele>
        <time>2012-04-17T13:17:04Z</time>
      </trkpt>
      <trkpt lat="48.20097" lon="-3.23882">
        <ele>140.00915527344</ele>
        <time>2012-04-17T13:17:26Z</time>
      </trkpt>
      <trkpt lat="48.20042" lon="-3.23939">
        <ele>141.45104980469</ele>
        <time>2012-04-17T13:17:44Z</time>
      </trkpt>
      <trkpt lat="48.1998" lon="-3.24003">
        <ele>141.45104980469</ele>
        <time>2012-04-17T13:18:04Z</time>
      </trkpt>
      <trkpt lat="48.19894" lon="-3.24082">
        <ele>139.52844238281</ele>
        <time>2012-04-17T13:18:31Z</time>
      </trkpt>
      <trkpt lat="48.19845" lon="-3.24125">
        <ele>139.52844238281</ele>
        <time>2012-04-17T13:18:45Z</time>
      </trkpt>
      <trkpt lat="48.1979" lon="-3.24175">
        <ele>139.52844238281</ele>
        <time>2012-04-17T13:19:02Z</time>
      </trkpt>
      <trkpt lat="48.19779" lon="-3.24185">
        <ele>138.56726074219</ele>
        <time>2012-04-17T13:19:07Z</time>
      </trkpt>
      <trkpt lat="48.19745" lon="-3.24215">
        <ele>138.56726074219</ele>
        <time>2012-04-17T13:19:21Z</time>
      </trkpt>
      <trkpt lat="48.19701" lon="-3.24255">
        <ele>141.45104980469</ele>
        <time>2012-04-17T13:19:40Z</time>
      </trkpt>
      <trkpt lat="48.1969" lon="-3.24265">
        <ele>142.41247558594</ele>
        <time>2012-04-17T13:19:54Z</time>
      </trkpt>
      <trkpt lat="48.19676" lon="-3.24277">
        <ele>141.45104980469</ele>
        <time>2012-04-17T13:21:42Z</time>
      </trkpt>
      <trkpt lat="48.19637" lon="-3.24215">
        <ele>141.45104980469</ele>
        <time>2012-04-17T13:21:52Z</time>
      </trkpt>
      <trkpt lat="48.19637" lon="-3.24214">
        <ele>141.93176269531</ele>
        <time>2012-04-17T13:22:33Z</time>
      </trkpt>
      <trkpt lat="48.19637" lon="-3.24214">
        <ele>142.41247558594</ele>
        <time>2012-04-17T13:25:44Z</time>
      </trkpt>
      <trkpt lat="48.19637" lon="-3.24214">
        <ele>142.41247558594</ele>
        <time>2012-04-17T13:26:46Z</time>
      </trkpt>
      <trkpt lat="48.19637" lon="-3.24214">
        <ele>142.41247558594</ele>
        <time>2012-04-17T13:30:03Z</time>
      </trkpt>
      <trkpt lat="48.19629" lon="-3.24226">
        <ele>142.41247558594</ele>
        <time>2012-04-17T13:30:10Z</time>
      </trkpt>
      <trkpt lat="48.19595" lon="-3.24236">
        <ele>141.45104980469</ele>
        <time>2012-04-17T13:30:23Z</time>
      </trkpt>
      <trkpt lat="48.19548" lon="-3.24254">
        <ele>140.00915527344</ele>
        <time>2012-04-17T13:30:38Z</time>
      </trkpt>
      <trkpt lat="48.19499" lon="-3.24291">
        <ele>137.60583496094</ele>
        <time>2012-04-17T13:30:54Z</time>
      </trkpt>
      <trkpt lat="48.19474" lon="-3.24341">
        <ele>136.64465332031</ele>
        <time>2012-04-17T13:31:06Z</time>
      </trkpt>
      <trkpt lat="48.19438" lon="-3.24435">
        <ele>138.56726074219</ele>
        <time>2012-04-17T13:31:25Z</time>
      </trkpt>
      <trkpt lat="48.19439" lon="-3.24531">
        <ele>138.08654785156</ele>
        <time>2012-04-17T13:31:42Z</time>
      </trkpt>
      <trkpt lat="48.19454" lon="-3.24684">
        <ele>136.16394042969</ele>
        <time>2012-04-17T13:32:09Z</time>
      </trkpt>
      <trkpt lat="48.19463" lon="-3.24782">
        <ele>140.00915527344</ele>
        <time>2012-04-17T13:32:27Z</time>
      </trkpt>
      <trkpt lat="48.19473" lon="-3.24877">
        <ele>137.12524414062</ele>
        <time>2012-04-17T13:32:45Z</time>
      </trkpt>
      <trkpt lat="48.19481" lon="-3.24966">
        <ele>137.60583496094</ele>
        <time>2012-04-17T13:33:03Z</time>
      </trkpt>
      <trkpt lat="48.19494" lon="-3.25059">
        <ele>138.08654785156</ele>
        <time>2012-04-17T13:33:23Z</time>
      </trkpt>
      <trkpt lat="48.19519" lon="-3.25194">
        <ele>137.60583496094</ele>
        <time>2012-04-17T13:33:50Z</time>
      </trkpt>
      <trkpt lat="48.19547" lon="-3.25343">
        <ele>136.64465332031</ele>
        <time>2012-04-17T13:34:18Z</time>
      </trkpt>
      <trkpt lat="48.19574" lon="-3.25501">
        <ele>137.60583496094</ele>
        <time>2012-04-17T13:34:46Z</time>
      </trkpt>
      <trkpt lat="48.19594" lon="-3.25611">
        <ele>136.16394042969</ele>
        <time>2012-04-17T13:35:05Z</time>
      </trkpt>
      <trkpt lat="48.1961" lon="-3.25697">
        <ele>137.60583496094</ele>
        <time>2012-04-17T13:35:24Z</time>
      </trkpt>
      <trkpt lat="48.19624" lon="-3.25769">
        <ele>139.0478515625</ele>
        <time>2012-04-17T13:35:40Z</time>
      </trkpt>
      <trkpt lat="48.19623" lon="-3.25848">
        <ele>139.0478515625</ele>
        <time>2012-04-17T13:35:56Z</time>
      </trkpt>
      <trkpt lat="48.19592" lon="-3.25888">
        <ele>141.93176269531</ele>
        <time>2012-04-17T13:36:09Z</time>
      </trkpt>
      <trkpt lat="48.1958" lon="-3.25899">
        <ele>144.81579589844</ele>
        <time>2012-04-17T13:36:16Z</time>
      </trkpt>
      <trkpt lat="48.19551" lon="-3.25924">
        <ele>150.58361816406</ele>
        <time>2012-04-17T13:36:33Z</time>
      </trkpt>
      <trkpt lat="48.19515" lon="-3.25961">
        <ele>151.06420898438</ele>
        <time>2012-04-17T13:36:50Z</time>
      </trkpt>
      <trkpt lat="48.19465" lon="-3.26015">
        <ele>152.02575683594</ele>
        <time>2012-04-17T13:37:10Z</time>
      </trkpt>
      <trkpt lat="48.19436" lon="-3.26066">
        <ele>150.58361816406</ele>
        <time>2012-04-17T13:37:27Z</time>
      </trkpt>
      <trkpt lat="48.19436" lon="-3.26074">
        <ele>150.58361816406</ele>
        <time>2012-04-17T13:37:41Z</time>
      </trkpt>
      <trkpt lat="48.19437" lon="-3.26099">
        <ele>149.62231445312</ele>
        <time>2012-04-17T13:39:54Z</time>
      </trkpt>
      <trkpt lat="48.19443" lon="-3.2612">
        <ele>148.66101074219</ele>
        <time>2012-04-17T13:40:08Z</time>
      </trkpt>
      <trkpt lat="48.19449" lon="-3.2613">
        <ele>148.66101074219</ele>
        <time>2012-04-17T13:41:15Z</time>
      </trkpt>
      <trkpt lat="48.19468" lon="-3.2615">
        <ele>148.66101074219</ele>
        <time>2012-04-17T13:41:31Z</time>
      </trkpt>
      <trkpt lat="48.19469" lon="-3.26152">
        <ele>148.66101074219</ele>
        <time>2012-04-17T13:41:49Z</time>
      </trkpt>
      <trkpt lat="48.19469" lon="-3.26152">
        <ele>149.1416015625</ele>
        <time>2012-04-17T13:42:20Z</time>
      </trkpt>
      <trkpt lat="48.19469" lon="-3.26152">
        <ele>148.66101074219</ele>
        <time>2012-04-17T13:44:18Z</time>
      </trkpt>
      <trkpt lat="48.19494" lon="-3.26181">
        <ele>147.69970703125</ele>
        <time>2012-04-17T13:44:31Z</time>
      </trkpt>
      <trkpt lat="48.19542" lon="-3.26235">
        <ele>149.62231445312</ele>
        <time>2012-04-17T13:44:49Z</time>
      </trkpt>
      <trkpt lat="48.19573" lon="-3.26302">
        <ele>150.10302734375</ele>
        <time>2012-04-17T13:45:04Z</time>
      </trkpt>
      <trkpt lat="48.19585" lon="-3.26382">
        <ele>151.544921875</ele>
        <time>2012-04-17T13:45:19Z</time>
      </trkpt>
      <trkpt lat="48.19597" lon="-3.26476">
        <ele>150.10302734375</ele>
        <time>2012-04-17T13:45:36Z</time>
      </trkpt>
      <trkpt lat="48.19606" lon="-3.26562">
        <ele>149.1416015625</ele>
        <time>2012-04-17T13:45:54Z</time>
      </trkpt>
      <trkpt lat="48.19609" lon="-3.26576">
        <ele>150.58361816406</ele>
        <time>2012-04-17T13:46:00Z</time>
      </trkpt>
      <trkpt lat="48.19626" lon="-3.26645">
        <ele>152.02575683594</ele>
        <time>2012-04-17T13:46:16Z</time>
      </trkpt>
      <trkpt lat="48.19649" lon="-3.26738">
        <ele>149.62231445312</ele>
        <time>2012-04-17T13:46:34Z</time>
      </trkpt>
      <trkpt lat="48.1966" lon="-3.26785">
        <ele>151.06420898438</ele>
        <time>2012-04-17T13:46:47Z</time>
      </trkpt>
      <trkpt lat="48.19661" lon="-3.2679">
        <ele>151.06420898438</ele>
        <time>2012-04-17T13:46:49Z</time>
      </trkpt>
      <trkpt lat="48.19664" lon="-3.26794">
        <ele>151.544921875</ele>
        <time>2012-04-17T13:46:51Z</time>
      </trkpt>
      <trkpt lat="48.1966" lon="-3.26803">
        <ele>152.50634765625</ele>
        <time>2012-04-17T13:46:56Z</time>
      </trkpt>
      <trkpt lat="48.19654" lon="-3.26806">
        <ele>153.94836425781</ele>
        <time>2012-04-17T13:47:12Z</time>
      </trkpt>
      <trkpt lat="48.19654" lon="-3.26804">
        <ele>153.94836425781</ele>
        <time>2012-04-17T13:47:31Z</time>
      </trkpt>
      <trkpt lat="48.19661" lon="-3.26802">
        <ele>153.46765136719</ele>
        <time>2012-04-17T13:47:36Z</time>
      </trkpt>
      <trkpt lat="48.19667" lon="-3.26813">
        <ele>153.94836425781</ele>
        <time>2012-04-17T13:47:40Z</time>
      </trkpt>
      <trkpt lat="48.19684" lon="-3.26882">
        <ele>153.94836425781</ele>
        <time>2012-04-17T13:47:56Z</time>
      </trkpt>
      <trkpt lat="48.19691" lon="-3.26923">
        <ele>155.39025878906</ele>
        <time>2012-04-17T13:48:07Z</time>
      </trkpt>
      <trkpt lat="48.19691" lon="-3.26985">
        <ele>149.62231445312</ele>
        <time>2012-04-17T13:48:20Z</time>
      </trkpt>
      <trkpt lat="48.19673" lon="-3.27081">
        <ele>154.42895507812</ele>
        <time>2012-04-17T13:48:38Z</time>
      </trkpt>
      <trkpt lat="48.19652" lon="-3.27186">
        <ele>157.79357910156</ele>
        <time>2012-04-17T13:48:57Z</time>
      </trkpt>
      <trkpt lat="48.19671" lon="-3.27247">
        <ele>156.3515625</ele>
        <time>2012-04-17T13:49:10Z</time>
      </trkpt>
      <trkpt lat="48.19717" lon="-3.27272">
        <ele>155.87097167969</ele>
        <time>2012-04-17T13:49:24Z</time>
      </trkpt>
      <trkpt lat="48.1976" lon="-3.27234">
        <ele>153.94836425781</ele>
        <time>2012-04-17T13:49:38Z</time>
      </trkpt>
      <trkpt lat="48.19787" lon="-3.27163">
        <ele>153.94836425781</ele>
        <time>2012-04-17T13:49:52Z</time>
      </trkpt>
      <trkpt lat="48.19813" lon="-3.271">
        <ele>154.90954589844</ele>
        <time>2012-04-17T13:50:05Z</time>
      </trkpt>
      <trkpt lat="48.19852" lon="-3.27053">
        <ele>154.42895507812</ele>
        <time>2012-04-17T13:50:18Z</time>
      </trkpt>
      <trkpt lat="48.19877" lon="-3.27036">
        <ele>153.94836425781</ele>
        <time>2012-04-17T13:50:25Z</time>
      </trkpt>
      <trkpt lat="48.19948" lon="-3.27034">
        <ele>152.50634765625</ele>
        <time>2012-04-17T13:50:43Z</time>
      </trkpt>
      <trkpt lat="48.2" lon="-3.27047">
        <ele>153.94836425781</ele>
        <time>2012-04-17T13:50:58Z</time>
      </trkpt>
      <trkpt lat="48.20051" lon="-3.27079">
        <ele>153.46765136719</ele>
        <time>2012-04-17T13:51:13Z</time>
      </trkpt>
      <trkpt lat="48.20081" lon="-3.2713">
        <ele>156.3515625</ele>
        <time>2012-04-17T13:51:26Z</time>
      </trkpt>
      <trkpt lat="48.20118" lon="-3.27233">
        <ele>156.3515625</ele>
        <time>2012-04-17T13:51:47Z</time>
      </trkpt>
      <trkpt lat="48.20154" lon="-3.27344">
        <ele>157.31286621094</ele>
        <time>2012-04-17T13:52:08Z</time>
      </trkpt>
      <trkpt lat="48.20165" lon="-3.27417">
        <ele>164.52270507812</ele>
        <time>2012-04-17T13:52:22Z</time>
      </trkpt>
      <trkpt lat="48.20177" lon="-3.27545">
        <ele>167.88732910156</ele>
        <time>2012-04-17T13:52:44Z</time>
      </trkpt>
      <trkpt lat="48.20177" lon="-3.27551">
        <ele>167.88732910156</ele>
        <time>2012-04-17T13:52:45Z</time>
      </trkpt>
      <trkpt lat="48.20189" lon="-3.27658">
        <ele>166.4453125</ele>
        <time>2012-04-17T13:53:03Z</time>
      </trkpt>
      <trkpt lat="48.20205" lon="-3.27783">
        <ele>164.04211425781</ele>
        <time>2012-04-17T13:53:25Z</time>
      </trkpt>
      <trkpt lat="48.20222" lon="-3.27822">
        <ele>163.08081054688</ele>
        <time>2012-04-17T13:53:34Z</time>
      </trkpt>
      <trkpt lat="48.20278" lon="-3.27861">
        <ele>162.60009765625</ele>
        <time>2012-04-17T13:53:49Z</time>
      </trkpt>
      <trkpt lat="48.20325" lon="-3.2788">
        <ele>161.63891601562</ele>
        <time>2012-04-17T13:54:03Z</time>
      </trkpt>
      <trkpt lat="48.20378" lon="-3.27901">
        <ele>164.04211425781</ele>
        <time>2012-04-17T13:54:20Z</time>
      </trkpt>
      <trkpt lat="48.20398" lon="-3.27911">
        <ele>161.158203125</ele>
        <time>2012-04-17T13:54:34Z</time>
      </trkpt>
      <trkpt lat="48.20418" lon="-3.27921">
        <ele>160.19689941406</ele>
        <time>2012-04-17T13:54:52Z</time>
      </trkpt>
      <trkpt lat="48.20474" lon="-3.2794">
        <ele>158.75476074219</ele>
        <time>2012-04-17T13:55:09Z</time>
      </trkpt>
      <trkpt lat="48.20531" lon="-3.27973">
        <ele>157.79357910156</ele>
        <time>2012-04-17T13:55:26Z</time>
      </trkpt>
      <trkpt lat="48.20556" lon="-3.28021">
        <ele>157.79357910156</ele>
        <time>2012-04-17T13:55:39Z</time>
      </trkpt>
      <trkpt lat="48.20566" lon="-3.28111">
        <ele>157.31286621094</ele>
        <time>2012-04-17T13:55:55Z</time>
      </trkpt>
      <trkpt lat="48.20554" lon="-3.28241">
        <ele>157.79357910156</ele>
        <time>2012-04-17T13:56:18Z</time>
      </trkpt>
      <trkpt lat="48.20543" lon="-3.28364">
        <ele>157.31286621094</ele>
        <time>2012-04-17T13:56:39Z</time>
      </trkpt>
      <trkpt lat="48.20502" lon="-3.28445">
        <ele>157.79357910156</ele>
        <time>2012-04-17T13:56:56Z</time>
      </trkpt>
      <trkpt lat="48.20427" lon="-3.28492">
        <ele>157.31286621094</ele>
        <time>2012-04-17T13:57:17Z</time>
      </trkpt>
      <trkpt lat="48.20323" lon="-3.28544">
        <ele>155.87097167969</ele>
        <time>2012-04-17T13:57:44Z</time>
      </trkpt>
      <trkpt lat="48.20202" lon="-3.28604">
        <ele>156.3515625</ele>
        <time>2012-04-17T13:58:15Z</time>
      </trkpt>
      <trkpt lat="48.20133" lon="-3.28665">
        <ele>156.3515625</ele>
        <time>2012-04-17T13:58:35Z</time>
      </trkpt>
      <trkpt lat="48.20124" lon="-3.28693">
        <ele>155.87097167969</ele>
        <time>2012-04-17T13:58:40Z</time>
      </trkpt>
      <trkpt lat="48.20123" lon="-3.28818">
        <ele>157.31286621094</ele>
        <time>2012-04-17T13:59:00Z</time>
      </trkpt>
      <trkpt lat="48.20125" lon="-3.28883">
        <ele>158.27416992188</ele>
        <time>2012-04-17T13:59:11Z</time>
      </trkpt>
      <trkpt lat="48.20125" lon="-3.2895">
        <ele>156.83215332031</ele>
        <time>2012-04-17T13:59:23Z</time>
      </trkpt>
      <trkpt lat="48.20152" lon="-3.2902">
        <ele>153.94836425781</ele>
        <time>2012-04-17T13:59:36Z</time>
      </trkpt>
      <trkpt lat="48.20203" lon="-3.29108">
        <ele>154.90954589844</ele>
        <time>2012-04-17T13:59:56Z</time>
      </trkpt>
      <trkpt lat="48.2024" lon="-3.29167">
        <ele>155.87097167969</ele>
        <time>2012-04-17T14:00:13Z</time>
      </trkpt>
      <trkpt lat="48.20283" lon="-3.29241">
        <ele>157.31286621094</ele>
        <time>2012-04-17T14:00:33Z</time>
      </trkpt>
      <trkpt lat="48.20323" lon="-3.29314">
        <ele>157.31286621094</ele>
        <time>2012-04-17T14:00:50Z</time>
      </trkpt>
      <trkpt lat="48.20382" lon="-3.29411">
        <ele>156.3515625</ele>
        <time>2012-04-17T14:01:14Z</time>
      </trkpt>
      <trkpt lat="48.20442" lon="-3.29512">
        <ele>157.31286621094</ele>
        <time>2012-04-17T14:01:37Z</time>
      </trkpt>
      <trkpt lat="48.20464" lon="-3.29588">
        <ele>156.83215332031</ele>
        <time>2012-04-17T14:01:51Z</time>
      </trkpt>
      <trkpt lat="48.2047" lon="-3.29682">
        <ele>158.75476074219</ele>
        <time>2012-04-17T14:02:07Z</time>
      </trkpt>
      <trkpt lat="48.20476" lon="-3.29785">
        <ele>157.79357910156</ele>
        <time>2012-04-17T14:02:24Z</time>
      </trkpt>
      <trkpt lat="48.20485" lon="-3.29922">
        <ele>157.79357910156</ele>
        <time>2012-04-17T14:02:47Z</time>
      </trkpt>
      <trkpt lat="48.20492" lon="-3.30033">
        <ele>160.19689941406</ele>
        <time>2012-04-17T14:03:05Z</time>
      </trkpt>
      <trkpt lat="48.20502" lon="-3.30191">
        <ele>158.75476074219</ele>
        <time>2012-04-17T14:03:31Z</time>
      </trkpt>
      <trkpt lat="48.20504" lon="-3.30225">
        <ele>159.23547363281</ele>
        <time>2012-04-17T14:03:37Z</time>
      </trkpt>
      <trkpt lat="48.2051" lon="-3.30316">
        <ele>160.67749023438</ele>
        <time>2012-04-17T14:03:52Z</time>
      </trkpt>
      <trkpt lat="48.20511" lon="-3.30441">
        <ele>160.67749023438</ele>
        <time>2012-04-17T14:04:15Z</time>
      </trkpt>
      <trkpt lat="48.20512" lon="-3.30476">
        <ele>161.63891601562</ele>
        <time>2012-04-17T14:04:23Z</time>
      </trkpt>
      <trkpt lat="48.2051" lon="-3.30487">
        <ele>161.158203125</ele>
        <time>2012-04-17T14:04:34Z</time>
      </trkpt>
      <trkpt lat="48.2051" lon="-3.3049">
        <ele>161.158203125</ele>
        <time>2012-04-17T14:04:54Z</time>
      </trkpt>
      <trkpt lat="48.20508" lon="-3.30493">
        <ele>161.158203125</ele>
        <time>2012-04-17T14:05:14Z</time>
      </trkpt>
      <trkpt lat="48.20509" lon="-3.30495">
        <ele>160.67749023438</ele>
        <time>2012-04-17T14:08:54Z</time>
      </trkpt>
      <trkpt lat="48.2051" lon="-3.30509">
        <ele>161.63891601562</ele>
        <time>2012-04-17T14:09:04Z</time>
      </trkpt>
      <trkpt lat="48.2051" lon="-3.30529">
        <ele>161.158203125</ele>
        <time>2012-04-17T14:09:29Z</time>
      </trkpt>
      <trkpt lat="48.2051" lon="-3.30538">
        <ele>159.71618652344</ele>
        <time>2012-04-17T14:12:26Z</time>
      </trkpt>
      <trkpt lat="48.20509" lon="-3.30602">
        <ele>160.19689941406</ele>
        <time>2012-04-17T14:12:40Z</time>
      </trkpt>
      <trkpt lat="48.20517" lon="-3.30672">
        <ele>163.08081054688</ele>
        <time>2012-04-17T14:12:53Z</time>
      </trkpt>
      <trkpt lat="48.20544" lon="-3.30731">
        <ele>163.5615234375</ele>
        <time>2012-04-17T14:13:06Z</time>
      </trkpt>
      <trkpt lat="48.20585" lon="-3.30814">
        <ele>163.08081054688</ele>
        <time>2012-04-17T14:13:24Z</time>
      </trkpt>
      <trkpt lat="48.20619" lon="-3.3088">
        <ele>164.04211425781</ele>
        <time>2012-04-17T14:13:38Z</time>
      </trkpt>
      <trkpt lat="48.20664" lon="-3.30968">
        <ele>163.08081054688</ele>
        <time>2012-04-17T14:13:56Z</time>
      </trkpt>
      <trkpt lat="48.20718" lon="-3.31077">
        <ele>165.00341796875</ele>
        <time>2012-04-17T14:14:19Z</time>
      </trkpt>
      <trkpt lat="48.2076" lon="-3.31159">
        <ele>164.52270507812</ele>
        <time>2012-04-17T14:14:36Z</time>
      </trkpt>
      <trkpt lat="48.20788" lon="-3.31216">
        <ele>164.52270507812</ele>
        <time>2012-04-17T14:14:48Z</time>
      </trkpt>
      <trkpt lat="48.20822" lon="-3.31282">
        <ele>164.04211425781</ele>
        <time>2012-04-17T14:15:03Z</time>
      </trkpt>
      <trkpt lat="48.20866" lon="-3.31368">
        <ele>168.36804199219</ele>
        <time>2012-04-17T14:15:22Z</time>
      </trkpt>
      <trkpt lat="48.2088" lon="-3.31397">
        <ele>170.77136230469</ele>
        <time>2012-04-17T14:15:28Z</time>
      </trkpt>
      <trkpt lat="48.20933" lon="-3.31498">
        <ele>166.4453125</ele>
        <time>2012-04-17T14:15:48Z</time>
      </trkpt>
      <trkpt lat="48.20983" lon="-3.31601">
        <ele>167.88732910156</ele>
        <time>2012-04-17T14:16:09Z</time>
      </trkpt>
      <trkpt lat="48.21011" lon="-3.31652">
        <ele>167.88732910156</ele>
        <time>2012-04-17T14:16:20Z</time>
      </trkpt>
      <trkpt lat="48.21041" lon="-3.31707">
        <ele>166.92602539062</ele>
        <time>2012-04-17T14:16:36Z</time>
      </trkpt>
      <trkpt lat="48.21081" lon="-3.31788">
        <ele>164.04211425781</ele>
        <time>2012-04-17T14:16:56Z</time>
      </trkpt>
      <trkpt lat="48.21112" lon="-3.31872">
        <ele>163.08081054688</ele>
        <time>2012-04-17T14:17:14Z</time>
      </trkpt>
      <trkpt lat="48.21111" lon="-3.31945">
        <ele>164.52270507812</ele>
        <time>2012-04-17T14:17:28Z</time>
      </trkpt>
      <trkpt lat="48.21105" lon="-3.31969">
        <ele>165.00341796875</ele>
        <time>2012-04-17T14:17:36Z</time>
      </trkpt>
      <trkpt lat="48.21106" lon="-3.3198">
        <ele>165.00341796875</ele>
        <time>2012-04-17T14:17:40Z</time>
      </trkpt>
      <trkpt lat="48.21107" lon="-3.31987">
        <ele>165.00341796875</ele>
        <time>2012-04-17T14:17:42Z</time>
      </trkpt>
      <trkpt lat="48.21095" lon="-3.32078">
        <ele>163.5615234375</ele>
        <time>2012-04-17T14:18:00Z</time>
      </trkpt>
      <trkpt lat="48.21091" lon="-3.32131">
        <ele>162.60009765625</ele>
        <time>2012-04-17T14:18:16Z</time>
      </trkpt>
      <trkpt lat="48.21089" lon="-3.32135">
        <ele>160.67749023438</ele>
        <time>2012-04-17T14:18:58Z</time>
      </trkpt>
      <trkpt lat="48.21088" lon="-3.32137">
        <ele>160.67749023438</ele>
        <time>2012-04-17T14:19:08Z</time>
      </trkpt>
      <trkpt lat="48.21086" lon="-3.3214">
        <ele>161.158203125</ele>
        <time>2012-04-17T14:27:18Z</time>
      </trkpt>
      <trkpt lat="48.21086" lon="-3.32141">
        <ele>161.158203125</ele>
        <time>2012-04-17T14:27:21Z</time>
      </trkpt>
      <trkpt lat="48.21086" lon="-3.32147">
        <ele>160.67749023438</ele>
        <time>2012-04-17T14:27:25Z</time>
      </trkpt>
      <trkpt lat="48.21079" lon="-3.32201">
        <ele>161.63891601562</ele>
        <time>2012-04-17T14:27:39Z</time>
      </trkpt>
      <trkpt lat="48.21073" lon="-3.32247">
        <ele>164.52270507812</ele>
        <time>2012-04-17T14:27:49Z</time>
      </trkpt>
      <trkpt lat="48.21067" lon="-3.3231">
        <ele>165.00341796875</ele>
        <time>2012-04-17T14:28:01Z</time>
      </trkpt>
      <trkpt lat="48.2106" lon="-3.32399">
        <ele>161.63891601562</ele>
        <time>2012-04-17T14:28:16Z</time>
      </trkpt>
      <trkpt lat="48.21049" lon="-3.32483">
        <ele>159.71618652344</ele>
        <time>2012-04-17T14:28:31Z</time>
      </trkpt>
      <trkpt lat="48.21041" lon="-3.32545">
        <ele>159.71618652344</ele>
        <time>2012-04-17T14:28:42Z</time>
      </trkpt>
      <trkpt lat="48.21057" lon="-3.32635">
        <ele>161.158203125</ele>
        <time>2012-04-17T14:28:57Z</time>
      </trkpt>
      <trkpt lat="48.21073" lon="-3.32723">
        <ele>164.52270507812</ele>
        <time>2012-04-17T14:29:13Z</time>
      </trkpt>
      <trkpt lat="48.21078" lon="-3.32741">
        <ele>164.52270507812</ele>
        <time>2012-04-17T14:29:16Z</time>
      </trkpt>
      <trkpt lat="48.21088" lon="-3.32779">
        <ele>164.52270507812</ele>
        <time>2012-04-17T14:29:22Z</time>
      </trkpt>
      <trkpt lat="48.21092" lon="-3.32797">
        <ele>164.04211425781</ele>
        <time>2012-04-17T14:29:25Z</time>
      </trkpt>
      <trkpt lat="48.21113" lon="-3.32879">
        <ele>162.11950683594</ele>
        <time>2012-04-17T14:29:40Z</time>
      </trkpt>
      <trkpt lat="48.21119" lon="-3.329">
        <ele>161.158203125</ele>
        <time>2012-04-17T14:29:44Z</time>
      </trkpt>
      <trkpt lat="48.2115" lon="-3.32974">
        <ele>163.08081054688</ele>
        <time>2012-04-17T14:30:00Z</time>
      </trkpt>
      <trkpt lat="48.21209" lon="-3.33056">
        <ele>164.04211425781</ele>
        <time>2012-04-17T14:30:21Z</time>
      </trkpt>
      <trkpt lat="48.21244" lon="-3.33106">
        <ele>164.52270507812</ele>
        <time>2012-04-17T14:30:34Z</time>
      </trkpt>
      <trkpt lat="48.21298" lon="-3.33181">
        <ele>165.96472167969</ele>
        <time>2012-04-17T14:30:55Z</time>
      </trkpt>
      <trkpt lat="48.21338" lon="-3.33238">
        <ele>165.48413085938</ele>
        <time>2012-04-17T14:31:10Z</time>
      </trkpt>
      <trkpt lat="48.21378" lon="-3.33295">
        <ele>166.4453125</ele>
        <time>2012-04-17T14:31:24Z</time>
      </trkpt>
      <trkpt lat="48.21427" lon="-3.33361">
        <ele>166.92602539062</ele>
        <time>2012-04-17T14:31:42Z</time>
      </trkpt>
      <trkpt lat="48.21439" lon="-3.33364">
        <ele>167.40673828125</ele>
        <time>2012-04-17T14:31:49Z</time>
      </trkpt>
      <trkpt lat="48.21439" lon="-3.33357">
        <ele>168.36804199219</ele>
        <time>2012-04-17T14:32:08Z</time>
      </trkpt>
      <trkpt lat="48.21439" lon="-3.33302">
        <ele>168.36804199219</ele>
        <time>2012-04-17T14:32:25Z</time>
      </trkpt>
      <trkpt lat="48.21421" lon="-3.33211">
        <ele>172.21325683594</ele>
        <time>2012-04-17T14:32:50Z</time>
      </trkpt>
      <trkpt lat="48.21381" lon="-3.33128">
        <ele>174.61657714844</ele>
        <time>2012-04-17T14:33:13Z</time>
      </trkpt>
      <trkpt lat="48.21343" lon="-3.33052">
        <ele>175.09729003906</ele>
        <time>2012-04-17T14:33:34Z</time>
      </trkpt>
      <trkpt lat="48.21315" lon="-3.32937">
        <ele>175.09729003906</ele>
        <time>2012-04-17T14:33:55Z</time>
      </trkpt>
      <trkpt lat="48.21312" lon="-3.32773">
        <ele>171.25207519531</ele>
        <time>2012-04-17T14:34:14Z</time>
      </trkpt>
      <trkpt lat="48.21311" lon="-3.32459">
        <ele>170.29064941406</ele>
        <time>2012-04-17T14:34:46Z</time>
      </trkpt>
      <trkpt lat="48.21335" lon="-3.3235">
        <ele>171.25207519531</ele>
        <time>2012-04-17T14:35:02Z</time>
      </trkpt>
      <trkpt lat="48.21367" lon="-3.32316">
        <ele>170.29064941406</ele>
        <time>2012-04-17T14:35:10Z</time>
      </trkpt>
      <trkpt lat="48.21447" lon="-3.32294">
        <ele>169.81005859375</ele>
        <time>2012-04-17T14:35:26Z</time>
      </trkpt>
      <trkpt lat="48.21617" lon="-3.32277">
        <ele>169.32946777344</ele>
        <time>2012-04-17T14:35:58Z</time>
      </trkpt>
      <trkpt lat="48.21765" lon="-3.32262">
        <ele>167.88732910156</ele>
        <time>2012-04-17T14:36:26Z</time>
      </trkpt>
      <trkpt lat="48.21917" lon="-3.32249">
        <ele>168.36804199219</ele>
        <time>2012-04-17T14:36:55Z</time>
      </trkpt>
      <trkpt lat="48.22047" lon="-3.32251">
        <ele>168.84875488281</ele>
        <time>2012-04-17T14:37:21Z</time>
      </trkpt>
      <trkpt lat="48.22165" lon="-3.32293">
        <ele>168.84875488281</ele>
        <time>2012-04-17T14:37:46Z</time>
      </trkpt>
      <trkpt lat="48.22242" lon="-3.32324">
        <ele>172.21325683594</ele>
        <time>2012-04-17T14:38:05Z</time>
      </trkpt>
      <trkpt lat="48.22318" lon="-3.32336">
        <ele>174.61657714844</ele>
        <time>2012-04-17T14:38:26Z</time>
      </trkpt>
      <trkpt lat="48.22385" lon="-3.3233">
        <ele>176.53930664062</ele>
        <time>2012-04-17T14:38:49Z</time>
      </trkpt>
      <trkpt lat="48.22447" lon="-3.32321">
        <ele>178.94262695312</ele>
        <time>2012-04-17T14:39:14Z</time>
      </trkpt>
      <trkpt lat="48.22505" lon="-3.32311">
        <ele>181.82641601562</ele>
        <time>2012-04-17T14:39:39Z</time>
      </trkpt>
      <trkpt lat="48.22581" lon="-3.32299">
        <ele>185.67175292969</ele>
        <time>2012-04-17T14:40:12Z</time>
      </trkpt>
      <trkpt lat="48.22635" lon="-3.3229">
        <ele>189.51696777344</ele>
        <time>2012-04-17T14:40:37Z</time>
      </trkpt>
      <trkpt lat="48.22692" lon="-3.32282">
        <ele>191.92028808594</ele>
        <time>2012-04-17T14:41:04Z</time>
      </trkpt>
      <trkpt lat="48.22747" lon="-3.32273">
        <ele>194.32373046875</ele>
        <time>2012-04-17T14:41:31Z</time>
      </trkpt>
      <trkpt lat="48.22808" lon="-3.32264">
        <ele>197.68823242188</ele>
        <time>2012-04-17T14:42:00Z</time>
      </trkpt>
      <trkpt lat="48.22868" lon="-3.32254">
        <ele>201.05285644531</ele>
        <time>2012-04-17T14:42:28Z</time>
      </trkpt>
      <trkpt lat="48.22911" lon="-3.32246">
        <ele>203.45617675781</ele>
        <time>2012-04-17T14:42:50Z</time>
      </trkpt>
      <trkpt lat="48.22949" lon="-3.32236">
        <ele>205.37878417969</ele>
        <time>2012-04-17T14:43:09Z</time>
      </trkpt>
      <trkpt lat="48.22989" lon="-3.32223">
        <ele>206.82067871094</ele>
        <time>2012-04-17T14:43:29Z</time>
      </trkpt>
      <trkpt lat="48.2299" lon="-3.32223">
        <ele>206.82067871094</ele>
        <time>2012-04-17T14:43:47Z</time>
      </trkpt>
      <trkpt lat="48.2299" lon="-3.32223">
        <ele>206.82067871094</ele>
        <time>2012-04-17T14:43:56Z</time>
      </trkpt>
      <trkpt lat="48.23019" lon="-3.32212">
        <ele>208.74340820312</ele>
        <time>2012-04-17T14:44:09Z</time>
      </trkpt>
      <trkpt lat="48.23071" lon="-3.32197">
        <ele>210.18542480469</ele>
        <time>2012-04-17T14:44:28Z</time>
      </trkpt>
      <trkpt lat="48.23146" lon="-3.32175">
        <ele>209.70483398438</ele>
        <time>2012-04-17T14:44:49Z</time>
      </trkpt>
      <trkpt lat="48.23228" lon="-3.32115">
        <ele>207.30139160156</ele>
        <time>2012-04-17T14:45:11Z</time>
      </trkpt>
      <trkpt lat="48.23285" lon="-3.32022">
        <ele>202.97546386719</ele>
        <time>2012-04-17T14:45:29Z</time>
      </trkpt>
      <trkpt lat="48.23323" lon="-3.31964">
        <ele>202.49487304688</ele>
        <time>2012-04-17T14:45:40Z</time>
      </trkpt>
      <trkpt lat="48.23384" lon="-3.31933">
        <ele>204.41748046875</ele>
        <time>2012-04-17T14:45:57Z</time>
      </trkpt>
      <trkpt lat="48.23431" lon="-3.31946">
        <ele>207.30139160156</ele>
        <time>2012-04-17T14:46:17Z</time>
      </trkpt>
      <trkpt lat="48.23493" lon="-3.31985">
        <ele>209.70483398438</ele>
        <time>2012-04-17T14:46:37Z</time>
      </trkpt>
      <trkpt lat="48.23541" lon="-3.31973">
        <ele>211.14672851562</ele>
        <time>2012-04-17T14:46:55Z</time>
      </trkpt>
      <trkpt lat="48.23573" lon="-3.31963">
        <ele>213.0693359375</ele>
        <time>2012-04-17T14:47:14Z</time>
      </trkpt>
      <trkpt lat="48.23573" lon="-3.31963">
        <ele>214.51123046875</ele>
        <time>2012-04-17T14:47:31Z</time>
      </trkpt>
      <trkpt lat="48.23584" lon="-3.3193">
        <ele>214.99194335938</ele>
        <time>2012-04-17T14:47:35Z</time>
      </trkpt>
      <trkpt lat="48.23594" lon="-3.31864">
        <ele>216.43395996094</ele>
        <time>2012-04-17T14:47:51Z</time>
      </trkpt>
      <trkpt lat="48.23594" lon="-3.31864">
        <ele>216.43395996094</ele>
        <time>2012-04-17T14:48:05Z</time>
      </trkpt>
      <trkpt lat="48.23594" lon="-3.31864">
        <ele>214.99194335938</ele>
        <time>2012-04-17T15:01:44Z</time>
      </trkpt>
      <trkpt lat="48.23594" lon="-3.31864">
        <ele>214.99194335938</ele>
        <time>2012-04-17T15:01:48Z</time>
      </trkpt>
      <trkpt lat="48.23596" lon="-3.31848">
        <ele>214.51123046875</ele>
        <time>2012-04-17T15:01:50Z</time>
      </trkpt>
      <trkpt lat="48.23598" lon="-3.31837">
        <ele>213.0693359375</ele>
        <time>2012-04-17T15:02:02Z</time>
      </trkpt>
      <trkpt lat="48.23598" lon="-3.31823">
        <ele>213.55004882812</ele>
        <time>2012-04-17T15:02:06Z</time>
      </trkpt>
      <trkpt lat="48.23598" lon="-3.31767">
        <ele>214.99194335938</ele>
        <time>2012-04-17T15:02:22Z</time>
      </trkpt>
      <trkpt lat="48.23599" lon="-3.31758">
        <ele>215.47265625</ele>
        <time>2012-04-17T15:02:25Z</time>
      </trkpt>
      <trkpt lat="48.23586" lon="-3.31731">
        <ele>215.95324707031</ele>
        <time>2012-04-17T15:02:41Z</time>
      </trkpt>
      <trkpt lat="48.23584" lon="-3.31656">
        <ele>216.43395996094</ele>
        <time>2012-04-17T15:02:54Z</time>
      </trkpt>
      <trkpt lat="48.23602" lon="-3.31539">
        <ele>221.72119140625</ele>
        <time>2012-04-17T15:03:24Z</time>
      </trkpt>
      <trkpt lat="48.2362" lon="-3.31436">
        <ele>225.0859375</ele>
        <time>2012-04-17T15:03:50Z</time>
      </trkpt>
      <trkpt lat="48.23639" lon="-3.31315">
        <ele>230.373046875</ele>
        <time>2012-04-17T15:04:20Z</time>
      </trkpt>
      <trkpt lat="48.23653" lon="-3.31234">
        <ele>231.33435058594</ele>
        <time>2012-04-17T15:04:41Z</time>
      </trkpt>
      <trkpt lat="48.23678" lon="-3.31109">
        <ele>232.29577636719</ele>
        <time>2012-04-17T15:05:11Z</time>
      </trkpt>
      <trkpt lat="48.23654" lon="-3.31083">
        <ele>233.25708007812</ele>
        <time>2012-04-17T15:05:22Z</time>
      </trkpt>
      <trkpt lat="48.23597" lon="-3.31045">
        <ele>234.69909667969</ele>
        <time>2012-04-17T15:05:44Z</time>
      </trkpt>
      <trkpt lat="48.23522" lon="-3.31001">
        <ele>238.06359863281</ele>
        <time>2012-04-17T15:06:12Z</time>
      </trkpt>
      <trkpt lat="48.23443" lon="-3.30977">
        <ele>238.06359863281</ele>
        <time>2012-04-17T15:06:36Z</time>
      </trkpt>
      <trkpt lat="48.23367" lon="-3.30973">
        <ele>236.62170410156</ele>
        <time>2012-04-17T15:06:55Z</time>
      </trkpt>
      <trkpt lat="48.23349" lon="-3.3096">
        <ele>236.62170410156</ele>
        <time>2012-04-17T15:07:00Z</time>
      </trkpt>
      <trkpt lat="48.2332" lon="-3.30869">
        <ele>235.66027832031</ele>
        <time>2012-04-17T15:07:15Z</time>
      </trkpt>
      <trkpt lat="48.23316" lon="-3.30851">
        <ele>235.66027832031</ele>
        <time>2012-04-17T15:07:18Z</time>
      </trkpt>
      <trkpt lat="48.23316" lon="-3.3074">
        <ele>234.21838378906</ele>
        <time>2012-04-17T15:07:36Z</time>
      </trkpt>
      <trkpt lat="48.23307" lon="-3.30696">
        <ele>233.73767089844</ele>
        <time>2012-04-17T15:07:42Z</time>
      </trkpt>
      <trkpt lat="48.23296" lon="-3.30669">
        <ele>232.29577636719</ele>
        <time>2012-04-17T15:07:47Z</time>
      </trkpt>
      <trkpt lat="48.23282" lon="-3.30625">
        <ele>232.29577636719</ele>
        <time>2012-04-17T15:07:56Z</time>
      </trkpt>
      <trkpt lat="48.23272" lon="-3.30569">
        <ele>232.29577636719</ele>
        <time>2012-04-17T15:08:05Z</time>
      </trkpt>
      <trkpt lat="48.23273" lon="-3.30494">
        <ele>233.73767089844</ele>
        <time>2012-04-17T15:08:20Z</time>
      </trkpt>
      <trkpt lat="48.23275" lon="-3.3047">
        <ele>233.73767089844</ele>
        <time>2012-04-17T15:08:24Z</time>
      </trkpt>
      <trkpt lat="48.23277" lon="-3.30448">
        <ele>233.73767089844</ele>
        <time>2012-04-17T15:08:28Z</time>
      </trkpt>
      <trkpt lat="48.23248" lon="-3.30385">
        <ele>232.29577636719</ele>
        <time>2012-04-17T15:08:39Z</time>
      </trkpt>
      <trkpt lat="48.23235" lon="-3.30379">
        <ele>232.29577636719</ele>
        <time>2012-04-17T15:08:42Z</time>
      </trkpt>
      <trkpt lat="48.23155" lon="-3.30351">
        <ele>232.29577636719</ele>
        <time>2012-04-17T15:08:59Z</time>
      </trkpt>
      <trkpt lat="48.23076" lon="-3.30317">
        <ele>233.25708007812</ele>
        <time>2012-04-17T15:09:20Z</time>
      </trkpt>
      <trkpt lat="48.23048" lon="-3.30287">
        <ele>234.69909667969</ele>
        <time>2012-04-17T15:09:34Z</time>
      </trkpt>
      <trkpt lat="48.23048" lon="-3.30287">
        <ele>235.1796875</ele>
        <time>2012-04-17T15:09:46Z</time>
      </trkpt>
      <trkpt lat="48.23048" lon="-3.30287">
        <ele>235.1796875</ele>
        <time>2012-04-17T15:09:52Z</time>
      </trkpt>
      <trkpt lat="48.23038" lon="-3.3027">
        <ele>235.66027832031</ele>
        <time>2012-04-17T15:10:06Z</time>
      </trkpt>
      <trkpt lat="48.2304" lon="-3.30276">
        <ele>234.21838378906</ele>
        <time>2012-04-17T15:10:14Z</time>
      </trkpt>
      <trkpt lat="48.23042" lon="-3.30279">
        <ele>235.1796875</ele>
        <time>2012-04-17T15:10:19Z</time>
      </trkpt>
      <trkpt lat="48.23048" lon="-3.30252">
        <ele>235.1796875</ele>
        <time>2012-04-17T15:10:25Z</time>
      </trkpt>
      <trkpt lat="48.23039" lon="-3.30172">
        <ele>235.66027832031</ele>
        <time>2012-04-17T15:10:44Z</time>
      </trkpt>
      <trkpt lat="48.23032" lon="-3.30107">
        <ele>235.66027832031</ele>
        <time>2012-04-17T15:10:56Z</time>
      </trkpt>
      <trkpt lat="48.23052" lon="-3.3004">
        <ele>231.33435058594</ele>
        <time>2012-04-17T15:11:11Z</time>
      </trkpt>
      <trkpt lat="48.23088" lon="-3.29999">
        <ele>226.04711914062</ele>
        <time>2012-04-17T15:11:23Z</time>
      </trkpt>
      <trkpt lat="48.23117" lon="-3.29955">
        <ele>217.8759765625</ele>
        <time>2012-04-17T15:11:35Z</time>
      </trkpt>
      <trkpt lat="48.2312" lon="-3.29933">
        <ele>216.91467285156</ele>
        <time>2012-04-17T15:11:42Z</time>
      </trkpt>
      <trkpt lat="48.23137" lon="-3.29924">
        <ele>217.39538574219</ele>
        <time>2012-04-17T15:11:51Z</time>
      </trkpt>
      <trkpt lat="48.2316" lon="-3.29904">
        <ele>217.39538574219</ele>
        <time>2012-04-17T15:12:00Z</time>
      </trkpt>
      <trkpt lat="48.23178" lon="-3.29877">
        <ele>215.47265625</ele>
        <time>2012-04-17T15:12:10Z</time>
      </trkpt>
      <trkpt lat="48.23164" lon="-3.29859">
        <ele>214.99194335938</ele>
        <time>2012-04-17T15:12:19Z</time>
      </trkpt>
      <trkpt lat="48.23163" lon="-3.29839">
        <ele>213.55004882812</ele>
        <time>2012-04-17T15:12:26Z</time>
      </trkpt>
      <trkpt lat="48.2318" lon="-3.29785">
        <ele>208.26281738281</ele>
        <time>2012-04-17T15:12:41Z</time>
      </trkpt>
      <trkpt lat="48.23181" lon="-3.2976">
        <ele>206.82067871094</ele>
        <time>2012-04-17T15:12:55Z</time>
      </trkpt>
      <trkpt lat="48.23181" lon="-3.2976">
        <ele>206.82067871094</ele>
        <time>2012-04-17T15:13:10Z</time>
      </trkpt>
      <trkpt lat="48.23188" lon="-3.29749">
        <ele>206.34008789062</ele>
        <time>2012-04-17T15:13:25Z</time>
      </trkpt>
      <trkpt lat="48.23212" lon="-3.29735">
        <ele>206.34008789062</ele>
        <time>2012-04-17T15:13:39Z</time>
      </trkpt>
      <trkpt lat="48.23209" lon="-3.29737">
        <ele>206.34008789062</ele>
        <time>2012-04-17T15:13:51Z</time>
      </trkpt>
      <trkpt lat="48.23186" lon="-3.2975">
        <ele>206.34008789062</ele>
        <time>2012-04-17T15:14:11Z</time>
      </trkpt>
      <trkpt lat="48.23181" lon="-3.29765">
        <ele>206.82067871094</ele>
        <time>2012-04-17T15:14:22Z</time>
      </trkpt>
      <trkpt lat="48.23178" lon="-3.29771">
        <ele>207.78210449219</ele>
        <time>2012-04-17T15:14:38Z</time>
      </trkpt>
      <trkpt lat="48.23176" lon="-3.29768">
        <ele>207.78210449219</ele>
        <time>2012-04-17T15:14:52Z</time>
      </trkpt>
      <trkpt lat="48.23173" lon="-3.29766">
        <ele>209.70483398438</ele>
        <time>2012-04-17T15:15:02Z</time>
      </trkpt>
    </trkseg>
  </trk>
  <trk>
    <name><![CDATA[ACTIVE LOG 009]]></name>
    <trkseg>
      <trkpt lat="48.23153" lon="-3.29811">
        <ele>208.74340820312</ele>
        <time>2012-04-17T15:57:41Z</time>
      </trkpt>
      <trkpt lat="48.23152" lon="-3.29812">
        <ele>206.82067871094</ele>
        <time>2012-04-17T15:57:50Z</time>
      </trkpt>
      <trkpt lat="48.23165" lon="-3.29826">
        <ele>206.82067871094</ele>
        <time>2012-04-17T15:57:58Z</time>
      </trkpt>
      <trkpt lat="48.23165" lon="-3.29836">
        <ele>207.78210449219</ele>
        <time>2012-04-17T15:58:02Z</time>
      </trkpt>
      <trkpt lat="48.23161" lon="-3.29852">
        <ele>210.18542480469</ele>
        <time>2012-04-17T15:58:10Z</time>
      </trkpt>
      <trkpt lat="48.23173" lon="-3.29863">
        <ele>210.666015625</ele>
        <time>2012-04-17T15:58:18Z</time>
      </trkpt>
      <trkpt lat="48.2318" lon="-3.29872">
        <ele>210.666015625</ele>
        <time>2012-04-17T15:58:22Z</time>
      </trkpt>
      <trkpt lat="48.23176" lon="-3.2989">
        <ele>210.18542480469</ele>
        <time>2012-04-17T15:58:28Z</time>
      </trkpt>
      <trkpt lat="48.23141" lon="-3.29926">
        <ele>211.62744140625</ele>
        <time>2012-04-17T15:58:45Z</time>
      </trkpt>
      <trkpt lat="48.23114" lon="-3.29967">
        <ele>214.99194335938</ele>
        <time>2012-04-17T15:58:58Z</time>
      </trkpt>
      <trkpt lat="48.23093" lon="-3.29995">
        <ele>220.75988769531</ele>
        <time>2012-04-17T15:59:12Z</time>
      </trkpt>
      <trkpt lat="48.23061" lon="-3.30032">
        <ele>229.41174316406</ele>
        <time>2012-04-17T15:59:33Z</time>
      </trkpt>
      <trkpt lat="48.23036" lon="-3.3008">
        <ele>232.29577636719</ele>
        <time>2012-04-17T15:59:53Z</time>
      </trkpt>
      <trkpt lat="48.23031" lon="-3.30146">
        <ele>233.73767089844</ele>
        <time>2012-04-17T16:00:13Z</time>
      </trkpt>
      <trkpt lat="48.23043" lon="-3.30202">
        <ele>232.29577636719</ele>
        <time>2012-04-17T16:00:27Z</time>
      </trkpt>
      <trkpt lat="48.2305" lon="-3.30278">
        <ele>231.33435058594</ele>
        <time>2012-04-17T16:00:49Z</time>
      </trkpt>
      <trkpt lat="48.23049" lon="-3.30282">
        <ele>231.33435058594</ele>
        <time>2012-04-17T16:00:51Z</time>
      </trkpt>
      <trkpt lat="48.2305" lon="-3.30285">
        <ele>231.81494140625</ele>
        <time>2012-04-17T16:01:13Z</time>
      </trkpt>
      <trkpt lat="48.23066" lon="-3.30307">
        <ele>231.33435058594</ele>
        <time>2012-04-17T16:01:27Z</time>
      </trkpt>
      <trkpt lat="48.23138" lon="-3.30344">
        <ele>229.89233398438</ele>
        <time>2012-04-17T16:01:45Z</time>
      </trkpt>
      <trkpt lat="48.23236" lon="-3.3038">
        <ele>230.373046875</ele>
        <time>2012-04-17T16:02:06Z</time>
      </trkpt>
      <trkpt lat="48.23248" lon="-3.30385">
        <ele>229.89233398438</ele>
        <time>2012-04-17T16:02:09Z</time>
      </trkpt>
      <trkpt lat="48.23276" lon="-3.30446">
        <ele>230.373046875</ele>
        <time>2012-04-17T16:02:22Z</time>
      </trkpt>
      <trkpt lat="48.23269" lon="-3.3054">
        <ele>231.33435058594</ele>
        <time>2012-04-17T16:02:37Z</time>
      </trkpt>
      <trkpt lat="48.23271" lon="-3.30566">
        <ele>230.85375976562</ele>
        <time>2012-04-17T16:02:42Z</time>
      </trkpt>
      <trkpt lat="48.23283" lon="-3.30628">
        <ele>231.33435058594</ele>
        <time>2012-04-17T16:02:52Z</time>
      </trkpt>
      <trkpt lat="48.23298" lon="-3.30673">
        <ele>231.81494140625</ele>
        <time>2012-04-17T16:03:01Z</time>
      </trkpt>
      <trkpt lat="48.23316" lon="-3.3074">
        <ele>232.77648925781</ele>
        <time>2012-04-17T16:03:17Z</time>
      </trkpt>
      <trkpt lat="48.2333" lon="-3.30911">
        <ele>232.77648925781</ele>
        <time>2012-04-17T16:03:44Z</time>
      </trkpt>
      <trkpt lat="48.23367" lon="-3.30973">
        <ele>233.25708007812</ele>
        <time>2012-04-17T16:03:59Z</time>
      </trkpt>
      <trkpt lat="48.23427" lon="-3.30978">
        <ele>234.69909667969</ele>
        <time>2012-04-17T16:04:14Z</time>
      </trkpt>
      <trkpt lat="48.23503" lon="-3.30994">
        <ele>234.69909667969</ele>
        <time>2012-04-17T16:04:34Z</time>
      </trkpt>
      <trkpt lat="48.23583" lon="-3.31034">
        <ele>232.29577636719</ele>
        <time>2012-04-17T16:04:55Z</time>
      </trkpt>
      <trkpt lat="48.23586" lon="-3.31037">
        <ele>232.29577636719</ele>
        <time>2012-04-17T16:04:56Z</time>
      </trkpt>
      <trkpt lat="48.23603" lon="-3.31049">
        <ele>231.81494140625</ele>
        <time>2012-04-17T16:05:00Z</time>
      </trkpt>
      <trkpt lat="48.23669" lon="-3.3109">
        <ele>229.89233398438</ele>
        <time>2012-04-17T16:05:18Z</time>
      </trkpt>
      <trkpt lat="48.23679" lon="-3.31095">
        <ele>230.373046875</ele>
        <time>2012-04-17T16:05:23Z</time>
      </trkpt>
      <trkpt lat="48.2367" lon="-3.31147">
        <ele>228.93115234375</ele>
        <time>2012-04-17T16:05:35Z</time>
      </trkpt>
      <trkpt lat="48.23646" lon="-3.31281">
        <ele>225.56652832031</ele>
        <time>2012-04-17T16:05:57Z</time>
      </trkpt>
      <trkpt lat="48.2363" lon="-3.31368">
        <ele>223.16320800781</ele>
        <time>2012-04-17T16:06:12Z</time>
      </trkpt>
      <trkpt lat="48.23611" lon="-3.31484">
        <ele>220.75988769531</ele>
        <time>2012-04-17T16:06:29Z</time>
      </trkpt>
      <trkpt lat="48.23592" lon="-3.31595">
        <ele>217.39538574219</ele>
        <time>2012-04-17T16:06:46Z</time>
      </trkpt>
      <trkpt lat="48.23579" lon="-3.31695">
        <ele>213.0693359375</ele>
        <time>2012-04-17T16:07:01Z</time>
      </trkpt>
      <trkpt lat="48.23586" lon="-3.31731">
        <ele>214.99194335938</ele>
        <time>2012-04-17T16:07:12Z</time>
      </trkpt>
      <trkpt lat="48.23586" lon="-3.31731">
        <ele>214.51123046875</ele>
        <time>2012-04-17T16:07:14Z</time>
      </trkpt>
      <trkpt lat="48.23597" lon="-3.31773">
        <ele>213.55004882812</ele>
        <time>2012-04-17T16:07:19Z</time>
      </trkpt>
      <trkpt lat="48.23596" lon="-3.31783">
        <ele>213.0693359375</ele>
        <time>2012-04-17T16:07:21Z</time>
      </trkpt>
      <trkpt lat="48.23598" lon="-3.31826">
        <ele>211.62744140625</ele>
        <time>2012-04-17T16:07:27Z</time>
      </trkpt>
      <trkpt lat="48.23577" lon="-3.31951">
        <ele>209.22412109375</ele>
        <time>2012-04-17T16:07:46Z</time>
      </trkpt>
      <trkpt lat="48.2355" lon="-3.31968">
        <ele>207.78210449219</ele>
        <time>2012-04-17T16:07:56Z</time>
      </trkpt>
      <trkpt lat="48.23502" lon="-3.31985">
        <ele>206.34008789062</ele>
        <time>2012-04-17T16:08:12Z</time>
      </trkpt>
      <trkpt lat="48.23499" lon="-3.31985">
        <ele>206.34008789062</ele>
        <time>2012-04-17T16:08:26Z</time>
      </trkpt>
      <trkpt lat="48.23499" lon="-3.31985">
        <ele>206.82067871094</ele>
        <time>2012-04-17T16:08:41Z</time>
      </trkpt>
      <trkpt lat="48.23499" lon="-3.31985">
        <ele>207.30139160156</ele>
        <time>2012-04-17T16:08:57Z</time>
      </trkpt>
      <trkpt lat="48.23499" lon="-3.31985">
        <ele>207.78210449219</ele>
        <time>2012-04-17T16:09:24Z</time>
      </trkpt>
      <trkpt lat="48.23499" lon="-3.31985">
        <ele>207.30139160156</ele>
        <time>2012-04-17T16:09:25Z</time>
      </trkpt>
      <trkpt lat="48.23506" lon="-3.31985">
        <ele>207.30139160156</ele>
        <time>2012-04-17T16:09:34Z</time>
      </trkpt>
      <trkpt lat="48.23506" lon="-3.31985">
        <ele>205.85949707031</ele>
        <time>2012-04-17T16:10:06Z</time>
      </trkpt>
      <trkpt lat="48.23506" lon="-3.31985">
        <ele>205.85949707031</ele>
        <time>2012-04-17T16:10:17Z</time>
      </trkpt>
    </trkseg>
  </trk>
  <trk>
    <name><![CDATA[ACTIVE LOG 010]]></name>
    <trkseg>
      <trkpt lat="48.23509" lon="-3.3202">
        <ele>201.05285644531</ele>
        <time>2012-04-17T16:38:52Z</time>
      </trkpt>
      <trkpt lat="48.23506" lon="-3.32002">
        <ele>207.30139160156</ele>
        <time>2012-04-17T16:41:40Z</time>
      </trkpt>
      <trkpt lat="48.23536" lon="-3.3198">
        <ele>209.22412109375</ele>
        <time>2012-04-17T16:41:53Z</time>
      </trkpt>
      <trkpt lat="48.23583" lon="-3.31941">
        <ele>211.14672851562</ele>
        <time>2012-04-17T16:42:11Z</time>
      </trkpt>
      <trkpt lat="48.23598" lon="-3.31832">
        <ele>213.0693359375</ele>
        <time>2012-04-17T16:42:34Z</time>
      </trkpt>
      <trkpt lat="48.23598" lon="-3.31774">
        <ele>214.51123046875</ele>
        <time>2012-04-17T16:42:49Z</time>
      </trkpt>
      <trkpt lat="48.23603" lon="-3.31753">
        <ele>214.99194335938</ele>
        <time>2012-04-17T16:42:56Z</time>
      </trkpt>
      <trkpt lat="48.23599" lon="-3.31739">
        <ele>215.47265625</ele>
        <time>2012-04-17T16:43:01Z</time>
      </trkpt>
      <trkpt lat="48.23589" lon="-3.31729">
        <ele>214.51123046875</ele>
        <time>2012-04-17T16:43:08Z</time>
      </trkpt>
      <trkpt lat="48.23597" lon="-3.31719">
        <ele>215.47265625</ele>
        <time>2012-04-17T16:43:15Z</time>
      </trkpt>
      <trkpt lat="48.23641" lon="-3.3174">
        <ele>220.27917480469</ele>
        <time>2012-04-17T16:43:36Z</time>
      </trkpt>
      <trkpt lat="48.23685" lon="-3.31766">
        <ele>222.20178222656</ele>
        <time>2012-04-17T16:43:55Z</time>
      </trkpt>
      <trkpt lat="48.2373" lon="-3.31774">
        <ele>223.16320800781</ele>
        <time>2012-04-17T16:44:14Z</time>
      </trkpt>
      <trkpt lat="48.23771" lon="-3.31826">
        <ele>223.64379882812</ele>
        <time>2012-04-17T16:44:32Z</time>
      </trkpt>
      <trkpt lat="48.23779" lon="-3.31826">
        <ele>223.64379882812</ele>
        <time>2012-04-17T16:44:36Z</time>
      </trkpt>
      <trkpt lat="48.23816" lon="-3.31772">
        <ele>225.0859375</ele>
        <time>2012-04-17T16:44:54Z</time>
      </trkpt>
      <trkpt lat="48.23855" lon="-3.3171">
        <ele>227.48913574219</ele>
        <time>2012-04-17T16:45:14Z</time>
      </trkpt>
      <trkpt lat="48.2386" lon="-3.31701">
        <ele>226.52783203125</ele>
        <time>2012-04-17T16:45:27Z</time>
      </trkpt>
      <trkpt lat="48.23878" lon="-3.31677">
        <ele>226.52783203125</ele>
        <time>2012-04-17T16:47:09Z</time>
      </trkpt>
      <trkpt lat="48.23918" lon="-3.31621">
        <ele>224.12451171875</ele>
        <time>2012-04-17T16:47:26Z</time>
      </trkpt>
      <trkpt lat="48.23921" lon="-3.3162">
        <ele>224.12451171875</ele>
        <time>2012-04-17T16:47:29Z</time>
      </trkpt>
      <trkpt lat="48.23928" lon="-3.31623">
        <ele>223.64379882812</ele>
        <time>2012-04-17T16:47:35Z</time>
      </trkpt>
      <trkpt lat="48.23938" lon="-3.31616">
        <ele>222.68249511719</ele>
        <time>2012-04-17T16:47:49Z</time>
      </trkpt>
      <trkpt lat="48.23939" lon="-3.31613">
        <ele>222.68249511719</ele>
        <time>2012-04-17T16:48:11Z</time>
      </trkpt>
      <trkpt lat="48.23946" lon="-3.31603">
        <ele>222.20178222656</ele>
        <time>2012-04-17T16:48:15Z</time>
      </trkpt>
      <trkpt lat="48.24025" lon="-3.31554">
        <ele>218.35656738281</ele>
        <time>2012-04-17T16:48:31Z</time>
      </trkpt>
      <trkpt lat="48.24059" lon="-3.31528">
        <ele>216.43395996094</ele>
        <time>2012-04-17T16:48:37Z</time>
      </trkpt>
      <trkpt lat="48.24114" lon="-3.31427">
        <ele>214.03063964844</ele>
        <time>2012-04-17T16:48:50Z</time>
      </trkpt>
      <trkpt lat="48.24166" lon="-3.31234">
        <ele>214.51123046875</ele>
        <time>2012-04-17T16:49:11Z</time>
      </trkpt>
      <trkpt lat="48.24182" lon="-3.31067">
        <ele>215.95324707031</ele>
        <time>2012-04-17T16:49:30Z</time>
      </trkpt>
      <trkpt lat="48.24179" lon="-3.31035">
        <ele>215.95324707031</ele>
        <time>2012-04-17T16:49:34Z</time>
      </trkpt>
      <trkpt lat="48.24178" lon="-3.31023">
        <ele>216.43395996094</ele>
        <time>2012-04-17T16:49:38Z</time>
      </trkpt>
      <trkpt lat="48.24191" lon="-3.3098">
        <ele>216.91467285156</ele>
        <time>2012-04-17T16:49:48Z</time>
      </trkpt>
      <trkpt lat="48.24234" lon="-3.30916">
        <ele>217.8759765625</ele>
        <time>2012-04-17T16:49:59Z</time>
      </trkpt>
      <trkpt lat="48.24257" lon="-3.30948">
        <ele>217.39538574219</ele>
        <time>2012-04-17T16:50:08Z</time>
      </trkpt>
      <trkpt lat="48.24256" lon="-3.30982">
        <ele>216.43395996094</ele>
        <time>2012-04-17T16:50:13Z</time>
      </trkpt>
      <trkpt lat="48.24253" lon="-3.30995">
        <ele>216.43395996094</ele>
        <time>2012-04-17T16:50:15Z</time>
      </trkpt>
      <trkpt lat="48.24251" lon="-3.31002">
        <ele>215.95324707031</ele>
        <time>2012-04-17T16:50:18Z</time>
      </trkpt>
      <trkpt lat="48.2425" lon="-3.31035">
        <ele>215.47265625</ele>
        <time>2012-04-17T16:50:21Z</time>
      </trkpt>
      <trkpt lat="48.24244" lon="-3.31061">
        <ele>215.47265625</ele>
        <time>2012-04-17T16:50:25Z</time>
      </trkpt>
      <trkpt lat="48.24239" lon="-3.3108">
        <ele>214.99194335938</ele>
        <time>2012-04-17T16:50:28Z</time>
      </trkpt>
      <trkpt lat="48.24235" lon="-3.31116">
        <ele>213.55004882812</ele>
        <time>2012-04-17T16:50:33Z</time>
      </trkpt>
      <trkpt lat="48.24238" lon="-3.31168">
        <ele>212.10803222656</ele>
        <time>2012-04-17T16:50:40Z</time>
      </trkpt>
      <trkpt lat="48.24229" lon="-3.31237">
        <ele>210.18542480469</ele>
        <time>2012-04-17T16:50:49Z</time>
      </trkpt>
      <trkpt lat="48.24223" lon="-3.31264">
        <ele>209.70483398438</ele>
        <time>2012-04-17T16:50:53Z</time>
      </trkpt>
      <trkpt lat="48.24218" lon="-3.31288">
        <ele>209.70483398438</ele>
        <time>2012-04-17T16:50:57Z</time>
      </trkpt>
      <trkpt lat="48.24206" lon="-3.31345">
        <ele>209.70483398438</ele>
        <time>2012-04-17T16:51:11Z</time>
      </trkpt>
      <trkpt lat="48.24204" lon="-3.31356">
        <ele>208.74340820312</ele>
        <time>2012-04-17T16:51:16Z</time>
      </trkpt>
      <trkpt lat="48.24261" lon="-3.31378">
        <ele>206.34008789062</ele>
        <time>2012-04-17T16:51:24Z</time>
      </trkpt>
      <trkpt lat="48.24264" lon="-3.31377">
        <ele>203.93688964844</ele>
        <time>2012-04-17T16:52:04Z</time>
      </trkpt>
      <trkpt lat="48.24256" lon="-3.31379">
        <ele>211.14672851562</ele>
        <time>2012-04-17T16:58:46Z</time>
      </trkpt>
      <trkpt lat="48.24256" lon="-3.31379">
        <ele>211.14672851562</ele>
        <time>2012-04-17T16:58:58Z</time>
      </trkpt>
      <trkpt lat="48.24249" lon="-3.31375">
        <ele>211.62744140625</ele>
        <time>2012-04-17T16:59:04Z</time>
      </trkpt>
      <trkpt lat="48.24235" lon="-3.31306">
        <ele>211.14672851562</ele>
        <time>2012-04-17T16:59:18Z</time>
      </trkpt>
      <trkpt lat="48.24231" lon="-3.31227">
        <ele>212.58862304688</ele>
        <time>2012-04-17T16:59:33Z</time>
      </trkpt>
      <trkpt lat="48.24235" lon="-3.31124">
        <ele>215.47265625</ele>
        <time>2012-04-17T16:59:52Z</time>
      </trkpt>
      <trkpt lat="48.24245" lon="-3.31057">
        <ele>216.91467285156</ele>
        <time>2012-04-17T17:00:06Z</time>
      </trkpt>
      <trkpt lat="48.24251" lon="-3.3102">
        <ele>217.8759765625</ele>
        <time>2012-04-17T17:00:16Z</time>
      </trkpt>
      <trkpt lat="48.24207" lon="-3.31007">
        <ele>217.8759765625</ele>
        <time>2012-04-17T17:00:27Z</time>
      </trkpt>
      <trkpt lat="48.2418" lon="-3.3104">
        <ele>217.39538574219</ele>
        <time>2012-04-17T17:00:35Z</time>
      </trkpt>
      <trkpt lat="48.2418" lon="-3.31047">
        <ele>216.91467285156</ele>
        <time>2012-04-17T17:00:36Z</time>
      </trkpt>
      <trkpt lat="48.24182" lon="-3.31068">
        <ele>216.91467285156</ele>
        <time>2012-04-17T17:00:39Z</time>
      </trkpt>
      <trkpt lat="48.24163" lon="-3.31256">
        <ele>216.43395996094</ele>
        <time>2012-04-17T17:01:06Z</time>
      </trkpt>
      <trkpt lat="48.24126" lon="-3.31385">
        <ele>216.43395996094</ele>
        <time>2012-04-17T17:01:27Z</time>
      </trkpt>
      <trkpt lat="48.24114" lon="-3.31427">
        <ele>216.43395996094</ele>
        <time>2012-04-17T17:01:40Z</time>
      </trkpt>
      <trkpt lat="48.24085" lon="-3.31411">
        <ele>218.83728027344</ele>
        <time>2012-04-17T17:01:50Z</time>
      </trkpt>
      <trkpt lat="48.24039" lon="-3.31388">
        <ele>223.64379882812</ele>
        <time>2012-04-17T17:02:11Z</time>
      </trkpt>
      <trkpt lat="48.23991" lon="-3.31367">
        <ele>229.41174316406</ele>
        <time>2012-04-17T17:02:32Z</time>
      </trkpt>
      <trkpt lat="48.23941" lon="-3.31372">
        <ele>230.85375976562</ele>
        <time>2012-04-17T17:02:52Z</time>
      </trkpt>
      <trkpt lat="48.23896" lon="-3.3136">
        <ele>231.81494140625</ele>
        <time>2012-04-17T17:03:10Z</time>
      </trkpt>
      <trkpt lat="48.23881" lon="-3.31351">
        <ele>232.77648925781</ele>
        <time>2012-04-17T17:03:16Z</time>
      </trkpt>
      <trkpt lat="48.2384" lon="-3.31329">
        <ele>233.73767089844</ele>
        <time>2012-04-17T17:03:36Z</time>
      </trkpt>
      <trkpt lat="48.2384" lon="-3.31329">
        <ele>233.73767089844</ele>
        <time>2012-04-17T17:03:43Z</time>
      </trkpt>
      <trkpt lat="48.23847" lon="-3.31332">
        <ele>233.73767089844</ele>
        <time>2012-04-17T17:03:50Z</time>
      </trkpt>
      <trkpt lat="48.23874" lon="-3.31348">
        <ele>232.29577636719</ele>
        <time>2012-04-17T17:04:01Z</time>
      </trkpt>
      <trkpt lat="48.23874" lon="-3.31348">
        <ele>232.29577636719</ele>
        <time>2012-04-17T17:04:11Z</time>
      </trkpt>
      <trkpt lat="48.23874" lon="-3.31348">
        <ele>232.29577636719</ele>
        <time>2012-04-17T17:04:14Z</time>
      </trkpt>
      <trkpt lat="48.2387" lon="-3.31349">
        <ele>232.29577636719</ele>
        <time>2012-04-17T17:04:20Z</time>
      </trkpt>
      <trkpt lat="48.23866" lon="-3.31348">
        <ele>232.77648925781</ele>
        <time>2012-04-17T17:04:22Z</time>
      </trkpt>
      <trkpt lat="48.23833" lon="-3.31334">
        <ele>235.66027832031</ele>
        <time>2012-04-17T17:04:38Z</time>
      </trkpt>
      <trkpt lat="48.23802" lon="-3.31327">
        <ele>235.1796875</ele>
        <time>2012-04-17T17:04:53Z</time>
      </trkpt>
      <trkpt lat="48.23771" lon="-3.31295">
        <ele>234.69909667969</ele>
        <time>2012-04-17T17:05:05Z</time>
      </trkpt>
      <trkpt lat="48.23753" lon="-3.31262">
        <ele>235.1796875</ele>
        <time>2012-04-17T17:05:12Z</time>
      </trkpt>
      <trkpt lat="48.23737" lon="-3.31241">
        <ele>234.21838378906</ele>
        <time>2012-04-17T17:05:17Z</time>
      </trkpt>
      <trkpt lat="48.23678" lon="-3.31205">
        <ele>232.29577636719</ele>
        <time>2012-04-17T17:05:36Z</time>
      </trkpt>
      <trkpt lat="48.23669" lon="-3.312">
        <ele>232.77648925781</ele>
        <time>2012-04-17T17:05:42Z</time>
      </trkpt>
      <trkpt lat="48.23661" lon="-3.31186">
        <ele>232.77648925781</ele>
        <time>2012-04-17T17:05:46Z</time>
      </trkpt>
      <trkpt lat="48.23678" lon="-3.31106">
        <ele>233.73767089844</ele>
        <time>2012-04-17T17:06:07Z</time>
      </trkpt>
      <trkpt lat="48.23653" lon="-3.31083">
        <ele>235.1796875</ele>
        <time>2012-04-17T17:06:17Z</time>
      </trkpt>
      <trkpt lat="48.23592" lon="-3.31041">
        <ele>237.10229492188</ele>
        <time>2012-04-17T17:06:37Z</time>
      </trkpt>
      <trkpt lat="48.23512" lon="-3.30997">
        <ele>241.90893554688</ele>
        <time>2012-04-17T17:07:00Z</time>
      </trkpt>
      <trkpt lat="48.23414" lon="-3.30979">
        <ele>241.42822265625</ele>
        <time>2012-04-17T17:07:25Z</time>
      </trkpt>
      <trkpt lat="48.23375" lon="-3.30975">
        <ele>241.42822265625</ele>
        <time>2012-04-17T17:07:34Z</time>
      </trkpt>
      <trkpt lat="48.23359" lon="-3.30972">
        <ele>240.46704101562</ele>
        <time>2012-04-17T17:07:38Z</time>
      </trkpt>
      <trkpt lat="48.23324" lon="-3.30884">
        <ele>239.98620605469</ele>
        <time>2012-04-17T17:07:54Z</time>
      </trkpt>
      <trkpt lat="48.23316" lon="-3.30746">
        <ele>239.50549316406</ele>
        <time>2012-04-17T17:08:14Z</time>
      </trkpt>
      <trkpt lat="48.23307" lon="-3.30697">
        <ele>239.50549316406</ele>
        <time>2012-04-17T17:08:21Z</time>
      </trkpt>
      <trkpt lat="48.23298" lon="-3.30673">
        <ele>239.98620605469</ele>
        <time>2012-04-17T17:08:25Z</time>
      </trkpt>
      <trkpt lat="48.23284" lon="-3.30635">
        <ele>239.98620605469</ele>
        <time>2012-04-17T17:08:32Z</time>
      </trkpt>
      <trkpt lat="48.23279" lon="-3.30605">
        <ele>239.98620605469</ele>
        <time>2012-04-17T17:08:37Z</time>
      </trkpt>
      <trkpt lat="48.2327" lon="-3.3056">
        <ele>239.98620605469</ele>
        <time>2012-04-17T17:08:44Z</time>
      </trkpt>
      <trkpt lat="48.23274" lon="-3.30484">
        <ele>239.02490234375</ele>
        <time>2012-04-17T17:08:57Z</time>
      </trkpt>
      <trkpt lat="48.23275" lon="-3.3044">
        <ele>238.06359863281</ele>
        <time>2012-04-17T17:09:04Z</time>
      </trkpt>
      <trkpt lat="48.23242" lon="-3.30382">
        <ele>236.62170410156</ele>
        <time>2012-04-17T17:09:15Z</time>
      </trkpt>
      <trkpt lat="48.23237" lon="-3.3038">
        <ele>236.62170410156</ele>
        <time>2012-04-17T17:09:16Z</time>
      </trkpt>
      <trkpt lat="48.2313" lon="-3.30342">
        <ele>237.10229492188</ele>
        <time>2012-04-17T17:09:40Z</time>
      </trkpt>
      <trkpt lat="48.23061" lon="-3.30303">
        <ele>237.58288574219</ele>
        <time>2012-04-17T17:09:59Z</time>
      </trkpt>
      <trkpt lat="48.23049" lon="-3.30249">
        <ele>238.06359863281</ele>
        <time>2012-04-17T17:10:10Z</time>
      </trkpt>
      <trkpt lat="48.23067" lon="-3.30216">
        <ele>238.06359863281</ele>
        <time>2012-04-17T17:10:26Z</time>
      </trkpt>
      <trkpt lat="48.23031" lon="-3.30115">
        <ele>238.06359863281</ele>
        <time>2012-04-17T17:10:34Z</time>
      </trkpt>
      <trkpt lat="48.23038" lon="-3.30074">
        <ele>236.62170410156</ele>
        <time>2012-04-17T17:10:41Z</time>
      </trkpt>
      <trkpt lat="48.23046" lon="-3.30054">
        <ele>235.1796875</ele>
        <time>2012-04-17T17:10:45Z</time>
      </trkpt>
      <trkpt lat="48.23058" lon="-3.30034">
        <ele>233.73767089844</ele>
        <time>2012-04-17T17:10:49Z</time>
      </trkpt>
      <trkpt lat="48.23105" lon="-3.29982">
        <ele>225.56652832031</ele>
        <time>2012-04-17T17:11:01Z</time>
      </trkpt>
      <trkpt lat="48.23116" lon="-3.29962">
        <ele>223.64379882812</ele>
        <time>2012-04-17T17:11:05Z</time>
      </trkpt>
      <trkpt lat="48.2312" lon="-3.29951">
        <ele>222.68249511719</ele>
        <time>2012-04-17T17:11:07Z</time>
      </trkpt>
      <trkpt lat="48.23133" lon="-3.29932">
        <ele>222.68249511719</ele>
        <time>2012-04-17T17:11:11Z</time>
      </trkpt>
      <trkpt lat="48.23152" lon="-3.29916">
        <ele>222.68249511719</ele>
        <time>2012-04-17T17:11:16Z</time>
      </trkpt>
      <trkpt lat="48.23182" lon="-3.29881">
        <ele>219.79858398438</ele>
        <time>2012-04-17T17:11:26Z</time>
      </trkpt>
      <trkpt lat="48.23166" lon="-3.29861">
        <ele>219.79858398438</ele>
        <time>2012-04-17T17:11:33Z</time>
      </trkpt>
      <trkpt lat="48.2316" lon="-3.2986">
        <ele>219.79858398438</ele>
        <time>2012-04-17T17:11:35Z</time>
      </trkpt>
      <trkpt lat="48.23153" lon="-3.29855">
        <ele>219.31799316406</ele>
        <time>2012-04-17T17:11:38Z</time>
      </trkpt>
      <trkpt lat="48.23151" lon="-3.29852">
        <ele>218.83728027344</ele>
        <time>2012-04-17T17:11:52Z</time>
      </trkpt>
      <trkpt lat="48.23151" lon="-3.29852">
        <ele>218.83728027344</ele>
        <time>2012-04-17T17:11:59Z</time>
      </trkpt>
    </trkseg>
  </trk>
  <trk>
    <name><![CDATA[ACTIVE LOG 011]]></name>
    <trkseg>
      <trkpt lat="48.23155" lon="-3.29807">
        <ele>211.14672851562</ele>
        <time>2012-04-18T08:30:05Z</time>
      </trkpt>
      <trkpt lat="48.23157" lon="-3.29813">
        <ele>220.75988769531</ele>
        <time>2012-04-18T08:30:55Z</time>
      </trkpt>
      <trkpt lat="48.23169" lon="-3.2983">
        <ele>221.72119140625</ele>
        <time>2012-04-18T08:31:09Z</time>
      </trkpt>
      <trkpt lat="48.23169" lon="-3.29859">
        <ele>223.16320800781</ele>
        <time>2012-04-18T08:31:30Z</time>
      </trkpt>
      <trkpt lat="48.23184" lon="-3.29873">
        <ele>223.64379882812</ele>
        <time>2012-04-18T08:31:43Z</time>
      </trkpt>
      <trkpt lat="48.2318" lon="-3.29883">
        <ele>223.64379882812</ele>
        <time>2012-04-18T08:31:57Z</time>
      </trkpt>
      <trkpt lat="48.23165" lon="-3.29901">
        <ele>223.16320800781</ele>
        <time>2012-04-18T08:32:10Z</time>
      </trkpt>
      <trkpt lat="48.23145" lon="-3.29919">
        <ele>222.68249511719</ele>
        <time>2012-04-18T08:32:21Z</time>
      </trkpt>
      <trkpt lat="48.23118" lon="-3.29961">
        <ele>224.60522460938</ele>
        <time>2012-04-18T08:32:35Z</time>
      </trkpt>
      <trkpt lat="48.23099" lon="-3.29989">
        <ele>227.9697265625</ele>
        <time>2012-04-18T08:32:51Z</time>
      </trkpt>
      <trkpt lat="48.23097" lon="-3.29992">
        <ele>228.45043945312</ele>
        <time>2012-04-18T08:32:53Z</time>
      </trkpt>
      <trkpt lat="48.23094" lon="-3.29995">
        <ele>229.41174316406</ele>
        <time>2012-04-18T08:32:56Z</time>
      </trkpt>
      <trkpt lat="48.23068" lon="-3.30016">
        <ele>233.73767089844</ele>
        <time>2012-04-18T08:33:17Z</time>
      </trkpt>
      <trkpt lat="48.23047" lon="-3.30045">
        <ele>237.58288574219</ele>
        <time>2012-04-18T08:33:35Z</time>
      </trkpt>
      <trkpt lat="48.23036" lon="-3.30081">
        <ele>239.98620605469</ele>
        <time>2012-04-18T08:33:51Z</time>
      </trkpt>
      <trkpt lat="48.23033" lon="-3.30094">
        <ele>239.50549316406</ele>
        <time>2012-04-18T08:33:56Z</time>
      </trkpt>
      <trkpt lat="48.23035" lon="-3.30157">
        <ele>239.98620605469</ele>
        <time>2012-04-18T08:34:17Z</time>
      </trkpt>
      <trkpt lat="48.23038" lon="-3.30169">
        <ele>239.98620605469</ele>
        <time>2012-04-18T08:34:21Z</time>
      </trkpt>
      <trkpt lat="48.23053" lon="-3.30242">
        <ele>238.54431152344</ele>
        <time>2012-04-18T08:34:44Z</time>
      </trkpt>
      <trkpt lat="48.23056" lon="-3.30267">
        <ele>239.02490234375</ele>
        <time>2012-04-18T08:34:53Z</time>
      </trkpt>
      <trkpt lat="48.23055" lon="-3.30276">
        <ele>239.50549316406</ele>
        <time>2012-04-18T08:34:57Z</time>
      </trkpt>
      <trkpt lat="48.23054" lon="-3.30278">
        <ele>239.50549316406</ele>
        <time>2012-04-18T08:35:06Z</time>
      </trkpt>
      <trkpt lat="48.23047" lon="-3.30278">
        <ele>238.54431152344</ele>
        <time>2012-04-18T08:35:10Z</time>
      </trkpt>
      <trkpt lat="48.23036" lon="-3.30262">
        <ele>236.62170410156</ele>
        <time>2012-04-18T08:35:24Z</time>
      </trkpt>
      <trkpt lat="48.23036" lon="-3.30262">
        <ele>236.14099121094</ele>
        <time>2012-04-18T08:35:29Z</time>
      </trkpt>
      <trkpt lat="48.23031" lon="-3.30257">
        <ele>236.62170410156</ele>
        <time>2012-04-18T08:35:33Z</time>
      </trkpt>
      <trkpt lat="48.23001" lon="-3.30231">
        <ele>239.50549316406</ele>
        <time>2012-04-18T08:35:46Z</time>
      </trkpt>
      <trkpt lat="48.22945" lon="-3.30222">
        <ele>239.02490234375</ele>
        <time>2012-04-18T08:36:04Z</time>
      </trkpt>
      <trkpt lat="48.22889" lon="-3.30224">
        <ele>239.50549316406</ele>
        <time>2012-04-18T08:36:20Z</time>
      </trkpt>
      <trkpt lat="48.22817" lon="-3.30182">
        <ele>238.54431152344</ele>
        <time>2012-04-18T08:36:41Z</time>
      </trkpt>
      <trkpt lat="48.22776" lon="-3.30097">
        <ele>237.58288574219</ele>
        <time>2012-04-18T08:36:59Z</time>
      </trkpt>
      <trkpt lat="48.22729" lon="-3.29938">
        <ele>234.21838378906</ele>
        <time>2012-04-18T08:37:24Z</time>
      </trkpt>
      <trkpt lat="48.2268" lon="-3.29811">
        <ele>230.373046875</ele>
        <time>2012-04-18T08:37:42Z</time>
      </trkpt>
      <trkpt lat="48.22631" lon="-3.29673">
        <ele>226.52783203125</ele>
        <time>2012-04-18T08:38:00Z</time>
      </trkpt>
      <trkpt lat="48.22593" lon="-3.29528">
        <ele>222.20178222656</ele>
        <time>2012-04-18T08:38:19Z</time>
      </trkpt>
      <trkpt lat="48.22548" lon="-3.29346">
        <ele>216.91467285156</ele>
        <time>2012-04-18T08:38:40Z</time>
      </trkpt>
      <trkpt lat="48.22495" lon="-3.292">
        <ele>213.0693359375</ele>
        <time>2012-04-18T08:38:57Z</time>
      </trkpt>
      <trkpt lat="48.22451" lon="-3.29076">
        <ele>209.70483398438</ele>
        <time>2012-04-18T08:39:13Z</time>
      </trkpt>
      <trkpt lat="48.22422" lon="-3.28938">
        <ele>209.22412109375</ele>
        <time>2012-04-18T08:39:31Z</time>
      </trkpt>
      <trkpt lat="48.22379" lon="-3.28781">
        <ele>209.22412109375</ele>
        <time>2012-04-18T08:39:54Z</time>
      </trkpt>
      <trkpt lat="48.22376" lon="-3.28774">
        <ele>209.22412109375</ele>
        <time>2012-04-18T08:39:55Z</time>
      </trkpt>
      <trkpt lat="48.22309" lon="-3.28666">
        <ele>207.30139160156</ele>
        <time>2012-04-18T08:40:14Z</time>
      </trkpt>
      <trkpt lat="48.22251" lon="-3.28582">
        <ele>203.93688964844</ele>
        <time>2012-04-18T08:40:27Z</time>
      </trkpt>
      <trkpt lat="48.22163" lon="-3.28468">
        <ele>202.49487304688</ele>
        <time>2012-04-18T08:40:45Z</time>
      </trkpt>
      <trkpt lat="48.22114" lon="-3.28432">
        <ele>204.89807128906</ele>
        <time>2012-04-18T08:40:59Z</time>
      </trkpt>
      <trkpt lat="48.22051" lon="-3.28392">
        <ele>207.30139160156</ele>
        <time>2012-04-18T08:41:19Z</time>
      </trkpt>
      <trkpt lat="48.21953" lon="-3.28324">
        <ele>205.85949707031</ele>
        <time>2012-04-18T08:41:43Z</time>
      </trkpt>
      <trkpt lat="48.21929" lon="-3.28299">
        <ele>205.37878417969</ele>
        <time>2012-04-18T08:41:50Z</time>
      </trkpt>
      <trkpt lat="48.21905" lon="-3.28303">
        <ele>205.37878417969</ele>
        <time>2012-04-18T08:41:57Z</time>
      </trkpt>
      <trkpt lat="48.21822" lon="-3.28342">
        <ele>205.37878417969</ele>
        <time>2012-04-18T08:42:17Z</time>
      </trkpt>
      <trkpt lat="48.21746" lon="-3.2836">
        <ele>206.82067871094</ele>
        <time>2012-04-18T08:42:39Z</time>
      </trkpt>
      <trkpt lat="48.21689" lon="-3.28368">
        <ele>209.70483398438</ele>
        <time>2012-04-18T08:43:01Z</time>
      </trkpt>
      <trkpt lat="48.21635" lon="-3.28396">
        <ele>213.55004882812</ele>
        <time>2012-04-18T08:43:25Z</time>
      </trkpt>
      <trkpt lat="48.21601" lon="-3.28491">
        <ele>219.31799316406</ele>
        <time>2012-04-18T08:43:54Z</time>
      </trkpt>
      <trkpt lat="48.21569" lon="-3.28572">
        <ele>223.64379882812</ele>
        <time>2012-04-18T08:44:19Z</time>
      </trkpt>
      <trkpt lat="48.21531" lon="-3.28648">
        <ele>226.04711914062</ele>
        <time>2012-04-18T08:44:43Z</time>
      </trkpt>
      <trkpt lat="48.2149" lon="-3.28731">
        <ele>225.56652832031</ele>
        <time>2012-04-18T08:45:07Z</time>
      </trkpt>
      <trkpt lat="48.21424" lon="-3.28819">
        <ele>220.75988769531</ele>
        <time>2012-04-18T08:45:29Z</time>
      </trkpt>
      <trkpt lat="48.21369" lon="-3.28925">
        <ele>215.47265625</ele>
        <time>2012-04-18T08:45:45Z</time>
      </trkpt>
      <trkpt lat="48.21322" lon="-3.29093">
        <ele>209.70483398438</ele>
        <time>2012-04-18T08:46:05Z</time>
      </trkpt>
      <trkpt lat="48.21288" lon="-3.29214">
        <ele>205.85949707031</ele>
        <time>2012-04-18T08:46:20Z</time>
      </trkpt>
      <trkpt lat="48.21271" lon="-3.29341">
        <ele>205.85949707031</ele>
        <time>2012-04-18T08:46:34Z</time>
      </trkpt>
      <trkpt lat="48.21261" lon="-3.29445">
        <ele>206.34008789062</ele>
        <time>2012-04-18T08:46:50Z</time>
      </trkpt>
      <trkpt lat="48.21229" lon="-3.29565">
        <ele>202.97546386719</ele>
        <time>2012-04-18T08:47:09Z</time>
      </trkpt>
      <trkpt lat="48.21171" lon="-3.29694">
        <ele>199.13012695312</ele>
        <time>2012-04-18T08:47:31Z</time>
      </trkpt>
      <trkpt lat="48.21091" lon="-3.29792">
        <ele>198.64953613281</ele>
        <time>2012-04-18T08:47:53Z</time>
      </trkpt>
      <trkpt lat="48.20997" lon="-3.29905">
        <ele>197.68823242188</ele>
        <time>2012-04-18T08:48:22Z</time>
      </trkpt>
      <trkpt lat="48.20922" lon="-3.29996">
        <ele>193.3623046875</ele>
        <time>2012-04-18T08:48:43Z</time>
      </trkpt>
      <trkpt lat="48.20866" lon="-3.30065">
        <ele>189.51696777344</ele>
        <time>2012-04-18T08:48:59Z</time>
      </trkpt>
      <trkpt lat="48.20811" lon="-3.30135">
        <ele>184.71057128906</ele>
        <time>2012-04-18T08:49:14Z</time>
      </trkpt>
      <trkpt lat="48.20748" lon="-3.30215">
        <ele>178.4619140625</ele>
        <time>2012-04-18T08:49:29Z</time>
      </trkpt>
      <trkpt lat="48.20671" lon="-3.30313">
        <ele>172.21325683594</ele>
        <time>2012-04-18T08:49:47Z</time>
      </trkpt>
      <trkpt lat="48.20629" lon="-3.30411">
        <ele>167.88732910156</ele>
        <time>2012-04-18T08:50:00Z</time>
      </trkpt>
      <trkpt lat="48.206" lon="-3.30466">
        <ele>165.00341796875</ele>
        <time>2012-04-18T08:50:14Z</time>
      </trkpt>
      <trkpt lat="48.20594" lon="-3.30471">
        <ele>165.00341796875</ele>
        <time>2012-04-18T08:50:19Z</time>
      </trkpt>
      <trkpt lat="48.20561" lon="-3.30498">
        <ele>162.60009765625</ele>
        <time>2012-04-18T08:50:32Z</time>
      </trkpt>
      <trkpt lat="48.20518" lon="-3.30498">
        <ele>160.67749023438</ele>
        <time>2012-04-18T08:50:42Z</time>
      </trkpt>
      <trkpt lat="48.20512" lon="-3.30497">
        <ele>160.67749023438</ele>
        <time>2012-04-18T08:50:46Z</time>
      </trkpt>
      <trkpt lat="48.2051" lon="-3.30574">
        <ele>160.67749023438</ele>
        <time>2012-04-18T08:51:02Z</time>
      </trkpt>
      <trkpt lat="48.20513" lon="-3.30643">
        <ele>161.63891601562</ele>
        <time>2012-04-18T08:51:15Z</time>
      </trkpt>
      <trkpt lat="48.20529" lon="-3.30687">
        <ele>160.67749023438</ele>
        <time>2012-04-18T08:51:24Z</time>
      </trkpt>
      <trkpt lat="48.20567" lon="-3.30765">
        <ele>163.5615234375</ele>
        <time>2012-04-18T08:51:40Z</time>
      </trkpt>
      <trkpt lat="48.20596" lon="-3.3083">
        <ele>163.08081054688</ele>
        <time>2012-04-18T08:51:54Z</time>
      </trkpt>
      <trkpt lat="48.20645" lon="-3.30925">
        <ele>162.11950683594</ele>
        <time>2012-04-18T08:52:14Z</time>
      </trkpt>
      <trkpt lat="48.20675" lon="-3.30984">
        <ele>162.60009765625</ele>
        <time>2012-04-18T08:52:27Z</time>
      </trkpt>
      <trkpt lat="48.20718" lon="-3.31065">
        <ele>163.08081054688</ele>
        <time>2012-04-18T08:52:46Z</time>
      </trkpt>
      <trkpt lat="48.20759" lon="-3.31145">
        <ele>160.19689941406</ele>
        <time>2012-04-18T08:53:04Z</time>
      </trkpt>
      <trkpt lat="48.20785" lon="-3.31199">
        <ele>161.158203125</ele>
        <time>2012-04-18T08:53:16Z</time>
      </trkpt>
      <trkpt lat="48.20826" lon="-3.31275">
        <ele>161.63891601562</ele>
        <time>2012-04-18T08:53:34Z</time>
      </trkpt>
      <trkpt lat="48.20858" lon="-3.31339">
        <ele>161.63891601562</ele>
        <time>2012-04-18T08:53:49Z</time>
      </trkpt>
      <trkpt lat="48.20898" lon="-3.31422">
        <ele>161.158203125</ele>
        <time>2012-04-18T08:54:07Z</time>
      </trkpt>
      <trkpt lat="48.20948" lon="-3.31518">
        <ele>159.23547363281</ele>
        <time>2012-04-18T08:54:29Z</time>
      </trkpt>
      <trkpt lat="48.20978" lon="-3.31576">
        <ele>159.23547363281</ele>
        <time>2012-04-18T08:54:42Z</time>
      </trkpt>
      <trkpt lat="48.21014" lon="-3.31648">
        <ele>157.79357910156</ele>
        <time>2012-04-18T08:54:58Z</time>
      </trkpt>
      <trkpt lat="48.21042" lon="-3.31703">
        <ele>159.23547363281</ele>
        <time>2012-04-18T08:55:14Z</time>
      </trkpt>
      <trkpt lat="48.21084" lon="-3.31787">
        <ele>160.67749023438</ele>
        <time>2012-04-18T08:55:34Z</time>
      </trkpt>
      <trkpt lat="48.21114" lon="-3.31876">
        <ele>160.67749023438</ele>
        <time>2012-04-18T08:55:52Z</time>
      </trkpt>
      <trkpt lat="48.21114" lon="-3.31924">
        <ele>161.158203125</ele>
        <time>2012-04-18T08:56:02Z</time>
      </trkpt>
      <trkpt lat="48.21114" lon="-3.31934">
        <ele>161.63891601562</ele>
        <time>2012-04-18T08:56:04Z</time>
      </trkpt>
      <trkpt lat="48.21108" lon="-3.3198">
        <ele>164.04211425781</ele>
        <time>2012-04-18T08:56:17Z</time>
      </trkpt>
      <trkpt lat="48.21102" lon="-3.32046">
        <ele>163.5615234375</ele>
        <time>2012-04-18T08:56:31Z</time>
      </trkpt>
      <trkpt lat="48.21093" lon="-3.32123">
        <ele>165.00341796875</ele>
        <time>2012-04-18T08:56:50Z</time>
      </trkpt>
      <trkpt lat="48.2109" lon="-3.32141">
        <ele>165.48413085938</ele>
        <time>2012-04-18T08:56:57Z</time>
      </trkpt>
      <trkpt lat="48.2108" lon="-3.32201">
        <ele>166.92602539062</ele>
        <time>2012-04-18T08:57:16Z</time>
      </trkpt>
      <trkpt lat="48.2108" lon="-3.32209">
        <ele>166.92602539062</ele>
        <time>2012-04-18T08:57:19Z</time>
      </trkpt>
      <trkpt lat="48.21079" lon="-3.32235">
        <ele>167.40673828125</ele>
        <time>2012-04-18T08:57:28Z</time>
      </trkpt>
      <trkpt lat="48.21075" lon="-3.32248">
        <ele>166.4453125</ele>
        <time>2012-04-18T08:57:42Z</time>
      </trkpt>
      <trkpt lat="48.21072" lon="-3.32281">
        <ele>165.48413085938</ele>
        <time>2012-04-18T08:58:54Z</time>
      </trkpt>
      <trkpt lat="48.21062" lon="-3.32365">
        <ele>168.36804199219</ele>
        <time>2012-04-18T08:59:09Z</time>
      </trkpt>
      <trkpt lat="48.21048" lon="-3.32476">
        <ele>170.29064941406</ele>
        <time>2012-04-18T08:59:29Z</time>
      </trkpt>
      <trkpt lat="48.21042" lon="-3.32534">
        <ele>170.29064941406</ele>
        <time>2012-04-18T08:59:40Z</time>
      </trkpt>
      <trkpt lat="48.21047" lon="-3.3259">
        <ele>167.40673828125</ele>
        <time>2012-04-18T08:59:50Z</time>
      </trkpt>
      <trkpt lat="48.21061" lon="-3.32654">
        <ele>164.52270507812</ele>
        <time>2012-04-18T09:00:02Z</time>
      </trkpt>
      <trkpt lat="48.21087" lon="-3.32762">
        <ele>163.08081054688</ele>
        <time>2012-04-18T09:00:21Z</time>
      </trkpt>
      <trkpt lat="48.21112" lon="-3.3286">
        <ele>163.08081054688</ele>
        <time>2012-04-18T09:00:39Z</time>
      </trkpt>
      <trkpt lat="48.21139" lon="-3.32945">
        <ele>163.5615234375</ele>
        <time>2012-04-18T09:00:55Z</time>
      </trkpt>
      <trkpt lat="48.21172" lon="-3.32994">
        <ele>163.5615234375</ele>
        <time>2012-04-18T09:01:07Z</time>
      </trkpt>
      <trkpt lat="48.21215" lon="-3.33054">
        <ele>165.00341796875</ele>
        <time>2012-04-18T09:01:22Z</time>
      </trkpt>
      <trkpt lat="48.21258" lon="-3.33115">
        <ele>163.5615234375</ele>
        <time>2012-04-18T09:01:37Z</time>
      </trkpt>
      <trkpt lat="48.21281" lon="-3.3315">
        <ele>163.08081054688</ele>
        <time>2012-04-18T09:01:45Z</time>
      </trkpt>
      <trkpt lat="48.21322" lon="-3.33207">
        <ele>163.5615234375</ele>
        <time>2012-04-18T09:01:58Z</time>
      </trkpt>
      <trkpt lat="48.21331" lon="-3.3322">
        <ele>163.5615234375</ele>
        <time>2012-04-18T09:02:01Z</time>
      </trkpt>
      <trkpt lat="48.21352" lon="-3.3325">
        <ele>164.52270507812</ele>
        <time>2012-04-18T09:02:08Z</time>
      </trkpt>
      <trkpt lat="48.21361" lon="-3.33262">
        <ele>164.04211425781</ele>
        <time>2012-04-18T09:02:11Z</time>
      </trkpt>
      <trkpt lat="48.21409" lon="-3.33329">
        <ele>165.00341796875</ele>
        <time>2012-04-18T09:02:28Z</time>
      </trkpt>
      <trkpt lat="48.21435" lon="-3.3336">
        <ele>165.48413085938</ele>
        <time>2012-04-18T09:02:39Z</time>
      </trkpt>
      <trkpt lat="48.2144" lon="-3.33367">
        <ele>165.48413085938</ele>
        <time>2012-04-18T09:02:51Z</time>
      </trkpt>
      <trkpt lat="48.21464" lon="-3.33403">
        <ele>167.40673828125</ele>
        <time>2012-04-18T09:03:03Z</time>
      </trkpt>
      <trkpt lat="48.21477" lon="-3.33418">
        <ele>166.92602539062</ele>
        <time>2012-04-18T09:03:15Z</time>
      </trkpt>
      <trkpt lat="48.21477" lon="-3.33418">
        <ele>166.92602539062</ele>
        <time>2012-04-18T09:07:22Z</time>
      </trkpt>
      <trkpt lat="48.2148" lon="-3.33428">
        <ele>165.96472167969</ele>
        <time>2012-04-18T09:07:27Z</time>
      </trkpt>
      <trkpt lat="48.21492" lon="-3.33442">
        <ele>166.4453125</ele>
        <time>2012-04-18T09:07:34Z</time>
      </trkpt>
      <trkpt lat="48.21511" lon="-3.33468">
        <ele>166.4453125</ele>
        <time>2012-04-18T09:07:45Z</time>
      </trkpt>
      <trkpt lat="48.21555" lon="-3.33515">
        <ele>166.4453125</ele>
        <time>2012-04-18T09:08:00Z</time>
      </trkpt>
      <trkpt lat="48.21598" lon="-3.33544">
        <ele>166.4453125</ele>
        <time>2012-04-18T09:08:12Z</time>
      </trkpt>
      <trkpt lat="48.2168" lon="-3.33596">
        <ele>167.40673828125</ele>
        <time>2012-04-18T09:08:34Z</time>
      </trkpt>
      <trkpt lat="48.21748" lon="-3.33637">
        <ele>168.84875488281</ele>
        <time>2012-04-18T09:08:53Z</time>
      </trkpt>
      <trkpt lat="48.21815" lon="-3.33683">
        <ele>166.92602539062</ele>
        <time>2012-04-18T09:09:12Z</time>
      </trkpt>
      <trkpt lat="48.21858" lon="-3.33752">
        <ele>163.5615234375</ele>
        <time>2012-04-18T09:09:29Z</time>
      </trkpt>
      <trkpt lat="48.21883" lon="-3.33829">
        <ele>163.5615234375</ele>
        <time>2012-04-18T09:09:45Z</time>
      </trkpt>
      <trkpt lat="48.21928" lon="-3.33957">
        <ele>162.60009765625</ele>
        <time>2012-04-18T09:10:11Z</time>
      </trkpt>
      <trkpt lat="48.21941" lon="-3.34">
        <ele>160.19689941406</ele>
        <time>2012-04-18T09:10:27Z</time>
      </trkpt>
      <trkpt lat="48.21965" lon="-3.34068">
        <ele>159.71618652344</ele>
        <time>2012-04-18T09:10:43Z</time>
      </trkpt>
      <trkpt lat="48.21992" lon="-3.3415">
        <ele>160.19689941406</ele>
        <time>2012-04-18T09:11:00Z</time>
      </trkpt>
      <trkpt lat="48.22019" lon="-3.34225">
        <ele>157.79357910156</ele>
        <time>2012-04-18T09:11:14Z</time>
      </trkpt>
      <trkpt lat="48.22059" lon="-3.34346">
        <ele>156.3515625</ele>
        <time>2012-04-18T09:11:36Z</time>
      </trkpt>
      <trkpt lat="48.22098" lon="-3.34392">
        <ele>158.27416992188</ele>
        <time>2012-04-18T09:11:50Z</time>
      </trkpt>
      <trkpt lat="48.2218" lon="-3.34442">
        <ele>159.71618652344</ele>
        <time>2012-04-18T09:12:13Z</time>
      </trkpt>
      <trkpt lat="48.2226" lon="-3.34494">
        <ele>160.67749023438</ele>
        <time>2012-04-18T09:12:36Z</time>
      </trkpt>
      <trkpt lat="48.22323" lon="-3.34532">
        <ele>161.63891601562</ele>
        <time>2012-04-18T09:12:55Z</time>
      </trkpt>
      <trkpt lat="48.2238" lon="-3.34575">
        <ele>163.5615234375</ele>
        <time>2012-04-18T09:13:12Z</time>
      </trkpt>
      <trkpt lat="48.2241" lon="-3.34658">
        <ele>162.11950683594</ele>
        <time>2012-04-18T09:13:30Z</time>
      </trkpt>
      <trkpt lat="48.22418" lon="-3.34682">
        <ele>164.04211425781</ele>
        <time>2012-04-18T09:13:37Z</time>
      </trkpt>
      <trkpt lat="48.22426" lon="-3.34725">
        <ele>164.52270507812</ele>
        <time>2012-04-18T09:13:50Z</time>
      </trkpt>
      <trkpt lat="48.22435" lon="-3.34781">
        <ele>163.08081054688</ele>
        <time>2012-04-18T09:14:04Z</time>
      </trkpt>
      <trkpt lat="48.22447" lon="-3.34859">
        <ele>165.48413085938</ele>
        <time>2012-04-18T09:14:19Z</time>
      </trkpt>
      <trkpt lat="48.2244" lon="-3.34926">
        <ele>166.92602539062</ele>
        <time>2012-04-18T09:14:32Z</time>
      </trkpt>
      <trkpt lat="48.22401" lon="-3.35023">
        <ele>167.40673828125</ele>
        <time>2012-04-18T09:14:52Z</time>
      </trkpt>
      <trkpt lat="48.22365" lon="-3.35153">
        <ele>166.4453125</ele>
        <time>2012-04-18T09:15:16Z</time>
      </trkpt>
      <trkpt lat="48.22339" lon="-3.35201">
        <ele>167.40673828125</ele>
        <time>2012-04-18T09:15:27Z</time>
      </trkpt>
      <trkpt lat="48.22282" lon="-3.35261">
        <ele>167.40673828125</ele>
        <time>2012-04-18T09:15:44Z</time>
      </trkpt>
      <trkpt lat="48.22241" lon="-3.35289">
        <ele>167.88732910156</ele>
        <time>2012-04-18T09:15:56Z</time>
      </trkpt>
      <trkpt lat="48.22221" lon="-3.35328">
        <ele>166.92602539062</ele>
        <time>2012-04-18T09:16:10Z</time>
      </trkpt>
      <trkpt lat="48.22221" lon="-3.35392">
        <ele>166.92602539062</ele>
        <time>2012-04-18T09:16:23Z</time>
      </trkpt>
      <trkpt lat="48.22223" lon="-3.35397">
        <ele>166.4453125</ele>
        <time>2012-04-18T09:16:26Z</time>
      </trkpt>
      <trkpt lat="48.22243" lon="-3.35463">
        <ele>165.00341796875</ele>
        <time>2012-04-18T09:16:39Z</time>
      </trkpt>
      <trkpt lat="48.22255" lon="-3.355">
        <ele>166.92602539062</ele>
        <time>2012-04-18T09:16:47Z</time>
      </trkpt>
      <trkpt lat="48.22281" lon="-3.35565">
        <ele>172.21325683594</ele>
        <time>2012-04-18T09:17:02Z</time>
      </trkpt>
      <trkpt lat="48.22311" lon="-3.3562">
        <ele>173.17468261719</ele>
        <time>2012-04-18T09:17:16Z</time>
      </trkpt>
      <trkpt lat="48.22336" lon="-3.35666">
        <ele>174.61657714844</ele>
        <time>2012-04-18T09:17:30Z</time>
      </trkpt>
      <trkpt lat="48.22372" lon="-3.35731">
        <ele>173.6552734375</ele>
        <time>2012-04-18T09:17:47Z</time>
      </trkpt>
      <trkpt lat="48.22413" lon="-3.35805">
        <ele>172.69396972656</ele>
        <time>2012-04-18T09:18:05Z</time>
      </trkpt>
      <trkpt lat="48.22447" lon="-3.35904">
        <ele>171.73266601562</ele>
        <time>2012-04-18T09:18:24Z</time>
      </trkpt>
      <trkpt lat="48.22473" lon="-3.36021">
        <ele>173.6552734375</ele>
        <time>2012-04-18T09:18:45Z</time>
      </trkpt>
      <trkpt lat="48.22508" lon="-3.36052">
        <ele>173.17468261719</ele>
        <time>2012-04-18T09:18:58Z</time>
      </trkpt>
      <trkpt lat="48.22553" lon="-3.36061">
        <ele>171.25207519531</ele>
        <time>2012-04-18T09:19:15Z</time>
      </trkpt>
      <trkpt lat="48.22586" lon="-3.36036">
        <ele>172.69396972656</ele>
        <time>2012-04-18T09:19:30Z</time>
      </trkpt>
      <trkpt lat="48.22629" lon="-3.36">
        <ele>175.09729003906</ele>
        <time>2012-04-18T09:19:48Z</time>
      </trkpt>
      <trkpt lat="48.22669" lon="-3.35952">
        <ele>175.09729003906</ele>
        <time>2012-04-18T09:20:06Z</time>
      </trkpt>
      <trkpt lat="48.22741" lon="-3.36006">
        <ele>173.6552734375</ele>
        <time>2012-04-18T09:20:22Z</time>
      </trkpt>
      <trkpt lat="48.22792" lon="-3.35977">
        <ele>171.25207519531</ele>
        <time>2012-04-18T09:20:39Z</time>
      </trkpt>
      <trkpt lat="48.22843" lon="-3.35994">
        <ele>173.17468261719</ele>
        <time>2012-04-18T09:20:54Z</time>
      </trkpt>
      <trkpt lat="48.22894" lon="-3.36058">
        <ele>172.21325683594</ele>
        <time>2012-04-18T09:21:12Z</time>
      </trkpt>
      <trkpt lat="48.22953" lon="-3.36143">
        <ele>171.73266601562</ele>
        <time>2012-04-18T09:21:35Z</time>
      </trkpt>
      <trkpt lat="48.22992" lon="-3.36199">
        <ele>171.73266601562</ele>
        <time>2012-04-18T09:21:51Z</time>
      </trkpt>
      <trkpt lat="48.23019" lon="-3.36239">
        <ele>171.73266601562</ele>
        <time>2012-04-18T09:22:05Z</time>
      </trkpt>
      <trkpt lat="48.23051" lon="-3.36287">
        <ele>172.69396972656</ele>
        <time>2012-04-18T09:22:19Z</time>
      </trkpt>
      <trkpt lat="48.23079" lon="-3.36329">
        <ele>171.25207519531</ele>
        <time>2012-04-18T09:22:31Z</time>
      </trkpt>
      <trkpt lat="48.23104" lon="-3.36363">
        <ele>172.69396972656</ele>
        <time>2012-04-18T09:22:43Z</time>
      </trkpt>
      <trkpt lat="48.23123" lon="-3.36394">
        <ele>173.6552734375</ele>
        <time>2012-04-18T09:22:53Z</time>
      </trkpt>
      <trkpt lat="48.23143" lon="-3.36442">
        <ele>177.98120117188</ele>
        <time>2012-04-18T09:23:04Z</time>
      </trkpt>
      <trkpt lat="48.23148" lon="-3.36466">
        <ele>179.90380859375</ele>
        <time>2012-04-18T09:23:10Z</time>
      </trkpt>
      <trkpt lat="48.23151" lon="-3.36478">
        <ele>180.38452148438</ele>
        <time>2012-04-18T09:23:14Z</time>
      </trkpt>
      <trkpt lat="48.2316" lon="-3.36539">
        <ele>187.11376953125</ele>
        <time>2012-04-18T09:23:30Z</time>
      </trkpt>
      <trkpt lat="48.23161" lon="-3.36542">
        <ele>187.59436035156</ele>
        <time>2012-04-18T09:23:31Z</time>
      </trkpt>
      <trkpt lat="48.23172" lon="-3.36616">
        <ele>188.55578613281</ele>
        <time>2012-04-18T09:23:49Z</time>
      </trkpt>
      <trkpt lat="48.23179" lon="-3.36684">
        <ele>187.11376953125</ele>
        <time>2012-04-18T09:24:06Z</time>
      </trkpt>
      <trkpt lat="48.23188" lon="-3.36738">
        <ele>180.38452148438</ele>
        <time>2012-04-18T09:24:18Z</time>
      </trkpt>
      <trkpt lat="48.23187" lon="-3.36815">
        <ele>179.42321777344</ele>
        <time>2012-04-18T09:24:35Z</time>
      </trkpt>
      <trkpt lat="48.23137" lon="-3.36885">
        <ele>177.98120117188</ele>
        <time>2012-04-18T09:24:56Z</time>
      </trkpt>
      <trkpt lat="48.23117" lon="-3.36925">
        <ele>180.38452148438</ele>
        <time>2012-04-18T09:25:10Z</time>
      </trkpt>
      <trkpt lat="48.2311" lon="-3.36952">
        <ele>181.82641601562</ele>
        <time>2012-04-18T09:25:20Z</time>
      </trkpt>
      <trkpt lat="48.231" lon="-3.3701">
        <ele>183.7490234375</ele>
        <time>2012-04-18T09:25:36Z</time>
      </trkpt>
      <trkpt lat="48.23117" lon="-3.37053">
        <ele>185.67175292969</ele>
        <time>2012-04-18T09:25:51Z</time>
      </trkpt>
      <trkpt lat="48.2313" lon="-3.37101">
        <ele>184.71057128906</ele>
        <time>2012-04-18T09:26:04Z</time>
      </trkpt>
      <trkpt lat="48.23148" lon="-3.37152">
        <ele>183.26843261719</ele>
        <time>2012-04-18T09:26:20Z</time>
      </trkpt>
      <trkpt lat="48.23177" lon="-3.37196">
        <ele>184.22985839844</ele>
        <time>2012-04-18T09:26:33Z</time>
      </trkpt>
      <trkpt lat="48.23217" lon="-3.3723">
        <ele>186.15246582031</ele>
        <time>2012-04-18T09:26:48Z</time>
      </trkpt>
      <trkpt lat="48.23261" lon="-3.37242">
        <ele>182.30712890625</ele>
        <time>2012-04-18T09:27:01Z</time>
      </trkpt>
      <trkpt lat="48.23264" lon="-3.37244">
        <ele>181.82641601562</ele>
        <time>2012-04-18T09:27:02Z</time>
      </trkpt>
      <trkpt lat="48.23308" lon="-3.37282">
        <ele>182.30712890625</ele>
        <time>2012-04-18T09:27:15Z</time>
      </trkpt>
      <trkpt lat="48.23314" lon="-3.37289">
        <ele>181.82641601562</ele>
        <time>2012-04-18T09:27:17Z</time>
      </trkpt>
      <trkpt lat="48.23346" lon="-3.37298">
        <ele>184.22985839844</ele>
        <time>2012-04-18T09:27:25Z</time>
      </trkpt>
      <trkpt lat="48.23401" lon="-3.37289">
        <ele>184.71057128906</ele>
        <time>2012-04-18T09:27:39Z</time>
      </trkpt>
      <trkpt lat="48.23445" lon="-3.3728">
        <ele>185.67175292969</ele>
        <time>2012-04-18T09:27:52Z</time>
      </trkpt>
      <trkpt lat="48.23484" lon="-3.3727">
        <ele>187.11376953125</ele>
        <time>2012-04-18T09:28:05Z</time>
      </trkpt>
      <trkpt lat="48.23508" lon="-3.37251">
        <ele>189.51696777344</ele>
        <time>2012-04-18T09:28:14Z</time>
      </trkpt>
      <trkpt lat="48.23537" lon="-3.37225">
        <ele>189.51696777344</ele>
        <time>2012-04-18T09:28:23Z</time>
      </trkpt>
      <trkpt lat="48.23599" lon="-3.37208">
        <ele>189.03637695312</ele>
        <time>2012-04-18T09:28:39Z</time>
      </trkpt>
      <trkpt lat="48.23694" lon="-3.37212">
        <ele>188.07507324219</ele>
        <time>2012-04-18T09:29:04Z</time>
      </trkpt>
      <trkpt lat="48.23761" lon="-3.37226">
        <ele>189.03637695312</ele>
        <time>2012-04-18T09:29:23Z</time>
      </trkpt>
      <trkpt lat="48.2379" lon="-3.37299">
        <ele>186.15246582031</ele>
        <time>2012-04-18T09:29:40Z</time>
      </trkpt>
      <trkpt lat="48.23803" lon="-3.37378">
        <ele>186.63317871094</ele>
        <time>2012-04-18T09:29:57Z</time>
      </trkpt>
      <trkpt lat="48.23812" lon="-3.37444">
        <ele>185.67175292969</ele>
        <time>2012-04-18T09:30:13Z</time>
      </trkpt>
      <trkpt lat="48.23816" lon="-3.37475">
        <ele>187.11376953125</ele>
        <time>2012-04-18T09:30:24Z</time>
      </trkpt>
      <trkpt lat="48.2382" lon="-3.37483">
        <ele>188.07507324219</ele>
        <time>2012-04-18T09:30:29Z</time>
      </trkpt>
      <trkpt lat="48.23822" lon="-3.37486">
        <ele>188.07507324219</ele>
        <time>2012-04-18T09:30:31Z</time>
      </trkpt>
      <trkpt lat="48.23824" lon="-3.37498">
        <ele>187.59436035156</ele>
        <time>2012-04-18T09:30:36Z</time>
      </trkpt>
      <trkpt lat="48.23822" lon="-3.37513">
        <ele>186.15246582031</ele>
        <time>2012-04-18T09:30:50Z</time>
      </trkpt>
      <trkpt lat="48.23794" lon="-3.37539">
        <ele>185.19116210938</ele>
        <time>2012-04-18T09:31:00Z</time>
      </trkpt>
      <trkpt lat="48.23833" lon="-3.37624">
        <ele>185.67175292969</ele>
        <time>2012-04-18T09:31:08Z</time>
      </trkpt>
      <trkpt lat="48.23854" lon="-3.37694">
        <ele>185.19116210938</ele>
        <time>2012-04-18T09:31:20Z</time>
      </trkpt>
      <trkpt lat="48.23888" lon="-3.37788">
        <ele>183.26843261719</ele>
        <time>2012-04-18T09:31:38Z</time>
      </trkpt>
      <trkpt lat="48.23937" lon="-3.37846">
        <ele>185.67175292969</ele>
        <time>2012-04-18T09:31:56Z</time>
      </trkpt>
      <trkpt lat="48.23998" lon="-3.37915">
        <ele>186.63317871094</ele>
        <time>2012-04-18T09:32:17Z</time>
      </trkpt>
      <trkpt lat="48.24035" lon="-3.37969">
        <ele>185.19116210938</ele>
        <time>2012-04-18T09:32:34Z</time>
      </trkpt>
      <trkpt lat="48.24044" lon="-3.38022">
        <ele>184.71057128906</ele>
        <time>2012-04-18T09:32:45Z</time>
      </trkpt>
      <trkpt lat="48.24037" lon="-3.38098">
        <ele>185.19116210938</ele>
        <time>2012-04-18T09:32:59Z</time>
      </trkpt>
      <trkpt lat="48.24037" lon="-3.38154">
        <ele>185.67175292969</ele>
        <time>2012-04-18T09:33:11Z</time>
      </trkpt>
      <trkpt lat="48.24035" lon="-3.38165">
        <ele>186.15246582031</ele>
        <time>2012-04-18T09:33:13Z</time>
      </trkpt>
      <trkpt lat="48.24029" lon="-3.38209">
        <ele>187.59436035156</ele>
        <time>2012-04-18T09:33:22Z</time>
      </trkpt>
      <trkpt lat="48.24024" lon="-3.38244">
        <ele>189.99768066406</ele>
        <time>2012-04-18T09:33:29Z</time>
      </trkpt>
      <trkpt lat="48.24017" lon="-3.38301">
        <ele>195.765625</ele>
        <time>2012-04-18T09:33:41Z</time>
      </trkpt>
      <trkpt lat="48.24018" lon="-3.38341">
        <ele>197.20751953125</ele>
        <time>2012-04-18T09:33:50Z</time>
      </trkpt>
      <trkpt lat="48.24016" lon="-3.38401">
        <ele>191.43957519531</ele>
        <time>2012-04-18T09:34:02Z</time>
      </trkpt>
      <trkpt lat="48.24014" lon="-3.38421">
        <ele>189.99768066406</ele>
        <time>2012-04-18T09:34:06Z</time>
      </trkpt>
      <trkpt lat="48.24009" lon="-3.38475">
        <ele>191.43957519531</ele>
        <time>2012-04-18T09:34:18Z</time>
      </trkpt>
      <trkpt lat="48.24008" lon="-3.385">
        <ele>191.43957519531</ele>
        <time>2012-04-18T09:34:24Z</time>
      </trkpt>
      <trkpt lat="48.23999" lon="-3.38573">
        <ele>197.68823242188</ele>
        <time>2012-04-18T09:34:40Z</time>
      </trkpt>
      <trkpt lat="48.23994" lon="-3.38639">
        <ele>194.80432128906</ele>
        <time>2012-04-18T09:34:54Z</time>
      </trkpt>
      <trkpt lat="48.23987" lon="-3.3871">
        <ele>197.20751953125</ele>
        <time>2012-04-18T09:35:08Z</time>
      </trkpt>
      <trkpt lat="48.23978" lon="-3.38817">
        <ele>195.765625</ele>
        <time>2012-04-18T09:35:28Z</time>
      </trkpt>
      <trkpt lat="48.23972" lon="-3.38884">
        <ele>191.43957519531</ele>
        <time>2012-04-18T09:35:42Z</time>
      </trkpt>
      <trkpt lat="48.23964" lon="-3.38939">
        <ele>189.51696777344</ele>
        <time>2012-04-18T09:35:55Z</time>
      </trkpt>
      <trkpt lat="48.23934" lon="-3.39025">
        <ele>189.99768066406</ele>
        <time>2012-04-18T09:36:15Z</time>
      </trkpt>
      <trkpt lat="48.23902" lon="-3.3909">
        <ele>189.03637695312</ele>
        <time>2012-04-18T09:36:32Z</time>
      </trkpt>
      <trkpt lat="48.23864" lon="-3.39174">
        <ele>190.47839355469</ele>
        <time>2012-04-18T09:36:53Z</time>
      </trkpt>
      <trkpt lat="48.23842" lon="-3.39218">
        <ele>189.03637695312</ele>
        <time>2012-04-18T09:37:05Z</time>
      </trkpt>
      <trkpt lat="48.23823" lon="-3.3926">
        <ele>188.55578613281</ele>
        <time>2012-04-18T09:37:14Z</time>
      </trkpt>
      <trkpt lat="48.23794" lon="-3.39321">
        <ele>190.47839355469</ele>
        <time>2012-04-18T09:37:28Z</time>
      </trkpt>
      <trkpt lat="48.23754" lon="-3.39408">
        <ele>191.43957519531</ele>
        <time>2012-04-18T09:37:48Z</time>
      </trkpt>
      <trkpt lat="48.23734" lon="-3.39446">
        <ele>189.03637695312</ele>
        <time>2012-04-18T09:37:59Z</time>
      </trkpt>
      <trkpt lat="48.23706" lon="-3.39512">
        <ele>190.47839355469</ele>
        <time>2012-04-18T09:38:14Z</time>
      </trkpt>
      <trkpt lat="48.23686" lon="-3.39553">
        <ele>187.11376953125</ele>
        <time>2012-04-18T09:38:25Z</time>
      </trkpt>
      <trkpt lat="48.23656" lon="-3.39618">
        <ele>193.84301757812</ele>
        <time>2012-04-18T09:38:43Z</time>
      </trkpt>
      <trkpt lat="48.23625" lon="-3.39684">
        <ele>192.40112304688</ele>
        <time>2012-04-18T09:39:00Z</time>
      </trkpt>
      <trkpt lat="48.23607" lon="-3.39727">
        <ele>190.47839355469</ele>
        <time>2012-04-18T09:39:10Z</time>
      </trkpt>
      <trkpt lat="48.23582" lon="-3.39783">
        <ele>189.99768066406</ele>
        <time>2012-04-18T09:39:22Z</time>
      </trkpt>
      <trkpt lat="48.23572" lon="-3.39802">
        <ele>189.99768066406</ele>
        <time>2012-04-18T09:39:27Z</time>
      </trkpt>
      <trkpt lat="48.23542" lon="-3.39867">
        <ele>190.47839355469</ele>
        <time>2012-04-18T09:39:42Z</time>
      </trkpt>
      <trkpt lat="48.23512" lon="-3.3993">
        <ele>191.43957519531</ele>
        <time>2012-04-18T09:39:57Z</time>
      </trkpt>
      <trkpt lat="48.23501" lon="-3.39967">
        <ele>192.40112304688</ele>
        <time>2012-04-18T09:40:09Z</time>
      </trkpt>
      <trkpt lat="48.23492" lon="-3.39984">
        <ele>191.43957519531</ele>
        <time>2012-04-18T09:40:20Z</time>
      </trkpt>
      <trkpt lat="48.23487" lon="-3.39979">
        <ele>189.99768066406</ele>
        <time>2012-04-18T09:40:43Z</time>
      </trkpt>
      <trkpt lat="48.23487" lon="-3.39978">
        <ele>189.99768066406</ele>
        <time>2012-04-18T09:41:29Z</time>
      </trkpt>
      <trkpt lat="48.23486" lon="-3.3998">
        <ele>189.51696777344</ele>
        <time>2012-04-18T09:44:07Z</time>
      </trkpt>
      <trkpt lat="48.2349" lon="-3.39985">
        <ele>187.11376953125</ele>
        <time>2012-04-18T09:49:31Z</time>
      </trkpt>
      <trkpt lat="48.23491" lon="-3.39986">
        <ele>187.59436035156</ele>
        <time>2012-04-18T09:49:32Z</time>
      </trkpt>
      <trkpt lat="48.23494" lon="-3.39992">
        <ele>188.55578613281</ele>
        <time>2012-04-18T09:49:49Z</time>
      </trkpt>
      <trkpt lat="48.23493" lon="-3.39994">
        <ele>187.59436035156</ele>
        <time>2012-04-18T09:50:29Z</time>
      </trkpt>
      <trkpt lat="48.23494" lon="-3.39995">
        <ele>187.11376953125</ele>
        <time>2012-04-18T09:50:56Z</time>
      </trkpt>
      <trkpt lat="48.23475" lon="-3.40024">
        <ele>186.63317871094</ele>
        <time>2012-04-18T09:51:07Z</time>
      </trkpt>
      <trkpt lat="48.23449" lon="-3.40077">
        <ele>183.26843261719</ele>
        <time>2012-04-18T09:51:19Z</time>
      </trkpt>
      <trkpt lat="48.23415" lon="-3.4015">
        <ele>182.78784179688</ele>
        <time>2012-04-18T09:51:36Z</time>
      </trkpt>
      <trkpt lat="48.23383" lon="-3.40211">
        <ele>193.3623046875</ele>
        <time>2012-04-18T09:51:50Z</time>
      </trkpt>
      <trkpt lat="48.23341" lon="-3.40275">
        <ele>194.80432128906</ele>
        <time>2012-04-18T09:52:07Z</time>
      </trkpt>
      <trkpt lat="48.23312" lon="-3.40324">
        <ele>190.47839355469</ele>
        <time>2012-04-18T09:52:23Z</time>
      </trkpt>
      <trkpt lat="48.23288" lon="-3.40362">
        <ele>189.03637695312</ele>
        <time>2012-04-18T09:52:36Z</time>
      </trkpt>
      <trkpt lat="48.23256" lon="-3.40413">
        <ele>184.71057128906</ele>
        <time>2012-04-18T09:52:51Z</time>
      </trkpt>
      <trkpt lat="48.23222" lon="-3.40467">
        <ele>180.38452148438</ele>
        <time>2012-04-18T09:53:07Z</time>
      </trkpt>
      <trkpt lat="48.23183" lon="-3.40527">
        <ele>186.15246582031</ele>
        <time>2012-04-18T09:53:25Z</time>
      </trkpt>
      <trkpt lat="48.23149" lon="-3.40583">
        <ele>185.67175292969</ele>
        <time>2012-04-18T09:53:42Z</time>
      </trkpt>
      <trkpt lat="48.23113" lon="-3.40639">
        <ele>185.67175292969</ele>
        <time>2012-04-18T09:53:59Z</time>
      </trkpt>
      <trkpt lat="48.23092" lon="-3.40673">
        <ele>187.59436035156</ele>
        <time>2012-04-18T09:54:09Z</time>
      </trkpt>
      <trkpt lat="48.23068" lon="-3.40708">
        <ele>190.958984375</ele>
        <time>2012-04-18T09:54:21Z</time>
      </trkpt>
      <trkpt lat="48.23054" lon="-3.40732">
        <ele>192.40112304688</ele>
        <time>2012-04-18T09:54:28Z</time>
      </trkpt>
      <trkpt lat="48.23048" lon="-3.40805">
        <ele>196.72692871094</ele>
        <time>2012-04-18T09:54:44Z</time>
      </trkpt>
      <trkpt lat="48.23062" lon="-3.40843">
        <ele>188.55578613281</ele>
        <time>2012-04-18T09:54:54Z</time>
      </trkpt>
      <trkpt lat="48.23067" lon="-3.4085">
        <ele>187.59436035156</ele>
        <time>2012-04-18T09:54:58Z</time>
      </trkpt>
      <trkpt lat="48.23071" lon="-3.40861">
        <ele>186.63317871094</ele>
        <time>2012-04-18T09:55:02Z</time>
      </trkpt>
      <trkpt lat="48.23076" lon="-3.40866">
        <ele>187.11376953125</ele>
        <time>2012-04-18T09:55:12Z</time>
      </trkpt>
      <trkpt lat="48.23077" lon="-3.40879">
        <ele>188.55578613281</ele>
        <time>2012-04-18T09:55:18Z</time>
      </trkpt>
      <trkpt lat="48.23085" lon="-3.40887">
        <ele>186.63317871094</ele>
        <time>2012-04-18T09:55:22Z</time>
      </trkpt>
      <trkpt lat="48.23094" lon="-3.40884">
        <ele>185.67175292969</ele>
        <time>2012-04-18T09:55:26Z</time>
      </trkpt>
      <trkpt lat="48.23116" lon="-3.40868">
        <ele>185.67175292969</ele>
        <time>2012-04-18T09:55:42Z</time>
      </trkpt>
      <trkpt lat="48.23109" lon="-3.40886">
        <ele>186.15246582031</ele>
        <time>2012-04-18T09:56:03Z</time>
      </trkpt>
      <trkpt lat="48.23087" lon="-3.40909">
        <ele>188.07507324219</ele>
        <time>2012-04-18T09:56:30Z</time>
      </trkpt>
      <trkpt lat="48.23079" lon="-3.40924">
        <ele>188.07507324219</ele>
        <time>2012-04-18T09:57:01Z</time>
      </trkpt>
      <trkpt lat="48.23077" lon="-3.40928">
        <ele>185.19116210938</ele>
        <time>2012-04-18T09:57:15Z</time>
      </trkpt>
    </trkseg>
  </trk>
  <trk>
    <name><![CDATA[ACTIVE LOG 012]]></name>
    <trkseg>
      <trkpt lat="48.23112" lon="-3.40889">
        <ele>137.12524414062</ele>
        <time>2012-04-18T11:02:31Z</time>
      </trkpt>
      <trkpt lat="48.2311" lon="-3.40888">
        <ele>188.07507324219</ele>
        <time>2012-04-18T11:02:44Z</time>
      </trkpt>
      <trkpt lat="48.23113" lon="-3.4089">
        <ele>179.42321777344</ele>
        <time>2012-04-18T11:02:51Z</time>
      </trkpt>
      <trkpt lat="48.23111" lon="-3.40898">
        <ele>175.09729003906</ele>
        <time>2012-04-18T11:03:02Z</time>
      </trkpt>
      <trkpt lat="48.23112" lon="-3.40913">
        <ele>176.53930664062</ele>
        <time>2012-04-18T11:03:09Z</time>
      </trkpt>
      <trkpt lat="48.23115" lon="-3.40955">
        <ele>178.4619140625</ele>
        <time>2012-04-18T11:03:21Z</time>
      </trkpt>
      <trkpt lat="48.23178" lon="-3.4099">
        <ele>176.05859375</ele>
        <time>2012-04-18T11:03:39Z</time>
      </trkpt>
      <trkpt lat="48.23217" lon="-3.41084">
        <ele>174.61657714844</ele>
        <time>2012-04-18T11:03:57Z</time>
      </trkpt>
      <trkpt lat="48.23248" lon="-3.41161">
        <ele>173.17468261719</ele>
        <time>2012-04-18T11:04:09Z</time>
      </trkpt>
      <trkpt lat="48.23293" lon="-3.41269">
        <ele>170.29064941406</ele>
        <time>2012-04-18T11:04:28Z</time>
      </trkpt>
      <trkpt lat="48.23334" lon="-3.41348">
        <ele>170.29064941406</ele>
        <time>2012-04-18T11:04:46Z</time>
      </trkpt>
      <trkpt lat="48.23357" lon="-3.41352">
        <ele>168.36804199219</ele>
        <time>2012-04-18T11:04:56Z</time>
      </trkpt>
      <trkpt lat="48.23362" lon="-3.41352">
        <ele>168.36804199219</ele>
        <time>2012-04-18T11:05:00Z</time>
      </trkpt>
      <trkpt lat="48.23439" lon="-3.41352">
        <ele>167.40673828125</ele>
        <time>2012-04-18T11:05:20Z</time>
      </trkpt>
      <trkpt lat="48.23502" lon="-3.41508">
        <ele>164.52270507812</ele>
        <time>2012-04-18T11:05:38Z</time>
      </trkpt>
      <trkpt lat="48.23595" lon="-3.4159">
        <ele>161.63891601562</ele>
        <time>2012-04-18T11:06:00Z</time>
      </trkpt>
      <trkpt lat="48.23693" lon="-3.41637">
        <ele>160.67749023438</ele>
        <time>2012-04-18T11:06:19Z</time>
      </trkpt>
      <trkpt lat="48.23704" lon="-3.41679">
        <ele>159.23547363281</ele>
        <time>2012-04-18T11:06:26Z</time>
      </trkpt>
      <trkpt lat="48.23713" lon="-3.41717">
        <ele>159.71618652344</ele>
        <time>2012-04-18T11:06:32Z</time>
      </trkpt>
      <trkpt lat="48.23732" lon="-3.41817">
        <ele>160.19689941406</ele>
        <time>2012-04-18T11:06:50Z</time>
      </trkpt>
      <trkpt lat="48.23744" lon="-3.41902">
        <ele>158.27416992188</ele>
        <time>2012-04-18T11:07:04Z</time>
      </trkpt>
      <trkpt lat="48.2375" lon="-3.41941">
        <ele>157.31286621094</ele>
        <time>2012-04-18T11:07:10Z</time>
      </trkpt>
      <trkpt lat="48.23771" lon="-3.42054">
        <ele>155.39025878906</ele>
        <time>2012-04-18T11:07:28Z</time>
      </trkpt>
      <trkpt lat="48.23784" lon="-3.42101">
        <ele>155.39025878906</ele>
        <time>2012-04-18T11:07:36Z</time>
      </trkpt>
      <trkpt lat="48.23818" lon="-3.42166">
        <ele>152.50634765625</ele>
        <time>2012-04-18T11:07:50Z</time>
      </trkpt>
      <trkpt lat="48.23835" lon="-3.42195">
        <ele>152.02575683594</ele>
        <time>2012-04-18T11:07:56Z</time>
      </trkpt>
      <trkpt lat="48.23884" lon="-3.42251">
        <ele>151.544921875</ele>
        <time>2012-04-18T11:08:11Z</time>
      </trkpt>
      <trkpt lat="48.23962" lon="-3.42295">
        <ele>148.18041992188</ele>
        <time>2012-04-18T11:08:32Z</time>
      </trkpt>
      <trkpt lat="48.24035" lon="-3.42374">
        <ele>149.62231445312</ele>
        <time>2012-04-18T11:08:53Z</time>
      </trkpt>
      <trkpt lat="48.24106" lon="-3.42443">
        <ele>151.06420898438</ele>
        <time>2012-04-18T11:09:13Z</time>
      </trkpt>
      <trkpt lat="48.24183" lon="-3.42464">
        <ele>149.1416015625</ele>
        <time>2012-04-18T11:09:32Z</time>
      </trkpt>
      <trkpt lat="48.242" lon="-3.42464">
        <ele>149.62231445312</ele>
        <time>2012-04-18T11:09:36Z</time>
      </trkpt>
      <trkpt lat="48.24267" lon="-3.42457">
        <ele>148.18041992188</ele>
        <time>2012-04-18T11:09:52Z</time>
      </trkpt>
      <trkpt lat="48.24345" lon="-3.42448">
        <ele>149.62231445312</ele>
        <time>2012-04-18T11:10:10Z</time>
      </trkpt>
      <trkpt lat="48.24444" lon="-3.42436">
        <ele>147.69970703125</ele>
        <time>2012-04-18T11:10:32Z</time>
      </trkpt>
      <trkpt lat="48.24517" lon="-3.42428">
        <ele>143.85437011719</ele>
        <time>2012-04-18T11:10:48Z</time>
      </trkpt>
      <trkpt lat="48.24567" lon="-3.42452">
        <ele>142.41247558594</ele>
        <time>2012-04-18T11:11:00Z</time>
      </trkpt>
      <trkpt lat="48.24616" lon="-3.42532">
        <ele>142.41247558594</ele>
        <time>2012-04-18T11:11:17Z</time>
      </trkpt>
      <trkpt lat="48.24647" lon="-3.42614">
        <ele>141.45104980469</ele>
        <time>2012-04-18T11:11:33Z</time>
      </trkpt>
      <trkpt lat="48.24675" lon="-3.42687">
        <ele>137.60583496094</ele>
        <time>2012-04-18T11:11:47Z</time>
      </trkpt>
      <trkpt lat="48.24713" lon="-3.42787">
        <ele>134.72192382812</ele>
        <time>2012-04-18T11:12:04Z</time>
      </trkpt>
      <trkpt lat="48.24761" lon="-3.42915">
        <ele>138.08654785156</ele>
        <time>2012-04-18T11:12:27Z</time>
      </trkpt>
      <trkpt lat="48.24796" lon="-3.42971">
        <ele>139.0478515625</ele>
        <time>2012-04-18T11:12:40Z</time>
      </trkpt>
      <trkpt lat="48.24867" lon="-3.43027">
        <ele>137.60583496094</ele>
        <time>2012-04-18T11:12:59Z</time>
      </trkpt>
      <trkpt lat="48.24899" lon="-3.43052">
        <ele>135.68310546875</ele>
        <time>2012-04-18T11:13:14Z</time>
      </trkpt>
      <trkpt lat="48.24899" lon="-3.43052">
        <ele>135.68310546875</ele>
        <time>2012-04-18T11:13:17Z</time>
      </trkpt>
      <trkpt lat="48.24962" lon="-3.43099">
        <ele>137.12524414062</ele>
        <time>2012-04-18T11:13:31Z</time>
      </trkpt>
      <trkpt lat="48.25026" lon="-3.43143">
        <ele>142.41247558594</ele>
        <time>2012-04-18T11:13:48Z</time>
      </trkpt>
      <trkpt lat="48.25071" lon="-3.43174">
        <ele>142.41247558594</ele>
        <time>2012-04-18T11:14:03Z</time>
      </trkpt>
      <trkpt lat="48.25122" lon="-3.43213">
        <ele>139.0478515625</ele>
        <time>2012-04-18T11:14:17Z</time>
      </trkpt>
      <trkpt lat="48.25152" lon="-3.43265">
        <ele>139.0478515625</ele>
        <time>2012-04-18T11:14:30Z</time>
      </trkpt>
      <trkpt lat="48.25172" lon="-3.43309">
        <ele>137.12524414062</ele>
        <time>2012-04-18T11:14:44Z</time>
      </trkpt>
      <trkpt lat="48.25193" lon="-3.43355">
        <ele>138.08654785156</ele>
        <time>2012-04-18T11:15:00Z</time>
      </trkpt>
      <trkpt lat="48.25228" lon="-3.43429">
        <ele>132.79931640625</ele>
        <time>2012-04-18T11:15:15Z</time>
      </trkpt>
      <trkpt lat="48.25256" lon="-3.43483">
        <ele>130.87670898438</ele>
        <time>2012-04-18T11:15:27Z</time>
      </trkpt>
      <trkpt lat="48.2528" lon="-3.43534">
        <ele>131.837890625</ele>
        <time>2012-04-18T11:15:40Z</time>
      </trkpt>
      <trkpt lat="48.25315" lon="-3.4361">
        <ele>131.837890625</ele>
        <time>2012-04-18T11:15:58Z</time>
      </trkpt>
      <trkpt lat="48.25325" lon="-3.43626">
        <ele>131.35729980469</ele>
        <time>2012-04-18T11:16:07Z</time>
      </trkpt>
      <trkpt lat="48.25325" lon="-3.43631">
        <ele>132.31860351562</ele>
        <time>2012-04-18T11:16:11Z</time>
      </trkpt>
      <trkpt lat="48.2533" lon="-3.4364">
        <ele>132.79931640625</ele>
        <time>2012-04-18T11:16:16Z</time>
      </trkpt>
      <trkpt lat="48.25371" lon="-3.43722">
        <ele>131.837890625</ele>
        <time>2012-04-18T11:16:31Z</time>
      </trkpt>
      <trkpt lat="48.25387" lon="-3.43756">
        <ele>134.72192382812</ele>
        <time>2012-04-18T11:16:43Z</time>
      </trkpt>
      <trkpt lat="48.25419" lon="-3.43826">
        <ele>134.2412109375</ele>
        <time>2012-04-18T11:17:02Z</time>
      </trkpt>
      <trkpt lat="48.25446" lon="-3.43886">
        <ele>132.31860351562</ele>
        <time>2012-04-18T11:17:15Z</time>
      </trkpt>
      <trkpt lat="48.25487" lon="-3.43976">
        <ele>132.31860351562</ele>
        <time>2012-04-18T11:17:34Z</time>
      </trkpt>
      <trkpt lat="48.25514" lon="-3.44035">
        <ele>132.79931640625</ele>
        <time>2012-04-18T11:17:48Z</time>
      </trkpt>
      <trkpt lat="48.25527" lon="-3.44065">
        <ele>130.39599609375</ele>
        <time>2012-04-18T11:17:53Z</time>
      </trkpt>
      <trkpt lat="48.25568" lon="-3.44154">
        <ele>128.47338867188</ele>
        <time>2012-04-18T11:18:09Z</time>
      </trkpt>
      <trkpt lat="48.25581" lon="-3.44184">
        <ele>126.55065917969</ele>
        <time>2012-04-18T11:18:15Z</time>
      </trkpt>
      <trkpt lat="48.25604" lon="-3.44263">
        <ele>125.58935546875</ele>
        <time>2012-04-18T11:18:30Z</time>
      </trkpt>
      <trkpt lat="48.25607" lon="-3.44327">
        <ele>126.06994628906</ele>
        <time>2012-04-18T11:18:41Z</time>
      </trkpt>
      <trkpt lat="48.25608" lon="-3.44346">
        <ele>126.55065917969</ele>
        <time>2012-04-18T11:18:44Z</time>
      </trkpt>
      <trkpt lat="48.25612" lon="-3.44443">
        <ele>126.06994628906</ele>
        <time>2012-04-18T11:19:05Z</time>
      </trkpt>
      <trkpt lat="48.25615" lon="-3.44511">
        <ele>126.06994628906</ele>
        <time>2012-04-18T11:19:16Z</time>
      </trkpt>
      <trkpt lat="48.25619" lon="-3.44591">
        <ele>128.47338867188</ele>
        <time>2012-04-18T11:19:34Z</time>
      </trkpt>
      <trkpt lat="48.2562" lon="-3.4461">
        <ele>128.47338867188</ele>
        <time>2012-04-18T11:19:43Z</time>
      </trkpt>
      <trkpt lat="48.2562" lon="-3.4461">
        <ele>127.99255371094</ele>
        <time>2012-04-18T11:19:46Z</time>
      </trkpt>
      <trkpt lat="48.2562" lon="-3.4461">
        <ele>127.51196289062</ele>
        <time>2012-04-18T11:19:50Z</time>
      </trkpt>
      <trkpt lat="48.25618" lon="-3.44682">
        <ele>125.58935546875</ele>
        <time>2012-04-18T11:20:01Z</time>
      </trkpt>
      <trkpt lat="48.25617" lon="-3.4475">
        <ele>127.51196289062</ele>
        <time>2012-04-18T11:20:14Z</time>
      </trkpt>
      <trkpt lat="48.25604" lon="-3.44813">
        <ele>126.55065917969</ele>
        <time>2012-04-18T11:20:25Z</time>
      </trkpt>
      <trkpt lat="48.25596" lon="-3.44825">
        <ele>129.43469238281</ele>
        <time>2012-04-18T11:20:28Z</time>
      </trkpt>
      <trkpt lat="48.25533" lon="-3.44885">
        <ele>129.91528320312</ele>
        <time>2012-04-18T11:20:47Z</time>
      </trkpt>
      <trkpt lat="48.2547" lon="-3.44944">
        <ele>127.99255371094</ele>
        <time>2012-04-18T11:21:06Z</time>
      </trkpt>
      <trkpt lat="48.25442" lon="-3.4497">
        <ele>125.58935546875</ele>
        <time>2012-04-18T11:21:13Z</time>
      </trkpt>
      <trkpt lat="48.25395" lon="-3.45011">
        <ele>123.18615722656</ele>
        <time>2012-04-18T11:21:24Z</time>
      </trkpt>
      <trkpt lat="48.25321" lon="-3.45077">
        <ele>122.22473144531</ele>
        <time>2012-04-18T11:21:44Z</time>
      </trkpt>
      <trkpt lat="48.25255" lon="-3.45136">
        <ele>123.18615722656</ele>
        <time>2012-04-18T11:22:03Z</time>
      </trkpt>
      <trkpt lat="48.25216" lon="-3.45166">
        <ele>122.70544433594</ele>
        <time>2012-04-18T11:22:14Z</time>
      </trkpt>
      <trkpt lat="48.25176" lon="-3.45199">
        <ele>119.3408203125</ele>
        <time>2012-04-18T11:22:24Z</time>
      </trkpt>
      <trkpt lat="48.25161" lon="-3.45234">
        <ele>118.37939453125</ele>
        <time>2012-04-18T11:22:28Z</time>
      </trkpt>
      <trkpt lat="48.25164" lon="-3.45341">
        <ele>117.41821289062</ele>
        <time>2012-04-18T11:22:46Z</time>
      </trkpt>
      <trkpt lat="48.25167" lon="-3.45488">
        <ele>118.86010742188</ele>
        <time>2012-04-18T11:23:10Z</time>
      </trkpt>
      <trkpt lat="48.25169" lon="-3.45598">
        <ele>119.3408203125</ele>
        <time>2012-04-18T11:23:29Z</time>
      </trkpt>
      <trkpt lat="48.25172" lon="-3.4571">
        <ele>118.37939453125</ele>
        <time>2012-04-18T11:23:48Z</time>
      </trkpt>
      <trkpt lat="48.25174" lon="-3.45802">
        <ele>116.9375</ele>
        <time>2012-04-18T11:24:02Z</time>
      </trkpt>
      <trkpt lat="48.2519" lon="-3.45882">
        <ele>117.89880371094</ele>
        <time>2012-04-18T11:24:14Z</time>
      </trkpt>
      <trkpt lat="48.252" lon="-3.45911">
        <ele>117.89880371094</ele>
        <time>2012-04-18T11:24:19Z</time>
      </trkpt>
      <trkpt lat="48.25249" lon="-3.45993">
        <ele>115.01489257812</ele>
        <time>2012-04-18T11:24:36Z</time>
      </trkpt>
      <trkpt lat="48.25269" lon="-3.46018">
        <ele>114.5341796875</ele>
        <time>2012-04-18T11:24:42Z</time>
      </trkpt>
      <trkpt lat="48.25317" lon="-3.46073">
        <ele>114.5341796875</ele>
        <time>2012-04-18T11:24:56Z</time>
      </trkpt>
      <trkpt lat="48.25324" lon="-3.46078">
        <ele>113.57299804688</ele>
        <time>2012-04-18T11:24:58Z</time>
      </trkpt>
      <trkpt lat="48.25414" lon="-3.46146">
        <ele>113.09228515625</ele>
        <time>2012-04-18T11:25:21Z</time>
      </trkpt>
      <trkpt lat="48.25473" lon="-3.46192">
        <ele>112.13098144531</ele>
        <time>2012-04-18T11:25:34Z</time>
      </trkpt>
      <trkpt lat="48.25498" lon="-3.46211">
        <ele>113.09228515625</ele>
        <time>2012-04-18T11:25:41Z</time>
      </trkpt>
      <trkpt lat="48.25554" lon="-3.46254">
        <ele>110.20825195312</ele>
        <time>2012-04-18T11:25:55Z</time>
      </trkpt>
      <trkpt lat="48.25566" lon="-3.46263">
        <ele>110.20825195312</ele>
        <time>2012-04-18T11:25:58Z</time>
      </trkpt>
      <trkpt lat="48.25625" lon="-3.46308">
        <ele>110.20825195312</ele>
        <time>2012-04-18T11:26:12Z</time>
      </trkpt>
      <trkpt lat="48.2564" lon="-3.46323">
        <ele>110.68884277344</ele>
        <time>2012-04-18T11:26:16Z</time>
      </trkpt>
      <trkpt lat="48.2568" lon="-3.46419">
        <ele>111.16955566406</ele>
        <time>2012-04-18T11:26:32Z</time>
      </trkpt>
      <trkpt lat="48.2567" lon="-3.46482">
        <ele>110.68884277344</ele>
        <time>2012-04-18T11:26:42Z</time>
      </trkpt>
      <trkpt lat="48.25634" lon="-3.46593">
        <ele>110.20825195312</ele>
        <time>2012-04-18T11:27:00Z</time>
      </trkpt>
      <trkpt lat="48.2561" lon="-3.46666">
        <ele>110.68884277344</ele>
        <time>2012-04-18T11:27:12Z</time>
      </trkpt>
      <trkpt lat="48.25594" lon="-3.46736">
        <ele>113.09228515625</ele>
        <time>2012-04-18T11:27:23Z</time>
      </trkpt>
      <trkpt lat="48.25594" lon="-3.46793">
        <ele>112.13098144531</ele>
        <time>2012-04-18T11:27:31Z</time>
      </trkpt>
      <trkpt lat="48.25604" lon="-3.46888">
        <ele>113.09228515625</ele>
        <time>2012-04-18T11:27:46Z</time>
      </trkpt>
      <trkpt lat="48.25607" lon="-3.46906">
        <ele>113.57299804688</ele>
        <time>2012-04-18T11:27:49Z</time>
      </trkpt>
      <trkpt lat="48.25628" lon="-3.47023">
        <ele>111.65026855469</ele>
        <time>2012-04-18T11:28:07Z</time>
      </trkpt>
      <trkpt lat="48.25644" lon="-3.47109">
        <ele>109.24694824219</ele>
        <time>2012-04-18T11:28:23Z</time>
      </trkpt>
      <trkpt lat="48.25646" lon="-3.47123">
        <ele>108.28564453125</ele>
        <time>2012-04-18T11:28:29Z</time>
      </trkpt>
      <trkpt lat="48.2565" lon="-3.47146">
        <ele>106.84362792969</ele>
        <time>2012-04-18T11:28:36Z</time>
      </trkpt>
      <trkpt lat="48.25652" lon="-3.47154">
        <ele>108.28564453125</ele>
        <time>2012-04-18T11:28:43Z</time>
      </trkpt>
      <trkpt lat="48.25654" lon="-3.47167">
        <ele>108.76623535156</ele>
        <time>2012-04-18T11:28:46Z</time>
      </trkpt>
      <trkpt lat="48.25655" lon="-3.47168">
        <ele>108.28564453125</ele>
        <time>2012-04-18T11:28:48Z</time>
      </trkpt>
      <trkpt lat="48.25666" lon="-3.47233">
        <ele>108.76623535156</ele>
        <time>2012-04-18T11:29:01Z</time>
      </trkpt>
      <trkpt lat="48.25678" lon="-3.47304">
        <ele>106.36303710938</ele>
        <time>2012-04-18T11:29:14Z</time>
      </trkpt>
      <trkpt lat="48.25666" lon="-3.47389">
        <ele>107.32434082031</ele>
        <time>2012-04-18T11:29:29Z</time>
      </trkpt>
      <trkpt lat="48.25631" lon="-3.47495">
        <ele>108.28564453125</ele>
        <time>2012-04-18T11:29:49Z</time>
      </trkpt>
      <trkpt lat="48.25588" lon="-3.47625">
        <ele>110.20825195312</ele>
        <time>2012-04-18T11:30:12Z</time>
      </trkpt>
      <trkpt lat="48.25549" lon="-3.4774">
        <ele>109.72766113281</ele>
        <time>2012-04-18T11:30:32Z</time>
      </trkpt>
      <trkpt lat="48.25527" lon="-3.47804">
        <ele>108.76623535156</ele>
        <time>2012-04-18T11:30:43Z</time>
      </trkpt>
      <trkpt lat="48.2552" lon="-3.47827">
        <ele>109.72766113281</ele>
        <time>2012-04-18T11:30:47Z</time>
      </trkpt>
      <trkpt lat="48.25474" lon="-3.47975">
        <ele>107.80505371094</ele>
        <time>2012-04-18T11:31:11Z</time>
      </trkpt>
      <trkpt lat="48.25478" lon="-3.48007">
        <ele>107.32434082031</ele>
        <time>2012-04-18T11:31:16Z</time>
      </trkpt>
      <trkpt lat="48.25497" lon="-3.48094">
        <ele>106.36303710938</ele>
        <time>2012-04-18T11:31:31Z</time>
      </trkpt>
      <trkpt lat="48.25513" lon="-3.48168">
        <ele>103.47900390625</ele>
        <time>2012-04-18T11:31:44Z</time>
      </trkpt>
      <trkpt lat="48.25539" lon="-3.48282">
        <ele>100.11450195312</ele>
        <time>2012-04-18T11:32:03Z</time>
      </trkpt>
      <trkpt lat="48.25556" lon="-3.48361">
        <ele>99.153076171875</ele>
        <time>2012-04-18T11:32:16Z</time>
      </trkpt>
      <trkpt lat="48.25554" lon="-3.48416">
        <ele>101.07568359375</ele>
        <time>2012-04-18T11:32:24Z</time>
      </trkpt>
      <trkpt lat="48.25549" lon="-3.48437">
        <ele>100.11450195312</ele>
        <time>2012-04-18T11:32:27Z</time>
      </trkpt>
      <trkpt lat="48.25499" lon="-3.4851">
        <ele>105.40173339844</ele>
        <time>2012-04-18T11:32:43Z</time>
      </trkpt>
      <trkpt lat="48.25484" lon="-3.4853">
        <ele>108.28564453125</ele>
        <time>2012-04-18T11:32:48Z</time>
      </trkpt>
      <trkpt lat="48.25455" lon="-3.4857">
        <ele>112.13098144531</ele>
        <time>2012-04-18T11:33:00Z</time>
      </trkpt>
      <trkpt lat="48.25416" lon="-3.48622">
        <ele>112.61157226562</ele>
        <time>2012-04-18T11:33:14Z</time>
      </trkpt>
      <trkpt lat="48.25394" lon="-3.48653">
        <ele>110.20825195312</ele>
        <time>2012-04-18T11:33:24Z</time>
      </trkpt>
      <trkpt lat="48.25376" lon="-3.48677">
        <ele>107.32434082031</ele>
        <time>2012-04-18T11:33:32Z</time>
      </trkpt>
      <trkpt lat="48.25373" lon="-3.48682">
        <ele>107.32434082031</ele>
        <time>2012-04-18T11:33:34Z</time>
      </trkpt>
      <trkpt lat="48.25363" lon="-3.48696">
        <ele>108.28564453125</ele>
        <time>2012-04-18T11:33:40Z</time>
      </trkpt>
      <trkpt lat="48.25359" lon="-3.48709">
        <ele>108.76623535156</ele>
        <time>2012-04-18T11:33:44Z</time>
      </trkpt>
      <trkpt lat="48.25358" lon="-3.48713">
        <ele>108.76623535156</ele>
        <time>2012-04-18T11:33:51Z</time>
      </trkpt>
      <trkpt lat="48.25374" lon="-3.48746">
        <ele>107.32434082031</ele>
        <time>2012-04-18T11:34:05Z</time>
      </trkpt>
      <trkpt lat="48.25327" lon="-3.48853">
        <ele>103.47900390625</ele>
        <time>2012-04-18T11:34:17Z</time>
      </trkpt>
      <trkpt lat="48.25335" lon="-3.48939">
        <ele>102.99829101562</ele>
        <time>2012-04-18T11:34:33Z</time>
      </trkpt>
      <trkpt lat="48.25348" lon="-3.49022">
        <ele>99.6337890625</ele>
        <time>2012-04-18T11:34:47Z</time>
      </trkpt>
      <trkpt lat="48.25355" lon="-3.49108">
        <ele>98.672485351562</ele>
        <time>2012-04-18T11:35:01Z</time>
      </trkpt>
      <trkpt lat="48.25365" lon="-3.49201">
        <ele>98.672485351562</ele>
        <time>2012-04-18T11:35:16Z</time>
      </trkpt>
      <trkpt lat="48.25374" lon="-3.49272">
        <ele>97.711181640625</ele>
        <time>2012-04-18T11:35:28Z</time>
      </trkpt>
      <trkpt lat="48.2538" lon="-3.49357">
        <ele>97.23046875</ele>
        <time>2012-04-18T11:35:43Z</time>
      </trkpt>
      <trkpt lat="48.25371" lon="-3.49435">
        <ele>99.6337890625</ele>
        <time>2012-04-18T11:35:57Z</time>
      </trkpt>
      <trkpt lat="48.25368" lon="-3.49479">
        <ele>102.51770019531</ele>
        <time>2012-04-18T11:36:06Z</time>
      </trkpt>
      <trkpt lat="48.25359" lon="-3.49547">
        <ele>99.6337890625</ele>
        <time>2012-04-18T11:36:17Z</time>
      </trkpt>
      <trkpt lat="48.25353" lon="-3.49644">
        <ele>98.672485351562</ele>
        <time>2012-04-18T11:36:33Z</time>
      </trkpt>
      <trkpt lat="48.25343" lon="-3.49715">
        <ele>97.711181640625</ele>
        <time>2012-04-18T11:36:43Z</time>
      </trkpt>
      <trkpt lat="48.25346" lon="-3.49785">
        <ele>97.23046875</ele>
        <time>2012-04-18T11:36:53Z</time>
      </trkpt>
      <trkpt lat="48.25353" lon="-3.49805">
        <ele>97.711181640625</ele>
        <time>2012-04-18T11:36:57Z</time>
      </trkpt>
      <trkpt lat="48.25393" lon="-3.49855">
        <ele>96.269287109375</ele>
        <time>2012-04-18T11:37:11Z</time>
      </trkpt>
      <trkpt lat="48.25473" lon="-3.49914">
        <ele>99.153076171875</ele>
        <time>2012-04-18T11:37:33Z</time>
      </trkpt>
      <trkpt lat="48.25513" lon="-3.49946">
        <ele>101.55639648438</ele>
        <time>2012-04-18T11:37:45Z</time>
      </trkpt>
      <trkpt lat="48.25566" lon="-3.49984">
        <ele>102.037109375</ele>
        <time>2012-04-18T11:37:59Z</time>
      </trkpt>
      <trkpt lat="48.25616" lon="-3.50029">
        <ele>102.037109375</ele>
        <time>2012-04-18T11:38:13Z</time>
      </trkpt>
      <trkpt lat="48.25652" lon="-3.50121">
        <ele>101.55639648438</ele>
        <time>2012-04-18T11:38:31Z</time>
      </trkpt>
      <trkpt lat="48.25668" lon="-3.50167">
        <ele>102.037109375</ele>
        <time>2012-04-18T11:38:40Z</time>
      </trkpt>
      <trkpt lat="48.25674" lon="-3.50183">
        <ele>101.07568359375</ele>
        <time>2012-04-18T11:38:49Z</time>
      </trkpt>
      <trkpt lat="48.2569" lon="-3.50234">
        <ele>100.59509277344</ele>
        <time>2012-04-18T11:39:01Z</time>
      </trkpt>
      <trkpt lat="48.25712" lon="-3.50316">
        <ele>98.19189453125</ele>
        <time>2012-04-18T11:39:15Z</time>
      </trkpt>
      <trkpt lat="48.25721" lon="-3.50338">
        <ele>97.711181640625</ele>
        <time>2012-04-18T11:39:23Z</time>
      </trkpt>
      <trkpt lat="48.25721" lon="-3.5035">
        <ele>97.711181640625</ele>
        <time>2012-04-18T11:39:28Z</time>
      </trkpt>
      <trkpt lat="48.25724" lon="-3.50426">
        <ele>96.749877929688</ele>
        <time>2012-04-18T11:39:44Z</time>
      </trkpt>
      <trkpt lat="48.25688" lon="-3.50519">
        <ele>96.749877929688</ele>
        <time>2012-04-18T11:40:04Z</time>
      </trkpt>
      <trkpt lat="48.25632" lon="-3.50618">
        <ele>96.749877929688</ele>
        <time>2012-04-18T11:40:26Z</time>
      </trkpt>
      <trkpt lat="48.25581" lon="-3.50712">
        <ele>96.269287109375</ele>
        <time>2012-04-18T11:40:47Z</time>
      </trkpt>
      <trkpt lat="48.25569" lon="-3.50795">
        <ele>96.749877929688</ele>
        <time>2012-04-18T11:41:03Z</time>
      </trkpt>
      <trkpt lat="48.25592" lon="-3.50886">
        <ele>96.269287109375</ele>
        <time>2012-04-18T11:41:20Z</time>
      </trkpt>
      <trkpt lat="48.25607" lon="-3.50955">
        <ele>96.269287109375</ele>
        <time>2012-04-18T11:41:33Z</time>
      </trkpt>
      <trkpt lat="48.2563" lon="-3.51043">
        <ele>91.462524414062</ele>
        <time>2012-04-18T11:41:46Z</time>
      </trkpt>
      <trkpt lat="48.25649" lon="-3.51114">
        <ele>91.462524414062</ele>
        <time>2012-04-18T11:41:58Z</time>
      </trkpt>
      <trkpt lat="48.25665" lon="-3.51182">
        <ele>91.943237304688</ele>
        <time>2012-04-18T11:42:11Z</time>
      </trkpt>
      <trkpt lat="48.25682" lon="-3.51252">
        <ele>92.423950195312</ele>
        <time>2012-04-18T11:42:24Z</time>
      </trkpt>
      <trkpt lat="48.25703" lon="-3.51331">
        <ele>93.865844726562</ele>
        <time>2012-04-18T11:42:39Z</time>
      </trkpt>
      <trkpt lat="48.25718" lon="-3.51404">
        <ele>92.904541015625</ele>
        <time>2012-04-18T11:42:53Z</time>
      </trkpt>
      <trkpt lat="48.25718" lon="-3.5141">
        <ele>92.423950195312</ele>
        <time>2012-04-18T11:42:54Z</time>
      </trkpt>
      <trkpt lat="48.25702" lon="-3.51493">
        <ele>92.904541015625</ele>
        <time>2012-04-18T11:43:09Z</time>
      </trkpt>
      <trkpt lat="48.25677" lon="-3.51603">
        <ele>90.501342773438</ele>
        <time>2012-04-18T11:43:28Z</time>
      </trkpt>
      <trkpt lat="48.25666" lon="-3.51643">
        <ele>89.059326171875</ele>
        <time>2012-04-18T11:43:33Z</time>
      </trkpt>
      <trkpt lat="48.25646" lon="-3.51719">
        <ele>90.020629882812</ele>
        <time>2012-04-18T11:43:45Z</time>
      </trkpt>
      <trkpt lat="48.25623" lon="-3.51805">
        <ele>94.8271484375</ele>
        <time>2012-04-18T11:44:00Z</time>
      </trkpt>
      <trkpt lat="48.25605" lon="-3.51876">
        <ele>94.8271484375</ele>
        <time>2012-04-18T11:44:13Z</time>
      </trkpt>
      <trkpt lat="48.25589" lon="-3.51942">
        <ele>92.904541015625</ele>
        <time>2012-04-18T11:44:25Z</time>
      </trkpt>
      <trkpt lat="48.25573" lon="-3.52007">
        <ele>91.943237304688</ele>
        <time>2012-04-18T11:44:38Z</time>
      </trkpt>
      <trkpt lat="48.25546" lon="-3.52111">
        <ele>90.501342773438</ele>
        <time>2012-04-18T11:44:58Z</time>
      </trkpt>
      <trkpt lat="48.25532" lon="-3.52179">
        <ele>90.98193359375</ele>
        <time>2012-04-18T11:45:13Z</time>
      </trkpt>
      <trkpt lat="48.25534" lon="-3.52188">
        <ele>91.462524414062</ele>
        <time>2012-04-18T11:45:17Z</time>
      </trkpt>
      <trkpt lat="48.25532" lon="-3.52195">
        <ele>92.423950195312</ele>
        <time>2012-04-18T11:45:20Z</time>
      </trkpt>
      <trkpt lat="48.25537" lon="-3.52204">
        <ele>91.462524414062</ele>
        <time>2012-04-18T11:45:24Z</time>
      </trkpt>
      <trkpt lat="48.25538" lon="-3.52213">
        <ele>91.462524414062</ele>
        <time>2012-04-18T11:45:27Z</time>
      </trkpt>
      <trkpt lat="48.2554" lon="-3.52221">
        <ele>91.943237304688</ele>
        <time>2012-04-18T11:45:42Z</time>
      </trkpt>
      <trkpt lat="48.2554" lon="-3.5222">
        <ele>91.943237304688</ele>
        <time>2012-04-18T11:46:31Z</time>
      </trkpt>
      <trkpt lat="48.2554" lon="-3.52223">
        <ele>92.423950195312</ele>
        <time>2012-04-18T11:51:56Z</time>
      </trkpt>
      <trkpt lat="48.2554" lon="-3.5223">
        <ele>92.423950195312</ele>
        <time>2012-04-18T11:52:16Z</time>
      </trkpt>
      <trkpt lat="48.2554" lon="-3.5223">
        <ele>92.423950195312</ele>
        <time>2012-04-18T11:53:03Z</time>
      </trkpt>
      <trkpt lat="48.25544" lon="-3.52239">
        <ele>92.904541015625</ele>
        <time>2012-04-18T11:53:07Z</time>
      </trkpt>
      <trkpt lat="48.25551" lon="-3.52252">
        <ele>91.943237304688</ele>
        <time>2012-04-18T11:53:10Z</time>
      </trkpt>
      <trkpt lat="48.25604" lon="-3.52306">
        <ele>91.462524414062</ele>
        <time>2012-04-18T11:53:25Z</time>
      </trkpt>
      <trkpt lat="48.2567" lon="-3.52367">
        <ele>91.462524414062</ele>
        <time>2012-04-18T11:53:44Z</time>
      </trkpt>
      <trkpt lat="48.25717" lon="-3.52439">
        <ele>91.462524414062</ele>
        <time>2012-04-18T11:54:03Z</time>
      </trkpt>
      <trkpt lat="48.25701" lon="-3.52484">
        <ele>91.943237304688</ele>
        <time>2012-04-18T11:54:14Z</time>
      </trkpt>
      <trkpt lat="48.25654" lon="-3.52513">
        <ele>92.423950195312</ele>
        <time>2012-04-18T11:54:30Z</time>
      </trkpt>
      <trkpt lat="48.25596" lon="-3.52549">
        <ele>89.059326171875</ele>
        <time>2012-04-18T11:54:44Z</time>
      </trkpt>
      <trkpt lat="48.25522" lon="-3.52595">
        <ele>91.462524414062</ele>
        <time>2012-04-18T11:55:01Z</time>
      </trkpt>
      <trkpt lat="48.25431" lon="-3.52652">
        <ele>94.346557617188</ele>
        <time>2012-04-18T11:55:21Z</time>
      </trkpt>
      <trkpt lat="48.25404" lon="-3.52669">
        <ele>95.788452148438</ele>
        <time>2012-04-18T11:55:27Z</time>
      </trkpt>
      <trkpt lat="48.2533" lon="-3.52715">
        <ele>94.8271484375</ele>
        <time>2012-04-18T11:55:45Z</time>
      </trkpt>
      <trkpt lat="48.25278" lon="-3.52755">
        <ele>91.462524414062</ele>
        <time>2012-04-18T11:56:00Z</time>
      </trkpt>
      <trkpt lat="48.25249" lon="-3.52836">
        <ele>90.501342773438</ele>
        <time>2012-04-18T11:56:16Z</time>
      </trkpt>
      <trkpt lat="48.25267" lon="-3.52921">
        <ele>90.501342773438</ele>
        <time>2012-04-18T11:56:31Z</time>
      </trkpt>
      <trkpt lat="48.25279" lon="-3.52938">
        <ele>89.539916992188</ele>
        <time>2012-04-18T11:56:35Z</time>
      </trkpt>
      <trkpt lat="48.25344" lon="-3.52983">
        <ele>90.501342773438</ele>
        <time>2012-04-18T11:56:53Z</time>
      </trkpt>
      <trkpt lat="48.25406" lon="-3.53018">
        <ele>87.136596679688</ele>
        <time>2012-04-18T11:57:07Z</time>
      </trkpt>
      <trkpt lat="48.25468" lon="-3.53052">
        <ele>84.252685546875</ele>
        <time>2012-04-18T11:57:19Z</time>
      </trkpt>
      <trkpt lat="48.25553" lon="-3.531">
        <ele>84.7333984375</ele>
        <time>2012-04-18T11:57:39Z</time>
      </trkpt>
      <trkpt lat="48.25588" lon="-3.53137">
        <ele>84.7333984375</ele>
        <time>2012-04-18T11:57:51Z</time>
      </trkpt>
      <trkpt lat="48.2561" lon="-3.53189">
        <ele>83.291381835938</ele>
        <time>2012-04-18T11:58:02Z</time>
      </trkpt>
      <trkpt lat="48.25617" lon="-3.53283">
        <ele>83.291381835938</ele>
        <time>2012-04-18T11:58:19Z</time>
      </trkpt>
      <trkpt lat="48.2561" lon="-3.53368">
        <ele>82.330078125</ele>
        <time>2012-04-18T11:58:35Z</time>
      </trkpt>
      <trkpt lat="48.25602" lon="-3.53455">
        <ele>80.407470703125</ele>
        <time>2012-04-18T11:58:47Z</time>
      </trkpt>
      <trkpt lat="48.25596" lon="-3.53535">
        <ele>75.120239257812</ele>
        <time>2012-04-18T11:59:00Z</time>
      </trkpt>
      <trkpt lat="48.25582" lon="-3.53638">
        <ele>79.926635742188</ele>
        <time>2012-04-18T11:59:17Z</time>
      </trkpt>
      <trkpt lat="48.25556" lon="-3.53694">
        <ele>84.7333984375</ele>
        <time>2012-04-18T11:59:32Z</time>
      </trkpt>
      <trkpt lat="48.25551" lon="-3.53706">
        <ele>85.213989257812</ele>
        <time>2012-04-18T11:59:37Z</time>
      </trkpt>
      <trkpt lat="48.25509" lon="-3.5377">
        <ele>82.330078125</ele>
        <time>2012-04-18T11:59:49Z</time>
      </trkpt>
      <trkpt lat="48.25443" lon="-3.53857">
        <ele>82.810791015625</ele>
        <time>2012-04-18T12:00:08Z</time>
      </trkpt>
      <trkpt lat="48.25364" lon="-3.53961">
        <ele>80.88818359375</ele>
        <time>2012-04-18T12:00:30Z</time>
      </trkpt>
      <trkpt lat="48.25333" lon="-3.54035">
        <ele>80.88818359375</ele>
        <time>2012-04-18T12:00:43Z</time>
      </trkpt>
      <trkpt lat="48.2534" lon="-3.5412">
        <ele>81.849365234375</ele>
        <time>2012-04-18T12:00:57Z</time>
      </trkpt>
      <trkpt lat="48.25343" lon="-3.54219">
        <ele>81.849365234375</ele>
        <time>2012-04-18T12:01:14Z</time>
      </trkpt>
      <trkpt lat="48.2535" lon="-3.54412">
        <ele>81.849365234375</ele>
        <time>2012-04-18T12:01:46Z</time>
      </trkpt>
      <trkpt lat="48.25357" lon="-3.54602">
        <ele>84.252685546875</ele>
        <time>2012-04-18T12:02:15Z</time>
      </trkpt>
      <trkpt lat="48.25364" lon="-3.54777">
        <ele>84.252685546875</ele>
        <time>2012-04-18T12:02:42Z</time>
      </trkpt>
      <trkpt lat="48.25371" lon="-3.54919">
        <ele>80.88818359375</ele>
        <time>2012-04-18T12:03:01Z</time>
      </trkpt>
      <trkpt lat="48.2539" lon="-3.55037">
        <ele>80.88818359375</ele>
        <time>2012-04-18T12:03:20Z</time>
      </trkpt>
      <trkpt lat="48.25417" lon="-3.55161">
        <ele>81.368774414062</ele>
        <time>2012-04-18T12:03:44Z</time>
      </trkpt>
      <trkpt lat="48.25453" lon="-3.55326">
        <ele>81.368774414062</ele>
        <time>2012-04-18T12:04:14Z</time>
      </trkpt>
      <trkpt lat="48.25469" lon="-3.55448">
        <ele>81.368774414062</ele>
        <time>2012-04-18T12:04:36Z</time>
      </trkpt>
      <trkpt lat="48.2544" lon="-3.55546">
        <ele>80.407470703125</ele>
        <time>2012-04-18T12:04:53Z</time>
      </trkpt>
      <trkpt lat="48.25381" lon="-3.55687">
        <ele>78.004028320312</ele>
        <time>2012-04-18T12:05:20Z</time>
      </trkpt>
      <trkpt lat="48.25363" lon="-3.55725">
        <ele>78.004028320312</ele>
        <time>2012-04-18T12:05:33Z</time>
      </trkpt>
      <trkpt lat="48.25332" lon="-3.55801">
        <ele>75.600830078125</ele>
        <time>2012-04-18T12:05:48Z</time>
      </trkpt>
      <trkpt lat="48.25292" lon="-3.55895">
        <ele>75.600830078125</ele>
        <time>2012-04-18T12:06:05Z</time>
      </trkpt>
      <trkpt lat="48.25272" lon="-3.55944">
        <ele>78.004028320312</ele>
        <time>2012-04-18T12:06:19Z</time>
      </trkpt>
      <trkpt lat="48.25268" lon="-3.55953">
        <ele>78.004028320312</ele>
        <time>2012-04-18T12:06:32Z</time>
      </trkpt>
      <trkpt lat="48.25253" lon="-3.55983">
        <ele>76.081420898438</ele>
        <time>2012-04-18T12:07:34Z</time>
      </trkpt>
      <trkpt lat="48.25215" lon="-3.56071">
        <ele>76.562133789062</ele>
        <time>2012-04-18T12:07:51Z</time>
      </trkpt>
      <trkpt lat="48.25184" lon="-3.56143">
        <ele>77.042846679688</ele>
        <time>2012-04-18T12:08:04Z</time>
      </trkpt>
      <trkpt lat="48.25145" lon="-3.56234">
        <ele>77.042846679688</ele>
        <time>2012-04-18T12:08:20Z</time>
      </trkpt>
      <trkpt lat="48.25114" lon="-3.56304">
        <ele>78.965454101562</ele>
        <time>2012-04-18T12:08:32Z</time>
      </trkpt>
      <trkpt lat="48.25109" lon="-3.56332">
        <ele>79.926635742188</ele>
        <time>2012-04-18T12:08:36Z</time>
      </trkpt>
      <trkpt lat="48.25109" lon="-3.56443">
        <ele>78.965454101562</ele>
        <time>2012-04-18T12:08:53Z</time>
      </trkpt>
      <trkpt lat="48.25113" lon="-3.56599">
        <ele>78.004028320312</ele>
        <time>2012-04-18T12:09:19Z</time>
      </trkpt>
      <trkpt lat="48.25117" lon="-3.56744">
        <ele>75.120239257812</ele>
        <time>2012-04-18T12:09:40Z</time>
      </trkpt>
      <trkpt lat="48.25114" lon="-3.56796">
        <ele>75.120239257812</ele>
        <time>2012-04-18T12:09:47Z</time>
      </trkpt>
      <trkpt lat="48.25103" lon="-3.56833">
        <ele>73.67822265625</ele>
        <time>2012-04-18T12:09:53Z</time>
      </trkpt>
      <trkpt lat="48.25093" lon="-3.56854">
        <ele>73.67822265625</ele>
        <time>2012-04-18T12:09:57Z</time>
      </trkpt>
      <trkpt lat="48.25031" lon="-3.56925">
        <ele>74.158813476562</ele>
        <time>2012-04-18T12:10:16Z</time>
      </trkpt>
      <trkpt lat="48.25018" lon="-3.56939">
        <ele>73.197631835938</ele>
        <time>2012-04-18T12:10:20Z</time>
      </trkpt>
      <trkpt lat="48.24956" lon="-3.57001">
        <ele>76.562133789062</ele>
        <time>2012-04-18T12:10:39Z</time>
      </trkpt>
      <trkpt lat="48.24924" lon="-3.57091">
        <ele>75.120239257812</ele>
        <time>2012-04-18T12:10:53Z</time>
      </trkpt>
      <trkpt lat="48.24915" lon="-3.57099">
        <ele>75.120239257812</ele>
        <time>2012-04-18T12:10:56Z</time>
      </trkpt>
      <trkpt lat="48.24905" lon="-3.57183">
        <ele>75.600830078125</ele>
        <time>2012-04-18T12:11:13Z</time>
      </trkpt>
      <trkpt lat="48.24904" lon="-3.57199">
        <ele>76.081420898438</ele>
        <time>2012-04-18T12:11:16Z</time>
      </trkpt>
      <trkpt lat="48.24901" lon="-3.57256">
        <ele>77.5234375</ele>
        <time>2012-04-18T12:11:28Z</time>
      </trkpt>
      <trkpt lat="48.24901" lon="-3.5726">
        <ele>77.5234375</ele>
        <time>2012-04-18T12:11:29Z</time>
      </trkpt>
      <trkpt lat="48.24899" lon="-3.57315">
        <ele>79.926635742188</ele>
        <time>2012-04-18T12:11:40Z</time>
      </trkpt>
      <trkpt lat="48.24896" lon="-3.57388">
        <ele>77.5234375</ele>
        <time>2012-04-18T12:11:53Z</time>
      </trkpt>
      <trkpt lat="48.24874" lon="-3.5749">
        <ele>74.158813476562</ele>
        <time>2012-04-18T12:12:08Z</time>
      </trkpt>
      <trkpt lat="48.24867" lon="-3.57551">
        <ele>72.716918945312</ele>
        <time>2012-04-18T12:12:16Z</time>
      </trkpt>
      <trkpt lat="48.2486" lon="-3.57669">
        <ele>73.197631835938</ele>
        <time>2012-04-18T12:12:38Z</time>
      </trkpt>
      <trkpt lat="48.24854" lon="-3.57765">
        <ele>75.120239257812</ele>
        <time>2012-04-18T12:12:57Z</time>
      </trkpt>
      <trkpt lat="48.24851" lon="-3.57853">
        <ele>75.120239257812</ele>
        <time>2012-04-18T12:13:15Z</time>
      </trkpt>
      <trkpt lat="48.24849" lon="-3.57972">
        <ele>75.600830078125</ele>
        <time>2012-04-18T12:13:37Z</time>
      </trkpt>
      <trkpt lat="48.24848" lon="-3.58026">
        <ele>77.5234375</ele>
        <time>2012-04-18T12:13:55Z</time>
      </trkpt>
      <trkpt lat="48.24848" lon="-3.58034">
        <ele>79.446044921875</ele>
        <time>2012-04-18T12:14:07Z</time>
      </trkpt>
      <trkpt lat="48.24848" lon="-3.58034">
        <ele>78.484741210938</ele>
        <time>2012-04-18T12:14:17Z</time>
      </trkpt>
      <trkpt lat="48.24848" lon="-3.5806">
        <ele>77.042846679688</ele>
        <time>2012-04-18T12:14:22Z</time>
      </trkpt>
      <trkpt lat="48.24808" lon="-3.58164">
        <ele>73.67822265625</ele>
        <time>2012-04-18T12:14:35Z</time>
      </trkpt>
      <trkpt lat="48.24791" lon="-3.58213">
        <ele>72.716918945312</ele>
        <time>2012-04-18T12:14:44Z</time>
      </trkpt>
      <trkpt lat="48.2478" lon="-3.58231">
        <ele>72.716918945312</ele>
        <time>2012-04-18T12:14:48Z</time>
      </trkpt>
      <trkpt lat="48.24725" lon="-3.58347">
        <ele>74.158813476562</ele>
        <time>2012-04-18T12:15:06Z</time>
      </trkpt>
      <trkpt lat="48.24721" lon="-3.5835">
        <ele>73.67822265625</ele>
        <time>2012-04-18T12:15:07Z</time>
      </trkpt>
      <trkpt lat="48.24689" lon="-3.58369">
        <ele>72.716918945312</ele>
        <time>2012-04-18T12:15:14Z</time>
      </trkpt>
      <trkpt lat="48.24648" lon="-3.58424">
        <ele>76.562133789062</ele>
        <time>2012-04-18T12:15:28Z</time>
      </trkpt>
      <trkpt lat="48.24607" lon="-3.58483">
        <ele>75.120239257812</ele>
        <time>2012-04-18T12:15:42Z</time>
      </trkpt>
      <trkpt lat="48.24495" lon="-3.585">
        <ele>71.755493164062</ele>
        <time>2012-04-18T12:16:03Z</time>
      </trkpt>
      <trkpt lat="48.24484" lon="-3.58535">
        <ele>72.236206054688</ele>
        <time>2012-04-18T12:16:09Z</time>
      </trkpt>
      <trkpt lat="48.24484" lon="-3.58605">
        <ele>72.236206054688</ele>
        <time>2012-04-18T12:16:21Z</time>
      </trkpt>
      <trkpt lat="48.245" lon="-3.58665">
        <ele>72.716918945312</ele>
        <time>2012-04-18T12:16:35Z</time>
      </trkpt>
      <trkpt lat="48.24519" lon="-3.58688">
        <ele>73.67822265625</ele>
        <time>2012-04-18T12:16:46Z</time>
      </trkpt>
      <trkpt lat="48.24523" lon="-3.58685">
        <ele>73.67822265625</ele>
        <time>2012-04-18T12:16:59Z</time>
      </trkpt>
      <trkpt lat="48.24523" lon="-3.58685">
        <ele>73.67822265625</ele>
        <time>2012-04-18T12:17:10Z</time>
      </trkpt>
      <trkpt lat="48.24533" lon="-3.5865">
        <ele>74.639526367188</ele>
        <time>2012-04-18T12:17:27Z</time>
      </trkpt>
      <trkpt lat="48.24544" lon="-3.58621">
        <ele>74.639526367188</ele>
        <time>2012-04-18T12:17:40Z</time>
      </trkpt>
      <trkpt lat="48.24553" lon="-3.58597">
        <ele>77.5234375</ele>
        <time>2012-04-18T12:17:52Z</time>
      </trkpt>
      <trkpt lat="48.24557" lon="-3.58571">
        <ele>78.965454101562</ele>
        <time>2012-04-18T12:18:06Z</time>
      </trkpt>
      <trkpt lat="48.24558" lon="-3.58567">
        <ele>78.004028320312</ele>
        <time>2012-04-18T12:18:24Z</time>
      </trkpt>
      <trkpt lat="48.24559" lon="-3.58565">
        <ele>78.004028320312</ele>
        <time>2012-04-18T12:18:58Z</time>
      </trkpt>
      <trkpt lat="48.24564" lon="-3.58557">
        <ele>79.926635742188</ele>
        <time>2012-04-18T12:21:42Z</time>
      </trkpt>
      <trkpt lat="48.24566" lon="-3.58555">
        <ele>79.926635742188</ele>
        <time>2012-04-18T12:21:45Z</time>
      </trkpt>
      <trkpt lat="48.2457" lon="-3.58548">
        <ele>81.368774414062</ele>
        <time>2012-04-18T12:22:01Z</time>
      </trkpt>
      <trkpt lat="48.24582" lon="-3.58521">
        <ele>82.330078125</ele>
        <time>2012-04-18T12:24:29Z</time>
      </trkpt>
      <trkpt lat="48.2462" lon="-3.58445">
        <ele>83.77197265625</ele>
        <time>2012-04-18T12:24:51Z</time>
      </trkpt>
      <trkpt lat="48.2467" lon="-3.5839">
        <ele>83.77197265625</ele>
        <time>2012-04-18T12:25:12Z</time>
      </trkpt>
      <trkpt lat="48.24726" lon="-3.58347">
        <ele>88.098022460938</ele>
        <time>2012-04-18T12:25:32Z</time>
      </trkpt>
      <trkpt lat="48.24759" lon="-3.58321">
        <ele>88.578735351562</ele>
        <time>2012-04-18T12:25:45Z</time>
      </trkpt>
      <trkpt lat="48.248" lon="-3.583">
        <ele>93.865844726562</ele>
        <time>2012-04-18T12:25:59Z</time>
      </trkpt>
      <trkpt lat="48.24863" lon="-3.58294">
        <ele>93.865844726562</ele>
        <time>2012-04-18T12:26:20Z</time>
      </trkpt>
      <trkpt lat="48.24936" lon="-3.58328">
        <ele>95.788452148438</ele>
        <time>2012-04-18T12:26:45Z</time>
      </trkpt>
      <trkpt lat="48.25006" lon="-3.58351">
        <ele>96.269287109375</ele>
        <time>2012-04-18T12:27:10Z</time>
      </trkpt>
      <trkpt lat="48.25042" lon="-3.58348">
        <ele>95.788452148438</ele>
        <time>2012-04-18T12:27:23Z</time>
      </trkpt>
      <trkpt lat="48.25067" lon="-3.58337">
        <ele>95.307739257812</ele>
        <time>2012-04-18T12:27:35Z</time>
      </trkpt>
      <trkpt lat="48.25077" lon="-3.58335">
        <ele>95.307739257812</ele>
        <time>2012-04-18T12:27:40Z</time>
      </trkpt>
      <trkpt lat="48.25078" lon="-3.58331">
        <ele>95.307739257812</ele>
        <time>2012-04-18T12:27:42Z</time>
      </trkpt>
      <trkpt lat="48.25103" lon="-3.58314">
        <ele>95.307739257812</ele>
        <time>2012-04-18T12:27:54Z</time>
      </trkpt>
      <trkpt lat="48.25146" lon="-3.58261">
        <ele>98.672485351562</ele>
        <time>2012-04-18T12:28:13Z</time>
      </trkpt>
      <trkpt lat="48.25179" lon="-3.58199">
        <ele>99.153076171875</ele>
        <time>2012-04-18T12:28:31Z</time>
      </trkpt>
      <trkpt lat="48.25217" lon="-3.58137">
        <ele>100.59509277344</ele>
        <time>2012-04-18T12:28:50Z</time>
      </trkpt>
      <trkpt lat="48.25251" lon="-3.58096">
        <ele>101.07568359375</ele>
        <time>2012-04-18T12:29:05Z</time>
      </trkpt>
      <trkpt lat="48.25309" lon="-3.58042">
        <ele>101.55639648438</ele>
        <time>2012-04-18T12:29:28Z</time>
      </trkpt>
      <trkpt lat="48.25359" lon="-3.58">
        <ele>103.47900390625</ele>
        <time>2012-04-18T12:29:47Z</time>
      </trkpt>
      <trkpt lat="48.25405" lon="-3.57961">
        <ele>104.4404296875</ele>
        <time>2012-04-18T12:30:05Z</time>
      </trkpt>
      <trkpt lat="48.25436" lon="-3.57929">
        <ele>103.47900390625</ele>
        <time>2012-04-18T12:30:21Z</time>
      </trkpt>
      <trkpt lat="48.25441" lon="-3.57929">
        <ele>103.47900390625</ele>
        <time>2012-04-18T12:30:28Z</time>
      </trkpt>
      <trkpt lat="48.25448" lon="-3.57916">
        <ele>102.037109375</ele>
        <time>2012-04-18T12:30:34Z</time>
      </trkpt>
      <trkpt lat="48.25457" lon="-3.57914">
        <ele>102.037109375</ele>
        <time>2012-04-18T12:30:38Z</time>
      </trkpt>
      <trkpt lat="48.25464" lon="-3.57908">
        <ele>102.037109375</ele>
        <time>2012-04-18T12:30:42Z</time>
      </trkpt>
      <trkpt lat="48.25467" lon="-3.57905">
        <ele>102.51770019531</ele>
        <time>2012-04-18T12:30:54Z</time>
      </trkpt>
      <trkpt lat="48.25475" lon="-3.57894">
        <ele>105.88244628906</ele>
        <time>2012-04-18T12:31:09Z</time>
      </trkpt>
      <trkpt lat="48.25497" lon="-3.57876">
        <ele>108.76623535156</ele>
        <time>2012-04-18T12:31:30Z</time>
      </trkpt>
      <trkpt lat="48.25511" lon="-3.57865">
        <ele>108.76623535156</ele>
        <time>2012-04-18T12:31:46Z</time>
      </trkpt>
      <trkpt lat="48.25539" lon="-3.57843">
        <ele>109.24694824219</ele>
        <time>2012-04-18T12:31:58Z</time>
      </trkpt>
      <trkpt lat="48.25573" lon="-3.57821">
        <ele>109.72766113281</ele>
        <time>2012-04-18T12:32:11Z</time>
      </trkpt>
      <trkpt lat="48.25606" lon="-3.57811">
        <ele>108.28564453125</ele>
        <time>2012-04-18T12:32:24Z</time>
      </trkpt>
      <trkpt lat="48.25654" lon="-3.57807">
        <ele>109.72766113281</ele>
        <time>2012-04-18T12:32:42Z</time>
      </trkpt>
      <trkpt lat="48.25687" lon="-3.57809">
        <ele>109.24694824219</ele>
        <time>2012-04-18T12:32:54Z</time>
      </trkpt>
      <trkpt lat="48.25719" lon="-3.57818">
        <ele>110.68884277344</ele>
        <time>2012-04-18T12:33:07Z</time>
      </trkpt>
      <trkpt lat="48.25745" lon="-3.57825">
        <ele>112.61157226562</ele>
        <time>2012-04-18T12:33:17Z</time>
      </trkpt>
      <trkpt lat="48.25773" lon="-3.57842">
        <ele>115.49560546875</ele>
        <time>2012-04-18T12:33:27Z</time>
      </trkpt>
      <trkpt lat="48.25795" lon="-3.57851">
        <ele>116.9375</ele>
        <time>2012-04-18T12:33:38Z</time>
      </trkpt>
      <trkpt lat="48.25832" lon="-3.57872">
        <ele>120.30212402344</ele>
        <time>2012-04-18T12:33:52Z</time>
      </trkpt>
      <trkpt lat="48.25867" lon="-3.5788">
        <ele>119.82141113281</ele>
        <time>2012-04-18T12:34:04Z</time>
      </trkpt>
      <trkpt lat="48.259" lon="-3.57878">
        <ele>120.30212402344</ele>
        <time>2012-04-18T12:34:16Z</time>
      </trkpt>
      <trkpt lat="48.25937" lon="-3.57873">
        <ele>118.86010742188</ele>
        <time>2012-04-18T12:34:29Z</time>
      </trkpt>
      <trkpt lat="48.25944" lon="-3.57879">
        <ele>118.86010742188</ele>
        <time>2012-04-18T12:34:34Z</time>
      </trkpt>
      <trkpt lat="48.25946" lon="-3.57885">
        <ele>118.86010742188</ele>
        <time>2012-04-18T12:34:37Z</time>
      </trkpt>
      <trkpt lat="48.25947" lon="-3.57896">
        <ele>119.3408203125</ele>
        <time>2012-04-18T12:34:41Z</time>
      </trkpt>
      <trkpt lat="48.25942" lon="-3.57926">
        <ele>119.82141113281</ele>
        <time>2012-04-18T12:34:52Z</time>
      </trkpt>
      <trkpt lat="48.25964" lon="-3.57935">
        <ele>120.78283691406</ele>
        <time>2012-04-18T12:35:04Z</time>
      </trkpt>
      <trkpt lat="48.25964" lon="-3.57936">
        <ele>123.18615722656</ele>
        <time>2012-04-18T12:35:16Z</time>
      </trkpt>
      <trkpt lat="48.25953" lon="-3.57946">
        <ele>120.78283691406</ele>
        <time>2012-04-18T12:35:30Z</time>
      </trkpt>
      <trkpt lat="48.25944" lon="-3.57945">
        <ele>118.37939453125</ele>
        <time>2012-04-18T12:35:42Z</time>
      </trkpt>
      <trkpt lat="48.25941" lon="-3.57947">
        <ele>118.37939453125</ele>
        <time>2012-04-18T12:35:45Z</time>
      </trkpt>
      <trkpt lat="48.25938" lon="-3.57944">
        <ele>118.37939453125</ele>
        <time>2012-04-18T12:35:49Z</time>
      </trkpt>
      <trkpt lat="48.25935" lon="-3.57947">
        <ele>121.26354980469</ele>
        <time>2012-04-18T12:36:04Z</time>
      </trkpt>
      <trkpt lat="48.25923" lon="-3.57942">
        <ele>126.06994628906</ele>
        <time>2012-04-18T12:36:16Z</time>
      </trkpt>
      <trkpt lat="48.2592" lon="-3.57941">
        <ele>127.51196289062</ele>
        <time>2012-04-18T12:36:29Z</time>
      </trkpt>
      <trkpt lat="48.25916" lon="-3.57938">
        <ele>129.91528320312</ele>
        <time>2012-04-18T12:36:44Z</time>
      </trkpt>
      <trkpt lat="48.2592" lon="-3.57937">
        <ele>129.91528320312</ele>
        <time>2012-04-18T12:37:00Z</time>
      </trkpt>
      <trkpt lat="48.25917" lon="-3.57943">
        <ele>131.837890625</ele>
        <time>2012-04-18T12:37:13Z</time>
      </trkpt>
      <trkpt lat="48.25933" lon="-3.57959">
        <ele>128.9541015625</ele>
        <time>2012-04-18T12:37:29Z</time>
      </trkpt>
      <trkpt lat="48.25933" lon="-3.57961">
        <ele>127.99255371094</ele>
        <time>2012-04-18T12:37:47Z</time>
      </trkpt>
      <trkpt lat="48.25928" lon="-3.57949">
        <ele>128.47338867188</ele>
        <time>2012-04-18T12:38:00Z</time>
      </trkpt>
      <trkpt lat="48.25927" lon="-3.57932">
        <ele>127.99255371094</ele>
        <time>2012-04-18T12:38:16Z</time>
      </trkpt>
      <trkpt lat="48.25926" lon="-3.57932">
        <ele>129.43469238281</ele>
        <time>2012-04-18T12:38:32Z</time>
      </trkpt>
      <trkpt lat="48.25923" lon="-3.57932">
        <ele>128.47338867188</ele>
        <time>2012-04-18T12:38:44Z</time>
      </trkpt>
      <trkpt lat="48.25925" lon="-3.57931">
        <ele>125.58935546875</ele>
        <time>2012-04-18T12:38:57Z</time>
      </trkpt>
      <trkpt lat="48.25927" lon="-3.57931">
        <ele>123.66674804688</ele>
        <time>2012-04-18T12:39:02Z</time>
      </trkpt>
      <trkpt lat="48.25928" lon="-3.57939">
        <ele>119.3408203125</ele>
        <time>2012-04-18T12:39:12Z</time>
      </trkpt>
      <trkpt lat="48.25918" lon="-3.57939">
        <ele>118.37939453125</ele>
        <time>2012-04-18T12:39:25Z</time>
      </trkpt>
      <trkpt lat="48.25921" lon="-3.57942">
        <ele>116.9375</ele>
        <time>2012-04-18T12:39:36Z</time>
      </trkpt>
      <trkpt lat="48.25924" lon="-3.5794">
        <ele>116.45678710938</ele>
        <time>2012-04-18T12:39:50Z</time>
      </trkpt>
      <trkpt lat="48.25923" lon="-3.57942">
        <ele>117.41821289062</ele>
        <time>2012-04-18T12:39:54Z</time>
      </trkpt>
      <trkpt lat="48.25913" lon="-3.57937">
        <ele>120.30212402344</ele>
        <time>2012-04-18T12:40:05Z</time>
      </trkpt>
      <trkpt lat="48.25907" lon="-3.57941">
        <ele>122.70544433594</ele>
        <time>2012-04-18T12:40:18Z</time>
      </trkpt>
      <trkpt lat="48.25922" lon="-3.57941">
        <ele>122.22473144531</ele>
        <time>2012-04-18T12:40:35Z</time>
      </trkpt>
      <trkpt lat="48.2593" lon="-3.57944">
        <ele>125.10876464844</ele>
        <time>2012-04-18T12:41:21Z</time>
      </trkpt>
      <trkpt lat="48.25944" lon="-3.57943">
        <ele>132.31860351562</ele>
        <time>2012-04-18T12:42:17Z</time>
      </trkpt>
      <trkpt lat="48.25984" lon="-3.57958">
        <ele>125.58935546875</ele>
        <time>2012-04-18T12:42:34Z</time>
      </trkpt>
      <trkpt lat="48.25992" lon="-3.57939">
        <ele>125.10876464844</ele>
        <time>2012-04-18T12:42:38Z</time>
      </trkpt>
      <trkpt lat="48.25997" lon="-3.57927">
        <ele>123.66674804688</ele>
        <time>2012-04-18T12:42:42Z</time>
      </trkpt>
      <trkpt lat="48.26001" lon="-3.57917">
        <ele>123.18615722656</ele>
        <time>2012-04-18T12:42:47Z</time>
      </trkpt>
      <trkpt lat="48.26001" lon="-3.57904">
        <ele>122.22473144531</ele>
        <time>2012-04-18T12:42:51Z</time>
      </trkpt>
      <trkpt lat="48.26006" lon="-3.57874">
        <ele>119.82141113281</ele>
        <time>2012-04-18T12:42:59Z</time>
      </trkpt>
      <trkpt lat="48.26039" lon="-3.57794">
        <ele>118.86010742188</ele>
        <time>2012-04-18T12:43:19Z</time>
      </trkpt>
      <trkpt lat="48.26084" lon="-3.57735">
        <ele>120.78283691406</ele>
        <time>2012-04-18T12:43:39Z</time>
      </trkpt>
      <trkpt lat="48.26125" lon="-3.57677">
        <ele>121.26354980469</ele>
        <time>2012-04-18T12:43:59Z</time>
      </trkpt>
      <trkpt lat="48.26127" lon="-3.57674">
        <ele>121.26354980469</ele>
        <time>2012-04-18T12:44:00Z</time>
      </trkpt>
      <trkpt lat="48.26148" lon="-3.57651">
        <ele>121.26354980469</ele>
        <time>2012-04-18T12:44:12Z</time>
      </trkpt>
      <trkpt lat="48.26152" lon="-3.5765">
        <ele>121.26354980469</ele>
        <time>2012-04-18T12:44:15Z</time>
      </trkpt>
      <trkpt lat="48.26158" lon="-3.57641">
        <ele>121.26354980469</ele>
        <time>2012-04-18T12:44:20Z</time>
      </trkpt>
      <trkpt lat="48.26203" lon="-3.57582">
        <ele>121.744140625</ele>
        <time>2012-04-18T12:44:38Z</time>
      </trkpt>
      <trkpt lat="48.26271" lon="-3.57498">
        <ele>119.3408203125</ele>
        <time>2012-04-18T12:45:01Z</time>
      </trkpt>
      <trkpt lat="48.26313" lon="-3.57448">
        <ele>115.97619628906</ele>
        <time>2012-04-18T12:45:15Z</time>
      </trkpt>
      <trkpt lat="48.26354" lon="-3.57395">
        <ele>118.86010742188</ele>
        <time>2012-04-18T12:45:30Z</time>
      </trkpt>
      <trkpt lat="48.26404" lon="-3.57331">
        <ele>120.78283691406</ele>
        <time>2012-04-18T12:45:47Z</time>
      </trkpt>
      <trkpt lat="48.26459" lon="-3.57258">
        <ele>121.26354980469</ele>
        <time>2012-04-18T12:46:07Z</time>
      </trkpt>
      <trkpt lat="48.26497" lon="-3.57195">
        <ele>123.18615722656</ele>
        <time>2012-04-18T12:46:23Z</time>
      </trkpt>
      <trkpt lat="48.265" lon="-3.57186">
        <ele>123.66674804688</ele>
        <time>2012-04-18T12:46:26Z</time>
      </trkpt>
      <trkpt lat="48.26515" lon="-3.57159">
        <ele>123.18615722656</ele>
        <time>2012-04-18T12:46:38Z</time>
      </trkpt>
      <trkpt lat="48.2652" lon="-3.57156">
        <ele>123.18615722656</ele>
        <time>2012-04-18T12:46:42Z</time>
      </trkpt>
      <trkpt lat="48.2654" lon="-3.57099">
        <ele>123.66674804688</ele>
        <time>2012-04-18T12:46:56Z</time>
      </trkpt>
      <trkpt lat="48.26563" lon="-3.57012">
        <ele>124.14733886719</ele>
        <time>2012-04-18T12:47:15Z</time>
      </trkpt>
      <trkpt lat="48.26581" lon="-3.56951">
        <ele>124.62805175781</ele>
        <time>2012-04-18T12:47:28Z</time>
      </trkpt>
      <trkpt lat="48.26607" lon="-3.56849">
        <ele>121.744140625</ele>
        <time>2012-04-18T12:47:48Z</time>
      </trkpt>
      <trkpt lat="48.26615" lon="-3.5677">
        <ele>122.70544433594</ele>
        <time>2012-04-18T12:48:04Z</time>
      </trkpt>
      <trkpt lat="48.26618" lon="-3.56758">
        <ele>123.18615722656</ele>
        <time>2012-04-18T12:48:08Z</time>
      </trkpt>
      <trkpt lat="48.26621" lon="-3.5674">
        <ele>122.70544433594</ele>
        <time>2012-04-18T12:48:18Z</time>
      </trkpt>
      <trkpt lat="48.26622" lon="-3.56734">
        <ele>122.22473144531</ele>
        <time>2012-04-18T12:48:22Z</time>
      </trkpt>
      <trkpt lat="48.26624" lon="-3.56724">
        <ele>122.22473144531</ele>
        <time>2012-04-18T12:48:26Z</time>
      </trkpt>
      <trkpt lat="48.2664" lon="-3.56657">
        <ele>121.26354980469</ele>
        <time>2012-04-18T12:48:39Z</time>
      </trkpt>
      <trkpt lat="48.2668" lon="-3.56542">
        <ele>118.86010742188</ele>
        <time>2012-04-18T12:48:57Z</time>
      </trkpt>
      <trkpt lat="48.26711" lon="-3.56486">
        <ele>117.89880371094</ele>
        <time>2012-04-18T12:49:11Z</time>
      </trkpt>
      <trkpt lat="48.26738" lon="-3.56457">
        <ele>117.41821289062</ele>
        <time>2012-04-18T12:49:20Z</time>
      </trkpt>
      <trkpt lat="48.26782" lon="-3.56413">
        <ele>116.45678710938</ele>
        <time>2012-04-18T12:49:33Z</time>
      </trkpt>
      <trkpt lat="48.2684" lon="-3.56376">
        <ele>116.45678710938</ele>
        <time>2012-04-18T12:49:49Z</time>
      </trkpt>
      <trkpt lat="48.26881" lon="-3.5635">
        <ele>115.97619628906</ele>
        <time>2012-04-18T12:50:00Z</time>
      </trkpt>
      <trkpt lat="48.26923" lon="-3.56323">
        <ele>115.97619628906</ele>
        <time>2012-04-18T12:50:12Z</time>
      </trkpt>
      <trkpt lat="48.26961" lon="-3.56298">
        <ele>115.49560546875</ele>
        <time>2012-04-18T12:50:21Z</time>
      </trkpt>
      <trkpt lat="48.27011" lon="-3.56267">
        <ele>115.01489257812</ele>
        <time>2012-04-18T12:50:34Z</time>
      </trkpt>
      <trkpt lat="48.27032" lon="-3.56253">
        <ele>116.9375</ele>
        <time>2012-04-18T12:50:46Z</time>
      </trkpt>
      <trkpt lat="48.27032" lon="-3.56253">
        <ele>117.89880371094</ele>
        <time>2012-04-18T12:50:53Z</time>
      </trkpt>
      <trkpt lat="48.27032" lon="-3.56253">
        <ele>117.89880371094</ele>
        <time>2012-04-18T12:50:57Z</time>
      </trkpt>
      <trkpt lat="48.27129" lon="-3.56257">
        <ele>117.89880371094</ele>
        <time>2012-04-18T12:51:12Z</time>
      </trkpt>
      <trkpt lat="48.27169" lon="-3.56236">
        <ele>117.41821289062</ele>
        <time>2012-04-18T12:51:31Z</time>
      </trkpt>
      <trkpt lat="48.27169" lon="-3.56236">
        <ele>114.5341796875</ele>
        <time>2012-04-18T12:51:45Z</time>
      </trkpt>
      <trkpt lat="48.2724" lon="-3.56172">
        <ele>117.89880371094</ele>
        <time>2012-04-18T12:51:59Z</time>
      </trkpt>
      <trkpt lat="48.2727" lon="-3.5617">
        <ele>119.82141113281</ele>
        <time>2012-04-18T12:52:12Z</time>
      </trkpt>
      <trkpt lat="48.27274" lon="-3.5617">
        <ele>120.30212402344</ele>
        <time>2012-04-18T12:52:14Z</time>
      </trkpt>
      <trkpt lat="48.27282" lon="-3.56162">
        <ele>121.744140625</ele>
        <time>2012-04-18T12:52:19Z</time>
      </trkpt>
      <trkpt lat="48.27288" lon="-3.56163">
        <ele>122.22473144531</ele>
        <time>2012-04-18T12:52:23Z</time>
      </trkpt>
      <trkpt lat="48.2732" lon="-3.56187">
        <ele>124.14733886719</ele>
        <time>2012-04-18T12:52:37Z</time>
      </trkpt>
      <trkpt lat="48.27328" lon="-3.56199">
        <ele>124.14733886719</ele>
        <time>2012-04-18T12:52:40Z</time>
      </trkpt>
      <trkpt lat="48.27355" lon="-3.56216">
        <ele>124.14733886719</ele>
        <time>2012-04-18T12:52:49Z</time>
      </trkpt>
      <trkpt lat="48.27354" lon="-3.56228">
        <ele>124.14733886719</ele>
        <time>2012-04-18T12:52:53Z</time>
      </trkpt>
      <trkpt lat="48.27352" lon="-3.56235">
        <ele>123.66674804688</ele>
        <time>2012-04-18T12:52:56Z</time>
      </trkpt>
      <trkpt lat="48.27355" lon="-3.56239">
        <ele>123.18615722656</ele>
        <time>2012-04-18T12:53:09Z</time>
      </trkpt>
      <trkpt lat="48.27355" lon="-3.56239">
        <ele>123.18615722656</ele>
        <time>2012-04-18T12:53:26Z</time>
      </trkpt>
      <trkpt lat="48.27357" lon="-3.56262">
        <ele>122.22473144531</ele>
        <time>2012-04-18T12:53:34Z</time>
      </trkpt>
      <trkpt lat="48.27333" lon="-3.56382">
        <ele>115.97619628906</ele>
        <time>2012-04-18T12:53:52Z</time>
      </trkpt>
      <trkpt lat="48.27302" lon="-3.56517">
        <ele>110.68884277344</ele>
        <time>2012-04-18T12:54:12Z</time>
      </trkpt>
      <trkpt lat="48.27274" lon="-3.56662">
        <ele>106.36303710938</ele>
        <time>2012-04-18T12:54:33Z</time>
      </trkpt>
      <trkpt lat="48.2727" lon="-3.56684">
        <ele>106.36303710938</ele>
        <time>2012-04-18T12:54:39Z</time>
      </trkpt>
      <trkpt lat="48.27266" lon="-3.56703">
        <ele>105.88244628906</ele>
        <time>2012-04-18T12:54:44Z</time>
      </trkpt>
      <trkpt lat="48.27261" lon="-3.56691">
        <ele>106.36303710938</ele>
        <time>2012-04-18T12:54:49Z</time>
      </trkpt>
      <trkpt lat="48.27258" lon="-3.56734">
        <ele>106.36303710938</ele>
        <time>2012-04-18T12:54:55Z</time>
      </trkpt>
      <trkpt lat="48.27237" lon="-3.56825">
        <ele>103.95971679688</ele>
        <time>2012-04-18T12:55:13Z</time>
      </trkpt>
      <trkpt lat="48.27202" lon="-3.56988">
        <ele>100.59509277344</ele>
        <time>2012-04-18T12:55:41Z</time>
      </trkpt>
      <trkpt lat="48.2718" lon="-3.57092">
        <ele>98.672485351562</ele>
        <time>2012-04-18T12:56:03Z</time>
      </trkpt>
      <trkpt lat="48.2716" lon="-3.57115">
        <ele>98.672485351562</ele>
        <time>2012-04-18T12:56:09Z</time>
      </trkpt>
      <trkpt lat="48.27178" lon="-3.57103">
        <ele>98.672485351562</ele>
        <time>2012-04-18T12:56:15Z</time>
      </trkpt>
      <trkpt lat="48.27172" lon="-3.57149">
        <ele>99.6337890625</ele>
        <time>2012-04-18T12:56:25Z</time>
      </trkpt>
      <trkpt lat="48.27187" lon="-3.57133">
        <ele>99.6337890625</ele>
        <time>2012-04-18T12:56:37Z</time>
      </trkpt>
      <trkpt lat="48.27187" lon="-3.57133">
        <ele>100.11450195312</ele>
        <time>2012-04-18T12:56:39Z</time>
      </trkpt>
      <trkpt lat="48.27187" lon="-3.57133">
        <ele>100.11450195312</ele>
        <time>2012-04-18T12:56:41Z</time>
      </trkpt>
      <trkpt lat="48.27169" lon="-3.5717">
        <ele>99.6337890625</ele>
        <time>2012-04-18T12:56:46Z</time>
      </trkpt>
      <trkpt lat="48.27145" lon="-3.57298">
        <ele>97.711181640625</ele>
        <time>2012-04-18T12:57:07Z</time>
      </trkpt>
      <trkpt lat="48.27117" lon="-3.57479">
        <ele>96.749877929688</ele>
        <time>2012-04-18T12:57:36Z</time>
      </trkpt>
      <trkpt lat="48.27139" lon="-3.57541">
        <ele>96.269287109375</ele>
        <time>2012-04-18T12:57:50Z</time>
      </trkpt>
      <trkpt lat="48.27144" lon="-3.57538">
        <ele>96.749877929688</ele>
        <time>2012-04-18T12:57:56Z</time>
      </trkpt>
      <trkpt lat="48.27204" lon="-3.57505">
        <ele>101.07568359375</ele>
        <time>2012-04-18T12:58:20Z</time>
      </trkpt>
      <trkpt lat="48.27242" lon="-3.57484">
        <ele>104.92102050781</ele>
        <time>2012-04-18T12:58:42Z</time>
      </trkpt>
      <trkpt lat="48.27276" lon="-3.57466">
        <ele>108.76623535156</ele>
        <time>2012-04-18T12:59:04Z</time>
      </trkpt>
      <trkpt lat="48.27303" lon="-3.57451">
        <ele>112.13098144531</ele>
        <time>2012-04-18T12:59:25Z</time>
      </trkpt>
      <trkpt lat="48.27325" lon="-3.57439">
        <ele>114.5341796875</ele>
        <time>2012-04-18T12:59:40Z</time>
      </trkpt>
      <trkpt lat="48.27327" lon="-3.57438">
        <ele>115.01489257812</ele>
        <time>2012-04-18T12:59:41Z</time>
      </trkpt>
      <trkpt lat="48.27336" lon="-3.57429">
        <ele>115.97619628906</ele>
        <time>2012-04-18T12:59:56Z</time>
      </trkpt>
      <trkpt lat="48.27336" lon="-3.57429">
        <ele>121.26354980469</ele>
        <time>2012-04-18T13:00:27Z</time>
      </trkpt>
      <trkpt lat="48.27336" lon="-3.57429">
        <ele>126.55065917969</ele>
        <time>2012-04-18T13:00:55Z</time>
      </trkpt>
      <trkpt lat="48.27417" lon="-3.57366">
        <ele>129.91528320312</ele>
        <time>2012-04-18T13:01:23Z</time>
      </trkpt>
      <trkpt lat="48.27417" lon="-3.57366">
        <ele>135.68310546875</ele>
        <time>2012-04-18T13:01:57Z</time>
      </trkpt>
      <trkpt lat="48.27417" lon="-3.57366">
        <ele>136.16394042969</ele>
        <time>2012-04-18T13:02:17Z</time>
      </trkpt>
      <trkpt lat="48.27417" lon="-3.57366">
        <ele>136.16394042969</ele>
        <time>2012-04-18T13:03:01Z</time>
      </trkpt>
      <trkpt lat="48.27417" lon="-3.57366">
        <ele>136.16394042969</ele>
        <time>2012-04-18T13:03:47Z</time>
      </trkpt>
      <trkpt lat="48.27417" lon="-3.57366">
        <ele>136.16394042969</ele>
        <time>2012-04-18T13:03:53Z</time>
      </trkpt>
      <trkpt lat="48.27461" lon="-3.57295">
        <ele>133.76049804688</ele>
        <time>2012-04-18T13:04:08Z</time>
      </trkpt>
      <trkpt lat="48.27494" lon="-3.57238">
        <ele>132.31860351562</ele>
        <time>2012-04-18T13:04:24Z</time>
      </trkpt>
      <trkpt lat="48.27495" lon="-3.57236">
        <ele>132.31860351562</ele>
        <time>2012-04-18T13:04:25Z</time>
      </trkpt>
      <trkpt lat="48.27512" lon="-3.57239">
        <ele>132.31860351562</ele>
        <time>2012-04-18T13:04:31Z</time>
      </trkpt>
      <trkpt lat="48.27517" lon="-3.5724">
        <ele>133.76049804688</ele>
        <time>2012-04-18T13:04:37Z</time>
      </trkpt>
      <trkpt lat="48.27529" lon="-3.57191">
        <ele>135.20251464844</ele>
        <time>2012-04-18T13:04:52Z</time>
      </trkpt>
      <trkpt lat="48.27537" lon="-3.57134">
        <ele>137.60583496094</ele>
        <time>2012-04-18T13:05:12Z</time>
      </trkpt>
      <trkpt lat="48.27542" lon="-3.57079">
        <ele>138.56726074219</ele>
        <time>2012-04-18T13:05:26Z</time>
      </trkpt>
      <trkpt lat="48.27566" lon="-3.57077">
        <ele>140.00915527344</ele>
        <time>2012-04-18T13:05:34Z</time>
      </trkpt>
      <trkpt lat="48.2759" lon="-3.57088">
        <ele>147.69970703125</ele>
        <time>2012-04-18T13:05:46Z</time>
      </trkpt>
      <trkpt lat="48.2762" lon="-3.57103">
        <ele>147.21899414062</ele>
        <time>2012-04-18T13:06:06Z</time>
      </trkpt>
      <trkpt lat="48.27644" lon="-3.57113">
        <ele>145.29638671875</ele>
        <time>2012-04-18T13:06:20Z</time>
      </trkpt>
      <trkpt lat="48.27644" lon="-3.57113">
        <ele>145.29638671875</ele>
        <time>2012-04-18T13:06:38Z</time>
      </trkpt>
      <trkpt lat="48.27665" lon="-3.57094">
        <ele>143.37365722656</ele>
        <time>2012-04-18T13:06:49Z</time>
      </trkpt>
      <trkpt lat="48.27684" lon="-3.57094">
        <ele>140.97045898438</ele>
        <time>2012-04-18T13:06:56Z</time>
      </trkpt>
      <trkpt lat="48.2769" lon="-3.57081">
        <ele>140.00915527344</ele>
        <time>2012-04-18T13:07:00Z</time>
      </trkpt>
      <trkpt lat="48.27696" lon="-3.57067">
        <ele>139.0478515625</ele>
        <time>2012-04-18T13:07:03Z</time>
      </trkpt>
      <trkpt lat="48.27734" lon="-3.57006">
        <ele>136.16394042969</ele>
        <time>2012-04-18T13:07:19Z</time>
      </trkpt>
      <trkpt lat="48.27764" lon="-3.56955">
        <ele>134.72192382812</ele>
        <time>2012-04-18T13:07:35Z</time>
      </trkpt>
      <trkpt lat="48.27764" lon="-3.56955">
        <ele>134.72192382812</ele>
        <time>2012-04-18T13:07:37Z</time>
      </trkpt>
      <trkpt lat="48.27766" lon="-3.56953">
        <ele>135.20251464844</ele>
        <time>2012-04-18T13:07:39Z</time>
      </trkpt>
      <trkpt lat="48.27769" lon="-3.56996">
        <ele>136.64465332031</ele>
        <time>2012-04-18T13:07:48Z</time>
      </trkpt>
      <trkpt lat="48.2777" lon="-3.5701">
        <ele>137.12524414062</ele>
        <time>2012-04-18T13:07:51Z</time>
      </trkpt>
      <trkpt lat="48.27782" lon="-3.57021">
        <ele>137.12524414062</ele>
        <time>2012-04-18T13:07:56Z</time>
      </trkpt>
      <trkpt lat="48.27796" lon="-3.57056">
        <ele>136.16394042969</ele>
        <time>2012-04-18T13:08:08Z</time>
      </trkpt>
      <trkpt lat="48.27776" lon="-3.57133">
        <ele>134.2412109375</ele>
        <time>2012-04-18T13:08:23Z</time>
      </trkpt>
      <trkpt lat="48.27809" lon="-3.57164">
        <ele>137.12524414062</ele>
        <time>2012-04-18T13:08:33Z</time>
      </trkpt>
      <trkpt lat="48.27827" lon="-3.57178">
        <ele>135.68310546875</ele>
        <time>2012-04-18T13:08:39Z</time>
      </trkpt>
      <trkpt lat="48.27829" lon="-3.5718">
        <ele>135.20251464844</ele>
        <time>2012-04-18T13:08:42Z</time>
      </trkpt>
      <trkpt lat="48.27837" lon="-3.57186">
        <ele>135.68310546875</ele>
        <time>2012-04-18T13:08:56Z</time>
      </trkpt>
      <trkpt lat="48.27837" lon="-3.57186">
        <ele>135.20251464844</ele>
        <time>2012-04-18T13:09:53Z</time>
      </trkpt>
      <trkpt lat="48.27833" lon="-3.57183">
        <ele>135.20251464844</ele>
        <time>2012-04-18T13:10:03Z</time>
      </trkpt>
      <trkpt lat="48.27816" lon="-3.57169">
        <ele>133.76049804688</ele>
        <time>2012-04-18T13:10:15Z</time>
      </trkpt>
      <trkpt lat="48.2775" lon="-3.5712">
        <ele>132.31860351562</ele>
        <time>2012-04-18T13:10:34Z</time>
      </trkpt>
      <trkpt lat="48.27718" lon="-3.57118">
        <ele>132.79931640625</ele>
        <time>2012-04-18T13:10:44Z</time>
      </trkpt>
      <trkpt lat="48.27687" lon="-3.57105">
        <ele>134.2412109375</ele>
        <time>2012-04-18T13:10:58Z</time>
      </trkpt>
      <trkpt lat="48.27652" lon="-3.57108">
        <ele>138.56726074219</ele>
        <time>2012-04-18T13:11:11Z</time>
      </trkpt>
      <trkpt lat="48.27641" lon="-3.57181">
        <ele>140.97045898438</ele>
        <time>2012-04-18T13:11:29Z</time>
      </trkpt>
      <trkpt lat="48.27629" lon="-3.57279">
        <ele>141.45104980469</ele>
        <time>2012-04-18T13:11:49Z</time>
      </trkpt>
      <trkpt lat="48.27624" lon="-3.57313">
        <ele>143.37365722656</ele>
        <time>2012-04-18T13:11:59Z</time>
      </trkpt>
      <trkpt lat="48.27626" lon="-3.57399">
        <ele>143.37365722656</ele>
        <time>2012-04-18T13:12:10Z</time>
      </trkpt>
      <trkpt lat="48.2762" lon="-3.57438">
        <ele>142.41247558594</ele>
        <time>2012-04-18T13:12:20Z</time>
      </trkpt>
      <trkpt lat="48.2762" lon="-3.57438">
        <ele>142.41247558594</ele>
        <time>2012-04-18T13:12:30Z</time>
      </trkpt>
      <trkpt lat="48.2762" lon="-3.57438">
        <ele>142.41247558594</ele>
        <time>2012-04-18T13:13:17Z</time>
      </trkpt>
    </trkseg>
  </trk>
  <trk>
    <name><![CDATA[ACTIVE LOG 013]]></name>
    <trkseg>
      <trkpt lat="48.27613" lon="-3.57465">
        <ele>149.1416015625</ele>
        <time>2012-04-19T07:37:35Z</time>
      </trkpt>
      <trkpt lat="48.27617" lon="-3.57472">
        <ele>151.06420898438</ele>
        <time>2012-04-19T07:54:55Z</time>
      </trkpt>
      <trkpt lat="48.27616" lon="-3.57471">
        <ele>151.06420898438</ele>
        <time>2012-04-19T07:55:12Z</time>
      </trkpt>
      <trkpt lat="48.27623" lon="-3.57424">
        <ele>152.50634765625</ele>
        <time>2012-04-19T07:55:24Z</time>
      </trkpt>
      <trkpt lat="48.27628" lon="-3.57336">
        <ele>153.94836425781</ele>
        <time>2012-04-19T07:55:41Z</time>
      </trkpt>
      <trkpt lat="48.27635" lon="-3.57237">
        <ele>154.42895507812</ele>
        <time>2012-04-19T07:55:58Z</time>
      </trkpt>
      <trkpt lat="48.27646" lon="-3.57154">
        <ele>154.42895507812</ele>
        <time>2012-04-19T07:56:17Z</time>
      </trkpt>
      <trkpt lat="48.27659" lon="-3.57051">
        <ele>153.94836425781</ele>
        <time>2012-04-19T07:56:36Z</time>
      </trkpt>
      <trkpt lat="48.27672" lon="-3.56932">
        <ele>152.50634765625</ele>
        <time>2012-04-19T07:56:52Z</time>
      </trkpt>
      <trkpt lat="48.27698" lon="-3.56787">
        <ele>148.66101074219</ele>
        <time>2012-04-19T07:57:11Z</time>
      </trkpt>
      <trkpt lat="48.27712" lon="-3.56699">
        <ele>146.2578125</ele>
        <time>2012-04-19T07:57:24Z</time>
      </trkpt>
      <trkpt lat="48.27714" lon="-3.56661">
        <ele>145.77709960938</ele>
        <time>2012-04-19T07:57:36Z</time>
      </trkpt>
      <trkpt lat="48.27713" lon="-3.56612">
        <ele>143.85437011719</ele>
        <time>2012-04-19T07:57:48Z</time>
      </trkpt>
      <trkpt lat="48.27705" lon="-3.56488">
        <ele>140.48986816406</ele>
        <time>2012-04-19T07:58:03Z</time>
      </trkpt>
      <trkpt lat="48.27702" lon="-3.56412">
        <ele>140.00915527344</ele>
        <time>2012-04-19T07:58:13Z</time>
      </trkpt>
      <trkpt lat="48.27687" lon="-3.56405">
        <ele>138.08654785156</ele>
        <time>2012-04-19T07:58:20Z</time>
      </trkpt>
      <trkpt lat="48.27637" lon="-3.56421">
        <ele>135.20251464844</ele>
        <time>2012-04-19T07:58:34Z</time>
      </trkpt>
      <trkpt lat="48.27637" lon="-3.56421">
        <ele>134.2412109375</ele>
        <time>2012-04-19T07:58:48Z</time>
      </trkpt>
      <trkpt lat="48.27637" lon="-3.56421">
        <ele>132.79931640625</ele>
        <time>2012-04-19T07:59:05Z</time>
      </trkpt>
      <trkpt lat="48.27637" lon="-3.56421">
        <ele>132.79931640625</ele>
        <time>2012-04-19T07:59:06Z</time>
      </trkpt>
      <trkpt lat="48.27586" lon="-3.56439">
        <ele>130.87670898438</ele>
        <time>2012-04-19T07:59:19Z</time>
      </trkpt>
      <trkpt lat="48.27563" lon="-3.56444">
        <ele>130.39599609375</ele>
        <time>2012-04-19T07:59:25Z</time>
      </trkpt>
      <trkpt lat="48.27548" lon="-3.56514">
        <ele>129.43469238281</ele>
        <time>2012-04-19T07:59:36Z</time>
      </trkpt>
      <trkpt lat="48.27546" lon="-3.56516">
        <ele>129.43469238281</ele>
        <time>2012-04-19T07:59:37Z</time>
      </trkpt>
      <trkpt lat="48.27528" lon="-3.56527">
        <ele>128.47338867188</ele>
        <time>2012-04-19T07:59:41Z</time>
      </trkpt>
      <trkpt lat="48.27499" lon="-3.56539">
        <ele>127.51196289062</ele>
        <time>2012-04-19T07:59:54Z</time>
      </trkpt>
      <trkpt lat="48.27474" lon="-3.5653">
        <ele>126.55065917969</ele>
        <time>2012-04-19T08:00:07Z</time>
      </trkpt>
      <trkpt lat="48.27474" lon="-3.56575">
        <ele>125.58935546875</ele>
        <time>2012-04-19T08:00:19Z</time>
      </trkpt>
      <trkpt lat="48.27471" lon="-3.56575">
        <ele>125.10876464844</ele>
        <time>2012-04-19T08:00:24Z</time>
      </trkpt>
      <trkpt lat="48.27454" lon="-3.56572">
        <ele>123.66674804688</ele>
        <time>2012-04-19T08:00:30Z</time>
      </trkpt>
      <trkpt lat="48.27384" lon="-3.56559">
        <ele>119.3408203125</ele>
        <time>2012-04-19T08:00:45Z</time>
      </trkpt>
      <trkpt lat="48.27323" lon="-3.5654">
        <ele>119.3408203125</ele>
        <time>2012-04-19T08:00:59Z</time>
      </trkpt>
      <trkpt lat="48.27312" lon="-3.56536">
        <ele>118.86010742188</ele>
        <time>2012-04-19T08:01:05Z</time>
      </trkpt>
      <trkpt lat="48.273" lon="-3.56525">
        <ele>119.3408203125</ele>
        <time>2012-04-19T08:01:10Z</time>
      </trkpt>
      <trkpt lat="48.27311" lon="-3.56475">
        <ele>122.22473144531</ele>
        <time>2012-04-19T08:01:26Z</time>
      </trkpt>
      <trkpt lat="48.27328" lon="-3.564">
        <ele>124.62805175781</ele>
        <time>2012-04-19T08:01:45Z</time>
      </trkpt>
      <trkpt lat="48.27349" lon="-3.5631">
        <ele>127.03137207031</ele>
        <time>2012-04-19T08:02:07Z</time>
      </trkpt>
      <trkpt lat="48.27364" lon="-3.56245">
        <ele>128.9541015625</ele>
        <time>2012-04-19T08:02:25Z</time>
      </trkpt>
      <trkpt lat="48.27353" lon="-3.56236">
        <ele>128.9541015625</ele>
        <time>2012-04-19T08:02:27Z</time>
      </trkpt>
      <trkpt lat="48.27355" lon="-3.56223">
        <ele>128.47338867188</ele>
        <time>2012-04-19T08:02:32Z</time>
      </trkpt>
      <trkpt lat="48.27326" lon="-3.56195">
        <ele>127.51196289062</ele>
        <time>2012-04-19T08:02:43Z</time>
      </trkpt>
      <trkpt lat="48.27276" lon="-3.5617">
        <ele>126.06994628906</ele>
        <time>2012-04-19T08:02:58Z</time>
      </trkpt>
      <trkpt lat="48.27248" lon="-3.5617">
        <ele>124.14733886719</ele>
        <time>2012-04-19T08:03:08Z</time>
      </trkpt>
      <trkpt lat="48.27246" lon="-3.56172">
        <ele>123.18615722656</ele>
        <time>2012-04-19T08:03:10Z</time>
      </trkpt>
      <trkpt lat="48.27205" lon="-3.56175">
        <ele>120.78283691406</ele>
        <time>2012-04-19T08:03:22Z</time>
      </trkpt>
      <trkpt lat="48.27169" lon="-3.56237">
        <ele>118.86010742188</ele>
        <time>2012-04-19T08:03:35Z</time>
      </trkpt>
      <trkpt lat="48.27041" lon="-3.56266">
        <ele>119.3408203125</ele>
        <time>2012-04-19T08:03:56Z</time>
      </trkpt>
      <trkpt lat="48.27032" lon="-3.56253">
        <ele>119.3408203125</ele>
        <time>2012-04-19T08:04:00Z</time>
      </trkpt>
      <trkpt lat="48.27032" lon="-3.56253">
        <ele>118.37939453125</ele>
        <time>2012-04-19T08:04:06Z</time>
      </trkpt>
      <trkpt lat="48.27032" lon="-3.56253">
        <ele>119.3408203125</ele>
        <time>2012-04-19T08:04:10Z</time>
      </trkpt>
      <trkpt lat="48.27014" lon="-3.56265">
        <ele>119.82141113281</ele>
        <time>2012-04-19T08:04:22Z</time>
      </trkpt>
      <trkpt lat="48.26983" lon="-3.56285">
        <ele>118.86010742188</ele>
        <time>2012-04-19T08:04:32Z</time>
      </trkpt>
      <trkpt lat="48.26952" lon="-3.56304">
        <ele>120.30212402344</ele>
        <time>2012-04-19T08:04:42Z</time>
      </trkpt>
      <trkpt lat="48.26905" lon="-3.56334">
        <ele>119.82141113281</ele>
        <time>2012-04-19T08:04:55Z</time>
      </trkpt>
      <trkpt lat="48.26858" lon="-3.56364">
        <ele>122.70544433594</ele>
        <time>2012-04-19T08:05:08Z</time>
      </trkpt>
      <trkpt lat="48.26808" lon="-3.56396">
        <ele>125.10876464844</ele>
        <time>2012-04-19T08:05:21Z</time>
      </trkpt>
      <trkpt lat="48.26769" lon="-3.56426">
        <ele>125.58935546875</ele>
        <time>2012-04-19T08:05:31Z</time>
      </trkpt>
      <trkpt lat="48.26739" lon="-3.56456">
        <ele>125.10876464844</ele>
        <time>2012-04-19T08:05:40Z</time>
      </trkpt>
      <trkpt lat="48.26702" lon="-3.56502">
        <ele>124.62805175781</ele>
        <time>2012-04-19T08:05:52Z</time>
      </trkpt>
      <trkpt lat="48.26675" lon="-3.56552">
        <ele>126.06994628906</ele>
        <time>2012-04-19T08:06:03Z</time>
      </trkpt>
      <trkpt lat="48.26639" lon="-3.5666">
        <ele>126.55065917969</ele>
        <time>2012-04-19T08:06:24Z</time>
      </trkpt>
      <trkpt lat="48.26627" lon="-3.56709">
        <ele>127.03137207031</ele>
        <time>2012-04-19T08:06:34Z</time>
      </trkpt>
      <trkpt lat="48.26625" lon="-3.5672">
        <ele>127.51196289062</ele>
        <time>2012-04-19T08:06:37Z</time>
      </trkpt>
      <trkpt lat="48.26623" lon="-3.56731">
        <ele>127.51196289062</ele>
        <time>2012-04-19T08:06:43Z</time>
      </trkpt>
      <trkpt lat="48.26622" lon="-3.56738">
        <ele>127.99255371094</ele>
        <time>2012-04-19T08:06:46Z</time>
      </trkpt>
      <trkpt lat="48.26619" lon="-3.56754">
        <ele>127.99255371094</ele>
        <time>2012-04-19T08:06:51Z</time>
      </trkpt>
      <trkpt lat="48.26617" lon="-3.56759">
        <ele>127.51196289062</ele>
        <time>2012-04-19T08:06:53Z</time>
      </trkpt>
      <trkpt lat="48.26615" lon="-3.56771">
        <ele>127.99255371094</ele>
        <time>2012-04-19T08:06:57Z</time>
      </trkpt>
      <trkpt lat="48.26601" lon="-3.56834">
        <ele>128.9541015625</ele>
        <time>2012-04-19T08:07:11Z</time>
      </trkpt>
      <trkpt lat="48.2659" lon="-3.56883">
        <ele>125.58935546875</ele>
        <time>2012-04-19T08:07:23Z</time>
      </trkpt>
      <trkpt lat="48.26565" lon="-3.56957">
        <ele>126.55065917969</ele>
        <time>2012-04-19T08:07:37Z</time>
      </trkpt>
      <trkpt lat="48.26545" lon="-3.57016">
        <ele>126.06994628906</ele>
        <time>2012-04-19T08:07:48Z</time>
      </trkpt>
      <trkpt lat="48.26522" lon="-3.57086">
        <ele>126.55065917969</ele>
        <time>2012-04-19T08:07:59Z</time>
      </trkpt>
      <trkpt lat="48.26505" lon="-3.57137">
        <ele>127.51196289062</ele>
        <time>2012-04-19T08:08:09Z</time>
      </trkpt>
      <trkpt lat="48.26517" lon="-3.57157">
        <ele>127.51196289062</ele>
        <time>2012-04-19T08:08:14Z</time>
      </trkpt>
      <trkpt lat="48.26502" lon="-3.5718">
        <ele>127.03137207031</ele>
        <time>2012-04-19T08:08:23Z</time>
      </trkpt>
      <trkpt lat="48.26476" lon="-3.57227">
        <ele>125.10876464844</ele>
        <time>2012-04-19T08:08:36Z</time>
      </trkpt>
      <trkpt lat="48.26442" lon="-3.57272">
        <ele>124.62805175781</ele>
        <time>2012-04-19T08:08:47Z</time>
      </trkpt>
      <trkpt lat="48.26433" lon="-3.57285">
        <ele>123.66674804688</ele>
        <time>2012-04-19T08:08:50Z</time>
      </trkpt>
      <trkpt lat="48.2638" lon="-3.57352">
        <ele>123.18615722656</ele>
        <time>2012-04-19T08:09:05Z</time>
      </trkpt>
      <trkpt lat="48.26335" lon="-3.57408">
        <ele>122.70544433594</ele>
        <time>2012-04-19T08:09:18Z</time>
      </trkpt>
      <trkpt lat="48.26318" lon="-3.5743">
        <ele>122.70544433594</ele>
        <time>2012-04-19T08:09:23Z</time>
      </trkpt>
      <trkpt lat="48.26293" lon="-3.57461">
        <ele>125.10876464844</ele>
        <time>2012-04-19T08:09:30Z</time>
      </trkpt>
      <trkpt lat="48.26264" lon="-3.57497">
        <ele>126.55065917969</ele>
        <time>2012-04-19T08:09:38Z</time>
      </trkpt>
      <trkpt lat="48.2618" lon="-3.57604">
        <ele>127.03137207031</ele>
        <time>2012-04-19T08:10:03Z</time>
      </trkpt>
      <trkpt lat="48.26144" lon="-3.57649">
        <ele>127.51196289062</ele>
        <time>2012-04-19T08:10:17Z</time>
      </trkpt>
      <trkpt lat="48.26136" lon="-3.5766">
        <ele>126.55065917969</ele>
        <time>2012-04-19T08:10:21Z</time>
      </trkpt>
      <trkpt lat="48.26135" lon="-3.57661">
        <ele>126.55065917969</ele>
        <time>2012-04-19T08:10:24Z</time>
      </trkpt>
      <trkpt lat="48.2611" lon="-3.57694">
        <ele>125.10876464844</ele>
        <time>2012-04-19T08:10:34Z</time>
      </trkpt>
      <trkpt lat="48.26062" lon="-3.57755">
        <ele>125.58935546875</ele>
        <time>2012-04-19T08:10:50Z</time>
      </trkpt>
      <trkpt lat="48.26062" lon="-3.57755">
        <ele>125.58935546875</ele>
        <time>2012-04-19T08:10:57Z</time>
      </trkpt>
      <trkpt lat="48.26015" lon="-3.57794">
        <ele>126.06994628906</ele>
        <time>2012-04-19T08:11:00Z</time>
      </trkpt>
      <trkpt lat="48.26" lon="-3.57846">
        <ele>126.06994628906</ele>
        <time>2012-04-19T08:11:10Z</time>
      </trkpt>
      <trkpt lat="48.25986" lon="-3.57911">
        <ele>124.14733886719</ele>
        <time>2012-04-19T08:11:28Z</time>
      </trkpt>
      <trkpt lat="48.25984" lon="-3.57921">
        <ele>124.14733886719</ele>
        <time>2012-04-19T08:11:33Z</time>
      </trkpt>
      <trkpt lat="48.25977" lon="-3.5794">
        <ele>125.58935546875</ele>
        <time>2012-04-19T08:11:43Z</time>
      </trkpt>
      <trkpt lat="48.25955" lon="-3.57941">
        <ele>126.06994628906</ele>
        <time>2012-04-19T08:11:48Z</time>
      </trkpt>
      <trkpt lat="48.25943" lon="-3.57943">
        <ele>126.06994628906</ele>
        <time>2012-04-19T08:11:51Z</time>
      </trkpt>
      <trkpt lat="48.25971" lon="-3.57928">
        <ele>125.58935546875</ele>
        <time>2012-04-19T08:11:57Z</time>
      </trkpt>
      <trkpt lat="48.25978" lon="-3.57895">
        <ele>125.10876464844</ele>
        <time>2012-04-19T08:12:08Z</time>
      </trkpt>
      <trkpt lat="48.25929" lon="-3.57875">
        <ele>124.62805175781</ele>
        <time>2012-04-19T08:12:18Z</time>
      </trkpt>
      <trkpt lat="48.25909" lon="-3.57886">
        <ele>121.744140625</ele>
        <time>2012-04-19T08:12:31Z</time>
      </trkpt>
      <trkpt lat="48.25857" lon="-3.57894">
        <ele>123.18615722656</ele>
        <time>2012-04-19T08:12:46Z</time>
      </trkpt>
      <trkpt lat="48.25817" lon="-3.57888">
        <ele>122.22473144531</ele>
        <time>2012-04-19T08:12:56Z</time>
      </trkpt>
      <trkpt lat="48.25805" lon="-3.57881">
        <ele>121.26354980469</ele>
        <time>2012-04-19T08:12:59Z</time>
      </trkpt>
      <trkpt lat="48.25787" lon="-3.57871">
        <ele>121.744140625</ele>
        <time>2012-04-19T08:13:04Z</time>
      </trkpt>
      <trkpt lat="48.25742" lon="-3.57848">
        <ele>117.89880371094</ele>
        <time>2012-04-19T08:13:16Z</time>
      </trkpt>
      <trkpt lat="48.25738" lon="-3.57846">
        <ele>117.89880371094</ele>
        <time>2012-04-19T08:13:17Z</time>
      </trkpt>
      <trkpt lat="48.25696" lon="-3.57824">
        <ele>119.3408203125</ele>
        <time>2012-04-19T08:13:26Z</time>
      </trkpt>
      <trkpt lat="48.25691" lon="-3.57822">
        <ele>118.86010742188</ele>
        <time>2012-04-19T08:13:27Z</time>
      </trkpt>
      <trkpt lat="48.25636" lon="-3.57803">
        <ele>116.45678710938</ele>
        <time>2012-04-19T08:13:38Z</time>
      </trkpt>
      <trkpt lat="48.25563" lon="-3.57817">
        <ele>116.9375</ele>
        <time>2012-04-19T08:13:54Z</time>
      </trkpt>
      <trkpt lat="48.25511" lon="-3.57853">
        <ele>115.01489257812</ele>
        <time>2012-04-19T08:14:07Z</time>
      </trkpt>
      <trkpt lat="48.25465" lon="-3.57895">
        <ele>111.65026855469</ele>
        <time>2012-04-19T08:14:23Z</time>
      </trkpt>
      <trkpt lat="48.25461" lon="-3.57899">
        <ele>110.20825195312</ele>
        <time>2012-04-19T08:14:34Z</time>
      </trkpt>
      <trkpt lat="48.25458" lon="-3.57901">
        <ele>109.24694824219</ele>
        <time>2012-04-19T08:14:36Z</time>
      </trkpt>
      <trkpt lat="48.25445" lon="-3.57913">
        <ele>108.76623535156</ele>
        <time>2012-04-19T08:14:41Z</time>
      </trkpt>
      <trkpt lat="48.25437" lon="-3.57921">
        <ele>110.20825195312</ele>
        <time>2012-04-19T08:14:49Z</time>
      </trkpt>
      <trkpt lat="48.25436" lon="-3.57923">
        <ele>111.16955566406</ele>
        <time>2012-04-19T08:15:04Z</time>
      </trkpt>
      <trkpt lat="48.25436" lon="-3.57923">
        <ele>112.61157226562</ele>
        <time>2012-04-19T08:15:24Z</time>
      </trkpt>
      <trkpt lat="48.25436" lon="-3.57923">
        <ele>112.61157226562</ele>
        <time>2012-04-19T08:15:47Z</time>
      </trkpt>
      <trkpt lat="48.25391" lon="-3.57964">
        <ele>111.65026855469</ele>
        <time>2012-04-19T08:16:16Z</time>
      </trkpt>
      <trkpt lat="48.25331" lon="-3.58019">
        <ele>109.24694824219</ele>
        <time>2012-04-19T08:16:33Z</time>
      </trkpt>
      <trkpt lat="48.25257" lon="-3.58093">
        <ele>108.28564453125</ele>
        <time>2012-04-19T08:16:54Z</time>
      </trkpt>
      <trkpt lat="48.25254" lon="-3.58097">
        <ele>107.80505371094</ele>
        <time>2012-04-19T08:16:55Z</time>
      </trkpt>
      <trkpt lat="48.2521" lon="-3.58153">
        <ele>105.40173339844</ele>
        <time>2012-04-19T08:17:09Z</time>
      </trkpt>
      <trkpt lat="48.25158" lon="-3.58224">
        <ele>103.95971679688</ele>
        <time>2012-04-19T08:17:26Z</time>
      </trkpt>
      <trkpt lat="48.25133" lon="-3.58265">
        <ele>102.99829101562</ele>
        <time>2012-04-19T08:17:39Z</time>
      </trkpt>
      <trkpt lat="48.25076" lon="-3.58335">
        <ele>102.037109375</ele>
        <time>2012-04-19T08:17:57Z</time>
      </trkpt>
      <trkpt lat="48.25053" lon="-3.5835">
        <ele>102.037109375</ele>
        <time>2012-04-19T08:18:08Z</time>
      </trkpt>
      <trkpt lat="48.25047" lon="-3.58355">
        <ele>101.55639648438</ele>
        <time>2012-04-19T08:18:11Z</time>
      </trkpt>
      <trkpt lat="48.24996" lon="-3.58359">
        <ele>98.672485351562</ele>
        <time>2012-04-19T08:18:24Z</time>
      </trkpt>
      <trkpt lat="48.24913" lon="-3.58332">
        <ele>96.749877929688</ele>
        <time>2012-04-19T08:18:41Z</time>
      </trkpt>
      <trkpt lat="48.24855" lon="-3.58304">
        <ele>95.307739257812</ele>
        <time>2012-04-19T08:18:53Z</time>
      </trkpt>
      <trkpt lat="48.24794" lon="-3.58306">
        <ele>93.865844726562</ele>
        <time>2012-04-19T08:19:05Z</time>
      </trkpt>
      <trkpt lat="48.24737" lon="-3.58341">
        <ele>92.423950195312</ele>
        <time>2012-04-19T08:19:18Z</time>
      </trkpt>
      <trkpt lat="48.24715" lon="-3.58354">
        <ele>93.385131835938</ele>
        <time>2012-04-19T08:19:23Z</time>
      </trkpt>
      <trkpt lat="48.24656" lon="-3.58413">
        <ele>94.8271484375</ele>
        <time>2012-04-19T08:19:38Z</time>
      </trkpt>
      <trkpt lat="48.24643" lon="-3.5843">
        <ele>96.749877929688</ele>
        <time>2012-04-19T08:19:42Z</time>
      </trkpt>
      <trkpt lat="48.24606" lon="-3.58485">
        <ele>93.865844726562</ele>
        <time>2012-04-19T08:19:54Z</time>
      </trkpt>
      <trkpt lat="48.24559" lon="-3.58565">
        <ele>89.539916992188</ele>
        <time>2012-04-19T08:20:11Z</time>
      </trkpt>
      <trkpt lat="48.24555" lon="-3.58571">
        <ele>88.578735351562</ele>
        <time>2012-04-19T08:20:14Z</time>
      </trkpt>
      <trkpt lat="48.24528" lon="-3.58615">
        <ele>83.77197265625</ele>
        <time>2012-04-19T08:20:29Z</time>
      </trkpt>
      <trkpt lat="48.24527" lon="-3.58686">
        <ele>80.407470703125</ele>
        <time>2012-04-19T08:20:42Z</time>
      </trkpt>
      <trkpt lat="48.24543" lon="-3.58712">
        <ele>79.926635742188</ele>
        <time>2012-04-19T08:20:56Z</time>
      </trkpt>
      <trkpt lat="48.24573" lon="-3.58761">
        <ele>77.042846679688</ele>
        <time>2012-04-19T08:21:11Z</time>
      </trkpt>
      <trkpt lat="48.24628" lon="-3.58836">
        <ele>76.081420898438</ele>
        <time>2012-04-19T08:21:27Z</time>
      </trkpt>
      <trkpt lat="48.24654" lon="-3.58878">
        <ele>74.639526367188</ele>
        <time>2012-04-19T08:21:35Z</time>
      </trkpt>
      <trkpt lat="48.24671" lon="-3.58949">
        <ele>73.197631835938</ele>
        <time>2012-04-19T08:21:46Z</time>
      </trkpt>
      <trkpt lat="48.24669" lon="-3.59043">
        <ele>74.158813476562</ele>
        <time>2012-04-19T08:22:00Z</time>
      </trkpt>
      <trkpt lat="48.24656" lon="-3.59081">
        <ele>75.600830078125</ele>
        <time>2012-04-19T08:22:06Z</time>
      </trkpt>
      <trkpt lat="48.24611" lon="-3.5915">
        <ele>77.5234375</ele>
        <time>2012-04-19T08:22:19Z</time>
      </trkpt>
      <trkpt lat="48.24532" lon="-3.5915">
        <ele>79.446044921875</ele>
        <time>2012-04-19T08:22:35Z</time>
      </trkpt>
      <trkpt lat="48.24439" lon="-3.5915">
        <ele>80.88818359375</ele>
        <time>2012-04-19T08:22:56Z</time>
      </trkpt>
      <trkpt lat="48.24404" lon="-3.59159">
        <ele>81.368774414062</ele>
        <time>2012-04-19T08:23:06Z</time>
      </trkpt>
      <trkpt lat="48.24384" lon="-3.5918">
        <ele>80.88818359375</ele>
        <time>2012-04-19T08:23:16Z</time>
      </trkpt>
      <trkpt lat="48.24369" lon="-3.59235">
        <ele>77.042846679688</ele>
        <time>2012-04-19T08:23:28Z</time>
      </trkpt>
      <trkpt lat="48.24367" lon="-3.59261">
        <ele>76.081420898438</ele>
        <time>2012-04-19T08:23:33Z</time>
      </trkpt>
      <trkpt lat="48.24361" lon="-3.59327">
        <ele>75.120239257812</ele>
        <time>2012-04-19T08:23:45Z</time>
      </trkpt>
      <trkpt lat="48.24355" lon="-3.59404">
        <ele>75.600830078125</ele>
        <time>2012-04-19T08:23:58Z</time>
      </trkpt>
      <trkpt lat="48.24347" lon="-3.59506">
        <ele>75.120239257812</ele>
        <time>2012-04-19T08:24:19Z</time>
      </trkpt>
      <trkpt lat="48.24344" lon="-3.59551">
        <ele>73.197631835938</ele>
        <time>2012-04-19T08:24:26Z</time>
      </trkpt>
      <trkpt lat="48.24339" lon="-3.59607">
        <ele>73.197631835938</ele>
        <time>2012-04-19T08:24:34Z</time>
      </trkpt>
      <trkpt lat="48.24336" lon="-3.59647">
        <ele>72.716918945312</ele>
        <time>2012-04-19T08:24:40Z</time>
      </trkpt>
      <trkpt lat="48.24323" lon="-3.59726">
        <ele>75.120239257812</ele>
        <time>2012-04-19T08:24:53Z</time>
      </trkpt>
      <trkpt lat="48.2428" lon="-3.59838">
        <ele>76.562133789062</ele>
        <time>2012-04-19T08:25:13Z</time>
      </trkpt>
      <trkpt lat="48.24216" lon="-3.5996">
        <ele>78.004028320312</ele>
        <time>2012-04-19T08:25:38Z</time>
      </trkpt>
      <trkpt lat="48.24185" lon="-3.60017">
        <ele>80.88818359375</ele>
        <time>2012-04-19T08:25:54Z</time>
      </trkpt>
      <trkpt lat="48.24174" lon="-3.6006">
        <ele>78.965454101562</ele>
        <time>2012-04-19T08:26:11Z</time>
      </trkpt>
      <trkpt lat="48.24174" lon="-3.6006">
        <ele>78.004028320312</ele>
        <time>2012-04-19T08:26:14Z</time>
      </trkpt>
      <trkpt lat="48.24177" lon="-3.60092">
        <ele>77.042846679688</ele>
        <time>2012-04-19T08:26:16Z</time>
      </trkpt>
      <trkpt lat="48.24183" lon="-3.60118">
        <ele>76.081420898438</ele>
        <time>2012-04-19T08:26:20Z</time>
      </trkpt>
      <trkpt lat="48.24215" lon="-3.60201">
        <ele>76.562133789062</ele>
        <time>2012-04-19T08:26:35Z</time>
      </trkpt>
      <trkpt lat="48.24216" lon="-3.60203">
        <ele>76.562133789062</ele>
        <time>2012-04-19T08:26:37Z</time>
      </trkpt>
      <trkpt lat="48.24214" lon="-3.60208">
        <ele>76.081420898438</ele>
        <time>2012-04-19T08:26:41Z</time>
      </trkpt>
      <trkpt lat="48.24201" lon="-3.60221">
        <ele>76.562133789062</ele>
        <time>2012-04-19T08:26:47Z</time>
      </trkpt>
      <trkpt lat="48.24217" lon="-3.60206">
        <ele>76.081420898438</ele>
        <time>2012-04-19T08:26:51Z</time>
      </trkpt>
      <trkpt lat="48.24217" lon="-3.60206">
        <ele>74.639526367188</ele>
        <time>2012-04-19T08:26:54Z</time>
      </trkpt>
      <trkpt lat="48.24224" lon="-3.60384">
        <ele>75.120239257812</ele>
        <time>2012-04-19T08:27:09Z</time>
      </trkpt>
      <trkpt lat="48.24229" lon="-3.6039">
        <ele>75.600830078125</ele>
        <time>2012-04-19T08:27:11Z</time>
      </trkpt>
      <trkpt lat="48.24299" lon="-3.6049">
        <ele>76.562133789062</ele>
        <time>2012-04-19T08:27:35Z</time>
      </trkpt>
      <trkpt lat="48.2433" lon="-3.60579">
        <ele>76.081420898438</ele>
        <time>2012-04-19T08:27:57Z</time>
      </trkpt>
      <trkpt lat="48.24335" lon="-3.60621">
        <ele>74.639526367188</ele>
        <time>2012-04-19T08:28:07Z</time>
      </trkpt>
      <trkpt lat="48.24426" lon="-3.60701">
        <ele>73.197631835938</ele>
        <time>2012-04-19T08:28:26Z</time>
      </trkpt>
      <trkpt lat="48.24465" lon="-3.60786">
        <ele>73.197631835938</ele>
        <time>2012-04-19T08:28:44Z</time>
      </trkpt>
      <trkpt lat="48.24501" lon="-3.60871">
        <ele>77.042846679688</ele>
        <time>2012-04-19T08:29:02Z</time>
      </trkpt>
      <trkpt lat="48.24525" lon="-3.60924">
        <ele>76.562133789062</ele>
        <time>2012-04-19T08:29:13Z</time>
      </trkpt>
      <trkpt lat="48.24594" lon="-3.60944">
        <ele>78.484741210938</ele>
        <time>2012-04-19T08:29:30Z</time>
      </trkpt>
      <trkpt lat="48.24593" lon="-3.61068">
        <ele>76.562133789062</ele>
        <time>2012-04-19T08:29:43Z</time>
      </trkpt>
      <trkpt lat="48.24625" lon="-3.61136">
        <ele>77.042846679688</ele>
        <time>2012-04-19T08:29:58Z</time>
      </trkpt>
      <trkpt lat="48.24654" lon="-3.61196">
        <ele>75.600830078125</ele>
        <time>2012-04-19T08:30:11Z</time>
      </trkpt>
      <trkpt lat="48.24681" lon="-3.61255">
        <ele>74.639526367188</ele>
        <time>2012-04-19T08:30:24Z</time>
      </trkpt>
      <trkpt lat="48.24693" lon="-3.61326">
        <ele>74.639526367188</ele>
        <time>2012-04-19T08:30:36Z</time>
      </trkpt>
      <trkpt lat="48.24709" lon="-3.61389">
        <ele>73.67822265625</ele>
        <time>2012-04-19T08:30:47Z</time>
      </trkpt>
      <trkpt lat="48.24722" lon="-3.61473">
        <ele>73.67822265625</ele>
        <time>2012-04-19T08:31:03Z</time>
      </trkpt>
      <trkpt lat="48.2472" lon="-3.61495">
        <ele>73.67822265625</ele>
        <time>2012-04-19T08:31:07Z</time>
      </trkpt>
      <trkpt lat="48.24705" lon="-3.61557">
        <ele>73.67822265625</ele>
        <time>2012-04-19T08:31:21Z</time>
      </trkpt>
      <trkpt lat="48.24671" lon="-3.61662">
        <ele>71.755493164062</ele>
        <time>2012-04-19T08:31:42Z</time>
      </trkpt>
      <trkpt lat="48.2464" lon="-3.61726">
        <ele>72.236206054688</ele>
        <time>2012-04-19T08:31:57Z</time>
      </trkpt>
      <trkpt lat="48.24643" lon="-3.61743">
        <ele>71.755493164062</ele>
        <time>2012-04-19T08:32:02Z</time>
      </trkpt>
      <trkpt lat="48.24649" lon="-3.61749">
        <ele>71.27490234375</ele>
        <time>2012-04-19T08:32:05Z</time>
      </trkpt>
      <trkpt lat="48.24657" lon="-3.61777">
        <ele>69.832885742188</ele>
        <time>2012-04-19T08:32:09Z</time>
      </trkpt>
      <trkpt lat="48.24595" lon="-3.61894">
        <ele>67.910278320312</ele>
        <time>2012-04-19T08:32:28Z</time>
      </trkpt>
      <trkpt lat="48.24506" lon="-3.6196">
        <ele>67.910278320312</ele>
        <time>2012-04-19T08:32:48Z</time>
      </trkpt>
      <trkpt lat="48.24424" lon="-3.61972">
        <ele>67.910278320312</ele>
        <time>2012-04-19T08:33:07Z</time>
      </trkpt>
      <trkpt lat="48.24392" lon="-3.61973">
        <ele>68.390869140625</ele>
        <time>2012-04-19T08:33:15Z</time>
      </trkpt>
      <trkpt lat="48.24306" lon="-3.61963">
        <ele>70.794189453125</ele>
        <time>2012-04-19T08:33:35Z</time>
      </trkpt>
      <trkpt lat="48.2423" lon="-3.6196">
        <ele>71.755493164062</ele>
        <time>2012-04-19T08:33:54Z</time>
      </trkpt>
      <trkpt lat="48.24169" lon="-3.6193">
        <ele>70.794189453125</ele>
        <time>2012-04-19T08:34:10Z</time>
      </trkpt>
      <trkpt lat="48.2409" lon="-3.61928">
        <ele>72.716918945312</ele>
        <time>2012-04-19T08:34:31Z</time>
      </trkpt>
      <trkpt lat="48.24017" lon="-3.61934">
        <ele>74.158813476562</ele>
        <time>2012-04-19T08:34:52Z</time>
      </trkpt>
      <trkpt lat="48.23948" lon="-3.61918">
        <ele>72.716918945312</ele>
        <time>2012-04-19T08:35:12Z</time>
      </trkpt>
      <trkpt lat="48.23893" lon="-3.619">
        <ele>72.236206054688</ele>
        <time>2012-04-19T08:35:27Z</time>
      </trkpt>
      <trkpt lat="48.23817" lon="-3.61906">
        <ele>70.3134765625</ele>
        <time>2012-04-19T08:35:48Z</time>
      </trkpt>
      <trkpt lat="48.23749" lon="-3.61939">
        <ele>68.390869140625</ele>
        <time>2012-04-19T08:36:07Z</time>
      </trkpt>
      <trkpt lat="48.2371" lon="-3.62016">
        <ele>67.4296875</ele>
        <time>2012-04-19T08:36:24Z</time>
      </trkpt>
      <trkpt lat="48.23663" lon="-3.62117">
        <ele>66.46826171875</ele>
        <time>2012-04-19T08:36:46Z</time>
      </trkpt>
      <trkpt lat="48.23637" lon="-3.62221">
        <ele>67.4296875</ele>
        <time>2012-04-19T08:37:06Z</time>
      </trkpt>
      <trkpt lat="48.2361" lon="-3.62328">
        <ele>66.46826171875</ele>
        <time>2012-04-19T08:37:27Z</time>
      </trkpt>
      <trkpt lat="48.23577" lon="-3.62419">
        <ele>65.987670898438</ele>
        <time>2012-04-19T08:37:45Z</time>
      </trkpt>
      <trkpt lat="48.23552" lon="-3.62505">
        <ele>66.948974609375</ele>
        <time>2012-04-19T08:38:01Z</time>
      </trkpt>
      <trkpt lat="48.23515" lon="-3.62635">
        <ele>70.794189453125</ele>
        <time>2012-04-19T08:38:23Z</time>
      </trkpt>
      <trkpt lat="48.23489" lon="-3.62725">
        <ele>74.158813476562</ele>
        <time>2012-04-19T08:38:41Z</time>
      </trkpt>
      <trkpt lat="48.23475" lon="-3.62774">
        <ele>75.600830078125</ele>
        <time>2012-04-19T08:38:51Z</time>
      </trkpt>
      <trkpt lat="48.23448" lon="-3.62869">
        <ele>70.794189453125</ele>
        <time>2012-04-19T08:39:07Z</time>
      </trkpt>
      <trkpt lat="48.2343" lon="-3.62933">
        <ele>68.390869140625</ele>
        <time>2012-04-19T08:39:19Z</time>
      </trkpt>
      <trkpt lat="48.23426" lon="-3.62946">
        <ele>68.390869140625</ele>
        <time>2012-04-19T08:39:21Z</time>
      </trkpt>
      <trkpt lat="48.23399" lon="-3.6304">
        <ele>65.507080078125</ele>
        <time>2012-04-19T08:39:37Z</time>
      </trkpt>
      <trkpt lat="48.23391" lon="-3.63068">
        <ele>65.507080078125</ele>
        <time>2012-04-19T08:39:42Z</time>
      </trkpt>
      <trkpt lat="48.23361" lon="-3.63174">
        <ele>64.545654296875</ele>
        <time>2012-04-19T08:40:00Z</time>
      </trkpt>
      <trkpt lat="48.23345" lon="-3.63228">
        <ele>64.065063476562</ele>
        <time>2012-04-19T08:40:09Z</time>
      </trkpt>
      <trkpt lat="48.23306" lon="-3.63331">
        <ele>64.545654296875</ele>
        <time>2012-04-19T08:40:27Z</time>
      </trkpt>
      <trkpt lat="48.2326" lon="-3.63381">
        <ele>65.0263671875</ele>
        <time>2012-04-19T08:40:41Z</time>
      </trkpt>
      <trkpt lat="48.23234" lon="-3.63395">
        <ele>65.0263671875</ele>
        <time>2012-04-19T08:40:48Z</time>
      </trkpt>
      <trkpt lat="48.23168" lon="-3.63421">
        <ele>63.103637695312</ele>
        <time>2012-04-19T08:41:06Z</time>
      </trkpt>
      <trkpt lat="48.23069" lon="-3.63446">
        <ele>65.987670898438</ele>
        <time>2012-04-19T08:41:30Z</time>
      </trkpt>
      <trkpt lat="48.22968" lon="-3.63472">
        <ele>68.390869140625</ele>
        <time>2012-04-19T08:41:55Z</time>
      </trkpt>
      <trkpt lat="48.22955" lon="-3.63475">
        <ele>69.352294921875</ele>
        <time>2012-04-19T08:41:58Z</time>
      </trkpt>
      <trkpt lat="48.22891" lon="-3.63502">
        <ele>71.27490234375</ele>
        <time>2012-04-19T08:42:15Z</time>
      </trkpt>
      <trkpt lat="48.22838" lon="-3.6353">
        <ele>70.3134765625</ele>
        <time>2012-04-19T08:42:29Z</time>
      </trkpt>
      <trkpt lat="48.22762" lon="-3.63608">
        <ele>67.910278320312</ele>
        <time>2012-04-19T08:42:51Z</time>
      </trkpt>
      <trkpt lat="48.2268" lon="-3.63693">
        <ele>65.507080078125</ele>
        <time>2012-04-19T08:43:16Z</time>
      </trkpt>
      <trkpt lat="48.22615" lon="-3.63739">
        <ele>65.987670898438</ele>
        <time>2012-04-19T08:43:35Z</time>
      </trkpt>
      <trkpt lat="48.22599" lon="-3.63769">
        <ele>65.987670898438</ele>
        <time>2012-04-19T08:43:41Z</time>
      </trkpt>
      <trkpt lat="48.22565" lon="-3.63883">
        <ele>66.46826171875</ele>
        <time>2012-04-19T08:44:02Z</time>
      </trkpt>
      <trkpt lat="48.22554" lon="-3.64005">
        <ele>63.584350585938</ele>
        <time>2012-04-19T08:44:23Z</time>
      </trkpt>
      <trkpt lat="48.22559" lon="-3.64101">
        <ele>61.181030273438</ele>
        <time>2012-04-19T08:44:40Z</time>
      </trkpt>
      <trkpt lat="48.22566" lon="-3.64183">
        <ele>61.661743164062</ele>
        <time>2012-04-19T08:44:54Z</time>
      </trkpt>
      <trkpt lat="48.2258" lon="-3.64306">
        <ele>61.661743164062</ele>
        <time>2012-04-19T08:45:16Z</time>
      </trkpt>
      <trkpt lat="48.22592" lon="-3.64411">
        <ele>61.181030273438</ele>
        <time>2012-04-19T08:45:33Z</time>
      </trkpt>
      <trkpt lat="48.22604" lon="-3.64509">
        <ele>65.507080078125</ele>
        <time>2012-04-19T08:45:51Z</time>
      </trkpt>
      <trkpt lat="48.2261" lon="-3.64558">
        <ele>67.4296875</ele>
        <time>2012-04-19T08:45:59Z</time>
      </trkpt>
      <trkpt lat="48.22618" lon="-3.64615">
        <ele>69.832885742188</ele>
        <time>2012-04-19T08:46:10Z</time>
      </trkpt>
      <trkpt lat="48.22624" lon="-3.64665">
        <ele>69.832885742188</ele>
        <time>2012-04-19T08:46:18Z</time>
      </trkpt>
      <trkpt lat="48.22632" lon="-3.64736">
        <ele>66.46826171875</ele>
        <time>2012-04-19T08:46:28Z</time>
      </trkpt>
      <trkpt lat="48.22641" lon="-3.64805">
        <ele>65.987670898438</ele>
        <time>2012-04-19T08:46:39Z</time>
      </trkpt>
      <trkpt lat="48.22651" lon="-3.64888">
        <ele>62.622924804688</ele>
        <time>2012-04-19T08:46:52Z</time>
      </trkpt>
      <trkpt lat="48.22657" lon="-3.64932">
        <ele>61.661743164062</ele>
        <time>2012-04-19T08:46:59Z</time>
      </trkpt>
      <trkpt lat="48.22659" lon="-3.64951">
        <ele>62.142333984375</ele>
        <time>2012-04-19T08:47:02Z</time>
      </trkpt>
      <trkpt lat="48.22662" lon="-3.65031">
        <ele>63.584350585938</ele>
        <time>2012-04-19T08:47:16Z</time>
      </trkpt>
      <trkpt lat="48.22659" lon="-3.65054">
        <ele>64.065063476562</ele>
        <time>2012-04-19T08:47:20Z</time>
      </trkpt>
      <trkpt lat="48.22654" lon="-3.65108">
        <ele>64.545654296875</ele>
        <time>2012-04-19T08:47:29Z</time>
      </trkpt>
      <trkpt lat="48.22653" lon="-3.65163">
        <ele>65.507080078125</ele>
        <time>2012-04-19T08:47:37Z</time>
      </trkpt>
      <trkpt lat="48.22652" lon="-3.65192">
        <ele>64.545654296875</ele>
        <time>2012-04-19T08:47:41Z</time>
      </trkpt>
      <trkpt lat="48.2265" lon="-3.65276">
        <ele>65.0263671875</ele>
        <time>2012-04-19T08:47:55Z</time>
      </trkpt>
      <trkpt lat="48.2263" lon="-3.65365">
        <ele>65.987670898438</ele>
        <time>2012-04-19T08:48:11Z</time>
      </trkpt>
      <trkpt lat="48.22587" lon="-3.65439">
        <ele>65.507080078125</ele>
        <time>2012-04-19T08:48:27Z</time>
      </trkpt>
      <trkpt lat="48.22576" lon="-3.65455">
        <ele>65.507080078125</ele>
        <time>2012-04-19T08:48:31Z</time>
      </trkpt>
      <trkpt lat="48.2251" lon="-3.65513">
        <ele>69.832885742188</ele>
        <time>2012-04-19T08:48:51Z</time>
      </trkpt>
      <trkpt lat="48.22449" lon="-3.65542">
        <ele>75.120239257812</ele>
        <time>2012-04-19T08:49:08Z</time>
      </trkpt>
      <trkpt lat="48.22385" lon="-3.65555">
        <ele>77.5234375</ele>
        <time>2012-04-19T08:49:27Z</time>
      </trkpt>
      <trkpt lat="48.22374" lon="-3.65557">
        <ele>77.5234375</ele>
        <time>2012-04-19T08:49:32Z</time>
      </trkpt>
      <trkpt lat="48.22359" lon="-3.65547">
        <ele>77.5234375</ele>
        <time>2012-04-19T08:49:36Z</time>
      </trkpt>
      <trkpt lat="48.22359" lon="-3.65547">
        <ele>78.004028320312</ele>
        <time>2012-04-19T08:49:42Z</time>
      </trkpt>
      <trkpt lat="48.22348" lon="-3.65567">
        <ele>78.004028320312</ele>
        <time>2012-04-19T08:49:56Z</time>
      </trkpt>
      <trkpt lat="48.22338" lon="-3.65564">
        <ele>75.600830078125</ele>
        <time>2012-04-19T08:50:01Z</time>
      </trkpt>
      <trkpt lat="48.22333" lon="-3.65565">
        <ele>73.67822265625</ele>
        <time>2012-04-19T08:50:06Z</time>
      </trkpt>
      <trkpt lat="48.22321" lon="-3.65567">
        <ele>71.27490234375</ele>
        <time>2012-04-19T08:50:10Z</time>
      </trkpt>
      <trkpt lat="48.22257" lon="-3.65578">
        <ele>70.3134765625</ele>
        <time>2012-04-19T08:50:30Z</time>
      </trkpt>
      <trkpt lat="48.22202" lon="-3.65587">
        <ele>67.4296875</ele>
        <time>2012-04-19T08:50:48Z</time>
      </trkpt>
      <trkpt lat="48.22148" lon="-3.65596">
        <ele>65.0263671875</ele>
        <time>2012-04-19T08:51:04Z</time>
      </trkpt>
      <trkpt lat="48.22099" lon="-3.65604">
        <ele>63.103637695312</ele>
        <time>2012-04-19T08:51:20Z</time>
      </trkpt>
      <trkpt lat="48.22049" lon="-3.6564">
        <ele>61.661743164062</ele>
        <time>2012-04-19T08:51:36Z</time>
      </trkpt>
      <trkpt lat="48.21992" lon="-3.657">
        <ele>61.181030273438</ele>
        <time>2012-04-19T08:51:56Z</time>
      </trkpt>
      <trkpt lat="48.21939" lon="-3.65744">
        <ele>60.700317382812</ele>
        <time>2012-04-19T08:52:13Z</time>
      </trkpt>
      <trkpt lat="48.21917" lon="-3.65752">
        <ele>60.700317382812</ele>
        <time>2012-04-19T08:52:19Z</time>
      </trkpt>
      <trkpt lat="48.21894" lon="-3.65761">
        <ele>60.2197265625</ele>
        <time>2012-04-19T08:52:25Z</time>
      </trkpt>
      <trkpt lat="48.21835" lon="-3.65821">
        <ele>60.700317382812</ele>
        <time>2012-04-19T08:52:44Z</time>
      </trkpt>
      <trkpt lat="48.21801" lon="-3.65904">
        <ele>60.2197265625</ele>
        <time>2012-04-19T08:53:02Z</time>
      </trkpt>
      <trkpt lat="48.21782" lon="-3.6597">
        <ele>62.622924804688</ele>
        <time>2012-04-19T08:53:15Z</time>
      </trkpt>
      <trkpt lat="48.21776" lon="-3.6599">
        <ele>63.584350585938</ele>
        <time>2012-04-19T08:53:19Z</time>
      </trkpt>
      <trkpt lat="48.21788" lon="-3.66088">
        <ele>63.584350585938</ele>
        <time>2012-04-19T08:53:34Z</time>
      </trkpt>
      <trkpt lat="48.21794" lon="-3.66105">
        <ele>63.103637695312</ele>
        <time>2012-04-19T08:53:37Z</time>
      </trkpt>
      <trkpt lat="48.21824" lon="-3.6616">
        <ele>63.103637695312</ele>
        <time>2012-04-19T08:53:50Z</time>
      </trkpt>
      <trkpt lat="48.21862" lon="-3.66212">
        <ele>62.142333984375</ele>
        <time>2012-04-19T08:54:04Z</time>
      </trkpt>
      <trkpt lat="48.2189" lon="-3.66252">
        <ele>60.700317382812</ele>
        <time>2012-04-19T08:54:15Z</time>
      </trkpt>
      <trkpt lat="48.21956" lon="-3.66357">
        <ele>57.335815429688</ele>
        <time>2012-04-19T08:54:38Z</time>
      </trkpt>
      <trkpt lat="48.21966" lon="-3.6638">
        <ele>56.855102539062</ele>
        <time>2012-04-19T08:54:42Z</time>
      </trkpt>
      <trkpt lat="48.22" lon="-3.6646">
        <ele>56.855102539062</ele>
        <time>2012-04-19T08:54:58Z</time>
      </trkpt>
      <trkpt lat="48.22016" lon="-3.66498">
        <ele>56.855102539062</ele>
        <time>2012-04-19T08:55:05Z</time>
      </trkpt>
      <trkpt lat="48.22033" lon="-3.66538">
        <ele>57.335815429688</ele>
        <time>2012-04-19T08:55:14Z</time>
      </trkpt>
      <trkpt lat="48.22074" lon="-3.666">
        <ele>57.335815429688</ele>
        <time>2012-04-19T08:55:27Z</time>
      </trkpt>
      <trkpt lat="48.22125" lon="-3.66694">
        <ele>56.37451171875</ele>
        <time>2012-04-19T08:55:48Z</time>
      </trkpt>
      <trkpt lat="48.22172" lon="-3.66822">
        <ele>58.297119140625</ele>
        <time>2012-04-19T08:56:12Z</time>
      </trkpt>
      <trkpt lat="48.22196" lon="-3.66892">
        <ele>60.2197265625</ele>
        <time>2012-04-19T08:56:27Z</time>
      </trkpt>
      <trkpt lat="48.22198" lon="-3.66928">
        <ele>59.258422851562</ele>
        <time>2012-04-19T08:56:34Z</time>
      </trkpt>
      <trkpt lat="48.22196" lon="-3.66949">
        <ele>56.855102539062</ele>
        <time>2012-04-19T08:56:38Z</time>
      </trkpt>
      <trkpt lat="48.22194" lon="-3.66968">
        <ele>55.4130859375</ele>
        <time>2012-04-19T08:56:41Z</time>
      </trkpt>
      <trkpt lat="48.22176" lon="-3.67075">
        <ele>56.37451171875</ele>
        <time>2012-04-19T08:56:57Z</time>
      </trkpt>
      <trkpt lat="48.22161" lon="-3.6716">
        <ele>58.777709960938</ele>
        <time>2012-04-19T08:57:10Z</time>
      </trkpt>
      <trkpt lat="48.22142" lon="-3.67268">
        <ele>58.297119140625</ele>
        <time>2012-04-19T08:57:26Z</time>
      </trkpt>
      <trkpt lat="48.22087" lon="-3.67438">
        <ele>60.2197265625</ele>
        <time>2012-04-19T08:57:55Z</time>
      </trkpt>
      <trkpt lat="48.22078" lon="-3.67458">
        <ele>59.739135742188</ele>
        <time>2012-04-19T08:57:59Z</time>
      </trkpt>
      <trkpt lat="48.22059" lon="-3.67581">
        <ele>60.700317382812</ele>
        <time>2012-04-19T08:58:17Z</time>
      </trkpt>
      <trkpt lat="48.2205" lon="-3.67664">
        <ele>58.777709960938</ele>
        <time>2012-04-19T08:58:30Z</time>
      </trkpt>
      <trkpt lat="48.22052" lon="-3.67822">
        <ele>57.816528320312</ele>
        <time>2012-04-19T08:58:54Z</time>
      </trkpt>
      <trkpt lat="48.2204" lon="-3.6796">
        <ele>58.297119140625</ele>
        <time>2012-04-19T08:59:16Z</time>
      </trkpt>
      <trkpt lat="48.22015" lon="-3.68098">
        <ele>59.258422851562</ele>
        <time>2012-04-19T08:59:38Z</time>
      </trkpt>
      <trkpt lat="48.21965" lon="-3.68229">
        <ele>58.777709960938</ele>
        <time>2012-04-19T09:00:02Z</time>
      </trkpt>
      <trkpt lat="48.21911" lon="-3.68339">
        <ele>60.700317382812</ele>
        <time>2012-04-19T09:00:24Z</time>
      </trkpt>
      <trkpt lat="48.2184" lon="-3.68465">
        <ele>60.700317382812</ele>
        <time>2012-04-19T09:00:51Z</time>
      </trkpt>
      <trkpt lat="48.21807" lon="-3.68577">
        <ele>60.700317382812</ele>
        <time>2012-04-19T09:01:14Z</time>
      </trkpt>
      <trkpt lat="48.2181" lon="-3.68587">
        <ele>60.2197265625</ele>
        <time>2012-04-19T09:01:16Z</time>
      </trkpt>
      <trkpt lat="48.21816" lon="-3.68603">
        <ele>58.777709960938</ele>
        <time>2012-04-19T09:01:20Z</time>
      </trkpt>
      <trkpt lat="48.21898" lon="-3.68675">
        <ele>57.335815429688</ele>
        <time>2012-04-19T09:01:43Z</time>
      </trkpt>
      <trkpt lat="48.2197" lon="-3.68724">
        <ele>56.855102539062</ele>
        <time>2012-04-19T09:02:03Z</time>
      </trkpt>
      <trkpt lat="48.22018" lon="-3.68757">
        <ele>56.37451171875</ele>
        <time>2012-04-19T09:02:16Z</time>
      </trkpt>
      <trkpt lat="48.22075" lon="-3.6879">
        <ele>56.37451171875</ele>
        <time>2012-04-19T09:02:34Z</time>
      </trkpt>
      <trkpt lat="48.22084" lon="-3.68795">
        <ele>56.855102539062</ele>
        <time>2012-04-19T09:02:47Z</time>
      </trkpt>
      <trkpt lat="48.22094" lon="-3.688">
        <ele>52.529174804688</ele>
        <time>2012-04-19T09:07:27Z</time>
      </trkpt>
      <trkpt lat="48.22094" lon="-3.688">
        <ele>52.048583984375</ele>
        <time>2012-04-19T09:12:17Z</time>
      </trkpt>
      <trkpt lat="48.22115" lon="-3.6881">
        <ele>51.56787109375</ele>
        <time>2012-04-19T09:13:46Z</time>
      </trkpt>
      <trkpt lat="48.22183" lon="-3.68843">
        <ele>49.16455078125</ele>
        <time>2012-04-19T09:14:05Z</time>
      </trkpt>
      <trkpt lat="48.2227" lon="-3.68934">
        <ele>51.087158203125</ele>
        <time>2012-04-19T09:14:28Z</time>
      </trkpt>
      <trkpt lat="48.22283" lon="-3.68961">
        <ele>50.606567382812</ele>
        <time>2012-04-19T09:14:34Z</time>
      </trkpt>
      <trkpt lat="48.22289" lon="-3.68977">
        <ele>50.606567382812</ele>
        <time>2012-04-19T09:14:37Z</time>
      </trkpt>
      <trkpt lat="48.22295" lon="-3.68993">
        <ele>50.1259765625</ele>
        <time>2012-04-19T09:14:40Z</time>
      </trkpt>
      <trkpt lat="48.22333" lon="-3.69118">
        <ele>51.087158203125</ele>
        <time>2012-04-19T09:15:01Z</time>
      </trkpt>
      <trkpt lat="48.22361" lon="-3.69224">
        <ele>53.490478515625</ele>
        <time>2012-04-19T09:15:18Z</time>
      </trkpt>
      <trkpt lat="48.22371" lon="-3.69257">
        <ele>51.087158203125</ele>
        <time>2012-04-19T09:15:23Z</time>
      </trkpt>
      <trkpt lat="48.22424" lon="-3.69391">
        <ele>52.048583984375</ele>
        <time>2012-04-19T09:15:45Z</time>
      </trkpt>
      <trkpt lat="48.22452" lon="-3.6944">
        <ele>52.529174804688</ele>
        <time>2012-04-19T09:15:54Z</time>
      </trkpt>
      <trkpt lat="48.2248" lon="-3.69492">
        <ele>53.009765625</ele>
        <time>2012-04-19T09:16:04Z</time>
      </trkpt>
      <trkpt lat="48.2251" lon="-3.69581">
        <ele>53.97119140625</ele>
        <time>2012-04-19T09:16:21Z</time>
      </trkpt>
      <trkpt lat="48.22511" lon="-3.69586">
        <ele>53.97119140625</ele>
        <time>2012-04-19T09:16:22Z</time>
      </trkpt>
      <trkpt lat="48.22513" lon="-3.69608">
        <ele>54.932373046875</ele>
        <time>2012-04-19T09:16:26Z</time>
      </trkpt>
      <trkpt lat="48.22503" lon="-3.69685">
        <ele>65.0263671875</ele>
        <time>2012-04-19T09:16:40Z</time>
      </trkpt>
      <trkpt lat="48.22502" lon="-3.6969">
        <ele>65.507080078125</ele>
        <time>2012-04-19T09:16:41Z</time>
      </trkpt>
      <trkpt lat="48.22451" lon="-3.69754">
        <ele>70.794189453125</ele>
        <time>2012-04-19T09:16:55Z</time>
      </trkpt>
      <trkpt lat="48.22447" lon="-3.69757">
        <ele>71.755493164062</ele>
        <time>2012-04-19T09:16:56Z</time>
      </trkpt>
      <trkpt lat="48.22417" lon="-3.69781">
        <ele>72.716918945312</ele>
        <time>2012-04-19T09:17:04Z</time>
      </trkpt>
      <trkpt lat="48.22334" lon="-3.69817">
        <ele>73.197631835938</ele>
        <time>2012-04-19T09:17:23Z</time>
      </trkpt>
      <trkpt lat="48.22249" lon="-3.69852">
        <ele>67.4296875</ele>
        <time>2012-04-19T09:17:43Z</time>
      </trkpt>
      <trkpt lat="48.2217" lon="-3.69879">
        <ele>65.507080078125</ele>
        <time>2012-04-19T09:18:03Z</time>
      </trkpt>
      <trkpt lat="48.22159" lon="-3.69889">
        <ele>65.507080078125</ele>
        <time>2012-04-19T09:18:06Z</time>
      </trkpt>
      <trkpt lat="48.22141" lon="-3.69907">
        <ele>64.065063476562</ele>
        <time>2012-04-19T09:18:11Z</time>
      </trkpt>
      <trkpt lat="48.22083" lon="-3.70023">
        <ele>62.142333984375</ele>
        <time>2012-04-19T09:18:32Z</time>
      </trkpt>
      <trkpt lat="48.22065" lon="-3.70065">
        <ele>61.181030273438</ele>
        <time>2012-04-19T09:18:44Z</time>
      </trkpt>
      <trkpt lat="48.22065" lon="-3.70065">
        <ele>61.181030273438</ele>
        <time>2012-04-19T09:18:59Z</time>
      </trkpt>
      <trkpt lat="48.22065" lon="-3.70065">
        <ele>58.777709960938</ele>
        <time>2012-04-19T09:31:14Z</time>
      </trkpt>
      <trkpt lat="48.22065" lon="-3.70065">
        <ele>57.335815429688</ele>
        <time>2012-04-19T09:31:30Z</time>
      </trkpt>
      <trkpt lat="48.22065" lon="-3.70065">
        <ele>55.4130859375</ele>
        <time>2012-04-19T09:32:04Z</time>
      </trkpt>
      <trkpt lat="48.22065" lon="-3.70065">
        <ele>51.56787109375</ele>
        <time>2012-04-19T09:32:29Z</time>
      </trkpt>
      <trkpt lat="48.22065" lon="-3.70065">
        <ele>51.56787109375</ele>
        <time>2012-04-19T09:32:32Z</time>
      </trkpt>
      <trkpt lat="48.22042" lon="-3.70118">
        <ele>50.606567382812</ele>
        <time>2012-04-19T09:32:44Z</time>
      </trkpt>
      <trkpt lat="48.22031" lon="-3.70142">
        <ele>50.1259765625</ele>
        <time>2012-04-19T09:32:49Z</time>
      </trkpt>
      <trkpt lat="48.21977" lon="-3.70231">
        <ele>50.1259765625</ele>
        <time>2012-04-19T09:33:10Z</time>
      </trkpt>
      <trkpt lat="48.21935" lon="-3.703">
        <ele>51.56787109375</ele>
        <time>2012-04-19T09:33:27Z</time>
      </trkpt>
      <trkpt lat="48.21925" lon="-3.70317">
        <ele>53.490478515625</ele>
        <time>2012-04-19T09:33:33Z</time>
      </trkpt>
      <trkpt lat="48.21917" lon="-3.70303">
        <ele>53.490478515625</ele>
        <time>2012-04-19T09:33:41Z</time>
      </trkpt>
      <trkpt lat="48.21884" lon="-3.70259">
        <ele>52.048583984375</ele>
        <time>2012-04-19T09:33:57Z</time>
      </trkpt>
      <trkpt lat="48.21856" lon="-3.70281">
        <ele>51.56787109375</ele>
        <time>2012-04-19T09:34:06Z</time>
      </trkpt>
      <trkpt lat="48.21845" lon="-3.70318">
        <ele>51.56787109375</ele>
        <time>2012-04-19T09:34:15Z</time>
      </trkpt>
      <trkpt lat="48.21832" lon="-3.70366">
        <ele>52.529174804688</ele>
        <time>2012-04-19T09:34:31Z</time>
      </trkpt>
      <trkpt lat="48.21829" lon="-3.70378">
        <ele>52.529174804688</ele>
        <time>2012-04-19T09:34:35Z</time>
      </trkpt>
      <trkpt lat="48.21823" lon="-3.70403">
        <ele>53.490478515625</ele>
        <time>2012-04-19T09:34:43Z</time>
      </trkpt>
      <trkpt lat="48.21822" lon="-3.70408">
        <ele>52.529174804688</ele>
        <time>2012-04-19T09:34:46Z</time>
      </trkpt>
      <trkpt lat="48.21818" lon="-3.70445">
        <ele>47.722534179688</ele>
        <time>2012-04-19T09:34:50Z</time>
      </trkpt>
      <trkpt lat="48.21795" lon="-3.70451">
        <ele>48.203369140625</ele>
        <time>2012-04-19T09:34:54Z</time>
      </trkpt>
      <trkpt lat="48.21766" lon="-3.70458">
        <ele>48.683959960938</ele>
        <time>2012-04-19T09:35:01Z</time>
      </trkpt>
      <trkpt lat="48.21715" lon="-3.70495">
        <ele>48.203369140625</ele>
        <time>2012-04-19T09:35:16Z</time>
      </trkpt>
      <trkpt lat="48.21705" lon="-3.70505">
        <ele>48.683959960938</ele>
        <time>2012-04-19T09:35:19Z</time>
      </trkpt>
      <trkpt lat="48.2165" lon="-3.70593">
        <ele>49.645263671875</ele>
        <time>2012-04-19T09:35:39Z</time>
      </trkpt>
      <trkpt lat="48.21621" lon="-3.70685">
        <ele>50.606567382812</ele>
        <time>2012-04-19T09:35:56Z</time>
      </trkpt>
      <trkpt lat="48.216" lon="-3.70764">
        <ele>51.087158203125</ele>
        <time>2012-04-19T09:36:10Z</time>
      </trkpt>
      <trkpt lat="48.21589" lon="-3.70814">
        <ele>52.048583984375</ele>
        <time>2012-04-19T09:36:19Z</time>
      </trkpt>
      <trkpt lat="48.21583" lon="-3.70892">
        <ele>52.048583984375</ele>
        <time>2012-04-19T09:36:32Z</time>
      </trkpt>
      <trkpt lat="48.21575" lon="-3.70992">
        <ele>55.893798828125</ele>
        <time>2012-04-19T09:36:49Z</time>
      </trkpt>
      <trkpt lat="48.21569" lon="-3.7106">
        <ele>52.529174804688</ele>
        <time>2012-04-19T09:37:01Z</time>
      </trkpt>
      <trkpt lat="48.21554" lon="-3.71185">
        <ele>50.606567382812</ele>
        <time>2012-04-19T09:37:22Z</time>
      </trkpt>
      <trkpt lat="48.21548" lon="-3.71263">
        <ele>51.56787109375</ele>
        <time>2012-04-19T09:37:35Z</time>
      </trkpt>
      <trkpt lat="48.21542" lon="-3.71367">
        <ele>51.087158203125</ele>
        <time>2012-04-19T09:37:52Z</time>
      </trkpt>
      <trkpt lat="48.21541" lon="-3.71447">
        <ele>51.56787109375</ele>
        <time>2012-04-19T09:38:05Z</time>
      </trkpt>
      <trkpt lat="48.2155" lon="-3.71573">
        <ele>51.56787109375</ele>
        <time>2012-04-19T09:38:26Z</time>
      </trkpt>
      <trkpt lat="48.21563" lon="-3.71677">
        <ele>51.087158203125</ele>
        <time>2012-04-19T09:38:43Z</time>
      </trkpt>
      <trkpt lat="48.21585" lon="-3.71748">
        <ele>52.048583984375</ele>
        <time>2012-04-19T09:38:56Z</time>
      </trkpt>
      <trkpt lat="48.21626" lon="-3.71836">
        <ele>52.048583984375</ele>
        <time>2012-04-19T09:39:13Z</time>
      </trkpt>
      <trkpt lat="48.21663" lon="-3.71914">
        <ele>51.087158203125</ele>
        <time>2012-04-19T09:39:29Z</time>
      </trkpt>
      <trkpt lat="48.2171" lon="-3.72014">
        <ele>50.1259765625</ele>
        <time>2012-04-19T09:39:49Z</time>
      </trkpt>
      <trkpt lat="48.2178" lon="-3.72095">
        <ele>50.1259765625</ele>
        <time>2012-04-19T09:40:09Z</time>
      </trkpt>
      <trkpt lat="48.21867" lon="-3.72189">
        <ele>49.645263671875</ele>
        <time>2012-04-19T09:40:36Z</time>
      </trkpt>
      <trkpt lat="48.21924" lon="-3.72254">
        <ele>49.16455078125</ele>
        <time>2012-04-19T09:40:55Z</time>
      </trkpt>
      <trkpt lat="48.21988" lon="-3.72344">
        <ele>48.203369140625</ele>
        <time>2012-04-19T09:41:19Z</time>
      </trkpt>
      <trkpt lat="48.22041" lon="-3.72429">
        <ele>48.203369140625</ele>
        <time>2012-04-19T09:41:41Z</time>
      </trkpt>
      <trkpt lat="48.2207" lon="-3.7249">
        <ele>48.203369140625</ele>
        <time>2012-04-19T09:41:55Z</time>
      </trkpt>
      <trkpt lat="48.22089" lon="-3.72554">
        <ele>47.722534179688</ele>
        <time>2012-04-19T09:42:09Z</time>
      </trkpt>
      <trkpt lat="48.22116" lon="-3.72659">
        <ele>47.241821289062</ele>
        <time>2012-04-19T09:42:30Z</time>
      </trkpt>
      <trkpt lat="48.22126" lon="-3.72759">
        <ele>47.722534179688</ele>
        <time>2012-04-19T09:42:49Z</time>
      </trkpt>
      <trkpt lat="48.22154" lon="-3.7289">
        <ele>46.280639648438</ele>
        <time>2012-04-19T09:43:11Z</time>
      </trkpt>
      <trkpt lat="48.22155" lon="-3.73001">
        <ele>44.358032226562</ele>
        <time>2012-04-19T09:43:31Z</time>
      </trkpt>
      <trkpt lat="48.22147" lon="-3.73094">
        <ele>46.280639648438</ele>
        <time>2012-04-19T09:43:48Z</time>
      </trkpt>
      <trkpt lat="48.22127" lon="-3.73241">
        <ele>45.799926757812</ele>
        <time>2012-04-19T09:44:14Z</time>
      </trkpt>
      <trkpt lat="48.22093" lon="-3.73352">
        <ele>46.280639648438</ele>
        <time>2012-04-19T09:44:38Z</time>
      </trkpt>
      <trkpt lat="48.22061" lon="-3.73482">
        <ele>46.280639648438</ele>
        <time>2012-04-19T09:45:02Z</time>
      </trkpt>
      <trkpt lat="48.22029" lon="-3.73572">
        <ele>46.76123046875</ele>
        <time>2012-04-19T09:45:20Z</time>
      </trkpt>
      <trkpt lat="48.21989" lon="-3.73654">
        <ele>46.76123046875</ele>
        <time>2012-04-19T09:45:41Z</time>
      </trkpt>
      <trkpt lat="48.21929" lon="-3.73737">
        <ele>46.76123046875</ele>
        <time>2012-04-19T09:46:01Z</time>
      </trkpt>
      <trkpt lat="48.21875" lon="-3.73782">
        <ele>47.241821289062</ele>
        <time>2012-04-19T09:46:18Z</time>
      </trkpt>
      <trkpt lat="48.21814" lon="-3.73824">
        <ele>47.241821289062</ele>
        <time>2012-04-19T09:46:36Z</time>
      </trkpt>
      <trkpt lat="48.21729" lon="-3.73891">
        <ele>46.76123046875</ele>
        <time>2012-04-19T09:47:01Z</time>
      </trkpt>
      <trkpt lat="48.21662" lon="-3.73944">
        <ele>46.76123046875</ele>
        <time>2012-04-19T09:47:21Z</time>
      </trkpt>
      <trkpt lat="48.21603" lon="-3.7399">
        <ele>47.241821289062</ele>
        <time>2012-04-19T09:47:42Z</time>
      </trkpt>
      <trkpt lat="48.21492" lon="-3.74036">
        <ele>46.76123046875</ele>
        <time>2012-04-19T09:48:06Z</time>
      </trkpt>
      <trkpt lat="48.21394" lon="-3.74048">
        <ele>44.838623046875</ele>
        <time>2012-04-19T09:48:30Z</time>
      </trkpt>
      <trkpt lat="48.21325" lon="-3.74028">
        <ele>44.838623046875</ele>
        <time>2012-04-19T09:48:48Z</time>
      </trkpt>
      <trkpt lat="48.21302" lon="-3.74019">
        <ele>45.799926757812</ele>
        <time>2012-04-19T09:48:57Z</time>
      </trkpt>
      <trkpt lat="48.21266" lon="-3.74005">
        <ele>46.76123046875</ele>
        <time>2012-04-19T09:49:06Z</time>
      </trkpt>
      <trkpt lat="48.21227" lon="-3.73969">
        <ele>47.241821289062</ele>
        <time>2012-04-19T09:49:16Z</time>
      </trkpt>
      <trkpt lat="48.2122" lon="-3.73962">
        <ele>47.722534179688</ele>
        <time>2012-04-19T09:49:19Z</time>
      </trkpt>
      <trkpt lat="48.21193" lon="-3.73933">
        <ele>50.1259765625</ele>
        <time>2012-04-19T09:49:29Z</time>
      </trkpt>
      <trkpt lat="48.21158" lon="-3.73898">
        <ele>50.606567382812</ele>
        <time>2012-04-19T09:49:39Z</time>
      </trkpt>
      <trkpt lat="48.21126" lon="-3.73864">
        <ele>48.203369140625</ele>
        <time>2012-04-19T09:49:48Z</time>
      </trkpt>
      <trkpt lat="48.21078" lon="-3.73806">
        <ele>45.319213867188</ele>
        <time>2012-04-19T09:50:00Z</time>
      </trkpt>
      <trkpt lat="48.20997" lon="-3.73727">
        <ele>41.473999023438</ele>
        <time>2012-04-19T09:50:22Z</time>
      </trkpt>
      <trkpt lat="48.20963" lon="-3.73695">
        <ele>40.512817382812</ele>
        <time>2012-04-19T09:50:32Z</time>
      </trkpt>
      <trkpt lat="48.20924" lon="-3.73658">
        <ele>40.993408203125</ele>
        <time>2012-04-19T09:50:42Z</time>
      </trkpt>
      <trkpt lat="48.20878" lon="-3.73614">
        <ele>40.512817382812</ele>
        <time>2012-04-19T09:50:55Z</time>
      </trkpt>
      <trkpt lat="48.20825" lon="-3.73565">
        <ele>40.993408203125</ele>
        <time>2012-04-19T09:51:11Z</time>
      </trkpt>
      <trkpt lat="48.20795" lon="-3.73536">
        <ele>41.473999023438</ele>
        <time>2012-04-19T09:51:20Z</time>
      </trkpt>
      <trkpt lat="48.20753" lon="-3.73502">
        <ele>41.954711914062</ele>
        <time>2012-04-19T09:51:32Z</time>
      </trkpt>
      <trkpt lat="48.2069" lon="-3.7346">
        <ele>42.435424804688</ele>
        <time>2012-04-19T09:51:49Z</time>
      </trkpt>
      <trkpt lat="48.20593" lon="-3.73416">
        <ele>42.435424804688</ele>
        <time>2012-04-19T09:52:13Z</time>
      </trkpt>
      <trkpt lat="48.20454" lon="-3.73382">
        <ele>42.916015625</ele>
        <time>2012-04-19T09:52:47Z</time>
      </trkpt>
      <trkpt lat="48.20368" lon="-3.73389">
        <ele>43.396606445312</ele>
        <time>2012-04-19T09:53:08Z</time>
      </trkpt>
      <trkpt lat="48.20319" lon="-3.7343">
        <ele>42.916015625</ele>
        <time>2012-04-19T09:53:24Z</time>
      </trkpt>
      <trkpt lat="48.20265" lon="-3.73521">
        <ele>40.993408203125</ele>
        <time>2012-04-19T09:53:47Z</time>
      </trkpt>
      <trkpt lat="48.20229" lon="-3.73618">
        <ele>40.512817382812</ele>
        <time>2012-04-19T09:54:06Z</time>
      </trkpt>
      <trkpt lat="48.20217" lon="-3.73716">
        <ele>40.512817382812</ele>
        <time>2012-04-19T09:54:23Z</time>
      </trkpt>
      <trkpt lat="48.20217" lon="-3.73835">
        <ele>40.032104492188</ele>
        <time>2012-04-19T09:54:43Z</time>
      </trkpt>
      <trkpt lat="48.20244" lon="-3.73956">
        <ele>38.109375</ele>
        <time>2012-04-19T09:55:04Z</time>
      </trkpt>
      <trkpt lat="48.20277" lon="-3.74022">
        <ele>38.109375</ele>
        <time>2012-04-19T09:55:19Z</time>
      </trkpt>
      <trkpt lat="48.20328" lon="-3.74091">
        <ele>39.070678710938</ele>
        <time>2012-04-19T09:55:37Z</time>
      </trkpt>
      <trkpt lat="48.20405" lon="-3.74169">
        <ele>39.070678710938</ele>
        <time>2012-04-19T09:56:03Z</time>
      </trkpt>
      <trkpt lat="48.20491" lon="-3.74251">
        <ele>39.070678710938</ele>
        <time>2012-04-19T09:56:29Z</time>
      </trkpt>
      <trkpt lat="48.20562" lon="-3.74319">
        <ele>38.109375</ele>
        <time>2012-04-19T09:56:51Z</time>
      </trkpt>
      <trkpt lat="48.20575" lon="-3.74339">
        <ele>38.590087890625</ele>
        <time>2012-04-19T09:56:57Z</time>
      </trkpt>
      <trkpt lat="48.20619" lon="-3.74407">
        <ele>38.109375</ele>
        <time>2012-04-19T09:57:14Z</time>
      </trkpt>
      <trkpt lat="48.20668" lon="-3.74505">
        <ele>39.55126953125</ele>
        <time>2012-04-19T09:57:35Z</time>
      </trkpt>
      <trkpt lat="48.20709" lon="-3.74604">
        <ele>43.877319335938</ele>
        <time>2012-04-19T09:57:56Z</time>
      </trkpt>
      <trkpt lat="48.20735" lon="-3.74672">
        <ele>47.241821289062</ele>
        <time>2012-04-19T09:58:11Z</time>
      </trkpt>
      <trkpt lat="48.20767" lon="-3.74796">
        <ele>46.280639648438</ele>
        <time>2012-04-19T09:58:33Z</time>
      </trkpt>
      <trkpt lat="48.20783" lon="-3.74867">
        <ele>46.76123046875</ele>
        <time>2012-04-19T09:58:47Z</time>
      </trkpt>
      <trkpt lat="48.20807" lon="-3.74992">
        <ele>45.319213867188</ele>
        <time>2012-04-19T09:59:11Z</time>
      </trkpt>
      <trkpt lat="48.20821" lon="-3.75114">
        <ele>43.396606445312</ele>
        <time>2012-04-19T09:59:32Z</time>
      </trkpt>
      <trkpt lat="48.20818" lon="-3.75225">
        <ele>42.435424804688</ele>
        <time>2012-04-19T09:59:53Z</time>
      </trkpt>
      <trkpt lat="48.20797" lon="-3.75322">
        <ele>41.954711914062</ele>
        <time>2012-04-19T10:00:13Z</time>
      </trkpt>
      <trkpt lat="48.20753" lon="-3.75404">
        <ele>40.512817382812</ele>
        <time>2012-04-19T10:00:32Z</time>
      </trkpt>
      <trkpt lat="48.20691" lon="-3.7545">
        <ele>39.55126953125</ele>
        <time>2012-04-19T10:00:51Z</time>
      </trkpt>
      <trkpt lat="48.20578" lon="-3.75526">
        <ele>40.032104492188</ele>
        <time>2012-04-19T10:01:22Z</time>
      </trkpt>
      <trkpt lat="48.20487" lon="-3.75586">
        <ele>39.070678710938</ele>
        <time>2012-04-19T10:01:47Z</time>
      </trkpt>
      <trkpt lat="48.20425" lon="-3.75646">
        <ele>37.628662109375</ele>
        <time>2012-04-19T10:02:08Z</time>
      </trkpt>
      <trkpt lat="48.20342" lon="-3.75728">
        <ele>36.186767578125</ele>
        <time>2012-04-19T10:02:34Z</time>
      </trkpt>
      <trkpt lat="48.2029" lon="-3.75758">
        <ele>37.628662109375</ele>
        <time>2012-04-19T10:02:50Z</time>
      </trkpt>
      <trkpt lat="48.20197" lon="-3.75811">
        <ele>38.109375</ele>
        <time>2012-04-19T10:03:17Z</time>
      </trkpt>
      <trkpt lat="48.20137" lon="-3.75845">
        <ele>39.55126953125</ele>
        <time>2012-04-19T10:03:35Z</time>
      </trkpt>
      <trkpt lat="48.2005" lon="-3.75894">
        <ele>39.55126953125</ele>
        <time>2012-04-19T10:04:00Z</time>
      </trkpt>
      <trkpt lat="48.19982" lon="-3.75933">
        <ele>40.032104492188</ele>
        <time>2012-04-19T10:04:19Z</time>
      </trkpt>
      <trkpt lat="48.19975" lon="-3.75937">
        <ele>39.55126953125</ele>
        <time>2012-04-19T10:04:21Z</time>
      </trkpt>
      <trkpt lat="48.1993" lon="-3.75963">
        <ele>39.070678710938</ele>
        <time>2012-04-19T10:04:32Z</time>
      </trkpt>
      <trkpt lat="48.19854" lon="-3.76005">
        <ele>38.590087890625</ele>
        <time>2012-04-19T10:04:52Z</time>
      </trkpt>
      <trkpt lat="48.19783" lon="-3.76049">
        <ele>39.070678710938</ele>
        <time>2012-04-19T10:05:11Z</time>
      </trkpt>
      <trkpt lat="48.19715" lon="-3.76097">
        <ele>39.55126953125</ele>
        <time>2012-04-19T10:05:31Z</time>
      </trkpt>
      <trkpt lat="48.19624" lon="-3.76159">
        <ele>39.070678710938</ele>
        <time>2012-04-19T10:05:56Z</time>
      </trkpt>
      <trkpt lat="48.19514" lon="-3.76235">
        <ele>38.590087890625</ele>
        <time>2012-04-19T10:06:24Z</time>
      </trkpt>
      <trkpt lat="48.1941" lon="-3.76286">
        <ele>37.628662109375</ele>
        <time>2012-04-19T10:06:50Z</time>
      </trkpt>
      <trkpt lat="48.19319" lon="-3.76305">
        <ele>37.628662109375</ele>
        <time>2012-04-19T10:07:11Z</time>
      </trkpt>
      <trkpt lat="48.19301" lon="-3.76303">
        <ele>37.148071289062</ele>
        <time>2012-04-19T10:07:15Z</time>
      </trkpt>
      <trkpt lat="48.19239" lon="-3.76283">
        <ele>36.66748046875</ele>
        <time>2012-04-19T10:07:29Z</time>
      </trkpt>
      <trkpt lat="48.19231" lon="-3.76277">
        <ele>37.148071289062</ele>
        <time>2012-04-19T10:07:31Z</time>
      </trkpt>
      <trkpt lat="48.19207" lon="-3.76259">
        <ele>37.628662109375</ele>
        <time>2012-04-19T10:07:37Z</time>
      </trkpt>
      <trkpt lat="48.19157" lon="-3.76193">
        <ele>37.148071289062</ele>
        <time>2012-04-19T10:07:53Z</time>
      </trkpt>
      <trkpt lat="48.19106" lon="-3.76113">
        <ele>35.7060546875</ele>
        <time>2012-04-19T10:08:11Z</time>
      </trkpt>
      <trkpt lat="48.19074" lon="-3.76056">
        <ele>36.186767578125</ele>
        <time>2012-04-19T10:08:22Z</time>
      </trkpt>
      <trkpt lat="48.19029" lon="-3.75974">
        <ele>36.186767578125</ele>
        <time>2012-04-19T10:08:40Z</time>
      </trkpt>
      <trkpt lat="48.18989" lon="-3.75902">
        <ele>36.186767578125</ele>
        <time>2012-04-19T10:08:57Z</time>
      </trkpt>
      <trkpt lat="48.18959" lon="-3.75822">
        <ele>37.628662109375</ele>
        <time>2012-04-19T10:09:11Z</time>
      </trkpt>
      <trkpt lat="48.18928" lon="-3.75729">
        <ele>36.66748046875</ele>
        <time>2012-04-19T10:09:28Z</time>
      </trkpt>
      <trkpt lat="48.18918" lon="-3.75698">
        <ele>36.66748046875</ele>
        <time>2012-04-19T10:09:34Z</time>
      </trkpt>
      <trkpt lat="48.18899" lon="-3.75643">
        <ele>34.26416015625</ele>
        <time>2012-04-19T10:09:45Z</time>
      </trkpt>
      <trkpt lat="48.18876" lon="-3.75577">
        <ele>36.186767578125</ele>
        <time>2012-04-19T10:09:57Z</time>
      </trkpt>
      <trkpt lat="48.1886" lon="-3.75535">
        <ele>36.66748046875</ele>
        <time>2012-04-19T10:10:05Z</time>
      </trkpt>
      <trkpt lat="48.18851" lon="-3.75513">
        <ele>37.628662109375</ele>
        <time>2012-04-19T10:10:09Z</time>
      </trkpt>
      <trkpt lat="48.18811" lon="-3.75416">
        <ele>38.109375</ele>
        <time>2012-04-19T10:10:28Z</time>
      </trkpt>
      <trkpt lat="48.18805" lon="-3.75403">
        <ele>37.628662109375</ele>
        <time>2012-04-19T10:10:31Z</time>
      </trkpt>
      <trkpt lat="48.18777" lon="-3.75333">
        <ele>37.628662109375</ele>
        <time>2012-04-19T10:10:45Z</time>
      </trkpt>
      <trkpt lat="48.18741" lon="-3.75268">
        <ele>40.032104492188</ele>
        <time>2012-04-19T10:11:00Z</time>
      </trkpt>
      <trkpt lat="48.18665" lon="-3.7519">
        <ele>37.148071289062</ele>
        <time>2012-04-19T10:11:26Z</time>
      </trkpt>
      <trkpt lat="48.18648" lon="-3.75175">
        <ele>37.148071289062</ele>
        <time>2012-04-19T10:11:38Z</time>
      </trkpt>
      <trkpt lat="48.18646" lon="-3.75174">
        <ele>37.148071289062</ele>
        <time>2012-04-19T10:13:01Z</time>
      </trkpt>
      <trkpt lat="48.18613" lon="-3.75145">
        <ele>37.148071289062</ele>
        <time>2012-04-19T10:13:14Z</time>
      </trkpt>
      <trkpt lat="48.18559" lon="-3.75125">
        <ele>36.186767578125</ele>
        <time>2012-04-19T10:13:28Z</time>
      </trkpt>
      <trkpt lat="48.18495" lon="-3.75137">
        <ele>37.148071289062</ele>
        <time>2012-04-19T10:13:45Z</time>
      </trkpt>
      <trkpt lat="48.18374" lon="-3.75176">
        <ele>37.148071289062</ele>
        <time>2012-04-19T10:14:16Z</time>
      </trkpt>
      <trkpt lat="48.18286" lon="-3.75221">
        <ele>36.186767578125</ele>
        <time>2012-04-19T10:14:39Z</time>
      </trkpt>
      <trkpt lat="48.18203" lon="-3.75279">
        <ele>36.186767578125</ele>
        <time>2012-04-19T10:15:02Z</time>
      </trkpt>
      <trkpt lat="48.1813" lon="-3.75386">
        <ele>37.628662109375</ele>
        <time>2012-04-19T10:15:29Z</time>
      </trkpt>
      <trkpt lat="48.18113" lon="-3.75444">
        <ele>42.435424804688</ele>
        <time>2012-04-19T10:15:46Z</time>
      </trkpt>
      <trkpt lat="48.1811" lon="-3.75453">
        <ele>42.916015625</ele>
        <time>2012-04-19T10:15:52Z</time>
      </trkpt>
      <trkpt lat="48.18067" lon="-3.75542">
        <ele>40.032104492188</ele>
        <time>2012-04-19T10:16:04Z</time>
      </trkpt>
      <trkpt lat="48.18017" lon="-3.75646">
        <ele>38.109375</ele>
        <time>2012-04-19T10:16:23Z</time>
      </trkpt>
      <trkpt lat="48.17964" lon="-3.75765">
        <ele>38.109375</ele>
        <time>2012-04-19T10:16:45Z</time>
      </trkpt>
      <trkpt lat="48.17936" lon="-3.75864">
        <ele>39.070678710938</ele>
        <time>2012-04-19T10:17:03Z</time>
      </trkpt>
      <trkpt lat="48.17911" lon="-3.75964">
        <ele>38.109375</ele>
        <time>2012-04-19T10:17:20Z</time>
      </trkpt>
      <trkpt lat="48.17897" lon="-3.7602">
        <ele>37.628662109375</ele>
        <time>2012-04-19T10:17:30Z</time>
      </trkpt>
      <trkpt lat="48.17881" lon="-3.76086">
        <ele>38.109375</ele>
        <time>2012-04-19T10:17:41Z</time>
      </trkpt>
      <trkpt lat="48.17842" lon="-3.76235">
        <ele>39.070678710938</ele>
        <time>2012-04-19T10:18:06Z</time>
      </trkpt>
      <trkpt lat="48.17802" lon="-3.76389">
        <ele>39.55126953125</ele>
        <time>2012-04-19T10:18:31Z</time>
      </trkpt>
      <trkpt lat="48.17759" lon="-3.76506">
        <ele>40.512817382812</ele>
        <time>2012-04-19T10:18:53Z</time>
      </trkpt>
      <trkpt lat="48.17725" lon="-3.766">
        <ele>40.032104492188</ele>
        <time>2012-04-19T10:19:11Z</time>
      </trkpt>
      <trkpt lat="48.1769" lon="-3.7671">
        <ele>40.993408203125</ele>
        <time>2012-04-19T10:19:31Z</time>
      </trkpt>
      <trkpt lat="48.17628" lon="-3.76849">
        <ele>38.590087890625</ele>
        <time>2012-04-19T10:19:58Z</time>
      </trkpt>
      <trkpt lat="48.17576" lon="-3.76943">
        <ele>38.109375</ele>
        <time>2012-04-19T10:20:19Z</time>
      </trkpt>
      <trkpt lat="48.17534" lon="-3.7701">
        <ele>39.55126953125</ele>
        <time>2012-04-19T10:20:36Z</time>
      </trkpt>
      <trkpt lat="48.17481" lon="-3.77088">
        <ele>37.148071289062</ele>
        <time>2012-04-19T10:20:56Z</time>
      </trkpt>
      <trkpt lat="48.17429" lon="-3.77163">
        <ele>32.822265625</ele>
        <time>2012-04-19T10:21:14Z</time>
      </trkpt>
      <trkpt lat="48.17348" lon="-3.77277">
        <ele>34.744873046875</ele>
        <time>2012-04-19T10:21:42Z</time>
      </trkpt>
      <trkpt lat="48.17302" lon="-3.77333">
        <ele>35.7060546875</ele>
        <time>2012-04-19T10:21:58Z</time>
      </trkpt>
      <trkpt lat="48.17232" lon="-3.77413">
        <ele>37.148071289062</ele>
        <time>2012-04-19T10:22:21Z</time>
      </trkpt>
      <trkpt lat="48.17176" lon="-3.77476">
        <ele>38.109375</ele>
        <time>2012-04-19T10:22:39Z</time>
      </trkpt>
      <trkpt lat="48.17145" lon="-3.77532">
        <ele>37.628662109375</ele>
        <time>2012-04-19T10:22:56Z</time>
      </trkpt>
      <trkpt lat="48.17145" lon="-3.77532">
        <ele>37.148071289062</ele>
        <time>2012-04-19T10:23:00Z</time>
      </trkpt>
      <trkpt lat="48.17125" lon="-3.77581">
        <ele>37.148071289062</ele>
        <time>2012-04-19T10:23:13Z</time>
      </trkpt>
      <trkpt lat="48.17123" lon="-3.77586">
        <ele>37.148071289062</ele>
        <time>2012-04-19T10:23:15Z</time>
      </trkpt>
      <trkpt lat="48.17123" lon="-3.77588">
        <ele>39.070678710938</ele>
        <time>2012-04-19T10:23:30Z</time>
      </trkpt>
      <trkpt lat="48.17123" lon="-3.77588">
        <ele>38.590087890625</ele>
        <time>2012-04-19T10:24:07Z</time>
      </trkpt>
      <trkpt lat="48.17123" lon="-3.77588">
        <ele>36.66748046875</ele>
        <time>2012-04-19T10:24:45Z</time>
      </trkpt>
      <trkpt lat="48.17123" lon="-3.77588">
        <ele>36.186767578125</ele>
        <time>2012-04-19T10:25:55Z</time>
      </trkpt>
      <trkpt lat="48.17123" lon="-3.77585">
        <ele>36.186767578125</ele>
        <time>2012-04-19T10:26:01Z</time>
      </trkpt>
      <trkpt lat="48.17135" lon="-3.77558">
        <ele>34.26416015625</ele>
        <time>2012-04-19T10:26:14Z</time>
      </trkpt>
      <trkpt lat="48.17135" lon="-3.77558">
        <ele>32.822265625</ele>
        <time>2012-04-19T10:26:40Z</time>
      </trkpt>
      <trkpt lat="48.17135" lon="-3.77558">
        <ele>33.302856445312</ele>
        <time>2012-04-19T10:27:27Z</time>
      </trkpt>
      <trkpt lat="48.17135" lon="-3.77558">
        <ele>33.302856445312</ele>
        <time>2012-04-19T10:28:29Z</time>
      </trkpt>
      <trkpt lat="48.17135" lon="-3.77558">
        <ele>33.302856445312</ele>
        <time>2012-04-19T10:28:50Z</time>
      </trkpt>
    </trkseg>
  </trk>
  <trk>
    <name><![CDATA[ACTIVE LOG 014]]></name>
    <trkseg>
      <trkpt lat="48.17096" lon="-3.7769">
        <ele>43.877319335938</ele>
        <time>2012-04-19T10:44:01Z</time>
      </trkpt>
      <trkpt lat="48.17089" lon="-3.77709">
        <ele>35.7060546875</ele>
        <time>2012-04-19T10:44:06Z</time>
      </trkpt>
      <trkpt lat="48.17072" lon="-3.77804">
        <ele>34.26416015625</ele>
        <time>2012-04-19T10:44:25Z</time>
      </trkpt>
      <trkpt lat="48.17081" lon="-3.77885">
        <ele>35.7060546875</ele>
        <time>2012-04-19T10:44:40Z</time>
      </trkpt>
      <trkpt lat="48.17091" lon="-3.77905">
        <ele>34.744873046875</ele>
        <time>2012-04-19T10:44:44Z</time>
      </trkpt>
      <trkpt lat="48.17101" lon="-3.77912">
        <ele>34.744873046875</ele>
        <time>2012-04-19T10:44:48Z</time>
      </trkpt>
      <trkpt lat="48.17146" lon="-3.77907">
        <ele>35.225463867188</ele>
        <time>2012-04-19T10:45:01Z</time>
      </trkpt>
      <trkpt lat="48.17176" lon="-3.77895">
        <ele>33.783447265625</ele>
        <time>2012-04-19T10:45:13Z</time>
      </trkpt>
      <trkpt lat="48.17176" lon="-3.77895">
        <ele>34.744873046875</ele>
        <time>2012-04-19T10:45:35Z</time>
      </trkpt>
      <trkpt lat="48.17195" lon="-3.77886">
        <ele>31.860717773438</ele>
        <time>2012-04-19T10:46:10Z</time>
      </trkpt>
      <trkpt lat="48.17244" lon="-3.77862">
        <ele>29.938110351562</ele>
        <time>2012-04-19T10:46:27Z</time>
      </trkpt>
      <trkpt lat="48.17297" lon="-3.77854">
        <ele>32.341552734375</ele>
        <time>2012-04-19T10:46:42Z</time>
      </trkpt>
      <trkpt lat="48.17372" lon="-3.77859">
        <ele>31.860717773438</ele>
        <time>2012-04-19T10:47:02Z</time>
      </trkpt>
      <trkpt lat="48.17431" lon="-3.77866">
        <ele>31.860717773438</ele>
        <time>2012-04-19T10:47:19Z</time>
      </trkpt>
      <trkpt lat="48.1749" lon="-3.77873">
        <ele>31.380126953125</ele>
        <time>2012-04-19T10:47:36Z</time>
      </trkpt>
      <trkpt lat="48.17564" lon="-3.77881">
        <ele>34.744873046875</ele>
        <time>2012-04-19T10:47:56Z</time>
      </trkpt>
      <trkpt lat="48.17658" lon="-3.77895">
        <ele>35.7060546875</ele>
        <time>2012-04-19T10:48:20Z</time>
      </trkpt>
      <trkpt lat="48.17728" lon="-3.77917">
        <ele>34.26416015625</ele>
        <time>2012-04-19T10:48:43Z</time>
      </trkpt>
      <trkpt lat="48.17802" lon="-3.77939">
        <ele>34.744873046875</ele>
        <time>2012-04-19T10:48:59Z</time>
      </trkpt>
      <trkpt lat="48.17866" lon="-3.77958">
        <ele>35.7060546875</ele>
        <time>2012-04-19T10:49:17Z</time>
      </trkpt>
      <trkpt lat="48.17923" lon="-3.77978">
        <ele>34.26416015625</ele>
        <time>2012-04-19T10:49:34Z</time>
      </trkpt>
      <trkpt lat="48.17984" lon="-3.78012">
        <ele>36.186767578125</ele>
        <time>2012-04-19T10:49:52Z</time>
      </trkpt>
      <trkpt lat="48.18045" lon="-3.7807">
        <ele>37.148071289062</ele>
        <time>2012-04-19T10:50:13Z</time>
      </trkpt>
      <trkpt lat="48.18115" lon="-3.78143">
        <ele>39.55126953125</ele>
        <time>2012-04-19T10:50:36Z</time>
      </trkpt>
      <trkpt lat="48.1818" lon="-3.78233">
        <ele>39.070678710938</ele>
        <time>2012-04-19T10:50:59Z</time>
      </trkpt>
      <trkpt lat="48.18215" lon="-3.78305">
        <ele>39.070678710938</ele>
        <time>2012-04-19T10:51:16Z</time>
      </trkpt>
      <trkpt lat="48.18236" lon="-3.78376">
        <ele>37.148071289062</ele>
        <time>2012-04-19T10:51:32Z</time>
      </trkpt>
      <trkpt lat="48.18243" lon="-3.78464">
        <ele>36.66748046875</ele>
        <time>2012-04-19T10:51:51Z</time>
      </trkpt>
      <trkpt lat="48.18243" lon="-3.78553">
        <ele>36.66748046875</ele>
        <time>2012-04-19T10:52:10Z</time>
      </trkpt>
      <trkpt lat="48.1824" lon="-3.78641">
        <ele>35.7060546875</ele>
        <time>2012-04-19T10:52:31Z</time>
      </trkpt>
      <trkpt lat="48.18234" lon="-3.78681">
        <ele>34.744873046875</ele>
        <time>2012-04-19T10:52:46Z</time>
      </trkpt>
      <trkpt lat="48.18234" lon="-3.78681">
        <ele>34.26416015625</ele>
        <time>2012-04-19T10:53:30Z</time>
      </trkpt>
      <trkpt lat="48.18234" lon="-3.78681">
        <ele>33.783447265625</ele>
        <time>2012-04-19T10:54:08Z</time>
      </trkpt>
      <trkpt lat="48.18234" lon="-3.78681">
        <ele>33.783447265625</ele>
        <time>2012-04-19T10:54:26Z</time>
      </trkpt>
    </trkseg>
  </trk>
  <trk>
    <name><![CDATA[ACTIVE LOG 015]]></name>
    <trkseg>
      <trkpt lat="48.18247" lon="-3.7867">
        <ele>9.7506103515625</ele>
        <time>2012-04-19T11:43:06Z</time>
      </trkpt>
      <trkpt lat="48.18229" lon="-3.78696">
        <ele>52.529174804688</ele>
        <time>2012-04-19T11:45:10Z</time>
      </trkpt>
      <trkpt lat="48.18228" lon="-3.78696">
        <ele>52.048583984375</ele>
        <time>2012-04-19T11:45:29Z</time>
      </trkpt>
      <trkpt lat="48.18228" lon="-3.78706">
        <ele>50.1259765625</ele>
        <time>2012-04-19T11:45:34Z</time>
      </trkpt>
      <trkpt lat="48.18219" lon="-3.78774">
        <ele>45.799926757812</ele>
        <time>2012-04-19T11:45:49Z</time>
      </trkpt>
      <trkpt lat="48.18202" lon="-3.78886">
        <ele>41.954711914062</ele>
        <time>2012-04-19T11:46:10Z</time>
      </trkpt>
      <trkpt lat="48.18182" lon="-3.78965">
        <ele>39.070678710938</ele>
        <time>2012-04-19T11:46:27Z</time>
      </trkpt>
      <trkpt lat="48.18147" lon="-3.79032">
        <ele>38.590087890625</ele>
        <time>2012-04-19T11:46:43Z</time>
      </trkpt>
      <trkpt lat="48.1809" lon="-3.79127">
        <ele>38.590087890625</ele>
        <time>2012-04-19T11:47:07Z</time>
      </trkpt>
      <trkpt lat="48.18035" lon="-3.79194">
        <ele>40.032104492188</ele>
        <time>2012-04-19T11:47:27Z</time>
      </trkpt>
      <trkpt lat="48.17981" lon="-3.79222">
        <ele>40.512817382812</ele>
        <time>2012-04-19T11:47:44Z</time>
      </trkpt>
      <trkpt lat="48.17958" lon="-3.79221">
        <ele>40.512817382812</ele>
        <time>2012-04-19T11:47:50Z</time>
      </trkpt>
      <trkpt lat="48.17876" lon="-3.79234">
        <ele>40.993408203125</ele>
        <time>2012-04-19T11:48:11Z</time>
      </trkpt>
      <trkpt lat="48.17801" lon="-3.79205">
        <ele>40.993408203125</ele>
        <time>2012-04-19T11:48:31Z</time>
      </trkpt>
      <trkpt lat="48.17731" lon="-3.79178">
        <ele>41.954711914062</ele>
        <time>2012-04-19T11:48:50Z</time>
      </trkpt>
      <trkpt lat="48.17662" lon="-3.79154">
        <ele>40.512817382812</ele>
        <time>2012-04-19T11:49:09Z</time>
      </trkpt>
      <trkpt lat="48.1759" lon="-3.79136">
        <ele>39.070678710938</ele>
        <time>2012-04-19T11:49:29Z</time>
      </trkpt>
      <trkpt lat="48.17578" lon="-3.79134">
        <ele>39.55126953125</ele>
        <time>2012-04-19T11:49:32Z</time>
      </trkpt>
      <trkpt lat="48.17484" lon="-3.79119">
        <ele>40.032104492188</ele>
        <time>2012-04-19T11:49:57Z</time>
      </trkpt>
      <trkpt lat="48.17377" lon="-3.79123">
        <ele>39.070678710938</ele>
        <time>2012-04-19T11:50:26Z</time>
      </trkpt>
      <trkpt lat="48.173" lon="-3.79134">
        <ele>37.148071289062</ele>
        <time>2012-04-19T11:50:46Z</time>
      </trkpt>
      <trkpt lat="48.17239" lon="-3.79143">
        <ele>36.66748046875</ele>
        <time>2012-04-19T11:51:02Z</time>
      </trkpt>
      <trkpt lat="48.17154" lon="-3.79139">
        <ele>36.66748046875</ele>
        <time>2012-04-19T11:51:24Z</time>
      </trkpt>
      <trkpt lat="48.1709" lon="-3.79158">
        <ele>35.7060546875</ele>
        <time>2012-04-19T11:51:42Z</time>
      </trkpt>
      <trkpt lat="48.17018" lon="-3.79187">
        <ele>34.744873046875</ele>
        <time>2012-04-19T11:52:03Z</time>
      </trkpt>
      <trkpt lat="48.16973" lon="-3.79216">
        <ele>34.744873046875</ele>
        <time>2012-04-19T11:52:18Z</time>
      </trkpt>
      <trkpt lat="48.16917" lon="-3.79253">
        <ele>34.26416015625</ele>
        <time>2012-04-19T11:52:37Z</time>
      </trkpt>
      <trkpt lat="48.16843" lon="-3.79301">
        <ele>35.225463867188</ele>
        <time>2012-04-19T11:52:59Z</time>
      </trkpt>
      <trkpt lat="48.16832" lon="-3.79308">
        <ele>33.783447265625</ele>
        <time>2012-04-19T11:53:03Z</time>
      </trkpt>
      <trkpt lat="48.16799" lon="-3.79329">
        <ele>32.341552734375</ele>
        <time>2012-04-19T11:53:14Z</time>
      </trkpt>
      <trkpt lat="48.16741" lon="-3.79415">
        <ele>33.783447265625</ele>
        <time>2012-04-19T11:53:35Z</time>
      </trkpt>
      <trkpt lat="48.16693" lon="-3.79515">
        <ele>33.783447265625</ele>
        <time>2012-04-19T11:53:58Z</time>
      </trkpt>
      <trkpt lat="48.16661" lon="-3.79583">
        <ele>33.302856445312</ele>
        <time>2012-04-19T11:54:14Z</time>
      </trkpt>
      <trkpt lat="48.16627" lon="-3.79658">
        <ele>32.341552734375</ele>
        <time>2012-04-19T11:54:31Z</time>
      </trkpt>
      <trkpt lat="48.1659" lon="-3.79739">
        <ele>32.822265625</ele>
        <time>2012-04-19T11:54:49Z</time>
      </trkpt>
      <trkpt lat="48.16566" lon="-3.7981">
        <ele>32.341552734375</ele>
        <time>2012-04-19T11:55:03Z</time>
      </trkpt>
      <trkpt lat="48.16553" lon="-3.79887">
        <ele>32.341552734375</ele>
        <time>2012-04-19T11:55:18Z</time>
      </trkpt>
      <trkpt lat="48.16563" lon="-3.80014">
        <ele>33.302856445312</ele>
        <time>2012-04-19T11:55:40Z</time>
      </trkpt>
      <trkpt lat="48.16579" lon="-3.8013">
        <ele>33.783447265625</ele>
        <time>2012-04-19T11:56:00Z</time>
      </trkpt>
      <trkpt lat="48.16598" lon="-3.80207">
        <ele>32.822265625</ele>
        <time>2012-04-19T11:56:14Z</time>
      </trkpt>
      <trkpt lat="48.16622" lon="-3.80305">
        <ele>32.341552734375</ele>
        <time>2012-04-19T11:56:30Z</time>
      </trkpt>
      <trkpt lat="48.16625" lon="-3.80316">
        <ele>33.302856445312</ele>
        <time>2012-04-19T11:56:34Z</time>
      </trkpt>
      <trkpt lat="48.16625" lon="-3.80316">
        <ele>33.302856445312</ele>
        <time>2012-04-19T11:56:36Z</time>
      </trkpt>
      <trkpt lat="48.16673" lon="-3.80352">
        <ele>32.822265625</ele>
        <time>2012-04-19T11:56:46Z</time>
      </trkpt>
      <trkpt lat="48.16715" lon="-3.80384">
        <ele>32.341552734375</ele>
        <time>2012-04-19T11:56:58Z</time>
      </trkpt>
      <trkpt lat="48.16762" lon="-3.8042">
        <ele>31.860717773438</ele>
        <time>2012-04-19T11:57:11Z</time>
      </trkpt>
      <trkpt lat="48.16815" lon="-3.80459">
        <ele>31.860717773438</ele>
        <time>2012-04-19T11:57:25Z</time>
      </trkpt>
      <trkpt lat="48.16867" lon="-3.80499">
        <ele>31.380126953125</ele>
        <time>2012-04-19T11:57:40Z</time>
      </trkpt>
      <trkpt lat="48.16938" lon="-3.80552">
        <ele>31.860717773438</ele>
        <time>2012-04-19T11:58:00Z</time>
      </trkpt>
      <trkpt lat="48.16998" lon="-3.80598">
        <ele>31.860717773438</ele>
        <time>2012-04-19T11:58:17Z</time>
      </trkpt>
      <trkpt lat="48.1707" lon="-3.80629">
        <ele>31.860717773438</ele>
        <time>2012-04-19T11:58:38Z</time>
      </trkpt>
      <trkpt lat="48.17124" lon="-3.80649">
        <ele>32.341552734375</ele>
        <time>2012-04-19T11:58:53Z</time>
      </trkpt>
      <trkpt lat="48.17205" lon="-3.80678">
        <ele>32.822265625</ele>
        <time>2012-04-19T11:59:14Z</time>
      </trkpt>
      <trkpt lat="48.17278" lon="-3.80704">
        <ele>32.341552734375</ele>
        <time>2012-04-19T11:59:33Z</time>
      </trkpt>
      <trkpt lat="48.17346" lon="-3.80721">
        <ele>30.899536132812</ele>
        <time>2012-04-19T11:59:51Z</time>
      </trkpt>
      <trkpt lat="48.17413" lon="-3.80733">
        <ele>30.899536132812</ele>
        <time>2012-04-19T12:00:08Z</time>
      </trkpt>
      <trkpt lat="48.17484" lon="-3.80731">
        <ele>33.783447265625</ele>
        <time>2012-04-19T12:00:26Z</time>
      </trkpt>
      <trkpt lat="48.17599" lon="-3.80718">
        <ele>35.7060546875</ele>
        <time>2012-04-19T12:00:54Z</time>
      </trkpt>
      <trkpt lat="48.17653" lon="-3.80717">
        <ele>37.628662109375</ele>
        <time>2012-04-19T12:01:08Z</time>
      </trkpt>
      <trkpt lat="48.17743" lon="-3.80724">
        <ele>37.148071289062</ele>
        <time>2012-04-19T12:01:30Z</time>
      </trkpt>
      <trkpt lat="48.17823" lon="-3.8073">
        <ele>37.148071289062</ele>
        <time>2012-04-19T12:01:50Z</time>
      </trkpt>
      <trkpt lat="48.17839" lon="-3.80731">
        <ele>36.186767578125</ele>
        <time>2012-04-19T12:01:54Z</time>
      </trkpt>
      <trkpt lat="48.1791" lon="-3.80719">
        <ele>37.148071289062</ele>
        <time>2012-04-19T12:02:12Z</time>
      </trkpt>
      <trkpt lat="48.18012" lon="-3.80699">
        <ele>36.186767578125</ele>
        <time>2012-04-19T12:02:37Z</time>
      </trkpt>
      <trkpt lat="48.18056" lon="-3.8069">
        <ele>39.070678710938</ele>
        <time>2012-04-19T12:02:49Z</time>
      </trkpt>
      <trkpt lat="48.18109" lon="-3.80684">
        <ele>37.148071289062</ele>
        <time>2012-04-19T12:03:03Z</time>
      </trkpt>
      <trkpt lat="48.18185" lon="-3.80681">
        <ele>36.66748046875</ele>
        <time>2012-04-19T12:03:22Z</time>
      </trkpt>
      <trkpt lat="48.18261" lon="-3.80684">
        <ele>35.7060546875</ele>
        <time>2012-04-19T12:03:41Z</time>
      </trkpt>
      <trkpt lat="48.18347" lon="-3.80703">
        <ele>33.783447265625</ele>
        <time>2012-04-19T12:04:04Z</time>
      </trkpt>
      <trkpt lat="48.18396" lon="-3.80755">
        <ele>32.341552734375</ele>
        <time>2012-04-19T12:04:19Z</time>
      </trkpt>
      <trkpt lat="48.18415" lon="-3.808">
        <ele>32.341552734375</ele>
        <time>2012-04-19T12:04:32Z</time>
      </trkpt>
      <trkpt lat="48.1844" lon="-3.80848">
        <ele>31.860717773438</ele>
        <time>2012-04-19T12:04:52Z</time>
      </trkpt>
      <trkpt lat="48.18461" lon="-3.80957">
        <ele>32.822265625</ele>
        <time>2012-04-19T12:05:13Z</time>
      </trkpt>
      <trkpt lat="48.18463" lon="-3.80997">
        <ele>33.302856445312</ele>
        <time>2012-04-19T12:05:27Z</time>
      </trkpt>
      <trkpt lat="48.18465" lon="-3.81035">
        <ele>35.7060546875</ele>
        <time>2012-04-19T12:05:42Z</time>
      </trkpt>
      <trkpt lat="48.18479" lon="-3.81041">
        <ele>35.7060546875</ele>
        <time>2012-04-19T12:05:46Z</time>
      </trkpt>
      <trkpt lat="48.18436" lon="-3.81054">
        <ele>34.26416015625</ele>
        <time>2012-04-19T12:06:02Z</time>
      </trkpt>
      <trkpt lat="48.18372" lon="-3.81034">
        <ele>35.225463867188</ele>
        <time>2012-04-19T12:06:16Z</time>
      </trkpt>
      <trkpt lat="48.18369" lon="-3.81041">
        <ele>35.7060546875</ele>
        <time>2012-04-19T12:06:18Z</time>
      </trkpt>
      <trkpt lat="48.18361" lon="-3.81044">
        <ele>36.66748046875</ele>
        <time>2012-04-19T12:06:30Z</time>
      </trkpt>
      <trkpt lat="48.18361" lon="-3.81042">
        <ele>36.186767578125</ele>
        <time>2012-04-19T12:06:46Z</time>
      </trkpt>
      <trkpt lat="48.18366" lon="-3.81049">
        <ele>36.66748046875</ele>
        <time>2012-04-19T12:06:51Z</time>
      </trkpt>
      <trkpt lat="48.18379" lon="-3.81136">
        <ele>37.148071289062</ele>
        <time>2012-04-19T12:07:09Z</time>
      </trkpt>
      <trkpt lat="48.18381" lon="-3.81175">
        <ele>35.7060546875</ele>
        <time>2012-04-19T12:07:16Z</time>
      </trkpt>
      <trkpt lat="48.18376" lon="-3.81171">
        <ele>36.186767578125</ele>
        <time>2012-04-19T12:07:21Z</time>
      </trkpt>
      <trkpt lat="48.18376" lon="-3.81157">
        <ele>36.186767578125</ele>
        <time>2012-04-19T12:07:25Z</time>
      </trkpt>
      <trkpt lat="48.18369" lon="-3.81095">
        <ele>39.070678710938</ele>
        <time>2012-04-19T12:07:40Z</time>
      </trkpt>
      <trkpt lat="48.18353" lon="-3.81035">
        <ele>40.993408203125</ele>
        <time>2012-04-19T12:07:56Z</time>
      </trkpt>
      <trkpt lat="48.18351" lon="-3.81031">
        <ele>41.473999023438</ele>
        <time>2012-04-19T12:08:02Z</time>
      </trkpt>
      <trkpt lat="48.18344" lon="-3.8101">
        <ele>44.838623046875</ele>
        <time>2012-04-19T12:08:16Z</time>
      </trkpt>
      <trkpt lat="48.18344" lon="-3.81003">
        <ele>44.838623046875</ele>
        <time>2012-04-19T12:08:21Z</time>
      </trkpt>
      <trkpt lat="48.18341" lon="-3.80996">
        <ele>44.838623046875</ele>
        <time>2012-04-19T12:08:39Z</time>
      </trkpt>
      <trkpt lat="48.18333" lon="-3.80995">
        <ele>45.799926757812</ele>
        <time>2012-04-19T12:09:11Z</time>
      </trkpt>
      <trkpt lat="48.18333" lon="-3.80991">
        <ele>46.280639648438</ele>
        <time>2012-04-19T12:09:21Z</time>
      </trkpt>
      <trkpt lat="48.18336" lon="-3.80996">
        <ele>45.319213867188</ele>
        <time>2012-04-19T12:09:39Z</time>
      </trkpt>
      <trkpt lat="48.18337" lon="-3.80996">
        <ele>44.838623046875</ele>
        <time>2012-04-19T12:11:13Z</time>
      </trkpt>
      <trkpt lat="48.18341" lon="-3.81012">
        <ele>42.916015625</ele>
        <time>2012-04-19T12:11:26Z</time>
      </trkpt>
      <trkpt lat="48.18345" lon="-3.81016">
        <ele>43.877319335938</ele>
        <time>2012-04-19T12:11:29Z</time>
      </trkpt>
      <trkpt lat="48.18351" lon="-3.81033">
        <ele>43.396606445312</ele>
        <time>2012-04-19T12:11:48Z</time>
      </trkpt>
      <trkpt lat="48.18353" lon="-3.81035">
        <ele>41.473999023438</ele>
        <time>2012-04-19T12:12:09Z</time>
      </trkpt>
      <trkpt lat="48.18355" lon="-3.81038">
        <ele>41.473999023438</ele>
        <time>2012-04-19T12:12:11Z</time>
      </trkpt>
      <trkpt lat="48.18356" lon="-3.81046">
        <ele>42.435424804688</ele>
        <time>2012-04-19T12:12:29Z</time>
      </trkpt>
      <trkpt lat="48.1836" lon="-3.81062">
        <ele>41.954711914062</ele>
        <time>2012-04-19T12:12:48Z</time>
      </trkpt>
      <trkpt lat="48.18378" lon="-3.81152">
        <ele>40.032104492188</ele>
        <time>2012-04-19T12:13:03Z</time>
      </trkpt>
      <trkpt lat="48.18376" lon="-3.81185">
        <ele>39.070678710938</ele>
        <time>2012-04-19T12:13:08Z</time>
      </trkpt>
      <trkpt lat="48.18374" lon="-3.81197">
        <ele>38.590087890625</ele>
        <time>2012-04-19T12:13:10Z</time>
      </trkpt>
      <trkpt lat="48.18359" lon="-3.81256">
        <ele>41.954711914062</ele>
        <time>2012-04-19T12:13:25Z</time>
      </trkpt>
      <trkpt lat="48.18356" lon="-3.8126">
        <ele>43.396606445312</ele>
        <time>2012-04-19T12:13:39Z</time>
      </trkpt>
      <trkpt lat="48.18354" lon="-3.81267">
        <ele>46.280639648438</ele>
        <time>2012-04-19T12:13:45Z</time>
      </trkpt>
      <trkpt lat="48.18349" lon="-3.81282">
        <ele>45.799926757812</ele>
        <time>2012-04-19T12:13:50Z</time>
      </trkpt>
      <trkpt lat="48.18341" lon="-3.81347">
        <ele>48.683959960938</ele>
        <time>2012-04-19T12:14:04Z</time>
      </trkpt>
      <trkpt lat="48.18325" lon="-3.81435">
        <ele>45.319213867188</ele>
        <time>2012-04-19T12:14:21Z</time>
      </trkpt>
      <trkpt lat="48.18304" lon="-3.81526">
        <ele>42.916015625</ele>
        <time>2012-04-19T12:14:37Z</time>
      </trkpt>
      <trkpt lat="48.18263" lon="-3.81594">
        <ele>42.916015625</ele>
        <time>2012-04-19T12:14:54Z</time>
      </trkpt>
      <trkpt lat="48.18219" lon="-3.81639">
        <ele>41.473999023438</ele>
        <time>2012-04-19T12:15:09Z</time>
      </trkpt>
      <trkpt lat="48.18176" lon="-3.8167">
        <ele>41.473999023438</ele>
        <time>2012-04-19T12:15:25Z</time>
      </trkpt>
      <trkpt lat="48.18153" lon="-3.81679">
        <ele>43.396606445312</ele>
        <time>2012-04-19T12:15:38Z</time>
      </trkpt>
      <trkpt lat="48.18153" lon="-3.8168">
        <ele>43.396606445312</ele>
        <time>2012-04-19T12:15:46Z</time>
      </trkpt>
      <trkpt lat="48.18172" lon="-3.81707">
        <ele>40.032104492188</ele>
        <time>2012-04-19T12:15:59Z</time>
      </trkpt>
      <trkpt lat="48.18175" lon="-3.81706">
        <ele>40.032104492188</ele>
        <time>2012-04-19T12:16:00Z</time>
      </trkpt>
      <trkpt lat="48.18184" lon="-3.81701">
        <ele>39.070678710938</ele>
        <time>2012-04-19T12:16:11Z</time>
      </trkpt>
      <trkpt lat="48.18188" lon="-3.81698">
        <ele>39.55126953125</ele>
        <time>2012-04-19T12:16:28Z</time>
      </trkpt>
      <trkpt lat="48.18188" lon="-3.81698">
        <ele>39.070678710938</ele>
        <time>2012-04-19T12:26:45Z</time>
      </trkpt>
    </trkseg>
  </trk>
  <trk>
    <name><![CDATA[ACTIVE LOG 016]]></name>
    <trkseg>
      <trkpt lat="48.18167" lon="-3.81759">
        <ele>40.993408203125</ele>
        <time>2012-04-20T08:51:09Z</time>
      </trkpt>
      <trkpt lat="48.18182" lon="-3.81691">
        <ele>17.921752929688</ele>
        <time>2012-04-20T08:51:47Z</time>
      </trkpt>
      <trkpt lat="48.18182" lon="-3.81687">
        <ele>24.170288085938</ele>
        <time>2012-04-20T08:53:07Z</time>
      </trkpt>
      <trkpt lat="48.18186" lon="-3.81669">
        <ele>23.689575195312</ele>
        <time>2012-04-20T08:53:29Z</time>
      </trkpt>
      <trkpt lat="48.18178" lon="-3.81692">
        <ele>21.766967773438</ele>
        <time>2012-04-20T08:53:46Z</time>
      </trkpt>
      <trkpt lat="48.18177" lon="-3.81699">
        <ele>12.634399414062</ele>
        <time>2012-04-20T08:54:10Z</time>
      </trkpt>
      <trkpt lat="48.18175" lon="-3.81694">
        <ele>6.3858642578125</ele>
        <time>2012-04-20T08:54:30Z</time>
      </trkpt>
      <trkpt lat="48.18165" lon="-3.81711">
        <ele>7.34716796875</ele>
        <time>2012-04-20T08:54:56Z</time>
      </trkpt>
      <trkpt lat="48.18156" lon="-3.8172">
        <ele>6.866455078125</ele>
        <time>2012-04-20T08:55:15Z</time>
      </trkpt>
      <trkpt lat="48.18169" lon="-3.81729">
        <ele>12.15380859375</ele>
        <time>2012-04-20T08:55:47Z</time>
      </trkpt>
      <trkpt lat="48.18166" lon="-3.81745">
        <ele>22.728271484375</ele>
        <time>2012-04-20T08:56:45Z</time>
      </trkpt>
      <trkpt lat="48.18174" lon="-3.81742">
        <ele>30.418823242188</ele>
        <time>2012-04-20T08:57:19Z</time>
      </trkpt>
      <trkpt lat="48.1817" lon="-3.81725">
        <ele>36.186767578125</ele>
        <time>2012-04-20T08:57:24Z</time>
      </trkpt>
      <trkpt lat="48.18164" lon="-3.817">
        <ele>39.55126953125</ele>
        <time>2012-04-20T08:57:41Z</time>
      </trkpt>
      <trkpt lat="48.18165" lon="-3.81685">
        <ele>40.993408203125</ele>
        <time>2012-04-20T08:57:48Z</time>
      </trkpt>
      <trkpt lat="48.18168" lon="-3.81681">
        <ele>40.993408203125</ele>
        <time>2012-04-20T08:57:52Z</time>
      </trkpt>
      <trkpt lat="48.18206" lon="-3.81655">
        <ele>45.319213867188</ele>
        <time>2012-04-20T08:58:22Z</time>
      </trkpt>
      <trkpt lat="48.18235" lon="-3.81633">
        <ele>44.838623046875</ele>
        <time>2012-04-20T08:58:48Z</time>
      </trkpt>
      <trkpt lat="48.18236" lon="-3.81629">
        <ele>44.838623046875</ele>
        <time>2012-04-20T08:59:05Z</time>
      </trkpt>
      <trkpt lat="48.18262" lon="-3.816">
        <ele>43.877319335938</ele>
        <time>2012-04-20T08:59:18Z</time>
      </trkpt>
      <trkpt lat="48.18308" lon="-3.81525">
        <ele>43.396606445312</ele>
        <time>2012-04-20T08:59:37Z</time>
      </trkpt>
      <trkpt lat="48.18328" lon="-3.81437">
        <ele>45.319213867188</ele>
        <time>2012-04-20T08:59:55Z</time>
      </trkpt>
      <trkpt lat="48.18346" lon="-3.81351">
        <ele>45.799926757812</ele>
        <time>2012-04-20T09:00:12Z</time>
      </trkpt>
      <trkpt lat="48.18346" lon="-3.81347">
        <ele>46.280639648438</ele>
        <time>2012-04-20T09:00:22Z</time>
      </trkpt>
      <trkpt lat="48.1835" lon="-3.81316">
        <ele>45.319213867188</ele>
        <time>2012-04-20T09:01:03Z</time>
      </trkpt>
      <trkpt lat="48.18358" lon="-3.81254">
        <ele>43.396606445312</ele>
        <time>2012-04-20T09:01:13Z</time>
      </trkpt>
      <trkpt lat="48.18375" lon="-3.81196">
        <ele>40.512817382812</ele>
        <time>2012-04-20T09:01:20Z</time>
      </trkpt>
      <trkpt lat="48.1838" lon="-3.81149">
        <ele>40.512817382812</ele>
        <time>2012-04-20T09:01:25Z</time>
      </trkpt>
      <trkpt lat="48.18377" lon="-3.81118">
        <ele>40.993408203125</ele>
        <time>2012-04-20T09:01:29Z</time>
      </trkpt>
      <trkpt lat="48.1837" lon="-3.81031">
        <ele>42.916015625</ele>
        <time>2012-04-20T09:01:45Z</time>
      </trkpt>
      <trkpt lat="48.18386" lon="-3.81018">
        <ele>41.473999023438</ele>
        <time>2012-04-20T09:01:52Z</time>
      </trkpt>
      <trkpt lat="48.18397" lon="-3.81046">
        <ele>40.993408203125</ele>
        <time>2012-04-20T09:01:56Z</time>
      </trkpt>
      <trkpt lat="48.1848" lon="-3.81039">
        <ele>40.993408203125</ele>
        <time>2012-04-20T09:02:14Z</time>
      </trkpt>
      <trkpt lat="48.18483" lon="-3.81034">
        <ele>40.993408203125</ele>
        <time>2012-04-20T09:02:16Z</time>
      </trkpt>
      <trkpt lat="48.18486" lon="-3.8102">
        <ele>40.512817382812</ele>
        <time>2012-04-20T09:02:20Z</time>
      </trkpt>
      <trkpt lat="48.1849" lon="-3.80972">
        <ele>38.109375</ele>
        <time>2012-04-20T09:02:29Z</time>
      </trkpt>
      <trkpt lat="48.18463" lon="-3.80988">
        <ele>36.66748046875</ele>
        <time>2012-04-20T09:02:36Z</time>
      </trkpt>
      <trkpt lat="48.18466" lon="-3.81105">
        <ele>34.744873046875</ele>
        <time>2012-04-20T09:02:51Z</time>
      </trkpt>
      <trkpt lat="48.18465" lon="-3.81237">
        <ele>31.380126953125</ele>
        <time>2012-04-20T09:03:10Z</time>
      </trkpt>
      <trkpt lat="48.18462" lon="-3.81384">
        <ele>32.822265625</ele>
        <time>2012-04-20T09:03:31Z</time>
      </trkpt>
      <trkpt lat="48.18438" lon="-3.8153">
        <ele>35.7060546875</ele>
        <time>2012-04-20T09:03:52Z</time>
      </trkpt>
      <trkpt lat="48.18392" lon="-3.81661">
        <ele>36.186767578125</ele>
        <time>2012-04-20T09:04:14Z</time>
      </trkpt>
      <trkpt lat="48.18355" lon="-3.81739">
        <ele>37.628662109375</ele>
        <time>2012-04-20T09:04:28Z</time>
      </trkpt>
      <trkpt lat="48.1831" lon="-3.81801">
        <ele>37.628662109375</ele>
        <time>2012-04-20T09:04:42Z</time>
      </trkpt>
      <trkpt lat="48.18233" lon="-3.81854">
        <ele>39.55126953125</ele>
        <time>2012-04-20T09:05:00Z</time>
      </trkpt>
      <trkpt lat="48.18141" lon="-3.81888">
        <ele>40.993408203125</ele>
        <time>2012-04-20T09:05:22Z</time>
      </trkpt>
      <trkpt lat="48.18044" lon="-3.8189">
        <ele>41.954711914062</ele>
        <time>2012-04-20T09:05:44Z</time>
      </trkpt>
      <trkpt lat="48.17925" lon="-3.81865">
        <ele>36.66748046875</ele>
        <time>2012-04-20T09:06:11Z</time>
      </trkpt>
      <trkpt lat="48.17828" lon="-3.81853">
        <ele>38.109375</ele>
        <time>2012-04-20T09:06:34Z</time>
      </trkpt>
      <trkpt lat="48.17752" lon="-3.81865">
        <ele>38.590087890625</ele>
        <time>2012-04-20T09:06:52Z</time>
      </trkpt>
      <trkpt lat="48.17645" lon="-3.81882">
        <ele>37.148071289062</ele>
        <time>2012-04-20T09:07:16Z</time>
      </trkpt>
      <trkpt lat="48.17546" lon="-3.81888">
        <ele>40.993408203125</ele>
        <time>2012-04-20T09:07:37Z</time>
      </trkpt>
      <trkpt lat="48.17452" lon="-3.8189">
        <ele>37.148071289062</ele>
        <time>2012-04-20T09:07:58Z</time>
      </trkpt>
      <trkpt lat="48.17357" lon="-3.81891">
        <ele>34.744873046875</ele>
        <time>2012-04-20T09:08:20Z</time>
      </trkpt>
      <trkpt lat="48.17252" lon="-3.81893">
        <ele>34.744873046875</ele>
        <time>2012-04-20T09:08:43Z</time>
      </trkpt>
      <trkpt lat="48.17171" lon="-3.81895">
        <ele>35.225463867188</ele>
        <time>2012-04-20T09:09:04Z</time>
      </trkpt>
      <trkpt lat="48.17062" lon="-3.81905">
        <ele>34.26416015625</ele>
        <time>2012-04-20T09:09:30Z</time>
      </trkpt>
      <trkpt lat="48.16998" lon="-3.81912">
        <ele>35.7060546875</ele>
        <time>2012-04-20T09:09:50Z</time>
      </trkpt>
      <trkpt lat="48.16924" lon="-3.81912">
        <ele>36.66748046875</ele>
        <time>2012-04-20T09:10:05Z</time>
      </trkpt>
      <trkpt lat="48.1692" lon="-3.81912">
        <ele>36.186767578125</ele>
        <time>2012-04-20T09:10:06Z</time>
      </trkpt>
      <trkpt lat="48.16879" lon="-3.81915">
        <ele>37.148071289062</ele>
        <time>2012-04-20T09:10:16Z</time>
      </trkpt>
      <trkpt lat="48.16794" lon="-3.81923">
        <ele>37.148071289062</ele>
        <time>2012-04-20T09:10:37Z</time>
      </trkpt>
      <trkpt lat="48.16724" lon="-3.81946">
        <ele>36.66748046875</ele>
        <time>2012-04-20T09:10:55Z</time>
      </trkpt>
      <trkpt lat="48.16668" lon="-3.81969">
        <ele>37.148071289062</ele>
        <time>2012-04-20T09:11:10Z</time>
      </trkpt>
      <trkpt lat="48.16601" lon="-3.81989">
        <ele>38.109375</ele>
        <time>2012-04-20T09:11:26Z</time>
      </trkpt>
      <trkpt lat="48.16565" lon="-3.81999">
        <ele>39.55126953125</ele>
        <time>2012-04-20T09:11:35Z</time>
      </trkpt>
      <trkpt lat="48.16464" lon="-3.82011">
        <ele>40.032104492188</ele>
        <time>2012-04-20T09:12:00Z</time>
      </trkpt>
      <trkpt lat="48.16393" lon="-3.82005">
        <ele>36.186767578125</ele>
        <time>2012-04-20T09:12:17Z</time>
      </trkpt>
      <trkpt lat="48.16346" lon="-3.81989">
        <ele>33.783447265625</ele>
        <time>2012-04-20T09:12:34Z</time>
      </trkpt>
      <trkpt lat="48.16259" lon="-3.81937">
        <ele>34.744873046875</ele>
        <time>2012-04-20T09:12:50Z</time>
      </trkpt>
      <trkpt lat="48.16224" lon="-3.81916">
        <ele>33.302856445312</ele>
        <time>2012-04-20T09:12:59Z</time>
      </trkpt>
      <trkpt lat="48.16183" lon="-3.81891">
        <ele>33.783447265625</ele>
        <time>2012-04-20T09:13:09Z</time>
      </trkpt>
      <trkpt lat="48.1615" lon="-3.81878">
        <ele>33.783447265625</ele>
        <time>2012-04-20T09:13:17Z</time>
      </trkpt>
      <trkpt lat="48.16126" lon="-3.81878">
        <ele>33.783447265625</ele>
        <time>2012-04-20T09:13:23Z</time>
      </trkpt>
      <trkpt lat="48.16086" lon="-3.81909">
        <ele>33.783447265625</ele>
        <time>2012-04-20T09:13:35Z</time>
      </trkpt>
      <trkpt lat="48.16041" lon="-3.81987">
        <ele>35.225463867188</ele>
        <time>2012-04-20T09:13:52Z</time>
      </trkpt>
      <trkpt lat="48.15999" lon="-3.82055">
        <ele>35.225463867188</ele>
        <time>2012-04-20T09:14:06Z</time>
      </trkpt>
      <trkpt lat="48.15948" lon="-3.8211">
        <ele>31.860717773438</ele>
        <time>2012-04-20T09:14:20Z</time>
      </trkpt>
      <trkpt lat="48.15943" lon="-3.82118">
        <ele>31.380126953125</ele>
        <time>2012-04-20T09:14:22Z</time>
      </trkpt>
      <trkpt lat="48.15919" lon="-3.82156">
        <ele>28.015502929688</ele>
        <time>2012-04-20T09:14:30Z</time>
      </trkpt>
      <trkpt lat="48.1589" lon="-3.82204">
        <ele>28.976928710938</ele>
        <time>2012-04-20T09:14:39Z</time>
      </trkpt>
      <trkpt lat="48.15877" lon="-3.82237">
        <ele>30.418823242188</ele>
        <time>2012-04-20T09:14:45Z</time>
      </trkpt>
      <trkpt lat="48.15896" lon="-3.82389">
        <ele>32.341552734375</ele>
        <time>2012-04-20T09:15:07Z</time>
      </trkpt>
      <trkpt lat="48.15925" lon="-3.82535">
        <ele>34.744873046875</ele>
        <time>2012-04-20T09:15:29Z</time>
      </trkpt>
      <trkpt lat="48.15929" lon="-3.8256">
        <ele>36.186767578125</ele>
        <time>2012-04-20T09:15:33Z</time>
      </trkpt>
      <trkpt lat="48.15943" lon="-3.8263">
        <ele>35.7060546875</ele>
        <time>2012-04-20T09:15:43Z</time>
      </trkpt>
      <trkpt lat="48.1596" lon="-3.82712">
        <ele>40.993408203125</ele>
        <time>2012-04-20T09:15:57Z</time>
      </trkpt>
      <trkpt lat="48.15961" lon="-3.828">
        <ele>40.512817382812</ele>
        <time>2012-04-20T09:16:09Z</time>
      </trkpt>
      <trkpt lat="48.15957" lon="-3.82872">
        <ele>40.512817382812</ele>
        <time>2012-04-20T09:16:19Z</time>
      </trkpt>
      <trkpt lat="48.15956" lon="-3.82893">
        <ele>40.512817382812</ele>
        <time>2012-04-20T09:16:22Z</time>
      </trkpt>
      <trkpt lat="48.15937" lon="-3.83065">
        <ele>39.070678710938</ele>
        <time>2012-04-20T09:16:46Z</time>
      </trkpt>
      <trkpt lat="48.15908" lon="-3.83237">
        <ele>37.628662109375</ele>
        <time>2012-04-20T09:17:10Z</time>
      </trkpt>
      <trkpt lat="48.159" lon="-3.83286">
        <ele>39.070678710938</ele>
        <time>2012-04-20T09:17:17Z</time>
      </trkpt>
      <trkpt lat="48.15884" lon="-3.83406">
        <ele>40.032104492188</ele>
        <time>2012-04-20T09:17:35Z</time>
      </trkpt>
      <trkpt lat="48.15871" lon="-3.83524">
        <ele>40.512817382812</ele>
        <time>2012-04-20T09:17:52Z</time>
      </trkpt>
      <trkpt lat="48.15863" lon="-3.83643">
        <ele>39.070678710938</ele>
        <time>2012-04-20T09:18:09Z</time>
      </trkpt>
      <trkpt lat="48.15873" lon="-3.8377">
        <ele>39.55126953125</ele>
        <time>2012-04-20T09:18:27Z</time>
      </trkpt>
      <trkpt lat="48.15895" lon="-3.83909">
        <ele>38.109375</ele>
        <time>2012-04-20T09:18:47Z</time>
      </trkpt>
      <trkpt lat="48.1592" lon="-3.84037">
        <ele>38.109375</ele>
        <time>2012-04-20T09:19:05Z</time>
      </trkpt>
      <trkpt lat="48.15949" lon="-3.84133">
        <ele>36.186767578125</ele>
        <time>2012-04-20T09:19:19Z</time>
      </trkpt>
      <trkpt lat="48.16008" lon="-3.84266">
        <ele>35.7060546875</ele>
        <time>2012-04-20T09:19:41Z</time>
      </trkpt>
      <trkpt lat="48.16055" lon="-3.8437">
        <ele>33.302856445312</ele>
        <time>2012-04-20T09:19:58Z</time>
      </trkpt>
      <trkpt lat="48.16085" lon="-3.84462">
        <ele>32.822265625</ele>
        <time>2012-04-20T09:20:12Z</time>
      </trkpt>
      <trkpt lat="48.16097" lon="-3.845">
        <ele>32.341552734375</ele>
        <time>2012-04-20T09:20:18Z</time>
      </trkpt>
      <trkpt lat="48.16128" lon="-3.84601">
        <ele>31.860717773438</ele>
        <time>2012-04-20T09:20:33Z</time>
      </trkpt>
      <trkpt lat="48.16132" lon="-3.84612">
        <ele>32.341552734375</ele>
        <time>2012-04-20T09:20:38Z</time>
      </trkpt>
      <trkpt lat="48.1615" lon="-3.8468">
        <ele>33.783447265625</ele>
        <time>2012-04-20T09:20:46Z</time>
      </trkpt>
      <trkpt lat="48.16171" lon="-3.84759">
        <ele>35.225463867188</ele>
        <time>2012-04-20T09:20:58Z</time>
      </trkpt>
      <trkpt lat="48.16234" lon="-3.84906">
        <ele>34.26416015625</ele>
        <time>2012-04-20T09:21:21Z</time>
      </trkpt>
      <trkpt lat="48.16299" lon="-3.85024">
        <ele>33.783447265625</ele>
        <time>2012-04-20T09:21:42Z</time>
      </trkpt>
      <trkpt lat="48.16356" lon="-3.85124">
        <ele>32.822265625</ele>
        <time>2012-04-20T09:22:00Z</time>
      </trkpt>
      <trkpt lat="48.16399" lon="-3.85238">
        <ele>33.783447265625</ele>
        <time>2012-04-20T09:22:20Z</time>
      </trkpt>
      <trkpt lat="48.16443" lon="-3.85382">
        <ele>33.302856445312</ele>
        <time>2012-04-20T09:22:41Z</time>
      </trkpt>
      <trkpt lat="48.16451" lon="-3.85408">
        <ele>33.783447265625</ele>
        <time>2012-04-20T09:22:45Z</time>
      </trkpt>
      <trkpt lat="48.16498" lon="-3.85561">
        <ele>34.26416015625</ele>
        <time>2012-04-20T09:23:08Z</time>
      </trkpt>
      <trkpt lat="48.1655" lon="-3.85727">
        <ele>36.186767578125</ele>
        <time>2012-04-20T09:23:34Z</time>
      </trkpt>
      <trkpt lat="48.16568" lon="-3.85878">
        <ele>35.7060546875</ele>
        <time>2012-04-20T09:23:57Z</time>
      </trkpt>
      <trkpt lat="48.1656" lon="-3.85988">
        <ele>33.783447265625</ele>
        <time>2012-04-20T09:24:17Z</time>
      </trkpt>
      <trkpt lat="48.16542" lon="-3.86033">
        <ele>33.302856445312</ele>
        <time>2012-04-20T09:24:33Z</time>
      </trkpt>
      <trkpt lat="48.16535" lon="-3.86047">
        <ele>32.822265625</ele>
        <time>2012-04-20T09:24:49Z</time>
      </trkpt>
      <trkpt lat="48.16535" lon="-3.86047">
        <ele>32.822265625</ele>
        <time>2012-04-20T09:25:41Z</time>
      </trkpt>
      <trkpt lat="48.16533" lon="-3.86052">
        <ele>32.822265625</ele>
        <time>2012-04-20T09:25:43Z</time>
      </trkpt>
      <trkpt lat="48.16518" lon="-3.86102">
        <ele>32.822265625</ele>
        <time>2012-04-20T09:25:58Z</time>
      </trkpt>
      <trkpt lat="48.16518" lon="-3.86133">
        <ele>36.186767578125</ele>
        <time>2012-04-20T09:26:07Z</time>
      </trkpt>
      <trkpt lat="48.16521" lon="-3.86154">
        <ele>35.225463867188</ele>
        <time>2012-04-20T09:26:13Z</time>
      </trkpt>
      <trkpt lat="48.16526" lon="-3.86177">
        <ele>34.26416015625</ele>
        <time>2012-04-20T09:26:17Z</time>
      </trkpt>
      <trkpt lat="48.16531" lon="-3.86204">
        <ele>33.783447265625</ele>
        <time>2012-04-20T09:26:21Z</time>
      </trkpt>
      <trkpt lat="48.16554" lon="-3.86348">
        <ele>35.225463867188</ele>
        <time>2012-04-20T09:26:42Z</time>
      </trkpt>
      <trkpt lat="48.16568" lon="-3.86476">
        <ele>35.7060546875</ele>
        <time>2012-04-20T09:27:01Z</time>
      </trkpt>
      <trkpt lat="48.16573" lon="-3.86527">
        <ele>34.26416015625</ele>
        <time>2012-04-20T09:27:11Z</time>
      </trkpt>
      <trkpt lat="48.16597" lon="-3.86599">
        <ele>35.225463867188</ele>
        <time>2012-04-20T09:27:24Z</time>
      </trkpt>
      <trkpt lat="48.16665" lon="-3.86707">
        <ele>34.26416015625</ele>
        <time>2012-04-20T09:27:46Z</time>
      </trkpt>
      <trkpt lat="48.16751" lon="-3.86806">
        <ele>33.302856445312</ele>
        <time>2012-04-20T09:28:09Z</time>
      </trkpt>
      <trkpt lat="48.16768" lon="-3.86834">
        <ele>33.783447265625</ele>
        <time>2012-04-20T09:28:15Z</time>
      </trkpt>
      <trkpt lat="48.16774" lon="-3.86851">
        <ele>34.26416015625</ele>
        <time>2012-04-20T09:28:18Z</time>
      </trkpt>
      <trkpt lat="48.16791" lon="-3.86908">
        <ele>35.7060546875</ele>
        <time>2012-04-20T09:28:28Z</time>
      </trkpt>
      <trkpt lat="48.16827" lon="-3.87063">
        <ele>33.783447265625</ele>
        <time>2012-04-20T09:28:51Z</time>
      </trkpt>
      <trkpt lat="48.1685" lon="-3.87139">
        <ele>32.822265625</ele>
        <time>2012-04-20T09:29:05Z</time>
      </trkpt>
      <trkpt lat="48.16874" lon="-3.87205">
        <ele>32.822265625</ele>
        <time>2012-04-20T09:29:17Z</time>
      </trkpt>
      <trkpt lat="48.16947" lon="-3.87376">
        <ele>31.860717773438</ele>
        <time>2012-04-20T09:29:45Z</time>
      </trkpt>
      <trkpt lat="48.17022" lon="-3.87484">
        <ele>32.341552734375</ele>
        <time>2012-04-20T09:30:07Z</time>
      </trkpt>
      <trkpt lat="48.17028" lon="-3.87492">
        <ele>31.860717773438</ele>
        <time>2012-04-20T09:30:09Z</time>
      </trkpt>
      <trkpt lat="48.17094" lon="-3.87575">
        <ele>32.341552734375</ele>
        <time>2012-04-20T09:30:30Z</time>
      </trkpt>
      <trkpt lat="48.17143" lon="-3.87708">
        <ele>32.822265625</ele>
        <time>2012-04-20T09:30:54Z</time>
      </trkpt>
      <trkpt lat="48.17175" lon="-3.87862">
        <ele>33.783447265625</ele>
        <time>2012-04-20T09:31:17Z</time>
      </trkpt>
      <trkpt lat="48.17205" lon="-3.88037">
        <ele>33.783447265625</ele>
        <time>2012-04-20T09:31:42Z</time>
      </trkpt>
      <trkpt lat="48.17216" lon="-3.88098">
        <ele>33.302856445312</ele>
        <time>2012-04-20T09:31:51Z</time>
      </trkpt>
      <trkpt lat="48.17245" lon="-3.88236">
        <ele>32.341552734375</ele>
        <time>2012-04-20T09:32:10Z</time>
      </trkpt>
      <trkpt lat="48.17303" lon="-3.88345">
        <ele>30.899536132812</ele>
        <time>2012-04-20T09:32:28Z</time>
      </trkpt>
      <trkpt lat="48.17383" lon="-3.88474">
        <ele>30.899536132812</ele>
        <time>2012-04-20T09:32:52Z</time>
      </trkpt>
      <trkpt lat="48.17412" lon="-3.88548">
        <ele>31.860717773438</ele>
        <time>2012-04-20T09:33:05Z</time>
      </trkpt>
      <trkpt lat="48.17424" lon="-3.88579">
        <ele>31.380126953125</ele>
        <time>2012-04-20T09:33:10Z</time>
      </trkpt>
      <trkpt lat="48.17446" lon="-3.88661">
        <ele>31.380126953125</ele>
        <time>2012-04-20T09:33:23Z</time>
      </trkpt>
      <trkpt lat="48.17481" lon="-3.88799">
        <ele>32.822265625</ele>
        <time>2012-04-20T09:33:43Z</time>
      </trkpt>
      <trkpt lat="48.17518" lon="-3.88904">
        <ele>31.860717773438</ele>
        <time>2012-04-20T09:33:59Z</time>
      </trkpt>
      <trkpt lat="48.17536" lon="-3.88949">
        <ele>32.822265625</ele>
        <time>2012-04-20T09:34:06Z</time>
      </trkpt>
      <trkpt lat="48.17581" lon="-3.89065">
        <ele>31.380126953125</ele>
        <time>2012-04-20T09:34:25Z</time>
      </trkpt>
      <trkpt lat="48.17606" lon="-3.89111">
        <ele>30.418823242188</ele>
        <time>2012-04-20T09:34:34Z</time>
      </trkpt>
      <trkpt lat="48.17615" lon="-3.89133">
        <ele>30.418823242188</ele>
        <time>2012-04-20T09:34:39Z</time>
      </trkpt>
      <trkpt lat="48.17657" lon="-3.89265">
        <ele>29.45751953125</ele>
        <time>2012-04-20T09:35:00Z</time>
      </trkpt>
      <trkpt lat="48.17714" lon="-3.89365">
        <ele>28.015502929688</ele>
        <time>2012-04-20T09:35:18Z</time>
      </trkpt>
      <trkpt lat="48.17789" lon="-3.89498">
        <ele>28.976928710938</ele>
        <time>2012-04-20T09:35:43Z</time>
      </trkpt>
      <trkpt lat="48.17847" lon="-3.89615">
        <ele>30.899536132812</ele>
        <time>2012-04-20T09:36:05Z</time>
      </trkpt>
      <trkpt lat="48.17866" lon="-3.89664">
        <ele>30.418823242188</ele>
        <time>2012-04-20T09:36:13Z</time>
      </trkpt>
      <trkpt lat="48.17903" lon="-3.8978">
        <ele>31.860717773438</ele>
        <time>2012-04-20T09:36:33Z</time>
      </trkpt>
      <trkpt lat="48.17934" lon="-3.89872">
        <ele>28.976928710938</ele>
        <time>2012-04-20T09:36:48Z</time>
      </trkpt>
      <trkpt lat="48.18003" lon="-3.90077">
        <ele>28.015502929688</ele>
        <time>2012-04-20T09:37:20Z</time>
      </trkpt>
      <trkpt lat="48.18053" lon="-3.90228">
        <ele>27.054321289062</ele>
        <time>2012-04-20T09:37:45Z</time>
      </trkpt>
      <trkpt lat="48.18084" lon="-3.9032">
        <ele>27.054321289062</ele>
        <time>2012-04-20T09:38:00Z</time>
      </trkpt>
      <trkpt lat="48.18096" lon="-3.90356">
        <ele>27.054321289062</ele>
        <time>2012-04-20T09:38:06Z</time>
      </trkpt>
      <trkpt lat="48.18128" lon="-3.90474">
        <ele>28.496215820312</ele>
        <time>2012-04-20T09:38:24Z</time>
      </trkpt>
      <trkpt lat="48.18132" lon="-3.90537">
        <ele>28.496215820312</ele>
        <time>2012-04-20T09:38:33Z</time>
      </trkpt>
      <trkpt lat="48.18129" lon="-3.90563">
        <ele>29.938110351562</ele>
        <time>2012-04-20T09:38:38Z</time>
      </trkpt>
      <trkpt lat="48.18091" lon="-3.9065">
        <ele>30.899536132812</ele>
        <time>2012-04-20T09:38:53Z</time>
      </trkpt>
      <trkpt lat="48.18044" lon="-3.90706">
        <ele>28.496215820312</ele>
        <time>2012-04-20T09:39:06Z</time>
      </trkpt>
      <trkpt lat="48.17997" lon="-3.90762">
        <ele>28.496215820312</ele>
        <time>2012-04-20T09:39:18Z</time>
      </trkpt>
      <trkpt lat="48.17923" lon="-3.90857">
        <ele>30.418823242188</ele>
        <time>2012-04-20T09:39:38Z</time>
      </trkpt>
      <trkpt lat="48.17857" lon="-3.90917">
        <ele>30.418823242188</ele>
        <time>2012-04-20T09:39:54Z</time>
      </trkpt>
      <trkpt lat="48.17796" lon="-3.90985">
        <ele>31.380126953125</ele>
        <time>2012-04-20T09:40:11Z</time>
      </trkpt>
      <trkpt lat="48.1774" lon="-3.91068">
        <ele>30.418823242188</ele>
        <time>2012-04-20T09:40:29Z</time>
      </trkpt>
      <trkpt lat="48.17689" lon="-3.91174">
        <ele>28.496215820312</ele>
        <time>2012-04-20T09:40:50Z</time>
      </trkpt>
      <trkpt lat="48.17637" lon="-3.91289">
        <ele>28.976928710938</ele>
        <time>2012-04-20T09:41:11Z</time>
      </trkpt>
      <trkpt lat="48.17573" lon="-3.91416">
        <ele>28.015502929688</ele>
        <time>2012-04-20T09:41:35Z</time>
      </trkpt>
      <trkpt lat="48.17528" lon="-3.91493">
        <ele>29.45751953125</ele>
        <time>2012-04-20T09:41:51Z</time>
      </trkpt>
      <trkpt lat="48.17483" lon="-3.91563">
        <ele>31.380126953125</ele>
        <time>2012-04-20T09:42:06Z</time>
      </trkpt>
      <trkpt lat="48.17423" lon="-3.91637">
        <ele>28.976928710938</ele>
        <time>2012-04-20T09:42:26Z</time>
      </trkpt>
      <trkpt lat="48.17338" lon="-3.91689">
        <ele>28.496215820312</ele>
        <time>2012-04-20T09:42:45Z</time>
      </trkpt>
      <trkpt lat="48.17283" lon="-3.91746">
        <ele>27.054321289062</ele>
        <time>2012-04-20T09:43:03Z</time>
      </trkpt>
      <trkpt lat="48.17253" lon="-3.9179">
        <ele>26.573608398438</ele>
        <time>2012-04-20T09:43:17Z</time>
      </trkpt>
      <trkpt lat="48.17245" lon="-3.9182">
        <ele>27.054321289062</ele>
        <time>2012-04-20T09:44:01Z</time>
      </trkpt>
      <trkpt lat="48.17215" lon="-3.91937">
        <ele>26.092895507812</ele>
        <time>2012-04-20T09:44:24Z</time>
      </trkpt>
      <trkpt lat="48.17183" lon="-3.92077">
        <ele>24.651000976562</ele>
        <time>2012-04-20T09:44:49Z</time>
      </trkpt>
      <trkpt lat="48.17183" lon="-3.92104">
        <ele>25.6123046875</ele>
        <time>2012-04-20T09:45:00Z</time>
      </trkpt>
      <trkpt lat="48.17183" lon="-3.92134">
        <ele>27.054321289062</ele>
        <time>2012-04-20T09:47:02Z</time>
      </trkpt>
      <trkpt lat="48.17195" lon="-3.92206">
        <ele>28.496215820312</ele>
        <time>2012-04-20T09:47:19Z</time>
      </trkpt>
      <trkpt lat="48.17211" lon="-3.92277">
        <ele>28.015502929688</ele>
        <time>2012-04-20T09:47:33Z</time>
      </trkpt>
      <trkpt lat="48.17201" lon="-3.92368">
        <ele>28.976928710938</ele>
        <time>2012-04-20T09:47:49Z</time>
      </trkpt>
      <trkpt lat="48.17193" lon="-3.92457">
        <ele>28.015502929688</ele>
        <time>2012-04-20T09:48:03Z</time>
      </trkpt>
      <trkpt lat="48.17195" lon="-3.92495">
        <ele>28.015502929688</ele>
        <time>2012-04-20T09:48:09Z</time>
      </trkpt>
      <trkpt lat="48.17207" lon="-3.92559">
        <ele>28.976928710938</ele>
        <time>2012-04-20T09:48:19Z</time>
      </trkpt>
      <trkpt lat="48.17268" lon="-3.92653">
        <ele>29.45751953125</ele>
        <time>2012-04-20T09:48:38Z</time>
      </trkpt>
      <trkpt lat="48.17352" lon="-3.92746">
        <ele>29.45751953125</ele>
        <time>2012-04-20T09:49:02Z</time>
      </trkpt>
      <trkpt lat="48.17376" lon="-3.92748">
        <ele>28.496215820312</ele>
        <time>2012-04-20T09:49:08Z</time>
      </trkpt>
      <trkpt lat="48.17442" lon="-3.92769">
        <ele>28.496215820312</ele>
        <time>2012-04-20T09:49:24Z</time>
      </trkpt>
      <trkpt lat="48.17459" lon="-3.92775">
        <ele>28.976928710938</ele>
        <time>2012-04-20T09:49:28Z</time>
      </trkpt>
      <trkpt lat="48.17527" lon="-3.928">
        <ele>28.496215820312</ele>
        <time>2012-04-20T09:49:44Z</time>
      </trkpt>
      <trkpt lat="48.17586" lon="-3.92821">
        <ele>28.976928710938</ele>
        <time>2012-04-20T09:50:03Z</time>
      </trkpt>
      <trkpt lat="48.17672" lon="-3.92843">
        <ele>28.976928710938</ele>
        <time>2012-04-20T09:50:22Z</time>
      </trkpt>
      <trkpt lat="48.17742" lon="-3.92852">
        <ele>28.015502929688</ele>
        <time>2012-04-20T09:50:36Z</time>
      </trkpt>
      <trkpt lat="48.17796" lon="-3.92876">
        <ele>27.534912109375</ele>
        <time>2012-04-20T09:50:50Z</time>
      </trkpt>
      <trkpt lat="48.1784" lon="-3.92898">
        <ele>25.6123046875</ele>
        <time>2012-04-20T09:51:02Z</time>
      </trkpt>
      <trkpt lat="48.17919" lon="-3.92948">
        <ele>26.092895507812</ele>
        <time>2012-04-20T09:51:23Z</time>
      </trkpt>
      <trkpt lat="48.17999" lon="-3.92995">
        <ele>25.131713867188</ele>
        <time>2012-04-20T09:51:43Z</time>
      </trkpt>
      <trkpt lat="48.18065" lon="-3.93006">
        <ele>24.170288085938</ele>
        <time>2012-04-20T09:51:58Z</time>
      </trkpt>
      <trkpt lat="48.18151" lon="-3.93027">
        <ele>24.170288085938</ele>
        <time>2012-04-20T09:52:18Z</time>
      </trkpt>
      <trkpt lat="48.18217" lon="-3.9305">
        <ele>24.651000976562</ele>
        <time>2012-04-20T09:52:36Z</time>
      </trkpt>
      <trkpt lat="48.18285" lon="-3.93057">
        <ele>25.6123046875</ele>
        <time>2012-04-20T09:52:54Z</time>
      </trkpt>
      <trkpt lat="48.18384" lon="-3.93069">
        <ele>25.6123046875</ele>
        <time>2012-04-20T09:53:20Z</time>
      </trkpt>
      <trkpt lat="48.18498" lon="-3.93109">
        <ele>25.131713867188</ele>
        <time>2012-04-20T09:53:50Z</time>
      </trkpt>
      <trkpt lat="48.18537" lon="-3.93117">
        <ele>25.131713867188</ele>
        <time>2012-04-20T09:54:05Z</time>
      </trkpt>
      <trkpt lat="48.18537" lon="-3.93117">
        <ele>24.170288085938</ele>
        <time>2012-04-20T09:54:19Z</time>
      </trkpt>
      <trkpt lat="48.18537" lon="-3.93117">
        <ele>26.573608398438</ele>
        <time>2012-04-20T10:11:03Z</time>
      </trkpt>
      <trkpt lat="48.18537" lon="-3.93117">
        <ele>27.534912109375</ele>
        <time>2012-04-20T10:11:09Z</time>
      </trkpt>
      <trkpt lat="48.18579" lon="-3.93124">
        <ele>28.015502929688</ele>
        <time>2012-04-20T10:11:26Z</time>
      </trkpt>
      <trkpt lat="48.18648" lon="-3.93134">
        <ele>28.015502929688</ele>
        <time>2012-04-20T10:11:45Z</time>
      </trkpt>
      <trkpt lat="48.18737" lon="-3.93158">
        <ele>28.496215820312</ele>
        <time>2012-04-20T10:12:07Z</time>
      </trkpt>
      <trkpt lat="48.18809" lon="-3.93207">
        <ele>26.573608398438</ele>
        <time>2012-04-20T10:12:29Z</time>
      </trkpt>
      <trkpt lat="48.18868" lon="-3.93256">
        <ele>28.015502929688</ele>
        <time>2012-04-20T10:12:49Z</time>
      </trkpt>
      <trkpt lat="48.18925" lon="-3.93307">
        <ele>28.015502929688</ele>
        <time>2012-04-20T10:13:09Z</time>
      </trkpt>
      <trkpt lat="48.18981" lon="-3.9337">
        <ele>30.899536132812</ele>
        <time>2012-04-20T10:13:31Z</time>
      </trkpt>
      <trkpt lat="48.18985" lon="-3.93375">
        <ele>30.418823242188</ele>
        <time>2012-04-20T10:13:36Z</time>
      </trkpt>
      <trkpt lat="48.18993" lon="-3.93391">
        <ele>29.938110351562</ele>
        <time>2012-04-20T10:13:41Z</time>
      </trkpt>
      <trkpt lat="48.19024" lon="-3.93454">
        <ele>28.015502929688</ele>
        <time>2012-04-20T10:13:51Z</time>
      </trkpt>
      <trkpt lat="48.19038" lon="-3.93554">
        <ele>28.496215820312</ele>
        <time>2012-04-20T10:14:08Z</time>
      </trkpt>
      <trkpt lat="48.19053" lon="-3.93666">
        <ele>27.534912109375</ele>
        <time>2012-04-20T10:14:27Z</time>
      </trkpt>
      <trkpt lat="48.19076" lon="-3.93834">
        <ele>31.860717773438</ele>
        <time>2012-04-20T10:14:56Z</time>
      </trkpt>
      <trkpt lat="48.1909" lon="-3.93949">
        <ele>28.976928710938</ele>
        <time>2012-04-20T10:15:16Z</time>
      </trkpt>
      <trkpt lat="48.19105" lon="-3.94096">
        <ele>28.015502929688</ele>
        <time>2012-04-20T10:15:40Z</time>
      </trkpt>
      <trkpt lat="48.19132" lon="-3.94238">
        <ele>27.534912109375</ele>
        <time>2012-04-20T10:16:04Z</time>
      </trkpt>
      <trkpt lat="48.19131" lon="-3.94299">
        <ele>30.418823242188</ele>
        <time>2012-04-20T10:16:17Z</time>
      </trkpt>
      <trkpt lat="48.1913" lon="-3.94306">
        <ele>31.860717773438</ele>
        <time>2012-04-20T10:16:30Z</time>
      </trkpt>
      <trkpt lat="48.1913" lon="-3.94306">
        <ele>32.341552734375</ele>
        <time>2012-04-20T10:16:56Z</time>
      </trkpt>
      <trkpt lat="48.1913" lon="-3.94306">
        <ele>32.341552734375</ele>
        <time>2012-04-20T10:18:12Z</time>
      </trkpt>
      <trkpt lat="48.19124" lon="-3.94356">
        <ele>36.186767578125</ele>
        <time>2012-04-20T10:18:25Z</time>
      </trkpt>
      <trkpt lat="48.19085" lon="-3.94466">
        <ele>36.186767578125</ele>
        <time>2012-04-20T10:18:46Z</time>
      </trkpt>
      <trkpt lat="48.19065" lon="-3.94521">
        <ele>35.225463867188</ele>
        <time>2012-04-20T10:19:00Z</time>
      </trkpt>
      <trkpt lat="48.1904" lon="-3.94589">
        <ele>34.744873046875</ele>
        <time>2012-04-20T10:19:21Z</time>
      </trkpt>
      <trkpt lat="48.19039" lon="-3.94594">
        <ele>34.26416015625</ele>
        <time>2012-04-20T10:19:36Z</time>
      </trkpt>
      <trkpt lat="48.19029" lon="-3.9462">
        <ele>33.302856445312</ele>
        <time>2012-04-20T10:20:43Z</time>
      </trkpt>
      <trkpt lat="48.19004" lon="-3.94691">
        <ele>30.418823242188</ele>
        <time>2012-04-20T10:20:58Z</time>
      </trkpt>
      <trkpt lat="48.18964" lon="-3.94801">
        <ele>29.938110351562</ele>
        <time>2012-04-20T10:21:23Z</time>
      </trkpt>
      <trkpt lat="48.18926" lon="-3.94943">
        <ele>28.496215820312</ele>
        <time>2012-04-20T10:21:51Z</time>
      </trkpt>
      <trkpt lat="48.18892" lon="-3.95072">
        <ele>26.092895507812</ele>
        <time>2012-04-20T10:22:15Z</time>
      </trkpt>
      <trkpt lat="48.18842" lon="-3.95193">
        <ele>26.092895507812</ele>
        <time>2012-04-20T10:22:38Z</time>
      </trkpt>
      <trkpt lat="48.18775" lon="-3.95331">
        <ele>25.6123046875</ele>
        <time>2012-04-20T10:23:07Z</time>
      </trkpt>
      <trkpt lat="48.18749" lon="-3.95425">
        <ele>25.131713867188</ele>
        <time>2012-04-20T10:23:24Z</time>
      </trkpt>
      <trkpt lat="48.18735" lon="-3.95511">
        <ele>27.054321289062</ele>
        <time>2012-04-20T10:23:40Z</time>
      </trkpt>
      <trkpt lat="48.18724" lon="-3.95605">
        <ele>26.092895507812</ele>
        <time>2012-04-20T10:23:58Z</time>
      </trkpt>
      <trkpt lat="48.18728" lon="-3.95726">
        <ele>27.534912109375</ele>
        <time>2012-04-20T10:24:20Z</time>
      </trkpt>
      <trkpt lat="48.18744" lon="-3.95843">
        <ele>26.573608398438</ele>
        <time>2012-04-20T10:24:40Z</time>
      </trkpt>
      <trkpt lat="48.18785" lon="-3.95942">
        <ele>27.054321289062</ele>
        <time>2012-04-20T10:24:59Z</time>
      </trkpt>
      <trkpt lat="48.18841" lon="-3.9598">
        <ele>26.573608398438</ele>
        <time>2012-04-20T10:25:15Z</time>
      </trkpt>
      <trkpt lat="48.18926" lon="-3.95973">
        <ele>25.6123046875</ele>
        <time>2012-04-20T10:25:36Z</time>
      </trkpt>
      <trkpt lat="48.19007" lon="-3.95959">
        <ele>24.170288085938</ele>
        <time>2012-04-20T10:25:56Z</time>
      </trkpt>
      <trkpt lat="48.19095" lon="-3.9595">
        <ele>23.689575195312</ele>
        <time>2012-04-20T10:26:19Z</time>
      </trkpt>
      <trkpt lat="48.19241" lon="-3.95963">
        <ele>24.651000976562</ele>
        <time>2012-04-20T10:26:56Z</time>
      </trkpt>
      <trkpt lat="48.1934" lon="-3.95963">
        <ele>25.131713867188</ele>
        <time>2012-04-20T10:27:21Z</time>
      </trkpt>
      <trkpt lat="48.19428" lon="-3.95968">
        <ele>25.6123046875</ele>
        <time>2012-04-20T10:27:44Z</time>
      </trkpt>
      <trkpt lat="48.19524" lon="-3.9598">
        <ele>25.131713867188</ele>
        <time>2012-04-20T10:28:07Z</time>
      </trkpt>
      <trkpt lat="48.19663" lon="-3.95985">
        <ele>25.131713867188</ele>
        <time>2012-04-20T10:28:38Z</time>
      </trkpt>
      <trkpt lat="48.19757" lon="-3.96024">
        <ele>26.092895507812</ele>
        <time>2012-04-20T10:29:01Z</time>
      </trkpt>
      <trkpt lat="48.19841" lon="-3.96067">
        <ele>25.131713867188</ele>
        <time>2012-04-20T10:29:21Z</time>
      </trkpt>
      <trkpt lat="48.19891" lon="-3.96093">
        <ele>25.6123046875</ele>
        <time>2012-04-20T10:29:34Z</time>
      </trkpt>
      <trkpt lat="48.19923" lon="-3.96109">
        <ele>25.131713867188</ele>
        <time>2012-04-20T10:29:42Z</time>
      </trkpt>
      <trkpt lat="48.19977" lon="-3.96137">
        <ele>24.651000976562</ele>
        <time>2012-04-20T10:29:56Z</time>
      </trkpt>
      <trkpt lat="48.20043" lon="-3.96189">
        <ele>24.170288085938</ele>
        <time>2012-04-20T10:30:16Z</time>
      </trkpt>
      <trkpt lat="48.20095" lon="-3.96263">
        <ele>27.054321289062</ele>
        <time>2012-04-20T10:30:36Z</time>
      </trkpt>
      <trkpt lat="48.2013" lon="-3.96339">
        <ele>27.054321289062</ele>
        <time>2012-04-20T10:30:52Z</time>
      </trkpt>
      <trkpt lat="48.20175" lon="-3.96482">
        <ele>27.534912109375</ele>
        <time>2012-04-20T10:31:18Z</time>
      </trkpt>
      <trkpt lat="48.20211" lon="-3.96574">
        <ele>30.899536132812</ele>
        <time>2012-04-20T10:31:37Z</time>
      </trkpt>
      <trkpt lat="48.20224" lon="-3.96672">
        <ele>30.899536132812</ele>
        <time>2012-04-20T10:31:55Z</time>
      </trkpt>
      <trkpt lat="48.20222" lon="-3.96786">
        <ele>32.341552734375</ele>
        <time>2012-04-20T10:32:17Z</time>
      </trkpt>
      <trkpt lat="48.20213" lon="-3.96837">
        <ele>28.496215820312</ele>
        <time>2012-04-20T10:32:28Z</time>
      </trkpt>
      <trkpt lat="48.20182" lon="-3.96929">
        <ele>27.534912109375</ele>
        <time>2012-04-20T10:32:44Z</time>
      </trkpt>
      <trkpt lat="48.20131" lon="-3.97021">
        <ele>23.689575195312</ele>
        <time>2012-04-20T10:33:04Z</time>
      </trkpt>
      <trkpt lat="48.20076" lon="-3.97116">
        <ele>19.844360351562</ele>
        <time>2012-04-20T10:33:28Z</time>
      </trkpt>
      <trkpt lat="48.20025" lon="-3.97224">
        <ele>21.286376953125</ele>
        <time>2012-04-20T10:33:52Z</time>
      </trkpt>
      <trkpt lat="48.19977" lon="-3.97306">
        <ele>21.286376953125</ele>
        <time>2012-04-20T10:34:13Z</time>
      </trkpt>
      <trkpt lat="48.19924" lon="-3.97375">
        <ele>20.324951171875</ele>
        <time>2012-04-20T10:34:32Z</time>
      </trkpt>
      <trkpt lat="48.19867" lon="-3.97432">
        <ele>19.844360351562</ele>
        <time>2012-04-20T10:34:51Z</time>
      </trkpt>
      <trkpt lat="48.19802" lon="-3.97477">
        <ele>20.8056640625</ele>
        <time>2012-04-20T10:35:14Z</time>
      </trkpt>
      <trkpt lat="48.19735" lon="-3.97523">
        <ele>21.286376953125</ele>
        <time>2012-04-20T10:35:34Z</time>
      </trkpt>
      <trkpt lat="48.19662" lon="-3.97578">
        <ele>20.324951171875</ele>
        <time>2012-04-20T10:35:55Z</time>
      </trkpt>
      <trkpt lat="48.19629" lon="-3.97622">
        <ele>19.844360351562</ele>
        <time>2012-04-20T10:36:07Z</time>
      </trkpt>
      <trkpt lat="48.19573" lon="-3.977">
        <ele>19.36376953125</ele>
        <time>2012-04-20T10:36:27Z</time>
      </trkpt>
      <trkpt lat="48.19504" lon="-3.97813">
        <ele>19.36376953125</ele>
        <time>2012-04-20T10:36:55Z</time>
      </trkpt>
      <trkpt lat="48.19423" lon="-3.97944">
        <ele>18.40234375</ele>
        <time>2012-04-20T10:37:25Z</time>
      </trkpt>
      <trkpt lat="48.19385" lon="-3.98025">
        <ele>18.883056640625</ele>
        <time>2012-04-20T10:37:43Z</time>
      </trkpt>
      <trkpt lat="48.19367" lon="-3.98066">
        <ele>19.36376953125</ele>
        <time>2012-04-20T10:37:58Z</time>
      </trkpt>
      <trkpt lat="48.19336" lon="-3.98138">
        <ele>20.8056640625</ele>
        <time>2012-04-20T10:38:11Z</time>
      </trkpt>
      <trkpt lat="48.19325" lon="-3.98164">
        <ele>22.24755859375</ele>
        <time>2012-04-20T10:38:21Z</time>
      </trkpt>
      <trkpt lat="48.19324" lon="-3.98164">
        <ele>22.728271484375</ele>
        <time>2012-04-20T10:38:38Z</time>
      </trkpt>
      <trkpt lat="48.19324" lon="-3.98164">
        <ele>22.728271484375</ele>
        <time>2012-04-20T10:39:05Z</time>
      </trkpt>
      <trkpt lat="48.19324" lon="-3.98164">
        <ele>23.208984375</ele>
        <time>2012-04-20T10:39:58Z</time>
      </trkpt>
      <trkpt lat="48.19298" lon="-3.98234">
        <ele>23.689575195312</ele>
        <time>2012-04-20T10:40:11Z</time>
      </trkpt>
      <trkpt lat="48.19254" lon="-3.98293">
        <ele>21.766967773438</ele>
        <time>2012-04-20T10:40:29Z</time>
      </trkpt>
      <trkpt lat="48.19237" lon="-3.98342">
        <ele>21.766967773438</ele>
        <time>2012-04-20T10:40:43Z</time>
      </trkpt>
      <trkpt lat="48.1925" lon="-3.98373">
        <ele>21.766967773438</ele>
        <time>2012-04-20T10:40:56Z</time>
      </trkpt>
      <trkpt lat="48.19232" lon="-3.98425">
        <ele>22.728271484375</ele>
        <time>2012-04-20T10:41:11Z</time>
      </trkpt>
      <trkpt lat="48.19212" lon="-3.98491">
        <ele>22.728271484375</ele>
        <time>2012-04-20T10:41:28Z</time>
      </trkpt>
      <trkpt lat="48.19179" lon="-3.98572">
        <ele>23.208984375</ele>
        <time>2012-04-20T10:41:52Z</time>
      </trkpt>
      <trkpt lat="48.19141" lon="-3.98601">
        <ele>23.689575195312</ele>
        <time>2012-04-20T10:42:05Z</time>
      </trkpt>
      <trkpt lat="48.19087" lon="-3.98613">
        <ele>23.208984375</ele>
        <time>2012-04-20T10:42:23Z</time>
      </trkpt>
      <trkpt lat="48.19024" lon="-3.98632">
        <ele>22.728271484375</ele>
        <time>2012-04-20T10:42:45Z</time>
      </trkpt>
      <trkpt lat="48.19022" lon="-3.98632">
        <ele>22.728271484375</ele>
        <time>2012-04-20T10:43:01Z</time>
      </trkpt>
      <trkpt lat="48.19022" lon="-3.98632">
        <ele>22.728271484375</ele>
        <time>2012-04-20T10:43:29Z</time>
      </trkpt>
      <trkpt lat="48.19022" lon="-3.98632">
        <ele>22.728271484375</ele>
        <time>2012-04-20T10:45:28Z</time>
      </trkpt>
      <trkpt lat="48.19022" lon="-3.98632">
        <ele>23.689575195312</ele>
        <time>2012-04-20T10:45:38Z</time>
      </trkpt>
      <trkpt lat="48.19022" lon="-3.98632">
        <ele>24.170288085938</ele>
        <time>2012-04-20T10:45:45Z</time>
      </trkpt>
      <trkpt lat="48.19044" lon="-3.98628">
        <ele>24.651000976562</ele>
        <time>2012-04-20T10:45:59Z</time>
      </trkpt>
      <trkpt lat="48.19044" lon="-3.98628">
        <ele>24.170288085938</ele>
        <time>2012-04-20T10:46:31Z</time>
      </trkpt>
      <trkpt lat="48.1908" lon="-3.98615">
        <ele>24.170288085938</ele>
        <time>2012-04-20T10:46:45Z</time>
      </trkpt>
      <trkpt lat="48.19104" lon="-3.98609">
        <ele>24.170288085938</ele>
        <time>2012-04-20T10:46:53Z</time>
      </trkpt>
      <trkpt lat="48.19113" lon="-3.98593">
        <ele>23.208984375</ele>
        <time>2012-04-20T10:46:57Z</time>
      </trkpt>
      <trkpt lat="48.19111" lon="-3.98564">
        <ele>22.24755859375</ele>
        <time>2012-04-20T10:47:02Z</time>
      </trkpt>
      <trkpt lat="48.19127" lon="-3.98475">
        <ele>18.883056640625</ele>
        <time>2012-04-20T10:47:16Z</time>
      </trkpt>
      <trkpt lat="48.19142" lon="-3.98444">
        <ele>17.921752929688</ele>
        <time>2012-04-20T10:47:27Z</time>
      </trkpt>
      <trkpt lat="48.19147" lon="-3.98438">
        <ele>16.479736328125</ele>
        <time>2012-04-20T10:47:39Z</time>
      </trkpt>
      <trkpt lat="48.19147" lon="-3.98438">
        <ele>16.479736328125</ele>
        <time>2012-04-20T10:47:45Z</time>
      </trkpt>
      <trkpt lat="48.19147" lon="-3.98438">
        <ele>16.479736328125</ele>
        <time>2012-04-20T10:47:47Z</time>
      </trkpt>
      <trkpt lat="48.1915" lon="-3.98445">
        <ele>16.479736328125</ele>
        <time>2012-04-20T10:47:52Z</time>
      </trkpt>
      <trkpt lat="48.19152" lon="-3.98456">
        <ele>16.479736328125</ele>
        <time>2012-04-20T10:47:56Z</time>
      </trkpt>
      <trkpt lat="48.1915" lon="-3.98469">
        <ele>16.479736328125</ele>
        <time>2012-04-20T10:48:01Z</time>
      </trkpt>
      <trkpt lat="48.19151" lon="-3.98474">
        <ele>16.96044921875</ele>
        <time>2012-04-20T10:48:17Z</time>
      </trkpt>
      <trkpt lat="48.19149" lon="-3.9847">
        <ele>16.96044921875</ele>
        <time>2012-04-20T10:48:38Z</time>
      </trkpt>
      <trkpt lat="48.19151" lon="-3.98457">
        <ele>17.921752929688</ele>
        <time>2012-04-20T10:49:04Z</time>
      </trkpt>
      <trkpt lat="48.19151" lon="-3.9846">
        <ele>17.921752929688</ele>
        <time>2012-04-20T10:49:52Z</time>
      </trkpt>
      <trkpt lat="48.19151" lon="-3.98457">
        <ele>18.40234375</ele>
        <time>2012-04-20T10:50:16Z</time>
      </trkpt>
      <trkpt lat="48.19151" lon="-3.9845">
        <ele>18.883056640625</ele>
        <time>2012-04-20T10:50:21Z</time>
      </trkpt>
      <trkpt lat="48.19145" lon="-3.98438">
        <ele>18.40234375</ele>
        <time>2012-04-20T10:50:36Z</time>
      </trkpt>
      <trkpt lat="48.1915" lon="-3.98429">
        <ele>18.40234375</ele>
        <time>2012-04-20T10:50:40Z</time>
      </trkpt>
      <trkpt lat="48.192" lon="-3.98374">
        <ele>16.96044921875</ele>
        <time>2012-04-20T10:50:59Z</time>
      </trkpt>
      <trkpt lat="48.19261" lon="-3.98292">
        <ele>16.96044921875</ele>
        <time>2012-04-20T10:51:22Z</time>
      </trkpt>
      <trkpt lat="48.19317" lon="-3.98197">
        <ele>16.96044921875</ele>
        <time>2012-04-20T10:51:45Z</time>
      </trkpt>
      <trkpt lat="48.19321" lon="-3.98191">
        <ele>16.96044921875</ele>
        <time>2012-04-20T10:51:48Z</time>
      </trkpt>
      <trkpt lat="48.19318" lon="-3.98186">
        <ele>17.921752929688</ele>
        <time>2012-04-20T10:52:00Z</time>
      </trkpt>
      <trkpt lat="48.19317" lon="-3.98186">
        <ele>17.441162109375</ele>
        <time>2012-04-20T10:52:23Z</time>
      </trkpt>
    </trkseg>
  </trk>
  <trk>
    <name><![CDATA[ACTIVE LOG 017]]></name>
    <trkseg>
      <trkpt lat="48.19314" lon="-3.98172">
        <ele>-8.5146484375</ele>
        <time>2012-04-20T12:14:50Z</time>
      </trkpt>
      <trkpt lat="48.19322" lon="-3.98183">
        <ele>20.324951171875</ele>
        <time>2012-04-20T12:15:19Z</time>
      </trkpt>
      <trkpt lat="48.19317" lon="-3.98185">
        <ele>19.844360351562</ele>
        <time>2012-04-20T12:15:50Z</time>
      </trkpt>
      <trkpt lat="48.19319" lon="-3.98183">
        <ele>19.844360351562</ele>
        <time>2012-04-20T12:16:01Z</time>
      </trkpt>
      <trkpt lat="48.19318" lon="-3.98186">
        <ele>18.883056640625</ele>
        <time>2012-04-20T12:16:14Z</time>
      </trkpt>
      <trkpt lat="48.19318" lon="-3.98187">
        <ele>18.883056640625</ele>
        <time>2012-04-20T12:16:20Z</time>
      </trkpt>
      <trkpt lat="48.193" lon="-3.98231">
        <ele>18.40234375</ele>
        <time>2012-04-20T12:16:35Z</time>
      </trkpt>
      <trkpt lat="48.19245" lon="-3.98312">
        <ele>17.921752929688</ele>
        <time>2012-04-20T12:16:58Z</time>
      </trkpt>
      <trkpt lat="48.19236" lon="-3.98337">
        <ele>17.921752929688</ele>
        <time>2012-04-20T12:17:05Z</time>
      </trkpt>
      <trkpt lat="48.19264" lon="-3.98345">
        <ele>18.883056640625</ele>
        <time>2012-04-20T12:17:18Z</time>
      </trkpt>
      <trkpt lat="48.1932" lon="-3.98293">
        <ele>18.883056640625</ele>
        <time>2012-04-20T12:17:37Z</time>
      </trkpt>
      <trkpt lat="48.19388" lon="-3.98229">
        <ele>18.883056640625</ele>
        <time>2012-04-20T12:18:01Z</time>
      </trkpt>
      <trkpt lat="48.19467" lon="-3.98157">
        <ele>20.324951171875</ele>
        <time>2012-04-20T12:18:28Z</time>
      </trkpt>
      <trkpt lat="48.19568" lon="-3.98066">
        <ele>22.24755859375</ele>
        <time>2012-04-20T12:19:01Z</time>
      </trkpt>
      <trkpt lat="48.19653" lon="-3.97987">
        <ele>23.689575195312</ele>
        <time>2012-04-20T12:19:28Z</time>
      </trkpt>
      <trkpt lat="48.19719" lon="-3.97929">
        <ele>25.131713867188</ele>
        <time>2012-04-20T12:19:53Z</time>
      </trkpt>
      <trkpt lat="48.19787" lon="-3.9788">
        <ele>29.45751953125</ele>
        <time>2012-04-20T12:20:22Z</time>
      </trkpt>
      <trkpt lat="48.19848" lon="-3.97871">
        <ele>31.860717773438</ele>
        <time>2012-04-20T12:20:45Z</time>
      </trkpt>
      <trkpt lat="48.19944" lon="-3.97891">
        <ele>35.225463867188</ele>
        <time>2012-04-20T12:21:19Z</time>
      </trkpt>
      <trkpt lat="48.20021" lon="-3.97911">
        <ele>38.109375</ele>
        <time>2012-04-20T12:21:47Z</time>
      </trkpt>
      <trkpt lat="48.20095" lon="-3.97929">
        <ele>40.993408203125</ele>
        <time>2012-04-20T12:22:14Z</time>
      </trkpt>
      <trkpt lat="48.20169" lon="-3.97952">
        <ele>44.838623046875</ele>
        <time>2012-04-20T12:22:41Z</time>
      </trkpt>
      <trkpt lat="48.20228" lon="-3.97994">
        <ele>48.683959960938</ele>
        <time>2012-04-20T12:23:03Z</time>
      </trkpt>
      <trkpt lat="48.20278" lon="-3.98058">
        <ele>50.606567382812</ele>
        <time>2012-04-20T12:23:25Z</time>
      </trkpt>
      <trkpt lat="48.20348" lon="-3.98162">
        <ele>53.009765625</ele>
        <time>2012-04-20T12:23:57Z</time>
      </trkpt>
      <trkpt lat="48.20424" lon="-3.98206">
        <ele>55.4130859375</ele>
        <time>2012-04-20T12:24:22Z</time>
      </trkpt>
      <trkpt lat="48.20498" lon="-3.98236">
        <ele>56.37451171875</ele>
        <time>2012-04-20T12:24:46Z</time>
      </trkpt>
      <trkpt lat="48.20575" lon="-3.98264">
        <ele>57.816528320312</ele>
        <time>2012-04-20T12:25:08Z</time>
      </trkpt>
      <trkpt lat="48.2066" lon="-3.98265">
        <ele>57.816528320312</ele>
        <time>2012-04-20T12:25:30Z</time>
      </trkpt>
      <trkpt lat="48.20726" lon="-3.98236">
        <ele>59.739135742188</ele>
        <time>2012-04-20T12:25:52Z</time>
      </trkpt>
      <trkpt lat="48.20787" lon="-3.98175">
        <ele>62.142333984375</ele>
        <time>2012-04-20T12:26:16Z</time>
      </trkpt>
      <trkpt lat="48.20841" lon="-3.98093">
        <ele>64.545654296875</ele>
        <time>2012-04-20T12:26:43Z</time>
      </trkpt>
      <trkpt lat="48.20899" lon="-3.98016">
        <ele>66.948974609375</ele>
        <time>2012-04-20T12:27:11Z</time>
      </trkpt>
      <trkpt lat="48.20967" lon="-3.97954">
        <ele>69.352294921875</ele>
        <time>2012-04-20T12:27:39Z</time>
      </trkpt>
      <trkpt lat="48.21032" lon="-3.97919">
        <ele>71.755493164062</ele>
        <time>2012-04-20T12:28:03Z</time>
      </trkpt>
      <trkpt lat="48.21103" lon="-3.97904">
        <ele>74.158813476562</ele>
        <time>2012-04-20T12:28:29Z</time>
      </trkpt>
      <trkpt lat="48.21208" lon="-3.97916">
        <ele>77.5234375</ele>
        <time>2012-04-20T12:29:03Z</time>
      </trkpt>
      <trkpt lat="48.21299" lon="-3.97959">
        <ele>78.965454101562</ele>
        <time>2012-04-20T12:29:30Z</time>
      </trkpt>
      <trkpt lat="48.21357" lon="-3.97984">
        <ele>81.368774414062</ele>
        <time>2012-04-20T12:29:48Z</time>
      </trkpt>
      <trkpt lat="48.21414" lon="-3.97993">
        <ele>82.330078125</ele>
        <time>2012-04-20T12:30:06Z</time>
      </trkpt>
      <trkpt lat="48.21487" lon="-3.97986">
        <ele>84.7333984375</ele>
        <time>2012-04-20T12:30:29Z</time>
      </trkpt>
      <trkpt lat="48.21587" lon="-3.97973">
        <ele>83.77197265625</ele>
        <time>2012-04-20T12:30:58Z</time>
      </trkpt>
      <trkpt lat="48.21693" lon="-3.97954">
        <ele>83.77197265625</ele>
        <time>2012-04-20T12:31:29Z</time>
      </trkpt>
      <trkpt lat="48.21747" lon="-3.97905">
        <ele>84.7333984375</ele>
        <time>2012-04-20T12:31:50Z</time>
      </trkpt>
      <trkpt lat="48.21761" lon="-3.97847">
        <ele>85.213989257812</ele>
        <time>2012-04-20T12:32:02Z</time>
      </trkpt>
      <trkpt lat="48.21796" lon="-3.97841">
        <ele>87.136596679688</ele>
        <time>2012-04-20T12:32:14Z</time>
      </trkpt>
      <trkpt lat="48.21837" lon="-3.97824">
        <ele>88.098022460938</ele>
        <time>2012-04-20T12:32:28Z</time>
      </trkpt>
      <trkpt lat="48.21896" lon="-3.97738">
        <ele>88.578735351562</ele>
        <time>2012-04-20T12:32:54Z</time>
      </trkpt>
      <trkpt lat="48.21897" lon="-3.97729">
        <ele>89.059326171875</ele>
        <time>2012-04-20T12:32:55Z</time>
      </trkpt>
      <trkpt lat="48.21928" lon="-3.97689">
        <ele>90.020629882812</ele>
        <time>2012-04-20T12:33:06Z</time>
      </trkpt>
      <trkpt lat="48.21967" lon="-3.97676">
        <ele>91.462524414062</ele>
        <time>2012-04-20T12:33:20Z</time>
      </trkpt>
      <trkpt lat="48.21998" lon="-3.97628">
        <ele>93.385131835938</ele>
        <time>2012-04-20T12:33:38Z</time>
      </trkpt>
      <trkpt lat="48.22035" lon="-3.97531">
        <ele>97.23046875</ele>
        <time>2012-04-20T12:34:03Z</time>
      </trkpt>
      <trkpt lat="48.22071" lon="-3.97452">
        <ele>100.59509277344</ele>
        <time>2012-04-20T12:34:32Z</time>
      </trkpt>
      <trkpt lat="48.22134" lon="-3.9736">
        <ele>103.47900390625</ele>
        <time>2012-04-20T12:35:00Z</time>
      </trkpt>
      <trkpt lat="48.22212" lon="-3.97258">
        <ele>100.59509277344</ele>
        <time>2012-04-20T12:35:24Z</time>
      </trkpt>
      <trkpt lat="48.22301" lon="-3.97168">
        <ele>98.672485351562</ele>
        <time>2012-04-20T12:35:41Z</time>
      </trkpt>
      <trkpt lat="48.22377" lon="-3.97129">
        <ele>101.55639648438</ele>
        <time>2012-04-20T12:35:59Z</time>
      </trkpt>
      <trkpt lat="48.22428" lon="-3.97105">
        <ele>103.95971679688</ele>
        <time>2012-04-20T12:36:17Z</time>
      </trkpt>
      <trkpt lat="48.22502" lon="-3.97069">
        <ele>110.20825195312</ele>
        <time>2012-04-20T12:36:44Z</time>
      </trkpt>
      <trkpt lat="48.22572" lon="-3.97015">
        <ele>111.16955566406</ele>
        <time>2012-04-20T12:37:10Z</time>
      </trkpt>
      <trkpt lat="48.22637" lon="-3.96968">
        <ele>112.61157226562</ele>
        <time>2012-04-20T12:37:36Z</time>
      </trkpt>
      <trkpt lat="48.22655" lon="-3.96956">
        <ele>113.09228515625</ele>
        <time>2012-04-20T12:37:51Z</time>
      </trkpt>
      <trkpt lat="48.22655" lon="-3.96956">
        <ele>113.09228515625</ele>
        <time>2012-04-20T12:38:44Z</time>
      </trkpt>
      <trkpt lat="48.22655" lon="-3.96956">
        <ele>113.09228515625</ele>
        <time>2012-04-20T12:39:10Z</time>
      </trkpt>
    </trkseg>
  </trk>
  <trk>
    <name><![CDATA[ACTIVE LOG 018]]></name>
    <trkseg>
      <trkpt lat="48.22653" lon="-3.96942">
        <ele>107.80505371094</ele>
        <time>2012-04-20T14:14:30Z</time>
      </trkpt>
      <trkpt lat="48.22656" lon="-3.96951">
        <ele>107.32434082031</ele>
        <time>2012-04-20T14:23:27Z</time>
      </trkpt>
      <trkpt lat="48.22651" lon="-3.96952">
        <ele>108.28564453125</ele>
        <time>2012-04-20T14:23:36Z</time>
      </trkpt>
      <trkpt lat="48.22643" lon="-3.96967">
        <ele>109.72766113281</ele>
        <time>2012-04-20T14:23:52Z</time>
      </trkpt>
      <trkpt lat="48.22642" lon="-3.96967">
        <ele>109.24694824219</ele>
        <time>2012-04-20T14:24:00Z</time>
      </trkpt>
      <trkpt lat="48.22633" lon="-3.96973">
        <ele>109.72766113281</ele>
        <time>2012-04-20T14:24:06Z</time>
      </trkpt>
      <trkpt lat="48.22584" lon="-3.97013">
        <ele>110.20825195312</ele>
        <time>2012-04-20T14:24:24Z</time>
      </trkpt>
      <trkpt lat="48.22538" lon="-3.97045">
        <ele>108.76623535156</ele>
        <time>2012-04-20T14:24:37Z</time>
      </trkpt>
      <trkpt lat="48.22467" lon="-3.97087">
        <ele>108.76623535156</ele>
        <time>2012-04-20T14:24:53Z</time>
      </trkpt>
      <trkpt lat="48.22384" lon="-3.97126">
        <ele>104.4404296875</ele>
        <time>2012-04-20T14:25:08Z</time>
      </trkpt>
      <trkpt lat="48.22297" lon="-3.97171">
        <ele>100.59509277344</ele>
        <time>2012-04-20T14:25:24Z</time>
      </trkpt>
      <trkpt lat="48.22242" lon="-3.97218">
        <ele>100.11450195312</ele>
        <time>2012-04-20T14:25:36Z</time>
      </trkpt>
      <trkpt lat="48.22189" lon="-3.97287">
        <ele>102.99829101562</ele>
        <time>2012-04-20T14:25:56Z</time>
      </trkpt>
      <trkpt lat="48.22132" lon="-3.97363">
        <ele>104.4404296875</ele>
        <time>2012-04-20T14:26:21Z</time>
      </trkpt>
      <trkpt lat="48.22131" lon="-3.97365">
        <ele>104.4404296875</ele>
        <time>2012-04-20T14:26:58Z</time>
      </trkpt>
      <trkpt lat="48.22105" lon="-3.97403">
        <ele>104.4404296875</ele>
        <time>2012-04-20T14:27:11Z</time>
      </trkpt>
      <trkpt lat="48.22052" lon="-3.97489">
        <ele>99.6337890625</ele>
        <time>2012-04-20T14:27:26Z</time>
      </trkpt>
      <trkpt lat="48.21998" lon="-3.97628">
        <ele>93.865844726562</ele>
        <time>2012-04-20T14:27:45Z</time>
      </trkpt>
      <trkpt lat="48.21972" lon="-3.97692">
        <ele>91.462524414062</ele>
        <time>2012-04-20T14:27:52Z</time>
      </trkpt>
      <trkpt lat="48.21964" lon="-3.97717">
        <ele>91.462524414062</ele>
        <time>2012-04-20T14:27:56Z</time>
      </trkpt>
      <trkpt lat="48.21964" lon="-3.97718">
        <ele>91.462524414062</ele>
        <time>2012-04-20T14:27:59Z</time>
      </trkpt>
      <trkpt lat="48.21965" lon="-3.97758">
        <ele>91.462524414062</ele>
        <time>2012-04-20T14:28:02Z</time>
      </trkpt>
      <trkpt lat="48.2193" lon="-3.9779">
        <ele>90.020629882812</ele>
        <time>2012-04-20T14:28:12Z</time>
      </trkpt>
      <trkpt lat="48.21918" lon="-3.97782">
        <ele>89.539916992188</ele>
        <time>2012-04-20T14:28:15Z</time>
      </trkpt>
      <trkpt lat="48.21882" lon="-3.97787">
        <ele>88.578735351562</ele>
        <time>2012-04-20T14:28:22Z</time>
      </trkpt>
      <trkpt lat="48.21821" lon="-3.97841">
        <ele>87.136596679688</ele>
        <time>2012-04-20T14:28:36Z</time>
      </trkpt>
      <trkpt lat="48.21805" lon="-3.97855">
        <ele>87.136596679688</ele>
        <time>2012-04-20T14:28:41Z</time>
      </trkpt>
      <trkpt lat="48.21808" lon="-3.97891">
        <ele>87.136596679688</ele>
        <time>2012-04-20T14:28:44Z</time>
      </trkpt>
      <trkpt lat="48.21778" lon="-3.97928">
        <ele>85.694580078125</ele>
        <time>2012-04-20T14:28:54Z</time>
      </trkpt>
      <trkpt lat="48.21773" lon="-3.97927">
        <ele>85.694580078125</ele>
        <time>2012-04-20T14:28:55Z</time>
      </trkpt>
      <trkpt lat="48.21764" lon="-3.97925">
        <ele>85.213989257812</ele>
        <time>2012-04-20T14:28:57Z</time>
      </trkpt>
      <trkpt lat="48.21742" lon="-3.97929">
        <ele>84.252685546875</ele>
        <time>2012-04-20T14:29:01Z</time>
      </trkpt>
      <trkpt lat="48.21649" lon="-3.97965">
        <ele>84.252685546875</ele>
        <time>2012-04-20T14:29:18Z</time>
      </trkpt>
      <trkpt lat="48.21514" lon="-3.97987">
        <ele>84.7333984375</ele>
        <time>2012-04-20T14:29:44Z</time>
      </trkpt>
      <trkpt lat="48.21417" lon="-3.98001">
        <ele>83.77197265625</ele>
        <time>2012-04-20T14:30:03Z</time>
      </trkpt>
      <trkpt lat="48.21346" lon="-3.97984">
        <ele>81.368774414062</ele>
        <time>2012-04-20T14:30:18Z</time>
      </trkpt>
      <trkpt lat="48.21223" lon="-3.9793">
        <ele>80.407470703125</ele>
        <time>2012-04-20T14:30:37Z</time>
      </trkpt>
      <trkpt lat="48.21106" lon="-3.97906">
        <ele>77.5234375</ele>
        <time>2012-04-20T14:30:56Z</time>
      </trkpt>
      <trkpt lat="48.20996" lon="-3.97939">
        <ele>73.197631835938</ele>
        <time>2012-04-20T14:31:13Z</time>
      </trkpt>
      <trkpt lat="48.20898" lon="-3.98017">
        <ele>70.3134765625</ele>
        <time>2012-04-20T14:31:31Z</time>
      </trkpt>
      <trkpt lat="48.208" lon="-3.98155">
        <ele>65.0263671875</ele>
        <time>2012-04-20T14:31:52Z</time>
      </trkpt>
      <trkpt lat="48.20713" lon="-3.98242">
        <ele>61.661743164062</ele>
        <time>2012-04-20T14:32:10Z</time>
      </trkpt>
      <trkpt lat="48.20616" lon="-3.98272">
        <ele>59.739135742188</ele>
        <time>2012-04-20T14:32:27Z</time>
      </trkpt>
      <trkpt lat="48.20507" lon="-3.9824">
        <ele>55.893798828125</ele>
        <time>2012-04-20T14:32:45Z</time>
      </trkpt>
      <trkpt lat="48.20369" lon="-3.9818">
        <ele>55.4130859375</ele>
        <time>2012-04-20T14:33:10Z</time>
      </trkpt>
      <trkpt lat="48.203" lon="-3.98096">
        <ele>52.529174804688</ele>
        <time>2012-04-20T14:33:25Z</time>
      </trkpt>
      <trkpt lat="48.20228" lon="-3.97999">
        <ele>49.645263671875</ele>
        <time>2012-04-20T14:33:42Z</time>
      </trkpt>
      <trkpt lat="48.20136" lon="-3.97945">
        <ele>46.76123046875</ele>
        <time>2012-04-20T14:33:58Z</time>
      </trkpt>
      <trkpt lat="48.20004" lon="-3.97913">
        <ele>40.993408203125</ele>
        <time>2012-04-20T14:34:20Z</time>
      </trkpt>
      <trkpt lat="48.19865" lon="-3.97872">
        <ele>35.225463867188</ele>
        <time>2012-04-20T14:34:43Z</time>
      </trkpt>
      <trkpt lat="48.19771" lon="-3.97892">
        <ele>31.380126953125</ele>
        <time>2012-04-20T14:34:59Z</time>
      </trkpt>
      <trkpt lat="48.19667" lon="-3.97977">
        <ele>26.092895507812</ele>
        <time>2012-04-20T14:35:17Z</time>
      </trkpt>
      <trkpt lat="48.19554" lon="-3.98081">
        <ele>23.689575195312</ele>
        <time>2012-04-20T14:35:40Z</time>
      </trkpt>
      <trkpt lat="48.19433" lon="-3.98188">
        <ele>21.766967773438</ele>
        <time>2012-04-20T14:36:06Z</time>
      </trkpt>
      <trkpt lat="48.19371" lon="-3.98243">
        <ele>19.844360351562</ele>
        <time>2012-04-20T14:36:22Z</time>
      </trkpt>
      <trkpt lat="48.19371" lon="-3.98243">
        <ele>20.324951171875</ele>
        <time>2012-04-20T14:36:51Z</time>
      </trkpt>
      <trkpt lat="48.19349" lon="-3.98212">
        <ele>20.324951171875</ele>
        <time>2012-04-20T14:37:02Z</time>
      </trkpt>
      <trkpt lat="48.19332" lon="-3.98179">
        <ele>19.36376953125</ele>
        <time>2012-04-20T14:37:09Z</time>
      </trkpt>
      <trkpt lat="48.19313" lon="-3.98194">
        <ele>18.883056640625</ele>
        <time>2012-04-20T14:37:16Z</time>
      </trkpt>
      <trkpt lat="48.19264" lon="-3.9828">
        <ele>18.40234375</ele>
        <time>2012-04-20T14:37:34Z</time>
      </trkpt>
      <trkpt lat="48.19217" lon="-3.98349">
        <ele>17.921752929688</ele>
        <time>2012-04-20T14:37:53Z</time>
      </trkpt>
      <trkpt lat="48.19166" lon="-3.98414">
        <ele>17.441162109375</ele>
        <time>2012-04-20T14:38:10Z</time>
      </trkpt>
      <trkpt lat="48.19152" lon="-3.98431">
        <ele>17.441162109375</ele>
        <time>2012-04-20T14:38:25Z</time>
      </trkpt>
      <trkpt lat="48.19152" lon="-3.98431">
        <ele>17.441162109375</ele>
        <time>2012-04-20T14:40:01Z</time>
      </trkpt>
      <trkpt lat="48.19152" lon="-3.98431">
        <ele>17.441162109375</ele>
        <time>2012-04-20T14:40:19Z</time>
      </trkpt>
      <trkpt lat="48.19145" lon="-3.9844">
        <ele>17.921752929688</ele>
        <time>2012-04-20T14:40:24Z</time>
      </trkpt>
      <trkpt lat="48.1912" lon="-3.98494">
        <ele>18.40234375</ele>
        <time>2012-04-20T14:40:40Z</time>
      </trkpt>
      <trkpt lat="48.19111" lon="-3.98548">
        <ele>18.883056640625</ele>
        <time>2012-04-20T14:40:55Z</time>
      </trkpt>
      <trkpt lat="48.19114" lon="-3.986">
        <ele>18.883056640625</ele>
        <time>2012-04-20T14:41:09Z</time>
      </trkpt>
      <trkpt lat="48.19115" lon="-3.98616">
        <ele>20.8056640625</ele>
        <time>2012-04-20T14:41:18Z</time>
      </trkpt>
      <trkpt lat="48.19122" lon="-3.98671">
        <ele>18.883056640625</ele>
        <time>2012-04-20T14:41:29Z</time>
      </trkpt>
      <trkpt lat="48.19118" lon="-3.9879">
        <ele>17.921752929688</ele>
        <time>2012-04-20T14:41:46Z</time>
      </trkpt>
      <trkpt lat="48.19095" lon="-3.98912">
        <ele>17.921752929688</ele>
        <time>2012-04-20T14:42:04Z</time>
      </trkpt>
      <trkpt lat="48.1909" lon="-3.98932">
        <ele>17.921752929688</ele>
        <time>2012-04-20T14:42:07Z</time>
      </trkpt>
      <trkpt lat="48.19068" lon="-3.99017">
        <ele>17.441162109375</ele>
        <time>2012-04-20T14:42:21Z</time>
      </trkpt>
      <trkpt lat="48.19067" lon="-3.99049">
        <ele>17.921752929688</ele>
        <time>2012-04-20T14:42:26Z</time>
      </trkpt>
      <trkpt lat="48.19085" lon="-3.99161">
        <ele>17.441162109375</ele>
        <time>2012-04-20T14:42:44Z</time>
      </trkpt>
      <trkpt lat="48.19142" lon="-3.99263">
        <ele>17.921752929688</ele>
        <time>2012-04-20T14:43:05Z</time>
      </trkpt>
      <trkpt lat="48.19201" lon="-3.99295">
        <ele>18.40234375</ele>
        <time>2012-04-20T14:43:20Z</time>
      </trkpt>
      <trkpt lat="48.19223" lon="-3.99293">
        <ele>18.40234375</ele>
        <time>2012-04-20T14:43:26Z</time>
      </trkpt>
      <trkpt lat="48.19308" lon="-3.99271">
        <ele>18.883056640625</ele>
        <time>2012-04-20T14:43:48Z</time>
      </trkpt>
      <trkpt lat="48.19325" lon="-3.99277">
        <ele>18.883056640625</ele>
        <time>2012-04-20T14:43:52Z</time>
      </trkpt>
      <trkpt lat="48.19396" lon="-3.99295">
        <ele>17.441162109375</ele>
        <time>2012-04-20T14:44:09Z</time>
      </trkpt>
      <trkpt lat="48.19488" lon="-3.99321">
        <ele>16.479736328125</ele>
        <time>2012-04-20T14:44:32Z</time>
      </trkpt>
      <trkpt lat="48.19589" lon="-3.99361">
        <ele>15.518432617188</ele>
        <time>2012-04-20T14:44:56Z</time>
      </trkpt>
      <trkpt lat="48.19666" lon="-3.99415">
        <ele>15.518432617188</ele>
        <time>2012-04-20T14:45:19Z</time>
      </trkpt>
      <trkpt lat="48.1973" lon="-3.99467">
        <ele>14.557006835938</ele>
        <time>2012-04-20T14:45:40Z</time>
      </trkpt>
      <trkpt lat="48.19789" lon="-3.99557">
        <ele>15.518432617188</ele>
        <time>2012-04-20T14:46:02Z</time>
      </trkpt>
      <trkpt lat="48.19832" lon="-3.99635">
        <ele>15.518432617188</ele>
        <time>2012-04-20T14:46:19Z</time>
      </trkpt>
      <trkpt lat="48.19854" lon="-3.99711">
        <ele>16.479736328125</ele>
        <time>2012-04-20T14:46:32Z</time>
      </trkpt>
      <trkpt lat="48.19858" lon="-3.99811">
        <ele>16.96044921875</ele>
        <time>2012-04-20T14:46:49Z</time>
      </trkpt>
      <trkpt lat="48.19857" lon="-3.99825">
        <ele>16.479736328125</ele>
        <time>2012-04-20T14:46:51Z</time>
      </trkpt>
      <trkpt lat="48.19854" lon="-3.9986">
        <ele>17.441162109375</ele>
        <time>2012-04-20T14:46:56Z</time>
      </trkpt>
      <trkpt lat="48.1985" lon="-3.9992">
        <ele>16.479736328125</ele>
        <time>2012-04-20T14:47:05Z</time>
      </trkpt>
      <trkpt lat="48.19852" lon="-3.99952">
        <ele>16.96044921875</ele>
        <time>2012-04-20T14:47:10Z</time>
      </trkpt>
      <trkpt lat="48.19861" lon="-3.99974">
        <ele>15.518432617188</ele>
        <time>2012-04-20T14:47:14Z</time>
      </trkpt>
      <trkpt lat="48.19906" lon="-4.00066">
        <ele>15.037719726562</ele>
        <time>2012-04-20T14:47:31Z</time>
      </trkpt>
      <trkpt lat="48.19936" lon="-4.0014">
        <ele>15.037719726562</ele>
        <time>2012-04-20T14:47:45Z</time>
      </trkpt>
      <trkpt lat="48.19947" lon="-4.00212">
        <ele>13.595825195312</ele>
        <time>2012-04-20T14:47:58Z</time>
      </trkpt>
      <trkpt lat="48.19945" lon="-4.00275">
        <ele>18.40234375</ele>
        <time>2012-04-20T14:48:09Z</time>
      </trkpt>
      <trkpt lat="48.19931" lon="-4.00335">
        <ele>22.24755859375</ele>
        <time>2012-04-20T14:48:20Z</time>
      </trkpt>
      <trkpt lat="48.1991" lon="-4.00436">
        <ele>23.689575195312</ele>
        <time>2012-04-20T14:48:36Z</time>
      </trkpt>
      <trkpt lat="48.19904" lon="-4.00481">
        <ele>22.24755859375</ele>
        <time>2012-04-20T14:48:43Z</time>
      </trkpt>
      <trkpt lat="48.19893" lon="-4.00567">
        <ele>22.24755859375</ele>
        <time>2012-04-20T14:48:56Z</time>
      </trkpt>
      <trkpt lat="48.19887" lon="-4.00619">
        <ele>22.24755859375</ele>
        <time>2012-04-20T14:49:04Z</time>
      </trkpt>
      <trkpt lat="48.19878" lon="-4.00672">
        <ele>23.689575195312</ele>
        <time>2012-04-20T14:49:13Z</time>
      </trkpt>
      <trkpt lat="48.19865" lon="-4.00728">
        <ele>23.689575195312</ele>
        <time>2012-04-20T14:49:22Z</time>
      </trkpt>
      <trkpt lat="48.19836" lon="-4.00805">
        <ele>22.24755859375</ele>
        <time>2012-04-20T14:49:36Z</time>
      </trkpt>
      <trkpt lat="48.19823" lon="-4.00837">
        <ele>22.728271484375</ele>
        <time>2012-04-20T14:49:42Z</time>
      </trkpt>
      <trkpt lat="48.198" lon="-4.00892">
        <ele>21.766967773438</ele>
        <time>2012-04-20T14:49:52Z</time>
      </trkpt>
      <trkpt lat="48.19774" lon="-4.00955">
        <ele>19.36376953125</ele>
        <time>2012-04-20T14:50:03Z</time>
      </trkpt>
      <trkpt lat="48.19758" lon="-4.00994">
        <ele>20.324951171875</ele>
        <time>2012-04-20T14:50:10Z</time>
      </trkpt>
      <trkpt lat="48.19753" lon="-4.01012">
        <ele>21.286376953125</ele>
        <time>2012-04-20T14:50:13Z</time>
      </trkpt>
      <trkpt lat="48.19748" lon="-4.01071">
        <ele>26.573608398438</ele>
        <time>2012-04-20T14:50:24Z</time>
      </trkpt>
      <trkpt lat="48.19745" lon="-4.0111">
        <ele>28.015502929688</ele>
        <time>2012-04-20T14:50:30Z</time>
      </trkpt>
      <trkpt lat="48.19741" lon="-4.01171">
        <ele>26.092895507812</ele>
        <time>2012-04-20T14:50:39Z</time>
      </trkpt>
      <trkpt lat="48.19745" lon="-4.01219">
        <ele>26.573608398438</ele>
        <time>2012-04-20T14:50:46Z</time>
      </trkpt>
      <trkpt lat="48.19747" lon="-4.01238">
        <ele>27.054321289062</ele>
        <time>2012-04-20T14:50:49Z</time>
      </trkpt>
      <trkpt lat="48.19757" lon="-4.01283">
        <ele>25.6123046875</ele>
        <time>2012-04-20T14:50:57Z</time>
      </trkpt>
      <trkpt lat="48.19789" lon="-4.01352">
        <ele>25.131713867188</ele>
        <time>2012-04-20T14:51:09Z</time>
      </trkpt>
      <trkpt lat="48.19798" lon="-4.01365">
        <ele>25.131713867188</ele>
        <time>2012-04-20T14:51:12Z</time>
      </trkpt>
      <trkpt lat="48.19853" lon="-4.01412">
        <ele>20.324951171875</ele>
        <time>2012-04-20T14:51:27Z</time>
      </trkpt>
      <trkpt lat="48.19924" lon="-4.01433">
        <ele>17.921752929688</ele>
        <time>2012-04-20T14:51:44Z</time>
      </trkpt>
      <trkpt lat="48.20011" lon="-4.01452">
        <ele>15.9990234375</ele>
        <time>2012-04-20T14:52:05Z</time>
      </trkpt>
      <trkpt lat="48.2002" lon="-4.01454">
        <ele>15.518432617188</ele>
        <time>2012-04-20T14:52:07Z</time>
      </trkpt>
      <trkpt lat="48.2005" lon="-4.01461">
        <ele>14.557006835938</ele>
        <time>2012-04-20T14:52:14Z</time>
      </trkpt>
      <trkpt lat="48.20089" lon="-4.01453">
        <ele>14.076416015625</ele>
        <time>2012-04-20T14:52:23Z</time>
      </trkpt>
      <trkpt lat="48.20128" lon="-4.01434">
        <ele>15.518432617188</ele>
        <time>2012-04-20T14:52:32Z</time>
      </trkpt>
      <trkpt lat="48.20215" lon="-4.01377">
        <ele>17.441162109375</ele>
        <time>2012-04-20T14:52:54Z</time>
      </trkpt>
      <trkpt lat="48.20293" lon="-4.013">
        <ele>19.844360351562</ele>
        <time>2012-04-20T14:53:17Z</time>
      </trkpt>
      <trkpt lat="48.20355" lon="-4.0124">
        <ele>19.844360351562</ele>
        <time>2012-04-20T14:53:35Z</time>
      </trkpt>
      <trkpt lat="48.20413" lon="-4.01181">
        <ele>19.844360351562</ele>
        <time>2012-04-20T14:53:52Z</time>
      </trkpt>
      <trkpt lat="48.20479" lon="-4.01105">
        <ele>18.40234375</ele>
        <time>2012-04-20T14:54:11Z</time>
      </trkpt>
      <trkpt lat="48.20552" lon="-4.01011">
        <ele>17.921752929688</ele>
        <time>2012-04-20T14:54:32Z</time>
      </trkpt>
      <trkpt lat="48.20589" lon="-4.00956">
        <ele>16.96044921875</ele>
        <time>2012-04-20T14:54:44Z</time>
      </trkpt>
      <trkpt lat="48.20603" lon="-4.00936">
        <ele>15.9990234375</ele>
        <time>2012-04-20T14:54:48Z</time>
      </trkpt>
      <trkpt lat="48.20668" lon="-4.00859">
        <ele>17.441162109375</ele>
        <time>2012-04-20T14:55:09Z</time>
      </trkpt>
      <trkpt lat="48.20696" lon="-4.00841">
        <ele>17.921752929688</ele>
        <time>2012-04-20T14:55:20Z</time>
      </trkpt>
      <trkpt lat="48.20765" lon="-4.00799">
        <ele>17.921752929688</ele>
        <time>2012-04-20T14:55:38Z</time>
      </trkpt>
      <trkpt lat="48.20846" lon="-4.00824">
        <ele>16.96044921875</ele>
        <time>2012-04-20T14:55:58Z</time>
      </trkpt>
      <trkpt lat="48.20909" lon="-4.00878">
        <ele>15.518432617188</ele>
        <time>2012-04-20T14:56:15Z</time>
      </trkpt>
      <trkpt lat="48.21028" lon="-4.00999">
        <ele>14.557006835938</ele>
        <time>2012-04-20T14:56:48Z</time>
      </trkpt>
      <trkpt lat="48.21133" lon="-4.01099">
        <ele>13.595825195312</ele>
        <time>2012-04-20T14:57:18Z</time>
      </trkpt>
      <trkpt lat="48.2119" lon="-4.01172">
        <ele>13.115112304688</ele>
        <time>2012-04-20T14:57:35Z</time>
      </trkpt>
      <trkpt lat="48.21199" lon="-4.01185">
        <ele>13.115112304688</ele>
        <time>2012-04-20T14:57:38Z</time>
      </trkpt>
      <trkpt lat="48.21224" lon="-4.01222">
        <ele>12.634399414062</ele>
        <time>2012-04-20T14:57:46Z</time>
      </trkpt>
      <trkpt lat="48.21236" lon="-4.01259">
        <ele>13.115112304688</ele>
        <time>2012-04-20T14:57:52Z</time>
      </trkpt>
      <trkpt lat="48.21247" lon="-4.0131">
        <ele>12.15380859375</ele>
        <time>2012-04-20T14:58:00Z</time>
      </trkpt>
      <trkpt lat="48.21249" lon="-4.01327">
        <ele>12.15380859375</ele>
        <time>2012-04-20T14:58:03Z</time>
      </trkpt>
      <trkpt lat="48.21254" lon="-4.01367">
        <ele>11.192504882812</ele>
        <time>2012-04-20T14:58:09Z</time>
      </trkpt>
      <trkpt lat="48.21258" lon="-4.01401">
        <ele>11.192504882812</ele>
        <time>2012-04-20T14:58:14Z</time>
      </trkpt>
      <trkpt lat="48.21261" lon="-4.01425">
        <ele>11.673217773438</ele>
        <time>2012-04-20T14:58:18Z</time>
      </trkpt>
      <trkpt lat="48.21264" lon="-4.01444">
        <ele>11.673217773438</ele>
        <time>2012-04-20T14:58:21Z</time>
      </trkpt>
      <trkpt lat="48.21263" lon="-4.0149">
        <ele>13.595825195312</ele>
        <time>2012-04-20T14:58:28Z</time>
      </trkpt>
      <trkpt lat="48.21248" lon="-4.01635">
        <ele>12.634399414062</ele>
        <time>2012-04-20T14:58:49Z</time>
      </trkpt>
      <trkpt lat="48.21231" lon="-4.01713">
        <ele>14.557006835938</ele>
        <time>2012-04-20T14:59:00Z</time>
      </trkpt>
      <trkpt lat="48.21224" lon="-4.01731">
        <ele>15.037719726562</ele>
        <time>2012-04-20T14:59:03Z</time>
      </trkpt>
      <trkpt lat="48.21179" lon="-4.01814">
        <ele>13.115112304688</ele>
        <time>2012-04-20T14:59:18Z</time>
      </trkpt>
      <trkpt lat="48.2115" lon="-4.01851">
        <ele>13.115112304688</ele>
        <time>2012-04-20T14:59:27Z</time>
      </trkpt>
      <trkpt lat="48.21092" lon="-4.01908">
        <ele>14.076416015625</ele>
        <time>2012-04-20T14:59:44Z</time>
      </trkpt>
      <trkpt lat="48.2104" lon="-4.01955">
        <ele>13.595825195312</ele>
        <time>2012-04-20T14:59:59Z</time>
      </trkpt>
      <trkpt lat="48.20981" lon="-4.01995">
        <ele>13.115112304688</ele>
        <time>2012-04-20T15:00:18Z</time>
      </trkpt>
      <trkpt lat="48.20949" lon="-4.02017">
        <ele>12.634399414062</ele>
        <time>2012-04-20T15:00:33Z</time>
      </trkpt>
      <trkpt lat="48.20902" lon="-4.02072">
        <ele>12.634399414062</ele>
        <time>2012-04-20T15:00:50Z</time>
      </trkpt>
      <trkpt lat="48.20821" lon="-4.02167">
        <ele>12.634399414062</ele>
        <time>2012-04-20T15:01:14Z</time>
      </trkpt>
      <trkpt lat="48.20718" lon="-4.02255">
        <ele>12.634399414062</ele>
        <time>2012-04-20T15:01:38Z</time>
      </trkpt>
      <trkpt lat="48.20668" lon="-4.02273">
        <ele>12.634399414062</ele>
        <time>2012-04-20T15:01:49Z</time>
      </trkpt>
      <trkpt lat="48.20595" lon="-4.02272">
        <ele>14.557006835938</ele>
        <time>2012-04-20T15:02:05Z</time>
      </trkpt>
      <trkpt lat="48.20581" lon="-4.02269">
        <ele>14.557006835938</ele>
        <time>2012-04-20T15:02:08Z</time>
      </trkpt>
      <trkpt lat="48.20503" lon="-4.02239">
        <ele>15.9990234375</ele>
        <time>2012-04-20T15:02:25Z</time>
      </trkpt>
      <trkpt lat="48.20494" lon="-4.02235">
        <ele>16.479736328125</ele>
        <time>2012-04-20T15:02:27Z</time>
      </trkpt>
      <trkpt lat="48.20421" lon="-4.02205">
        <ele>20.324951171875</ele>
        <time>2012-04-20T15:02:44Z</time>
      </trkpt>
      <trkpt lat="48.20374" lon="-4.02194">
        <ele>19.844360351562</ele>
        <time>2012-04-20T15:02:55Z</time>
      </trkpt>
      <trkpt lat="48.20356" lon="-4.02193">
        <ele>19.36376953125</ele>
        <time>2012-04-20T15:02:59Z</time>
      </trkpt>
      <trkpt lat="48.20335" lon="-4.02193">
        <ele>18.40234375</ele>
        <time>2012-04-20T15:03:04Z</time>
      </trkpt>
      <trkpt lat="48.20318" lon="-4.02192">
        <ele>17.921752929688</ele>
        <time>2012-04-20T15:03:08Z</time>
      </trkpt>
      <trkpt lat="48.20202" lon="-4.02195">
        <ele>15.037719726562</ele>
        <time>2012-04-20T15:03:33Z</time>
      </trkpt>
      <trkpt lat="48.20141" lon="-4.02196">
        <ele>15.037719726562</ele>
        <time>2012-04-20T15:03:48Z</time>
      </trkpt>
      <trkpt lat="48.20051" lon="-4.02194">
        <ele>13.595825195312</ele>
        <time>2012-04-20T15:04:11Z</time>
      </trkpt>
      <trkpt lat="48.19972" lon="-4.02202">
        <ele>13.115112304688</ele>
        <time>2012-04-20T15:04:31Z</time>
      </trkpt>
      <trkpt lat="48.19893" lon="-4.02216">
        <ele>12.15380859375</ele>
        <time>2012-04-20T15:04:52Z</time>
      </trkpt>
      <trkpt lat="48.19817" lon="-4.0224">
        <ele>11.673217773438</ele>
        <time>2012-04-20T15:05:12Z</time>
      </trkpt>
      <trkpt lat="48.1977" lon="-4.02249">
        <ele>12.15380859375</ele>
        <time>2012-04-20T15:05:25Z</time>
      </trkpt>
      <trkpt lat="48.19731" lon="-4.0228">
        <ele>13.115112304688</ele>
        <time>2012-04-20T15:05:36Z</time>
      </trkpt>
      <trkpt lat="48.19727" lon="-4.02284">
        <ele>13.115112304688</ele>
        <time>2012-04-20T15:05:37Z</time>
      </trkpt>
      <trkpt lat="48.19692" lon="-4.02368">
        <ele>13.595825195312</ele>
        <time>2012-04-20T15:05:54Z</time>
      </trkpt>
      <trkpt lat="48.19684" lon="-4.02408">
        <ele>14.557006835938</ele>
        <time>2012-04-20T15:06:02Z</time>
      </trkpt>
      <trkpt lat="48.19682" lon="-4.02468">
        <ele>12.634399414062</ele>
        <time>2012-04-20T15:06:12Z</time>
      </trkpt>
      <trkpt lat="48.19685" lon="-4.0248">
        <ele>12.15380859375</ele>
        <time>2012-04-20T15:06:14Z</time>
      </trkpt>
      <trkpt lat="48.19691" lon="-4.02513">
        <ele>12.634399414062</ele>
        <time>2012-04-20T15:06:19Z</time>
      </trkpt>
      <trkpt lat="48.19695" lon="-4.02535">
        <ele>12.634399414062</ele>
        <time>2012-04-20T15:06:22Z</time>
      </trkpt>
      <trkpt lat="48.1975" lon="-4.02647">
        <ele>10.711791992188</ele>
        <time>2012-04-20T15:06:45Z</time>
      </trkpt>
      <trkpt lat="48.19805" lon="-4.02748">
        <ele>10.231201171875</ele>
        <time>2012-04-20T15:07:07Z</time>
      </trkpt>
      <trkpt lat="48.19845" lon="-4.02797">
        <ele>9.7506103515625</ele>
        <time>2012-04-20T15:07:21Z</time>
      </trkpt>
      <trkpt lat="48.19923" lon="-4.02866">
        <ele>10.711791992188</ele>
        <time>2012-04-20T15:07:43Z</time>
      </trkpt>
      <trkpt lat="48.1993" lon="-4.02868">
        <ele>10.711791992188</ele>
        <time>2012-04-20T15:07:45Z</time>
      </trkpt>
      <trkpt lat="48.19948" lon="-4.02863">
        <ele>10.711791992188</ele>
        <time>2012-04-20T15:07:49Z</time>
      </trkpt>
      <trkpt lat="48.1997" lon="-4.02857">
        <ele>11.192504882812</ele>
        <time>2012-04-20T15:07:54Z</time>
      </trkpt>
      <trkpt lat="48.20016" lon="-4.02818">
        <ele>10.711791992188</ele>
        <time>2012-04-20T15:08:07Z</time>
      </trkpt>
      <trkpt lat="48.20103" lon="-4.02777">
        <ele>11.192504882812</ele>
        <time>2012-04-20T15:08:30Z</time>
      </trkpt>
      <trkpt lat="48.20175" lon="-4.02762">
        <ele>12.15380859375</ele>
        <time>2012-04-20T15:08:49Z</time>
      </trkpt>
      <trkpt lat="48.20228" lon="-4.02757">
        <ele>11.673217773438</ele>
        <time>2012-04-20T15:09:03Z</time>
      </trkpt>
      <trkpt lat="48.20292" lon="-4.02751">
        <ele>11.673217773438</ele>
        <time>2012-04-20T15:09:19Z</time>
      </trkpt>
      <trkpt lat="48.20343" lon="-4.02746">
        <ele>12.15380859375</ele>
        <time>2012-04-20T15:09:32Z</time>
      </trkpt>
      <trkpt lat="48.20454" lon="-4.02739">
        <ele>11.673217773438</ele>
        <time>2012-04-20T15:09:57Z</time>
      </trkpt>
      <trkpt lat="48.20577" lon="-4.02733">
        <ele>9.7506103515625</ele>
        <time>2012-04-20T15:10:25Z</time>
      </trkpt>
      <trkpt lat="48.20636" lon="-4.02729">
        <ele>9.7506103515625</ele>
        <time>2012-04-20T15:10:38Z</time>
      </trkpt>
      <trkpt lat="48.20679" lon="-4.02726">
        <ele>8.7891845703125</ele>
        <time>2012-04-20T15:10:48Z</time>
      </trkpt>
      <trkpt lat="48.20784" lon="-4.02718">
        <ele>8.7891845703125</ele>
        <time>2012-04-20T15:11:11Z</time>
      </trkpt>
      <trkpt lat="48.20826" lon="-4.02702">
        <ele>8.30859375</ele>
        <time>2012-04-20T15:11:20Z</time>
      </trkpt>
      <trkpt lat="48.20841" lon="-4.02696">
        <ele>8.30859375</ele>
        <time>2012-04-20T15:11:23Z</time>
      </trkpt>
      <trkpt lat="48.20915" lon="-4.0263">
        <ele>8.7891845703125</ele>
        <time>2012-04-20T15:11:41Z</time>
      </trkpt>
      <trkpt lat="48.20995" lon="-4.02528">
        <ele>9.2698974609375</ele>
        <time>2012-04-20T15:12:04Z</time>
      </trkpt>
      <trkpt lat="48.21062" lon="-4.02444">
        <ele>9.7506103515625</ele>
        <time>2012-04-20T15:12:23Z</time>
      </trkpt>
      <trkpt lat="48.21134" lon="-4.0235">
        <ele>9.7506103515625</ele>
        <time>2012-04-20T15:12:45Z</time>
      </trkpt>
      <trkpt lat="48.21227" lon="-4.02267">
        <ele>10.711791992188</ele>
        <time>2012-04-20T15:13:09Z</time>
      </trkpt>
      <trkpt lat="48.21332" lon="-4.02207">
        <ele>10.231201171875</ele>
        <time>2012-04-20T15:13:33Z</time>
      </trkpt>
      <trkpt lat="48.21389" lon="-4.02192">
        <ele>10.231201171875</ele>
        <time>2012-04-20T15:13:46Z</time>
      </trkpt>
      <trkpt lat="48.21437" lon="-4.02214">
        <ele>10.711791992188</ele>
        <time>2012-04-20T15:14:00Z</time>
      </trkpt>
      <trkpt lat="48.21509" lon="-4.0232">
        <ele>10.231201171875</ele>
        <time>2012-04-20T15:14:22Z</time>
      </trkpt>
      <trkpt lat="48.21572" lon="-4.02494">
        <ele>10.231201171875</ele>
        <time>2012-04-20T15:14:48Z</time>
      </trkpt>
      <trkpt lat="48.21588" lon="-4.02627">
        <ele>11.192504882812</ele>
        <time>2012-04-20T15:15:06Z</time>
      </trkpt>
      <trkpt lat="48.2159" lon="-4.0264">
        <ele>12.15380859375</ele>
        <time>2012-04-20T15:15:08Z</time>
      </trkpt>
      <trkpt lat="48.21603" lon="-4.02771">
        <ele>11.673217773438</ele>
        <time>2012-04-20T15:15:27Z</time>
      </trkpt>
      <trkpt lat="48.21607" lon="-4.02812">
        <ele>12.15380859375</ele>
        <time>2012-04-20T15:15:33Z</time>
      </trkpt>
      <trkpt lat="48.21613" lon="-4.02915">
        <ele>13.115112304688</ele>
        <time>2012-04-20T15:15:48Z</time>
      </trkpt>
      <trkpt lat="48.21615" lon="-4.03037">
        <ele>12.634399414062</ele>
        <time>2012-04-20T15:16:06Z</time>
      </trkpt>
      <trkpt lat="48.21603" lon="-4.03158">
        <ele>13.115112304688</ele>
        <time>2012-04-20T15:16:23Z</time>
      </trkpt>
      <trkpt lat="48.21581" lon="-4.03242">
        <ele>12.15380859375</ele>
        <time>2012-04-20T15:16:39Z</time>
      </trkpt>
      <trkpt lat="48.21576" lon="-4.03256">
        <ele>12.15380859375</ele>
        <time>2012-04-20T15:16:49Z</time>
      </trkpt>
      <trkpt lat="48.21576" lon="-4.03256">
        <ele>12.15380859375</ele>
        <time>2012-04-20T15:17:24Z</time>
      </trkpt>
      <trkpt lat="48.21576" lon="-4.03256">
        <ele>10.711791992188</ele>
        <time>2012-04-20T15:27:20Z</time>
      </trkpt>
      <trkpt lat="48.21554" lon="-4.03317">
        <ele>10.231201171875</ele>
        <time>2012-04-20T15:27:33Z</time>
      </trkpt>
      <trkpt lat="48.21539" lon="-4.03359">
        <ele>8.7891845703125</ele>
        <time>2012-04-20T15:27:40Z</time>
      </trkpt>
      <trkpt lat="48.2148" lon="-4.03504">
        <ele>7.827880859375</ele>
        <time>2012-04-20T15:28:04Z</time>
      </trkpt>
      <trkpt lat="48.21436" lon="-4.03591">
        <ele>7.34716796875</ele>
        <time>2012-04-20T15:28:19Z</time>
      </trkpt>
      <trkpt lat="48.21364" lon="-4.03695">
        <ele>8.30859375</ele>
        <time>2012-04-20T15:28:41Z</time>
      </trkpt>
      <trkpt lat="48.21283" lon="-4.03759">
        <ele>11.192504882812</ele>
        <time>2012-04-20T15:29:01Z</time>
      </trkpt>
      <trkpt lat="48.21215" lon="-4.03797">
        <ele>14.076416015625</ele>
        <time>2012-04-20T15:29:16Z</time>
      </trkpt>
      <trkpt lat="48.21172" lon="-4.0382">
        <ele>15.518432617188</ele>
        <time>2012-04-20T15:29:26Z</time>
      </trkpt>
      <trkpt lat="48.21083" lon="-4.03861">
        <ele>14.557006835938</ele>
        <time>2012-04-20T15:29:46Z</time>
      </trkpt>
      <trkpt lat="48.2103" lon="-4.03878">
        <ele>17.921752929688</ele>
        <time>2012-04-20T15:29:58Z</time>
      </trkpt>
      <trkpt lat="48.20961" lon="-4.03883">
        <ele>17.441162109375</ele>
        <time>2012-04-20T15:30:12Z</time>
      </trkpt>
      <trkpt lat="48.20889" lon="-4.03884">
        <ele>16.479736328125</ele>
        <time>2012-04-20T15:30:27Z</time>
      </trkpt>
      <trkpt lat="48.20766" lon="-4.03874">
        <ele>18.40234375</ele>
        <time>2012-04-20T15:30:53Z</time>
      </trkpt>
      <trkpt lat="48.20636" lon="-4.03864">
        <ele>17.921752929688</ele>
        <time>2012-04-20T15:31:22Z</time>
      </trkpt>
      <trkpt lat="48.20542" lon="-4.03861">
        <ele>14.076416015625</ele>
        <time>2012-04-20T15:31:44Z</time>
      </trkpt>
      <trkpt lat="48.20446" lon="-4.03873">
        <ele>10.231201171875</ele>
        <time>2012-04-20T15:32:04Z</time>
      </trkpt>
      <trkpt lat="48.20366" lon="-4.03896">
        <ele>11.192504882812</ele>
        <time>2012-04-20T15:32:23Z</time>
      </trkpt>
      <trkpt lat="48.20306" lon="-4.03907">
        <ele>14.076416015625</ele>
        <time>2012-04-20T15:32:38Z</time>
      </trkpt>
      <trkpt lat="48.20298" lon="-4.03907">
        <ele>14.076416015625</ele>
        <time>2012-04-20T15:32:40Z</time>
      </trkpt>
      <trkpt lat="48.20265" lon="-4.03911">
        <ele>15.037719726562</ele>
        <time>2012-04-20T15:32:48Z</time>
      </trkpt>
      <trkpt lat="48.2016" lon="-4.03898">
        <ele>15.518432617188</ele>
        <time>2012-04-20T15:33:10Z</time>
      </trkpt>
      <trkpt lat="48.20064" lon="-4.03873">
        <ele>19.844360351562</ele>
        <time>2012-04-20T15:33:30Z</time>
      </trkpt>
      <trkpt lat="48.19975" lon="-4.03841">
        <ele>17.921752929688</ele>
        <time>2012-04-20T15:33:49Z</time>
      </trkpt>
      <trkpt lat="48.19898" lon="-4.03804">
        <ele>15.9990234375</ele>
        <time>2012-04-20T15:34:06Z</time>
      </trkpt>
      <trkpt lat="48.19838" lon="-4.03776">
        <ele>14.557006835938</ele>
        <time>2012-04-20T15:34:21Z</time>
      </trkpt>
      <trkpt lat="48.19751" lon="-4.0375">
        <ele>15.037719726562</ele>
        <time>2012-04-20T15:34:41Z</time>
      </trkpt>
      <trkpt lat="48.19663" lon="-4.03703">
        <ele>11.673217773438</ele>
        <time>2012-04-20T15:35:01Z</time>
      </trkpt>
      <trkpt lat="48.19607" lon="-4.0368">
        <ele>12.15380859375</ele>
        <time>2012-04-20T15:35:15Z</time>
      </trkpt>
      <trkpt lat="48.19525" lon="-4.03644">
        <ele>10.231201171875</ele>
        <time>2012-04-20T15:35:33Z</time>
      </trkpt>
      <trkpt lat="48.19428" lon="-4.03588">
        <ele>10.711791992188</ele>
        <time>2012-04-20T15:35:55Z</time>
      </trkpt>
      <trkpt lat="48.19324" lon="-4.03572">
        <ele>10.231201171875</ele>
        <time>2012-04-20T15:36:19Z</time>
      </trkpt>
      <trkpt lat="48.19223" lon="-4.03577">
        <ele>8.7891845703125</ele>
        <time>2012-04-20T15:36:43Z</time>
      </trkpt>
      <trkpt lat="48.19126" lon="-4.03599">
        <ele>8.30859375</ele>
        <time>2012-04-20T15:37:06Z</time>
      </trkpt>
      <trkpt lat="48.19036" lon="-4.03632">
        <ele>6.3858642578125</ele>
        <time>2012-04-20T15:37:27Z</time>
      </trkpt>
      <trkpt lat="48.18959" lon="-4.03645">
        <ele>7.34716796875</ele>
        <time>2012-04-20T15:37:46Z</time>
      </trkpt>
      <trkpt lat="48.18909" lon="-4.03667">
        <ele>6.3858642578125</ele>
        <time>2012-04-20T15:37:59Z</time>
      </trkpt>
      <trkpt lat="48.1888" lon="-4.03683">
        <ele>5.9052734375</ele>
        <time>2012-04-20T15:38:07Z</time>
      </trkpt>
      <trkpt lat="48.18868" lon="-4.03689">
        <ele>5.424560546875</ele>
        <time>2012-04-20T15:38:10Z</time>
      </trkpt>
      <trkpt lat="48.18781" lon="-4.03713">
        <ele>3.982666015625</ele>
        <time>2012-04-20T15:38:29Z</time>
      </trkpt>
      <trkpt lat="48.18662" lon="-4.03813">
        <ele>3.021240234375</ele>
        <time>2012-04-20T15:38:57Z</time>
      </trkpt>
      <trkpt lat="48.18577" lon="-4.03891">
        <ele>4.4632568359375</ele>
        <time>2012-04-20T15:39:20Z</time>
      </trkpt>
      <trkpt lat="48.18478" lon="-4.03962">
        <ele>3.982666015625</ele>
        <time>2012-04-20T15:39:44Z</time>
      </trkpt>
      <trkpt lat="48.18379" lon="-4.04031">
        <ele>2.5406494140625</ele>
        <time>2012-04-20T15:40:09Z</time>
      </trkpt>
      <trkpt lat="48.18298" lon="-4.04091">
        <ele>4.94384765625</ele>
        <time>2012-04-20T15:40:30Z</time>
      </trkpt>
      <trkpt lat="48.18179" lon="-4.04188">
        <ele>3.501953125</ele>
        <time>2012-04-20T15:41:00Z</time>
      </trkpt>
      <trkpt lat="48.18142" lon="-4.04262">
        <ele>3.501953125</ele>
        <time>2012-04-20T15:41:15Z</time>
      </trkpt>
      <trkpt lat="48.18145" lon="-4.04314">
        <ele>3.982666015625</ele>
        <time>2012-04-20T15:41:24Z</time>
      </trkpt>
      <trkpt lat="48.18157" lon="-4.04442">
        <ele>4.4632568359375</ele>
        <time>2012-04-20T15:41:43Z</time>
      </trkpt>
      <trkpt lat="48.18167" lon="-4.04551">
        <ele>3.982666015625</ele>
        <time>2012-04-20T15:42:01Z</time>
      </trkpt>
      <trkpt lat="48.18178" lon="-4.04619">
        <ele>3.501953125</ele>
        <time>2012-04-20T15:42:14Z</time>
      </trkpt>
      <trkpt lat="48.18205" lon="-4.04736">
        <ele>2.5406494140625</ele>
        <time>2012-04-20T15:42:33Z</time>
      </trkpt>
      <trkpt lat="48.18224" lon="-4.04819">
        <ele>1.579345703125</ele>
        <time>2012-04-20T15:42:49Z</time>
      </trkpt>
      <trkpt lat="48.18258" lon="-4.04925">
        <ele>1.0986328125</ele>
        <time>2012-04-20T15:43:11Z</time>
      </trkpt>
      <trkpt lat="48.18313" lon="-4.05041">
        <ele>1.579345703125</ele>
        <time>2012-04-20T15:43:35Z</time>
      </trkpt>
      <trkpt lat="48.18399" lon="-4.05131">
        <ele>2.06005859375</ele>
        <time>2012-04-20T15:44:02Z</time>
      </trkpt>
      <trkpt lat="48.18453" lon="-4.05171">
        <ele>2.06005859375</ele>
        <time>2012-04-20T15:44:19Z</time>
      </trkpt>
      <trkpt lat="48.18518" lon="-4.05225">
        <ele>2.06005859375</ele>
        <time>2012-04-20T15:44:39Z</time>
      </trkpt>
      <trkpt lat="48.18577" lon="-4.05277">
        <ele>2.06005859375</ele>
        <time>2012-04-20T15:44:57Z</time>
      </trkpt>
      <trkpt lat="48.1864" lon="-4.05321">
        <ele>2.06005859375</ele>
        <time>2012-04-20T15:45:17Z</time>
      </trkpt>
      <trkpt lat="48.1868" lon="-4.05337">
        <ele>1.579345703125</ele>
        <time>2012-04-20T15:45:27Z</time>
      </trkpt>
      <trkpt lat="48.18759" lon="-4.05344">
        <ele>1.0986328125</ele>
        <time>2012-04-20T15:45:47Z</time>
      </trkpt>
      <trkpt lat="48.188" lon="-4.05337">
        <ele>2.06005859375</ele>
        <time>2012-04-20T15:46:02Z</time>
      </trkpt>
      <trkpt lat="48.18825" lon="-4.05324">
        <ele>3.501953125</ele>
        <time>2012-04-20T15:46:09Z</time>
      </trkpt>
      <trkpt lat="48.18843" lon="-4.05304">
        <ele>3.982666015625</ele>
        <time>2012-04-20T15:46:15Z</time>
      </trkpt>
      <trkpt lat="48.18901" lon="-4.05241">
        <ele>2.5406494140625</ele>
        <time>2012-04-20T15:46:33Z</time>
      </trkpt>
      <trkpt lat="48.19008" lon="-4.05172">
        <ele>2.5406494140625</ele>
        <time>2012-04-20T15:47:00Z</time>
      </trkpt>
      <trkpt lat="48.19103" lon="-4.0515">
        <ele>3.021240234375</ele>
        <time>2012-04-20T15:47:22Z</time>
      </trkpt>
      <trkpt lat="48.19184" lon="-4.0513">
        <ele>3.501953125</ele>
        <time>2012-04-20T15:47:43Z</time>
      </trkpt>
      <trkpt lat="48.19235" lon="-4.05108">
        <ele>3.982666015625</ele>
        <time>2012-04-20T15:47:56Z</time>
      </trkpt>
      <trkpt lat="48.19324" lon="-4.05076">
        <ele>3.501953125</ele>
        <time>2012-04-20T15:48:19Z</time>
      </trkpt>
      <trkpt lat="48.19422" lon="-4.05034">
        <ele>3.021240234375</ele>
        <time>2012-04-20T15:48:43Z</time>
      </trkpt>
      <trkpt lat="48.19515" lon="-4.04989">
        <ele>2.5406494140625</ele>
        <time>2012-04-20T15:49:04Z</time>
      </trkpt>
      <trkpt lat="48.19604" lon="-4.04963">
        <ele>2.5406494140625</ele>
        <time>2012-04-20T15:49:26Z</time>
      </trkpt>
      <trkpt lat="48.1971" lon="-4.04933">
        <ele>2.5406494140625</ele>
        <time>2012-04-20T15:49:51Z</time>
      </trkpt>
      <trkpt lat="48.19805" lon="-4.04909">
        <ele>2.06005859375</ele>
        <time>2012-04-20T15:50:13Z</time>
      </trkpt>
      <trkpt lat="48.19923" lon="-4.04861">
        <ele>3.021240234375</ele>
        <time>2012-04-20T15:50:42Z</time>
      </trkpt>
      <trkpt lat="48.19998" lon="-4.04824">
        <ele>3.021240234375</ele>
        <time>2012-04-20T15:51:01Z</time>
      </trkpt>
      <trkpt lat="48.20028" lon="-4.04814">
        <ele>3.021240234375</ele>
        <time>2012-04-20T15:51:09Z</time>
      </trkpt>
      <trkpt lat="48.20045" lon="-4.04815">
        <ele>1.579345703125</ele>
        <time>2012-04-20T15:51:13Z</time>
      </trkpt>
      <trkpt lat="48.20102" lon="-4.04826">
        <ele>1.579345703125</ele>
        <time>2012-04-20T15:51:27Z</time>
      </trkpt>
      <trkpt lat="48.2018" lon="-4.04879">
        <ele>0.137451171875</ele>
        <time>2012-04-20T15:51:48Z</time>
      </trkpt>
      <trkpt lat="48.20264" lon="-4.04942">
        <ele>3.021240234375</ele>
        <time>2012-04-20T15:52:11Z</time>
      </trkpt>
      <trkpt lat="48.20347" lon="-4.0502">
        <ele>2.06005859375</ele>
        <time>2012-04-20T15:52:34Z</time>
      </trkpt>
      <trkpt lat="48.20419" lon="-4.05127">
        <ele>3.982666015625</ele>
        <time>2012-04-20T15:52:57Z</time>
      </trkpt>
      <trkpt lat="48.20484" lon="-4.05238">
        <ele>-1.3046875</ele>
        <time>2012-04-20T15:53:20Z</time>
      </trkpt>
      <trkpt lat="48.20559" lon="-4.05384">
        <ele>-0.8240966796875</ele>
        <time>2012-04-20T15:53:47Z</time>
      </trkpt>
      <trkpt lat="48.20611" lon="-4.05507">
        <ele>3.021240234375</ele>
        <time>2012-04-20T15:54:10Z</time>
      </trkpt>
      <trkpt lat="48.20634" lon="-4.05585">
        <ele>4.4632568359375</ele>
        <time>2012-04-20T15:54:27Z</time>
      </trkpt>
      <trkpt lat="48.20635" lon="-4.0559">
        <ele>6.866455078125</ele>
        <time>2012-04-20T15:54:42Z</time>
      </trkpt>
      <trkpt lat="48.20641" lon="-4.05626">
        <ele>7.34716796875</ele>
        <time>2012-04-20T15:54:55Z</time>
      </trkpt>
      <trkpt lat="48.20657" lon="-4.05755">
        <ele>8.7891845703125</ele>
        <time>2012-04-20T15:55:17Z</time>
      </trkpt>
      <trkpt lat="48.2066" lon="-4.05868">
        <ele>10.231201171875</ele>
        <time>2012-04-20T15:55:34Z</time>
      </trkpt>
      <trkpt lat="48.2065" lon="-4.05973">
        <ele>12.634399414062</ele>
        <time>2012-04-20T15:55:52Z</time>
      </trkpt>
      <trkpt lat="48.20627" lon="-4.06068">
        <ele>12.634399414062</ele>
        <time>2012-04-20T15:56:08Z</time>
      </trkpt>
      <trkpt lat="48.20593" lon="-4.06194">
        <ele>12.634399414062</ele>
        <time>2012-04-20T15:56:29Z</time>
      </trkpt>
      <trkpt lat="48.20557" lon="-4.063">
        <ele>11.673217773438</ele>
        <time>2012-04-20T15:56:47Z</time>
      </trkpt>
      <trkpt lat="48.20525" lon="-4.06373">
        <ele>7.827880859375</ele>
        <time>2012-04-20T15:57:01Z</time>
      </trkpt>
      <trkpt lat="48.20474" lon="-4.06453">
        <ele>8.7891845703125</ele>
        <time>2012-04-20T15:57:19Z</time>
      </trkpt>
      <trkpt lat="48.20436" lon="-4.06499">
        <ele>8.30859375</ele>
        <time>2012-04-20T15:57:32Z</time>
      </trkpt>
      <trkpt lat="48.2039" lon="-4.06556">
        <ele>8.7891845703125</ele>
        <time>2012-04-20T15:57:48Z</time>
      </trkpt>
      <trkpt lat="48.20297" lon="-4.06654">
        <ele>8.30859375</ele>
        <time>2012-04-20T15:58:16Z</time>
      </trkpt>
      <trkpt lat="48.20258" lon="-4.06684">
        <ele>7.827880859375</ele>
        <time>2012-04-20T15:58:27Z</time>
      </trkpt>
      <trkpt lat="48.20177" lon="-4.06759">
        <ele>3.021240234375</ele>
        <time>2012-04-20T15:58:51Z</time>
      </trkpt>
      <trkpt lat="48.20174" lon="-4.06762">
        <ele>3.021240234375</ele>
        <time>2012-04-20T15:58:52Z</time>
      </trkpt>
      <trkpt lat="48.20113" lon="-4.06825">
        <ele>2.5406494140625</ele>
        <time>2012-04-20T15:59:09Z</time>
      </trkpt>
      <trkpt lat="48.20042" lon="-4.06911">
        <ele>1.0986328125</ele>
        <time>2012-04-20T15:59:31Z</time>
      </trkpt>
      <trkpt lat="48.19947" lon="-4.0701">
        <ele>0.6180419921875</ele>
        <time>2012-04-20T16:00:00Z</time>
      </trkpt>
      <trkpt lat="48.19875" lon="-4.07104">
        <ele>0.6180419921875</ele>
        <time>2012-04-20T16:00:26Z</time>
      </trkpt>
      <trkpt lat="48.19819" lon="-4.07177">
        <ele>0.137451171875</ele>
        <time>2012-04-20T16:00:46Z</time>
      </trkpt>
      <trkpt lat="48.19764" lon="-4.07245">
        <ele>0.137451171875</ele>
        <time>2012-04-20T16:01:06Z</time>
      </trkpt>
      <trkpt lat="48.19709" lon="-4.073">
        <ele>0.137451171875</ele>
        <time>2012-04-20T16:01:23Z</time>
      </trkpt>
      <trkpt lat="48.1959" lon="-4.07369">
        <ele>1.0986328125</ele>
        <time>2012-04-20T16:01:55Z</time>
      </trkpt>
      <trkpt lat="48.19508" lon="-4.0741">
        <ele>2.06005859375</ele>
        <time>2012-04-20T16:02:16Z</time>
      </trkpt>
      <trkpt lat="48.19411" lon="-4.07462">
        <ele>1.0986328125</ele>
        <time>2012-04-20T16:02:41Z</time>
      </trkpt>
      <trkpt lat="48.19363" lon="-4.07497">
        <ele>0.6180419921875</ele>
        <time>2012-04-20T16:02:55Z</time>
      </trkpt>
      <trkpt lat="48.19275" lon="-4.07572">
        <ele>0.6180419921875</ele>
        <time>2012-04-20T16:03:21Z</time>
      </trkpt>
      <trkpt lat="48.19206" lon="-4.07646">
        <ele>0.137451171875</ele>
        <time>2012-04-20T16:03:43Z</time>
      </trkpt>
      <trkpt lat="48.19149" lon="-4.07734">
        <ele>-0.8240966796875</ele>
        <time>2012-04-20T16:04:04Z</time>
      </trkpt>
      <trkpt lat="48.19089" lon="-4.07859">
        <ele>-0.3433837890625</ele>
        <time>2012-04-20T16:04:31Z</time>
      </trkpt>
      <trkpt lat="48.19057" lon="-4.07962">
        <ele>-1.7852783203125</ele>
        <time>2012-04-20T16:04:51Z</time>
      </trkpt>
      <trkpt lat="48.19008" lon="-4.08091">
        <ele>-3.227294921875</ele>
        <time>2012-04-20T16:05:16Z</time>
      </trkpt>
      <trkpt lat="48.18956" lon="-4.08222">
        <ele>-0.8240966796875</ele>
        <time>2012-04-20T16:05:41Z</time>
      </trkpt>
      <trkpt lat="48.1894" lon="-4.08263">
        <ele>-1.3046875</ele>
        <time>2012-04-20T16:05:50Z</time>
      </trkpt>
      <trkpt lat="48.18912" lon="-4.08323">
        <ele>-1.3046875</ele>
        <time>2012-04-20T16:06:02Z</time>
      </trkpt>
      <trkpt lat="48.18867" lon="-4.08396">
        <ele>0.6180419921875</ele>
        <time>2012-04-20T16:06:18Z</time>
      </trkpt>
      <trkpt lat="48.18836" lon="-4.08492">
        <ele>2.06005859375</ele>
        <time>2012-04-20T16:06:36Z</time>
      </trkpt>
      <trkpt lat="48.18823" lon="-4.08593">
        <ele>2.06005859375</ele>
        <time>2012-04-20T16:06:54Z</time>
      </trkpt>
      <trkpt lat="48.18825" lon="-4.08728">
        <ele>-0.3433837890625</ele>
        <time>2012-04-20T16:07:17Z</time>
      </trkpt>
      <trkpt lat="48.1884" lon="-4.08864">
        <ele>-2.7467041015625</ele>
        <time>2012-04-20T16:07:39Z</time>
      </trkpt>
      <trkpt lat="48.18843" lon="-4.08876">
        <ele>-2.7467041015625</ele>
        <time>2012-04-20T16:07:41Z</time>
      </trkpt>
      <trkpt lat="48.18883" lon="-4.08993">
        <ele>-3.7078857421875</ele>
        <time>2012-04-20T16:08:03Z</time>
      </trkpt>
      <trkpt lat="48.18945" lon="-4.09076">
        <ele>-4.6693115234375</ele>
        <time>2012-04-20T16:08:25Z</time>
      </trkpt>
      <trkpt lat="48.18987" lon="-4.09106">
        <ele>-4.6693115234375</ele>
        <time>2012-04-20T16:08:40Z</time>
      </trkpt>
      <trkpt lat="48.18991" lon="-4.09101">
        <ele>-4.1885986328125</ele>
        <time>2012-04-20T16:08:50Z</time>
      </trkpt>
      <trkpt lat="48.18966" lon="-4.09102">
        <ele>-3.7078857421875</ele>
        <time>2012-04-20T16:09:01Z</time>
      </trkpt>
      <trkpt lat="48.18949" lon="-4.09089">
        <ele>-3.227294921875</ele>
        <time>2012-04-20T16:09:08Z</time>
      </trkpt>
      <trkpt lat="48.18949" lon="-4.09078">
        <ele>-3.7078857421875</ele>
        <time>2012-04-20T16:09:19Z</time>
      </trkpt>
      <trkpt lat="48.18951" lon="-4.09073">
        <ele>-3.7078857421875</ele>
        <time>2012-04-20T16:09:38Z</time>
      </trkpt>
      <trkpt lat="48.18946" lon="-4.09041">
        <ele>-2.7467041015625</ele>
        <time>2012-04-20T16:09:58Z</time>
      </trkpt>
      <trkpt lat="48.18953" lon="-4.09001">
        <ele>-0.8240966796875</ele>
        <time>2012-04-20T16:10:22Z</time>
      </trkpt>
      <trkpt lat="48.18986" lon="-4.09013">
        <ele>0.6180419921875</ele>
        <time>2012-04-20T16:10:50Z</time>
      </trkpt>
      <trkpt lat="48.18987" lon="-4.09016">
        <ele>0.137451171875</ele>
        <time>2012-04-20T16:11:01Z</time>
      </trkpt>
      <trkpt lat="48.18987" lon="-4.09023">
        <ele>0.6180419921875</ele>
        <time>2012-04-20T16:11:19Z</time>
      </trkpt>
      <trkpt lat="48.18988" lon="-4.09024">
        <ele>0.6180419921875</ele>
        <time>2012-04-20T16:11:56Z</time>
      </trkpt>
      <trkpt lat="48.18989" lon="-4.09024">
        <ele>1.0986328125</ele>
        <time>2012-04-20T16:16:56Z</time>
      </trkpt>
    </trkseg>
  </trk>
  <trk>
    <name><![CDATA[ACTIVE LOG 019]]></name>
    <trkseg>
      <trkpt lat="48.2013" lon="-4.09457">
        <ele>0.137451171875</ele>
        <time>2012-04-22T08:39:50Z</time>
      </trkpt>
      <trkpt lat="48.20118" lon="-4.09481">
        <ele>-8.9952392578125</ele>
        <time>2012-04-22T08:40:08Z</time>
      </trkpt>
      <trkpt lat="48.20111" lon="-4.09492">
        <ele>-9.475830078125</ele>
        <time>2012-04-22T08:40:17Z</time>
      </trkpt>
      <trkpt lat="48.20095" lon="-4.09519">
        <ele>-17.647094726562</ele>
        <time>2012-04-22T08:40:40Z</time>
      </trkpt>
      <trkpt lat="48.20076" lon="-4.09533">
        <ele>1.0986328125</ele>
        <time>2012-04-22T08:40:59Z</time>
      </trkpt>
      <trkpt lat="48.20213" lon="-4.09437">
        <ele>-12.35986328125</ele>
        <time>2012-04-22T08:41:26Z</time>
      </trkpt>
    </trkseg>
  </trk>
</gpx>